<?xml version="1.0" encoding="UTF-8" standalone="no" ?>
<gpx xmlns="http://www.topografix.com/GPX/1/1" xmlns:xsi="http://www.w3.org/2001/XMLSchema-instance" xsi:schemaLocation="http://www.topografix.com/GPX/1/1 http://www.topografix.com/GPX/1/1/gpx.xsd" version="1.1" creator="VisuGPX - https://www.visugpx.com">
  <metadata>
    <name>Via-rhôna de Lyon à Sète</name>
    <desc><![CDATA[Via Rhona de Lyon à Sète en 7 jours soit un total de 594 km]]></desc>
  </metadata>
  <trk>
    <name><![CDATA[2019-05-25 09:59:40]]></name>
    <trkseg>
      <trkpt lat="45.74413" lon="4.85925">
        <ele>177.21</ele>
        <time>2019-05-25T07:59:40.000Z</time>
      </trkpt>
      <trkpt lat="45.7442" lon="4.85915">
        <ele>172.14</ele>
        <time>2019-05-25T08:02:58.000Z</time>
      </trkpt>
      <trkpt lat="45.74434" lon="4.85899">
        <ele>170.47</ele>
        <time>2019-05-25T08:03:03.000Z</time>
      </trkpt>
      <trkpt lat="45.74457" lon="4.85892">
        <ele>169.46</ele>
        <time>2019-05-25T08:03:08.000Z</time>
      </trkpt>
      <trkpt lat="45.74482" lon="4.859">
        <ele>169.21</ele>
        <time>2019-05-25T08:03:13.000Z</time>
      </trkpt>
      <trkpt lat="45.74508" lon="4.85908">
        <ele>169.4</ele>
        <time>2019-05-25T08:03:18.000Z</time>
      </trkpt>
      <trkpt lat="45.74532" lon="4.85916">
        <ele>170.2</ele>
        <time>2019-05-25T08:03:23.000Z</time>
      </trkpt>
      <trkpt lat="45.74555" lon="4.85921">
        <ele>171.2</ele>
        <time>2019-05-25T08:03:28.000Z</time>
      </trkpt>
      <trkpt lat="45.74577" lon="4.85929">
        <ele>172.01</ele>
        <time>2019-05-25T08:03:33.000Z</time>
      </trkpt>
      <trkpt lat="45.74598" lon="4.85934">
        <ele>173.15</ele>
        <time>2019-05-25T08:03:38.000Z</time>
      </trkpt>
      <trkpt lat="45.74619" lon="4.85939">
        <ele>173.21</ele>
        <time>2019-05-25T08:03:43.000Z</time>
      </trkpt>
      <trkpt lat="45.74636" lon="4.85943">
        <ele>174.19</ele>
        <time>2019-05-25T08:03:48.000Z</time>
      </trkpt>
      <trkpt lat="45.74652" lon="4.85947">
        <ele>176.15</ele>
        <time>2019-05-25T08:03:53.000Z</time>
      </trkpt>
      <trkpt lat="45.74668" lon="4.85951">
        <ele>177.21</ele>
        <time>2019-05-25T08:03:58.000Z</time>
      </trkpt>
      <trkpt lat="45.74685" lon="4.85955">
        <ele>177.96</ele>
        <time>2019-05-25T08:04:03.000Z</time>
      </trkpt>
      <trkpt lat="45.74702" lon="4.85962">
        <ele>176.22</ele>
        <time>2019-05-25T08:04:08.000Z</time>
      </trkpt>
      <trkpt lat="45.7472" lon="4.85963">
        <ele>179.14</ele>
        <time>2019-05-25T08:04:13.000Z</time>
      </trkpt>
      <trkpt lat="45.74739" lon="4.85968">
        <ele>180.96</ele>
        <time>2019-05-25T08:04:18.000Z</time>
      </trkpt>
      <trkpt lat="45.74761" lon="4.85973">
        <ele>180.96</ele>
        <time>2019-05-25T08:04:23.000Z</time>
      </trkpt>
      <trkpt lat="45.74787" lon="4.85979">
        <ele>181.21</ele>
        <time>2019-05-25T08:04:28.000Z</time>
      </trkpt>
      <trkpt lat="45.74813" lon="4.85984">
        <ele>182.15</ele>
        <time>2019-05-25T08:04:33.000Z</time>
      </trkpt>
      <trkpt lat="45.74837" lon="4.8599">
        <ele>183.97</ele>
        <time>2019-05-25T08:04:38.000Z</time>
      </trkpt>
      <trkpt lat="45.7486" lon="4.85998">
        <ele>185.2</ele>
        <time>2019-05-25T08:04:43.000Z</time>
      </trkpt>
      <trkpt lat="45.74886" lon="4.86009">
        <ele>184.96</ele>
        <time>2019-05-25T08:04:48.000Z</time>
      </trkpt>
      <trkpt lat="45.74909" lon="4.86025">
        <ele>181.24</ele>
        <time>2019-05-25T08:04:53.000Z</time>
      </trkpt>
      <trkpt lat="45.74924" lon="4.8603">
        <ele>180.28</ele>
        <time>2019-05-25T08:04:58.000Z</time>
      </trkpt>
      <trkpt lat="45.74935" lon="4.86037">
        <ele>182.2</ele>
        <time>2019-05-25T08:05:03.000Z</time>
      </trkpt>
      <trkpt lat="45.74949" lon="4.86025">
        <ele>182.22</ele>
        <time>2019-05-25T08:05:08.000Z</time>
      </trkpt>
      <trkpt lat="45.74957" lon="4.85996">
        <ele>182.22</ele>
        <time>2019-05-25T08:05:13.000Z</time>
      </trkpt>
      <trkpt lat="45.74961" lon="4.85978">
        <ele>180</ele>
        <time>2019-05-25T08:05:18.000Z</time>
      </trkpt>
      <trkpt lat="45.74966" lon="4.85966">
        <ele>176.22</ele>
        <time>2019-05-25T08:05:58.000Z</time>
      </trkpt>
      <trkpt lat="45.74974" lon="4.85944">
        <ele>175.28</ele>
        <time>2019-05-25T08:06:03.000Z</time>
      </trkpt>
      <trkpt lat="45.74983" lon="4.85911">
        <ele>175.23</ele>
        <time>2019-05-25T08:06:08.000Z</time>
      </trkpt>
      <trkpt lat="45.74994" lon="4.8587">
        <ele>174.28</ele>
        <time>2019-05-25T08:06:13.000Z</time>
      </trkpt>
      <trkpt lat="45.75008" lon="4.85829">
        <ele>174.92</ele>
        <time>2019-05-25T08:06:18.000Z</time>
      </trkpt>
      <trkpt lat="45.75019" lon="4.85784">
        <ele>176.21</ele>
        <time>2019-05-25T08:06:23.000Z</time>
      </trkpt>
      <trkpt lat="45.75036" lon="4.85741">
        <ele>178.89</ele>
        <time>2019-05-25T08:06:28.000Z</time>
      </trkpt>
      <trkpt lat="45.75051" lon="4.85703">
        <ele>179.2</ele>
        <time>2019-05-25T08:06:33.000Z</time>
      </trkpt>
      <trkpt lat="45.75066" lon="4.85662">
        <ele>179.52</ele>
        <time>2019-05-25T08:06:38.000Z</time>
      </trkpt>
      <trkpt lat="45.75079" lon="4.85621">
        <ele>176.3</ele>
        <time>2019-05-25T08:06:43.000Z</time>
      </trkpt>
      <trkpt lat="45.75089" lon="4.85596">
        <ele>176.96</ele>
        <time>2019-05-25T08:06:48.000Z</time>
      </trkpt>
      <trkpt lat="45.75098" lon="4.85568">
        <ele>178.13</ele>
        <time>2019-05-25T08:06:53.000Z</time>
      </trkpt>
      <trkpt lat="45.75111" lon="4.85529">
        <ele>180.95</ele>
        <time>2019-05-25T08:06:58.000Z</time>
      </trkpt>
      <trkpt lat="45.75126" lon="4.85487">
        <ele>182.26</ele>
        <time>2019-05-25T08:07:03.000Z</time>
      </trkpt>
      <trkpt lat="45.75142" lon="4.85444">
        <ele>182.96</ele>
        <time>2019-05-25T08:07:08.000Z</time>
      </trkpt>
      <trkpt lat="45.75155" lon="4.85402">
        <ele>180.19</ele>
        <time>2019-05-25T08:07:13.000Z</time>
      </trkpt>
      <trkpt lat="45.75165" lon="4.85363">
        <ele>180.22</ele>
        <time>2019-05-25T08:07:18.000Z</time>
      </trkpt>
      <trkpt lat="45.75181" lon="4.85324">
        <ele>175.6</ele>
        <time>2019-05-25T08:07:23.000Z</time>
      </trkpt>
      <trkpt lat="45.75195" lon="4.85282">
        <ele>174.21</ele>
        <time>2019-05-25T08:07:28.000Z</time>
      </trkpt>
      <trkpt lat="45.75209" lon="4.8524">
        <ele>174.2</ele>
        <time>2019-05-25T08:07:33.000Z</time>
      </trkpt>
      <trkpt lat="45.75225" lon="4.85197">
        <ele>175.95</ele>
        <time>2019-05-25T08:07:38.000Z</time>
      </trkpt>
      <trkpt lat="45.75246" lon="4.85152">
        <ele>181.62</ele>
        <time>2019-05-25T08:07:43.000Z</time>
      </trkpt>
      <trkpt lat="45.75255" lon="4.85125">
        <ele>184.7</ele>
        <time>2019-05-25T08:07:48.000Z</time>
      </trkpt>
      <trkpt lat="45.75258" lon="4.85109">
        <ele>177.39</ele>
        <time>2019-05-25T08:07:53.000Z</time>
      </trkpt>
      <trkpt lat="45.7526" lon="4.85092">
        <ele>178.54</ele>
        <time>2019-05-25T08:08:04.000Z</time>
      </trkpt>
      <trkpt lat="45.75267" lon="4.85066">
        <ele>176.51</ele>
        <time>2019-05-25T08:08:09.000Z</time>
      </trkpt>
      <trkpt lat="45.75274" lon="4.85032">
        <ele>179.19</ele>
        <time>2019-05-25T08:08:14.000Z</time>
      </trkpt>
      <trkpt lat="45.75292" lon="4.85006">
        <ele>180.18</ele>
        <time>2019-05-25T08:08:19.000Z</time>
      </trkpt>
      <trkpt lat="45.75304" lon="4.84966">
        <ele>180.96</ele>
        <time>2019-05-25T08:08:24.000Z</time>
      </trkpt>
      <trkpt lat="45.75312" lon="4.8493">
        <ele>181.95</ele>
        <time>2019-05-25T08:08:29.000Z</time>
      </trkpt>
      <trkpt lat="45.75318" lon="4.84914">
        <ele>172.37</ele>
        <time>2019-05-25T08:09:25.000Z</time>
      </trkpt>
      <trkpt lat="45.7533" lon="4.84882">
        <ele>172.21</ele>
        <time>2019-05-25T08:09:30.000Z</time>
      </trkpt>
      <trkpt lat="45.75339" lon="4.8485">
        <ele>173.19</ele>
        <time>2019-05-25T08:09:35.000Z</time>
      </trkpt>
      <trkpt lat="45.75352" lon="4.84815">
        <ele>174.93</ele>
        <time>2019-05-25T08:09:40.000Z</time>
      </trkpt>
      <trkpt lat="45.75371" lon="4.84775">
        <ele>176.93</ele>
        <time>2019-05-25T08:09:45.000Z</time>
      </trkpt>
      <trkpt lat="45.75384" lon="4.8474">
        <ele>179.19</ele>
        <time>2019-05-25T08:09:50.000Z</time>
      </trkpt>
      <trkpt lat="45.754" lon="4.84699">
        <ele>181.12</ele>
        <time>2019-05-25T08:09:55.000Z</time>
      </trkpt>
      <trkpt lat="45.75412" lon="4.84658">
        <ele>180.91</ele>
        <time>2019-05-25T08:10:00.000Z</time>
      </trkpt>
      <trkpt lat="45.75429" lon="4.84617">
        <ele>181.18</ele>
        <time>2019-05-25T08:10:05.000Z</time>
      </trkpt>
      <trkpt lat="45.75438" lon="4.84579">
        <ele>181.38</ele>
        <time>2019-05-25T08:10:10.000Z</time>
      </trkpt>
      <trkpt lat="45.75448" lon="4.84568">
        <ele>179.47</ele>
        <time>2019-05-25T08:10:15.000Z</time>
      </trkpt>
      <trkpt lat="45.7545" lon="4.84554">
        <ele>176.95</ele>
        <time>2019-05-25T08:11:06.000Z</time>
      </trkpt>
      <trkpt lat="45.75459" lon="4.84526">
        <ele>182.17</ele>
        <time>2019-05-25T08:11:11.000Z</time>
      </trkpt>
      <trkpt lat="45.75479" lon="4.84488">
        <ele>183.37</ele>
        <time>2019-05-25T08:11:16.000Z</time>
      </trkpt>
      <trkpt lat="45.755" lon="4.84443">
        <ele>181.12</ele>
        <time>2019-05-25T08:11:21.000Z</time>
      </trkpt>
      <trkpt lat="45.75517" lon="4.84398">
        <ele>185.1</ele>
        <time>2019-05-25T08:11:26.000Z</time>
      </trkpt>
      <trkpt lat="45.75529" lon="4.84363">
        <ele>183.19</ele>
        <time>2019-05-25T08:11:31.000Z</time>
      </trkpt>
      <trkpt lat="45.75533" lon="4.84351">
        <ele>187.56</ele>
        <time>2019-05-25T08:11:36.000Z</time>
      </trkpt>
      <trkpt lat="45.75531" lon="4.84336">
        <ele>185.19</ele>
        <time>2019-05-25T08:11:57.000Z</time>
      </trkpt>
      <trkpt lat="45.75539" lon="4.84308">
        <ele>184.39</ele>
        <time>2019-05-25T08:12:02.000Z</time>
      </trkpt>
      <trkpt lat="45.75552" lon="4.84271">
        <ele>183.17</ele>
        <time>2019-05-25T08:12:07.000Z</time>
      </trkpt>
      <trkpt lat="45.75564" lon="4.84242">
        <ele>179.27</ele>
        <time>2019-05-25T08:12:12.000Z</time>
      </trkpt>
      <trkpt lat="45.75572" lon="4.84216">
        <ele>178.43</ele>
        <time>2019-05-25T08:12:17.000Z</time>
      </trkpt>
      <trkpt lat="45.75579" lon="4.84189">
        <ele>178.2</ele>
        <time>2019-05-25T08:12:22.000Z</time>
      </trkpt>
      <trkpt lat="45.75586" lon="4.84161">
        <ele>178.43</ele>
        <time>2019-05-25T08:12:27.000Z</time>
      </trkpt>
      <trkpt lat="45.75595" lon="4.84139">
        <ele>179.24</ele>
        <time>2019-05-25T08:12:32.000Z</time>
      </trkpt>
      <trkpt lat="45.75603" lon="4.84113">
        <ele>178</ele>
        <time>2019-05-25T08:12:37.000Z</time>
      </trkpt>
      <trkpt lat="45.75614" lon="4.84088">
        <ele>179.1</ele>
        <time>2019-05-25T08:12:42.000Z</time>
      </trkpt>
      <trkpt lat="45.75624" lon="4.84058">
        <ele>179.37</ele>
        <time>2019-05-25T08:12:47.000Z</time>
      </trkpt>
      <trkpt lat="45.75632" lon="4.84033">
        <ele>178.18</ele>
        <time>2019-05-25T08:12:52.000Z</time>
      </trkpt>
      <trkpt lat="45.75639" lon="4.84024">
        <ele>175.5</ele>
        <time>2019-05-25T08:13:00.000Z</time>
      </trkpt>
      <trkpt lat="45.75629" lon="4.84017">
        <ele>170.12</ele>
        <time>2019-05-25T08:13:13.000Z</time>
      </trkpt>
      <trkpt lat="45.75612" lon="4.84008">
        <ele>171.91</ele>
        <time>2019-05-25T08:13:18.000Z</time>
      </trkpt>
      <trkpt lat="45.7559" lon="4.83999">
        <ele>173.16</ele>
        <time>2019-05-25T08:13:23.000Z</time>
      </trkpt>
      <trkpt lat="45.75564" lon="4.83981">
        <ele>173.93</ele>
        <time>2019-05-25T08:13:28.000Z</time>
      </trkpt>
      <trkpt lat="45.75534" lon="4.83962">
        <ele>174.17</ele>
        <time>2019-05-25T08:13:33.000Z</time>
      </trkpt>
      <trkpt lat="45.75504" lon="4.83935">
        <ele>174.13</ele>
        <time>2019-05-25T08:13:38.000Z</time>
      </trkpt>
      <trkpt lat="45.75471" lon="4.8391">
        <ele>173.42</ele>
        <time>2019-05-25T08:13:43.000Z</time>
      </trkpt>
      <trkpt lat="45.75439" lon="4.83883">
        <ele>173.92</ele>
        <time>2019-05-25T08:13:48.000Z</time>
      </trkpt>
      <trkpt lat="45.75406" lon="4.83858">
        <ele>175.16</ele>
        <time>2019-05-25T08:13:53.000Z</time>
      </trkpt>
      <trkpt lat="45.75375" lon="4.83832">
        <ele>176.17</ele>
        <time>2019-05-25T08:13:58.000Z</time>
      </trkpt>
      <trkpt lat="45.75343" lon="4.83806">
        <ele>175.19</ele>
        <time>2019-05-25T08:14:03.000Z</time>
      </trkpt>
      <trkpt lat="45.75311" lon="4.83784">
        <ele>172.99</ele>
        <time>2019-05-25T08:14:08.000Z</time>
      </trkpt>
      <trkpt lat="45.75281" lon="4.83763">
        <ele>172.97</ele>
        <time>2019-05-25T08:14:13.000Z</time>
      </trkpt>
      <trkpt lat="45.75262" lon="4.83736">
        <ele>175.15</ele>
        <time>2019-05-25T08:14:18.000Z</time>
      </trkpt>
      <trkpt lat="45.75243" lon="4.83713">
        <ele>174.17</ele>
        <time>2019-05-25T08:14:23.000Z</time>
      </trkpt>
      <trkpt lat="45.75235" lon="4.83703">
        <ele>176.15</ele>
        <time>2019-05-25T08:14:28.000Z</time>
      </trkpt>
      <trkpt lat="45.75225" lon="4.83706">
        <ele>175.19</ele>
        <time>2019-05-25T08:14:33.000Z</time>
      </trkpt>
      <trkpt lat="45.7521" lon="4.83695">
        <ele>175.42</ele>
        <time>2019-05-25T08:14:38.000Z</time>
      </trkpt>
      <trkpt lat="45.752" lon="4.83691">
        <ele>172.36</ele>
        <time>2019-05-25T08:15:06.000Z</time>
      </trkpt>
      <trkpt lat="45.75186" lon="4.83682">
        <ele>175.08</ele>
        <time>2019-05-25T08:15:11.000Z</time>
      </trkpt>
      <trkpt lat="45.75171" lon="4.8367">
        <ele>176.84</ele>
        <time>2019-05-25T08:15:16.000Z</time>
      </trkpt>
      <trkpt lat="45.75155" lon="4.83653">
        <ele>179.84</ele>
        <time>2019-05-25T08:15:21.000Z</time>
      </trkpt>
      <trkpt lat="45.75138" lon="4.83639">
        <ele>180.4</ele>
        <time>2019-05-25T08:15:26.000Z</time>
      </trkpt>
      <trkpt lat="45.75126" lon="4.83627">
        <ele>180.93</ele>
        <time>2019-05-25T08:15:31.000Z</time>
      </trkpt>
      <trkpt lat="45.75124" lon="4.83614">
        <ele>181.91</ele>
        <time>2019-05-25T08:15:36.000Z</time>
      </trkpt>
      <trkpt lat="45.75111" lon="4.836">
        <ele>180.23</ele>
        <time>2019-05-25T08:15:41.000Z</time>
      </trkpt>
      <trkpt lat="45.75089" lon="4.8358">
        <ele>177.98</ele>
        <time>2019-05-25T08:15:46.000Z</time>
      </trkpt>
      <trkpt lat="45.75068" lon="4.83561">
        <ele>176.18</ele>
        <time>2019-05-25T08:15:51.000Z</time>
      </trkpt>
      <trkpt lat="45.75049" lon="4.83529">
        <ele>174.24</ele>
        <time>2019-05-25T08:15:56.000Z</time>
      </trkpt>
      <trkpt lat="45.75029" lon="4.835">
        <ele>174.16</ele>
        <time>2019-05-25T08:16:01.000Z</time>
      </trkpt>
      <trkpt lat="45.75002" lon="4.83479">
        <ele>172.24</ele>
        <time>2019-05-25T08:16:06.000Z</time>
      </trkpt>
      <trkpt lat="45.74974" lon="4.83458">
        <ele>171.41</ele>
        <time>2019-05-25T08:16:11.000Z</time>
      </trkpt>
      <trkpt lat="45.74946" lon="4.83436">
        <ele>171.16</ele>
        <time>2019-05-25T08:16:16.000Z</time>
      </trkpt>
      <trkpt lat="45.74921" lon="4.83412">
        <ele>172.19</ele>
        <time>2019-05-25T08:16:21.000Z</time>
      </trkpt>
      <trkpt lat="45.74893" lon="4.83392">
        <ele>169.47</ele>
        <time>2019-05-25T08:16:26.000Z</time>
      </trkpt>
      <trkpt lat="45.74863" lon="4.83369">
        <ele>165.5</ele>
        <time>2019-05-25T08:16:31.000Z</time>
      </trkpt>
      <trkpt lat="45.74833" lon="4.83347">
        <ele>164.16</ele>
        <time>2019-05-25T08:16:36.000Z</time>
      </trkpt>
      <trkpt lat="45.74799" lon="4.83328">
        <ele>162.96</ele>
        <time>2019-05-25T08:16:41.000Z</time>
      </trkpt>
      <trkpt lat="45.74775" lon="4.83306">
        <ele>162.17</ele>
        <time>2019-05-25T08:16:46.000Z</time>
      </trkpt>
      <trkpt lat="45.74743" lon="4.83285">
        <ele>162.15</ele>
        <time>2019-05-25T08:16:51.000Z</time>
      </trkpt>
      <trkpt lat="45.74711" lon="4.83259">
        <ele>159.12</ele>
        <time>2019-05-25T08:16:56.000Z</time>
      </trkpt>
      <trkpt lat="45.74678" lon="4.83237">
        <ele>156.71</ele>
        <time>2019-05-25T08:17:01.000Z</time>
      </trkpt>
      <trkpt lat="45.74654" lon="4.83213">
        <ele>157.09</ele>
        <time>2019-05-25T08:17:06.000Z</time>
      </trkpt>
      <trkpt lat="45.74627" lon="4.83187">
        <ele>158.84</ele>
        <time>2019-05-25T08:17:11.000Z</time>
      </trkpt>
      <trkpt lat="45.74598" lon="4.83168">
        <ele>159.14</ele>
        <time>2019-05-25T08:17:16.000Z</time>
      </trkpt>
      <trkpt lat="45.74568" lon="4.83142">
        <ele>162.88</ele>
        <time>2019-05-25T08:17:21.000Z</time>
      </trkpt>
      <trkpt lat="45.74544" lon="4.83106">
        <ele>166.44</ele>
        <time>2019-05-25T08:17:26.000Z</time>
      </trkpt>
      <trkpt lat="45.74515" lon="4.83072">
        <ele>167.89</ele>
        <time>2019-05-25T08:17:31.000Z</time>
      </trkpt>
      <trkpt lat="45.74486" lon="4.8304">
        <ele>166.96</ele>
        <time>2019-05-25T08:17:36.000Z</time>
      </trkpt>
      <trkpt lat="45.74457" lon="4.83009">
        <ele>167.14</ele>
        <time>2019-05-25T08:17:41.000Z</time>
      </trkpt>
      <trkpt lat="45.74424" lon="4.82979">
        <ele>167.14</ele>
        <time>2019-05-25T08:17:46.000Z</time>
      </trkpt>
      <trkpt lat="45.74397" lon="4.82954">
        <ele>166.64</ele>
        <time>2019-05-25T08:17:51.000Z</time>
      </trkpt>
      <trkpt lat="45.74364" lon="4.82934">
        <ele>163.46</ele>
        <time>2019-05-25T08:17:56.000Z</time>
      </trkpt>
      <trkpt lat="45.74338" lon="4.82914">
        <ele>160.77</ele>
        <time>2019-05-25T08:18:01.000Z</time>
      </trkpt>
      <trkpt lat="45.74313" lon="4.82886">
        <ele>161.13</ele>
        <time>2019-05-25T08:18:06.000Z</time>
      </trkpt>
      <trkpt lat="45.74284" lon="4.82863">
        <ele>161.37</ele>
        <time>2019-05-25T08:18:11.000Z</time>
      </trkpt>
      <trkpt lat="45.74251" lon="4.82839">
        <ele>160.4</ele>
        <time>2019-05-25T08:18:16.000Z</time>
      </trkpt>
      <trkpt lat="45.74224" lon="4.82813">
        <ele>161.83</ele>
        <time>2019-05-25T08:18:21.000Z</time>
      </trkpt>
      <trkpt lat="45.74198" lon="4.82788">
        <ele>163.91</ele>
        <time>2019-05-25T08:18:26.000Z</time>
      </trkpt>
      <trkpt lat="45.7417" lon="4.82765">
        <ele>164.13</ele>
        <time>2019-05-25T08:18:31.000Z</time>
      </trkpt>
      <trkpt lat="45.74144" lon="4.8274">
        <ele>167.61</ele>
        <time>2019-05-25T08:18:36.000Z</time>
      </trkpt>
      <trkpt lat="45.74117" lon="4.82715">
        <ele>169.12</ele>
        <time>2019-05-25T08:18:41.000Z</time>
      </trkpt>
      <trkpt lat="45.74086" lon="4.82691">
        <ele>169.13</ele>
        <time>2019-05-25T08:18:46.000Z</time>
      </trkpt>
      <trkpt lat="45.74056" lon="4.82668">
        <ele>170.07</ele>
        <time>2019-05-25T08:18:51.000Z</time>
      </trkpt>
      <trkpt lat="45.74026" lon="4.82642">
        <ele>169.18</ele>
        <time>2019-05-25T08:18:56.000Z</time>
      </trkpt>
      <trkpt lat="45.73997" lon="4.82618">
        <ele>170.08</ele>
        <time>2019-05-25T08:19:01.000Z</time>
      </trkpt>
      <trkpt lat="45.7397" lon="4.82593">
        <ele>170.13</ele>
        <time>2019-05-25T08:19:06.000Z</time>
      </trkpt>
      <trkpt lat="45.73943" lon="4.82567">
        <ele>170.13</ele>
        <time>2019-05-25T08:19:11.000Z</time>
      </trkpt>
      <trkpt lat="45.73912" lon="4.82549">
        <ele>168.38</ele>
        <time>2019-05-25T08:19:16.000Z</time>
      </trkpt>
      <trkpt lat="45.73884" lon="4.82524">
        <ele>168.36</ele>
        <time>2019-05-25T08:19:21.000Z</time>
      </trkpt>
      <trkpt lat="45.73857" lon="4.82497">
        <ele>169.86</ele>
        <time>2019-05-25T08:19:26.000Z</time>
      </trkpt>
      <trkpt lat="45.73829" lon="4.82471">
        <ele>171.11</ele>
        <time>2019-05-25T08:19:31.000Z</time>
      </trkpt>
      <trkpt lat="45.738" lon="4.8245">
        <ele>170.19</ele>
        <time>2019-05-25T08:19:36.000Z</time>
      </trkpt>
      <trkpt lat="45.73773" lon="4.82425">
        <ele>171.85</ele>
        <time>2019-05-25T08:19:41.000Z</time>
      </trkpt>
      <trkpt lat="45.73745" lon="4.82402">
        <ele>171.37</ele>
        <time>2019-05-25T08:19:46.000Z</time>
      </trkpt>
      <trkpt lat="45.73718" lon="4.82381">
        <ele>171.12</ele>
        <time>2019-05-25T08:19:51.000Z</time>
      </trkpt>
      <trkpt lat="45.73694" lon="4.8237">
        <ele>169.12</ele>
        <time>2019-05-25T08:19:56.000Z</time>
      </trkpt>
      <trkpt lat="45.73675" lon="4.82357">
        <ele>169.12</ele>
        <time>2019-05-25T08:20:01.000Z</time>
      </trkpt>
      <trkpt lat="45.73658" lon="4.82351">
        <ele>170.05</ele>
        <time>2019-05-25T08:20:06.000Z</time>
      </trkpt>
      <trkpt lat="45.73637" lon="4.82339">
        <ele>169.13</ele>
        <time>2019-05-25T08:20:11.000Z</time>
      </trkpt>
      <trkpt lat="45.73615" lon="4.82319">
        <ele>170.86</ele>
        <time>2019-05-25T08:20:16.000Z</time>
      </trkpt>
      <trkpt lat="45.7359" lon="4.823">
        <ele>171.11</ele>
        <time>2019-05-25T08:20:21.000Z</time>
      </trkpt>
      <trkpt lat="45.73566" lon="4.82278">
        <ele>171.11</ele>
        <time>2019-05-25T08:20:26.000Z</time>
      </trkpt>
      <trkpt lat="45.7354" lon="4.82257">
        <ele>169.37</ele>
        <time>2019-05-25T08:20:31.000Z</time>
      </trkpt>
      <trkpt lat="45.73514" lon="4.82238">
        <ele>169.11</ele>
        <time>2019-05-25T08:20:36.000Z</time>
      </trkpt>
      <trkpt lat="45.7349" lon="4.82222">
        <ele>168.12</ele>
        <time>2019-05-25T08:20:41.000Z</time>
      </trkpt>
      <trkpt lat="45.73469" lon="4.82214">
        <ele>168.11</ele>
        <time>2019-05-25T08:20:46.000Z</time>
      </trkpt>
      <trkpt lat="45.73446" lon="4.82208">
        <ele>168.91</ele>
        <time>2019-05-25T08:20:51.000Z</time>
      </trkpt>
      <trkpt lat="45.73419" lon="4.822">
        <ele>167.36</ele>
        <time>2019-05-25T08:20:56.000Z</time>
      </trkpt>
      <trkpt lat="45.73391" lon="4.8219">
        <ele>167.11</ele>
        <time>2019-05-25T08:21:01.000Z</time>
      </trkpt>
      <trkpt lat="45.73364" lon="4.82187">
        <ele>168.05</ele>
        <time>2019-05-25T08:21:06.000Z</time>
      </trkpt>
      <trkpt lat="45.73339" lon="4.82185">
        <ele>169.09</ele>
        <time>2019-05-25T08:21:11.000Z</time>
      </trkpt>
      <trkpt lat="45.73315" lon="4.82183">
        <ele>169.16</ele>
        <time>2019-05-25T08:21:16.000Z</time>
      </trkpt>
      <trkpt lat="45.73295" lon="4.82172">
        <ele>166.18</ele>
        <time>2019-05-25T08:21:21.000Z</time>
      </trkpt>
      <trkpt lat="45.73266" lon="4.82163">
        <ele>166.29</ele>
        <time>2019-05-25T08:21:26.000Z</time>
      </trkpt>
      <trkpt lat="45.73241" lon="4.82148">
        <ele>166.15</ele>
        <time>2019-05-25T08:21:31.000Z</time>
      </trkpt>
      <trkpt lat="45.73212" lon="4.82134">
        <ele>164.86</ele>
        <time>2019-05-25T08:21:36.000Z</time>
      </trkpt>
      <trkpt lat="45.73181" lon="4.82129">
        <ele>166.55</ele>
        <time>2019-05-25T08:21:41.000Z</time>
      </trkpt>
      <trkpt lat="45.73154" lon="4.82124">
        <ele>165.92</ele>
        <time>2019-05-25T08:21:46.000Z</time>
      </trkpt>
      <trkpt lat="45.73131" lon="4.82119">
        <ele>165.12</ele>
        <time>2019-05-25T08:21:51.000Z</time>
      </trkpt>
      <trkpt lat="45.73136" lon="4.8213">
        <ele>167.04</ele>
        <time>2019-05-25T08:21:59.000Z</time>
      </trkpt>
      <trkpt lat="45.7315" lon="4.82136">
        <ele>168.85</ele>
        <time>2019-05-25T08:22:04.000Z</time>
      </trkpt>
      <trkpt lat="45.73163" lon="4.82149">
        <ele>170.29</ele>
        <time>2019-05-25T08:22:09.000Z</time>
      </trkpt>
      <trkpt lat="45.73175" lon="4.82166">
        <ele>171.35</ele>
        <time>2019-05-25T08:22:14.000Z</time>
      </trkpt>
      <trkpt lat="45.73175" lon="4.82192">
        <ele>172.11</ele>
        <time>2019-05-25T08:22:19.000Z</time>
      </trkpt>
      <trkpt lat="45.73171" lon="4.8222">
        <ele>172.11</ele>
        <time>2019-05-25T08:22:24.000Z</time>
      </trkpt>
      <trkpt lat="45.7318" lon="4.82215">
        <ele>172.86</ele>
        <time>2019-05-25T08:22:32.000Z</time>
      </trkpt>
      <trkpt lat="45.73184" lon="4.8219">
        <ele>173.86</ele>
        <time>2019-05-25T08:22:37.000Z</time>
      </trkpt>
      <trkpt lat="45.73187" lon="4.82165">
        <ele>173.12</ele>
        <time>2019-05-25T08:22:42.000Z</time>
      </trkpt>
      <trkpt lat="45.73192" lon="4.8214">
        <ele>172.93</ele>
        <time>2019-05-25T08:22:47.000Z</time>
      </trkpt>
      <trkpt lat="45.73202" lon="4.82119">
        <ele>173.34</ele>
        <time>2019-05-25T08:22:52.000Z</time>
      </trkpt>
      <trkpt lat="45.73216" lon="4.82103">
        <ele>173.12</ele>
        <time>2019-05-25T08:22:57.000Z</time>
      </trkpt>
      <trkpt lat="45.73229" lon="4.82089">
        <ele>173.11</ele>
        <time>2019-05-25T08:23:02.000Z</time>
      </trkpt>
      <trkpt lat="45.73243" lon="4.8207">
        <ele>172.17</ele>
        <time>2019-05-25T08:23:07.000Z</time>
      </trkpt>
      <trkpt lat="45.73257" lon="4.82052">
        <ele>172.09</ele>
        <time>2019-05-25T08:23:12.000Z</time>
      </trkpt>
      <trkpt lat="45.73272" lon="4.82033">
        <ele>170.17</ele>
        <time>2019-05-25T08:23:17.000Z</time>
      </trkpt>
      <trkpt lat="45.7329" lon="4.82009">
        <ele>169.29</ele>
        <time>2019-05-25T08:23:22.000Z</time>
      </trkpt>
      <trkpt lat="45.7331" lon="4.81986">
        <ele>170.1</ele>
        <time>2019-05-25T08:23:27.000Z</time>
      </trkpt>
      <trkpt lat="45.73331" lon="4.81963">
        <ele>171.29</ele>
        <time>2019-05-25T08:23:32.000Z</time>
      </trkpt>
      <trkpt lat="45.73346" lon="4.81925">
        <ele>169.18</ele>
        <time>2019-05-25T08:23:37.000Z</time>
      </trkpt>
      <trkpt lat="45.73355" lon="4.81893">
        <ele>168.86</ele>
        <time>2019-05-25T08:23:42.000Z</time>
      </trkpt>
      <trkpt lat="45.73362" lon="4.81863">
        <ele>168.91</ele>
        <time>2019-05-25T08:23:47.000Z</time>
      </trkpt>
      <trkpt lat="45.73368" lon="4.8184">
        <ele>168.85</ele>
        <time>2019-05-25T08:23:52.000Z</time>
      </trkpt>
      <trkpt lat="45.73377" lon="4.81821">
        <ele>169.1</ele>
        <time>2019-05-25T08:23:57.000Z</time>
      </trkpt>
      <trkpt lat="45.73385" lon="4.81805">
        <ele>169.1</ele>
        <time>2019-05-25T08:24:02.000Z</time>
      </trkpt>
      <trkpt lat="45.73393" lon="4.81797">
        <ele>167.35</ele>
        <time>2019-05-25T08:24:07.000Z</time>
      </trkpt>
      <trkpt lat="45.73402" lon="4.81804">
        <ele>170.75</ele>
        <time>2019-05-25T08:24:12.000Z</time>
      </trkpt>
      <trkpt lat="45.73395" lon="4.81793">
        <ele>164.21</ele>
        <time>2019-05-25T08:24:31.000Z</time>
      </trkpt>
      <trkpt lat="45.73399" lon="4.81781">
        <ele>168.1</ele>
        <time>2019-05-25T08:24:42.000Z</time>
      </trkpt>
      <trkpt lat="45.734" lon="4.81767">
        <ele>167.1</ele>
        <time>2019-05-25T08:24:54.000Z</time>
      </trkpt>
      <trkpt lat="45.73383" lon="4.81763">
        <ele>167.85</ele>
        <time>2019-05-25T08:24:59.000Z</time>
      </trkpt>
      <trkpt lat="45.73363" lon="4.81743">
        <ele>169.1</ele>
        <time>2019-05-25T08:25:04.000Z</time>
      </trkpt>
      <trkpt lat="45.73342" lon="4.81726">
        <ele>168.86</ele>
        <time>2019-05-25T08:25:09.000Z</time>
      </trkpt>
      <trkpt lat="45.73323" lon="4.81708">
        <ele>169.04</ele>
        <time>2019-05-25T08:25:14.000Z</time>
      </trkpt>
      <trkpt lat="45.73305" lon="4.81695">
        <ele>170.09</ele>
        <time>2019-05-25T08:25:19.000Z</time>
      </trkpt>
      <trkpt lat="45.73283" lon="4.81679">
        <ele>169.36</ele>
        <time>2019-05-25T08:25:24.000Z</time>
      </trkpt>
      <trkpt lat="45.73258" lon="4.81668">
        <ele>172.03</ele>
        <time>2019-05-25T08:25:29.000Z</time>
      </trkpt>
      <trkpt lat="45.73232" lon="4.81652">
        <ele>171.53</ele>
        <time>2019-05-25T08:25:34.000Z</time>
      </trkpt>
      <trkpt lat="45.73207" lon="4.81635">
        <ele>171.85</ele>
        <time>2019-05-25T08:25:39.000Z</time>
      </trkpt>
      <trkpt lat="45.73185" lon="4.81616">
        <ele>175.78</ele>
        <time>2019-05-25T08:25:44.000Z</time>
      </trkpt>
      <trkpt lat="45.73165" lon="4.81598">
        <ele>178.07</ele>
        <time>2019-05-25T08:25:49.000Z</time>
      </trkpt>
      <trkpt lat="45.73145" lon="4.8158">
        <ele>178.1</ele>
        <time>2019-05-25T08:25:54.000Z</time>
      </trkpt>
      <trkpt lat="45.73123" lon="4.81561">
        <ele>177.34</ele>
        <time>2019-05-25T08:25:59.000Z</time>
      </trkpt>
      <trkpt lat="45.73097" lon="4.81541">
        <ele>176.15</ele>
        <time>2019-05-25T08:26:04.000Z</time>
      </trkpt>
      <trkpt lat="45.73068" lon="4.81517">
        <ele>176.09</ele>
        <time>2019-05-25T08:26:09.000Z</time>
      </trkpt>
      <trkpt lat="45.7304" lon="4.81504">
        <ele>175.29</ele>
        <time>2019-05-25T08:26:14.000Z</time>
      </trkpt>
      <trkpt lat="45.73012" lon="4.81516">
        <ele>173.17</ele>
        <time>2019-05-25T08:26:19.000Z</time>
      </trkpt>
      <trkpt lat="45.72987" lon="4.81528">
        <ele>174.09</ele>
        <time>2019-05-25T08:26:24.000Z</time>
      </trkpt>
      <trkpt lat="45.72962" lon="4.81538">
        <ele>174.84</ele>
        <time>2019-05-25T08:26:29.000Z</time>
      </trkpt>
      <trkpt lat="45.72939" lon="4.81539">
        <ele>176.83</ele>
        <time>2019-05-25T08:26:34.000Z</time>
      </trkpt>
      <trkpt lat="45.7293" lon="4.81543">
        <ele>177.09</ele>
        <time>2019-05-25T08:26:39.000Z</time>
      </trkpt>
      <trkpt lat="45.72923" lon="4.81552">
        <ele>178.09</ele>
        <time>2019-05-25T08:26:46.000Z</time>
      </trkpt>
      <trkpt lat="45.72902" lon="4.81571">
        <ele>176.34</ele>
        <time>2019-05-25T08:26:51.000Z</time>
      </trkpt>
      <trkpt lat="45.7287" lon="4.81585">
        <ele>174.35</ele>
        <time>2019-05-25T08:26:56.000Z</time>
      </trkpt>
      <trkpt lat="45.7283" lon="4.81598">
        <ele>171.36</ele>
        <time>2019-05-25T08:27:01.000Z</time>
      </trkpt>
      <trkpt lat="45.72783" lon="4.81613">
        <ele>168.16</ele>
        <time>2019-05-25T08:27:06.000Z</time>
      </trkpt>
      <trkpt lat="45.72734" lon="4.81622">
        <ele>168.09</ele>
        <time>2019-05-25T08:27:11.000Z</time>
      </trkpt>
      <trkpt lat="45.72691" lon="4.81632">
        <ele>168.04</ele>
        <time>2019-05-25T08:27:16.000Z</time>
      </trkpt>
      <trkpt lat="45.72652" lon="4.81642">
        <ele>168.83</ele>
        <time>2019-05-25T08:27:21.000Z</time>
      </trkpt>
      <trkpt lat="45.72618" lon="4.81649">
        <ele>169.09</ele>
        <time>2019-05-25T08:27:26.000Z</time>
      </trkpt>
      <trkpt lat="45.7258" lon="4.81664">
        <ele>170.31</ele>
        <time>2019-05-25T08:27:31.000Z</time>
      </trkpt>
      <trkpt lat="45.72542" lon="4.81677">
        <ele>170.1</ele>
        <time>2019-05-25T08:27:36.000Z</time>
      </trkpt>
      <trkpt lat="45.72503" lon="4.81685">
        <ele>168.15</ele>
        <time>2019-05-25T08:27:41.000Z</time>
      </trkpt>
      <trkpt lat="45.72468" lon="4.81696">
        <ele>168.34</ele>
        <time>2019-05-25T08:27:46.000Z</time>
      </trkpt>
      <trkpt lat="45.72431" lon="4.81705">
        <ele>168.09</ele>
        <time>2019-05-25T08:27:51.000Z</time>
      </trkpt>
      <trkpt lat="45.72394" lon="4.81716">
        <ele>168.09</ele>
        <time>2019-05-25T08:27:56.000Z</time>
      </trkpt>
      <trkpt lat="45.72357" lon="4.81724">
        <ele>167.1</ele>
        <time>2019-05-25T08:28:01.000Z</time>
      </trkpt>
      <trkpt lat="45.72319" lon="4.81733">
        <ele>167.09</ele>
        <time>2019-05-25T08:28:06.000Z</time>
      </trkpt>
      <trkpt lat="45.7228" lon="4.81741">
        <ele>166.1</ele>
        <time>2019-05-25T08:28:11.000Z</time>
      </trkpt>
      <trkpt lat="45.72243" lon="4.81749">
        <ele>166.08</ele>
        <time>2019-05-25T08:28:16.000Z</time>
      </trkpt>
      <trkpt lat="45.72202" lon="4.81758">
        <ele>164.15</ele>
        <time>2019-05-25T08:28:21.000Z</time>
      </trkpt>
      <trkpt lat="45.72162" lon="4.81767">
        <ele>164.09</ele>
        <time>2019-05-25T08:28:26.000Z</time>
      </trkpt>
      <trkpt lat="45.72122" lon="4.81776">
        <ele>164.09</ele>
        <time>2019-05-25T08:28:31.000Z</time>
      </trkpt>
      <trkpt lat="45.72088" lon="4.81783">
        <ele>164.08</ele>
        <time>2019-05-25T08:28:36.000Z</time>
      </trkpt>
      <trkpt lat="45.72055" lon="4.81791">
        <ele>164.08</ele>
        <time>2019-05-25T08:28:41.000Z</time>
      </trkpt>
      <trkpt lat="45.7203" lon="4.81796">
        <ele>163.84</ele>
        <time>2019-05-25T08:28:46.000Z</time>
      </trkpt>
      <trkpt lat="45.72021" lon="4.81798">
        <ele>164.83</ele>
        <time>2019-05-25T08:28:51.000Z</time>
      </trkpt>
      <trkpt lat="45.72001" lon="4.81804">
        <ele>164.1</ele>
        <time>2019-05-25T08:28:56.000Z</time>
      </trkpt>
      <trkpt lat="45.71976" lon="4.81812">
        <ele>165.07</ele>
        <time>2019-05-25T08:29:01.000Z</time>
      </trkpt>
      <trkpt lat="45.71947" lon="4.81817">
        <ele>164.32</ele>
        <time>2019-05-25T08:29:06.000Z</time>
      </trkpt>
      <trkpt lat="45.71916" lon="4.81826">
        <ele>165.08</ele>
        <time>2019-05-25T08:29:11.000Z</time>
      </trkpt>
      <trkpt lat="45.71884" lon="4.81833">
        <ele>165.78</ele>
        <time>2019-05-25T08:29:16.000Z</time>
      </trkpt>
      <trkpt lat="45.71852" lon="4.8184">
        <ele>166.89</ele>
        <time>2019-05-25T08:29:21.000Z</time>
      </trkpt>
      <trkpt lat="45.7182" lon="4.81843">
        <ele>166.1</ele>
        <time>2019-05-25T08:29:26.000Z</time>
      </trkpt>
      <trkpt lat="45.71785" lon="4.8185">
        <ele>167.02</ele>
        <time>2019-05-25T08:29:31.000Z</time>
      </trkpt>
      <trkpt lat="45.71753" lon="4.81864">
        <ele>166.32</ele>
        <time>2019-05-25T08:29:36.000Z</time>
      </trkpt>
      <trkpt lat="45.71722" lon="4.8187">
        <ele>167.81</ele>
        <time>2019-05-25T08:29:41.000Z</time>
      </trkpt>
      <trkpt lat="45.71689" lon="4.81878">
        <ele>168.82</ele>
        <time>2019-05-25T08:29:46.000Z</time>
      </trkpt>
      <trkpt lat="45.71655" lon="4.81883">
        <ele>169.08</ele>
        <time>2019-05-25T08:29:51.000Z</time>
      </trkpt>
      <trkpt lat="45.71623" lon="4.8189">
        <ele>169.08</ele>
        <time>2019-05-25T08:29:56.000Z</time>
      </trkpt>
      <trkpt lat="45.71593" lon="4.81898">
        <ele>167.17</ele>
        <time>2019-05-25T08:30:01.000Z</time>
      </trkpt>
      <trkpt lat="45.71561" lon="4.81903">
        <ele>166.09</ele>
        <time>2019-05-25T08:30:06.000Z</time>
      </trkpt>
      <trkpt lat="45.71527" lon="4.81909">
        <ele>165.89</ele>
        <time>2019-05-25T08:30:11.000Z</time>
      </trkpt>
      <trkpt lat="45.71496" lon="4.81917">
        <ele>166.77</ele>
        <time>2019-05-25T08:30:16.000Z</time>
      </trkpt>
      <trkpt lat="45.71466" lon="4.81925">
        <ele>165.14</ele>
        <time>2019-05-25T08:30:21.000Z</time>
      </trkpt>
      <trkpt lat="45.71444" lon="4.81928">
        <ele>165.09</ele>
        <time>2019-05-25T08:30:26.000Z</time>
      </trkpt>
      <trkpt lat="45.71433" lon="4.81931">
        <ele>163.83</ele>
        <time>2019-05-25T08:31:09.000Z</time>
      </trkpt>
      <trkpt lat="45.71411" lon="4.81932">
        <ele>162.33</ele>
        <time>2019-05-25T08:31:14.000Z</time>
      </trkpt>
      <trkpt lat="45.71385" lon="4.81941">
        <ele>163.08</ele>
        <time>2019-05-25T08:31:19.000Z</time>
      </trkpt>
      <trkpt lat="45.71356" lon="4.81945">
        <ele>163.84</ele>
        <time>2019-05-25T08:31:24.000Z</time>
      </trkpt>
      <trkpt lat="45.71325" lon="4.81953">
        <ele>164.08</ele>
        <time>2019-05-25T08:31:29.000Z</time>
      </trkpt>
      <trkpt lat="45.71297" lon="4.81964">
        <ele>165.08</ele>
        <time>2019-05-25T08:31:34.000Z</time>
      </trkpt>
      <trkpt lat="45.71266" lon="4.81972">
        <ele>166.01</ele>
        <time>2019-05-25T08:31:39.000Z</time>
      </trkpt>
      <trkpt lat="45.71234" lon="4.81981">
        <ele>166.08</ele>
        <time>2019-05-25T08:31:44.000Z</time>
      </trkpt>
      <trkpt lat="45.71203" lon="4.81988">
        <ele>166.08</ele>
        <time>2019-05-25T08:31:49.000Z</time>
      </trkpt>
      <trkpt lat="45.71172" lon="4.81992">
        <ele>167.01</ele>
        <time>2019-05-25T08:31:54.000Z</time>
      </trkpt>
      <trkpt lat="45.71141" lon="4.81999">
        <ele>165.38</ele>
        <time>2019-05-25T08:31:59.000Z</time>
      </trkpt>
      <trkpt lat="45.71107" lon="4.82006">
        <ele>164.89</ele>
        <time>2019-05-25T08:32:04.000Z</time>
      </trkpt>
      <trkpt lat="45.71077" lon="4.82013">
        <ele>166</ele>
        <time>2019-05-25T08:32:09.000Z</time>
      </trkpt>
      <trkpt lat="45.71043" lon="4.8202">
        <ele>167.77</ele>
        <time>2019-05-25T08:32:14.000Z</time>
      </trkpt>
      <trkpt lat="45.71015" lon="4.82032">
        <ele>166.14</ele>
        <time>2019-05-25T08:32:19.000Z</time>
      </trkpt>
      <trkpt lat="45.7099" lon="4.82051">
        <ele>165</ele>
        <time>2019-05-25T08:32:24.000Z</time>
      </trkpt>
      <trkpt lat="45.70973" lon="4.82062">
        <ele>164.83</ele>
        <time>2019-05-25T08:32:29.000Z</time>
      </trkpt>
      <trkpt lat="45.70957" lon="4.82072">
        <ele>168.24</ele>
        <time>2019-05-25T08:32:34.000Z</time>
      </trkpt>
      <trkpt lat="45.70938" lon="4.82084">
        <ele>167.32</ele>
        <time>2019-05-25T08:32:39.000Z</time>
      </trkpt>
      <trkpt lat="45.70922" lon="4.82098">
        <ele>166.95</ele>
        <time>2019-05-25T08:32:44.000Z</time>
      </trkpt>
      <trkpt lat="45.70907" lon="4.82109">
        <ele>168.77</ele>
        <time>2019-05-25T08:32:49.000Z</time>
      </trkpt>
      <trkpt lat="45.70891" lon="4.82121">
        <ele>169.84</ele>
        <time>2019-05-25T08:32:54.000Z</time>
      </trkpt>
      <trkpt lat="45.70872" lon="4.8213">
        <ele>170.81</ele>
        <time>2019-05-25T08:32:59.000Z</time>
      </trkpt>
      <trkpt lat="45.70852" lon="4.82133">
        <ele>171.89</ele>
        <time>2019-05-25T08:33:04.000Z</time>
      </trkpt>
      <trkpt lat="45.70826" lon="4.82138">
        <ele>170.2</ele>
        <time>2019-05-25T08:33:09.000Z</time>
      </trkpt>
      <trkpt lat="45.70794" lon="4.82141">
        <ele>168.14</ele>
        <time>2019-05-25T08:33:14.000Z</time>
      </trkpt>
      <trkpt lat="45.70766" lon="4.82133">
        <ele>167.08</ele>
        <time>2019-05-25T08:33:19.000Z</time>
      </trkpt>
      <trkpt lat="45.70756" lon="4.8213">
        <ele>166.37</ele>
        <time>2019-05-25T08:33:28.000Z</time>
      </trkpt>
      <trkpt lat="45.70746" lon="4.82123">
        <ele>164.78</ele>
        <time>2019-05-25T08:34:06.000Z</time>
      </trkpt>
      <trkpt lat="45.70724" lon="4.82117">
        <ele>167.81</ele>
        <time>2019-05-25T08:34:11.000Z</time>
      </trkpt>
      <trkpt lat="45.70699" lon="4.8211">
        <ele>169.01</ele>
        <time>2019-05-25T08:34:16.000Z</time>
      </trkpt>
      <trkpt lat="45.70671" lon="4.82103">
        <ele>169.82</ele>
        <time>2019-05-25T08:34:21.000Z</time>
      </trkpt>
      <trkpt lat="45.70641" lon="4.82097">
        <ele>169.07</ele>
        <time>2019-05-25T08:34:26.000Z</time>
      </trkpt>
      <trkpt lat="45.70611" lon="4.82089">
        <ele>166.33</ele>
        <time>2019-05-25T08:34:31.000Z</time>
      </trkpt>
      <trkpt lat="45.70583" lon="4.82081">
        <ele>167.93</ele>
        <time>2019-05-25T08:34:36.000Z</time>
      </trkpt>
      <trkpt lat="45.7055" lon="4.82073">
        <ele>166.13</ele>
        <time>2019-05-25T08:34:41.000Z</time>
      </trkpt>
      <trkpt lat="45.7052" lon="4.82064">
        <ele>166.08</ele>
        <time>2019-05-25T08:34:46.000Z</time>
      </trkpt>
      <trkpt lat="45.7049" lon="4.8206">
        <ele>168.26</ele>
        <time>2019-05-25T08:34:51.000Z</time>
      </trkpt>
      <trkpt lat="45.70459" lon="4.82061">
        <ele>167.08</ele>
        <time>2019-05-25T08:34:56.000Z</time>
      </trkpt>
      <trkpt lat="45.70426" lon="4.82063">
        <ele>167.07</ele>
        <time>2019-05-25T08:35:01.000Z</time>
      </trkpt>
      <trkpt lat="45.70392" lon="4.82067">
        <ele>166.83</ele>
        <time>2019-05-25T08:35:06.000Z</time>
      </trkpt>
      <trkpt lat="45.70361" lon="4.82073">
        <ele>168.05</ele>
        <time>2019-05-25T08:35:11.000Z</time>
      </trkpt>
      <trkpt lat="45.70337" lon="4.82078">
        <ele>167.32</ele>
        <time>2019-05-25T08:35:16.000Z</time>
      </trkpt>
      <trkpt lat="45.70329" lon="4.82086">
        <ele>165.07</ele>
        <time>2019-05-25T08:35:55.000Z</time>
      </trkpt>
      <trkpt lat="45.7031" lon="4.82094">
        <ele>167.06</ele>
        <time>2019-05-25T08:36:00.000Z</time>
      </trkpt>
      <trkpt lat="45.70284" lon="4.82109">
        <ele>165.88</ele>
        <time>2019-05-25T08:36:05.000Z</time>
      </trkpt>
      <trkpt lat="45.70257" lon="4.82127">
        <ele>166.2</ele>
        <time>2019-05-25T08:36:10.000Z</time>
      </trkpt>
      <trkpt lat="45.70227" lon="4.82146">
        <ele>166.06</ele>
        <time>2019-05-25T08:36:15.000Z</time>
      </trkpt>
      <trkpt lat="45.70193" lon="4.82166">
        <ele>168.01</ele>
        <time>2019-05-25T08:36:20.000Z</time>
      </trkpt>
      <trkpt lat="45.70165" lon="4.82188">
        <ele>169.02</ele>
        <time>2019-05-25T08:36:25.000Z</time>
      </trkpt>
      <trkpt lat="45.70135" lon="4.8221">
        <ele>168.87</ele>
        <time>2019-05-25T08:36:30.000Z</time>
      </trkpt>
      <trkpt lat="45.70104" lon="4.82231">
        <ele>167.2</ele>
        <time>2019-05-25T08:36:35.000Z</time>
      </trkpt>
      <trkpt lat="45.70075" lon="4.82251">
        <ele>168.07</ele>
        <time>2019-05-25T08:36:40.000Z</time>
      </trkpt>
      <trkpt lat="45.70044" lon="4.82274">
        <ele>167.32</ele>
        <time>2019-05-25T08:36:45.000Z</time>
      </trkpt>
      <trkpt lat="45.70016" lon="4.82293">
        <ele>166.33</ele>
        <time>2019-05-25T08:36:50.000Z</time>
      </trkpt>
      <trkpt lat="45.69984" lon="4.82315">
        <ele>167.06</ele>
        <time>2019-05-25T08:36:55.000Z</time>
      </trkpt>
      <trkpt lat="45.69963" lon="4.8234">
        <ele>166.12</ele>
        <time>2019-05-25T08:37:00.000Z</time>
      </trkpt>
      <trkpt lat="45.69929" lon="4.82357">
        <ele>164.13</ele>
        <time>2019-05-25T08:37:05.000Z</time>
      </trkpt>
      <trkpt lat="45.69898" lon="4.82379">
        <ele>165.06</ele>
        <time>2019-05-25T08:37:10.000Z</time>
      </trkpt>
      <trkpt lat="45.69866" lon="4.82399">
        <ele>165.09</ele>
        <time>2019-05-25T08:37:15.000Z</time>
      </trkpt>
      <trkpt lat="45.69836" lon="4.82422">
        <ele>165.02</ele>
        <time>2019-05-25T08:37:20.000Z</time>
      </trkpt>
      <trkpt lat="45.69809" lon="4.82439">
        <ele>166.07</ele>
        <time>2019-05-25T08:37:25.000Z</time>
      </trkpt>
      <trkpt lat="45.69793" lon="4.82451">
        <ele>166.17</ele>
        <time>2019-05-25T08:37:30.000Z</time>
      </trkpt>
      <trkpt lat="45.69792" lon="4.82464">
        <ele>169.07</ele>
        <time>2019-05-25T08:37:46.000Z</time>
      </trkpt>
      <trkpt lat="45.69784" lon="4.82467">
        <ele>167.15</ele>
        <time>2019-05-25T08:37:51.000Z</time>
      </trkpt>
      <trkpt lat="45.6976" lon="4.82479">
        <ele>166.38</ele>
        <time>2019-05-25T08:37:56.000Z</time>
      </trkpt>
      <trkpt lat="45.69737" lon="4.82496">
        <ele>166.93</ele>
        <time>2019-05-25T08:38:01.000Z</time>
      </trkpt>
      <trkpt lat="45.69712" lon="4.82509">
        <ele>166.07</ele>
        <time>2019-05-25T08:38:06.000Z</time>
      </trkpt>
      <trkpt lat="45.69685" lon="4.82527">
        <ele>166.07</ele>
        <time>2019-05-25T08:38:11.000Z</time>
      </trkpt>
      <trkpt lat="45.69657" lon="4.82546">
        <ele>167.77</ele>
        <time>2019-05-25T08:38:16.000Z</time>
      </trkpt>
      <trkpt lat="45.69627" lon="4.82567">
        <ele>168.07</ele>
        <time>2019-05-25T08:38:21.000Z</time>
      </trkpt>
      <trkpt lat="45.69595" lon="4.82588">
        <ele>167.55</ele>
        <time>2019-05-25T08:38:26.000Z</time>
      </trkpt>
      <trkpt lat="45.69568" lon="4.82607">
        <ele>169.94</ele>
        <time>2019-05-25T08:38:31.000Z</time>
      </trkpt>
      <trkpt lat="45.69547" lon="4.82614">
        <ele>170.07</ele>
        <time>2019-05-25T08:38:36.000Z</time>
      </trkpt>
      <trkpt lat="45.69527" lon="4.82597">
        <ele>169.31</ele>
        <time>2019-05-25T08:38:41.000Z</time>
      </trkpt>
      <trkpt lat="45.69501" lon="4.82603">
        <ele>169.13</ele>
        <time>2019-05-25T08:38:46.000Z</time>
      </trkpt>
      <trkpt lat="45.69489" lon="4.82634">
        <ele>170.06</ele>
        <time>2019-05-25T08:38:51.000Z</time>
      </trkpt>
      <trkpt lat="45.69487" lon="4.82647">
        <ele>171.01</ele>
        <time>2019-05-25T08:38:56.000Z</time>
      </trkpt>
      <trkpt lat="45.69486" lon="4.82663">
        <ele>169.04</ele>
        <time>2019-05-25T08:39:14.000Z</time>
      </trkpt>
      <trkpt lat="45.69468" lon="4.82681">
        <ele>168.83</ele>
        <time>2019-05-25T08:39:19.000Z</time>
      </trkpt>
      <trkpt lat="45.6945" lon="4.82705">
        <ele>169.07</ele>
        <time>2019-05-25T08:39:24.000Z</time>
      </trkpt>
      <trkpt lat="45.69428" lon="4.82725">
        <ele>170.07</ele>
        <time>2019-05-25T08:39:29.000Z</time>
      </trkpt>
      <trkpt lat="45.69406" lon="4.82741">
        <ele>169.88</ele>
        <time>2019-05-25T08:39:34.000Z</time>
      </trkpt>
      <trkpt lat="45.6938" lon="4.8276">
        <ele>170.07</ele>
        <time>2019-05-25T08:39:39.000Z</time>
      </trkpt>
      <trkpt lat="45.69353" lon="4.82779">
        <ele>169.33</ele>
        <time>2019-05-25T08:39:44.000Z</time>
      </trkpt>
      <trkpt lat="45.69339" lon="4.82807">
        <ele>168.09</ele>
        <time>2019-05-25T08:39:49.000Z</time>
      </trkpt>
      <trkpt lat="45.69327" lon="4.82815">
        <ele>168.81</ele>
        <time>2019-05-25T08:39:54.000Z</time>
      </trkpt>
      <trkpt lat="45.69317" lon="4.82811">
        <ele>170.06</ele>
        <time>2019-05-25T08:40:01.000Z</time>
      </trkpt>
      <trkpt lat="45.69297" lon="4.8279">
        <ele>168.32</ele>
        <time>2019-05-25T08:40:06.000Z</time>
      </trkpt>
      <trkpt lat="45.69272" lon="4.82779">
        <ele>167.07</ele>
        <time>2019-05-25T08:40:11.000Z</time>
      </trkpt>
      <trkpt lat="45.69244" lon="4.82772">
        <ele>165.32</ele>
        <time>2019-05-25T08:40:16.000Z</time>
      </trkpt>
      <trkpt lat="45.69211" lon="4.82762">
        <ele>162.58</ele>
        <time>2019-05-25T08:40:21.000Z</time>
      </trkpt>
      <trkpt lat="45.69184" lon="4.82753">
        <ele>159.31</ele>
        <time>2019-05-25T08:40:26.000Z</time>
      </trkpt>
      <trkpt lat="45.69154" lon="4.82741">
        <ele>161.73</ele>
        <time>2019-05-25T08:40:31.000Z</time>
      </trkpt>
      <trkpt lat="45.69124" lon="4.82731">
        <ele>162.25</ele>
        <time>2019-05-25T08:40:36.000Z</time>
      </trkpt>
      <trkpt lat="45.69097" lon="4.82723">
        <ele>162.25</ele>
        <time>2019-05-25T08:40:41.000Z</time>
      </trkpt>
      <trkpt lat="45.69069" lon="4.82714">
        <ele>163.33</ele>
        <time>2019-05-25T08:40:46.000Z</time>
      </trkpt>
      <trkpt lat="45.69046" lon="4.82721">
        <ele>161.92</ele>
        <time>2019-05-25T08:40:51.000Z</time>
      </trkpt>
      <trkpt lat="45.69029" lon="4.82743">
        <ele>162.3</ele>
        <time>2019-05-25T08:40:56.000Z</time>
      </trkpt>
      <trkpt lat="45.69011" lon="4.82744">
        <ele>163.25</ele>
        <time>2019-05-25T08:41:01.000Z</time>
      </trkpt>
      <trkpt lat="45.69001" lon="4.82733">
        <ele>163.06</ele>
        <time>2019-05-25T08:41:06.000Z</time>
      </trkpt>
      <trkpt lat="45.69" lon="4.82716">
        <ele>171</ele>
        <time>2019-05-25T08:43:58.000Z</time>
      </trkpt>
      <trkpt lat="45.68982" lon="4.82695">
        <ele>170.02</ele>
        <time>2019-05-25T08:44:03.000Z</time>
      </trkpt>
      <trkpt lat="45.68959" lon="4.82683">
        <ele>170.05</ele>
        <time>2019-05-25T08:44:08.000Z</time>
      </trkpt>
      <trkpt lat="45.68934" lon="4.82673">
        <ele>170.03</ele>
        <time>2019-05-25T08:44:13.000Z</time>
      </trkpt>
      <trkpt lat="45.68903" lon="4.82673">
        <ele>169.06</ele>
        <time>2019-05-25T08:44:18.000Z</time>
      </trkpt>
      <trkpt lat="45.68873" lon="4.82675">
        <ele>166.13</ele>
        <time>2019-05-25T08:44:23.000Z</time>
      </trkpt>
      <trkpt lat="45.6885" lon="4.82688">
        <ele>166.05</ele>
        <time>2019-05-25T08:44:28.000Z</time>
      </trkpt>
      <trkpt lat="45.68836" lon="4.82691">
        <ele>167.06</ele>
        <time>2019-05-25T08:44:33.000Z</time>
      </trkpt>
      <trkpt lat="45.68823" lon="4.82675">
        <ele>166.88</ele>
        <time>2019-05-25T08:44:38.000Z</time>
      </trkpt>
      <trkpt lat="45.68798" lon="4.82671">
        <ele>166.06</ele>
        <time>2019-05-25T08:44:43.000Z</time>
      </trkpt>
      <trkpt lat="45.68768" lon="4.82672">
        <ele>165.07</ele>
        <time>2019-05-25T08:44:48.000Z</time>
      </trkpt>
      <trkpt lat="45.68735" lon="4.82672">
        <ele>165</ele>
        <time>2019-05-25T08:44:53.000Z</time>
      </trkpt>
      <trkpt lat="45.68703" lon="4.82676">
        <ele>163.12</ele>
        <time>2019-05-25T08:44:58.000Z</time>
      </trkpt>
      <trkpt lat="45.68665" lon="4.82682">
        <ele>162.05</ele>
        <time>2019-05-25T08:45:03.000Z</time>
      </trkpt>
      <trkpt lat="45.68633" lon="4.82688">
        <ele>162.06</ele>
        <time>2019-05-25T08:45:08.000Z</time>
      </trkpt>
      <trkpt lat="45.68602" lon="4.82697">
        <ele>162.81</ele>
        <time>2019-05-25T08:45:13.000Z</time>
      </trkpt>
      <trkpt lat="45.68582" lon="4.82708">
        <ele>163.06</ele>
        <time>2019-05-25T08:45:18.000Z</time>
      </trkpt>
      <trkpt lat="45.68559" lon="4.82708">
        <ele>163.05</ele>
        <time>2019-05-25T08:45:23.000Z</time>
      </trkpt>
      <trkpt lat="45.68534" lon="4.82718">
        <ele>165.74</ele>
        <time>2019-05-25T08:45:28.000Z</time>
      </trkpt>
      <trkpt lat="45.68508" lon="4.82741">
        <ele>164.93</ele>
        <time>2019-05-25T08:45:33.000Z</time>
      </trkpt>
      <trkpt lat="45.68485" lon="4.82762">
        <ele>163.06</ele>
        <time>2019-05-25T08:45:38.000Z</time>
      </trkpt>
      <trkpt lat="45.68467" lon="4.82777">
        <ele>164.04</ele>
        <time>2019-05-25T08:45:43.000Z</time>
      </trkpt>
      <trkpt lat="45.68449" lon="4.82771">
        <ele>162.56</ele>
        <time>2019-05-25T08:45:48.000Z</time>
      </trkpt>
      <trkpt lat="45.68443" lon="4.82761">
        <ele>162.12</ele>
        <time>2019-05-25T08:45:54.000Z</time>
      </trkpt>
      <trkpt lat="45.68442" lon="4.82746">
        <ele>163.05</ele>
        <time>2019-05-25T08:46:06.000Z</time>
      </trkpt>
      <trkpt lat="45.68426" lon="4.82748">
        <ele>162.12</ele>
        <time>2019-05-25T08:46:11.000Z</time>
      </trkpt>
      <trkpt lat="45.68401" lon="4.82768">
        <ele>162.29</ele>
        <time>2019-05-25T08:46:16.000Z</time>
      </trkpt>
      <trkpt lat="45.68374" lon="4.8278">
        <ele>161.06</ele>
        <time>2019-05-25T08:46:21.000Z</time>
      </trkpt>
      <trkpt lat="45.68348" lon="4.82795">
        <ele>160.87</ele>
        <time>2019-05-25T08:46:26.000Z</time>
      </trkpt>
      <trkpt lat="45.68318" lon="4.8281">
        <ele>161.79</ele>
        <time>2019-05-25T08:46:31.000Z</time>
      </trkpt>
      <trkpt lat="45.68289" lon="4.82826">
        <ele>161.26</ele>
        <time>2019-05-25T08:46:36.000Z</time>
      </trkpt>
      <trkpt lat="45.68262" lon="4.82847">
        <ele>162.29</ele>
        <time>2019-05-25T08:46:41.000Z</time>
      </trkpt>
      <trkpt lat="45.68232" lon="4.82866">
        <ele>162.07</ele>
        <time>2019-05-25T08:46:46.000Z</time>
      </trkpt>
      <trkpt lat="45.68199" lon="4.82885">
        <ele>158.63</ele>
        <time>2019-05-25T08:46:51.000Z</time>
      </trkpt>
      <trkpt lat="45.68164" lon="4.82904">
        <ele>159.06</ele>
        <time>2019-05-25T08:46:56.000Z</time>
      </trkpt>
      <trkpt lat="45.68136" lon="4.82931">
        <ele>160.1</ele>
        <time>2019-05-25T08:47:01.000Z</time>
      </trkpt>
      <trkpt lat="45.68107" lon="4.82955">
        <ele>160.31</ele>
        <time>2019-05-25T08:47:06.000Z</time>
      </trkpt>
      <trkpt lat="45.68073" lon="4.82976">
        <ele>162.49</ele>
        <time>2019-05-25T08:47:11.000Z</time>
      </trkpt>
      <trkpt lat="45.68042" lon="4.82999">
        <ele>163.29</ele>
        <time>2019-05-25T08:47:16.000Z</time>
      </trkpt>
      <trkpt lat="45.68013" lon="4.83025">
        <ele>162.06</ele>
        <time>2019-05-25T08:47:21.000Z</time>
      </trkpt>
      <trkpt lat="45.67981" lon="4.83052">
        <ele>161.25</ele>
        <time>2019-05-25T08:47:26.000Z</time>
      </trkpt>
      <trkpt lat="45.6795" lon="4.83078">
        <ele>161.02</ele>
        <time>2019-05-25T08:47:31.000Z</time>
      </trkpt>
      <trkpt lat="45.67918" lon="4.83104">
        <ele>159.87</ele>
        <time>2019-05-25T08:47:36.000Z</time>
      </trkpt>
      <trkpt lat="45.67884" lon="4.83121">
        <ele>160.04</ele>
        <time>2019-05-25T08:47:41.000Z</time>
      </trkpt>
      <trkpt lat="45.67852" lon="4.8313">
        <ele>161.55</ele>
        <time>2019-05-25T08:47:46.000Z</time>
      </trkpt>
      <trkpt lat="45.67822" lon="4.83136">
        <ele>164.07</ele>
        <time>2019-05-25T08:47:51.000Z</time>
      </trkpt>
      <trkpt lat="45.67796" lon="4.83135">
        <ele>165.07</ele>
        <time>2019-05-25T08:47:56.000Z</time>
      </trkpt>
      <trkpt lat="45.67769" lon="4.83131">
        <ele>167.04</ele>
        <time>2019-05-25T08:48:01.000Z</time>
      </trkpt>
      <trkpt lat="45.67741" lon="4.83126">
        <ele>166.12</ele>
        <time>2019-05-25T08:48:06.000Z</time>
      </trkpt>
      <trkpt lat="45.6771" lon="4.83117">
        <ele>166.06</ele>
        <time>2019-05-25T08:48:11.000Z</time>
      </trkpt>
      <trkpt lat="45.67677" lon="4.8311">
        <ele>166.01</ele>
        <time>2019-05-25T08:48:16.000Z</time>
      </trkpt>
      <trkpt lat="45.67645" lon="4.83101">
        <ele>165.3</ele>
        <time>2019-05-25T08:48:21.000Z</time>
      </trkpt>
      <trkpt lat="45.67612" lon="4.83091">
        <ele>164.07</ele>
        <time>2019-05-25T08:48:26.000Z</time>
      </trkpt>
      <trkpt lat="45.67579" lon="4.83086">
        <ele>165.05</ele>
        <time>2019-05-25T08:48:31.000Z</time>
      </trkpt>
      <trkpt lat="45.67547" lon="4.83082">
        <ele>165.8</ele>
        <time>2019-05-25T08:48:36.000Z</time>
      </trkpt>
      <trkpt lat="45.6752" lon="4.83079">
        <ele>168.72</ele>
        <time>2019-05-25T08:48:41.000Z</time>
      </trkpt>
      <trkpt lat="45.67495" lon="4.83074">
        <ele>171.8</ele>
        <time>2019-05-25T08:48:46.000Z</time>
      </trkpt>
      <trkpt lat="45.67473" lon="4.83073">
        <ele>173.99</ele>
        <time>2019-05-25T08:48:51.000Z</time>
      </trkpt>
      <trkpt lat="45.67453" lon="4.83069">
        <ele>174.07</ele>
        <time>2019-05-25T08:48:56.000Z</time>
      </trkpt>
      <trkpt lat="45.67437" lon="4.83067">
        <ele>178.73</ele>
        <time>2019-05-25T08:49:01.000Z</time>
      </trkpt>
      <trkpt lat="45.6742" lon="4.83055">
        <ele>176.3</ele>
        <time>2019-05-25T08:49:06.000Z</time>
      </trkpt>
      <trkpt lat="45.67404" lon="4.83046">
        <ele>177.73</ele>
        <time>2019-05-25T08:49:11.000Z</time>
      </trkpt>
      <trkpt lat="45.67381" lon="4.83036">
        <ele>177.13</ele>
        <time>2019-05-25T08:49:16.000Z</time>
      </trkpt>
      <trkpt lat="45.6736" lon="4.83021">
        <ele>176.06</ele>
        <time>2019-05-25T08:49:21.000Z</time>
      </trkpt>
      <trkpt lat="45.67339" lon="4.83006">
        <ele>175.04</ele>
        <time>2019-05-25T08:49:26.000Z</time>
      </trkpt>
      <trkpt lat="45.67319" lon="4.82994">
        <ele>175.22</ele>
        <time>2019-05-25T08:49:31.000Z</time>
      </trkpt>
      <trkpt lat="45.673" lon="4.82982">
        <ele>175.86</ele>
        <time>2019-05-25T08:49:36.000Z</time>
      </trkpt>
      <trkpt lat="45.67291" lon="4.82974">
        <ele>176.05</ele>
        <time>2019-05-25T08:49:41.000Z</time>
      </trkpt>
      <trkpt lat="45.6728" lon="4.82969">
        <ele>178.22</ele>
        <time>2019-05-25T08:50:03.000Z</time>
      </trkpt>
      <trkpt lat="45.67272" lon="4.82953">
        <ele>177.05</ele>
        <time>2019-05-25T08:50:08.000Z</time>
      </trkpt>
      <trkpt lat="45.67263" lon="4.82961">
        <ele>175.99</ele>
        <time>2019-05-25T08:50:13.000Z</time>
      </trkpt>
      <trkpt lat="45.67241" lon="4.82945">
        <ele>175.23</ele>
        <time>2019-05-25T08:50:18.000Z</time>
      </trkpt>
      <trkpt lat="45.67219" lon="4.82928">
        <ele>174.1</ele>
        <time>2019-05-25T08:50:23.000Z</time>
      </trkpt>
      <trkpt lat="45.67194" lon="4.82914">
        <ele>176.12</ele>
        <time>2019-05-25T08:50:28.000Z</time>
      </trkpt>
      <trkpt lat="45.67171" lon="4.82896">
        <ele>177.04</ele>
        <time>2019-05-25T08:50:33.000Z</time>
      </trkpt>
      <trkpt lat="45.67144" lon="4.82883">
        <ele>177.04</ele>
        <time>2019-05-25T08:50:38.000Z</time>
      </trkpt>
      <trkpt lat="45.6712" lon="4.82874">
        <ele>178.04</ele>
        <time>2019-05-25T08:50:43.000Z</time>
      </trkpt>
      <trkpt lat="45.67095" lon="4.82866">
        <ele>179.04</ele>
        <time>2019-05-25T08:50:48.000Z</time>
      </trkpt>
      <trkpt lat="45.67071" lon="4.82863">
        <ele>181.96</ele>
        <time>2019-05-25T08:50:53.000Z</time>
      </trkpt>
      <trkpt lat="45.67043" lon="4.82856">
        <ele>181.06</ele>
        <time>2019-05-25T08:50:58.000Z</time>
      </trkpt>
      <trkpt lat="45.67015" lon="4.82854">
        <ele>181.98</ele>
        <time>2019-05-25T08:51:03.000Z</time>
      </trkpt>
      <trkpt lat="45.66985" lon="4.8285">
        <ele>182.04</ele>
        <time>2019-05-25T08:51:08.000Z</time>
      </trkpt>
      <trkpt lat="45.66956" lon="4.82843">
        <ele>181.29</ele>
        <time>2019-05-25T08:51:13.000Z</time>
      </trkpt>
      <trkpt lat="45.66923" lon="4.82839">
        <ele>180.29</ele>
        <time>2019-05-25T08:51:18.000Z</time>
      </trkpt>
      <trkpt lat="45.66887" lon="4.82836">
        <ele>180.27</ele>
        <time>2019-05-25T08:51:23.000Z</time>
      </trkpt>
      <trkpt lat="45.66851" lon="4.82836">
        <ele>180.05</ele>
        <time>2019-05-25T08:51:28.000Z</time>
      </trkpt>
      <trkpt lat="45.66812" lon="4.82841">
        <ele>180.79</ele>
        <time>2019-05-25T08:51:33.000Z</time>
      </trkpt>
      <trkpt lat="45.66777" lon="4.82833">
        <ele>178.05</ele>
        <time>2019-05-25T08:51:38.000Z</time>
      </trkpt>
      <trkpt lat="45.66742" lon="4.82819">
        <ele>178.79</ele>
        <time>2019-05-25T08:51:43.000Z</time>
      </trkpt>
      <trkpt lat="45.66708" lon="4.82804">
        <ele>178.04</ele>
        <time>2019-05-25T08:51:48.000Z</time>
      </trkpt>
      <trkpt lat="45.66677" lon="4.82784">
        <ele>179.03</ele>
        <time>2019-05-25T08:51:53.000Z</time>
      </trkpt>
      <trkpt lat="45.66651" lon="4.82761">
        <ele>178.16</ele>
        <time>2019-05-25T08:51:58.000Z</time>
      </trkpt>
      <trkpt lat="45.66626" lon="4.82738">
        <ele>178.98</ele>
        <time>2019-05-25T08:52:03.000Z</time>
      </trkpt>
      <trkpt lat="45.666" lon="4.82713">
        <ele>179.98</ele>
        <time>2019-05-25T08:52:08.000Z</time>
      </trkpt>
      <trkpt lat="45.66574" lon="4.82685">
        <ele>179.28</ele>
        <time>2019-05-25T08:52:13.000Z</time>
      </trkpt>
      <trkpt lat="45.66546" lon="4.82656">
        <ele>178.28</ele>
        <time>2019-05-25T08:52:18.000Z</time>
      </trkpt>
      <trkpt lat="45.66522" lon="4.82624">
        <ele>175.86</ele>
        <time>2019-05-25T08:52:23.000Z</time>
      </trkpt>
      <trkpt lat="45.66494" lon="4.82612">
        <ele>174.15</ele>
        <time>2019-05-25T08:52:28.000Z</time>
      </trkpt>
      <trkpt lat="45.66463" lon="4.82602">
        <ele>175.78</ele>
        <time>2019-05-25T08:52:33.000Z</time>
      </trkpt>
      <trkpt lat="45.66432" lon="4.82585">
        <ele>177.01</ele>
        <time>2019-05-25T08:52:38.000Z</time>
      </trkpt>
      <trkpt lat="45.66399" lon="4.82569">
        <ele>175.28</ele>
        <time>2019-05-25T08:52:43.000Z</time>
      </trkpt>
      <trkpt lat="45.66368" lon="4.82554">
        <ele>176.01</ele>
        <time>2019-05-25T08:52:48.000Z</time>
      </trkpt>
      <trkpt lat="45.66336" lon="4.82538">
        <ele>176.04</ele>
        <time>2019-05-25T08:52:53.000Z</time>
      </trkpt>
      <trkpt lat="45.66304" lon="4.82518">
        <ele>176.02</ele>
        <time>2019-05-25T08:52:58.000Z</time>
      </trkpt>
      <trkpt lat="45.66272" lon="4.82495">
        <ele>175.27</ele>
        <time>2019-05-25T08:53:03.000Z</time>
      </trkpt>
      <trkpt lat="45.66242" lon="4.8247">
        <ele>175.02</ele>
        <time>2019-05-25T08:53:08.000Z</time>
      </trkpt>
      <trkpt lat="45.66213" lon="4.82448">
        <ele>175.02</ele>
        <time>2019-05-25T08:53:13.000Z</time>
      </trkpt>
      <trkpt lat="45.66181" lon="4.82425">
        <ele>174.27</ele>
        <time>2019-05-25T08:53:18.000Z</time>
      </trkpt>
      <trkpt lat="45.6615" lon="4.82401">
        <ele>172.08</ele>
        <time>2019-05-25T08:53:23.000Z</time>
      </trkpt>
      <trkpt lat="45.66119" lon="4.82379">
        <ele>174.01</ele>
        <time>2019-05-25T08:53:28.000Z</time>
      </trkpt>
      <trkpt lat="45.66094" lon="4.82349">
        <ele>173.03</ele>
        <time>2019-05-25T08:53:33.000Z</time>
      </trkpt>
      <trkpt lat="45.66072" lon="4.8232">
        <ele>173.02</ele>
        <time>2019-05-25T08:53:38.000Z</time>
      </trkpt>
      <trkpt lat="45.6605" lon="4.82291">
        <ele>173.01</ele>
        <time>2019-05-25T08:53:43.000Z</time>
      </trkpt>
      <trkpt lat="45.66026" lon="4.82262">
        <ele>172.26</ele>
        <time>2019-05-25T08:53:48.000Z</time>
      </trkpt>
      <trkpt lat="45.66004" lon="4.82234">
        <ele>171.26</ele>
        <time>2019-05-25T08:53:53.000Z</time>
      </trkpt>
      <trkpt lat="45.65983" lon="4.82207">
        <ele>171.01</ele>
        <time>2019-05-25T08:53:58.000Z</time>
      </trkpt>
      <trkpt lat="45.65962" lon="4.82183">
        <ele>171.76</ele>
        <time>2019-05-25T08:54:03.000Z</time>
      </trkpt>
      <trkpt lat="45.65943" lon="4.82157">
        <ele>171.01</ele>
        <time>2019-05-25T08:54:08.000Z</time>
      </trkpt>
      <trkpt lat="45.65924" lon="4.82133">
        <ele>171.96</ele>
        <time>2019-05-25T08:54:13.000Z</time>
      </trkpt>
      <trkpt lat="45.65903" lon="4.82109">
        <ele>173.76</ele>
        <time>2019-05-25T08:54:18.000Z</time>
      </trkpt>
      <trkpt lat="45.65884" lon="4.82086">
        <ele>174.01</ele>
        <time>2019-05-25T08:54:23.000Z</time>
      </trkpt>
      <trkpt lat="45.65866" lon="4.82064">
        <ele>179.49</ele>
        <time>2019-05-25T08:54:28.000Z</time>
      </trkpt>
      <trkpt lat="45.65848" lon="4.82043">
        <ele>177.03</ele>
        <time>2019-05-25T08:54:33.000Z</time>
      </trkpt>
      <trkpt lat="45.65829" lon="4.82022">
        <ele>176.76</ele>
        <time>2019-05-25T08:54:38.000Z</time>
      </trkpt>
      <trkpt lat="45.65811" lon="4.82002">
        <ele>177.95</ele>
        <time>2019-05-25T08:54:43.000Z</time>
      </trkpt>
      <trkpt lat="45.65795" lon="4.81983">
        <ele>178.05</ele>
        <time>2019-05-25T08:54:48.000Z</time>
      </trkpt>
      <trkpt lat="45.65777" lon="4.81961">
        <ele>177.5</ele>
        <time>2019-05-25T08:54:53.000Z</time>
      </trkpt>
      <trkpt lat="45.65758" lon="4.81939">
        <ele>176.99</ele>
        <time>2019-05-25T08:54:58.000Z</time>
      </trkpt>
      <trkpt lat="45.65739" lon="4.81917">
        <ele>178.75</ele>
        <time>2019-05-25T08:55:03.000Z</time>
      </trkpt>
      <trkpt lat="45.65717" lon="4.81893">
        <ele>179.75</ele>
        <time>2019-05-25T08:55:08.000Z</time>
      </trkpt>
      <trkpt lat="45.65697" lon="4.81869">
        <ele>179.75</ele>
        <time>2019-05-25T08:55:13.000Z</time>
      </trkpt>
      <trkpt lat="45.65674" lon="4.81846">
        <ele>179.94</ele>
        <time>2019-05-25T08:55:18.000Z</time>
      </trkpt>
      <trkpt lat="45.65654" lon="4.81825">
        <ele>180.95</ele>
        <time>2019-05-25T08:55:23.000Z</time>
      </trkpt>
      <trkpt lat="45.65634" lon="4.81805">
        <ele>181.99</ele>
        <time>2019-05-25T08:55:28.000Z</time>
      </trkpt>
      <trkpt lat="45.65614" lon="4.81785">
        <ele>184.99</ele>
        <time>2019-05-25T08:55:33.000Z</time>
      </trkpt>
      <trkpt lat="45.65596" lon="4.81759">
        <ele>183.75</ele>
        <time>2019-05-25T08:55:38.000Z</time>
      </trkpt>
      <trkpt lat="45.65579" lon="4.81736">
        <ele>183</ele>
        <time>2019-05-25T08:55:43.000Z</time>
      </trkpt>
      <trkpt lat="45.65564" lon="4.81708">
        <ele>182.48</ele>
        <time>2019-05-25T08:55:48.000Z</time>
      </trkpt>
      <trkpt lat="45.65552" lon="4.81679">
        <ele>181.7</ele>
        <time>2019-05-25T08:55:53.000Z</time>
      </trkpt>
      <trkpt lat="45.65541" lon="4.81638">
        <ele>181.07</ele>
        <time>2019-05-25T08:55:58.000Z</time>
      </trkpt>
      <trkpt lat="45.65524" lon="4.81595">
        <ele>180.92</ele>
        <time>2019-05-25T08:56:03.000Z</time>
      </trkpt>
      <trkpt lat="45.65496" lon="4.81562">
        <ele>180.05</ele>
        <time>2019-05-25T08:56:08.000Z</time>
      </trkpt>
      <trkpt lat="45.65462" lon="4.81564">
        <ele>179.76</ele>
        <time>2019-05-25T08:56:13.000Z</time>
      </trkpt>
      <trkpt lat="45.65428" lon="4.81565">
        <ele>181.68</ele>
        <time>2019-05-25T08:56:18.000Z</time>
      </trkpt>
      <trkpt lat="45.65402" lon="4.81559">
        <ele>182.03</ele>
        <time>2019-05-25T08:56:23.000Z</time>
      </trkpt>
      <trkpt lat="45.65383" lon="4.8154">
        <ele>182.98</ele>
        <time>2019-05-25T08:56:28.000Z</time>
      </trkpt>
      <trkpt lat="45.65366" lon="4.81523">
        <ele>184.96</ele>
        <time>2019-05-25T08:56:33.000Z</time>
      </trkpt>
      <trkpt lat="45.65347" lon="4.81497">
        <ele>184.05</ele>
        <time>2019-05-25T08:56:38.000Z</time>
      </trkpt>
      <trkpt lat="45.65327" lon="4.81468">
        <ele>182.8</ele>
        <time>2019-05-25T08:56:43.000Z</time>
      </trkpt>
      <trkpt lat="45.65306" lon="4.81439">
        <ele>182.92</ele>
        <time>2019-05-25T08:56:48.000Z</time>
      </trkpt>
      <trkpt lat="45.65283" lon="4.81406">
        <ele>181.25</ele>
        <time>2019-05-25T08:56:53.000Z</time>
      </trkpt>
      <trkpt lat="45.65257" lon="4.81373">
        <ele>179.05</ele>
        <time>2019-05-25T08:56:58.000Z</time>
      </trkpt>
      <trkpt lat="45.65226" lon="4.81344">
        <ele>178.98</ele>
        <time>2019-05-25T08:57:03.000Z</time>
      </trkpt>
      <trkpt lat="45.65191" lon="4.81325">
        <ele>180.73</ele>
        <time>2019-05-25T08:57:08.000Z</time>
      </trkpt>
      <trkpt lat="45.65155" lon="4.81305">
        <ele>179.99</ele>
        <time>2019-05-25T08:57:13.000Z</time>
      </trkpt>
      <trkpt lat="45.65121" lon="4.81286">
        <ele>176.24</ele>
        <time>2019-05-25T08:57:18.000Z</time>
      </trkpt>
      <trkpt lat="45.65086" lon="4.81269">
        <ele>176.93</ele>
        <time>2019-05-25T08:57:23.000Z</time>
      </trkpt>
      <trkpt lat="45.65053" lon="4.81249">
        <ele>177.23</ele>
        <time>2019-05-25T08:57:28.000Z</time>
      </trkpt>
      <trkpt lat="45.65024" lon="4.81227">
        <ele>177.98</ele>
        <time>2019-05-25T08:57:33.000Z</time>
      </trkpt>
      <trkpt lat="45.65005" lon="4.81202">
        <ele>175.99</ele>
        <time>2019-05-25T08:57:38.000Z</time>
      </trkpt>
      <trkpt lat="45.6498" lon="4.81203">
        <ele>176.03</ele>
        <time>2019-05-25T08:57:43.000Z</time>
      </trkpt>
      <trkpt lat="45.64954" lon="4.81197">
        <ele>177.98</ele>
        <time>2019-05-25T08:57:48.000Z</time>
      </trkpt>
      <trkpt lat="45.64927" lon="4.81197">
        <ele>179.91</ele>
        <time>2019-05-25T08:57:53.000Z</time>
      </trkpt>
      <trkpt lat="45.64895" lon="4.81202">
        <ele>178.23</ele>
        <time>2019-05-25T08:57:58.000Z</time>
      </trkpt>
      <trkpt lat="45.6486" lon="4.81204">
        <ele>178.49</ele>
        <time>2019-05-25T08:58:03.000Z</time>
      </trkpt>
      <trkpt lat="45.64828" lon="4.812">
        <ele>176.24</ele>
        <time>2019-05-25T08:58:08.000Z</time>
      </trkpt>
      <trkpt lat="45.64795" lon="4.81195">
        <ele>176.21</ele>
        <time>2019-05-25T08:58:13.000Z</time>
      </trkpt>
      <trkpt lat="45.6477" lon="4.81188">
        <ele>174.05</ele>
        <time>2019-05-25T08:58:18.000Z</time>
      </trkpt>
      <trkpt lat="45.64755" lon="4.81197">
        <ele>175.04</ele>
        <time>2019-05-25T08:58:23.000Z</time>
      </trkpt>
      <trkpt lat="45.64748" lon="4.81212">
        <ele>172.03</ele>
        <time>2019-05-25T08:58:28.000Z</time>
      </trkpt>
      <trkpt lat="45.64745" lon="4.81228">
        <ele>171.94</ele>
        <time>2019-05-25T08:58:33.000Z</time>
      </trkpt>
      <trkpt lat="45.64741" lon="4.81255">
        <ele>172.97</ele>
        <time>2019-05-25T08:58:38.000Z</time>
      </trkpt>
      <trkpt lat="45.64738" lon="4.8129">
        <ele>169.04</ele>
        <time>2019-05-25T08:58:43.000Z</time>
      </trkpt>
      <trkpt lat="45.64732" lon="4.81302">
        <ele>169.02</ele>
        <time>2019-05-25T08:58:55.000Z</time>
      </trkpt>
      <trkpt lat="45.6473" lon="4.81319">
        <ele>168.22</ele>
        <time>2019-05-25T08:59:00.000Z</time>
      </trkpt>
      <trkpt lat="45.64719" lon="4.81339">
        <ele>168.22</ele>
        <time>2019-05-25T08:59:05.000Z</time>
      </trkpt>
      <trkpt lat="45.64708" lon="4.81377">
        <ele>165.08</ele>
        <time>2019-05-25T08:59:10.000Z</time>
      </trkpt>
      <trkpt lat="45.64701" lon="4.81424">
        <ele>164.04</ele>
        <time>2019-05-25T08:59:15.000Z</time>
      </trkpt>
      <trkpt lat="45.64689" lon="4.81457">
        <ele>163.41</ele>
        <time>2019-05-25T08:59:20.000Z</time>
      </trkpt>
      <trkpt lat="45.6467" lon="4.81484">
        <ele>164.66</ele>
        <time>2019-05-25T08:59:25.000Z</time>
      </trkpt>
      <trkpt lat="45.64653" lon="4.81507">
        <ele>166.96</ele>
        <time>2019-05-25T08:59:30.000Z</time>
      </trkpt>
      <trkpt lat="45.64634" lon="4.81534">
        <ele>164.05</ele>
        <time>2019-05-25T08:59:35.000Z</time>
      </trkpt>
      <trkpt lat="45.64617" lon="4.8156">
        <ele>165.96</ele>
        <time>2019-05-25T08:59:40.000Z</time>
      </trkpt>
      <trkpt lat="45.646" lon="4.81584">
        <ele>165.98</ele>
        <time>2019-05-25T08:59:45.000Z</time>
      </trkpt>
      <trkpt lat="45.64582" lon="4.81608">
        <ele>165.98</ele>
        <time>2019-05-25T08:59:50.000Z</time>
      </trkpt>
      <trkpt lat="45.64564" lon="4.81637">
        <ele>165.73</ele>
        <time>2019-05-25T08:59:55.000Z</time>
      </trkpt>
      <trkpt lat="45.64545" lon="4.81671">
        <ele>166.67</ele>
        <time>2019-05-25T09:00:00.000Z</time>
      </trkpt>
      <trkpt lat="45.64521" lon="4.81698">
        <ele>167.68</ele>
        <time>2019-05-25T09:00:05.000Z</time>
      </trkpt>
      <trkpt lat="45.64493" lon="4.81728">
        <ele>166.04</ele>
        <time>2019-05-25T09:00:10.000Z</time>
      </trkpt>
      <trkpt lat="45.64474" lon="4.81769">
        <ele>165.23</ele>
        <time>2019-05-25T09:00:15.000Z</time>
      </trkpt>
      <trkpt lat="45.64456" lon="4.81797">
        <ele>162.99</ele>
        <time>2019-05-25T09:00:20.000Z</time>
      </trkpt>
      <trkpt lat="45.64438" lon="4.81824">
        <ele>161</ele>
        <time>2019-05-25T09:00:25.000Z</time>
      </trkpt>
      <trkpt lat="45.64425" lon="4.8185">
        <ele>158.02</ele>
        <time>2019-05-25T09:00:30.000Z</time>
      </trkpt>
      <trkpt lat="45.64418" lon="4.8189">
        <ele>157.79</ele>
        <time>2019-05-25T09:00:35.000Z</time>
      </trkpt>
      <trkpt lat="45.64422" lon="4.81945">
        <ele>158.07</ele>
        <time>2019-05-25T09:00:40.000Z</time>
      </trkpt>
      <trkpt lat="45.64428" lon="4.81995">
        <ele>154.36</ele>
        <time>2019-05-25T09:00:45.000Z</time>
      </trkpt>
      <trkpt lat="45.64441" lon="4.82047">
        <ele>152.3</ele>
        <time>2019-05-25T09:00:50.000Z</time>
      </trkpt>
      <trkpt lat="45.64448" lon="4.82091">
        <ele>152.05</ele>
        <time>2019-05-25T09:00:55.000Z</time>
      </trkpt>
      <trkpt lat="45.64456" lon="4.82137">
        <ele>154.98</ele>
        <time>2019-05-25T09:01:00.000Z</time>
      </trkpt>
      <trkpt lat="45.64459" lon="4.82176">
        <ele>158.65</ele>
        <time>2019-05-25T09:01:05.000Z</time>
      </trkpt>
      <trkpt lat="45.64452" lon="4.82214">
        <ele>158.41</ele>
        <time>2019-05-25T09:01:10.000Z</time>
      </trkpt>
      <trkpt lat="45.64443" lon="4.82249">
        <ele>158.93</ele>
        <time>2019-05-25T09:01:15.000Z</time>
      </trkpt>
      <trkpt lat="45.64431" lon="4.82271">
        <ele>159.99</ele>
        <time>2019-05-25T09:01:20.000Z</time>
      </trkpt>
      <trkpt lat="45.64425" lon="4.82283">
        <ele>160.8</ele>
        <time>2019-05-25T09:01:25.000Z</time>
      </trkpt>
      <trkpt lat="45.64431" lon="4.82294">
        <ele>161.82</ele>
        <time>2019-05-25T09:01:30.000Z</time>
      </trkpt>
      <trkpt lat="45.64427" lon="4.82308">
        <ele>162.1</ele>
        <time>2019-05-25T09:01:35.000Z</time>
      </trkpt>
      <trkpt lat="45.64413" lon="4.82326">
        <ele>162.8</ele>
        <time>2019-05-25T09:01:40.000Z</time>
      </trkpt>
      <trkpt lat="45.644" lon="4.82339">
        <ele>159.56</ele>
        <time>2019-05-25T09:01:45.000Z</time>
      </trkpt>
      <trkpt lat="45.64397" lon="4.82352">
        <ele>163.67</ele>
        <time>2019-05-25T09:02:49.000Z</time>
      </trkpt>
      <trkpt lat="45.64391" lon="4.82376">
        <ele>165.68</ele>
        <time>2019-05-25T09:02:54.000Z</time>
      </trkpt>
      <trkpt lat="45.64382" lon="4.82406">
        <ele>165.19</ele>
        <time>2019-05-25T09:02:59.000Z</time>
      </trkpt>
      <trkpt lat="45.6437" lon="4.82431">
        <ele>166.74</ele>
        <time>2019-05-25T09:03:04.000Z</time>
      </trkpt>
      <trkpt lat="45.64355" lon="4.82462">
        <ele>166.99</ele>
        <time>2019-05-25T09:03:09.000Z</time>
      </trkpt>
      <trkpt lat="45.6434" lon="4.8249">
        <ele>165.06</ele>
        <time>2019-05-25T09:03:14.000Z</time>
      </trkpt>
      <trkpt lat="45.64327" lon="4.82533">
        <ele>165.98</ele>
        <time>2019-05-25T09:03:19.000Z</time>
      </trkpt>
      <trkpt lat="45.64311" lon="4.82568">
        <ele>164.31</ele>
        <time>2019-05-25T09:03:24.000Z</time>
      </trkpt>
      <trkpt lat="45.64296" lon="4.82603">
        <ele>164.92</ele>
        <time>2019-05-25T09:03:29.000Z</time>
      </trkpt>
      <trkpt lat="45.64277" lon="4.82612">
        <ele>161.26</ele>
        <time>2019-05-25T09:03:34.000Z</time>
      </trkpt>
      <trkpt lat="45.64267" lon="4.82595">
        <ele>160.95</ele>
        <time>2019-05-25T09:03:39.000Z</time>
      </trkpt>
      <trkpt lat="45.64276" lon="4.82574">
        <ele>161</ele>
        <time>2019-05-25T09:03:44.000Z</time>
      </trkpt>
      <trkpt lat="45.64288" lon="4.82561">
        <ele>159.95</ele>
        <time>2019-05-25T09:03:49.000Z</time>
      </trkpt>
      <trkpt lat="45.643" lon="4.82542">
        <ele>160.92</ele>
        <time>2019-05-25T09:03:54.000Z</time>
      </trkpt>
      <trkpt lat="45.64297" lon="4.8252">
        <ele>161.01</ele>
        <time>2019-05-25T09:03:59.000Z</time>
      </trkpt>
      <trkpt lat="45.64284" lon="4.82506">
        <ele>160.01</ele>
        <time>2019-05-25T09:04:04.000Z</time>
      </trkpt>
      <trkpt lat="45.64267" lon="4.82498">
        <ele>160.99</ele>
        <time>2019-05-25T09:04:09.000Z</time>
      </trkpt>
      <trkpt lat="45.64248" lon="4.82485">
        <ele>159.95</ele>
        <time>2019-05-25T09:04:14.000Z</time>
      </trkpt>
      <trkpt lat="45.64229" lon="4.82466">
        <ele>159.99</ele>
        <time>2019-05-25T09:04:19.000Z</time>
      </trkpt>
      <trkpt lat="45.64205" lon="4.82447">
        <ele>156.01</ele>
        <time>2019-05-25T09:04:24.000Z</time>
      </trkpt>
      <trkpt lat="45.64184" lon="4.82427">
        <ele>156.99</ele>
        <time>2019-05-25T09:04:29.000Z</time>
      </trkpt>
      <trkpt lat="45.64159" lon="4.82409">
        <ele>153.1</ele>
        <time>2019-05-25T09:04:34.000Z</time>
      </trkpt>
      <trkpt lat="45.64138" lon="4.82389">
        <ele>152.24</ele>
        <time>2019-05-25T09:04:39.000Z</time>
      </trkpt>
      <trkpt lat="45.64115" lon="4.82368">
        <ele>153.74</ele>
        <time>2019-05-25T09:04:44.000Z</time>
      </trkpt>
      <trkpt lat="45.6409" lon="4.82345">
        <ele>153.24</ele>
        <time>2019-05-25T09:04:49.000Z</time>
      </trkpt>
      <trkpt lat="45.64065" lon="4.82322">
        <ele>153.61</ele>
        <time>2019-05-25T09:04:54.000Z</time>
      </trkpt>
      <trkpt lat="45.64042" lon="4.82304">
        <ele>153.24</ele>
        <time>2019-05-25T09:04:59.000Z</time>
      </trkpt>
      <trkpt lat="45.64018" lon="4.82288">
        <ele>153.74</ele>
        <time>2019-05-25T09:05:04.000Z</time>
      </trkpt>
      <trkpt lat="45.63993" lon="4.82269">
        <ele>154.74</ele>
        <time>2019-05-25T09:05:09.000Z</time>
      </trkpt>
      <trkpt lat="45.63969" lon="4.82249">
        <ele>155.97</ele>
        <time>2019-05-25T09:05:14.000Z</time>
      </trkpt>
      <trkpt lat="45.63947" lon="4.82228">
        <ele>156.92</ele>
        <time>2019-05-25T09:05:19.000Z</time>
      </trkpt>
      <trkpt lat="45.63925" lon="4.82208">
        <ele>156.05</ele>
        <time>2019-05-25T09:05:24.000Z</time>
      </trkpt>
      <trkpt lat="45.63909" lon="4.82191">
        <ele>156.67</ele>
        <time>2019-05-25T09:05:29.000Z</time>
      </trkpt>
      <trkpt lat="45.63899" lon="4.82178">
        <ele>156.97</ele>
        <time>2019-05-25T09:05:34.000Z</time>
      </trkpt>
      <trkpt lat="45.63884" lon="4.82172">
        <ele>154.99</ele>
        <time>2019-05-25T09:05:39.000Z</time>
      </trkpt>
      <trkpt lat="45.63866" lon="4.82157">
        <ele>154.79</ele>
        <time>2019-05-25T09:05:44.000Z</time>
      </trkpt>
      <trkpt lat="45.63845" lon="4.82139">
        <ele>154.98</ele>
        <time>2019-05-25T09:05:49.000Z</time>
      </trkpt>
      <trkpt lat="45.63822" lon="4.82121">
        <ele>154.98</ele>
        <time>2019-05-25T09:05:54.000Z</time>
      </trkpt>
      <trkpt lat="45.63797" lon="4.82103">
        <ele>155.92</ele>
        <time>2019-05-25T09:05:59.000Z</time>
      </trkpt>
      <trkpt lat="45.63775" lon="4.82084">
        <ele>157.73</ele>
        <time>2019-05-25T09:06:04.000Z</time>
      </trkpt>
      <trkpt lat="45.63751" lon="4.82062">
        <ele>159.21</ele>
        <time>2019-05-25T09:06:09.000Z</time>
      </trkpt>
      <trkpt lat="45.63727" lon="4.82042">
        <ele>157.85</ele>
        <time>2019-05-25T09:06:14.000Z</time>
      </trkpt>
      <trkpt lat="45.63706" lon="4.82024">
        <ele>156.75</ele>
        <time>2019-05-25T09:06:19.000Z</time>
      </trkpt>
      <trkpt lat="45.63686" lon="4.82009">
        <ele>156.73</ele>
        <time>2019-05-25T09:06:24.000Z</time>
      </trkpt>
      <trkpt lat="45.63672" lon="4.81992">
        <ele>154.98</ele>
        <time>2019-05-25T09:06:29.000Z</time>
      </trkpt>
      <trkpt lat="45.63659" lon="4.81973">
        <ele>154.23</ele>
        <time>2019-05-25T09:06:34.000Z</time>
      </trkpt>
      <trkpt lat="45.63636" lon="4.81953">
        <ele>153.97</ele>
        <time>2019-05-25T09:06:39.000Z</time>
      </trkpt>
      <trkpt lat="45.63617" lon="4.81936">
        <ele>154.68</ele>
        <time>2019-05-25T09:06:44.000Z</time>
      </trkpt>
      <trkpt lat="45.63591" lon="4.81912">
        <ele>152.99</ele>
        <time>2019-05-25T09:06:49.000Z</time>
      </trkpt>
      <trkpt lat="45.63575" lon="4.819">
        <ele>152.98</ele>
        <time>2019-05-25T09:06:54.000Z</time>
      </trkpt>
      <trkpt lat="45.63554" lon="4.81888">
        <ele>154.72</ele>
        <time>2019-05-25T09:06:59.000Z</time>
      </trkpt>
      <trkpt lat="45.63534" lon="4.81879">
        <ele>154.66</ele>
        <time>2019-05-25T09:07:04.000Z</time>
      </trkpt>
      <trkpt lat="45.63516" lon="4.81871">
        <ele>152.49</ele>
        <time>2019-05-25T09:07:09.000Z</time>
      </trkpt>
      <trkpt lat="45.63497" lon="4.81853">
        <ele>151.87</ele>
        <time>2019-05-25T09:07:14.000Z</time>
      </trkpt>
      <trkpt lat="45.63476" lon="4.8184">
        <ele>151.72</ele>
        <time>2019-05-25T09:07:19.000Z</time>
      </trkpt>
      <trkpt lat="45.63457" lon="4.81817">
        <ele>150.22</ele>
        <time>2019-05-25T09:07:24.000Z</time>
      </trkpt>
      <trkpt lat="45.63439" lon="4.81805">
        <ele>150.78</ele>
        <time>2019-05-25T09:07:29.000Z</time>
      </trkpt>
      <trkpt lat="45.63424" lon="4.81794">
        <ele>152.03</ele>
        <time>2019-05-25T09:07:34.000Z</time>
      </trkpt>
      <trkpt lat="45.63406" lon="4.8178">
        <ele>151.92</ele>
        <time>2019-05-25T09:07:39.000Z</time>
      </trkpt>
      <trkpt lat="45.63384" lon="4.81767">
        <ele>153.72</ele>
        <time>2019-05-25T09:07:44.000Z</time>
      </trkpt>
      <trkpt lat="45.63367" lon="4.81755">
        <ele>150.99</ele>
        <time>2019-05-25T09:07:49.000Z</time>
      </trkpt>
      <trkpt lat="45.6335" lon="4.8174">
        <ele>151.64</ele>
        <time>2019-05-25T09:07:54.000Z</time>
      </trkpt>
      <trkpt lat="45.63323" lon="4.8173">
        <ele>146.42</ele>
        <time>2019-05-25T09:07:59.000Z</time>
      </trkpt>
      <trkpt lat="45.633" lon="4.81713">
        <ele>146.96</ele>
        <time>2019-05-25T09:08:04.000Z</time>
      </trkpt>
      <trkpt lat="45.63282" lon="4.81698">
        <ele>149.72</ele>
        <time>2019-05-25T09:08:09.000Z</time>
      </trkpt>
      <trkpt lat="45.63264" lon="4.81682">
        <ele>152.58</ele>
        <time>2019-05-25T09:08:14.000Z</time>
      </trkpt>
      <trkpt lat="45.63235" lon="4.81674">
        <ele>150.95</ele>
        <time>2019-05-25T09:08:19.000Z</time>
      </trkpt>
      <trkpt lat="45.63224" lon="4.81669">
        <ele>152.95</ele>
        <time>2019-05-25T09:08:25.000Z</time>
      </trkpt>
      <trkpt lat="45.63211" lon="4.81662">
        <ele>153.71</ele>
        <time>2019-05-25T09:08:30.000Z</time>
      </trkpt>
      <trkpt lat="45.63197" lon="4.8165">
        <ele>154.96</ele>
        <time>2019-05-25T09:08:35.000Z</time>
      </trkpt>
      <trkpt lat="45.63178" lon="4.81641">
        <ele>155.21</ele>
        <time>2019-05-25T09:08:40.000Z</time>
      </trkpt>
      <trkpt lat="45.63155" lon="4.81628">
        <ele>152.85</ele>
        <time>2019-05-25T09:08:45.000Z</time>
      </trkpt>
      <trkpt lat="45.63129" lon="4.81617">
        <ele>153.19</ele>
        <time>2019-05-25T09:08:50.000Z</time>
      </trkpt>
      <trkpt lat="45.63108" lon="4.81603">
        <ele>154</ele>
        <time>2019-05-25T09:08:55.000Z</time>
      </trkpt>
      <trkpt lat="45.63082" lon="4.81588">
        <ele>153.33</ele>
        <time>2019-05-25T09:09:00.000Z</time>
      </trkpt>
      <trkpt lat="45.63058" lon="4.81574">
        <ele>152.96</ele>
        <time>2019-05-25T09:09:05.000Z</time>
      </trkpt>
      <trkpt lat="45.63033" lon="4.81558">
        <ele>150.03</ele>
        <time>2019-05-25T09:09:10.000Z</time>
      </trkpt>
      <trkpt lat="45.63007" lon="4.81544">
        <ele>145.28</ele>
        <time>2019-05-25T09:09:15.000Z</time>
      </trkpt>
      <trkpt lat="45.62994" lon="4.81534">
        <ele>149.14</ele>
        <time>2019-05-25T09:09:20.000Z</time>
      </trkpt>
      <trkpt lat="45.62985" lon="4.81522">
        <ele>152.15</ele>
        <time>2019-05-25T09:09:25.000Z</time>
      </trkpt>
      <trkpt lat="45.62968" lon="4.81511">
        <ele>152.71</ele>
        <time>2019-05-25T09:09:30.000Z</time>
      </trkpt>
      <trkpt lat="45.62947" lon="4.81504">
        <ele>154.7</ele>
        <time>2019-05-25T09:09:35.000Z</time>
      </trkpt>
      <trkpt lat="45.62929" lon="4.81504">
        <ele>154.95</ele>
        <time>2019-05-25T09:09:40.000Z</time>
      </trkpt>
      <trkpt lat="45.62915" lon="4.81499">
        <ele>156.89</ele>
        <time>2019-05-25T09:09:45.000Z</time>
      </trkpt>
      <trkpt lat="45.629" lon="4.8149">
        <ele>155.47</ele>
        <time>2019-05-25T09:09:50.000Z</time>
      </trkpt>
      <trkpt lat="45.62882" lon="4.81475">
        <ele>153.02</ele>
        <time>2019-05-25T09:09:55.000Z</time>
      </trkpt>
      <trkpt lat="45.6286" lon="4.81464">
        <ele>154.83</ele>
        <time>2019-05-25T09:10:00.000Z</time>
      </trkpt>
      <trkpt lat="45.62837" lon="4.81452">
        <ele>153.94</ele>
        <time>2019-05-25T09:10:05.000Z</time>
      </trkpt>
      <trkpt lat="45.62815" lon="4.8144">
        <ele>156.87</ele>
        <time>2019-05-25T09:10:10.000Z</time>
      </trkpt>
      <trkpt lat="45.62791" lon="4.81427">
        <ele>157.72</ele>
        <time>2019-05-25T09:10:15.000Z</time>
      </trkpt>
      <trkpt lat="45.62764" lon="4.81415">
        <ele>157.51</ele>
        <time>2019-05-25T09:10:20.000Z</time>
      </trkpt>
      <trkpt lat="45.62738" lon="4.814">
        <ele>156.96</ele>
        <time>2019-05-25T09:10:25.000Z</time>
      </trkpt>
      <trkpt lat="45.62713" lon="4.81392">
        <ele>155.13</ele>
        <time>2019-05-25T09:10:30.000Z</time>
      </trkpt>
      <trkpt lat="45.62698" lon="4.8138">
        <ele>156.88</ele>
        <time>2019-05-25T09:10:35.000Z</time>
      </trkpt>
      <trkpt lat="45.62679" lon="4.81365">
        <ele>153.05</ele>
        <time>2019-05-25T09:10:40.000Z</time>
      </trkpt>
      <trkpt lat="45.62658" lon="4.81353">
        <ele>153.88</ele>
        <time>2019-05-25T09:10:45.000Z</time>
      </trkpt>
      <trkpt lat="45.62641" lon="4.81342">
        <ele>153.2</ele>
        <time>2019-05-25T09:10:50.000Z</time>
      </trkpt>
      <trkpt lat="45.62617" lon="4.81331">
        <ele>153.71</ele>
        <time>2019-05-25T09:10:55.000Z</time>
      </trkpt>
      <trkpt lat="45.62597" lon="4.81327">
        <ele>155.69</ele>
        <time>2019-05-25T09:11:00.000Z</time>
      </trkpt>
      <trkpt lat="45.62577" lon="4.81314">
        <ele>155.88</ele>
        <time>2019-05-25T09:11:05.000Z</time>
      </trkpt>
      <trkpt lat="45.62555" lon="4.81308">
        <ele>157.68</ele>
        <time>2019-05-25T09:11:10.000Z</time>
      </trkpt>
      <trkpt lat="45.62533" lon="4.81296">
        <ele>156.96</ele>
        <time>2019-05-25T09:11:15.000Z</time>
      </trkpt>
      <trkpt lat="45.62512" lon="4.81288">
        <ele>156.99</ele>
        <time>2019-05-25T09:11:20.000Z</time>
      </trkpt>
      <trkpt lat="45.62483" lon="4.81276">
        <ele>154.96</ele>
        <time>2019-05-25T09:11:25.000Z</time>
      </trkpt>
      <trkpt lat="45.62456" lon="4.81263">
        <ele>155.7</ele>
        <time>2019-05-25T09:11:30.000Z</time>
      </trkpt>
      <trkpt lat="45.6243" lon="4.81253">
        <ele>156.69</ele>
        <time>2019-05-25T09:11:35.000Z</time>
      </trkpt>
      <trkpt lat="45.62404" lon="4.81242">
        <ele>156.88</ele>
        <time>2019-05-25T09:11:40.000Z</time>
      </trkpt>
      <trkpt lat="45.62383" lon="4.81232">
        <ele>156.19</ele>
        <time>2019-05-25T09:11:45.000Z</time>
      </trkpt>
      <trkpt lat="45.62363" lon="4.81223">
        <ele>158.49</ele>
        <time>2019-05-25T09:11:50.000Z</time>
      </trkpt>
      <trkpt lat="45.62338" lon="4.81212">
        <ele>157.88</ele>
        <time>2019-05-25T09:11:55.000Z</time>
      </trkpt>
      <trkpt lat="45.62313" lon="4.81203">
        <ele>157.95</ele>
        <time>2019-05-25T09:12:00.000Z</time>
      </trkpt>
      <trkpt lat="45.62292" lon="4.81197">
        <ele>158.19</ele>
        <time>2019-05-25T09:12:05.000Z</time>
      </trkpt>
      <trkpt lat="45.62273" lon="4.81186">
        <ele>158.69</ele>
        <time>2019-05-25T09:12:10.000Z</time>
      </trkpt>
      <trkpt lat="45.62245" lon="4.81179">
        <ele>157.13</ele>
        <time>2019-05-25T09:12:15.000Z</time>
      </trkpt>
      <trkpt lat="45.62224" lon="4.81171">
        <ele>154.3</ele>
        <time>2019-05-25T09:12:20.000Z</time>
      </trkpt>
      <trkpt lat="45.62203" lon="4.81157">
        <ele>150.94</ele>
        <time>2019-05-25T09:12:25.000Z</time>
      </trkpt>
      <trkpt lat="45.62178" lon="4.81143">
        <ele>153.98</ele>
        <time>2019-05-25T09:12:30.000Z</time>
      </trkpt>
      <trkpt lat="45.62153" lon="4.81138">
        <ele>155.12</ele>
        <time>2019-05-25T09:12:35.000Z</time>
      </trkpt>
      <trkpt lat="45.62128" lon="4.8113">
        <ele>153.92</ele>
        <time>2019-05-25T09:12:40.000Z</time>
      </trkpt>
      <trkpt lat="45.62107" lon="4.81121">
        <ele>156.87</ele>
        <time>2019-05-25T09:12:45.000Z</time>
      </trkpt>
      <trkpt lat="45.62078" lon="4.8111">
        <ele>151.96</ele>
        <time>2019-05-25T09:12:50.000Z</time>
      </trkpt>
      <trkpt lat="45.62052" lon="4.811">
        <ele>150.75</ele>
        <time>2019-05-25T09:12:55.000Z</time>
      </trkpt>
      <trkpt lat="45.6203" lon="4.81095">
        <ele>150.87</ele>
        <time>2019-05-25T09:13:00.000Z</time>
      </trkpt>
      <trkpt lat="45.62006" lon="4.81082">
        <ele>150.98</ele>
        <time>2019-05-25T09:13:05.000Z</time>
      </trkpt>
      <trkpt lat="45.6199" lon="4.81074">
        <ele>155.08</ele>
        <time>2019-05-25T09:13:10.000Z</time>
      </trkpt>
      <trkpt lat="45.61963" lon="4.81061">
        <ele>154.93</ele>
        <time>2019-05-25T09:13:15.000Z</time>
      </trkpt>
      <trkpt lat="45.6194" lon="4.81052">
        <ele>155.89</ele>
        <time>2019-05-25T09:13:20.000Z</time>
      </trkpt>
      <trkpt lat="45.61913" lon="4.81042">
        <ele>154.05</ele>
        <time>2019-05-25T09:13:25.000Z</time>
      </trkpt>
      <trkpt lat="45.61888" lon="4.81033">
        <ele>152.49</ele>
        <time>2019-05-25T09:13:30.000Z</time>
      </trkpt>
      <trkpt lat="45.61866" lon="4.81021">
        <ele>154.67</ele>
        <time>2019-05-25T09:13:35.000Z</time>
      </trkpt>
      <trkpt lat="45.61837" lon="4.8101">
        <ele>150.64</ele>
        <time>2019-05-25T09:13:40.000Z</time>
      </trkpt>
      <trkpt lat="45.61812" lon="4.81003">
        <ele>152.17</ele>
        <time>2019-05-25T09:13:45.000Z</time>
      </trkpt>
      <trkpt lat="45.61794" lon="4.80997">
        <ele>153.88</ele>
        <time>2019-05-25T09:13:50.000Z</time>
      </trkpt>
      <trkpt lat="45.6177" lon="4.80986">
        <ele>153.93</ele>
        <time>2019-05-25T09:13:55.000Z</time>
      </trkpt>
      <trkpt lat="45.61746" lon="4.80978">
        <ele>155.67</ele>
        <time>2019-05-25T09:14:00.000Z</time>
      </trkpt>
      <trkpt lat="45.61724" lon="4.80964">
        <ele>154.87</ele>
        <time>2019-05-25T09:14:05.000Z</time>
      </trkpt>
      <trkpt lat="45.61694" lon="4.80952">
        <ele>149.24</ele>
        <time>2019-05-25T09:14:10.000Z</time>
      </trkpt>
      <trkpt lat="45.61668" lon="4.80941">
        <ele>149.48</ele>
        <time>2019-05-25T09:14:15.000Z</time>
      </trkpt>
      <trkpt lat="45.61637" lon="4.80933">
        <ele>148.04</ele>
        <time>2019-05-25T09:14:20.000Z</time>
      </trkpt>
      <trkpt lat="45.61614" lon="4.80917">
        <ele>149.86</ele>
        <time>2019-05-25T09:14:25.000Z</time>
      </trkpt>
      <trkpt lat="45.61596" lon="4.80906">
        <ele>153.17</ele>
        <time>2019-05-25T09:14:30.000Z</time>
      </trkpt>
      <trkpt lat="45.61575" lon="4.80894">
        <ele>153.86</ele>
        <time>2019-05-25T09:14:35.000Z</time>
      </trkpt>
      <trkpt lat="45.61553" lon="4.80884">
        <ele>154.66</ele>
        <time>2019-05-25T09:14:40.000Z</time>
      </trkpt>
      <trkpt lat="45.61543" lon="4.80885">
        <ele>153.14</ele>
        <time>2019-05-25T09:14:45.000Z</time>
      </trkpt>
      <trkpt lat="45.61525" lon="4.80892">
        <ele>153.67</ele>
        <time>2019-05-25T09:14:50.000Z</time>
      </trkpt>
      <trkpt lat="45.61508" lon="4.80887">
        <ele>154.93</ele>
        <time>2019-05-25T09:14:55.000Z</time>
      </trkpt>
      <trkpt lat="45.61488" lon="4.80877">
        <ele>156.67</ele>
        <time>2019-05-25T09:15:00.000Z</time>
      </trkpt>
      <trkpt lat="45.61468" lon="4.8087">
        <ele>157.73</ele>
        <time>2019-05-25T09:15:05.000Z</time>
      </trkpt>
      <trkpt lat="45.61446" lon="4.80865">
        <ele>155.75</ele>
        <time>2019-05-25T09:15:10.000Z</time>
      </trkpt>
      <trkpt lat="45.61431" lon="4.80857">
        <ele>154.93</ele>
        <time>2019-05-25T09:15:15.000Z</time>
      </trkpt>
      <trkpt lat="45.61416" lon="4.80851">
        <ele>155.92</ele>
        <time>2019-05-25T09:15:20.000Z</time>
      </trkpt>
      <trkpt lat="45.61406" lon="4.80847">
        <ele>157.71</ele>
        <time>2019-05-25T09:15:25.000Z</time>
      </trkpt>
      <trkpt lat="45.61395" lon="4.80846">
        <ele>162.6</ele>
        <time>2019-05-25T09:15:32.000Z</time>
      </trkpt>
      <trkpt lat="45.61388" lon="4.80864">
        <ele>163.1</ele>
        <time>2019-05-25T09:15:37.000Z</time>
      </trkpt>
      <trkpt lat="45.61381" lon="4.80886">
        <ele>160.86</ele>
        <time>2019-05-25T09:15:42.000Z</time>
      </trkpt>
      <trkpt lat="45.61372" lon="4.80908">
        <ele>162.91</ele>
        <time>2019-05-25T09:15:47.000Z</time>
      </trkpt>
      <trkpt lat="45.61357" lon="4.80933">
        <ele>165.34</ele>
        <time>2019-05-25T09:15:52.000Z</time>
      </trkpt>
      <trkpt lat="45.61334" lon="4.80942">
        <ele>162.91</ele>
        <time>2019-05-25T09:15:57.000Z</time>
      </trkpt>
      <trkpt lat="45.61309" lon="4.80919">
        <ele>161.17</ele>
        <time>2019-05-25T09:16:02.000Z</time>
      </trkpt>
      <trkpt lat="45.61288" lon="4.80889">
        <ele>159.73</ele>
        <time>2019-05-25T09:16:07.000Z</time>
      </trkpt>
      <trkpt lat="45.61266" lon="4.80853">
        <ele>158.48</ele>
        <time>2019-05-25T09:16:12.000Z</time>
      </trkpt>
      <trkpt lat="45.61243" lon="4.80839">
        <ele>157.92</ele>
        <time>2019-05-25T09:16:17.000Z</time>
      </trkpt>
      <trkpt lat="45.6122" lon="4.80846">
        <ele>159.1</ele>
        <time>2019-05-25T09:16:22.000Z</time>
      </trkpt>
      <trkpt lat="45.61208" lon="4.80839">
        <ele>159.91</ele>
        <time>2019-05-25T09:16:27.000Z</time>
      </trkpt>
      <trkpt lat="45.61199" lon="4.80837">
        <ele>159.92</ele>
        <time>2019-05-25T09:16:39.000Z</time>
      </trkpt>
      <trkpt lat="45.61184" lon="4.80856">
        <ele>161.9</ele>
        <time>2019-05-25T09:16:44.000Z</time>
      </trkpt>
      <trkpt lat="45.61173" lon="4.80873">
        <ele>161.9</ele>
        <time>2019-05-25T09:16:49.000Z</time>
      </trkpt>
      <trkpt lat="45.61166" lon="4.80863">
        <ele>163.91</ele>
        <time>2019-05-25T09:16:58.000Z</time>
      </trkpt>
      <trkpt lat="45.61159" lon="4.80853">
        <ele>164.85</ele>
        <time>2019-05-25T09:17:03.000Z</time>
      </trkpt>
      <trkpt lat="45.61151" lon="4.80845">
        <ele>169.66</ele>
        <time>2019-05-25T09:17:08.000Z</time>
      </trkpt>
      <trkpt lat="45.6114" lon="4.80842">
        <ele>171.89</ele>
        <time>2019-05-25T09:17:13.000Z</time>
      </trkpt>
      <trkpt lat="45.61146" lon="4.80857">
        <ele>173.6</ele>
        <time>2019-05-25T09:17:18.000Z</time>
      </trkpt>
      <trkpt lat="45.61157" lon="4.80872">
        <ele>173.92</ele>
        <time>2019-05-25T09:17:23.000Z</time>
      </trkpt>
      <trkpt lat="45.61163" lon="4.80887">
        <ele>172.7</ele>
        <time>2019-05-25T09:17:28.000Z</time>
      </trkpt>
      <trkpt lat="45.61163" lon="4.809">
        <ele>171.92</ele>
        <time>2019-05-25T09:17:33.000Z</time>
      </trkpt>
      <trkpt lat="45.61159" lon="4.80914">
        <ele>173.6</ele>
        <time>2019-05-25T09:17:38.000Z</time>
      </trkpt>
      <trkpt lat="45.61152" lon="4.80926">
        <ele>176.09</ele>
        <time>2019-05-25T09:17:43.000Z</time>
      </trkpt>
      <trkpt lat="45.61147" lon="4.80941">
        <ele>177.9</ele>
        <time>2019-05-25T09:17:48.000Z</time>
      </trkpt>
      <trkpt lat="45.61147" lon="4.80956">
        <ele>178.96</ele>
        <time>2019-05-25T09:17:53.000Z</time>
      </trkpt>
      <trkpt lat="45.61153" lon="4.80972">
        <ele>178.86</ele>
        <time>2019-05-25T09:17:58.000Z</time>
      </trkpt>
      <trkpt lat="45.61161" lon="4.80983">
        <ele>180.96</ele>
        <time>2019-05-25T09:18:03.000Z</time>
      </trkpt>
      <trkpt lat="45.61156" lon="4.80997">
        <ele>183.59</ele>
        <time>2019-05-25T09:18:08.000Z</time>
      </trkpt>
      <trkpt lat="45.61143" lon="4.81004">
        <ele>183.73</ele>
        <time>2019-05-25T09:18:13.000Z</time>
      </trkpt>
      <trkpt lat="45.6113" lon="4.81004">
        <ele>184.9</ele>
        <time>2019-05-25T09:18:18.000Z</time>
      </trkpt>
      <trkpt lat="45.61118" lon="4.81001">
        <ele>185.91</ele>
        <time>2019-05-25T09:18:23.000Z</time>
      </trkpt>
      <trkpt lat="45.61104" lon="4.80992">
        <ele>184.17</ele>
        <time>2019-05-25T09:18:28.000Z</time>
      </trkpt>
      <trkpt lat="45.61089" lon="4.80977">
        <ele>180.05</ele>
        <time>2019-05-25T09:18:33.000Z</time>
      </trkpt>
      <trkpt lat="45.61074" lon="4.80956">
        <ele>181.9</ele>
        <time>2019-05-25T09:18:38.000Z</time>
      </trkpt>
      <trkpt lat="45.61059" lon="4.80925">
        <ele>180.92</ele>
        <time>2019-05-25T09:18:43.000Z</time>
      </trkpt>
      <trkpt lat="45.61042" lon="4.80892">
        <ele>179.92</ele>
        <time>2019-05-25T09:18:48.000Z</time>
      </trkpt>
      <trkpt lat="45.61027" lon="4.80866">
        <ele>181.85</ele>
        <time>2019-05-25T09:18:53.000Z</time>
      </trkpt>
      <trkpt lat="45.61013" lon="4.80844">
        <ele>180</ele>
        <time>2019-05-25T09:18:58.000Z</time>
      </trkpt>
      <trkpt lat="45.61001" lon="4.80822">
        <ele>179.91</ele>
        <time>2019-05-25T09:19:03.000Z</time>
      </trkpt>
      <trkpt lat="45.60989" lon="4.80801">
        <ele>183.63</ele>
        <time>2019-05-25T09:19:08.000Z</time>
      </trkpt>
      <trkpt lat="45.60975" lon="4.80781">
        <ele>181.93</ele>
        <time>2019-05-25T09:19:13.000Z</time>
      </trkpt>
      <trkpt lat="45.60961" lon="4.8076">
        <ele>182.66</ele>
        <time>2019-05-25T09:19:18.000Z</time>
      </trkpt>
      <trkpt lat="45.60946" lon="4.8074">
        <ele>181.97</ele>
        <time>2019-05-25T09:19:23.000Z</time>
      </trkpt>
      <trkpt lat="45.60933" lon="4.80718">
        <ele>181.72</ele>
        <time>2019-05-25T09:19:28.000Z</time>
      </trkpt>
      <trkpt lat="45.60923" lon="4.80695">
        <ele>183.84</ele>
        <time>2019-05-25T09:19:33.000Z</time>
      </trkpt>
      <trkpt lat="45.6091" lon="4.80671">
        <ele>183.91</ele>
        <time>2019-05-25T09:19:38.000Z</time>
      </trkpt>
      <trkpt lat="45.60899" lon="4.80653">
        <ele>183.91</ele>
        <time>2019-05-25T09:19:43.000Z</time>
      </trkpt>
      <trkpt lat="45.60896" lon="4.80638">
        <ele>184.89</ele>
        <time>2019-05-25T09:19:48.000Z</time>
      </trkpt>
      <trkpt lat="45.60889" lon="4.8063">
        <ele>187.9</ele>
        <time>2019-05-25T09:19:56.000Z</time>
      </trkpt>
      <trkpt lat="45.60889" lon="4.80617">
        <ele>194.62</ele>
        <time>2019-05-25T09:20:39.000Z</time>
      </trkpt>
      <trkpt lat="45.60881" lon="4.80608">
        <ele>192.35</ele>
        <time>2019-05-25T09:20:46.000Z</time>
      </trkpt>
      <trkpt lat="45.60865" lon="4.80605">
        <ele>186.23</ele>
        <time>2019-05-25T09:20:51.000Z</time>
      </trkpt>
      <trkpt lat="45.60856" lon="4.80604">
        <ele>180.41</ele>
        <time>2019-05-25T09:21:09.000Z</time>
      </trkpt>
      <trkpt lat="45.60854" lon="4.8059">
        <ele>186.92</ele>
        <time>2019-05-25T09:25:56.000Z</time>
      </trkpt>
      <trkpt lat="45.60847" lon="4.80572">
        <ele>186.96</ele>
        <time>2019-05-25T09:26:01.000Z</time>
      </trkpt>
      <trkpt lat="45.6084" lon="4.80556">
        <ele>186.89</ele>
        <time>2019-05-25T09:26:06.000Z</time>
      </trkpt>
      <trkpt lat="45.60833" lon="4.80537">
        <ele>187.65</ele>
        <time>2019-05-25T09:26:11.000Z</time>
      </trkpt>
      <trkpt lat="45.60827" lon="4.80519">
        <ele>188.64</ele>
        <time>2019-05-25T09:26:16.000Z</time>
      </trkpt>
      <trkpt lat="45.60816" lon="4.80504">
        <ele>186.91</ele>
        <time>2019-05-25T09:26:21.000Z</time>
      </trkpt>
      <trkpt lat="45.60803" lon="4.80487">
        <ele>186.15</ele>
        <time>2019-05-25T09:26:26.000Z</time>
      </trkpt>
      <trkpt lat="45.60792" lon="4.80464">
        <ele>186.84</ele>
        <time>2019-05-25T09:26:31.000Z</time>
      </trkpt>
      <trkpt lat="45.60781" lon="4.80441">
        <ele>188.63</ele>
        <time>2019-05-25T09:26:36.000Z</time>
      </trkpt>
      <trkpt lat="45.60769" lon="4.8042">
        <ele>188.89</ele>
        <time>2019-05-25T09:26:41.000Z</time>
      </trkpt>
      <trkpt lat="45.60758" lon="4.80407">
        <ele>188.84</ele>
        <time>2019-05-25T09:26:46.000Z</time>
      </trkpt>
      <trkpt lat="45.60745" lon="4.80393">
        <ele>189.88</ele>
        <time>2019-05-25T09:26:51.000Z</time>
      </trkpt>
      <trkpt lat="45.60732" lon="4.80376">
        <ele>188.96</ele>
        <time>2019-05-25T09:26:56.000Z</time>
      </trkpt>
      <trkpt lat="45.60722" lon="4.80354">
        <ele>186.96</ele>
        <time>2019-05-25T09:27:01.000Z</time>
      </trkpt>
      <trkpt lat="45.60704" lon="4.80334">
        <ele>183.98</ele>
        <time>2019-05-25T09:27:06.000Z</time>
      </trkpt>
      <trkpt lat="45.60689" lon="4.8032">
        <ele>184.88</ele>
        <time>2019-05-25T09:27:11.000Z</time>
      </trkpt>
      <trkpt lat="45.60676" lon="4.80307">
        <ele>184.91</ele>
        <time>2019-05-25T09:27:16.000Z</time>
      </trkpt>
      <trkpt lat="45.60663" lon="4.80296">
        <ele>185.7</ele>
        <time>2019-05-25T09:27:21.000Z</time>
      </trkpt>
      <trkpt lat="45.60652" lon="4.80283">
        <ele>187.88</ele>
        <time>2019-05-25T09:27:26.000Z</time>
      </trkpt>
      <trkpt lat="45.60641" lon="4.80272">
        <ele>186.9</ele>
        <time>2019-05-25T09:27:31.000Z</time>
      </trkpt>
      <trkpt lat="45.60629" lon="4.80259">
        <ele>187.88</ele>
        <time>2019-05-25T09:27:36.000Z</time>
      </trkpt>
      <trkpt lat="45.60619" lon="4.80244">
        <ele>190.87</ele>
        <time>2019-05-25T09:27:41.000Z</time>
      </trkpt>
      <trkpt lat="45.60605" lon="4.80227">
        <ele>190.91</ele>
        <time>2019-05-25T09:27:46.000Z</time>
      </trkpt>
      <trkpt lat="45.60588" lon="4.80211">
        <ele>191.88</ele>
        <time>2019-05-25T09:27:51.000Z</time>
      </trkpt>
      <trkpt lat="45.60573" lon="4.80195">
        <ele>192.13</ele>
        <time>2019-05-25T09:27:56.000Z</time>
      </trkpt>
      <trkpt lat="45.60564" lon="4.80181">
        <ele>191.9</ele>
        <time>2019-05-25T09:28:01.000Z</time>
      </trkpt>
      <trkpt lat="45.60554" lon="4.80172">
        <ele>191.66</ele>
        <time>2019-05-25T09:28:06.000Z</time>
      </trkpt>
      <trkpt lat="45.60545" lon="4.80162">
        <ele>192.84</ele>
        <time>2019-05-25T09:28:11.000Z</time>
      </trkpt>
      <trkpt lat="45.60536" lon="4.80149">
        <ele>194.7</ele>
        <time>2019-05-25T09:28:16.000Z</time>
      </trkpt>
      <trkpt lat="45.6053" lon="4.80139">
        <ele>196.64</ele>
        <time>2019-05-25T09:28:21.000Z</time>
      </trkpt>
      <trkpt lat="45.60523" lon="4.80128">
        <ele>198.64</ele>
        <time>2019-05-25T09:28:48.000Z</time>
      </trkpt>
      <trkpt lat="45.60512" lon="4.8011">
        <ele>195.16</ele>
        <time>2019-05-25T09:28:53.000Z</time>
      </trkpt>
      <trkpt lat="45.605" lon="4.80093">
        <ele>193.89</ele>
        <time>2019-05-25T09:28:58.000Z</time>
      </trkpt>
      <trkpt lat="45.60492" lon="4.80076">
        <ele>192.14</ele>
        <time>2019-05-25T09:29:03.000Z</time>
      </trkpt>
      <trkpt lat="45.60479" lon="4.80058">
        <ele>191.89</ele>
        <time>2019-05-25T09:29:08.000Z</time>
      </trkpt>
      <trkpt lat="45.60468" lon="4.8004">
        <ele>190.14</ele>
        <time>2019-05-25T09:29:13.000Z</time>
      </trkpt>
      <trkpt lat="45.60458" lon="4.8002">
        <ele>189.9</ele>
        <time>2019-05-25T09:29:18.000Z</time>
      </trkpt>
      <trkpt lat="45.60454" lon="4.80009">
        <ele>189.26</ele>
        <time>2019-05-25T09:29:37.000Z</time>
      </trkpt>
      <trkpt lat="45.60448" lon="4.79997">
        <ele>186.9</ele>
        <time>2019-05-25T09:29:45.000Z</time>
      </trkpt>
      <trkpt lat="45.60448" lon="4.79983">
        <ele>187.48</ele>
        <time>2019-05-25T09:29:51.000Z</time>
      </trkpt>
      <trkpt lat="45.60439" lon="4.79974">
        <ele>181.89</ele>
        <time>2019-05-25T09:29:57.000Z</time>
      </trkpt>
      <trkpt lat="45.60422" lon="4.79957">
        <ele>183.33</ele>
        <time>2019-05-25T09:30:02.000Z</time>
      </trkpt>
      <trkpt lat="45.60408" lon="4.79942">
        <ele>180.7</ele>
        <time>2019-05-25T09:30:07.000Z</time>
      </trkpt>
      <trkpt lat="45.60391" lon="4.79924">
        <ele>180.88</ele>
        <time>2019-05-25T09:30:12.000Z</time>
      </trkpt>
      <trkpt lat="45.60374" lon="4.7991">
        <ele>182.87</ele>
        <time>2019-05-25T09:30:17.000Z</time>
      </trkpt>
      <trkpt lat="45.60356" lon="4.79898">
        <ele>181.88</ele>
        <time>2019-05-25T09:30:22.000Z</time>
      </trkpt>
      <trkpt lat="45.60339" lon="4.79887">
        <ele>180.85</ele>
        <time>2019-05-25T09:30:27.000Z</time>
      </trkpt>
      <trkpt lat="45.60318" lon="4.7987">
        <ele>178.94</ele>
        <time>2019-05-25T09:30:32.000Z</time>
      </trkpt>
      <trkpt lat="45.60305" lon="4.79864">
        <ele>179.82</ele>
        <time>2019-05-25T09:30:37.000Z</time>
      </trkpt>
      <trkpt lat="45.60297" lon="4.79871">
        <ele>181.63</ele>
        <time>2019-05-25T09:30:45.000Z</time>
      </trkpt>
      <trkpt lat="45.6029" lon="4.79863">
        <ele>177.9</ele>
        <time>2019-05-25T09:36:40.000Z</time>
      </trkpt>
      <trkpt lat="45.6028" lon="4.79869">
        <ele>182.69</ele>
        <time>2019-05-25T09:42:55.000Z</time>
      </trkpt>
      <trkpt lat="45.60272" lon="4.79875">
        <ele>183</ele>
        <time>2019-05-25T09:43:02.000Z</time>
      </trkpt>
      <trkpt lat="45.60263" lon="4.79877">
        <ele>187.61</ele>
        <time>2019-05-25T09:43:33.000Z</time>
      </trkpt>
      <trkpt lat="45.60254" lon="4.79878">
        <ele>186.94</ele>
        <time>2019-05-25T09:43:38.000Z</time>
      </trkpt>
      <trkpt lat="45.60237" lon="4.79872">
        <ele>188.83</ele>
        <time>2019-05-25T09:43:43.000Z</time>
      </trkpt>
      <trkpt lat="45.60222" lon="4.79859">
        <ele>188.13</ele>
        <time>2019-05-25T09:43:48.000Z</time>
      </trkpt>
      <trkpt lat="45.60211" lon="4.79834">
        <ele>186.13</ele>
        <time>2019-05-25T09:43:53.000Z</time>
      </trkpt>
      <trkpt lat="45.60194" lon="4.79813">
        <ele>185.88</ele>
        <time>2019-05-25T09:43:58.000Z</time>
      </trkpt>
      <trkpt lat="45.60169" lon="4.79794">
        <ele>185.13</ele>
        <time>2019-05-25T09:44:03.000Z</time>
      </trkpt>
      <trkpt lat="45.60139" lon="4.79773">
        <ele>182.83</ele>
        <time>2019-05-25T09:44:08.000Z</time>
      </trkpt>
      <trkpt lat="45.60116" lon="4.7976">
        <ele>183.58</ele>
        <time>2019-05-25T09:44:13.000Z</time>
      </trkpt>
      <trkpt lat="45.60103" lon="4.79752">
        <ele>184.92</ele>
        <time>2019-05-25T09:44:18.000Z</time>
      </trkpt>
      <trkpt lat="45.60092" lon="4.79747">
        <ele>183.94</ele>
        <time>2019-05-25T09:44:23.000Z</time>
      </trkpt>
      <trkpt lat="45.60079" lon="4.79722">
        <ele>180.89</ele>
        <time>2019-05-25T09:44:28.000Z</time>
      </trkpt>
      <trkpt lat="45.60061" lon="4.797">
        <ele>179.89</ele>
        <time>2019-05-25T09:44:33.000Z</time>
      </trkpt>
      <trkpt lat="45.60037" lon="4.79681">
        <ele>178.18</ele>
        <time>2019-05-25T09:44:38.000Z</time>
      </trkpt>
      <trkpt lat="45.60005" lon="4.79653">
        <ele>175.94</ele>
        <time>2019-05-25T09:44:43.000Z</time>
      </trkpt>
      <trkpt lat="45.5997" lon="4.79622">
        <ele>173.87</ele>
        <time>2019-05-25T09:44:48.000Z</time>
      </trkpt>
      <trkpt lat="45.59933" lon="4.79592">
        <ele>174.81</ele>
        <time>2019-05-25T09:44:53.000Z</time>
      </trkpt>
      <trkpt lat="45.59907" lon="4.79566">
        <ele>175.63</ele>
        <time>2019-05-25T09:44:58.000Z</time>
      </trkpt>
      <trkpt lat="45.59883" lon="4.79549">
        <ele>175.93</ele>
        <time>2019-05-25T09:45:03.000Z</time>
      </trkpt>
      <trkpt lat="45.5986" lon="4.79531">
        <ele>175.87</ele>
        <time>2019-05-25T09:45:08.000Z</time>
      </trkpt>
      <trkpt lat="45.59839" lon="4.79514">
        <ele>176.62</ele>
        <time>2019-05-25T09:45:13.000Z</time>
      </trkpt>
      <trkpt lat="45.59821" lon="4.79498">
        <ele>176.86</ele>
        <time>2019-05-25T09:45:18.000Z</time>
      </trkpt>
      <trkpt lat="45.59805" lon="4.79484">
        <ele>176.88</ele>
        <time>2019-05-25T09:45:23.000Z</time>
      </trkpt>
      <trkpt lat="45.59806" lon="4.79471">
        <ele>175.86</ele>
        <time>2019-05-25T09:45:35.000Z</time>
      </trkpt>
      <trkpt lat="45.59818" lon="4.79444">
        <ele>175.1</ele>
        <time>2019-05-25T09:45:40.000Z</time>
      </trkpt>
      <trkpt lat="45.59829" lon="4.79416">
        <ele>173.87</ele>
        <time>2019-05-25T09:45:45.000Z</time>
      </trkpt>
      <trkpt lat="45.59837" lon="4.79408">
        <ele>171.93</ele>
        <time>2019-05-25T09:45:51.000Z</time>
      </trkpt>
      <trkpt lat="45.59822" lon="4.79388">
        <ele>170.12</ele>
        <time>2019-05-25T09:45:56.000Z</time>
      </trkpt>
      <trkpt lat="45.59801" lon="4.7936">
        <ele>169.86</ele>
        <time>2019-05-25T09:46:01.000Z</time>
      </trkpt>
      <trkpt lat="45.59781" lon="4.79326">
        <ele>170.09</ele>
        <time>2019-05-25T09:46:06.000Z</time>
      </trkpt>
      <trkpt lat="45.59756" lon="4.79307">
        <ele>170.8</ele>
        <time>2019-05-25T09:46:11.000Z</time>
      </trkpt>
      <trkpt lat="45.59728" lon="4.79294">
        <ele>170.91</ele>
        <time>2019-05-25T09:46:16.000Z</time>
      </trkpt>
      <trkpt lat="45.59701" lon="4.79289">
        <ele>170.62</ele>
        <time>2019-05-25T09:46:21.000Z</time>
      </trkpt>
      <trkpt lat="45.59674" lon="4.79279">
        <ele>171.04</ele>
        <time>2019-05-25T09:46:26.000Z</time>
      </trkpt>
      <trkpt lat="45.5965" lon="4.79276">
        <ele>173.54</ele>
        <time>2019-05-25T09:46:31.000Z</time>
      </trkpt>
      <trkpt lat="45.59627" lon="4.79269">
        <ele>174.86</ele>
        <time>2019-05-25T09:46:36.000Z</time>
      </trkpt>
      <trkpt lat="45.59606" lon="4.79265">
        <ele>175.85</ele>
        <time>2019-05-25T09:46:41.000Z</time>
      </trkpt>
      <trkpt lat="45.59589" lon="4.79262">
        <ele>176.09</ele>
        <time>2019-05-25T09:46:46.000Z</time>
      </trkpt>
      <trkpt lat="45.59568" lon="4.79252">
        <ele>174.87</ele>
        <time>2019-05-25T09:46:51.000Z</time>
      </trkpt>
      <trkpt lat="45.5954" lon="4.79242">
        <ele>173.12</ele>
        <time>2019-05-25T09:46:56.000Z</time>
      </trkpt>
      <trkpt lat="45.59505" lon="4.79232">
        <ele>172.85</ele>
        <time>2019-05-25T09:47:01.000Z</time>
      </trkpt>
      <trkpt lat="45.59468" lon="4.7921">
        <ele>168.23</ele>
        <time>2019-05-25T09:47:06.000Z</time>
      </trkpt>
      <trkpt lat="45.59435" lon="4.79169">
        <ele>166.4</ele>
        <time>2019-05-25T09:47:11.000Z</time>
      </trkpt>
      <trkpt lat="45.5941" lon="4.79119">
        <ele>162.17</ele>
        <time>2019-05-25T09:47:16.000Z</time>
      </trkpt>
      <trkpt lat="45.59405" lon="4.79064">
        <ele>159.1</ele>
        <time>2019-05-25T09:47:21.000Z</time>
      </trkpt>
      <trkpt lat="45.59406" lon="4.79046">
        <ele>158.1</ele>
        <time>2019-05-25T09:47:26.000Z</time>
      </trkpt>
      <trkpt lat="45.59407" lon="4.79031">
        <ele>156.84</ele>
        <time>2019-05-25T09:47:45.000Z</time>
      </trkpt>
      <trkpt lat="45.59406" lon="4.78999">
        <ele>156.99</ele>
        <time>2019-05-25T09:47:50.000Z</time>
      </trkpt>
      <trkpt lat="45.59409" lon="4.78966">
        <ele>155.91</ele>
        <time>2019-05-25T09:47:55.000Z</time>
      </trkpt>
      <trkpt lat="45.59411" lon="4.78931">
        <ele>155.85</ele>
        <time>2019-05-25T09:48:00.000Z</time>
      </trkpt>
      <trkpt lat="45.59415" lon="4.78905">
        <ele>156.78</ele>
        <time>2019-05-25T09:48:05.000Z</time>
      </trkpt>
      <trkpt lat="45.5941" lon="4.7889">
        <ele>159.64</ele>
        <time>2019-05-25T09:48:11.000Z</time>
      </trkpt>
      <trkpt lat="45.59398" lon="4.78878">
        <ele>159.08</ele>
        <time>2019-05-25T09:48:16.000Z</time>
      </trkpt>
      <trkpt lat="45.59386" lon="4.78859">
        <ele>158.84</ele>
        <time>2019-05-25T09:48:21.000Z</time>
      </trkpt>
      <trkpt lat="45.59372" lon="4.78833">
        <ele>159.59</ele>
        <time>2019-05-25T09:48:26.000Z</time>
      </trkpt>
      <trkpt lat="45.59359" lon="4.78803">
        <ele>159.09</ele>
        <time>2019-05-25T09:48:31.000Z</time>
      </trkpt>
      <trkpt lat="45.59344" lon="4.78775">
        <ele>159.59</ele>
        <time>2019-05-25T09:48:36.000Z</time>
      </trkpt>
      <trkpt lat="45.5933" lon="4.78748">
        <ele>160.82</ele>
        <time>2019-05-25T09:48:41.000Z</time>
      </trkpt>
      <trkpt lat="45.59317" lon="4.7872">
        <ele>160.04</ele>
        <time>2019-05-25T09:48:46.000Z</time>
      </trkpt>
      <trkpt lat="45.59304" lon="4.78693">
        <ele>159.84</ele>
        <time>2019-05-25T09:48:51.000Z</time>
      </trkpt>
      <trkpt lat="45.59291" lon="4.78667">
        <ele>159.84</ele>
        <time>2019-05-25T09:48:56.000Z</time>
      </trkpt>
      <trkpt lat="45.59276" lon="4.7864">
        <ele>159.84</ele>
        <time>2019-05-25T09:49:01.000Z</time>
      </trkpt>
      <trkpt lat="45.59262" lon="4.7861">
        <ele>159.85</ele>
        <time>2019-05-25T09:49:06.000Z</time>
      </trkpt>
      <trkpt lat="45.59248" lon="4.78584">
        <ele>160.58</ele>
        <time>2019-05-25T09:49:11.000Z</time>
      </trkpt>
      <trkpt lat="45.59234" lon="4.78556">
        <ele>162.06</ele>
        <time>2019-05-25T09:49:16.000Z</time>
      </trkpt>
      <trkpt lat="45.59221" lon="4.78528">
        <ele>160.14</ele>
        <time>2019-05-25T09:49:21.000Z</time>
      </trkpt>
      <trkpt lat="45.59212" lon="4.78495">
        <ele>159.83</ele>
        <time>2019-05-25T09:49:26.000Z</time>
      </trkpt>
      <trkpt lat="45.59201" lon="4.78466">
        <ele>158.84</ele>
        <time>2019-05-25T09:49:31.000Z</time>
      </trkpt>
      <trkpt lat="45.59188" lon="4.78435">
        <ele>159.83</ele>
        <time>2019-05-25T09:49:36.000Z</time>
      </trkpt>
      <trkpt lat="45.59177" lon="4.78404">
        <ele>159.83</ele>
        <time>2019-05-25T09:49:41.000Z</time>
      </trkpt>
      <trkpt lat="45.59164" lon="4.78372">
        <ele>159.83</ele>
        <time>2019-05-25T09:49:46.000Z</time>
      </trkpt>
      <trkpt lat="45.59152" lon="4.78339">
        <ele>159.81</ele>
        <time>2019-05-25T09:49:51.000Z</time>
      </trkpt>
      <trkpt lat="45.5914" lon="4.78309">
        <ele>159.83</ele>
        <time>2019-05-25T09:49:56.000Z</time>
      </trkpt>
      <trkpt lat="45.59129" lon="4.78281">
        <ele>159.03</ele>
        <time>2019-05-25T09:50:01.000Z</time>
      </trkpt>
      <trkpt lat="45.59118" lon="4.78248">
        <ele>156.89</ele>
        <time>2019-05-25T09:50:06.000Z</time>
      </trkpt>
      <trkpt lat="45.59105" lon="4.78214">
        <ele>157.62</ele>
        <time>2019-05-25T09:50:11.000Z</time>
      </trkpt>
      <trkpt lat="45.59091" lon="4.78182">
        <ele>156.64</ele>
        <time>2019-05-25T09:50:16.000Z</time>
      </trkpt>
      <trkpt lat="45.59076" lon="4.78153">
        <ele>157.57</ele>
        <time>2019-05-25T09:50:21.000Z</time>
      </trkpt>
      <trkpt lat="45.59059" lon="4.78125">
        <ele>158.57</ele>
        <time>2019-05-25T09:50:26.000Z</time>
      </trkpt>
      <trkpt lat="45.59041" lon="4.78098">
        <ele>158.63</ele>
        <time>2019-05-25T09:50:31.000Z</time>
      </trkpt>
      <trkpt lat="45.59022" lon="4.78068">
        <ele>158.83</ele>
        <time>2019-05-25T09:50:36.000Z</time>
      </trkpt>
      <trkpt lat="45.59005" lon="4.78038">
        <ele>158.82</ele>
        <time>2019-05-25T09:50:41.000Z</time>
      </trkpt>
      <trkpt lat="45.5899" lon="4.78008">
        <ele>158.82</ele>
        <time>2019-05-25T09:50:46.000Z</time>
      </trkpt>
      <trkpt lat="45.58973" lon="4.7798">
        <ele>158.82</ele>
        <time>2019-05-25T09:50:51.000Z</time>
      </trkpt>
      <trkpt lat="45.58954" lon="4.77953">
        <ele>159.86</ele>
        <time>2019-05-25T09:50:56.000Z</time>
      </trkpt>
      <trkpt lat="45.58936" lon="4.77924">
        <ele>157.08</ele>
        <time>2019-05-25T09:51:01.000Z</time>
      </trkpt>
      <trkpt lat="45.58914" lon="4.77904">
        <ele>155.07</ele>
        <time>2019-05-25T09:51:06.000Z</time>
      </trkpt>
      <trkpt lat="45.58886" lon="4.77889">
        <ele>156.05</ele>
        <time>2019-05-25T09:51:11.000Z</time>
      </trkpt>
      <trkpt lat="45.58863" lon="4.77876">
        <ele>155.7</ele>
        <time>2019-05-25T09:51:16.000Z</time>
      </trkpt>
      <trkpt lat="45.58845" lon="4.77873">
        <ele>156.8</ele>
        <time>2019-05-25T09:51:21.000Z</time>
      </trkpt>
      <trkpt lat="45.5882" lon="4.7787">
        <ele>156.56</ele>
        <time>2019-05-25T09:51:26.000Z</time>
      </trkpt>
      <trkpt lat="45.58797" lon="4.77866">
        <ele>155.08</ele>
        <time>2019-05-25T09:51:31.000Z</time>
      </trkpt>
      <trkpt lat="45.58771" lon="4.77863">
        <ele>155.76</ele>
        <time>2019-05-25T09:51:36.000Z</time>
      </trkpt>
      <trkpt lat="45.58746" lon="4.77859">
        <ele>154.08</ele>
        <time>2019-05-25T09:51:41.000Z</time>
      </trkpt>
      <trkpt lat="45.58723" lon="4.77856">
        <ele>155.5</ele>
        <time>2019-05-25T09:51:46.000Z</time>
      </trkpt>
      <trkpt lat="45.58699" lon="4.77853">
        <ele>155.74</ele>
        <time>2019-05-25T09:51:51.000Z</time>
      </trkpt>
      <trkpt lat="45.58674" lon="4.77851">
        <ele>154.81</ele>
        <time>2019-05-25T09:51:56.000Z</time>
      </trkpt>
      <trkpt lat="45.58645" lon="4.77852">
        <ele>154.81</ele>
        <time>2019-05-25T09:52:01.000Z</time>
      </trkpt>
      <trkpt lat="45.5862" lon="4.77853">
        <ele>156.54</ele>
        <time>2019-05-25T09:52:06.000Z</time>
      </trkpt>
      <trkpt lat="45.58594" lon="4.77856">
        <ele>156.82</ele>
        <time>2019-05-25T09:52:11.000Z</time>
      </trkpt>
      <trkpt lat="45.58568" lon="4.7786">
        <ele>156.81</ele>
        <time>2019-05-25T09:52:16.000Z</time>
      </trkpt>
      <trkpt lat="45.58543" lon="4.77867">
        <ele>156.81</ele>
        <time>2019-05-25T09:52:21.000Z</time>
      </trkpt>
      <trkpt lat="45.58514" lon="4.77876">
        <ele>156.06</ele>
        <time>2019-05-25T09:52:26.000Z</time>
      </trkpt>
      <trkpt lat="45.58485" lon="4.77888">
        <ele>154.57</ele>
        <time>2019-05-25T09:52:31.000Z</time>
      </trkpt>
      <trkpt lat="45.58459" lon="4.77902">
        <ele>157.53</ele>
        <time>2019-05-25T09:52:36.000Z</time>
      </trkpt>
      <trkpt lat="45.58431" lon="4.77915">
        <ele>156.62</ele>
        <time>2019-05-25T09:52:41.000Z</time>
      </trkpt>
      <trkpt lat="45.58406" lon="4.7793">
        <ele>155.12</ele>
        <time>2019-05-25T09:52:46.000Z</time>
      </trkpt>
      <trkpt lat="45.58375" lon="4.77952">
        <ele>154.81</ele>
        <time>2019-05-25T09:52:51.000Z</time>
      </trkpt>
      <trkpt lat="45.58351" lon="4.7797">
        <ele>156.03</ele>
        <time>2019-05-25T09:52:56.000Z</time>
      </trkpt>
      <trkpt lat="45.58325" lon="4.7799">
        <ele>155.81</ele>
        <time>2019-05-25T09:53:01.000Z</time>
      </trkpt>
      <trkpt lat="45.583" lon="4.78013">
        <ele>155.98</ele>
        <time>2019-05-25T09:53:06.000Z</time>
      </trkpt>
      <trkpt lat="45.58276" lon="4.78036">
        <ele>157.6</ele>
        <time>2019-05-25T09:53:11.000Z</time>
      </trkpt>
      <trkpt lat="45.58253" lon="4.7806">
        <ele>156.81</ele>
        <time>2019-05-25T09:53:16.000Z</time>
      </trkpt>
      <trkpt lat="45.58235" lon="4.78073">
        <ele>156.81</ele>
        <time>2019-05-25T09:53:21.000Z</time>
      </trkpt>
      <trkpt lat="45.58221" lon="4.78082">
        <ele>155.07</ele>
        <time>2019-05-25T09:53:26.000Z</time>
      </trkpt>
      <trkpt lat="45.58213" lon="4.78103">
        <ele>157.5</ele>
        <time>2019-05-25T09:53:31.000Z</time>
      </trkpt>
      <trkpt lat="45.58214" lon="4.78123">
        <ele>155.12</ele>
        <time>2019-05-25T09:53:36.000Z</time>
      </trkpt>
      <trkpt lat="45.58229" lon="4.7814">
        <ele>153.8</ele>
        <time>2019-05-25T09:53:41.000Z</time>
      </trkpt>
      <trkpt lat="45.58247" lon="4.78152">
        <ele>153.81</ele>
        <time>2019-05-25T09:53:46.000Z</time>
      </trkpt>
      <trkpt lat="45.58266" lon="4.78163">
        <ele>155.5</ele>
        <time>2019-05-25T09:53:51.000Z</time>
      </trkpt>
      <trkpt lat="45.58277" lon="4.78174">
        <ele>156.69</ele>
        <time>2019-05-25T09:53:56.000Z</time>
      </trkpt>
      <trkpt lat="45.58285" lon="4.78167">
        <ele>158.62</ele>
        <time>2019-05-25T09:54:04.000Z</time>
      </trkpt>
      <trkpt lat="45.58276" lon="4.78155">
        <ele>159.75</ele>
        <time>2019-05-25T09:54:09.000Z</time>
      </trkpt>
      <trkpt lat="45.58267" lon="4.78147">
        <ele>160.81</ele>
        <time>2019-05-25T09:54:30.000Z</time>
      </trkpt>
      <trkpt lat="45.58261" lon="4.78138">
        <ele>160.81</ele>
        <time>2019-05-25T09:54:35.000Z</time>
      </trkpt>
      <trkpt lat="45.58248" lon="4.7812">
        <ele>160.81</ele>
        <time>2019-05-25T09:54:40.000Z</time>
      </trkpt>
      <trkpt lat="45.58233" lon="4.781">
        <ele>160.07</ele>
        <time>2019-05-25T09:54:45.000Z</time>
      </trkpt>
      <trkpt lat="45.58218" lon="4.78077">
        <ele>160.75</ele>
        <time>2019-05-25T09:54:50.000Z</time>
      </trkpt>
      <trkpt lat="45.58202" lon="4.78056">
        <ele>160.63</ele>
        <time>2019-05-25T09:54:55.000Z</time>
      </trkpt>
      <trkpt lat="45.58189" lon="4.78036">
        <ele>162.54</ele>
        <time>2019-05-25T09:55:00.000Z</time>
      </trkpt>
      <trkpt lat="45.58175" lon="4.78017">
        <ele>163.74</ele>
        <time>2019-05-25T09:55:05.000Z</time>
      </trkpt>
      <trkpt lat="45.5816" lon="4.77997">
        <ele>163.99</ele>
        <time>2019-05-25T09:55:10.000Z</time>
      </trkpt>
      <trkpt lat="45.58145" lon="4.77974">
        <ele>164.8</ele>
        <time>2019-05-25T09:55:15.000Z</time>
      </trkpt>
      <trkpt lat="45.58126" lon="4.77948">
        <ele>163.81</ele>
        <time>2019-05-25T09:55:20.000Z</time>
      </trkpt>
      <trkpt lat="45.58104" lon="4.77917">
        <ele>163.8</ele>
        <time>2019-05-25T09:55:25.000Z</time>
      </trkpt>
      <trkpt lat="45.58087" lon="4.77892">
        <ele>162.82</ele>
        <time>2019-05-25T09:55:30.000Z</time>
      </trkpt>
      <trkpt lat="45.58081" lon="4.77883">
        <ele>161.82</ele>
        <time>2019-05-25T09:55:36.000Z</time>
      </trkpt>
      <trkpt lat="45.58074" lon="4.77871">
        <ele>158.82</ele>
        <time>2019-05-25T09:55:56.000Z</time>
      </trkpt>
      <trkpt lat="45.58056" lon="4.77885">
        <ele>158.8</ele>
        <time>2019-05-25T09:56:01.000Z</time>
      </trkpt>
      <trkpt lat="45.58039" lon="4.77913">
        <ele>157.12</ele>
        <time>2019-05-25T09:56:06.000Z</time>
      </trkpt>
      <trkpt lat="45.58021" lon="4.77949">
        <ele>156.82</ele>
        <time>2019-05-25T09:56:11.000Z</time>
      </trkpt>
      <trkpt lat="45.58008" lon="4.77988">
        <ele>156.82</ele>
        <time>2019-05-25T09:56:16.000Z</time>
      </trkpt>
      <trkpt lat="45.57994" lon="4.78029">
        <ele>157.57</ele>
        <time>2019-05-25T09:56:21.000Z</time>
      </trkpt>
      <trkpt lat="45.5798" lon="4.7807">
        <ele>157.81</ele>
        <time>2019-05-25T09:56:26.000Z</time>
      </trkpt>
      <trkpt lat="45.57966" lon="4.78112">
        <ele>158.74</ele>
        <time>2019-05-25T09:56:31.000Z</time>
      </trkpt>
      <trkpt lat="45.57952" lon="4.78153">
        <ele>158.06</ele>
        <time>2019-05-25T09:56:36.000Z</time>
      </trkpt>
      <trkpt lat="45.57939" lon="4.78194">
        <ele>157.81</ele>
        <time>2019-05-25T09:56:41.000Z</time>
      </trkpt>
      <trkpt lat="45.57926" lon="4.78234">
        <ele>156.86</ele>
        <time>2019-05-25T09:56:46.000Z</time>
      </trkpt>
      <trkpt lat="45.57912" lon="4.78276">
        <ele>158.55</ele>
        <time>2019-05-25T09:56:51.000Z</time>
      </trkpt>
      <trkpt lat="45.57897" lon="4.78319">
        <ele>158.82</ele>
        <time>2019-05-25T09:56:56.000Z</time>
      </trkpt>
      <trkpt lat="45.57881" lon="4.78361">
        <ele>159.75</ele>
        <time>2019-05-25T09:57:01.000Z</time>
      </trkpt>
      <trkpt lat="45.57867" lon="4.78401">
        <ele>160.56</ele>
        <time>2019-05-25T09:57:06.000Z</time>
      </trkpt>
      <trkpt lat="45.57856" lon="4.78441">
        <ele>161.75</ele>
        <time>2019-05-25T09:57:11.000Z</time>
      </trkpt>
      <trkpt lat="45.57843" lon="4.78484">
        <ele>161.8</ele>
        <time>2019-05-25T09:57:16.000Z</time>
      </trkpt>
      <trkpt lat="45.5783" lon="4.78529">
        <ele>162.56</ele>
        <time>2019-05-25T09:57:21.000Z</time>
      </trkpt>
      <trkpt lat="45.57817" lon="4.78576">
        <ele>162.83</ele>
        <time>2019-05-25T09:57:26.000Z</time>
      </trkpt>
      <trkpt lat="45.57803" lon="4.78619">
        <ele>161.83</ele>
        <time>2019-05-25T09:57:31.000Z</time>
      </trkpt>
      <trkpt lat="45.57787" lon="4.78663">
        <ele>160.88</ele>
        <time>2019-05-25T09:57:36.000Z</time>
      </trkpt>
      <trkpt lat="45.5777" lon="4.78705">
        <ele>159.63</ele>
        <time>2019-05-25T09:57:41.000Z</time>
      </trkpt>
      <trkpt lat="45.57749" lon="4.78744">
        <ele>160.81</ele>
        <time>2019-05-25T09:57:46.000Z</time>
      </trkpt>
      <trkpt lat="45.57726" lon="4.78782">
        <ele>157.84</ele>
        <time>2019-05-25T09:57:51.000Z</time>
      </trkpt>
      <trkpt lat="45.57703" lon="4.78818">
        <ele>157.82</ele>
        <time>2019-05-25T09:57:56.000Z</time>
      </trkpt>
      <trkpt lat="45.57678" lon="4.78852">
        <ele>157.63</ele>
        <time>2019-05-25T09:58:01.000Z</time>
      </trkpt>
      <trkpt lat="45.57655" lon="4.78886">
        <ele>156.65</ele>
        <time>2019-05-25T09:58:06.000Z</time>
      </trkpt>
      <trkpt lat="45.57632" lon="4.7892">
        <ele>158.05</ele>
        <time>2019-05-25T09:58:11.000Z</time>
      </trkpt>
      <trkpt lat="45.57609" lon="4.78952">
        <ele>159.76</ele>
        <time>2019-05-25T09:58:16.000Z</time>
      </trkpt>
      <trkpt lat="45.57586" lon="4.7898">
        <ele>160.59</ele>
        <time>2019-05-25T09:58:21.000Z</time>
      </trkpt>
      <trkpt lat="45.57566" lon="4.79006">
        <ele>160.82</ele>
        <time>2019-05-25T09:58:26.000Z</time>
      </trkpt>
      <trkpt lat="45.57554" lon="4.79022">
        <ele>160.83</ele>
        <time>2019-05-25T09:58:31.000Z</time>
      </trkpt>
      <trkpt lat="45.57546" lon="4.79033">
        <ele>160.84</ele>
        <time>2019-05-25T09:58:45.000Z</time>
      </trkpt>
      <trkpt lat="45.57531" lon="4.79051">
        <ele>161.01</ele>
        <time>2019-05-25T09:58:50.000Z</time>
      </trkpt>
      <trkpt lat="45.57514" lon="4.79072">
        <ele>158.84</ele>
        <time>2019-05-25T09:58:55.000Z</time>
      </trkpt>
      <trkpt lat="45.57495" lon="4.79094">
        <ele>158.82</ele>
        <time>2019-05-25T09:59:00.000Z</time>
      </trkpt>
      <trkpt lat="45.57476" lon="4.79117">
        <ele>158.82</ele>
        <time>2019-05-25T09:59:05.000Z</time>
      </trkpt>
      <trkpt lat="45.57456" lon="4.79141">
        <ele>160</ele>
        <time>2019-05-25T09:59:10.000Z</time>
      </trkpt>
      <trkpt lat="45.57436" lon="4.79167">
        <ele>161.07</ele>
        <time>2019-05-25T09:59:15.000Z</time>
      </trkpt>
      <trkpt lat="45.57416" lon="4.79191">
        <ele>162.76</ele>
        <time>2019-05-25T09:59:20.000Z</time>
      </trkpt>
      <trkpt lat="45.57396" lon="4.79217">
        <ele>162.83</ele>
        <time>2019-05-25T09:59:25.000Z</time>
      </trkpt>
      <trkpt lat="45.57376" lon="4.79241">
        <ele>162.87</ele>
        <time>2019-05-25T09:59:30.000Z</time>
      </trkpt>
      <trkpt lat="45.57355" lon="4.79263">
        <ele>163.81</ele>
        <time>2019-05-25T09:59:35.000Z</time>
      </trkpt>
      <trkpt lat="45.57335" lon="4.7929">
        <ele>165.76</ele>
        <time>2019-05-25T09:59:40.000Z</time>
      </trkpt>
      <trkpt lat="45.57314" lon="4.79314">
        <ele>165.84</ele>
        <time>2019-05-25T09:59:45.000Z</time>
      </trkpt>
      <trkpt lat="45.57296" lon="4.79337">
        <ele>166.76</ele>
        <time>2019-05-25T09:59:50.000Z</time>
      </trkpt>
      <trkpt lat="45.5728" lon="4.79354">
        <ele>167.53</ele>
        <time>2019-05-25T09:59:55.000Z</time>
      </trkpt>
      <trkpt lat="45.57264" lon="4.79373">
        <ele>166.84</ele>
        <time>2019-05-25T10:00:00.000Z</time>
      </trkpt>
      <trkpt lat="45.57248" lon="4.7939">
        <ele>166.83</ele>
        <time>2019-05-25T10:00:05.000Z</time>
      </trkpt>
      <trkpt lat="45.57234" lon="4.79409">
        <ele>166.89</ele>
        <time>2019-05-25T10:00:10.000Z</time>
      </trkpt>
      <trkpt lat="45.57219" lon="4.79426">
        <ele>167.64</ele>
        <time>2019-05-25T10:00:15.000Z</time>
      </trkpt>
      <trkpt lat="45.57203" lon="4.7941">
        <ele>168.81</ele>
        <time>2019-05-25T10:00:20.000Z</time>
      </trkpt>
      <trkpt lat="45.57197" lon="4.79386">
        <ele>169.58</ele>
        <time>2019-05-25T10:00:25.000Z</time>
      </trkpt>
      <trkpt lat="45.57194" lon="4.79368">
        <ele>171.56</ele>
        <time>2019-05-25T10:00:30.000Z</time>
      </trkpt>
      <trkpt lat="45.57189" lon="4.79353">
        <ele>171.83</ele>
        <time>2019-05-25T10:00:35.000Z</time>
      </trkpt>
      <trkpt lat="45.57177" lon="4.79344">
        <ele>170.83</ele>
        <time>2019-05-25T10:00:40.000Z</time>
      </trkpt>
      <trkpt lat="45.57156" lon="4.79339">
        <ele>170.63</ele>
        <time>2019-05-25T10:00:45.000Z</time>
      </trkpt>
      <trkpt lat="45.5713" lon="4.79348">
        <ele>170.77</ele>
        <time>2019-05-25T10:00:50.000Z</time>
      </trkpt>
      <trkpt lat="45.57104" lon="4.79365">
        <ele>169.83</ele>
        <time>2019-05-25T10:00:55.000Z</time>
      </trkpt>
      <trkpt lat="45.57081" lon="4.79392">
        <ele>168.87</ele>
        <time>2019-05-25T10:01:00.000Z</time>
      </trkpt>
      <trkpt lat="45.57057" lon="4.79422">
        <ele>168.59</ele>
        <time>2019-05-25T10:01:05.000Z</time>
      </trkpt>
      <trkpt lat="45.57034" lon="4.7945">
        <ele>168.83</ele>
        <time>2019-05-25T10:01:10.000Z</time>
      </trkpt>
      <trkpt lat="45.57008" lon="4.79476">
        <ele>170.51</ele>
        <time>2019-05-25T10:01:15.000Z</time>
      </trkpt>
      <trkpt lat="45.56981" lon="4.79499">
        <ele>170.83</ele>
        <time>2019-05-25T10:01:20.000Z</time>
      </trkpt>
      <trkpt lat="45.56954" lon="4.79519">
        <ele>169.64</ele>
        <time>2019-05-25T10:01:25.000Z</time>
      </trkpt>
      <trkpt lat="45.56926" lon="4.79536">
        <ele>169.84</ele>
        <time>2019-05-25T10:01:30.000Z</time>
      </trkpt>
      <trkpt lat="45.56899" lon="4.79552">
        <ele>169.87</ele>
        <time>2019-05-25T10:01:35.000Z</time>
      </trkpt>
      <trkpt lat="45.56871" lon="4.79568">
        <ele>171.56</ele>
        <time>2019-05-25T10:01:40.000Z</time>
      </trkpt>
      <trkpt lat="45.56847" lon="4.79584">
        <ele>172.76</ele>
        <time>2019-05-25T10:01:45.000Z</time>
      </trkpt>
      <trkpt lat="45.56824" lon="4.79602">
        <ele>171.13</ele>
        <time>2019-05-25T10:01:50.000Z</time>
      </trkpt>
      <trkpt lat="45.56799" lon="4.7962">
        <ele>171.59</ele>
        <time>2019-05-25T10:01:55.000Z</time>
      </trkpt>
      <trkpt lat="45.56771" lon="4.79639">
        <ele>173.57</ele>
        <time>2019-05-25T10:02:00.000Z</time>
      </trkpt>
      <trkpt lat="45.56742" lon="4.79655">
        <ele>172.89</ele>
        <time>2019-05-25T10:02:05.000Z</time>
      </trkpt>
      <trkpt lat="45.56713" lon="4.79669">
        <ele>172.69</ele>
        <time>2019-05-25T10:02:10.000Z</time>
      </trkpt>
      <trkpt lat="45.56686" lon="4.7969">
        <ele>171.89</ele>
        <time>2019-05-25T10:02:15.000Z</time>
      </trkpt>
      <trkpt lat="45.56659" lon="4.79712">
        <ele>172.59</ele>
        <time>2019-05-25T10:02:20.000Z</time>
      </trkpt>
      <trkpt lat="45.56633" lon="4.79732">
        <ele>171.89</ele>
        <time>2019-05-25T10:02:25.000Z</time>
      </trkpt>
      <trkpt lat="45.56608" lon="4.79754">
        <ele>173.47</ele>
        <time>2019-05-25T10:02:30.000Z</time>
      </trkpt>
      <trkpt lat="45.566" lon="4.79794">
        <ele>171.14</ele>
        <time>2019-05-25T10:02:35.000Z</time>
      </trkpt>
      <trkpt lat="45.56591" lon="4.79839">
        <ele>170.84</ele>
        <time>2019-05-25T10:02:40.000Z</time>
      </trkpt>
      <trkpt lat="45.56584" lon="4.79887">
        <ele>169.83</ele>
        <time>2019-05-25T10:02:45.000Z</time>
      </trkpt>
      <trkpt lat="45.5658" lon="4.79932">
        <ele>168.85</ele>
        <time>2019-05-25T10:02:50.000Z</time>
      </trkpt>
      <trkpt lat="45.56579" lon="4.79945">
        <ele>167.6</ele>
        <time>2019-05-25T10:03:14.000Z</time>
      </trkpt>
      <trkpt lat="45.5657" lon="4.79962">
        <ele>167.85</ele>
        <time>2019-05-25T10:03:19.000Z</time>
      </trkpt>
      <trkpt lat="45.56553" lon="4.79986">
        <ele>166.1</ele>
        <time>2019-05-25T10:03:24.000Z</time>
      </trkpt>
      <trkpt lat="45.56532" lon="4.80018">
        <ele>164.1</ele>
        <time>2019-05-25T10:03:29.000Z</time>
      </trkpt>
      <trkpt lat="45.56505" lon="4.8005">
        <ele>162.84</ele>
        <time>2019-05-25T10:03:34.000Z</time>
      </trkpt>
      <trkpt lat="45.56478" lon="4.8008">
        <ele>164.33</ele>
        <time>2019-05-25T10:03:39.000Z</time>
      </trkpt>
      <trkpt lat="45.56451" lon="4.80111">
        <ele>163.04</ele>
        <time>2019-05-25T10:03:44.000Z</time>
      </trkpt>
      <trkpt lat="45.56424" lon="4.8014">
        <ele>163.82</ele>
        <time>2019-05-25T10:03:49.000Z</time>
      </trkpt>
      <trkpt lat="45.56399" lon="4.80168">
        <ele>162.85</ele>
        <time>2019-05-25T10:03:54.000Z</time>
      </trkpt>
      <trkpt lat="45.56375" lon="4.80192">
        <ele>163.59</ele>
        <time>2019-05-25T10:03:59.000Z</time>
      </trkpt>
      <trkpt lat="45.56351" lon="4.8022">
        <ele>162.85</ele>
        <time>2019-05-25T10:04:04.000Z</time>
      </trkpt>
      <trkpt lat="45.56327" lon="4.80239">
        <ele>163.6</ele>
        <time>2019-05-25T10:04:09.000Z</time>
      </trkpt>
      <trkpt lat="45.56316" lon="4.80246">
        <ele>163.09</ele>
        <time>2019-05-25T10:04:18.000Z</time>
      </trkpt>
      <trkpt lat="45.56302" lon="4.80261">
        <ele>161.65</ele>
        <time>2019-05-25T10:04:23.000Z</time>
      </trkpt>
      <trkpt lat="45.56286" lon="4.80282">
        <ele>163.51</ele>
        <time>2019-05-25T10:04:28.000Z</time>
      </trkpt>
      <trkpt lat="45.56277" lon="4.80312">
        <ele>164.59</ele>
        <time>2019-05-25T10:04:33.000Z</time>
      </trkpt>
      <trkpt lat="45.56273" lon="4.80343">
        <ele>161.86</ele>
        <time>2019-05-25T10:04:38.000Z</time>
      </trkpt>
      <trkpt lat="45.56267" lon="4.80377">
        <ele>161.79</ele>
        <time>2019-05-25T10:04:43.000Z</time>
      </trkpt>
      <trkpt lat="45.56253" lon="4.80407">
        <ele>162.6</ele>
        <time>2019-05-25T10:04:48.000Z</time>
      </trkpt>
      <trkpt lat="45.56241" lon="4.80429">
        <ele>161.85</ele>
        <time>2019-05-25T10:04:53.000Z</time>
      </trkpt>
      <trkpt lat="45.56219" lon="4.80434">
        <ele>160.9</ele>
        <time>2019-05-25T10:04:58.000Z</time>
      </trkpt>
      <trkpt lat="45.56197" lon="4.8043">
        <ele>160.89</ele>
        <time>2019-05-25T10:05:03.000Z</time>
      </trkpt>
      <trkpt lat="45.56174" lon="4.80441">
        <ele>162.02</ele>
        <time>2019-05-25T10:05:08.000Z</time>
      </trkpt>
      <trkpt lat="45.56152" lon="4.80461">
        <ele>160.9</ele>
        <time>2019-05-25T10:05:13.000Z</time>
      </trkpt>
      <trkpt lat="45.56131" lon="4.8048">
        <ele>162.53</ele>
        <time>2019-05-25T10:05:18.000Z</time>
      </trkpt>
      <trkpt lat="45.56109" lon="4.80496">
        <ele>162.84</ele>
        <time>2019-05-25T10:05:23.000Z</time>
      </trkpt>
      <trkpt lat="45.56086" lon="4.80513">
        <ele>161.84</ele>
        <time>2019-05-25T10:05:28.000Z</time>
      </trkpt>
      <trkpt lat="45.56063" lon="4.80529">
        <ele>162.84</ele>
        <time>2019-05-25T10:05:33.000Z</time>
      </trkpt>
      <trkpt lat="45.56042" lon="4.80542">
        <ele>164.82</ele>
        <time>2019-05-25T10:05:38.000Z</time>
      </trkpt>
      <trkpt lat="45.56023" lon="4.80548">
        <ele>164.84</ele>
        <time>2019-05-25T10:05:43.000Z</time>
      </trkpt>
      <trkpt lat="45.56007" lon="4.80551">
        <ele>165.82</ele>
        <time>2019-05-25T10:05:48.000Z</time>
      </trkpt>
      <trkpt lat="45.55992" lon="4.8055">
        <ele>165.84</ele>
        <time>2019-05-25T10:05:53.000Z</time>
      </trkpt>
      <trkpt lat="45.5598" lon="4.80548">
        <ele>167.82</ele>
        <time>2019-05-25T10:05:58.000Z</time>
      </trkpt>
      <trkpt lat="45.55967" lon="4.80551">
        <ele>168.78</ele>
        <time>2019-05-25T10:06:03.000Z</time>
      </trkpt>
      <trkpt lat="45.55953" lon="4.80544">
        <ele>168.83</ele>
        <time>2019-05-25T10:06:08.000Z</time>
      </trkpt>
      <trkpt lat="45.55942" lon="4.80532">
        <ele>168.59</ele>
        <time>2019-05-25T10:06:13.000Z</time>
      </trkpt>
      <trkpt lat="45.55931" lon="4.80521">
        <ele>170.57</ele>
        <time>2019-05-25T10:06:18.000Z</time>
      </trkpt>
      <trkpt lat="45.55925" lon="4.80509">
        <ele>171.84</ele>
        <time>2019-05-25T10:06:23.000Z</time>
      </trkpt>
      <trkpt lat="45.55919" lon="4.80497">
        <ele>173.58</ele>
        <time>2019-05-25T10:06:29.000Z</time>
      </trkpt>
      <trkpt lat="45.55927" lon="4.80516">
        <ele>175.9</ele>
        <time>2019-05-25T10:07:08.000Z</time>
      </trkpt>
      <trkpt lat="45.55945" lon="4.80543">
        <ele>171.17</ele>
        <time>2019-05-25T10:07:13.000Z</time>
      </trkpt>
      <trkpt lat="45.55967" lon="4.80563">
        <ele>170.04</ele>
        <time>2019-05-25T10:07:18.000Z</time>
      </trkpt>
      <trkpt lat="45.55984" lon="4.80585">
        <ele>169.84</ele>
        <time>2019-05-25T10:07:23.000Z</time>
      </trkpt>
      <trkpt lat="45.55997" lon="4.80617">
        <ele>169.89</ele>
        <time>2019-05-25T10:07:28.000Z</time>
      </trkpt>
      <trkpt lat="45.56004" lon="4.80651">
        <ele>167.11</ele>
        <time>2019-05-25T10:07:33.000Z</time>
      </trkpt>
      <trkpt lat="45.56003" lon="4.8067">
        <ele>167.83</ele>
        <time>2019-05-25T10:07:38.000Z</time>
      </trkpt>
      <trkpt lat="45.56002" lon="4.80684">
        <ele>166.9</ele>
        <time>2019-05-25T10:07:43.000Z</time>
      </trkpt>
      <trkpt lat="45.5601" lon="4.80706">
        <ele>166.09</ele>
        <time>2019-05-25T10:07:48.000Z</time>
      </trkpt>
      <trkpt lat="45.56017" lon="4.80739">
        <ele>163.16</ele>
        <time>2019-05-25T10:07:53.000Z</time>
      </trkpt>
      <trkpt lat="45.56029" lon="4.80779">
        <ele>160.86</ele>
        <time>2019-05-25T10:07:58.000Z</time>
      </trkpt>
      <trkpt lat="45.5604" lon="4.80811">
        <ele>162.16</ele>
        <time>2019-05-25T10:08:03.000Z</time>
      </trkpt>
      <trkpt lat="45.56044" lon="4.80831">
        <ele>159.86</ele>
        <time>2019-05-25T10:08:08.000Z</time>
      </trkpt>
      <trkpt lat="45.56051" lon="4.80841">
        <ele>160.78</ele>
        <time>2019-05-25T10:08:25.000Z</time>
      </trkpt>
      <trkpt lat="45.56057" lon="4.80861">
        <ele>160.85</ele>
        <time>2019-05-25T10:08:30.000Z</time>
      </trkpt>
      <trkpt lat="45.56067" lon="4.80886">
        <ele>160.66</ele>
        <time>2019-05-25T10:08:35.000Z</time>
      </trkpt>
      <trkpt lat="45.56086" lon="4.8091">
        <ele>159.09</ele>
        <time>2019-05-25T10:08:40.000Z</time>
      </trkpt>
      <trkpt lat="45.56104" lon="4.80936">
        <ele>159.61</ele>
        <time>2019-05-25T10:08:45.000Z</time>
      </trkpt>
      <trkpt lat="45.56105" lon="4.80963">
        <ele>158.85</ele>
        <time>2019-05-25T10:08:50.000Z</time>
      </trkpt>
      <trkpt lat="45.56107" lon="4.80992">
        <ele>158.85</ele>
        <time>2019-05-25T10:08:55.000Z</time>
      </trkpt>
      <trkpt lat="45.56103" lon="4.81022">
        <ele>157.91</ele>
        <time>2019-05-25T10:09:00.000Z</time>
      </trkpt>
      <trkpt lat="45.56102" lon="4.8105">
        <ele>158.6</ele>
        <time>2019-05-25T10:09:05.000Z</time>
      </trkpt>
      <trkpt lat="45.56107" lon="4.81063">
        <ele>157.86</ele>
        <time>2019-05-25T10:09:10.000Z</time>
      </trkpt>
      <trkpt lat="45.56112" lon="4.8108">
        <ele>157.1</ele>
        <time>2019-05-25T10:09:15.000Z</time>
      </trkpt>
      <trkpt lat="45.56119" lon="4.81103">
        <ele>157.79</ele>
        <time>2019-05-25T10:09:20.000Z</time>
      </trkpt>
      <trkpt lat="45.56124" lon="4.8113">
        <ele>157.86</ele>
        <time>2019-05-25T10:09:25.000Z</time>
      </trkpt>
      <trkpt lat="45.56133" lon="4.81158">
        <ele>157.79</ele>
        <time>2019-05-25T10:09:30.000Z</time>
      </trkpt>
      <trkpt lat="45.5614" lon="4.81178">
        <ele>156.92</ele>
        <time>2019-05-25T10:09:35.000Z</time>
      </trkpt>
      <trkpt lat="45.56139" lon="4.81201">
        <ele>155.92</ele>
        <time>2019-05-25T10:09:40.000Z</time>
      </trkpt>
      <trkpt lat="45.56127" lon="4.81216">
        <ele>155.86</ele>
        <time>2019-05-25T10:09:45.000Z</time>
      </trkpt>
      <trkpt lat="45.56113" lon="4.81224">
        <ele>155.09</ele>
        <time>2019-05-25T10:09:50.000Z</time>
      </trkpt>
      <trkpt lat="45.561" lon="4.81235">
        <ele>155.61</ele>
        <time>2019-05-25T10:09:55.000Z</time>
      </trkpt>
      <trkpt lat="45.56081" lon="4.81251">
        <ele>156.04</ele>
        <time>2019-05-25T10:10:00.000Z</time>
      </trkpt>
      <trkpt lat="45.5606" lon="4.81268">
        <ele>156.86</ele>
        <time>2019-05-25T10:10:05.000Z</time>
      </trkpt>
      <trkpt lat="45.56033" lon="4.81286">
        <ele>158.29</ele>
        <time>2019-05-25T10:10:10.000Z</time>
      </trkpt>
      <trkpt lat="45.56007" lon="4.81302">
        <ele>156.17</ele>
        <time>2019-05-25T10:10:15.000Z</time>
      </trkpt>
      <trkpt lat="45.5598" lon="4.81322">
        <ele>157.84</ele>
        <time>2019-05-25T10:10:20.000Z</time>
      </trkpt>
      <trkpt lat="45.55953" lon="4.81339">
        <ele>157.86</ele>
        <time>2019-05-25T10:10:25.000Z</time>
      </trkpt>
      <trkpt lat="45.55928" lon="4.81356">
        <ele>157.86</ele>
        <time>2019-05-25T10:10:30.000Z</time>
      </trkpt>
      <trkpt lat="45.55901" lon="4.81373">
        <ele>156.92</ele>
        <time>2019-05-25T10:10:35.000Z</time>
      </trkpt>
      <trkpt lat="45.55874" lon="4.8139">
        <ele>156.86</ele>
        <time>2019-05-25T10:10:40.000Z</time>
      </trkpt>
      <trkpt lat="45.55848" lon="4.81404">
        <ele>154.64</ele>
        <time>2019-05-25T10:10:45.000Z</time>
      </trkpt>
      <trkpt lat="45.55823" lon="4.8142">
        <ele>156.54</ele>
        <time>2019-05-25T10:10:50.000Z</time>
      </trkpt>
      <trkpt lat="45.55799" lon="4.81439">
        <ele>156.92</ele>
        <time>2019-05-25T10:10:55.000Z</time>
      </trkpt>
      <trkpt lat="45.55773" lon="4.81454">
        <ele>156.86</ele>
        <time>2019-05-25T10:11:00.000Z</time>
      </trkpt>
      <trkpt lat="45.55747" lon="4.81471">
        <ele>155.87</ele>
        <time>2019-05-25T10:11:05.000Z</time>
      </trkpt>
      <trkpt lat="45.55721" lon="4.81489">
        <ele>154.92</ele>
        <time>2019-05-25T10:11:10.000Z</time>
      </trkpt>
      <trkpt lat="45.55693" lon="4.81506">
        <ele>151.87</ele>
        <time>2019-05-25T10:11:15.000Z</time>
      </trkpt>
      <trkpt lat="45.55667" lon="4.81525">
        <ele>153.6</ele>
        <time>2019-05-25T10:11:20.000Z</time>
      </trkpt>
      <trkpt lat="45.55639" lon="4.81546">
        <ele>155.54</ele>
        <time>2019-05-25T10:11:25.000Z</time>
      </trkpt>
      <trkpt lat="45.5561" lon="4.81566">
        <ele>156.9</ele>
        <time>2019-05-25T10:11:30.000Z</time>
      </trkpt>
      <trkpt lat="45.55583" lon="4.81588">
        <ele>156.86</ele>
        <time>2019-05-25T10:11:35.000Z</time>
      </trkpt>
      <trkpt lat="45.55556" lon="4.81614">
        <ele>157.85</ele>
        <time>2019-05-25T10:11:40.000Z</time>
      </trkpt>
      <trkpt lat="45.5553" lon="4.81642">
        <ele>157.62</ele>
        <time>2019-05-25T10:11:45.000Z</time>
      </trkpt>
      <trkpt lat="45.55504" lon="4.81675">
        <ele>160.52</ele>
        <time>2019-05-25T10:11:50.000Z</time>
      </trkpt>
      <trkpt lat="45.55482" lon="4.81707">
        <ele>160.67</ele>
        <time>2019-05-25T10:11:55.000Z</time>
      </trkpt>
      <trkpt lat="45.5546" lon="4.81742">
        <ele>159.11</ele>
        <time>2019-05-25T10:12:00.000Z</time>
      </trkpt>
      <trkpt lat="45.55441" lon="4.81777">
        <ele>156.93</ele>
        <time>2019-05-25T10:12:05.000Z</time>
      </trkpt>
      <trkpt lat="45.55422" lon="4.81814">
        <ele>155.88</ele>
        <time>2019-05-25T10:12:10.000Z</time>
      </trkpt>
      <trkpt lat="45.55405" lon="4.81851">
        <ele>154.86</ele>
        <time>2019-05-25T10:12:15.000Z</time>
      </trkpt>
      <trkpt lat="45.55385" lon="4.81889">
        <ele>154</ele>
        <time>2019-05-25T10:12:20.000Z</time>
      </trkpt>
      <trkpt lat="45.55367" lon="4.81925">
        <ele>153.91</ele>
        <time>2019-05-25T10:12:25.000Z</time>
      </trkpt>
      <trkpt lat="45.55345" lon="4.81958">
        <ele>153.91</ele>
        <time>2019-05-25T10:12:30.000Z</time>
      </trkpt>
      <trkpt lat="45.55318" lon="4.81987">
        <ele>153.82</ele>
        <time>2019-05-25T10:12:35.000Z</time>
      </trkpt>
      <trkpt lat="45.55294" lon="4.82013">
        <ele>155.91</ele>
        <time>2019-05-25T10:12:40.000Z</time>
      </trkpt>
      <trkpt lat="45.55269" lon="4.82035">
        <ele>155.85</ele>
        <time>2019-05-25T10:12:45.000Z</time>
      </trkpt>
      <trkpt lat="45.55245" lon="4.8206">
        <ele>154.88</ele>
        <time>2019-05-25T10:12:50.000Z</time>
      </trkpt>
      <trkpt lat="45.55221" lon="4.82083">
        <ele>152.94</ele>
        <time>2019-05-25T10:12:55.000Z</time>
      </trkpt>
      <trkpt lat="45.55199" lon="4.82115">
        <ele>154.88</ele>
        <time>2019-05-25T10:13:00.000Z</time>
      </trkpt>
      <trkpt lat="45.55187" lon="4.82138">
        <ele>156.8</ele>
        <time>2019-05-25T10:13:05.000Z</time>
      </trkpt>
      <trkpt lat="45.55188" lon="4.82157">
        <ele>156.87</ele>
        <time>2019-05-25T10:13:10.000Z</time>
      </trkpt>
      <trkpt lat="45.55174" lon="4.8218">
        <ele>156.87</ele>
        <time>2019-05-25T10:13:15.000Z</time>
      </trkpt>
      <trkpt lat="45.55158" lon="4.8221">
        <ele>154.87</ele>
        <time>2019-05-25T10:13:20.000Z</time>
      </trkpt>
      <trkpt lat="45.55142" lon="4.82242">
        <ele>154.62</ele>
        <time>2019-05-25T10:13:25.000Z</time>
      </trkpt>
      <trkpt lat="45.55125" lon="4.82272">
        <ele>155.81</ele>
        <time>2019-05-25T10:13:30.000Z</time>
      </trkpt>
      <trkpt lat="45.55107" lon="4.823">
        <ele>156.81</ele>
        <time>2019-05-25T10:13:35.000Z</time>
      </trkpt>
      <trkpt lat="45.55088" lon="4.82329">
        <ele>157.81</ele>
        <time>2019-05-25T10:13:40.000Z</time>
      </trkpt>
      <trkpt lat="45.55067" lon="4.82357">
        <ele>156.12</ele>
        <time>2019-05-25T10:13:45.000Z</time>
      </trkpt>
      <trkpt lat="45.55043" lon="4.82383">
        <ele>156.12</ele>
        <time>2019-05-25T10:13:50.000Z</time>
      </trkpt>
      <trkpt lat="45.55016" lon="4.82409">
        <ele>156.62</ele>
        <time>2019-05-25T10:13:55.000Z</time>
      </trkpt>
      <trkpt lat="45.5499" lon="4.82432">
        <ele>156.87</ele>
        <time>2019-05-25T10:14:00.000Z</time>
      </trkpt>
      <trkpt lat="45.54966" lon="4.82454">
        <ele>157.81</ele>
        <time>2019-05-25T10:14:05.000Z</time>
      </trkpt>
      <trkpt lat="45.54941" lon="4.82475">
        <ele>157.12</ele>
        <time>2019-05-25T10:14:10.000Z</time>
      </trkpt>
      <trkpt lat="45.54914" lon="4.82498">
        <ele>156.92</ele>
        <time>2019-05-25T10:14:15.000Z</time>
      </trkpt>
      <trkpt lat="45.54888" lon="4.82522">
        <ele>158.1</ele>
        <time>2019-05-25T10:14:20.000Z</time>
      </trkpt>
      <trkpt lat="45.54861" lon="4.82546">
        <ele>158.63</ele>
        <time>2019-05-25T10:14:25.000Z</time>
      </trkpt>
      <trkpt lat="45.54834" lon="4.82569">
        <ele>160.11</ele>
        <time>2019-05-25T10:14:30.000Z</time>
      </trkpt>
      <trkpt lat="45.54807" lon="4.82591">
        <ele>159.83</ele>
        <time>2019-05-25T10:14:35.000Z</time>
      </trkpt>
      <trkpt lat="45.54782" lon="4.82616">
        <ele>158.89</ele>
        <time>2019-05-25T10:14:40.000Z</time>
      </trkpt>
      <trkpt lat="45.54754" lon="4.8264">
        <ele>157.89</ele>
        <time>2019-05-25T10:14:45.000Z</time>
      </trkpt>
      <trkpt lat="45.54727" lon="4.82664">
        <ele>158.86</ele>
        <time>2019-05-25T10:14:50.000Z</time>
      </trkpt>
      <trkpt lat="45.54705" lon="4.82693">
        <ele>158.87</ele>
        <time>2019-05-25T10:14:55.000Z</time>
      </trkpt>
      <trkpt lat="45.54688" lon="4.82723">
        <ele>159.81</ele>
        <time>2019-05-25T10:15:00.000Z</time>
      </trkpt>
      <trkpt lat="45.54679" lon="4.82764">
        <ele>158.11</ele>
        <time>2019-05-25T10:15:05.000Z</time>
      </trkpt>
      <trkpt lat="45.54676" lon="4.82806">
        <ele>158.62</ele>
        <time>2019-05-25T10:15:10.000Z</time>
      </trkpt>
      <trkpt lat="45.54674" lon="4.82851">
        <ele>157.64</ele>
        <time>2019-05-25T10:15:15.000Z</time>
      </trkpt>
      <trkpt lat="45.54672" lon="4.82896">
        <ele>157.82</ele>
        <time>2019-05-25T10:15:20.000Z</time>
      </trkpt>
      <trkpt lat="45.54659" lon="4.82935">
        <ele>158.88</ele>
        <time>2019-05-25T10:15:25.000Z</time>
      </trkpt>
      <trkpt lat="45.54636" lon="4.82965">
        <ele>156.88</ele>
        <time>2019-05-25T10:15:30.000Z</time>
      </trkpt>
      <trkpt lat="45.54612" lon="4.82998">
        <ele>155.94</ele>
        <time>2019-05-25T10:15:35.000Z</time>
      </trkpt>
      <trkpt lat="45.5459" lon="4.83028">
        <ele>155.88</ele>
        <time>2019-05-25T10:15:40.000Z</time>
      </trkpt>
      <trkpt lat="45.54567" lon="4.83061">
        <ele>155.93</ele>
        <time>2019-05-25T10:15:45.000Z</time>
      </trkpt>
      <trkpt lat="45.54545" lon="4.83095">
        <ele>155.88</ele>
        <time>2019-05-25T10:15:50.000Z</time>
      </trkpt>
      <trkpt lat="45.54522" lon="4.83128">
        <ele>155.88</ele>
        <time>2019-05-25T10:15:55.000Z</time>
      </trkpt>
      <trkpt lat="45.54502" lon="4.83163">
        <ele>157.05</ele>
        <time>2019-05-25T10:16:00.000Z</time>
      </trkpt>
      <trkpt lat="45.5448" lon="4.83196">
        <ele>156.9</ele>
        <time>2019-05-25T10:16:05.000Z</time>
      </trkpt>
      <trkpt lat="45.54458" lon="4.83229">
        <ele>155.95</ele>
        <time>2019-05-25T10:16:10.000Z</time>
      </trkpt>
      <trkpt lat="45.54437" lon="4.83264">
        <ele>155.88</ele>
        <time>2019-05-25T10:16:15.000Z</time>
      </trkpt>
      <trkpt lat="45.54415" lon="4.83299">
        <ele>154.84</ele>
        <time>2019-05-25T10:16:20.000Z</time>
      </trkpt>
      <trkpt lat="45.54395" lon="4.83336">
        <ele>153.2</ele>
        <time>2019-05-25T10:16:25.000Z</time>
      </trkpt>
      <trkpt lat="45.54375" lon="4.83372">
        <ele>154.63</ele>
        <time>2019-05-25T10:16:30.000Z</time>
      </trkpt>
      <trkpt lat="45.54356" lon="4.83408">
        <ele>154.93</ele>
        <time>2019-05-25T10:16:35.000Z</time>
      </trkpt>
      <trkpt lat="45.54338" lon="4.83446">
        <ele>155.82</ele>
        <time>2019-05-25T10:16:40.000Z</time>
      </trkpt>
      <trkpt lat="45.5432" lon="4.83483">
        <ele>153.89</ele>
        <time>2019-05-25T10:16:45.000Z</time>
      </trkpt>
      <trkpt lat="45.54302" lon="4.83519">
        <ele>155.82</ele>
        <time>2019-05-25T10:16:50.000Z</time>
      </trkpt>
      <trkpt lat="45.54285" lon="4.83557">
        <ele>155.14</ele>
        <time>2019-05-25T10:16:55.000Z</time>
      </trkpt>
      <trkpt lat="45.54268" lon="4.83597">
        <ele>155.87</ele>
        <time>2019-05-25T10:17:00.000Z</time>
      </trkpt>
      <trkpt lat="45.54253" lon="4.83638">
        <ele>155.89</ele>
        <time>2019-05-25T10:17:05.000Z</time>
      </trkpt>
      <trkpt lat="45.54238" lon="4.83678">
        <ele>155.64</ele>
        <time>2019-05-25T10:17:10.000Z</time>
      </trkpt>
      <trkpt lat="45.54223" lon="4.83719">
        <ele>155.84</ele>
        <time>2019-05-25T10:17:15.000Z</time>
      </trkpt>
      <trkpt lat="45.54208" lon="4.83762">
        <ele>155.83</ele>
        <time>2019-05-25T10:17:20.000Z</time>
      </trkpt>
      <trkpt lat="45.54193" lon="4.83803">
        <ele>156.89</ele>
        <time>2019-05-25T10:17:25.000Z</time>
      </trkpt>
      <trkpt lat="45.5418" lon="4.83846">
        <ele>156.89</ele>
        <time>2019-05-25T10:17:30.000Z</time>
      </trkpt>
      <trkpt lat="45.54168" lon="4.83888">
        <ele>155.9</ele>
        <time>2019-05-25T10:17:35.000Z</time>
      </trkpt>
      <trkpt lat="45.54156" lon="4.83931">
        <ele>156.83</ele>
        <time>2019-05-25T10:17:40.000Z</time>
      </trkpt>
      <trkpt lat="45.54145" lon="4.83971">
        <ele>155.91</ele>
        <time>2019-05-25T10:17:45.000Z</time>
      </trkpt>
      <trkpt lat="45.54136" lon="4.84012">
        <ele>155.9</ele>
        <time>2019-05-25T10:17:50.000Z</time>
      </trkpt>
      <trkpt lat="45.54129" lon="4.84053">
        <ele>154.9</ele>
        <time>2019-05-25T10:17:55.000Z</time>
      </trkpt>
      <trkpt lat="45.54119" lon="4.84095">
        <ele>155.9</ele>
        <time>2019-05-25T10:18:00.000Z</time>
      </trkpt>
      <trkpt lat="45.54108" lon="4.84137">
        <ele>156.65</ele>
        <time>2019-05-25T10:18:05.000Z</time>
      </trkpt>
      <trkpt lat="45.541" lon="4.84181">
        <ele>156.9</ele>
        <time>2019-05-25T10:18:10.000Z</time>
      </trkpt>
      <trkpt lat="45.54092" lon="4.84227">
        <ele>156.9</ele>
        <time>2019-05-25T10:18:15.000Z</time>
      </trkpt>
      <trkpt lat="45.54082" lon="4.84269">
        <ele>156.15</ele>
        <time>2019-05-25T10:18:20.000Z</time>
      </trkpt>
      <trkpt lat="45.54073" lon="4.84314">
        <ele>156.41</ele>
        <time>2019-05-25T10:18:25.000Z</time>
      </trkpt>
      <trkpt lat="45.54063" lon="4.84357">
        <ele>158.64</ele>
        <time>2019-05-25T10:18:30.000Z</time>
      </trkpt>
      <trkpt lat="45.54054" lon="4.84403">
        <ele>157.22</ele>
        <time>2019-05-25T10:18:35.000Z</time>
      </trkpt>
      <trkpt lat="45.54048" lon="4.84444">
        <ele>157.14</ele>
        <time>2019-05-25T10:18:40.000Z</time>
      </trkpt>
      <trkpt lat="45.5404" lon="4.84489">
        <ele>155.98</ele>
        <time>2019-05-25T10:18:45.000Z</time>
      </trkpt>
      <trkpt lat="45.54035" lon="4.84533">
        <ele>155.92</ele>
        <time>2019-05-25T10:18:50.000Z</time>
      </trkpt>
      <trkpt lat="45.54029" lon="4.84574">
        <ele>157.83</ele>
        <time>2019-05-25T10:18:55.000Z</time>
      </trkpt>
      <trkpt lat="45.54024" lon="4.84616">
        <ele>159.05</ele>
        <time>2019-05-25T10:19:00.000Z</time>
      </trkpt>
      <trkpt lat="45.5402" lon="4.8466">
        <ele>158.1</ele>
        <time>2019-05-25T10:19:05.000Z</time>
      </trkpt>
      <trkpt lat="45.54015" lon="4.84702">
        <ele>157.91</ele>
        <time>2019-05-25T10:19:10.000Z</time>
      </trkpt>
      <trkpt lat="45.54009" lon="4.84746">
        <ele>156.16</ele>
        <time>2019-05-25T10:19:15.000Z</time>
      </trkpt>
      <trkpt lat="45.54004" lon="4.84787">
        <ele>153.98</ele>
        <time>2019-05-25T10:19:20.000Z</time>
      </trkpt>
      <trkpt lat="45.53999" lon="4.84831">
        <ele>154.92</ele>
        <time>2019-05-25T10:19:25.000Z</time>
      </trkpt>
      <trkpt lat="45.53994" lon="4.84873">
        <ele>155.9</ele>
        <time>2019-05-25T10:19:30.000Z</time>
      </trkpt>
      <trkpt lat="45.53991" lon="4.84919">
        <ele>155.67</ele>
        <time>2019-05-25T10:19:35.000Z</time>
      </trkpt>
      <trkpt lat="45.53986" lon="4.84964">
        <ele>156.67</ele>
        <time>2019-05-25T10:19:40.000Z</time>
      </trkpt>
      <trkpt lat="45.53981" lon="4.85008">
        <ele>156.17</ele>
        <time>2019-05-25T10:19:45.000Z</time>
      </trkpt>
      <trkpt lat="45.53976" lon="4.85052">
        <ele>156.91</ele>
        <time>2019-05-25T10:19:50.000Z</time>
      </trkpt>
      <trkpt lat="45.53971" lon="4.85095">
        <ele>158.67</ele>
        <time>2019-05-25T10:19:55.000Z</time>
      </trkpt>
      <trkpt lat="45.53967" lon="4.85137">
        <ele>158.92</ele>
        <time>2019-05-25T10:20:00.000Z</time>
      </trkpt>
      <trkpt lat="45.53962" lon="4.85179">
        <ele>156.13</ele>
        <time>2019-05-25T10:20:05.000Z</time>
      </trkpt>
      <trkpt lat="45.53958" lon="4.8522">
        <ele>155.93</ele>
        <time>2019-05-25T10:20:10.000Z</time>
      </trkpt>
      <trkpt lat="45.53955" lon="4.85259">
        <ele>155.93</ele>
        <time>2019-05-25T10:20:15.000Z</time>
      </trkpt>
      <trkpt lat="45.53949" lon="4.85301">
        <ele>156.68</ele>
        <time>2019-05-25T10:20:20.000Z</time>
      </trkpt>
      <trkpt lat="45.53943" lon="4.85341">
        <ele>155.94</ele>
        <time>2019-05-25T10:20:25.000Z</time>
      </trkpt>
      <trkpt lat="45.53936" lon="4.85365">
        <ele>155.93</ele>
        <time>2019-05-25T10:20:30.000Z</time>
      </trkpt>
      <trkpt lat="45.53941" lon="4.85379">
        <ele>155.93</ele>
        <time>2019-05-25T10:23:28.000Z</time>
      </trkpt>
      <trkpt lat="45.53938" lon="4.85403">
        <ele>155.01</ele>
        <time>2019-05-25T10:23:33.000Z</time>
      </trkpt>
      <trkpt lat="45.53932" lon="4.85418">
        <ele>155.93</ele>
        <time>2019-05-25T10:23:38.000Z</time>
      </trkpt>
      <trkpt lat="45.53937" lon="4.85406">
        <ele>156.72</ele>
        <time>2019-05-25T10:23:46.000Z</time>
      </trkpt>
      <trkpt lat="45.53936" lon="4.85389">
        <ele>155.19</ele>
        <time>2019-05-25T10:23:51.000Z</time>
      </trkpt>
      <trkpt lat="45.53926" lon="4.85385">
        <ele>155.68</ele>
        <time>2019-05-25T10:23:57.000Z</time>
      </trkpt>
      <trkpt lat="45.53917" lon="4.85385">
        <ele>152.93</ele>
        <time>2019-05-25T10:24:43.000Z</time>
      </trkpt>
      <trkpt lat="45.53926" lon="4.85384">
        <ele>158.92</ele>
        <time>2019-05-25T10:28:45.000Z</time>
      </trkpt>
      <trkpt lat="45.53917" lon="4.85383">
        <ele>154.12</ele>
        <time>2019-05-25T10:29:14.000Z</time>
      </trkpt>
      <trkpt lat="45.53914" lon="4.85381">
        <ele>144.24</ele>
        <time>2019-05-25T10:35:38.000Z</time>
      </trkpt>
      <trkpt lat="45.53711" lon="4.86177">
        <ele>152.87</ele>
        <time>2019-05-25T12:03:29.000Z</time>
      </trkpt>
      <trkpt lat="45.53701" lon="4.86202">
        <ele>151.96</ele>
        <time>2019-05-25T12:03:34.000Z</time>
      </trkpt>
      <trkpt lat="45.5369" lon="4.86227">
        <ele>152.94</ele>
        <time>2019-05-25T12:03:39.000Z</time>
      </trkpt>
      <trkpt lat="45.53681" lon="4.86254">
        <ele>152.76</ele>
        <time>2019-05-25T12:03:44.000Z</time>
      </trkpt>
      <trkpt lat="45.5367" lon="4.86283">
        <ele>153.01</ele>
        <time>2019-05-25T12:03:49.000Z</time>
      </trkpt>
      <trkpt lat="45.53658" lon="4.86314">
        <ele>152.01</ele>
        <time>2019-05-25T12:03:54.000Z</time>
      </trkpt>
      <trkpt lat="45.53646" lon="4.86344">
        <ele>151.89</ele>
        <time>2019-05-25T12:03:59.000Z</time>
      </trkpt>
      <trkpt lat="45.53636" lon="4.86378">
        <ele>151.95</ele>
        <time>2019-05-25T12:04:04.000Z</time>
      </trkpt>
      <trkpt lat="45.53627" lon="4.86415">
        <ele>151.76</ele>
        <time>2019-05-25T12:04:09.000Z</time>
      </trkpt>
      <trkpt lat="45.53617" lon="4.8645">
        <ele>152.01</ele>
        <time>2019-05-25T12:04:14.000Z</time>
      </trkpt>
      <trkpt lat="45.53606" lon="4.86486">
        <ele>153.2</ele>
        <time>2019-05-25T12:04:19.000Z</time>
      </trkpt>
      <trkpt lat="45.53597" lon="4.86522">
        <ele>151.07</ele>
        <time>2019-05-25T12:04:24.000Z</time>
      </trkpt>
      <trkpt lat="45.53584" lon="4.86557">
        <ele>150.2</ele>
        <time>2019-05-25T12:04:29.000Z</time>
      </trkpt>
      <trkpt lat="45.53569" lon="4.8659">
        <ele>149.7</ele>
        <time>2019-05-25T12:04:34.000Z</time>
      </trkpt>
      <trkpt lat="45.53554" lon="4.86622">
        <ele>150.7</ele>
        <time>2019-05-25T12:04:39.000Z</time>
      </trkpt>
      <trkpt lat="45.53537" lon="4.86654">
        <ele>150.69</ele>
        <time>2019-05-25T12:04:44.000Z</time>
      </trkpt>
      <trkpt lat="45.53524" lon="4.86687">
        <ele>149.02</ele>
        <time>2019-05-25T12:04:49.000Z</time>
      </trkpt>
      <trkpt lat="45.53509" lon="4.8672">
        <ele>148.94</ele>
        <time>2019-05-25T12:04:54.000Z</time>
      </trkpt>
      <trkpt lat="45.53494" lon="4.86754">
        <ele>149.96</ele>
        <time>2019-05-25T12:04:59.000Z</time>
      </trkpt>
      <trkpt lat="45.53478" lon="4.86784">
        <ele>150.95</ele>
        <time>2019-05-25T12:05:04.000Z</time>
      </trkpt>
      <trkpt lat="45.53461" lon="4.86813">
        <ele>152.88</ele>
        <time>2019-05-25T12:05:09.000Z</time>
      </trkpt>
      <trkpt lat="45.53442" lon="4.86841">
        <ele>152.96</ele>
        <time>2019-05-25T12:05:14.000Z</time>
      </trkpt>
      <trkpt lat="45.53424" lon="4.86868">
        <ele>153.72</ele>
        <time>2019-05-25T12:05:19.000Z</time>
      </trkpt>
      <trkpt lat="45.53403" lon="4.86896">
        <ele>152.97</ele>
        <time>2019-05-25T12:05:24.000Z</time>
      </trkpt>
      <trkpt lat="45.53382" lon="4.86926">
        <ele>150.99</ele>
        <time>2019-05-25T12:05:29.000Z</time>
      </trkpt>
      <trkpt lat="45.53363" lon="4.86956">
        <ele>151.9</ele>
        <time>2019-05-25T12:05:34.000Z</time>
      </trkpt>
      <trkpt lat="45.53343" lon="4.86983">
        <ele>152.71</ele>
        <time>2019-05-25T12:05:39.000Z</time>
      </trkpt>
      <trkpt lat="45.5332" lon="4.8701">
        <ele>152.96</ele>
        <time>2019-05-25T12:05:44.000Z</time>
      </trkpt>
      <trkpt lat="45.53297" lon="4.87027">
        <ele>152.9</ele>
        <time>2019-05-25T12:05:49.000Z</time>
      </trkpt>
      <trkpt lat="45.53275" lon="4.87048">
        <ele>152.95</ele>
        <time>2019-05-25T12:05:54.000Z</time>
      </trkpt>
      <trkpt lat="45.53253" lon="4.87068">
        <ele>153.7</ele>
        <time>2019-05-25T12:05:59.000Z</time>
      </trkpt>
      <trkpt lat="45.53229" lon="4.87087">
        <ele>152.96</ele>
        <time>2019-05-25T12:06:04.000Z</time>
      </trkpt>
      <trkpt lat="45.53205" lon="4.87108">
        <ele>153.71</ele>
        <time>2019-05-25T12:06:09.000Z</time>
      </trkpt>
      <trkpt lat="45.53182" lon="4.87127">
        <ele>153.96</ele>
        <time>2019-05-25T12:06:14.000Z</time>
      </trkpt>
      <trkpt lat="45.53159" lon="4.87146">
        <ele>153.02</ele>
        <time>2019-05-25T12:06:19.000Z</time>
      </trkpt>
      <trkpt lat="45.53132" lon="4.8716">
        <ele>153.96</ele>
        <time>2019-05-25T12:06:24.000Z</time>
      </trkpt>
      <trkpt lat="45.53107" lon="4.87168">
        <ele>152.79</ele>
        <time>2019-05-25T12:06:29.000Z</time>
      </trkpt>
      <trkpt lat="45.53083" lon="4.87167">
        <ele>151.96</ele>
        <time>2019-05-25T12:06:34.000Z</time>
      </trkpt>
      <trkpt lat="45.53059" lon="4.87168">
        <ele>152.71</ele>
        <time>2019-05-25T12:06:39.000Z</time>
      </trkpt>
      <trkpt lat="45.5303" lon="4.87165">
        <ele>152.78</ele>
        <time>2019-05-25T12:06:44.000Z</time>
      </trkpt>
      <trkpt lat="45.53003" lon="4.8716">
        <ele>151.08</ele>
        <time>2019-05-25T12:06:49.000Z</time>
      </trkpt>
      <trkpt lat="45.52974" lon="4.87151">
        <ele>151.96</ele>
        <time>2019-05-25T12:06:54.000Z</time>
      </trkpt>
      <trkpt lat="45.52948" lon="4.87145">
        <ele>153.94</ele>
        <time>2019-05-25T12:06:59.000Z</time>
      </trkpt>
      <trkpt lat="45.52922" lon="4.87139">
        <ele>155.71</ele>
        <time>2019-05-25T12:07:04.000Z</time>
      </trkpt>
      <trkpt lat="45.52897" lon="4.87134">
        <ele>156.89</ele>
        <time>2019-05-25T12:07:09.000Z</time>
      </trkpt>
      <trkpt lat="45.52873" lon="4.87126">
        <ele>157</ele>
        <time>2019-05-25T12:07:14.000Z</time>
      </trkpt>
      <trkpt lat="45.52851" lon="4.87112">
        <ele>152.25</ele>
        <time>2019-05-25T12:07:19.000Z</time>
      </trkpt>
      <trkpt lat="45.52825" lon="4.871">
        <ele>152.38</ele>
        <time>2019-05-25T12:07:24.000Z</time>
      </trkpt>
      <trkpt lat="45.52804" lon="4.8709">
        <ele>154.89</ele>
        <time>2019-05-25T12:07:29.000Z</time>
      </trkpt>
      <trkpt lat="45.52793" lon="4.87084">
        <ele>153.97</ele>
        <time>2019-05-25T12:07:34.000Z</time>
      </trkpt>
      <trkpt lat="45.52785" lon="4.87078">
        <ele>151.97</ele>
        <time>2019-05-25T12:08:26.000Z</time>
      </trkpt>
      <trkpt lat="45.52774" lon="4.87067">
        <ele>151.01</ele>
        <time>2019-05-25T12:08:31.000Z</time>
      </trkpt>
      <trkpt lat="45.52758" lon="4.87056">
        <ele>151.95</ele>
        <time>2019-05-25T12:08:36.000Z</time>
      </trkpt>
      <trkpt lat="45.52741" lon="4.87047">
        <ele>153.89</ele>
        <time>2019-05-25T12:08:41.000Z</time>
      </trkpt>
      <trkpt lat="45.52728" lon="4.87043">
        <ele>154.72</ele>
        <time>2019-05-25T12:08:46.000Z</time>
      </trkpt>
      <trkpt lat="45.52719" lon="4.87036">
        <ele>153.77</ele>
        <time>2019-05-25T12:08:52.000Z</time>
      </trkpt>
      <trkpt lat="45.52709" lon="4.87025">
        <ele>152</ele>
        <time>2019-05-25T12:08:57.000Z</time>
      </trkpt>
      <trkpt lat="45.52691" lon="4.87019">
        <ele>152.47</ele>
        <time>2019-05-25T12:09:02.000Z</time>
      </trkpt>
      <trkpt lat="45.52681" lon="4.87011">
        <ele>152.96</ele>
        <time>2019-05-25T12:10:27.000Z</time>
      </trkpt>
      <trkpt lat="45.52665" lon="4.86999">
        <ele>153</ele>
        <time>2019-05-25T12:10:32.000Z</time>
      </trkpt>
      <trkpt lat="45.52648" lon="4.86983">
        <ele>151.96</ele>
        <time>2019-05-25T12:10:37.000Z</time>
      </trkpt>
      <trkpt lat="45.52639" lon="4.86972">
        <ele>151.94</ele>
        <time>2019-05-25T12:10:42.000Z</time>
      </trkpt>
      <trkpt lat="45.52628" lon="4.8697">
        <ele>152.75</ele>
        <time>2019-05-25T12:11:19.000Z</time>
      </trkpt>
      <trkpt lat="45.52614" lon="4.86958">
        <ele>152.94</ele>
        <time>2019-05-25T12:11:24.000Z</time>
      </trkpt>
      <trkpt lat="45.52599" lon="4.86945">
        <ele>153.93</ele>
        <time>2019-05-25T12:11:29.000Z</time>
      </trkpt>
      <trkpt lat="45.52583" lon="4.86934">
        <ele>154.95</ele>
        <time>2019-05-25T12:11:34.000Z</time>
      </trkpt>
      <trkpt lat="45.52567" lon="4.86923">
        <ele>153.96</ele>
        <time>2019-05-25T12:11:39.000Z</time>
      </trkpt>
      <trkpt lat="45.52549" lon="4.86911">
        <ele>154.65</ele>
        <time>2019-05-25T12:11:44.000Z</time>
      </trkpt>
      <trkpt lat="45.52527" lon="4.86895">
        <ele>155.93</ele>
        <time>2019-05-25T12:11:49.000Z</time>
      </trkpt>
      <trkpt lat="45.5251" lon="4.86879">
        <ele>155.95</ele>
        <time>2019-05-25T12:11:54.000Z</time>
      </trkpt>
      <trkpt lat="45.52491" lon="4.86862">
        <ele>153.97</ele>
        <time>2019-05-25T12:11:59.000Z</time>
      </trkpt>
      <trkpt lat="45.52471" lon="4.86845">
        <ele>152.95</ele>
        <time>2019-05-25T12:12:04.000Z</time>
      </trkpt>
      <trkpt lat="45.5245" lon="4.86831">
        <ele>151.95</ele>
        <time>2019-05-25T12:12:09.000Z</time>
      </trkpt>
      <trkpt lat="45.5243" lon="4.86816">
        <ele>152.74</ele>
        <time>2019-05-25T12:12:14.000Z</time>
      </trkpt>
      <trkpt lat="45.5241" lon="4.868">
        <ele>153.94</ele>
        <time>2019-05-25T12:12:19.000Z</time>
      </trkpt>
      <trkpt lat="45.52391" lon="4.86776">
        <ele>153.94</ele>
        <time>2019-05-25T12:12:24.000Z</time>
      </trkpt>
      <trkpt lat="45.52374" lon="4.86751">
        <ele>153.13</ele>
        <time>2019-05-25T12:12:29.000Z</time>
      </trkpt>
      <trkpt lat="45.52359" lon="4.86732">
        <ele>152</ele>
        <time>2019-05-25T12:12:34.000Z</time>
      </trkpt>
      <trkpt lat="45.52347" lon="4.86718">
        <ele>151.94</ele>
        <time>2019-05-25T12:12:39.000Z</time>
      </trkpt>
      <trkpt lat="45.52336" lon="4.86705">
        <ele>150.94</ele>
        <time>2019-05-25T12:12:44.000Z</time>
      </trkpt>
      <trkpt lat="45.52324" lon="4.86689">
        <ele>150</ele>
        <time>2019-05-25T12:12:49.000Z</time>
      </trkpt>
      <trkpt lat="45.52312" lon="4.86673">
        <ele>149.94</ele>
        <time>2019-05-25T12:12:54.000Z</time>
      </trkpt>
      <trkpt lat="45.52298" lon="4.8665">
        <ele>148.77</ele>
        <time>2019-05-25T12:12:59.000Z</time>
      </trkpt>
      <trkpt lat="45.52284" lon="4.86625">
        <ele>149.88</ele>
        <time>2019-05-25T12:13:04.000Z</time>
      </trkpt>
      <trkpt lat="45.52267" lon="4.86605">
        <ele>149.69</ele>
        <time>2019-05-25T12:13:09.000Z</time>
      </trkpt>
      <trkpt lat="45.52257" lon="4.86592">
        <ele>148.7</ele>
        <time>2019-05-25T12:13:14.000Z</time>
      </trkpt>
      <trkpt lat="45.52243" lon="4.86579">
        <ele>149.93</ele>
        <time>2019-05-25T12:13:19.000Z</time>
      </trkpt>
      <trkpt lat="45.52225" lon="4.86557">
        <ele>148.94</ele>
        <time>2019-05-25T12:13:24.000Z</time>
      </trkpt>
      <trkpt lat="45.52205" lon="4.86534">
        <ele>148.93</ele>
        <time>2019-05-25T12:13:29.000Z</time>
      </trkpt>
      <trkpt lat="45.52183" lon="4.8651">
        <ele>149.73</ele>
        <time>2019-05-25T12:13:34.000Z</time>
      </trkpt>
      <trkpt lat="45.52161" lon="4.86485">
        <ele>149.14</ele>
        <time>2019-05-25T12:13:39.000Z</time>
      </trkpt>
      <trkpt lat="45.52141" lon="4.86461">
        <ele>149.74</ele>
        <time>2019-05-25T12:13:44.000Z</time>
      </trkpt>
      <trkpt lat="45.52119" lon="4.86437">
        <ele>149.93</ele>
        <time>2019-05-25T12:13:49.000Z</time>
      </trkpt>
      <trkpt lat="45.52097" lon="4.86411">
        <ele>148.93</ele>
        <time>2019-05-25T12:13:54.000Z</time>
      </trkpt>
      <trkpt lat="45.52073" lon="4.86386">
        <ele>149.01</ele>
        <time>2019-05-25T12:13:59.000Z</time>
      </trkpt>
      <trkpt lat="45.52051" lon="4.86361">
        <ele>149.62</ele>
        <time>2019-05-25T12:14:04.000Z</time>
      </trkpt>
      <trkpt lat="45.52027" lon="4.86336">
        <ele>148.01</ele>
        <time>2019-05-25T12:14:09.000Z</time>
      </trkpt>
      <trkpt lat="45.52005" lon="4.86309">
        <ele>148.11</ele>
        <time>2019-05-25T12:14:14.000Z</time>
      </trkpt>
      <trkpt lat="45.51982" lon="4.86284">
        <ele>146.93</ele>
        <time>2019-05-25T12:14:19.000Z</time>
      </trkpt>
      <trkpt lat="45.5196" lon="4.86258">
        <ele>147.86</ele>
        <time>2019-05-25T12:14:24.000Z</time>
      </trkpt>
      <trkpt lat="45.51938" lon="4.86231">
        <ele>146.99</ele>
        <time>2019-05-25T12:14:29.000Z</time>
      </trkpt>
      <trkpt lat="45.51915" lon="4.86205">
        <ele>146.93</ele>
        <time>2019-05-25T12:14:34.000Z</time>
      </trkpt>
      <trkpt lat="45.51892" lon="4.86179">
        <ele>147.92</ele>
        <time>2019-05-25T12:14:39.000Z</time>
      </trkpt>
      <trkpt lat="45.51869" lon="4.86155">
        <ele>147.92</ele>
        <time>2019-05-25T12:14:44.000Z</time>
      </trkpt>
      <trkpt lat="45.51844" lon="4.86131">
        <ele>148.91</ele>
        <time>2019-05-25T12:14:49.000Z</time>
      </trkpt>
      <trkpt lat="45.51818" lon="4.86106">
        <ele>149.86</ele>
        <time>2019-05-25T12:14:54.000Z</time>
      </trkpt>
      <trkpt lat="45.51794" lon="4.8608">
        <ele>149.92</ele>
        <time>2019-05-25T12:14:59.000Z</time>
      </trkpt>
      <trkpt lat="45.5177" lon="4.86056">
        <ele>150.9</ele>
        <time>2019-05-25T12:15:04.000Z</time>
      </trkpt>
      <trkpt lat="45.51749" lon="4.8603">
        <ele>150.92</ele>
        <time>2019-05-25T12:15:09.000Z</time>
      </trkpt>
      <trkpt lat="45.51727" lon="4.86004">
        <ele>151.91</ele>
        <time>2019-05-25T12:15:14.000Z</time>
      </trkpt>
      <trkpt lat="45.51702" lon="4.85974">
        <ele>150.99</ele>
        <time>2019-05-25T12:15:19.000Z</time>
      </trkpt>
      <trkpt lat="45.5168" lon="4.85946">
        <ele>150.12</ele>
        <time>2019-05-25T12:15:24.000Z</time>
      </trkpt>
      <trkpt lat="45.51659" lon="4.85917">
        <ele>149.92</ele>
        <time>2019-05-25T12:15:29.000Z</time>
      </trkpt>
      <trkpt lat="45.51635" lon="4.85889">
        <ele>148.9</ele>
        <time>2019-05-25T12:15:34.000Z</time>
      </trkpt>
      <trkpt lat="45.51613" lon="4.8586">
        <ele>148.16</ele>
        <time>2019-05-25T12:15:39.000Z</time>
      </trkpt>
      <trkpt lat="45.5159" lon="4.8583">
        <ele>148.85</ele>
        <time>2019-05-25T12:15:44.000Z</time>
      </trkpt>
      <trkpt lat="45.51566" lon="4.85803">
        <ele>149.89</ele>
        <time>2019-05-25T12:15:49.000Z</time>
      </trkpt>
      <trkpt lat="45.51544" lon="4.85774">
        <ele>148.91</ele>
        <time>2019-05-25T12:15:54.000Z</time>
      </trkpt>
      <trkpt lat="45.51521" lon="4.85745">
        <ele>148.91</ele>
        <time>2019-05-25T12:15:59.000Z</time>
      </trkpt>
      <trkpt lat="45.51499" lon="4.85718">
        <ele>148.91</ele>
        <time>2019-05-25T12:16:04.000Z</time>
      </trkpt>
      <trkpt lat="45.51477" lon="4.8569">
        <ele>148.15</ele>
        <time>2019-05-25T12:16:09.000Z</time>
      </trkpt>
      <trkpt lat="45.51456" lon="4.85661">
        <ele>148.9</ele>
        <time>2019-05-25T12:16:14.000Z</time>
      </trkpt>
      <trkpt lat="45.51436" lon="4.8563">
        <ele>149.09</ele>
        <time>2019-05-25T12:16:19.000Z</time>
      </trkpt>
      <trkpt lat="45.51417" lon="4.85597">
        <ele>149.71</ele>
        <time>2019-05-25T12:16:24.000Z</time>
      </trkpt>
      <trkpt lat="45.514" lon="4.85563">
        <ele>150.85</ele>
        <time>2019-05-25T12:16:29.000Z</time>
      </trkpt>
      <trkpt lat="45.51386" lon="4.8553">
        <ele>152.89</ele>
        <time>2019-05-25T12:16:34.000Z</time>
      </trkpt>
      <trkpt lat="45.5137" lon="4.85495">
        <ele>152.15</ele>
        <time>2019-05-25T12:16:39.000Z</time>
      </trkpt>
      <trkpt lat="45.51357" lon="4.8546">
        <ele>153.83</ele>
        <time>2019-05-25T12:16:44.000Z</time>
      </trkpt>
      <trkpt lat="45.51348" lon="4.85433">
        <ele>154.83</ele>
        <time>2019-05-25T12:16:49.000Z</time>
      </trkpt>
      <trkpt lat="45.51334" lon="4.85403">
        <ele>153.91</ele>
        <time>2019-05-25T12:16:54.000Z</time>
      </trkpt>
      <trkpt lat="45.51317" lon="4.85371">
        <ele>154.89</ele>
        <time>2019-05-25T12:16:59.000Z</time>
      </trkpt>
      <trkpt lat="45.51301" lon="4.8534">
        <ele>156.88</ele>
        <time>2019-05-25T12:17:04.000Z</time>
      </trkpt>
      <trkpt lat="45.51277" lon="4.85322">
        <ele>155.9</ele>
        <time>2019-05-25T12:17:09.000Z</time>
      </trkpt>
      <trkpt lat="45.51256" lon="4.85335">
        <ele>155.83</ele>
        <time>2019-05-25T12:17:14.000Z</time>
      </trkpt>
      <trkpt lat="45.51238" lon="4.85342">
        <ele>153.1</ele>
        <time>2019-05-25T12:17:19.000Z</time>
      </trkpt>
      <trkpt lat="45.51226" lon="4.85325">
        <ele>151.39</ele>
        <time>2019-05-25T12:17:24.000Z</time>
      </trkpt>
      <trkpt lat="45.5121" lon="4.85308">
        <ele>151.09</ele>
        <time>2019-05-25T12:17:29.000Z</time>
      </trkpt>
      <trkpt lat="45.51192" lon="4.85284">
        <ele>152.87</ele>
        <time>2019-05-25T12:17:34.000Z</time>
      </trkpt>
      <trkpt lat="45.51171" lon="4.85261">
        <ele>154.64</ele>
        <time>2019-05-25T12:17:39.000Z</time>
      </trkpt>
      <trkpt lat="45.51151" lon="4.85234">
        <ele>153.9</ele>
        <time>2019-05-25T12:17:44.000Z</time>
      </trkpt>
      <trkpt lat="45.51129" lon="4.85205">
        <ele>154.87</ele>
        <time>2019-05-25T12:17:49.000Z</time>
      </trkpt>
      <trkpt lat="45.51108" lon="4.85179">
        <ele>154.88</ele>
        <time>2019-05-25T12:17:54.000Z</time>
      </trkpt>
      <trkpt lat="45.51087" lon="4.85151">
        <ele>154.87</ele>
        <time>2019-05-25T12:17:59.000Z</time>
      </trkpt>
      <trkpt lat="45.51066" lon="4.85123">
        <ele>153.89</ele>
        <time>2019-05-25T12:18:04.000Z</time>
      </trkpt>
      <trkpt lat="45.51045" lon="4.85095">
        <ele>154.82</ele>
        <time>2019-05-25T12:18:09.000Z</time>
      </trkpt>
      <trkpt lat="45.51024" lon="4.85067">
        <ele>153.95</ele>
        <time>2019-05-25T12:18:14.000Z</time>
      </trkpt>
      <trkpt lat="45.51" lon="4.85038">
        <ele>154.87</ele>
        <time>2019-05-25T12:18:19.000Z</time>
      </trkpt>
      <trkpt lat="45.50978" lon="4.85008">
        <ele>154.88</ele>
        <time>2019-05-25T12:18:24.000Z</time>
      </trkpt>
      <trkpt lat="45.50957" lon="4.84979">
        <ele>154.88</ele>
        <time>2019-05-25T12:18:29.000Z</time>
      </trkpt>
      <trkpt lat="45.50934" lon="4.84951">
        <ele>154.87</ele>
        <time>2019-05-25T12:18:34.000Z</time>
      </trkpt>
      <trkpt lat="45.50913" lon="4.84922">
        <ele>153.88</ele>
        <time>2019-05-25T12:18:39.000Z</time>
      </trkpt>
      <trkpt lat="45.5089" lon="4.84892">
        <ele>152.89</ele>
        <time>2019-05-25T12:18:44.000Z</time>
      </trkpt>
      <trkpt lat="45.50867" lon="4.84861">
        <ele>153.86</ele>
        <time>2019-05-25T12:18:49.000Z</time>
      </trkpt>
      <trkpt lat="45.50846" lon="4.84831">
        <ele>153.87</ele>
        <time>2019-05-25T12:18:54.000Z</time>
      </trkpt>
      <trkpt lat="45.50824" lon="4.848">
        <ele>154.62</ele>
        <time>2019-05-25T12:18:59.000Z</time>
      </trkpt>
      <trkpt lat="45.50802" lon="4.8477">
        <ele>154.87</ele>
        <time>2019-05-25T12:19:04.000Z</time>
      </trkpt>
      <trkpt lat="45.50781" lon="4.84741">
        <ele>154.87</ele>
        <time>2019-05-25T12:19:09.000Z</time>
      </trkpt>
      <trkpt lat="45.50759" lon="4.84711">
        <ele>153.87</ele>
        <time>2019-05-25T12:19:14.000Z</time>
      </trkpt>
      <trkpt lat="45.50738" lon="4.84681">
        <ele>153.93</ele>
        <time>2019-05-25T12:19:19.000Z</time>
      </trkpt>
      <trkpt lat="45.50718" lon="4.84654">
        <ele>153.88</ele>
        <time>2019-05-25T12:19:24.000Z</time>
      </trkpt>
      <trkpt lat="45.50697" lon="4.84625">
        <ele>152.88</ele>
        <time>2019-05-25T12:19:29.000Z</time>
      </trkpt>
      <trkpt lat="45.50679" lon="4.84596">
        <ele>152.87</ele>
        <time>2019-05-25T12:19:34.000Z</time>
      </trkpt>
      <trkpt lat="45.50657" lon="4.84567">
        <ele>152.87</ele>
        <time>2019-05-25T12:19:39.000Z</time>
      </trkpt>
      <trkpt lat="45.50635" lon="4.84539">
        <ele>153.61</ele>
        <time>2019-05-25T12:19:44.000Z</time>
      </trkpt>
      <trkpt lat="45.50614" lon="4.84512">
        <ele>153.86</ele>
        <time>2019-05-25T12:19:49.000Z</time>
      </trkpt>
      <trkpt lat="45.50592" lon="4.84485">
        <ele>152.93</ele>
        <time>2019-05-25T12:19:54.000Z</time>
      </trkpt>
      <trkpt lat="45.50569" lon="4.84457">
        <ele>153.86</ele>
        <time>2019-05-25T12:19:59.000Z</time>
      </trkpt>
      <trkpt lat="45.5055" lon="4.84429">
        <ele>153.86</ele>
        <time>2019-05-25T12:20:04.000Z</time>
      </trkpt>
      <trkpt lat="45.50528" lon="4.84402">
        <ele>154.86</ele>
        <time>2019-05-25T12:20:09.000Z</time>
      </trkpt>
      <trkpt lat="45.50505" lon="4.84373">
        <ele>155.61</ele>
        <time>2019-05-25T12:20:14.000Z</time>
      </trkpt>
      <trkpt lat="45.50484" lon="4.84342">
        <ele>155.86</ele>
        <time>2019-05-25T12:20:19.000Z</time>
      </trkpt>
      <trkpt lat="45.50461" lon="4.84315">
        <ele>155.81</ele>
        <time>2019-05-25T12:20:24.000Z</time>
      </trkpt>
      <trkpt lat="45.50437" lon="4.84289">
        <ele>154.86</ele>
        <time>2019-05-25T12:20:29.000Z</time>
      </trkpt>
      <trkpt lat="45.50413" lon="4.84261">
        <ele>153.06</ele>
        <time>2019-05-25T12:20:34.000Z</time>
      </trkpt>
      <trkpt lat="45.50389" lon="4.84234">
        <ele>152.06</ele>
        <time>2019-05-25T12:20:39.000Z</time>
      </trkpt>
      <trkpt lat="45.50365" lon="4.84205">
        <ele>152.84</ele>
        <time>2019-05-25T12:20:44.000Z</time>
      </trkpt>
      <trkpt lat="45.5034" lon="4.84176">
        <ele>153.8</ele>
        <time>2019-05-25T12:20:49.000Z</time>
      </trkpt>
      <trkpt lat="45.50316" lon="4.84147">
        <ele>153.85</ele>
        <time>2019-05-25T12:20:54.000Z</time>
      </trkpt>
      <trkpt lat="45.50293" lon="4.84119">
        <ele>154.08</ele>
        <time>2019-05-25T12:20:59.000Z</time>
      </trkpt>
      <trkpt lat="45.50271" lon="4.84093">
        <ele>152.85</ele>
        <time>2019-05-25T12:21:04.000Z</time>
      </trkpt>
      <trkpt lat="45.50249" lon="4.84063">
        <ele>153.8</ele>
        <time>2019-05-25T12:21:09.000Z</time>
      </trkpt>
      <trkpt lat="45.50228" lon="4.8403">
        <ele>154.78</ele>
        <time>2019-05-25T12:21:14.000Z</time>
      </trkpt>
      <trkpt lat="45.50206" lon="4.83995">
        <ele>153.85</ele>
        <time>2019-05-25T12:21:19.000Z</time>
      </trkpt>
      <trkpt lat="45.50183" lon="4.83956">
        <ele>153.84</ele>
        <time>2019-05-25T12:21:24.000Z</time>
      </trkpt>
      <trkpt lat="45.50162" lon="4.83916">
        <ele>153.84</ele>
        <time>2019-05-25T12:21:29.000Z</time>
      </trkpt>
      <trkpt lat="45.50151" lon="4.83886">
        <ele>153.15</ele>
        <time>2019-05-25T12:21:34.000Z</time>
      </trkpt>
      <trkpt lat="45.50157" lon="4.83864">
        <ele>154.03</ele>
        <time>2019-05-25T12:21:39.000Z</time>
      </trkpt>
      <trkpt lat="45.50166" lon="4.83861">
        <ele>149.85</ele>
        <time>2019-05-25T12:21:59.000Z</time>
      </trkpt>
      <trkpt lat="45.50184" lon="4.83851">
        <ele>152.31</ele>
        <time>2019-05-25T12:22:04.000Z</time>
      </trkpt>
      <trkpt lat="45.50193" lon="4.83827">
        <ele>154.54</ele>
        <time>2019-05-25T12:22:09.000Z</time>
      </trkpt>
      <trkpt lat="45.50182" lon="4.83795">
        <ele>153.65</ele>
        <time>2019-05-25T12:22:14.000Z</time>
      </trkpt>
      <trkpt lat="45.50166" lon="4.83765">
        <ele>152.84</ele>
        <time>2019-05-25T12:22:19.000Z</time>
      </trkpt>
      <trkpt lat="45.5015" lon="4.83724">
        <ele>149.04</ele>
        <time>2019-05-25T12:22:24.000Z</time>
      </trkpt>
      <trkpt lat="45.50137" lon="4.8368">
        <ele>149.09</ele>
        <time>2019-05-25T12:22:29.000Z</time>
      </trkpt>
      <trkpt lat="45.50125" lon="4.83637">
        <ele>148.84</ele>
        <time>2019-05-25T12:22:34.000Z</time>
      </trkpt>
      <trkpt lat="45.50114" lon="4.83593">
        <ele>150.81</ele>
        <time>2019-05-25T12:22:39.000Z</time>
      </trkpt>
      <trkpt lat="45.50102" lon="4.83549">
        <ele>150.08</ele>
        <time>2019-05-25T12:22:44.000Z</time>
      </trkpt>
      <trkpt lat="45.5009" lon="4.83509">
        <ele>148.84</ele>
        <time>2019-05-25T12:22:49.000Z</time>
      </trkpt>
      <trkpt lat="45.50079" lon="4.83465">
        <ele>147.89</ele>
        <time>2019-05-25T12:22:54.000Z</time>
      </trkpt>
      <trkpt lat="45.50079" lon="4.83435">
        <ele>148.72</ele>
        <time>2019-05-25T12:22:59.000Z</time>
      </trkpt>
      <trkpt lat="45.50077" lon="4.8342">
        <ele>146.9</ele>
        <time>2019-05-25T12:23:04.000Z</time>
      </trkpt>
      <trkpt lat="45.50068" lon="4.834">
        <ele>147.53</ele>
        <time>2019-05-25T12:23:09.000Z</time>
      </trkpt>
      <trkpt lat="45.50059" lon="4.83368">
        <ele>149.81</ele>
        <time>2019-05-25T12:23:14.000Z</time>
      </trkpt>
      <trkpt lat="45.50048" lon="4.83331">
        <ele>148.89</ele>
        <time>2019-05-25T12:23:19.000Z</time>
      </trkpt>
      <trkpt lat="45.50038" lon="4.83292">
        <ele>149</ele>
        <time>2019-05-25T12:23:24.000Z</time>
      </trkpt>
      <trkpt lat="45.50029" lon="4.83253">
        <ele>149.06</ele>
        <time>2019-05-25T12:23:29.000Z</time>
      </trkpt>
      <trkpt lat="45.50016" lon="4.83215">
        <ele>150.75</ele>
        <time>2019-05-25T12:23:34.000Z</time>
      </trkpt>
      <trkpt lat="45.50002" lon="4.83177">
        <ele>148.88</ele>
        <time>2019-05-25T12:23:39.000Z</time>
      </trkpt>
      <trkpt lat="45.49986" lon="4.83137">
        <ele>149.01</ele>
        <time>2019-05-25T12:23:44.000Z</time>
      </trkpt>
      <trkpt lat="45.4997" lon="4.83098">
        <ele>148.81</ele>
        <time>2019-05-25T12:23:49.000Z</time>
      </trkpt>
      <trkpt lat="45.49951" lon="4.83061">
        <ele>150.55</ele>
        <time>2019-05-25T12:23:54.000Z</time>
      </trkpt>
      <trkpt lat="45.49932" lon="4.83029">
        <ele>150.82</ele>
        <time>2019-05-25T12:23:59.000Z</time>
      </trkpt>
      <trkpt lat="45.49912" lon="4.82996">
        <ele>148.83</ele>
        <time>2019-05-25T12:24:04.000Z</time>
      </trkpt>
      <trkpt lat="45.49892" lon="4.82962">
        <ele>148.82</ele>
        <time>2019-05-25T12:24:09.000Z</time>
      </trkpt>
      <trkpt lat="45.49872" lon="4.82928">
        <ele>149.56</ele>
        <time>2019-05-25T12:24:14.000Z</time>
      </trkpt>
      <trkpt lat="45.49851" lon="4.82893">
        <ele>148.81</ele>
        <time>2019-05-25T12:24:19.000Z</time>
      </trkpt>
      <trkpt lat="45.4983" lon="4.82858">
        <ele>149.81</ele>
        <time>2019-05-25T12:24:24.000Z</time>
      </trkpt>
      <trkpt lat="45.4981" lon="4.82827">
        <ele>149.81</ele>
        <time>2019-05-25T12:24:29.000Z</time>
      </trkpt>
      <trkpt lat="45.49791" lon="4.82795">
        <ele>148.77</ele>
        <time>2019-05-25T12:24:34.000Z</time>
      </trkpt>
      <trkpt lat="45.49773" lon="4.82764">
        <ele>148.81</ele>
        <time>2019-05-25T12:24:39.000Z</time>
      </trkpt>
      <trkpt lat="45.49754" lon="4.82733">
        <ele>147.81</ele>
        <time>2019-05-25T12:24:44.000Z</time>
      </trkpt>
      <trkpt lat="45.49735" lon="4.82702">
        <ele>147.81</ele>
        <time>2019-05-25T12:24:49.000Z</time>
      </trkpt>
      <trkpt lat="45.49716" lon="4.82669">
        <ele>147.81</ele>
        <time>2019-05-25T12:24:54.000Z</time>
      </trkpt>
      <trkpt lat="45.49697" lon="4.82637">
        <ele>148.37</ele>
        <time>2019-05-25T12:24:59.000Z</time>
      </trkpt>
      <trkpt lat="45.49678" lon="4.82607">
        <ele>148.61</ele>
        <time>2019-05-25T12:25:04.000Z</time>
      </trkpt>
      <trkpt lat="45.4967" lon="4.82585">
        <ele>148.8</ele>
        <time>2019-05-25T12:25:09.000Z</time>
      </trkpt>
      <trkpt lat="45.49685" lon="4.82569">
        <ele>149.6</ele>
        <time>2019-05-25T12:25:14.000Z</time>
      </trkpt>
      <trkpt lat="45.497" lon="4.82549">
        <ele>151.72</ele>
        <time>2019-05-25T12:25:19.000Z</time>
      </trkpt>
      <trkpt lat="45.49718" lon="4.82531">
        <ele>151.8</ele>
        <time>2019-05-25T12:25:24.000Z</time>
      </trkpt>
      <trkpt lat="45.49737" lon="4.82509">
        <ele>154.54</ele>
        <time>2019-05-25T12:25:29.000Z</time>
      </trkpt>
      <trkpt lat="45.49754" lon="4.82487">
        <ele>155.84</ele>
        <time>2019-05-25T12:25:34.000Z</time>
      </trkpt>
      <trkpt lat="45.49766" lon="4.82475">
        <ele>157.06</ele>
        <time>2019-05-25T12:25:39.000Z</time>
      </trkpt>
      <trkpt lat="45.49763" lon="4.82455">
        <ele>154.74</ele>
        <time>2019-05-25T12:25:44.000Z</time>
      </trkpt>
      <trkpt lat="45.49749" lon="4.82432">
        <ele>153.8</ele>
        <time>2019-05-25T12:25:49.000Z</time>
      </trkpt>
      <trkpt lat="45.49734" lon="4.82405">
        <ele>151.07</ele>
        <time>2019-05-25T12:25:54.000Z</time>
      </trkpt>
      <trkpt lat="45.49718" lon="4.82375">
        <ele>150.86</ele>
        <time>2019-05-25T12:25:59.000Z</time>
      </trkpt>
      <trkpt lat="45.49703" lon="4.82344">
        <ele>150.8</ele>
        <time>2019-05-25T12:26:04.000Z</time>
      </trkpt>
      <trkpt lat="45.49686" lon="4.82315">
        <ele>151.8</ele>
        <time>2019-05-25T12:26:09.000Z</time>
      </trkpt>
      <trkpt lat="45.49663" lon="4.82283">
        <ele>150.86</ele>
        <time>2019-05-25T12:26:14.000Z</time>
      </trkpt>
      <trkpt lat="45.49641" lon="4.82249">
        <ele>149.55</ele>
        <time>2019-05-25T12:26:19.000Z</time>
      </trkpt>
      <trkpt lat="45.49622" lon="4.8222">
        <ele>148.56</ele>
        <time>2019-05-25T12:26:24.000Z</time>
      </trkpt>
      <trkpt lat="45.496" lon="4.82188">
        <ele>149.73</ele>
        <time>2019-05-25T12:26:29.000Z</time>
      </trkpt>
      <trkpt lat="45.49577" lon="4.82158">
        <ele>148.04</ele>
        <time>2019-05-25T12:26:34.000Z</time>
      </trkpt>
      <trkpt lat="45.49552" lon="4.82129">
        <ele>146.81</ele>
        <time>2019-05-25T12:26:39.000Z</time>
      </trkpt>
      <trkpt lat="45.49529" lon="4.82103">
        <ele>148.54</ele>
        <time>2019-05-25T12:26:44.000Z</time>
      </trkpt>
      <trkpt lat="45.49505" lon="4.82076">
        <ele>148.6</ele>
        <time>2019-05-25T12:26:49.000Z</time>
      </trkpt>
      <trkpt lat="45.49479" lon="4.82051">
        <ele>147.79</ele>
        <time>2019-05-25T12:26:54.000Z</time>
      </trkpt>
      <trkpt lat="45.49453" lon="4.82022">
        <ele>148.02</ele>
        <time>2019-05-25T12:26:59.000Z</time>
      </trkpt>
      <trkpt lat="45.49429" lon="4.81992">
        <ele>147.02</ele>
        <time>2019-05-25T12:27:04.000Z</time>
      </trkpt>
      <trkpt lat="45.49401" lon="4.81963">
        <ele>144.1</ele>
        <time>2019-05-25T12:27:09.000Z</time>
      </trkpt>
      <trkpt lat="45.49374" lon="4.8194">
        <ele>145.72</ele>
        <time>2019-05-25T12:27:14.000Z</time>
      </trkpt>
      <trkpt lat="45.49346" lon="4.81915">
        <ele>147.52</ele>
        <time>2019-05-25T12:27:19.000Z</time>
      </trkpt>
      <trkpt lat="45.49329" lon="4.819">
        <ele>146.79</ele>
        <time>2019-05-25T12:27:24.000Z</time>
      </trkpt>
      <trkpt lat="45.49314" lon="4.81919">
        <ele>147.84</ele>
        <time>2019-05-25T12:27:29.000Z</time>
      </trkpt>
      <trkpt lat="45.49299" lon="4.8194">
        <ele>146.84</ele>
        <time>2019-05-25T12:27:34.000Z</time>
      </trkpt>
      <trkpt lat="45.49281" lon="4.81947">
        <ele>145.24</ele>
        <time>2019-05-25T12:27:39.000Z</time>
      </trkpt>
      <trkpt lat="45.49262" lon="4.81925">
        <ele>146.53</ele>
        <time>2019-05-25T12:27:44.000Z</time>
      </trkpt>
      <trkpt lat="45.49243" lon="4.81908">
        <ele>145.09</ele>
        <time>2019-05-25T12:27:49.000Z</time>
      </trkpt>
      <trkpt lat="45.49222" lon="4.81888">
        <ele>145.92</ele>
        <time>2019-05-25T12:27:54.000Z</time>
      </trkpt>
      <trkpt lat="45.49201" lon="4.81867">
        <ele>146.76</ele>
        <time>2019-05-25T12:27:59.000Z</time>
      </trkpt>
      <trkpt lat="45.49178" lon="4.81849">
        <ele>145.77</ele>
        <time>2019-05-25T12:28:04.000Z</time>
      </trkpt>
      <trkpt lat="45.49153" lon="4.81837">
        <ele>145.57</ele>
        <time>2019-05-25T12:28:09.000Z</time>
      </trkpt>
      <trkpt lat="45.49128" lon="4.81826">
        <ele>146.51</ele>
        <time>2019-05-25T12:28:14.000Z</time>
      </trkpt>
      <trkpt lat="45.49103" lon="4.81812">
        <ele>146.78</ele>
        <time>2019-05-25T12:28:19.000Z</time>
      </trkpt>
      <trkpt lat="45.49076" lon="4.81795">
        <ele>146.53</ele>
        <time>2019-05-25T12:28:24.000Z</time>
      </trkpt>
      <trkpt lat="45.49051" lon="4.81774">
        <ele>147.94</ele>
        <time>2019-05-25T12:28:29.000Z</time>
      </trkpt>
      <trkpt lat="45.49028" lon="4.81751">
        <ele>147.53</ele>
        <time>2019-05-25T12:28:34.000Z</time>
      </trkpt>
      <trkpt lat="45.49006" lon="4.81732">
        <ele>148.52</ele>
        <time>2019-05-25T12:28:39.000Z</time>
      </trkpt>
      <trkpt lat="45.48985" lon="4.81716">
        <ele>148.71</ele>
        <time>2019-05-25T12:28:44.000Z</time>
      </trkpt>
      <trkpt lat="45.48967" lon="4.81698">
        <ele>147.02</ele>
        <time>2019-05-25T12:28:49.000Z</time>
      </trkpt>
      <trkpt lat="45.48948" lon="4.81681">
        <ele>147.82</ele>
        <time>2019-05-25T12:28:54.000Z</time>
      </trkpt>
      <trkpt lat="45.48927" lon="4.81659">
        <ele>146.6</ele>
        <time>2019-05-25T12:28:59.000Z</time>
      </trkpt>
      <trkpt lat="45.48912" lon="4.81645">
        <ele>146.71</ele>
        <time>2019-05-25T12:29:04.000Z</time>
      </trkpt>
      <trkpt lat="45.48904" lon="4.81637">
        <ele>149.06</ele>
        <time>2019-05-25T12:29:25.000Z</time>
      </trkpt>
      <trkpt lat="45.4889" lon="4.81626">
        <ele>146.79</ele>
        <time>2019-05-25T12:29:30.000Z</time>
      </trkpt>
      <trkpt lat="45.48873" lon="4.8161">
        <ele>146.39</ele>
        <time>2019-05-25T12:29:35.000Z</time>
      </trkpt>
      <trkpt lat="45.48854" lon="4.81592">
        <ele>146.58</ele>
        <time>2019-05-25T12:29:40.000Z</time>
      </trkpt>
      <trkpt lat="45.48832" lon="4.81569">
        <ele>146.01</ele>
        <time>2019-05-25T12:29:45.000Z</time>
      </trkpt>
      <trkpt lat="45.4881" lon="4.81549">
        <ele>145.76</ele>
        <time>2019-05-25T12:29:50.000Z</time>
      </trkpt>
      <trkpt lat="45.48788" lon="4.81529">
        <ele>146.01</ele>
        <time>2019-05-25T12:29:55.000Z</time>
      </trkpt>
      <trkpt lat="45.48767" lon="4.81511">
        <ele>146.76</ele>
        <time>2019-05-25T12:30:00.000Z</time>
      </trkpt>
      <trkpt lat="45.4874" lon="4.81499">
        <ele>147.01</ele>
        <time>2019-05-25T12:30:05.000Z</time>
      </trkpt>
      <trkpt lat="45.48713" lon="4.81479">
        <ele>145.03</ele>
        <time>2019-05-25T12:30:10.000Z</time>
      </trkpt>
      <trkpt lat="45.48692" lon="4.81445">
        <ele>143.76</ele>
        <time>2019-05-25T12:30:15.000Z</time>
      </trkpt>
      <trkpt lat="45.48674" lon="4.81412">
        <ele>144.01</ele>
        <time>2019-05-25T12:30:20.000Z</time>
      </trkpt>
      <trkpt lat="45.48657" lon="4.81381">
        <ele>145.74</ele>
        <time>2019-05-25T12:30:25.000Z</time>
      </trkpt>
      <trkpt lat="45.4864" lon="4.81348">
        <ele>147.49</ele>
        <time>2019-05-25T12:30:30.000Z</time>
      </trkpt>
      <trkpt lat="45.48624" lon="4.81311">
        <ele>147.8</ele>
        <time>2019-05-25T12:30:35.000Z</time>
      </trkpt>
      <trkpt lat="45.48608" lon="4.81278">
        <ele>148.7</ele>
        <time>2019-05-25T12:30:40.000Z</time>
      </trkpt>
      <trkpt lat="45.48595" lon="4.81254">
        <ele>151.46</ele>
        <time>2019-05-25T12:30:45.000Z</time>
      </trkpt>
      <trkpt lat="45.48585" lon="4.81249">
        <ele>148.94</ele>
        <time>2019-05-25T12:31:16.000Z</time>
      </trkpt>
      <trkpt lat="45.48594" lon="4.81238">
        <ele>148.75</ele>
        <time>2019-05-25T12:31:22.000Z</time>
      </trkpt>
      <trkpt lat="45.48615" lon="4.81222">
        <ele>148.74</ele>
        <time>2019-05-25T12:31:27.000Z</time>
      </trkpt>
      <trkpt lat="45.48636" lon="4.81202">
        <ele>150.5</ele>
        <time>2019-05-25T12:31:32.000Z</time>
      </trkpt>
      <trkpt lat="45.48657" lon="4.81183">
        <ele>151.5</ele>
        <time>2019-05-25T12:31:37.000Z</time>
      </trkpt>
      <trkpt lat="45.48679" lon="4.81162">
        <ele>150.77</ele>
        <time>2019-05-25T12:31:42.000Z</time>
      </trkpt>
      <trkpt lat="45.48691" lon="4.81151">
        <ele>150.83</ele>
        <time>2019-05-25T12:31:47.000Z</time>
      </trkpt>
      <trkpt lat="45.48686" lon="4.81138">
        <ele>148.07</ele>
        <time>2019-05-25T12:31:54.000Z</time>
      </trkpt>
      <trkpt lat="45.48673" lon="4.81112">
        <ele>149.69</ele>
        <time>2019-05-25T12:31:59.000Z</time>
      </trkpt>
      <trkpt lat="45.48657" lon="4.81081">
        <ele>148.81</ele>
        <time>2019-05-25T12:32:04.000Z</time>
      </trkpt>
      <trkpt lat="45.48641" lon="4.81048">
        <ele>147.81</ele>
        <time>2019-05-25T12:32:09.000Z</time>
      </trkpt>
      <trkpt lat="45.48635" lon="4.81012">
        <ele>146.01</ele>
        <time>2019-05-25T12:32:14.000Z</time>
      </trkpt>
      <trkpt lat="45.48636" lon="4.80978">
        <ele>148.68</ele>
        <time>2019-05-25T12:32:19.000Z</time>
      </trkpt>
      <trkpt lat="45.48639" lon="4.80945">
        <ele>150.67</ele>
        <time>2019-05-25T12:32:24.000Z</time>
      </trkpt>
      <trkpt lat="45.48643" lon="4.80912">
        <ele>151.41</ele>
        <time>2019-05-25T12:32:29.000Z</time>
      </trkpt>
      <trkpt lat="45.48646" lon="4.80877">
        <ele>151.68</ele>
        <time>2019-05-25T12:32:34.000Z</time>
      </trkpt>
      <trkpt lat="45.48649" lon="4.80844">
        <ele>151.69</ele>
        <time>2019-05-25T12:32:39.000Z</time>
      </trkpt>
      <trkpt lat="45.48653" lon="4.80808">
        <ele>151.56</ele>
        <time>2019-05-25T12:32:44.000Z</time>
      </trkpt>
      <trkpt lat="45.48657" lon="4.8077">
        <ele>154.74</ele>
        <time>2019-05-25T12:32:49.000Z</time>
      </trkpt>
      <trkpt lat="45.48656" lon="4.80731">
        <ele>153.8</ele>
        <time>2019-05-25T12:32:54.000Z</time>
      </trkpt>
      <trkpt lat="45.48648" lon="4.80696">
        <ele>150.8</ele>
        <time>2019-05-25T12:32:59.000Z</time>
      </trkpt>
      <trkpt lat="45.48641" lon="4.80658">
        <ele>150.73</ele>
        <time>2019-05-25T12:33:04.000Z</time>
      </trkpt>
      <trkpt lat="45.48631" lon="4.8062">
        <ele>149.73</ele>
        <time>2019-05-25T12:33:09.000Z</time>
      </trkpt>
      <trkpt lat="45.48618" lon="4.80582">
        <ele>150.53</ele>
        <time>2019-05-25T12:33:14.000Z</time>
      </trkpt>
      <trkpt lat="45.48604" lon="4.80541">
        <ele>150.68</ele>
        <time>2019-05-25T12:33:19.000Z</time>
      </trkpt>
      <trkpt lat="45.4859" lon="4.80502">
        <ele>148.99</ele>
        <time>2019-05-25T12:33:24.000Z</time>
      </trkpt>
      <trkpt lat="45.48576" lon="4.80463">
        <ele>148.74</ele>
        <time>2019-05-25T12:33:29.000Z</time>
      </trkpt>
      <trkpt lat="45.48561" lon="4.80426">
        <ele>147.8</ele>
        <time>2019-05-25T12:33:34.000Z</time>
      </trkpt>
      <trkpt lat="45.48547" lon="4.80391">
        <ele>148.48</ele>
        <time>2019-05-25T12:33:39.000Z</time>
      </trkpt>
      <trkpt lat="45.48533" lon="4.80357">
        <ele>147.73</ele>
        <time>2019-05-25T12:33:44.000Z</time>
      </trkpt>
      <trkpt lat="45.48521" lon="4.80326">
        <ele>147.72</ele>
        <time>2019-05-25T12:33:49.000Z</time>
      </trkpt>
      <trkpt lat="45.48511" lon="4.80292">
        <ele>148.48</ele>
        <time>2019-05-25T12:33:54.000Z</time>
      </trkpt>
      <trkpt lat="45.485" lon="4.80258">
        <ele>149.66</ele>
        <time>2019-05-25T12:33:59.000Z</time>
      </trkpt>
      <trkpt lat="45.48491" lon="4.80224">
        <ele>148.93</ele>
        <time>2019-05-25T12:34:04.000Z</time>
      </trkpt>
      <trkpt lat="45.4848" lon="4.80188">
        <ele>149.02</ele>
        <time>2019-05-25T12:34:09.000Z</time>
      </trkpt>
      <trkpt lat="45.48468" lon="4.80153">
        <ele>148.97</ele>
        <time>2019-05-25T12:34:14.000Z</time>
      </trkpt>
      <trkpt lat="45.48458" lon="4.80117">
        <ele>149.72</ele>
        <time>2019-05-25T12:34:19.000Z</time>
      </trkpt>
      <trkpt lat="45.48445" lon="4.80083">
        <ele>149.97</ele>
        <time>2019-05-25T12:34:24.000Z</time>
      </trkpt>
      <trkpt lat="45.4843" lon="4.80049">
        <ele>147.74</ele>
        <time>2019-05-25T12:34:29.000Z</time>
      </trkpt>
      <trkpt lat="45.48415" lon="4.80017">
        <ele>147.74</ele>
        <time>2019-05-25T12:34:34.000Z</time>
      </trkpt>
      <trkpt lat="45.484" lon="4.79988">
        <ele>147.72</ele>
        <time>2019-05-25T12:34:39.000Z</time>
      </trkpt>
      <trkpt lat="45.48383" lon="4.79957">
        <ele>147.72</ele>
        <time>2019-05-25T12:34:44.000Z</time>
      </trkpt>
      <trkpt lat="45.48366" lon="4.79926">
        <ele>146.72</ele>
        <time>2019-05-25T12:34:49.000Z</time>
      </trkpt>
      <trkpt lat="45.48349" lon="4.79896">
        <ele>147.72</ele>
        <time>2019-05-25T12:34:54.000Z</time>
      </trkpt>
      <trkpt lat="45.48334" lon="4.79863">
        <ele>147.47</ele>
        <time>2019-05-25T12:34:59.000Z</time>
      </trkpt>
      <trkpt lat="45.48329" lon="4.79822">
        <ele>147.47</ele>
        <time>2019-05-25T12:35:04.000Z</time>
      </trkpt>
      <trkpt lat="45.48335" lon="4.79781">
        <ele>147.95</ele>
        <time>2019-05-25T12:35:09.000Z</time>
      </trkpt>
      <trkpt lat="45.48338" lon="4.79741">
        <ele>148.53</ele>
        <time>2019-05-25T12:35:14.000Z</time>
      </trkpt>
      <trkpt lat="45.48342" lon="4.79703">
        <ele>147.73</ele>
        <time>2019-05-25T12:35:19.000Z</time>
      </trkpt>
      <trkpt lat="45.48346" lon="4.79666">
        <ele>147.46</ele>
        <time>2019-05-25T12:35:24.000Z</time>
      </trkpt>
      <trkpt lat="45.48349" lon="4.7963">
        <ele>147.71</ele>
        <time>2019-05-25T12:35:29.000Z</time>
      </trkpt>
      <trkpt lat="45.48354" lon="4.79596">
        <ele>147.72</ele>
        <time>2019-05-25T12:35:34.000Z</time>
      </trkpt>
      <trkpt lat="45.48362" lon="4.79565">
        <ele>148.46</ele>
        <time>2019-05-25T12:35:39.000Z</time>
      </trkpt>
      <trkpt lat="45.48369" lon="4.79533">
        <ele>147.91</ele>
        <time>2019-05-25T12:35:44.000Z</time>
      </trkpt>
      <trkpt lat="45.48377" lon="4.79503">
        <ele>146.96</ele>
        <time>2019-05-25T12:35:49.000Z</time>
      </trkpt>
      <trkpt lat="45.48381" lon="4.79473">
        <ele>148.69</ele>
        <time>2019-05-25T12:35:54.000Z</time>
      </trkpt>
      <trkpt lat="45.48376" lon="4.79442">
        <ele>149.71</ele>
        <time>2019-05-25T12:35:59.000Z</time>
      </trkpt>
      <trkpt lat="45.48369" lon="4.79411">
        <ele>149.71</ele>
        <time>2019-05-25T12:36:04.000Z</time>
      </trkpt>
      <trkpt lat="45.48361" lon="4.7938">
        <ele>150.5</ele>
        <time>2019-05-25T12:36:09.000Z</time>
      </trkpt>
      <trkpt lat="45.48354" lon="4.79348">
        <ele>152.44</ele>
        <time>2019-05-25T12:36:14.000Z</time>
      </trkpt>
      <trkpt lat="45.48347" lon="4.79317">
        <ele>151.71</ele>
        <time>2019-05-25T12:36:19.000Z</time>
      </trkpt>
      <trkpt lat="45.48342" lon="4.79288">
        <ele>150.95</ele>
        <time>2019-05-25T12:36:24.000Z</time>
      </trkpt>
      <trkpt lat="45.48337" lon="4.79257">
        <ele>151.45</ele>
        <time>2019-05-25T12:36:29.000Z</time>
      </trkpt>
      <trkpt lat="45.4833" lon="4.79226">
        <ele>151.7</ele>
        <time>2019-05-25T12:36:34.000Z</time>
      </trkpt>
      <trkpt lat="45.48327" lon="4.79192">
        <ele>151.89</ele>
        <time>2019-05-25T12:36:39.000Z</time>
      </trkpt>
      <trkpt lat="45.48324" lon="4.79154">
        <ele>151.71</ele>
        <time>2019-05-25T12:36:44.000Z</time>
      </trkpt>
      <trkpt lat="45.4832" lon="4.79116">
        <ele>151.71</ele>
        <time>2019-05-25T12:36:49.000Z</time>
      </trkpt>
      <trkpt lat="45.48316" lon="4.79077">
        <ele>152.45</ele>
        <time>2019-05-25T12:36:54.000Z</time>
      </trkpt>
      <trkpt lat="45.4831" lon="4.79039">
        <ele>153.69</ele>
        <time>2019-05-25T12:36:59.000Z</time>
      </trkpt>
      <trkpt lat="45.48306" lon="4.79002">
        <ele>151.96</ele>
        <time>2019-05-25T12:37:04.000Z</time>
      </trkpt>
      <trkpt lat="45.48303" lon="4.78965">
        <ele>151.9</ele>
        <time>2019-05-25T12:37:09.000Z</time>
      </trkpt>
      <trkpt lat="45.48299" lon="4.7893">
        <ele>151.69</ele>
        <time>2019-05-25T12:37:14.000Z</time>
      </trkpt>
      <trkpt lat="45.48289" lon="4.78898">
        <ele>151.69</ele>
        <time>2019-05-25T12:37:19.000Z</time>
      </trkpt>
      <trkpt lat="45.48283" lon="4.78873">
        <ele>151.69</ele>
        <time>2019-05-25T12:37:24.000Z</time>
      </trkpt>
      <trkpt lat="45.48265" lon="4.78866">
        <ele>151.44</ele>
        <time>2019-05-25T12:37:29.000Z</time>
      </trkpt>
      <trkpt lat="45.48244" lon="4.78864">
        <ele>152.69</ele>
        <time>2019-05-25T12:37:34.000Z</time>
      </trkpt>
      <trkpt lat="45.48217" lon="4.78859">
        <ele>151.75</ele>
        <time>2019-05-25T12:37:39.000Z</time>
      </trkpt>
      <trkpt lat="45.48179" lon="4.78857">
        <ele>148.77</ele>
        <time>2019-05-25T12:37:44.000Z</time>
      </trkpt>
      <trkpt lat="45.48146" lon="4.78853">
        <ele>146.77</ele>
        <time>2019-05-25T12:37:49.000Z</time>
      </trkpt>
      <trkpt lat="45.4813" lon="4.7885">
        <ele>146.69</ele>
        <time>2019-05-25T12:37:54.000Z</time>
      </trkpt>
      <trkpt lat="45.48105" lon="4.78842">
        <ele>147.44</ele>
        <time>2019-05-25T12:37:59.000Z</time>
      </trkpt>
      <trkpt lat="45.48076" lon="4.78832">
        <ele>147.44</ele>
        <time>2019-05-25T12:38:04.000Z</time>
      </trkpt>
      <trkpt lat="45.48061" lon="4.7882">
        <ele>147.69</ele>
        <time>2019-05-25T12:38:09.000Z</time>
      </trkpt>
      <trkpt lat="45.48068" lon="4.78789">
        <ele>147.94</ele>
        <time>2019-05-25T12:38:14.000Z</time>
      </trkpt>
      <trkpt lat="45.48076" lon="4.78755">
        <ele>148.62</ele>
        <time>2019-05-25T12:38:19.000Z</time>
      </trkpt>
      <trkpt lat="45.4808" lon="4.78718">
        <ele>148.68</ele>
        <time>2019-05-25T12:38:24.000Z</time>
      </trkpt>
      <trkpt lat="45.48076" lon="4.78677">
        <ele>147.45</ele>
        <time>2019-05-25T12:38:29.000Z</time>
      </trkpt>
      <trkpt lat="45.48067" lon="4.78632">
        <ele>145.7</ele>
        <time>2019-05-25T12:38:34.000Z</time>
      </trkpt>
      <trkpt lat="45.48054" lon="4.78591">
        <ele>144.24</ele>
        <time>2019-05-25T12:38:39.000Z</time>
      </trkpt>
      <trkpt lat="45.4804" lon="4.78557">
        <ele>139.87</ele>
        <time>2019-05-25T12:38:44.000Z</time>
      </trkpt>
      <trkpt lat="45.48018" lon="4.78527">
        <ele>142.41</ele>
        <time>2019-05-25T12:38:49.000Z</time>
      </trkpt>
      <trkpt lat="45.47999" lon="4.78494">
        <ele>143.66</ele>
        <time>2019-05-25T12:38:54.000Z</time>
      </trkpt>
      <trkpt lat="45.47979" lon="4.78462">
        <ele>145.43</ele>
        <time>2019-05-25T12:38:59.000Z</time>
      </trkpt>
      <trkpt lat="45.47959" lon="4.78438">
        <ele>145.49</ele>
        <time>2019-05-25T12:39:04.000Z</time>
      </trkpt>
      <trkpt lat="45.47945" lon="4.78429">
        <ele>145.74</ele>
        <time>2019-05-25T12:39:09.000Z</time>
      </trkpt>
      <trkpt lat="45.47951" lon="4.78415">
        <ele>146.91</ele>
        <time>2019-05-25T12:39:14.000Z</time>
      </trkpt>
      <trkpt lat="45.47959" lon="4.78402">
        <ele>148.66</ele>
        <time>2019-05-25T12:39:19.000Z</time>
      </trkpt>
      <trkpt lat="45.47956" lon="4.7839">
        <ele>151.49</ele>
        <time>2019-05-25T12:42:27.000Z</time>
      </trkpt>
      <trkpt lat="45.47963" lon="4.78379">
        <ele>149.92</ele>
        <time>2019-05-25T12:44:12.000Z</time>
      </trkpt>
      <trkpt lat="45.47958" lon="4.7835">
        <ele>149.38</ele>
        <time>2019-05-25T12:44:17.000Z</time>
      </trkpt>
      <trkpt lat="45.47941" lon="4.7832">
        <ele>150.61</ele>
        <time>2019-05-25T12:44:22.000Z</time>
      </trkpt>
      <trkpt lat="45.47923" lon="4.78293">
        <ele>150.67</ele>
        <time>2019-05-25T12:44:27.000Z</time>
      </trkpt>
      <trkpt lat="45.47899" lon="4.78283">
        <ele>148.11</ele>
        <time>2019-05-25T12:44:32.000Z</time>
      </trkpt>
      <trkpt lat="45.47882" lon="4.78268">
        <ele>146.64</ele>
        <time>2019-05-25T12:44:37.000Z</time>
      </trkpt>
      <trkpt lat="45.47861" lon="4.78245">
        <ele>148.45</ele>
        <time>2019-05-25T12:44:42.000Z</time>
      </trkpt>
      <trkpt lat="45.47837" lon="4.78229">
        <ele>147.47</ele>
        <time>2019-05-25T12:44:47.000Z</time>
      </trkpt>
      <trkpt lat="45.4781" lon="4.78224">
        <ele>146.67</ele>
        <time>2019-05-25T12:44:52.000Z</time>
      </trkpt>
      <trkpt lat="45.4778" lon="4.78215">
        <ele>146.42</ele>
        <time>2019-05-25T12:44:57.000Z</time>
      </trkpt>
      <trkpt lat="45.47752" lon="4.78208">
        <ele>147.84</ele>
        <time>2019-05-25T12:45:02.000Z</time>
      </trkpt>
      <trkpt lat="45.47727" lon="4.78196">
        <ele>142.59</ele>
        <time>2019-05-25T12:45:07.000Z</time>
      </trkpt>
      <trkpt lat="45.47699" lon="4.78191">
        <ele>140.67</ele>
        <time>2019-05-25T12:45:12.000Z</time>
      </trkpt>
      <trkpt lat="45.47672" lon="4.78181">
        <ele>144.4</ele>
        <time>2019-05-25T12:45:17.000Z</time>
      </trkpt>
      <trkpt lat="45.47663" lon="4.78156">
        <ele>145.42</ele>
        <time>2019-05-25T12:45:22.000Z</time>
      </trkpt>
      <trkpt lat="45.47672" lon="4.78125">
        <ele>147.54</ele>
        <time>2019-05-25T12:45:27.000Z</time>
      </trkpt>
      <trkpt lat="45.47664" lon="4.78094">
        <ele>151.14</ele>
        <time>2019-05-25T12:45:32.000Z</time>
      </trkpt>
      <trkpt lat="45.47643" lon="4.78075">
        <ele>147.49</ele>
        <time>2019-05-25T12:45:37.000Z</time>
      </trkpt>
      <trkpt lat="45.4762" lon="4.78061">
        <ele>145.6</ele>
        <time>2019-05-25T12:45:42.000Z</time>
      </trkpt>
      <trkpt lat="45.47596" lon="4.78041">
        <ele>145.66</ele>
        <time>2019-05-25T12:45:47.000Z</time>
      </trkpt>
      <trkpt lat="45.47576" lon="4.78029">
        <ele>146.65</ele>
        <time>2019-05-25T12:45:52.000Z</time>
      </trkpt>
      <trkpt lat="45.47563" lon="4.78023">
        <ele>147.37</ele>
        <time>2019-05-25T12:45:57.000Z</time>
      </trkpt>
      <trkpt lat="45.47552" lon="4.78025">
        <ele>151.85</ele>
        <time>2019-05-25T12:46:12.000Z</time>
      </trkpt>
      <trkpt lat="45.47536" lon="4.7801">
        <ele>154.16</ele>
        <time>2019-05-25T12:46:17.000Z</time>
      </trkpt>
      <trkpt lat="45.47519" lon="4.77989">
        <ele>152.73</ele>
        <time>2019-05-25T12:46:22.000Z</time>
      </trkpt>
      <trkpt lat="45.47498" lon="4.7798">
        <ele>150.23</ele>
        <time>2019-05-25T12:46:27.000Z</time>
      </trkpt>
      <trkpt lat="45.47478" lon="4.7796">
        <ele>149.41</ele>
        <time>2019-05-25T12:46:32.000Z</time>
      </trkpt>
      <trkpt lat="45.47458" lon="4.77945">
        <ele>148.79</ele>
        <time>2019-05-25T12:46:37.000Z</time>
      </trkpt>
      <trkpt lat="45.47444" lon="4.77933">
        <ele>150.14</ele>
        <time>2019-05-25T12:46:42.000Z</time>
      </trkpt>
      <trkpt lat="45.47435" lon="4.77926">
        <ele>147.48</ele>
        <time>2019-05-25T12:46:49.000Z</time>
      </trkpt>
      <trkpt lat="45.47414" lon="4.77916">
        <ele>146.53</ele>
        <time>2019-05-25T12:46:54.000Z</time>
      </trkpt>
      <trkpt lat="45.47392" lon="4.77905">
        <ele>145.67</ele>
        <time>2019-05-25T12:46:59.000Z</time>
      </trkpt>
      <trkpt lat="45.47371" lon="4.77893">
        <ele>145.36</ele>
        <time>2019-05-25T12:47:04.000Z</time>
      </trkpt>
      <trkpt lat="45.47356" lon="4.77887">
        <ele>145.65</ele>
        <time>2019-05-25T12:47:09.000Z</time>
      </trkpt>
      <trkpt lat="45.47347" lon="4.77885">
        <ele>145.71</ele>
        <time>2019-05-25T12:47:15.000Z</time>
      </trkpt>
      <trkpt lat="45.47333" lon="4.77877">
        <ele>146.66</ele>
        <time>2019-05-25T12:47:20.000Z</time>
      </trkpt>
      <trkpt lat="45.47318" lon="4.77866">
        <ele>147.79</ele>
        <time>2019-05-25T12:47:25.000Z</time>
      </trkpt>
      <trkpt lat="45.47301" lon="4.77857">
        <ele>147.65</ele>
        <time>2019-05-25T12:47:30.000Z</time>
      </trkpt>
      <trkpt lat="45.47282" lon="4.77848">
        <ele>146.73</ele>
        <time>2019-05-25T12:47:35.000Z</time>
      </trkpt>
      <trkpt lat="45.47266" lon="4.7784">
        <ele>146.66</ele>
        <time>2019-05-25T12:47:40.000Z</time>
      </trkpt>
      <trkpt lat="45.47256" lon="4.77839">
        <ele>147.07</ele>
        <time>2019-05-25T12:47:46.000Z</time>
      </trkpt>
      <trkpt lat="45.4724" lon="4.77826">
        <ele>147.65</ele>
        <time>2019-05-25T12:47:51.000Z</time>
      </trkpt>
      <trkpt lat="45.47225" lon="4.77813">
        <ele>147.67</ele>
        <time>2019-05-25T12:47:56.000Z</time>
      </trkpt>
      <trkpt lat="45.47211" lon="4.77801">
        <ele>149.59</ele>
        <time>2019-05-25T12:48:01.000Z</time>
      </trkpt>
      <trkpt lat="45.472" lon="4.77793">
        <ele>148.85</ele>
        <time>2019-05-25T12:48:06.000Z</time>
      </trkpt>
      <trkpt lat="45.47194" lon="4.77783">
        <ele>150.65</ele>
        <time>2019-05-25T12:48:13.000Z</time>
      </trkpt>
      <trkpt lat="45.47187" lon="4.77796">
        <ele>146.63</ele>
        <time>2019-05-25T12:50:17.000Z</time>
      </trkpt>
      <trkpt lat="45.47185" lon="4.77808">
        <ele>147.9</ele>
        <time>2019-05-25T12:50:24.000Z</time>
      </trkpt>
      <trkpt lat="45.47189" lon="4.77821">
        <ele>149.76</ele>
        <time>2019-05-25T12:50:45.000Z</time>
      </trkpt>
      <trkpt lat="45.47189" lon="4.77806">
        <ele>145.63</ele>
        <time>2019-05-25T12:52:38.000Z</time>
      </trkpt>
      <trkpt lat="45.47193" lon="4.77794">
        <ele>146.63</ele>
        <time>2019-05-25T12:52:45.000Z</time>
      </trkpt>
      <trkpt lat="45.47196" lon="4.7778">
        <ele>145.89</ele>
        <time>2019-05-25T12:52:56.000Z</time>
      </trkpt>
      <trkpt lat="45.47188" lon="4.77788">
        <ele>147.44</ele>
        <time>2019-05-25T12:55:16.000Z</time>
      </trkpt>
      <trkpt lat="45.47178" lon="4.77779">
        <ele>147.58</ele>
        <time>2019-05-25T12:55:21.000Z</time>
      </trkpt>
      <trkpt lat="45.47168" lon="4.77772">
        <ele>150.38</ele>
        <time>2019-05-25T12:55:27.000Z</time>
      </trkpt>
      <trkpt lat="45.47152" lon="4.7776">
        <ele>152.51</ele>
        <time>2019-05-25T12:55:32.000Z</time>
      </trkpt>
      <trkpt lat="45.4714" lon="4.77754">
        <ele>152.69</ele>
        <time>2019-05-25T12:55:37.000Z</time>
      </trkpt>
      <trkpt lat="45.47131" lon="4.77756">
        <ele>150.4</ele>
        <time>2019-05-25T12:55:46.000Z</time>
      </trkpt>
      <trkpt lat="45.47128" lon="4.77769">
        <ele>151.93</ele>
        <time>2019-05-25T12:55:56.000Z</time>
      </trkpt>
      <trkpt lat="45.47129" lon="4.77782">
        <ele>154.64</ele>
        <time>2019-05-25T12:56:35.000Z</time>
      </trkpt>
      <trkpt lat="45.47131" lon="4.77769">
        <ele>159.18</ele>
        <time>2019-05-25T13:01:53.000Z</time>
      </trkpt>
      <trkpt lat="45.47122" lon="4.77761">
        <ele>156.41</ele>
        <time>2019-05-25T13:02:03.000Z</time>
      </trkpt>
      <trkpt lat="45.47108" lon="4.77771">
        <ele>156.63</ele>
        <time>2019-05-25T13:02:08.000Z</time>
      </trkpt>
      <trkpt lat="45.47094" lon="4.77779">
        <ele>155.15</ele>
        <time>2019-05-25T13:02:13.000Z</time>
      </trkpt>
      <trkpt lat="45.47085" lon="4.77778">
        <ele>154.65</ele>
        <time>2019-05-25T13:02:18.000Z</time>
      </trkpt>
      <trkpt lat="45.47078" lon="4.77764">
        <ele>153.85</ele>
        <time>2019-05-25T13:02:23.000Z</time>
      </trkpt>
      <trkpt lat="45.47072" lon="4.77751">
        <ele>149.98</ele>
        <time>2019-05-25T13:02:28.000Z</time>
      </trkpt>
      <trkpt lat="45.47061" lon="4.77754">
        <ele>153.19</ele>
        <time>2019-05-25T13:02:38.000Z</time>
      </trkpt>
      <trkpt lat="45.47046" lon="4.77771">
        <ele>152.88</ele>
        <time>2019-05-25T13:02:43.000Z</time>
      </trkpt>
      <trkpt lat="45.47029" lon="4.77789">
        <ele>152.66</ele>
        <time>2019-05-25T13:02:48.000Z</time>
      </trkpt>
      <trkpt lat="45.47017" lon="4.77806">
        <ele>151.65</ele>
        <time>2019-05-25T13:02:53.000Z</time>
      </trkpt>
      <trkpt lat="45.47004" lon="4.77821">
        <ele>151.85</ele>
        <time>2019-05-25T13:02:58.000Z</time>
      </trkpt>
      <trkpt lat="45.46994" lon="4.77833">
        <ele>149.65</ele>
        <time>2019-05-25T13:03:03.000Z</time>
      </trkpt>
      <trkpt lat="45.46987" lon="4.77843">
        <ele>151.39</ele>
        <time>2019-05-25T13:03:09.000Z</time>
      </trkpt>
      <trkpt lat="45.46979" lon="4.77851">
        <ele>149.96</ele>
        <time>2019-05-25T13:03:18.000Z</time>
      </trkpt>
      <trkpt lat="45.46974" lon="4.77863">
        <ele>145.71</ele>
        <time>2019-05-25T13:04:49.000Z</time>
      </trkpt>
      <trkpt lat="45.46964" lon="4.77863">
        <ele>145.34</ele>
        <time>2019-05-25T13:04:54.000Z</time>
      </trkpt>
      <trkpt lat="45.46946" lon="4.77864">
        <ele>145.83</ele>
        <time>2019-05-25T13:04:59.000Z</time>
      </trkpt>
      <trkpt lat="45.46928" lon="4.77868">
        <ele>151.52</ele>
        <time>2019-05-25T13:05:04.000Z</time>
      </trkpt>
      <trkpt lat="45.46906" lon="4.77872">
        <ele>151.46</ele>
        <time>2019-05-25T13:05:09.000Z</time>
      </trkpt>
      <trkpt lat="45.46881" lon="4.77877">
        <ele>150.65</ele>
        <time>2019-05-25T13:05:14.000Z</time>
      </trkpt>
      <trkpt lat="45.46857" lon="4.77879">
        <ele>147.95</ele>
        <time>2019-05-25T13:05:19.000Z</time>
      </trkpt>
      <trkpt lat="45.46833" lon="4.77883">
        <ele>148.83</ele>
        <time>2019-05-25T13:05:24.000Z</time>
      </trkpt>
      <trkpt lat="45.46809" lon="4.77886">
        <ele>147.66</ele>
        <time>2019-05-25T13:05:29.000Z</time>
      </trkpt>
      <trkpt lat="45.46784" lon="4.7789">
        <ele>147.65</ele>
        <time>2019-05-25T13:05:34.000Z</time>
      </trkpt>
      <trkpt lat="45.46759" lon="4.77896">
        <ele>149.52</ele>
        <time>2019-05-25T13:05:39.000Z</time>
      </trkpt>
      <trkpt lat="45.46747" lon="4.77893">
        <ele>148.83</ele>
        <time>2019-05-25T13:05:44.000Z</time>
      </trkpt>
      <trkpt lat="45.46733" lon="4.77879">
        <ele>149.63</ele>
        <time>2019-05-25T13:05:49.000Z</time>
      </trkpt>
      <trkpt lat="45.46709" lon="4.77858">
        <ele>147.85</ele>
        <time>2019-05-25T13:05:54.000Z</time>
      </trkpt>
      <trkpt lat="45.46691" lon="4.77833">
        <ele>147.88</ele>
        <time>2019-05-25T13:05:59.000Z</time>
      </trkpt>
      <trkpt lat="45.46672" lon="4.77805">
        <ele>148.64</ele>
        <time>2019-05-25T13:06:04.000Z</time>
      </trkpt>
      <trkpt lat="45.46654" lon="4.77777">
        <ele>147.6</ele>
        <time>2019-05-25T13:06:09.000Z</time>
      </trkpt>
      <trkpt lat="45.46633" lon="4.77751">
        <ele>146.71</ele>
        <time>2019-05-25T13:06:14.000Z</time>
      </trkpt>
      <trkpt lat="45.46611" lon="4.77726">
        <ele>145.64</ele>
        <time>2019-05-25T13:06:19.000Z</time>
      </trkpt>
      <trkpt lat="45.46593" lon="4.77716">
        <ele>145.83</ele>
        <time>2019-05-25T13:06:24.000Z</time>
      </trkpt>
      <trkpt lat="45.46577" lon="4.7774">
        <ele>146.69</ele>
        <time>2019-05-25T13:06:29.000Z</time>
      </trkpt>
      <trkpt lat="45.46559" lon="4.77766">
        <ele>146.69</ele>
        <time>2019-05-25T13:06:34.000Z</time>
      </trkpt>
      <trkpt lat="45.46541" lon="4.77794">
        <ele>146.64</ele>
        <time>2019-05-25T13:06:39.000Z</time>
      </trkpt>
      <trkpt lat="45.46523" lon="4.77821">
        <ele>147.39</ele>
        <time>2019-05-25T13:06:44.000Z</time>
      </trkpt>
      <trkpt lat="45.46504" lon="4.77848">
        <ele>149.57</ele>
        <time>2019-05-25T13:06:49.000Z</time>
      </trkpt>
      <trkpt lat="45.46491" lon="4.77873">
        <ele>149.64</ele>
        <time>2019-05-25T13:06:54.000Z</time>
      </trkpt>
      <trkpt lat="45.46487" lon="4.77906">
        <ele>149.4</ele>
        <time>2019-05-25T13:06:59.000Z</time>
      </trkpt>
      <trkpt lat="45.4648" lon="4.77936">
        <ele>149.59</ele>
        <time>2019-05-25T13:07:04.000Z</time>
      </trkpt>
      <trkpt lat="45.46459" lon="4.77941">
        <ele>146.7</ele>
        <time>2019-05-25T13:07:09.000Z</time>
      </trkpt>
      <trkpt lat="45.46437" lon="4.77932">
        <ele>147.58</ele>
        <time>2019-05-25T13:07:14.000Z</time>
      </trkpt>
      <trkpt lat="45.46411" lon="4.77923">
        <ele>147.64</ele>
        <time>2019-05-25T13:07:19.000Z</time>
      </trkpt>
      <trkpt lat="45.46386" lon="4.7792">
        <ele>147.69</ele>
        <time>2019-05-25T13:07:24.000Z</time>
      </trkpt>
      <trkpt lat="45.46362" lon="4.77909">
        <ele>150.57</ele>
        <time>2019-05-25T13:07:29.000Z</time>
      </trkpt>
      <trkpt lat="45.46337" lon="4.77893">
        <ele>149.66</ele>
        <time>2019-05-25T13:07:34.000Z</time>
      </trkpt>
      <trkpt lat="45.4631" lon="4.7788">
        <ele>149.64</ele>
        <time>2019-05-25T13:07:39.000Z</time>
      </trkpt>
      <trkpt lat="45.46283" lon="4.77866">
        <ele>149.64</ele>
        <time>2019-05-25T13:07:44.000Z</time>
      </trkpt>
      <trkpt lat="45.46259" lon="4.77844">
        <ele>149.64</ele>
        <time>2019-05-25T13:07:49.000Z</time>
      </trkpt>
      <trkpt lat="45.46235" lon="4.7782">
        <ele>148.65</ele>
        <time>2019-05-25T13:07:54.000Z</time>
      </trkpt>
      <trkpt lat="45.46212" lon="4.77795">
        <ele>147.65</ele>
        <time>2019-05-25T13:07:59.000Z</time>
      </trkpt>
      <trkpt lat="45.46188" lon="4.77771">
        <ele>145.65</ele>
        <time>2019-05-25T13:08:04.000Z</time>
      </trkpt>
      <trkpt lat="45.46165" lon="4.77746">
        <ele>145.63</ele>
        <time>2019-05-25T13:08:09.000Z</time>
      </trkpt>
      <trkpt lat="45.4614" lon="4.77723">
        <ele>146.63</ele>
        <time>2019-05-25T13:08:14.000Z</time>
      </trkpt>
      <trkpt lat="45.46114" lon="4.77703">
        <ele>146.63</ele>
        <time>2019-05-25T13:08:19.000Z</time>
      </trkpt>
      <trkpt lat="45.46089" lon="4.77684">
        <ele>147.62</ele>
        <time>2019-05-25T13:08:24.000Z</time>
      </trkpt>
      <trkpt lat="45.46067" lon="4.7767">
        <ele>147.58</ele>
        <time>2019-05-25T13:08:29.000Z</time>
      </trkpt>
      <trkpt lat="45.46048" lon="4.77651">
        <ele>146.63</ele>
        <time>2019-05-25T13:08:34.000Z</time>
      </trkpt>
      <trkpt lat="45.46041" lon="4.77618">
        <ele>145.63</ele>
        <time>2019-05-25T13:08:39.000Z</time>
      </trkpt>
      <trkpt lat="45.46038" lon="4.77585">
        <ele>146.61</ele>
        <time>2019-05-25T13:08:44.000Z</time>
      </trkpt>
      <trkpt lat="45.46035" lon="4.7755">
        <ele>145.63</ele>
        <time>2019-05-25T13:08:49.000Z</time>
      </trkpt>
      <trkpt lat="45.46032" lon="4.77514">
        <ele>145.39</ele>
        <time>2019-05-25T13:08:54.000Z</time>
      </trkpt>
      <trkpt lat="45.46023" lon="4.77478">
        <ele>146.58</ele>
        <time>2019-05-25T13:08:59.000Z</time>
      </trkpt>
      <trkpt lat="45.46013" lon="4.77442">
        <ele>146.62</ele>
        <time>2019-05-25T13:09:04.000Z</time>
      </trkpt>
      <trkpt lat="45.46001" lon="4.77407">
        <ele>146.62</ele>
        <time>2019-05-25T13:09:09.000Z</time>
      </trkpt>
      <trkpt lat="45.45986" lon="4.77375">
        <ele>146.82</ele>
        <time>2019-05-25T13:09:14.000Z</time>
      </trkpt>
      <trkpt lat="45.45972" lon="4.77342">
        <ele>146.56</ele>
        <time>2019-05-25T13:09:19.000Z</time>
      </trkpt>
      <trkpt lat="45.45961" lon="4.77306">
        <ele>146.62</ele>
        <time>2019-05-25T13:09:24.000Z</time>
      </trkpt>
      <trkpt lat="45.45948" lon="4.77276">
        <ele>145.62</ele>
        <time>2019-05-25T13:09:29.000Z</time>
      </trkpt>
      <trkpt lat="45.45939" lon="4.77242">
        <ele>145.87</ele>
        <time>2019-05-25T13:09:34.000Z</time>
      </trkpt>
      <trkpt lat="45.45929" lon="4.77215">
        <ele>145.85</ele>
        <time>2019-05-25T13:09:39.000Z</time>
      </trkpt>
      <trkpt lat="45.45912" lon="4.77202">
        <ele>145.62</ele>
        <time>2019-05-25T13:09:44.000Z</time>
      </trkpt>
      <trkpt lat="45.45891" lon="4.77186">
        <ele>145.62</ele>
        <time>2019-05-25T13:09:49.000Z</time>
      </trkpt>
      <trkpt lat="45.4587" lon="4.77172">
        <ele>146.6</ele>
        <time>2019-05-25T13:09:54.000Z</time>
      </trkpt>
      <trkpt lat="45.45847" lon="4.77156">
        <ele>146.62</ele>
        <time>2019-05-25T13:09:59.000Z</time>
      </trkpt>
      <trkpt lat="45.45827" lon="4.77141">
        <ele>147.36</ele>
        <time>2019-05-25T13:10:04.000Z</time>
      </trkpt>
      <trkpt lat="45.45806" lon="4.77123">
        <ele>147.6</ele>
        <time>2019-05-25T13:10:09.000Z</time>
      </trkpt>
      <trkpt lat="45.45788" lon="4.77097">
        <ele>148.36</ele>
        <time>2019-05-25T13:10:14.000Z</time>
      </trkpt>
      <trkpt lat="45.4578" lon="4.77062">
        <ele>147.63</ele>
        <time>2019-05-25T13:10:19.000Z</time>
      </trkpt>
      <trkpt lat="45.45782" lon="4.77024">
        <ele>146.38</ele>
        <time>2019-05-25T13:10:24.000Z</time>
      </trkpt>
      <trkpt lat="45.45784" lon="4.76998">
        <ele>145.81</ele>
        <time>2019-05-25T13:10:29.000Z</time>
      </trkpt>
      <trkpt lat="45.45782" lon="4.76985">
        <ele>143.62</ele>
        <time>2019-05-25T13:10:45.000Z</time>
      </trkpt>
      <trkpt lat="45.45783" lon="4.76966">
        <ele>145.36</ele>
        <time>2019-05-25T13:10:50.000Z</time>
      </trkpt>
      <trkpt lat="45.45785" lon="4.76947">
        <ele>144.86</ele>
        <time>2019-05-25T13:10:55.000Z</time>
      </trkpt>
      <trkpt lat="45.45794" lon="4.76942">
        <ele>144.62</ele>
        <time>2019-05-25T13:11:00.000Z</time>
      </trkpt>
      <trkpt lat="45.4579" lon="4.76924">
        <ele>145.67</ele>
        <time>2019-05-25T13:11:05.000Z</time>
      </trkpt>
      <trkpt lat="45.4579" lon="4.76898">
        <ele>146.65</ele>
        <time>2019-05-25T13:11:10.000Z</time>
      </trkpt>
      <trkpt lat="45.4579" lon="4.76869">
        <ele>145.61</ele>
        <time>2019-05-25T13:11:15.000Z</time>
      </trkpt>
      <trkpt lat="45.45786" lon="4.76843">
        <ele>146.59</ele>
        <time>2019-05-25T13:11:20.000Z</time>
      </trkpt>
      <trkpt lat="45.45785" lon="4.7683">
        <ele>148.35</ele>
        <time>2019-05-25T13:11:25.000Z</time>
      </trkpt>
      <trkpt lat="45.45783" lon="4.76807">
        <ele>147.61</ele>
        <time>2019-05-25T13:11:30.000Z</time>
      </trkpt>
      <trkpt lat="45.45788" lon="4.76776">
        <ele>145.67</ele>
        <time>2019-05-25T13:11:35.000Z</time>
      </trkpt>
      <trkpt lat="45.45792" lon="4.76746">
        <ele>144.67</ele>
        <time>2019-05-25T13:11:40.000Z</time>
      </trkpt>
      <trkpt lat="45.45798" lon="4.76715">
        <ele>143.66</ele>
        <time>2019-05-25T13:11:45.000Z</time>
      </trkpt>
      <trkpt lat="45.45803" lon="4.76684">
        <ele>143.79</ele>
        <time>2019-05-25T13:11:50.000Z</time>
      </trkpt>
      <trkpt lat="45.45808" lon="4.76651">
        <ele>143.6</ele>
        <time>2019-05-25T13:11:55.000Z</time>
      </trkpt>
      <trkpt lat="45.45812" lon="4.76617">
        <ele>142.66</ele>
        <time>2019-05-25T13:12:00.000Z</time>
      </trkpt>
      <trkpt lat="45.45819" lon="4.7658">
        <ele>143.6</ele>
        <time>2019-05-25T13:12:05.000Z</time>
      </trkpt>
      <trkpt lat="45.45825" lon="4.76546">
        <ele>143.6</ele>
        <time>2019-05-25T13:12:10.000Z</time>
      </trkpt>
      <trkpt lat="45.45829" lon="4.76512">
        <ele>143.85</ele>
        <time>2019-05-25T13:12:15.000Z</time>
      </trkpt>
      <trkpt lat="45.45827" lon="4.76482">
        <ele>143.61</ele>
        <time>2019-05-25T13:12:20.000Z</time>
      </trkpt>
      <trkpt lat="45.45824" lon="4.76449">
        <ele>143.61</ele>
        <time>2019-05-25T13:12:25.000Z</time>
      </trkpt>
      <trkpt lat="45.45821" lon="4.76414">
        <ele>143.41</ele>
        <time>2019-05-25T13:12:30.000Z</time>
      </trkpt>
      <trkpt lat="45.45818" lon="4.76377">
        <ele>142.6</ele>
        <time>2019-05-25T13:12:35.000Z</time>
      </trkpt>
      <trkpt lat="45.45815" lon="4.76339">
        <ele>142.6</ele>
        <time>2019-05-25T13:12:40.000Z</time>
      </trkpt>
      <trkpt lat="45.4581" lon="4.76301">
        <ele>143.34</ele>
        <time>2019-05-25T13:12:45.000Z</time>
      </trkpt>
      <trkpt lat="45.45805" lon="4.76265">
        <ele>144.34</ele>
        <time>2019-05-25T13:12:50.000Z</time>
      </trkpt>
      <trkpt lat="45.458" lon="4.76229">
        <ele>144.59</ele>
        <time>2019-05-25T13:12:55.000Z</time>
      </trkpt>
      <trkpt lat="45.45794" lon="4.76193">
        <ele>144.84</ele>
        <time>2019-05-25T13:13:00.000Z</time>
      </trkpt>
      <trkpt lat="45.45793" lon="4.76165">
        <ele>144.59</ele>
        <time>2019-05-25T13:13:05.000Z</time>
      </trkpt>
      <trkpt lat="45.45791" lon="4.76152">
        <ele>144.59</ele>
        <time>2019-05-25T13:13:10.000Z</time>
      </trkpt>
      <trkpt lat="45.45801" lon="4.76152">
        <ele>143.86</ele>
        <time>2019-05-25T13:13:15.000Z</time>
      </trkpt>
      <trkpt lat="45.45814" lon="4.76147">
        <ele>143.59</ele>
        <time>2019-05-25T13:13:20.000Z</time>
      </trkpt>
      <trkpt lat="45.45822" lon="4.76156">
        <ele>143.59</ele>
        <time>2019-05-25T13:13:25.000Z</time>
      </trkpt>
      <trkpt lat="45.4583" lon="4.76151">
        <ele>145.57</ele>
        <time>2019-05-25T13:13:33.000Z</time>
      </trkpt>
      <trkpt lat="45.45844" lon="4.76131">
        <ele>145.59</ele>
        <time>2019-05-25T13:13:38.000Z</time>
      </trkpt>
      <trkpt lat="45.45859" lon="4.7611">
        <ele>145.59</ele>
        <time>2019-05-25T13:13:43.000Z</time>
      </trkpt>
      <trkpt lat="45.4587" lon="4.76094">
        <ele>146.52</ele>
        <time>2019-05-25T13:13:48.000Z</time>
      </trkpt>
      <trkpt lat="45.45871" lon="4.76079">
        <ele>145.66</ele>
        <time>2019-05-25T13:13:55.000Z</time>
      </trkpt>
      <trkpt lat="45.45864" lon="4.76061">
        <ele>147.28</ele>
        <time>2019-05-25T13:14:00.000Z</time>
      </trkpt>
      <trkpt lat="45.45857" lon="4.76042">
        <ele>148.53</ele>
        <time>2019-05-25T13:14:05.000Z</time>
      </trkpt>
      <trkpt lat="45.45851" lon="4.76027">
        <ele>148.59</ele>
        <time>2019-05-25T13:14:10.000Z</time>
      </trkpt>
      <trkpt lat="45.45846" lon="4.76014">
        <ele>149.59</ele>
        <time>2019-05-25T13:14:17.000Z</time>
      </trkpt>
      <trkpt lat="45.45841" lon="4.76003">
        <ele>148.82</ele>
        <time>2019-05-25T13:14:25.000Z</time>
      </trkpt>
      <trkpt lat="45.45835" lon="4.75992">
        <ele>148.59</ele>
        <time>2019-05-25T13:14:33.000Z</time>
      </trkpt>
      <trkpt lat="45.4583" lon="4.75982">
        <ele>148.59</ele>
        <time>2019-05-25T13:14:40.000Z</time>
      </trkpt>
      <trkpt lat="45.4582" lon="4.75978">
        <ele>148.59</ele>
        <time>2019-05-25T13:14:49.000Z</time>
      </trkpt>
      <trkpt lat="45.45803" lon="4.75978">
        <ele>148.34</ele>
        <time>2019-05-25T13:14:54.000Z</time>
      </trkpt>
      <trkpt lat="45.45784" lon="4.75982">
        <ele>149.28</ele>
        <time>2019-05-25T13:14:59.000Z</time>
      </trkpt>
      <trkpt lat="45.45772" lon="4.75984">
        <ele>148.35</ele>
        <time>2019-05-25T13:15:04.000Z</time>
      </trkpt>
      <trkpt lat="45.45757" lon="4.75982">
        <ele>149.76</ele>
        <time>2019-05-25T13:15:09.000Z</time>
      </trkpt>
      <trkpt lat="45.45744" lon="4.75968">
        <ele>148.55</ele>
        <time>2019-05-25T13:15:14.000Z</time>
      </trkpt>
      <trkpt lat="45.45732" lon="4.75949">
        <ele>146.85</ele>
        <time>2019-05-25T13:15:19.000Z</time>
      </trkpt>
      <trkpt lat="45.4572" lon="4.75933">
        <ele>147.82</ele>
        <time>2019-05-25T13:15:24.000Z</time>
      </trkpt>
      <trkpt lat="45.45712" lon="4.75913">
        <ele>146.66</ele>
        <time>2019-05-25T13:15:29.000Z</time>
      </trkpt>
      <trkpt lat="45.45707" lon="4.7588">
        <ele>147.52</ele>
        <time>2019-05-25T13:15:34.000Z</time>
      </trkpt>
      <trkpt lat="45.457" lon="4.75852">
        <ele>147.52</ele>
        <time>2019-05-25T13:15:39.000Z</time>
      </trkpt>
      <trkpt lat="45.45695" lon="4.75822">
        <ele>146.6</ele>
        <time>2019-05-25T13:15:44.000Z</time>
      </trkpt>
      <trkpt lat="45.45688" lon="4.75792">
        <ele>147.58</ele>
        <time>2019-05-25T13:15:49.000Z</time>
      </trkpt>
      <trkpt lat="45.45681" lon="4.75759">
        <ele>146.83</ele>
        <time>2019-05-25T13:15:54.000Z</time>
      </trkpt>
      <trkpt lat="45.45669" lon="4.75728">
        <ele>146.81</ele>
        <time>2019-05-25T13:15:59.000Z</time>
      </trkpt>
      <trkpt lat="45.45658" lon="4.75697">
        <ele>146.64</ele>
        <time>2019-05-25T13:16:04.000Z</time>
      </trkpt>
      <trkpt lat="45.45648" lon="4.7567">
        <ele>147.39</ele>
        <time>2019-05-25T13:16:09.000Z</time>
      </trkpt>
      <trkpt lat="45.45639" lon="4.75649">
        <ele>147.76</ele>
        <time>2019-05-25T13:16:14.000Z</time>
      </trkpt>
      <trkpt lat="45.45632" lon="4.7563">
        <ele>146.83</ele>
        <time>2019-05-25T13:16:19.000Z</time>
      </trkpt>
      <trkpt lat="45.45622" lon="4.75604">
        <ele>146.58</ele>
        <time>2019-05-25T13:16:24.000Z</time>
      </trkpt>
      <trkpt lat="45.45611" lon="4.75574">
        <ele>146.62</ele>
        <time>2019-05-25T13:16:29.000Z</time>
      </trkpt>
      <trkpt lat="45.45599" lon="4.75545">
        <ele>146.62</ele>
        <time>2019-05-25T13:16:34.000Z</time>
      </trkpt>
      <trkpt lat="45.45589" lon="4.75524">
        <ele>146.57</ele>
        <time>2019-05-25T13:16:39.000Z</time>
      </trkpt>
      <trkpt lat="45.45582" lon="4.75514">
        <ele>146.57</ele>
        <time>2019-05-25T13:16:44.000Z</time>
      </trkpt>
      <trkpt lat="45.45572" lon="4.75504">
        <ele>145.62</ele>
        <time>2019-05-25T13:16:49.000Z</time>
      </trkpt>
      <trkpt lat="45.45559" lon="4.75485">
        <ele>146.57</ele>
        <time>2019-05-25T13:16:54.000Z</time>
      </trkpt>
      <trkpt lat="45.45541" lon="4.75465">
        <ele>147.57</ele>
        <time>2019-05-25T13:16:59.000Z</time>
      </trkpt>
      <trkpt lat="45.45519" lon="4.75449">
        <ele>148.57</ele>
        <time>2019-05-25T13:17:04.000Z</time>
      </trkpt>
      <trkpt lat="45.45495" lon="4.75433">
        <ele>147.58</ele>
        <time>2019-05-25T13:17:09.000Z</time>
      </trkpt>
      <trkpt lat="45.45469" lon="4.75425">
        <ele>148.57</ele>
        <time>2019-05-25T13:17:14.000Z</time>
      </trkpt>
      <trkpt lat="45.45441" lon="4.75421">
        <ele>147.63</ele>
        <time>2019-05-25T13:17:19.000Z</time>
      </trkpt>
      <trkpt lat="45.45414" lon="4.75418">
        <ele>148.57</ele>
        <time>2019-05-25T13:17:24.000Z</time>
      </trkpt>
      <trkpt lat="45.45391" lon="4.75417">
        <ele>147.76</ele>
        <time>2019-05-25T13:17:29.000Z</time>
      </trkpt>
      <trkpt lat="45.45367" lon="4.75413">
        <ele>147.51</ele>
        <time>2019-05-25T13:17:34.000Z</time>
      </trkpt>
      <trkpt lat="45.4534" lon="4.75412">
        <ele>147.51</ele>
        <time>2019-05-25T13:17:39.000Z</time>
      </trkpt>
      <trkpt lat="45.4531" lon="4.75409">
        <ele>147.32</ele>
        <time>2019-05-25T13:17:44.000Z</time>
      </trkpt>
      <trkpt lat="45.45283" lon="4.75406">
        <ele>147.55</ele>
        <time>2019-05-25T13:17:49.000Z</time>
      </trkpt>
      <trkpt lat="45.45253" lon="4.75402">
        <ele>147.38</ele>
        <time>2019-05-25T13:17:54.000Z</time>
      </trkpt>
      <trkpt lat="45.45224" lon="4.75399">
        <ele>147.56</ele>
        <time>2019-05-25T13:17:59.000Z</time>
      </trkpt>
      <trkpt lat="45.45194" lon="4.75397">
        <ele>147.62</ele>
        <time>2019-05-25T13:18:04.000Z</time>
      </trkpt>
      <trkpt lat="45.45164" lon="4.75394">
        <ele>147.55</ele>
        <time>2019-05-25T13:18:09.000Z</time>
      </trkpt>
      <trkpt lat="45.45135" lon="4.75392">
        <ele>148.5</ele>
        <time>2019-05-25T13:18:14.000Z</time>
      </trkpt>
      <trkpt lat="45.45105" lon="4.75389">
        <ele>147.75</ele>
        <time>2019-05-25T13:18:19.000Z</time>
      </trkpt>
      <trkpt lat="45.45074" lon="4.75383">
        <ele>147.56</ele>
        <time>2019-05-25T13:18:24.000Z</time>
      </trkpt>
      <trkpt lat="45.45044" lon="4.75377">
        <ele>147.56</ele>
        <time>2019-05-25T13:18:29.000Z</time>
      </trkpt>
      <trkpt lat="45.45013" lon="4.75376">
        <ele>148.56</ele>
        <time>2019-05-25T13:18:34.000Z</time>
      </trkpt>
      <trkpt lat="45.44982" lon="4.75372">
        <ele>148.32</ele>
        <time>2019-05-25T13:18:39.000Z</time>
      </trkpt>
      <trkpt lat="45.44951" lon="4.75371">
        <ele>149.31</ele>
        <time>2019-05-25T13:18:44.000Z</time>
      </trkpt>
      <trkpt lat="45.4492" lon="4.75369">
        <ele>148.56</ele>
        <time>2019-05-25T13:18:49.000Z</time>
      </trkpt>
      <trkpt lat="45.4489" lon="4.75367">
        <ele>147.57</ele>
        <time>2019-05-25T13:18:54.000Z</time>
      </trkpt>
      <trkpt lat="45.4486" lon="4.75367">
        <ele>148.79</ele>
        <time>2019-05-25T13:18:59.000Z</time>
      </trkpt>
      <trkpt lat="45.44829" lon="4.75371">
        <ele>147.31</ele>
        <time>2019-05-25T13:19:04.000Z</time>
      </trkpt>
      <trkpt lat="45.44799" lon="4.75376">
        <ele>147.31</ele>
        <time>2019-05-25T13:19:09.000Z</time>
      </trkpt>
      <trkpt lat="45.44768" lon="4.75384">
        <ele>146.57</ele>
        <time>2019-05-25T13:19:14.000Z</time>
      </trkpt>
      <trkpt lat="45.44737" lon="4.75393">
        <ele>146.6</ele>
        <time>2019-05-25T13:19:19.000Z</time>
      </trkpt>
      <trkpt lat="45.44707" lon="4.75404">
        <ele>146.56</ele>
        <time>2019-05-25T13:19:24.000Z</time>
      </trkpt>
      <trkpt lat="45.44678" lon="4.75415">
        <ele>146.56</ele>
        <time>2019-05-25T13:19:29.000Z</time>
      </trkpt>
      <trkpt lat="45.4465" lon="4.75426">
        <ele>148.49</ele>
        <time>2019-05-25T13:19:34.000Z</time>
      </trkpt>
      <trkpt lat="45.44622" lon="4.7544">
        <ele>149.31</ele>
        <time>2019-05-25T13:19:39.000Z</time>
      </trkpt>
      <trkpt lat="45.44593" lon="4.75448">
        <ele>148.81</ele>
        <time>2019-05-25T13:19:44.000Z</time>
      </trkpt>
      <trkpt lat="45.44564" lon="4.75461">
        <ele>148.56</ele>
        <time>2019-05-25T13:19:49.000Z</time>
      </trkpt>
      <trkpt lat="45.44535" lon="4.75473">
        <ele>147.56</ele>
        <time>2019-05-25T13:19:54.000Z</time>
      </trkpt>
      <trkpt lat="45.44505" lon="4.75487">
        <ele>146.56</ele>
        <time>2019-05-25T13:19:59.000Z</time>
      </trkpt>
      <trkpt lat="45.44476" lon="4.75494">
        <ele>147.54</ele>
        <time>2019-05-25T13:20:04.000Z</time>
      </trkpt>
      <trkpt lat="45.44447" lon="4.75494">
        <ele>148.55</ele>
        <time>2019-05-25T13:20:09.000Z</time>
      </trkpt>
      <trkpt lat="45.44418" lon="4.75492">
        <ele>148.57</ele>
        <time>2019-05-25T13:20:14.000Z</time>
      </trkpt>
      <trkpt lat="45.44389" lon="4.755">
        <ele>146.57</ele>
        <time>2019-05-25T13:20:19.000Z</time>
      </trkpt>
      <trkpt lat="45.44363" lon="4.7552">
        <ele>146.56</ele>
        <time>2019-05-25T13:20:24.000Z</time>
      </trkpt>
      <trkpt lat="45.44337" lon="4.7554">
        <ele>148.3</ele>
        <time>2019-05-25T13:20:29.000Z</time>
      </trkpt>
      <trkpt lat="45.44309" lon="4.75556">
        <ele>147.81</ele>
        <time>2019-05-25T13:20:34.000Z</time>
      </trkpt>
      <trkpt lat="45.4428" lon="4.75566">
        <ele>147.56</ele>
        <time>2019-05-25T13:20:39.000Z</time>
      </trkpt>
      <trkpt lat="45.44252" lon="4.75567">
        <ele>148.54</ele>
        <time>2019-05-25T13:20:44.000Z</time>
      </trkpt>
      <trkpt lat="45.44226" lon="4.75551">
        <ele>148.57</ele>
        <time>2019-05-25T13:20:49.000Z</time>
      </trkpt>
      <trkpt lat="45.44198" lon="4.75532">
        <ele>148.55</ele>
        <time>2019-05-25T13:20:54.000Z</time>
      </trkpt>
      <trkpt lat="45.44168" lon="4.75529">
        <ele>146.82</ele>
        <time>2019-05-25T13:20:59.000Z</time>
      </trkpt>
      <trkpt lat="45.44138" lon="4.75536">
        <ele>147.55</ele>
        <time>2019-05-25T13:21:04.000Z</time>
      </trkpt>
      <trkpt lat="45.44115" lon="4.75566">
        <ele>146.56</ele>
        <time>2019-05-25T13:21:09.000Z</time>
      </trkpt>
      <trkpt lat="45.441" lon="4.75606">
        <ele>145.8</ele>
        <time>2019-05-25T13:21:14.000Z</time>
      </trkpt>
      <trkpt lat="45.44081" lon="4.75642">
        <ele>149.27</ele>
        <time>2019-05-25T13:21:19.000Z</time>
      </trkpt>
      <trkpt lat="45.44055" lon="4.75661">
        <ele>149.57</ele>
        <time>2019-05-25T13:21:24.000Z</time>
      </trkpt>
      <trkpt lat="45.44025" lon="4.75673">
        <ele>148.52</ele>
        <time>2019-05-25T13:21:29.000Z</time>
      </trkpt>
      <trkpt lat="45.43995" lon="4.75676">
        <ele>147.57</ele>
        <time>2019-05-25T13:21:34.000Z</time>
      </trkpt>
      <trkpt lat="45.43965" lon="4.75671">
        <ele>147.6</ele>
        <time>2019-05-25T13:21:39.000Z</time>
      </trkpt>
      <trkpt lat="45.43935" lon="4.75663">
        <ele>146.57</ele>
        <time>2019-05-25T13:21:44.000Z</time>
      </trkpt>
      <trkpt lat="45.43904" lon="4.75646">
        <ele>145.61</ele>
        <time>2019-05-25T13:21:49.000Z</time>
      </trkpt>
      <trkpt lat="45.43872" lon="4.75641">
        <ele>146.54</ele>
        <time>2019-05-25T13:21:54.000Z</time>
      </trkpt>
      <trkpt lat="45.43842" lon="4.7564">
        <ele>144.12</ele>
        <time>2019-05-25T13:21:59.000Z</time>
      </trkpt>
      <trkpt lat="45.4381" lon="4.75645">
        <ele>143.54</ele>
        <time>2019-05-25T13:22:04.000Z</time>
      </trkpt>
      <trkpt lat="45.43782" lon="4.75656">
        <ele>142.57</ele>
        <time>2019-05-25T13:22:09.000Z</time>
      </trkpt>
      <trkpt lat="45.43752" lon="4.75673">
        <ele>145.23</ele>
        <time>2019-05-25T13:22:14.000Z</time>
      </trkpt>
      <trkpt lat="45.43731" lon="4.75702">
        <ele>143.79</ele>
        <time>2019-05-25T13:22:19.000Z</time>
      </trkpt>
      <trkpt lat="45.43707" lon="4.7573">
        <ele>144.49</ele>
        <time>2019-05-25T13:22:24.000Z</time>
      </trkpt>
      <trkpt lat="45.4368" lon="4.75747">
        <ele>146.24</ele>
        <time>2019-05-25T13:22:29.000Z</time>
      </trkpt>
      <trkpt lat="45.43652" lon="4.75756">
        <ele>146.49</ele>
        <time>2019-05-25T13:22:34.000Z</time>
      </trkpt>
      <trkpt lat="45.43623" lon="4.75756">
        <ele>148.29</ele>
        <time>2019-05-25T13:22:39.000Z</time>
      </trkpt>
      <trkpt lat="45.43593" lon="4.75754">
        <ele>147.6</ele>
        <time>2019-05-25T13:22:44.000Z</time>
      </trkpt>
      <trkpt lat="45.43564" lon="4.75747">
        <ele>147.55</ele>
        <time>2019-05-25T13:22:49.000Z</time>
      </trkpt>
      <trkpt lat="45.43534" lon="4.75739">
        <ele>147.55</ele>
        <time>2019-05-25T13:22:54.000Z</time>
      </trkpt>
      <trkpt lat="45.43505" lon="4.75729">
        <ele>148.53</ele>
        <time>2019-05-25T13:22:59.000Z</time>
      </trkpt>
      <trkpt lat="45.43475" lon="4.75716">
        <ele>148.56</ele>
        <time>2019-05-25T13:23:04.000Z</time>
      </trkpt>
      <trkpt lat="45.43448" lon="4.75698">
        <ele>149.3</ele>
        <time>2019-05-25T13:23:09.000Z</time>
      </trkpt>
      <trkpt lat="45.43424" lon="4.75671">
        <ele>148.56</ele>
        <time>2019-05-25T13:23:14.000Z</time>
      </trkpt>
      <trkpt lat="45.43404" lon="4.75639">
        <ele>146.54</ele>
        <time>2019-05-25T13:23:19.000Z</time>
      </trkpt>
      <trkpt lat="45.4338" lon="4.75614">
        <ele>146.54</ele>
        <time>2019-05-25T13:23:24.000Z</time>
      </trkpt>
      <trkpt lat="45.43351" lon="4.75596">
        <ele>145.75</ele>
        <time>2019-05-25T13:23:29.000Z</time>
      </trkpt>
      <trkpt lat="45.43321" lon="4.7558">
        <ele>146.54</ele>
        <time>2019-05-25T13:23:34.000Z</time>
      </trkpt>
      <trkpt lat="45.43294" lon="4.75564">
        <ele>147.54</ele>
        <time>2019-05-25T13:23:39.000Z</time>
      </trkpt>
      <trkpt lat="45.43264" lon="4.75545">
        <ele>147.34</ele>
        <time>2019-05-25T13:23:44.000Z</time>
      </trkpt>
      <trkpt lat="45.43237" lon="4.75524">
        <ele>145.55</ele>
        <time>2019-05-25T13:23:49.000Z</time>
      </trkpt>
      <trkpt lat="45.43212" lon="4.75501">
        <ele>145.54</ele>
        <time>2019-05-25T13:23:54.000Z</time>
      </trkpt>
      <trkpt lat="45.43189" lon="4.75477">
        <ele>144.54</ele>
        <time>2019-05-25T13:23:59.000Z</time>
      </trkpt>
      <trkpt lat="45.43164" lon="4.75448">
        <ele>144.49</ele>
        <time>2019-05-25T13:24:04.000Z</time>
      </trkpt>
      <trkpt lat="45.43142" lon="4.7542">
        <ele>146.47</ele>
        <time>2019-05-25T13:24:09.000Z</time>
      </trkpt>
      <trkpt lat="45.4312" lon="4.75394">
        <ele>147.52</ele>
        <time>2019-05-25T13:24:14.000Z</time>
      </trkpt>
      <trkpt lat="45.43102" lon="4.75361">
        <ele>146.78</ele>
        <time>2019-05-25T13:24:19.000Z</time>
      </trkpt>
      <trkpt lat="45.43084" lon="4.75329">
        <ele>147.52</ele>
        <time>2019-05-25T13:24:24.000Z</time>
      </trkpt>
      <trkpt lat="45.43066" lon="4.75295">
        <ele>148.53</ele>
        <time>2019-05-25T13:24:29.000Z</time>
      </trkpt>
      <trkpt lat="45.43047" lon="4.75262">
        <ele>147.59</ele>
        <time>2019-05-25T13:24:34.000Z</time>
      </trkpt>
      <trkpt lat="45.43027" lon="4.75229">
        <ele>146.41</ele>
        <time>2019-05-25T13:24:39.000Z</time>
      </trkpt>
      <trkpt lat="45.43006" lon="4.75198">
        <ele>146.53</ele>
        <time>2019-05-25T13:24:44.000Z</time>
      </trkpt>
      <trkpt lat="45.42986" lon="4.75167">
        <ele>146.54</ele>
        <time>2019-05-25T13:24:49.000Z</time>
      </trkpt>
      <trkpt lat="45.42965" lon="4.75137">
        <ele>146.53</ele>
        <time>2019-05-25T13:24:54.000Z</time>
      </trkpt>
      <trkpt lat="45.42943" lon="4.75108">
        <ele>147.46</ele>
        <time>2019-05-25T13:24:59.000Z</time>
      </trkpt>
      <trkpt lat="45.4292" lon="4.75077">
        <ele>148.28</ele>
        <time>2019-05-25T13:25:04.000Z</time>
      </trkpt>
      <trkpt lat="45.42897" lon="4.75047">
        <ele>149.27</ele>
        <time>2019-05-25T13:25:09.000Z</time>
      </trkpt>
      <trkpt lat="45.42873" lon="4.7502">
        <ele>148.52</ele>
        <time>2019-05-25T13:25:14.000Z</time>
      </trkpt>
      <trkpt lat="45.4285" lon="4.7499">
        <ele>147.53</ele>
        <time>2019-05-25T13:25:19.000Z</time>
      </trkpt>
      <trkpt lat="45.42828" lon="4.74964">
        <ele>146.58</ele>
        <time>2019-05-25T13:25:24.000Z</time>
      </trkpt>
      <trkpt lat="45.42804" lon="4.74936">
        <ele>147.5</ele>
        <time>2019-05-25T13:25:29.000Z</time>
      </trkpt>
      <trkpt lat="45.4278" lon="4.74905">
        <ele>147.72</ele>
        <time>2019-05-25T13:25:34.000Z</time>
      </trkpt>
      <trkpt lat="45.42756" lon="4.74876">
        <ele>146.48</ele>
        <time>2019-05-25T13:25:39.000Z</time>
      </trkpt>
      <trkpt lat="45.42732" lon="4.74847">
        <ele>146.52</ele>
        <time>2019-05-25T13:25:44.000Z</time>
      </trkpt>
      <trkpt lat="45.42709" lon="4.74819">
        <ele>146.28</ele>
        <time>2019-05-25T13:25:49.000Z</time>
      </trkpt>
      <trkpt lat="45.42687" lon="4.74792">
        <ele>145.72</ele>
        <time>2019-05-25T13:25:54.000Z</time>
      </trkpt>
      <trkpt lat="45.42663" lon="4.74764">
        <ele>145.56</ele>
        <time>2019-05-25T13:25:59.000Z</time>
      </trkpt>
      <trkpt lat="45.42641" lon="4.74735">
        <ele>144.53</ele>
        <time>2019-05-25T13:26:04.000Z</time>
      </trkpt>
      <trkpt lat="45.42618" lon="4.74708">
        <ele>145.5</ele>
        <time>2019-05-25T13:26:09.000Z</time>
      </trkpt>
      <trkpt lat="45.42595" lon="4.74681">
        <ele>146.49</ele>
        <time>2019-05-25T13:26:14.000Z</time>
      </trkpt>
      <trkpt lat="45.42572" lon="4.74654">
        <ele>147.45</ele>
        <time>2019-05-25T13:26:19.000Z</time>
      </trkpt>
      <trkpt lat="45.4255" lon="4.74625">
        <ele>146.76</ele>
        <time>2019-05-25T13:26:24.000Z</time>
      </trkpt>
      <trkpt lat="45.42528" lon="4.74598">
        <ele>147.49</ele>
        <time>2019-05-25T13:26:29.000Z</time>
      </trkpt>
      <trkpt lat="45.42503" lon="4.74568">
        <ele>147.51</ele>
        <time>2019-05-25T13:26:34.000Z</time>
      </trkpt>
      <trkpt lat="45.4248" lon="4.74542">
        <ele>148.46</ele>
        <time>2019-05-25T13:26:39.000Z</time>
      </trkpt>
      <trkpt lat="45.42458" lon="4.74514">
        <ele>148.3</ele>
        <time>2019-05-25T13:26:44.000Z</time>
      </trkpt>
      <trkpt lat="45.42436" lon="4.74485">
        <ele>148.5</ele>
        <time>2019-05-25T13:26:49.000Z</time>
      </trkpt>
      <trkpt lat="45.42412" lon="4.74458">
        <ele>147.46</ele>
        <time>2019-05-25T13:26:54.000Z</time>
      </trkpt>
      <trkpt lat="45.4239" lon="4.74431">
        <ele>148.25</ele>
        <time>2019-05-25T13:26:59.000Z</time>
      </trkpt>
      <trkpt lat="45.42367" lon="4.74403">
        <ele>147.5</ele>
        <time>2019-05-25T13:27:04.000Z</time>
      </trkpt>
      <trkpt lat="45.42344" lon="4.74376">
        <ele>147.7</ele>
        <time>2019-05-25T13:27:09.000Z</time>
      </trkpt>
      <trkpt lat="45.42322" lon="4.74349">
        <ele>146.55</ele>
        <time>2019-05-25T13:27:14.000Z</time>
      </trkpt>
      <trkpt lat="45.423" lon="4.74321">
        <ele>147.43</ele>
        <time>2019-05-25T13:27:19.000Z</time>
      </trkpt>
      <trkpt lat="45.42276" lon="4.74292">
        <ele>147.5</ele>
        <time>2019-05-25T13:27:24.000Z</time>
      </trkpt>
      <trkpt lat="45.42252" lon="4.74266">
        <ele>148.24</ele>
        <time>2019-05-25T13:27:29.000Z</time>
      </trkpt>
      <trkpt lat="45.42226" lon="4.74241">
        <ele>147.49</ele>
        <time>2019-05-25T13:27:34.000Z</time>
      </trkpt>
      <trkpt lat="45.42199" lon="4.74218">
        <ele>147.49</ele>
        <time>2019-05-25T13:27:39.000Z</time>
      </trkpt>
      <trkpt lat="45.42172" lon="4.74198">
        <ele>147.49</ele>
        <time>2019-05-25T13:27:44.000Z</time>
      </trkpt>
      <trkpt lat="45.42144" lon="4.74177">
        <ele>145.55</ele>
        <time>2019-05-25T13:27:49.000Z</time>
      </trkpt>
      <trkpt lat="45.42116" lon="4.74159">
        <ele>145.49</ele>
        <time>2019-05-25T13:27:54.000Z</time>
      </trkpt>
      <trkpt lat="45.42089" lon="4.74143">
        <ele>146.43</ele>
        <time>2019-05-25T13:27:59.000Z</time>
      </trkpt>
      <trkpt lat="45.42061" lon="4.74127">
        <ele>147.24</ele>
        <time>2019-05-25T13:28:04.000Z</time>
      </trkpt>
      <trkpt lat="45.42032" lon="4.74113">
        <ele>145.75</ele>
        <time>2019-05-25T13:28:09.000Z</time>
      </trkpt>
      <trkpt lat="45.42003" lon="4.74101">
        <ele>147.42</ele>
        <time>2019-05-25T13:28:14.000Z</time>
      </trkpt>
      <trkpt lat="45.41974" lon="4.74086">
        <ele>147.49</ele>
        <time>2019-05-25T13:28:19.000Z</time>
      </trkpt>
      <trkpt lat="45.41944" lon="4.74075">
        <ele>148.47</ele>
        <time>2019-05-25T13:28:24.000Z</time>
      </trkpt>
      <trkpt lat="45.41915" lon="4.74064">
        <ele>148.48</ele>
        <time>2019-05-25T13:28:29.000Z</time>
      </trkpt>
      <trkpt lat="45.41885" lon="4.74056">
        <ele>148.48</ele>
        <time>2019-05-25T13:28:34.000Z</time>
      </trkpt>
      <trkpt lat="45.41855" lon="4.74046">
        <ele>147.55</ele>
        <time>2019-05-25T13:28:39.000Z</time>
      </trkpt>
      <trkpt lat="45.41825" lon="4.74039">
        <ele>147.23</ele>
        <time>2019-05-25T13:28:44.000Z</time>
      </trkpt>
      <trkpt lat="45.41797" lon="4.74032">
        <ele>147.48</ele>
        <time>2019-05-25T13:28:49.000Z</time>
      </trkpt>
      <trkpt lat="45.41777" lon="4.74026">
        <ele>148.42</ele>
        <time>2019-05-25T13:28:54.000Z</time>
      </trkpt>
      <trkpt lat="45.41764" lon="4.74024">
        <ele>147.48</ele>
        <time>2019-05-25T13:28:59.000Z</time>
      </trkpt>
      <trkpt lat="45.41743" lon="4.74021">
        <ele>147.48</ele>
        <time>2019-05-25T13:29:04.000Z</time>
      </trkpt>
      <trkpt lat="45.41727" lon="4.74018">
        <ele>147.48</ele>
        <time>2019-05-25T13:29:09.000Z</time>
      </trkpt>
      <trkpt lat="45.41716" lon="4.74018">
        <ele>147.48</ele>
        <time>2019-05-25T13:29:14.000Z</time>
      </trkpt>
      <trkpt lat="45.41696" lon="4.74015">
        <ele>147.48</ele>
        <time>2019-05-25T13:29:19.000Z</time>
      </trkpt>
      <trkpt lat="45.4167" lon="4.74013">
        <ele>146.5</ele>
        <time>2019-05-25T13:29:24.000Z</time>
      </trkpt>
      <trkpt lat="45.41644" lon="4.74011">
        <ele>146.42</ele>
        <time>2019-05-25T13:29:29.000Z</time>
      </trkpt>
      <trkpt lat="45.41615" lon="4.74005">
        <ele>146.53</ele>
        <time>2019-05-25T13:29:34.000Z</time>
      </trkpt>
      <trkpt lat="45.41586" lon="4.74008">
        <ele>146.48</ele>
        <time>2019-05-25T13:29:39.000Z</time>
      </trkpt>
      <trkpt lat="45.41557" lon="4.74009">
        <ele>143.26</ele>
        <time>2019-05-25T13:29:44.000Z</time>
      </trkpt>
      <trkpt lat="45.41528" lon="4.74012">
        <ele>144.23</ele>
        <time>2019-05-25T13:29:49.000Z</time>
      </trkpt>
      <trkpt lat="45.41499" lon="4.74014">
        <ele>144.66</ele>
        <time>2019-05-25T13:29:54.000Z</time>
      </trkpt>
      <trkpt lat="45.41476" lon="4.73999">
        <ele>144.48</ele>
        <time>2019-05-25T13:29:59.000Z</time>
      </trkpt>
      <trkpt lat="45.4147" lon="4.73962">
        <ele>145.47</ele>
        <time>2019-05-25T13:30:04.000Z</time>
      </trkpt>
      <trkpt lat="45.41472" lon="4.73924">
        <ele>146.22</ele>
        <time>2019-05-25T13:30:09.000Z</time>
      </trkpt>
      <trkpt lat="45.41468" lon="4.73885">
        <ele>145.47</ele>
        <time>2019-05-25T13:30:14.000Z</time>
      </trkpt>
      <trkpt lat="45.41462" lon="4.73849">
        <ele>146.41</ele>
        <time>2019-05-25T13:30:19.000Z</time>
      </trkpt>
      <trkpt lat="45.41454" lon="4.73814">
        <ele>147.41</ele>
        <time>2019-05-25T13:30:24.000Z</time>
      </trkpt>
      <trkpt lat="45.41445" lon="4.73781">
        <ele>147.46</ele>
        <time>2019-05-25T13:30:29.000Z</time>
      </trkpt>
      <trkpt lat="45.41438" lon="4.73748">
        <ele>147.47</ele>
        <time>2019-05-25T13:30:34.000Z</time>
      </trkpt>
      <trkpt lat="45.41423" lon="4.73746">
        <ele>148.46</ele>
        <time>2019-05-25T13:30:39.000Z</time>
      </trkpt>
      <trkpt lat="45.41403" lon="4.73746">
        <ele>149.41</ele>
        <time>2019-05-25T13:30:44.000Z</time>
      </trkpt>
      <trkpt lat="45.41401" lon="4.73761">
        <ele>149.53</ele>
        <time>2019-05-25T13:30:59.000Z</time>
      </trkpt>
      <trkpt lat="45.41407" lon="4.73795">
        <ele>149.28</ele>
        <time>2019-05-25T13:31:04.000Z</time>
      </trkpt>
      <trkpt lat="45.41412" lon="4.73832">
        <ele>150.22</ele>
        <time>2019-05-25T13:31:09.000Z</time>
      </trkpt>
      <trkpt lat="45.41418" lon="4.73869">
        <ele>150.47</ele>
        <time>2019-05-25T13:31:14.000Z</time>
      </trkpt>
      <trkpt lat="45.41421" lon="4.73908">
        <ele>150.66</ele>
        <time>2019-05-25T13:31:19.000Z</time>
      </trkpt>
      <trkpt lat="45.4142" lon="4.73948">
        <ele>150.71</ele>
        <time>2019-05-25T13:31:24.000Z</time>
      </trkpt>
      <trkpt lat="45.41414" lon="4.7399">
        <ele>149.54</ele>
        <time>2019-05-25T13:31:29.000Z</time>
      </trkpt>
      <trkpt lat="45.41401" lon="4.74023">
        <ele>147.74</ele>
        <time>2019-05-25T13:31:34.000Z</time>
      </trkpt>
      <trkpt lat="45.41374" lon="4.74034">
        <ele>146.73</ele>
        <time>2019-05-25T13:31:39.000Z</time>
      </trkpt>
      <trkpt lat="45.41345" lon="4.74037">
        <ele>146.54</ele>
        <time>2019-05-25T13:31:44.000Z</time>
      </trkpt>
      <trkpt lat="45.41315" lon="4.74042">
        <ele>146.48</ele>
        <time>2019-05-25T13:31:49.000Z</time>
      </trkpt>
      <trkpt lat="45.41284" lon="4.74048">
        <ele>146.49</ele>
        <time>2019-05-25T13:31:54.000Z</time>
      </trkpt>
      <trkpt lat="45.41255" lon="4.7405">
        <ele>144.99</ele>
        <time>2019-05-25T13:31:59.000Z</time>
      </trkpt>
      <trkpt lat="45.41229" lon="4.74047">
        <ele>144.47</ele>
        <time>2019-05-25T13:32:04.000Z</time>
      </trkpt>
      <trkpt lat="45.41221" lon="4.74012">
        <ele>143.48</ele>
        <time>2019-05-25T13:32:09.000Z</time>
      </trkpt>
      <trkpt lat="45.41202" lon="4.73988">
        <ele>143.47</ele>
        <time>2019-05-25T13:32:14.000Z</time>
      </trkpt>
      <trkpt lat="45.41172" lon="4.73998">
        <ele>142.52</ele>
        <time>2019-05-25T13:32:19.000Z</time>
      </trkpt>
      <trkpt lat="45.41142" lon="4.74007">
        <ele>142.47</ele>
        <time>2019-05-25T13:32:24.000Z</time>
      </trkpt>
      <trkpt lat="45.4111" lon="4.74012">
        <ele>142.53</ele>
        <time>2019-05-25T13:32:29.000Z</time>
      </trkpt>
      <trkpt lat="45.41078" lon="4.74018">
        <ele>141.48</ele>
        <time>2019-05-25T13:32:34.000Z</time>
      </trkpt>
      <trkpt lat="45.41048" lon="4.74028">
        <ele>141.48</ele>
        <time>2019-05-25T13:32:39.000Z</time>
      </trkpt>
      <trkpt lat="45.41016" lon="4.74039">
        <ele>141.47</ele>
        <time>2019-05-25T13:32:44.000Z</time>
      </trkpt>
      <trkpt lat="45.40985" lon="4.74052">
        <ele>141.47</ele>
        <time>2019-05-25T13:32:49.000Z</time>
      </trkpt>
      <trkpt lat="45.40955" lon="4.74068">
        <ele>142.46</ele>
        <time>2019-05-25T13:32:54.000Z</time>
      </trkpt>
      <trkpt lat="45.40925" lon="4.74082">
        <ele>143.22</ele>
        <time>2019-05-25T13:32:59.000Z</time>
      </trkpt>
      <trkpt lat="45.40895" lon="4.741">
        <ele>143.22</ele>
        <time>2019-05-25T13:33:04.000Z</time>
      </trkpt>
      <trkpt lat="45.40867" lon="4.74116">
        <ele>142.49</ele>
        <time>2019-05-25T13:33:09.000Z</time>
      </trkpt>
      <trkpt lat="45.40838" lon="4.74133">
        <ele>141.53</ele>
        <time>2019-05-25T13:33:14.000Z</time>
      </trkpt>
      <trkpt lat="45.40812" lon="4.74149">
        <ele>140.55</ele>
        <time>2019-05-25T13:33:19.000Z</time>
      </trkpt>
      <trkpt lat="45.40783" lon="4.74169">
        <ele>139.24</ele>
        <time>2019-05-25T13:33:24.000Z</time>
      </trkpt>
      <trkpt lat="45.40759" lon="4.74185">
        <ele>140.47</ele>
        <time>2019-05-25T13:33:29.000Z</time>
      </trkpt>
      <trkpt lat="45.40735" lon="4.74204">
        <ele>140.47</ele>
        <time>2019-05-25T13:33:34.000Z</time>
      </trkpt>
      <trkpt lat="45.40707" lon="4.7422">
        <ele>140.47</ele>
        <time>2019-05-25T13:33:39.000Z</time>
      </trkpt>
      <trkpt lat="45.40679" lon="4.74239">
        <ele>142.58</ele>
        <time>2019-05-25T13:33:44.000Z</time>
      </trkpt>
      <trkpt lat="45.4065" lon="4.74259">
        <ele>141.47</ele>
        <time>2019-05-25T13:33:49.000Z</time>
      </trkpt>
      <trkpt lat="45.40622" lon="4.74275">
        <ele>140.53</ele>
        <time>2019-05-25T13:33:54.000Z</time>
      </trkpt>
      <trkpt lat="45.40595" lon="4.74295">
        <ele>140.47</ele>
        <time>2019-05-25T13:33:59.000Z</time>
      </trkpt>
      <trkpt lat="45.40567" lon="4.74314">
        <ele>141.22</ele>
        <time>2019-05-25T13:34:04.000Z</time>
      </trkpt>
      <trkpt lat="45.4054" lon="4.74333">
        <ele>141.47</ele>
        <time>2019-05-25T13:34:09.000Z</time>
      </trkpt>
      <trkpt lat="45.40514" lon="4.74353">
        <ele>140.54</ele>
        <time>2019-05-25T13:34:14.000Z</time>
      </trkpt>
      <trkpt lat="45.40489" lon="4.74374">
        <ele>138.49</ele>
        <time>2019-05-25T13:34:19.000Z</time>
      </trkpt>
      <trkpt lat="45.40464" lon="4.74395">
        <ele>137.72</ele>
        <time>2019-05-25T13:34:24.000Z</time>
      </trkpt>
      <trkpt lat="45.40438" lon="4.74419">
        <ele>139.47</ele>
        <time>2019-05-25T13:34:29.000Z</time>
      </trkpt>
      <trkpt lat="45.40412" lon="4.74445">
        <ele>140.46</ele>
        <time>2019-05-25T13:34:34.000Z</time>
      </trkpt>
      <trkpt lat="45.40386" lon="4.74471">
        <ele>140.49</ele>
        <time>2019-05-25T13:34:39.000Z</time>
      </trkpt>
      <trkpt lat="45.40364" lon="4.74493">
        <ele>141.47</ele>
        <time>2019-05-25T13:34:44.000Z</time>
      </trkpt>
      <trkpt lat="45.4034" lon="4.74519">
        <ele>141.46</ele>
        <time>2019-05-25T13:34:49.000Z</time>
      </trkpt>
      <trkpt lat="45.40316" lon="4.74545">
        <ele>144.47</ele>
        <time>2019-05-25T13:34:54.000Z</time>
      </trkpt>
      <trkpt lat="45.40293" lon="4.74569">
        <ele>143.48</ele>
        <time>2019-05-25T13:34:59.000Z</time>
      </trkpt>
      <trkpt lat="45.40271" lon="4.74591">
        <ele>143.24</ele>
        <time>2019-05-25T13:35:04.000Z</time>
      </trkpt>
      <trkpt lat="45.40249" lon="4.74613">
        <ele>142.48</ele>
        <time>2019-05-25T13:35:09.000Z</time>
      </trkpt>
      <trkpt lat="45.40227" lon="4.74633">
        <ele>141.73</ele>
        <time>2019-05-25T13:35:14.000Z</time>
      </trkpt>
      <trkpt lat="45.40204" lon="4.74654">
        <ele>141.72</ele>
        <time>2019-05-25T13:35:19.000Z</time>
      </trkpt>
      <trkpt lat="45.40181" lon="4.74675">
        <ele>140.49</ele>
        <time>2019-05-25T13:35:24.000Z</time>
      </trkpt>
      <trkpt lat="45.40158" lon="4.74697">
        <ele>139.73</ele>
        <time>2019-05-25T13:35:29.000Z</time>
      </trkpt>
      <trkpt lat="45.40133" lon="4.7472">
        <ele>139.48</ele>
        <time>2019-05-25T13:35:34.000Z</time>
      </trkpt>
      <trkpt lat="45.40107" lon="4.74744">
        <ele>139.48</ele>
        <time>2019-05-25T13:35:39.000Z</time>
      </trkpt>
      <trkpt lat="45.40096" lon="4.7478">
        <ele>139.47</ele>
        <time>2019-05-25T13:35:44.000Z</time>
      </trkpt>
      <trkpt lat="45.40107" lon="4.7481">
        <ele>140.42</ele>
        <time>2019-05-25T13:35:49.000Z</time>
      </trkpt>
      <trkpt lat="45.401" lon="4.74837">
        <ele>140.47</ele>
        <time>2019-05-25T13:35:54.000Z</time>
      </trkpt>
      <trkpt lat="45.40088" lon="4.74853">
        <ele>142.23</ele>
        <time>2019-05-25T13:35:59.000Z</time>
      </trkpt>
      <trkpt lat="45.40078" lon="4.74869">
        <ele>143.43</ele>
        <time>2019-05-25T13:36:04.000Z</time>
      </trkpt>
      <trkpt lat="45.40065" lon="4.74889">
        <ele>143.48</ele>
        <time>2019-05-25T13:36:09.000Z</time>
      </trkpt>
      <trkpt lat="45.40045" lon="4.74906">
        <ele>143.48</ele>
        <time>2019-05-25T13:36:14.000Z</time>
      </trkpt>
      <trkpt lat="45.40025" lon="4.74927">
        <ele>144.47</ele>
        <time>2019-05-25T13:36:19.000Z</time>
      </trkpt>
      <trkpt lat="45.40003" lon="4.74948">
        <ele>143.49</ele>
        <time>2019-05-25T13:36:24.000Z</time>
      </trkpt>
      <trkpt lat="45.3998" lon="4.74969">
        <ele>143.48</ele>
        <time>2019-05-25T13:36:29.000Z</time>
      </trkpt>
      <trkpt lat="45.39956" lon="4.74993">
        <ele>144.48</ele>
        <time>2019-05-25T13:36:34.000Z</time>
      </trkpt>
      <trkpt lat="45.39932" lon="4.75017">
        <ele>144.48</ele>
        <time>2019-05-25T13:36:39.000Z</time>
      </trkpt>
      <trkpt lat="45.39908" lon="4.7504">
        <ele>145.23</ele>
        <time>2019-05-25T13:36:44.000Z</time>
      </trkpt>
      <trkpt lat="45.39882" lon="4.7506">
        <ele>145.24</ele>
        <time>2019-05-25T13:36:49.000Z</time>
      </trkpt>
      <trkpt lat="45.39855" lon="4.75076">
        <ele>144.73</ele>
        <time>2019-05-25T13:36:54.000Z</time>
      </trkpt>
      <trkpt lat="45.39828" lon="4.75095">
        <ele>143.49</ele>
        <time>2019-05-25T13:36:59.000Z</time>
      </trkpt>
      <trkpt lat="45.39802" lon="4.75114">
        <ele>142.73</ele>
        <time>2019-05-25T13:37:04.000Z</time>
      </trkpt>
      <trkpt lat="45.39781" lon="4.75145">
        <ele>143.42</ele>
        <time>2019-05-25T13:37:09.000Z</time>
      </trkpt>
      <trkpt lat="45.39756" lon="4.75168">
        <ele>142.73</ele>
        <time>2019-05-25T13:37:14.000Z</time>
      </trkpt>
      <trkpt lat="45.3973" lon="4.7519">
        <ele>143.48</ele>
        <time>2019-05-25T13:37:19.000Z</time>
      </trkpt>
      <trkpt lat="45.39702" lon="4.75205">
        <ele>143.48</ele>
        <time>2019-05-25T13:37:24.000Z</time>
      </trkpt>
      <trkpt lat="45.39672" lon="4.75211">
        <ele>144.48</ele>
        <time>2019-05-25T13:37:29.000Z</time>
      </trkpt>
      <trkpt lat="45.39641" lon="4.75218">
        <ele>145.47</ele>
        <time>2019-05-25T13:37:34.000Z</time>
      </trkpt>
      <trkpt lat="45.39612" lon="4.75237">
        <ele>144.49</ele>
        <time>2019-05-25T13:37:39.000Z</time>
      </trkpt>
      <trkpt lat="45.39584" lon="4.75255">
        <ele>145.47</ele>
        <time>2019-05-25T13:37:44.000Z</time>
      </trkpt>
      <trkpt lat="45.39562" lon="4.75282">
        <ele>145.48</ele>
        <time>2019-05-25T13:37:49.000Z</time>
      </trkpt>
      <trkpt lat="45.3954" lon="4.75309">
        <ele>145.67</ele>
        <time>2019-05-25T13:37:54.000Z</time>
      </trkpt>
      <trkpt lat="45.39513" lon="4.75325">
        <ele>145.48</ele>
        <time>2019-05-25T13:37:59.000Z</time>
      </trkpt>
      <trkpt lat="45.39486" lon="4.75339">
        <ele>145.48</ele>
        <time>2019-05-25T13:38:04.000Z</time>
      </trkpt>
      <trkpt lat="45.39457" lon="4.75347">
        <ele>146.28</ele>
        <time>2019-05-25T13:38:09.000Z</time>
      </trkpt>
      <trkpt lat="45.39429" lon="4.75354">
        <ele>145.53</ele>
        <time>2019-05-25T13:38:14.000Z</time>
      </trkpt>
      <trkpt lat="45.39399" lon="4.75361">
        <ele>145.48</ele>
        <time>2019-05-25T13:38:19.000Z</time>
      </trkpt>
      <trkpt lat="45.39369" lon="4.75372">
        <ele>145.48</ele>
        <time>2019-05-25T13:38:24.000Z</time>
      </trkpt>
      <trkpt lat="45.39339" lon="4.75386">
        <ele>144.73</ele>
        <time>2019-05-25T13:38:29.000Z</time>
      </trkpt>
      <trkpt lat="45.3931" lon="4.75404">
        <ele>145.67</ele>
        <time>2019-05-25T13:38:34.000Z</time>
      </trkpt>
      <trkpt lat="45.39285" lon="4.75426">
        <ele>144.55</ele>
        <time>2019-05-25T13:38:39.000Z</time>
      </trkpt>
      <trkpt lat="45.39261" lon="4.75448">
        <ele>144.43</ele>
        <time>2019-05-25T13:38:44.000Z</time>
      </trkpt>
      <trkpt lat="45.39233" lon="4.75463">
        <ele>145.48</ele>
        <time>2019-05-25T13:38:49.000Z</time>
      </trkpt>
      <trkpt lat="45.39202" lon="4.75467">
        <ele>145.48</ele>
        <time>2019-05-25T13:38:54.000Z</time>
      </trkpt>
      <trkpt lat="45.39171" lon="4.7547">
        <ele>145.48</ele>
        <time>2019-05-25T13:38:59.000Z</time>
      </trkpt>
      <trkpt lat="45.3914" lon="4.75476">
        <ele>144.48</ele>
        <time>2019-05-25T13:39:04.000Z</time>
      </trkpt>
      <trkpt lat="45.3911" lon="4.75486">
        <ele>144.48</ele>
        <time>2019-05-25T13:39:09.000Z</time>
      </trkpt>
      <trkpt lat="45.39081" lon="4.75496">
        <ele>144.48</ele>
        <time>2019-05-25T13:39:14.000Z</time>
      </trkpt>
      <trkpt lat="45.39052" lon="4.75508">
        <ele>145.42</ele>
        <time>2019-05-25T13:39:19.000Z</time>
      </trkpt>
      <trkpt lat="45.39026" lon="4.75533">
        <ele>145.48</ele>
        <time>2019-05-25T13:39:24.000Z</time>
      </trkpt>
      <trkpt lat="45.38998" lon="4.75546">
        <ele>145.48</ele>
        <time>2019-05-25T13:39:29.000Z</time>
      </trkpt>
      <trkpt lat="45.38967" lon="4.75545">
        <ele>145.48</ele>
        <time>2019-05-25T13:39:34.000Z</time>
      </trkpt>
      <trkpt lat="45.38936" lon="4.75545">
        <ele>145.48</ele>
        <time>2019-05-25T13:39:39.000Z</time>
      </trkpt>
      <trkpt lat="45.38906" lon="4.75551">
        <ele>145.43</ele>
        <time>2019-05-25T13:39:44.000Z</time>
      </trkpt>
      <trkpt lat="45.38874" lon="4.75559">
        <ele>145.48</ele>
        <time>2019-05-25T13:39:49.000Z</time>
      </trkpt>
      <trkpt lat="45.38844" lon="4.75568">
        <ele>146.23</ele>
        <time>2019-05-25T13:39:54.000Z</time>
      </trkpt>
      <trkpt lat="45.38815" lon="4.75575">
        <ele>146.48</ele>
        <time>2019-05-25T13:39:59.000Z</time>
      </trkpt>
      <trkpt lat="45.38785" lon="4.75581">
        <ele>145.68</ele>
        <time>2019-05-25T13:40:04.000Z</time>
      </trkpt>
      <trkpt lat="45.38754" lon="4.75587">
        <ele>145.48</ele>
        <time>2019-05-25T13:40:09.000Z</time>
      </trkpt>
      <trkpt lat="45.38723" lon="4.75592">
        <ele>144.54</ele>
        <time>2019-05-25T13:40:14.000Z</time>
      </trkpt>
      <trkpt lat="45.38694" lon="4.75595">
        <ele>144.48</ele>
        <time>2019-05-25T13:40:19.000Z</time>
      </trkpt>
      <trkpt lat="45.38665" lon="4.75596">
        <ele>144.49</ele>
        <time>2019-05-25T13:40:24.000Z</time>
      </trkpt>
      <trkpt lat="45.38637" lon="4.75594">
        <ele>144.46</ele>
        <time>2019-05-25T13:40:29.000Z</time>
      </trkpt>
      <trkpt lat="45.38607" lon="4.75589">
        <ele>143.48</ele>
        <time>2019-05-25T13:40:34.000Z</time>
      </trkpt>
      <trkpt lat="45.38576" lon="4.75583">
        <ele>143.48</ele>
        <time>2019-05-25T13:40:39.000Z</time>
      </trkpt>
      <trkpt lat="45.38546" lon="4.75575">
        <ele>144.66</ele>
        <time>2019-05-25T13:40:44.000Z</time>
      </trkpt>
      <trkpt lat="45.38518" lon="4.75562">
        <ele>144.54</ele>
        <time>2019-05-25T13:40:49.000Z</time>
      </trkpt>
      <trkpt lat="45.3849" lon="4.7555">
        <ele>145.47</ele>
        <time>2019-05-25T13:40:54.000Z</time>
      </trkpt>
      <trkpt lat="45.38463" lon="4.75534">
        <ele>145.48</ele>
        <time>2019-05-25T13:40:59.000Z</time>
      </trkpt>
      <trkpt lat="45.38437" lon="4.75518">
        <ele>145.52</ele>
        <time>2019-05-25T13:41:04.000Z</time>
      </trkpt>
      <trkpt lat="45.38411" lon="4.75499">
        <ele>145.47</ele>
        <time>2019-05-25T13:41:09.000Z</time>
      </trkpt>
      <trkpt lat="45.38384" lon="4.75481">
        <ele>145.47</ele>
        <time>2019-05-25T13:41:14.000Z</time>
      </trkpt>
      <trkpt lat="45.38361" lon="4.75463">
        <ele>145.47</ele>
        <time>2019-05-25T13:41:19.000Z</time>
      </trkpt>
      <trkpt lat="45.38337" lon="4.75447">
        <ele>144.47</ele>
        <time>2019-05-25T13:41:24.000Z</time>
      </trkpt>
      <trkpt lat="45.38314" lon="4.7543">
        <ele>146.22</ele>
        <time>2019-05-25T13:41:29.000Z</time>
      </trkpt>
      <trkpt lat="45.38292" lon="4.75419">
        <ele>146.66</ele>
        <time>2019-05-25T13:41:34.000Z</time>
      </trkpt>
      <trkpt lat="45.38279" lon="4.75417">
        <ele>145.73</ele>
        <time>2019-05-25T13:41:39.000Z</time>
      </trkpt>
      <trkpt lat="45.38276" lon="4.75403">
        <ele>146.47</ele>
        <time>2019-05-25T13:41:55.000Z</time>
      </trkpt>
      <trkpt lat="45.38276" lon="4.75385">
        <ele>146.47</ele>
        <time>2019-05-25T13:42:00.000Z</time>
      </trkpt>
      <trkpt lat="45.38272" lon="4.75374">
        <ele>147.42</ele>
        <time>2019-05-25T13:42:11.000Z</time>
      </trkpt>
      <trkpt lat="45.38284" lon="4.75371">
        <ele>147.47</ele>
        <time>2019-05-25T13:42:16.000Z</time>
      </trkpt>
      <trkpt lat="45.38293" lon="4.7537">
        <ele>146.71</ele>
        <time>2019-05-25T13:42:22.000Z</time>
      </trkpt>
      <trkpt lat="45.38283" lon="4.75367">
        <ele>145.72</ele>
        <time>2019-05-25T13:42:27.000Z</time>
      </trkpt>
      <trkpt lat="45.38267" lon="4.75361">
        <ele>144.53</ele>
        <time>2019-05-25T13:42:32.000Z</time>
      </trkpt>
      <trkpt lat="45.38254" lon="4.75359">
        <ele>143.66</ele>
        <time>2019-05-25T13:42:37.000Z</time>
      </trkpt>
      <trkpt lat="45.38243" lon="4.7536">
        <ele>144.45</ele>
        <time>2019-05-25T13:42:42.000Z</time>
      </trkpt>
      <trkpt lat="45.38232" lon="4.7537">
        <ele>143.72</ele>
        <time>2019-05-25T13:42:47.000Z</time>
      </trkpt>
      <trkpt lat="45.38226" lon="4.75381">
        <ele>143.28</ele>
        <time>2019-05-25T13:42:52.000Z</time>
      </trkpt>
      <trkpt lat="45.38219" lon="4.75391">
        <ele>141.53</ele>
        <time>2019-05-25T13:42:57.000Z</time>
      </trkpt>
      <trkpt lat="45.38217" lon="4.75378">
        <ele>143.42</ele>
        <time>2019-05-25T13:43:12.000Z</time>
      </trkpt>
      <trkpt lat="45.3822" lon="4.75363">
        <ele>143.46</ele>
        <time>2019-05-25T13:43:18.000Z</time>
      </trkpt>
      <trkpt lat="45.38222" lon="4.7535">
        <ele>143.46</ele>
        <time>2019-05-25T13:43:33.000Z</time>
      </trkpt>
      <trkpt lat="45.38226" lon="4.75339">
        <ele>142.47</ele>
        <time>2019-05-25T13:43:42.000Z</time>
      </trkpt>
      <trkpt lat="45.38227" lon="4.75326">
        <ele>141.72</ele>
        <time>2019-05-25T13:44:02.000Z</time>
      </trkpt>
      <trkpt lat="45.38238" lon="4.75323">
        <ele>142.47</ele>
        <time>2019-05-25T13:44:09.000Z</time>
      </trkpt>
      <trkpt lat="45.38247" lon="4.75318">
        <ele>142.47</ele>
        <time>2019-05-25T13:44:14.000Z</time>
      </trkpt>
      <trkpt lat="45.38255" lon="4.75324">
        <ele>139.73</ele>
        <time>2019-05-25T13:44:20.000Z</time>
      </trkpt>
      <trkpt lat="45.38267" lon="4.75336">
        <ele>140.46</ele>
        <time>2019-05-25T13:44:25.000Z</time>
      </trkpt>
      <trkpt lat="45.38281" lon="4.75347">
        <ele>140.47</ele>
        <time>2019-05-25T13:44:30.000Z</time>
      </trkpt>
      <trkpt lat="45.38297" lon="4.75358">
        <ele>141.47</ele>
        <time>2019-05-25T13:44:35.000Z</time>
      </trkpt>
      <trkpt lat="45.38313" lon="4.75375">
        <ele>142.22</ele>
        <time>2019-05-25T13:44:40.000Z</time>
      </trkpt>
      <trkpt lat="45.38323" lon="4.75393">
        <ele>142.47</ele>
        <time>2019-05-25T13:44:45.000Z</time>
      </trkpt>
      <trkpt lat="45.38331" lon="4.75404">
        <ele>143.22</ele>
        <time>2019-05-25T13:44:50.000Z</time>
      </trkpt>
      <trkpt lat="45.38349" lon="4.75412">
        <ele>143.47</ele>
        <time>2019-05-25T13:44:55.000Z</time>
      </trkpt>
      <trkpt lat="45.38368" lon="4.75418">
        <ele>142.49</ele>
        <time>2019-05-25T13:45:00.000Z</time>
      </trkpt>
      <trkpt lat="45.38386" lon="4.75423">
        <ele>142.47</ele>
        <time>2019-05-25T13:45:05.000Z</time>
      </trkpt>
      <trkpt lat="45.38388" lon="4.75408">
        <ele>141.78</ele>
        <time>2019-05-25T13:45:13.000Z</time>
      </trkpt>
      <trkpt lat="45.3839" lon="4.75389">
        <ele>142.41</ele>
        <time>2019-05-25T13:45:18.000Z</time>
      </trkpt>
      <trkpt lat="45.38396" lon="4.75375">
        <ele>146.47</ele>
        <time>2019-05-25T13:45:45.000Z</time>
      </trkpt>
      <trkpt lat="45.38393" lon="4.75362">
        <ele>146.7</ele>
        <time>2019-05-25T13:45:50.000Z</time>
      </trkpt>
      <trkpt lat="45.38398" lon="4.7535">
        <ele>146.41</ele>
        <time>2019-05-25T13:45:57.000Z</time>
      </trkpt>
      <trkpt lat="45.38404" lon="4.7536">
        <ele>144.79</ele>
        <time>2019-05-25T13:46:06.000Z</time>
      </trkpt>
      <trkpt lat="45.38393" lon="4.75376">
        <ele>142.43</ele>
        <time>2019-05-25T13:46:11.000Z</time>
      </trkpt>
      <trkpt lat="45.38387" lon="4.75405">
        <ele>142.27</ele>
        <time>2019-05-25T13:46:16.000Z</time>
      </trkpt>
      <trkpt lat="45.38391" lon="4.7543">
        <ele>143.41</ele>
        <time>2019-05-25T13:46:21.000Z</time>
      </trkpt>
      <trkpt lat="45.3841" lon="4.75434">
        <ele>142.48</ele>
        <time>2019-05-25T13:46:26.000Z</time>
      </trkpt>
      <trkpt lat="45.38423" lon="4.75441">
        <ele>143.22</ele>
        <time>2019-05-25T13:46:31.000Z</time>
      </trkpt>
      <trkpt lat="45.3843" lon="4.75459">
        <ele>144.46</ele>
        <time>2019-05-25T13:46:36.000Z</time>
      </trkpt>
      <trkpt lat="45.38454" lon="4.75467">
        <ele>143.49</ele>
        <time>2019-05-25T13:46:41.000Z</time>
      </trkpt>
      <trkpt lat="45.38479" lon="4.75475">
        <ele>143.47</ele>
        <time>2019-05-25T13:46:46.000Z</time>
      </trkpt>
      <trkpt lat="45.38504" lon="4.75483">
        <ele>143.47</ele>
        <time>2019-05-25T13:46:51.000Z</time>
      </trkpt>
      <trkpt lat="45.38531" lon="4.7549">
        <ele>143.47</ele>
        <time>2019-05-25T13:46:56.000Z</time>
      </trkpt>
      <trkpt lat="45.38557" lon="4.75494">
        <ele>142.48</ele>
        <time>2019-05-25T13:47:01.000Z</time>
      </trkpt>
      <trkpt lat="45.38585" lon="4.75486">
        <ele>142.48</ele>
        <time>2019-05-25T13:47:06.000Z</time>
      </trkpt>
      <trkpt lat="45.3861" lon="4.75468">
        <ele>141.74</ele>
        <time>2019-05-25T13:47:11.000Z</time>
      </trkpt>
      <trkpt lat="45.38631" lon="4.75443">
        <ele>142.47</ele>
        <time>2019-05-25T13:47:16.000Z</time>
      </trkpt>
    </trkseg>
  </trk>
  <trk>
    <name><![CDATA[2019-05-26 09:45:24]]></name>
    <trkseg>
      <trkpt lat="45.3858" lon="4.7517">
        <ele>137.49</ele>
        <time>2019-05-26T07:45:24.000Z</time>
      </trkpt>
      <trkpt lat="45.3857" lon="4.75172">
        <ele>139.41</ele>
        <time>2019-05-26T07:45:36.000Z</time>
      </trkpt>
      <trkpt lat="45.38544" lon="4.75178">
        <ele>158.4</ele>
        <time>2019-05-26T07:46:25.000Z</time>
      </trkpt>
      <trkpt lat="45.38536" lon="4.75186">
        <ele>146.39</ele>
        <time>2019-05-26T07:46:39.000Z</time>
      </trkpt>
      <trkpt lat="45.38525" lon="4.75185">
        <ele>145.78</ele>
        <time>2019-05-26T07:46:44.000Z</time>
      </trkpt>
      <trkpt lat="45.38482" lon="4.75201">
        <ele>146.98</ele>
        <time>2019-05-26T07:47:30.000Z</time>
      </trkpt>
      <trkpt lat="45.38466" lon="4.7518">
        <ele>151.15</ele>
        <time>2019-05-26T07:47:35.000Z</time>
      </trkpt>
      <trkpt lat="45.38462" lon="4.75169">
        <ele>154.49</ele>
        <time>2019-05-26T07:47:41.000Z</time>
      </trkpt>
      <trkpt lat="45.38446" lon="4.75189">
        <ele>144.45</ele>
        <time>2019-05-26T07:48:21.430Z</time>
      </trkpt>
      <trkpt lat="45.38302" lon="4.75259">
        <ele>140.47</ele>
        <time>2019-05-26T07:48:56.000Z</time>
      </trkpt>
      <trkpt lat="45.38254" lon="4.75289">
        <ele>134.28</ele>
        <time>2019-05-26T07:51:42.730Z</time>
      </trkpt>
      <trkpt lat="45.38244" lon="4.75304">
        <ele>136.7</ele>
        <time>2019-05-26T07:51:47.000Z</time>
      </trkpt>
      <trkpt lat="45.38232" lon="4.75326">
        <ele>138.65</ele>
        <time>2019-05-26T07:51:52.000Z</time>
      </trkpt>
      <trkpt lat="45.38174" lon="4.75449">
        <ele>142.45</ele>
        <time>2019-05-26T07:52:23.000Z</time>
      </trkpt>
      <trkpt lat="45.38151" lon="4.75466">
        <ele>145.46</ele>
        <time>2019-05-26T07:52:28.684Z</time>
      </trkpt>
      <trkpt lat="45.38107" lon="4.75511">
        <ele>144.39</ele>
        <time>2019-05-26T07:52:40.000Z</time>
      </trkpt>
      <trkpt lat="45.38089" lon="4.75531">
        <ele>145.59</ele>
        <time>2019-05-26T07:52:45.000Z</time>
      </trkpt>
      <trkpt lat="45.38069" lon="4.75541">
        <ele>145.53</ele>
        <time>2019-05-26T07:52:50.000Z</time>
      </trkpt>
      <trkpt lat="45.3805" lon="4.75534">
        <ele>144.47</ele>
        <time>2019-05-26T07:52:55.000Z</time>
      </trkpt>
      <trkpt lat="45.38005" lon="4.75545">
        <ele>145.78</ele>
        <time>2019-05-26T07:53:28.309Z</time>
      </trkpt>
      <trkpt lat="45.37826" lon="4.75531">
        <ele>137.31</ele>
        <time>2019-05-26T07:55:23.000Z</time>
      </trkpt>
      <trkpt lat="45.37754" lon="4.75499">
        <ele>137.46</ele>
        <time>2019-05-26T07:55:46.054Z</time>
      </trkpt>
      <trkpt lat="45.37765" lon="4.755">
        <ele>144.21</ele>
        <time>2019-05-26T07:56:20.000Z</time>
      </trkpt>
      <trkpt lat="45.37769" lon="4.75486">
        <ele>142.48</ele>
        <time>2019-05-26T07:56:28.000Z</time>
      </trkpt>
      <trkpt lat="45.37779" lon="4.75483">
        <ele>142.46</ele>
        <time>2019-05-26T07:56:33.000Z</time>
      </trkpt>
      <trkpt lat="45.37794" lon="4.75496">
        <ele>143.22</ele>
        <time>2019-05-26T07:56:38.000Z</time>
      </trkpt>
      <trkpt lat="45.37814" lon="4.75499">
        <ele>143.47</ele>
        <time>2019-05-26T07:56:43.000Z</time>
      </trkpt>
      <trkpt lat="45.37831" lon="4.75506">
        <ele>143.47</ele>
        <time>2019-05-26T07:56:48.000Z</time>
      </trkpt>
      <trkpt lat="45.37849" lon="4.75514">
        <ele>142.7</ele>
        <time>2019-05-26T07:56:53.000Z</time>
      </trkpt>
      <trkpt lat="45.37865" lon="4.75519">
        <ele>142.48</ele>
        <time>2019-05-26T07:56:58.000Z</time>
      </trkpt>
      <trkpt lat="45.37881" lon="4.75526">
        <ele>142.46</ele>
        <time>2019-05-26T07:57:03.000Z</time>
      </trkpt>
      <trkpt lat="45.37895" lon="4.75539">
        <ele>142.51</ele>
        <time>2019-05-26T07:57:08.000Z</time>
      </trkpt>
      <trkpt lat="45.37912" lon="4.75547">
        <ele>143.45</ele>
        <time>2019-05-26T07:57:13.000Z</time>
      </trkpt>
      <trkpt lat="45.37928" lon="4.75549">
        <ele>144.41</ele>
        <time>2019-05-26T07:57:18.000Z</time>
      </trkpt>
      <trkpt lat="45.37938" lon="4.75559">
        <ele>145.45</ele>
        <time>2019-05-26T07:57:23.000Z</time>
      </trkpt>
      <trkpt lat="45.37954" lon="4.75571">
        <ele>145.47</ele>
        <time>2019-05-26T07:57:28.000Z</time>
      </trkpt>
      <trkpt lat="45.37975" lon="4.75574">
        <ele>144.72</ele>
        <time>2019-05-26T07:57:33.000Z</time>
      </trkpt>
      <trkpt lat="45.37995" lon="4.75576">
        <ele>144.46</ele>
        <time>2019-05-26T07:57:38.000Z</time>
      </trkpt>
      <trkpt lat="45.38013" lon="4.75568">
        <ele>144.48</ele>
        <time>2019-05-26T07:57:43.000Z</time>
      </trkpt>
      <trkpt lat="45.38017" lon="4.75544">
        <ele>145.45</ele>
        <time>2019-05-26T07:57:48.000Z</time>
      </trkpt>
      <trkpt lat="45.38027" lon="4.75544">
        <ele>145.47</ele>
        <time>2019-05-26T07:57:54.000Z</time>
      </trkpt>
      <trkpt lat="45.38034" lon="4.75567">
        <ele>145.46</ele>
        <time>2019-05-26T07:57:59.000Z</time>
      </trkpt>
      <trkpt lat="45.38052" lon="4.75569">
        <ele>145.46</ele>
        <time>2019-05-26T07:58:04.000Z</time>
      </trkpt>
      <trkpt lat="45.38068" lon="4.75567">
        <ele>145.41</ele>
        <time>2019-05-26T07:58:09.000Z</time>
      </trkpt>
      <trkpt lat="45.3811" lon="4.75553">
        <ele>146.42</ele>
        <time>2019-05-26T07:58:28.891Z</time>
      </trkpt>
      <trkpt lat="45.38121" lon="4.75545">
        <ele>144.63</ele>
        <time>2019-05-26T07:58:33.000Z</time>
      </trkpt>
      <trkpt lat="45.38128" lon="4.75576">
        <ele>144.47</ele>
        <time>2019-05-26T07:58:38.000Z</time>
      </trkpt>
      <trkpt lat="45.3813" lon="4.75607">
        <ele>143.48</ele>
        <time>2019-05-26T07:58:43.000Z</time>
      </trkpt>
      <trkpt lat="45.38131" lon="4.75621">
        <ele>145.41</ele>
        <time>2019-05-26T07:58:48.000Z</time>
      </trkpt>
      <trkpt lat="45.38123" lon="4.75629">
        <ele>148.47</ele>
        <time>2019-05-26T07:59:10.000Z</time>
      </trkpt>
      <trkpt lat="45.38115" lon="4.75605">
        <ele>147.49</ele>
        <time>2019-05-26T07:59:15.000Z</time>
      </trkpt>
      <trkpt lat="45.38111" lon="4.75584">
        <ele>148.47</ele>
        <time>2019-05-26T07:59:20.000Z</time>
      </trkpt>
      <trkpt lat="45.38101" lon="4.75601">
        <ele>149.47</ele>
        <time>2019-05-26T07:59:25.000Z</time>
      </trkpt>
      <trkpt lat="45.38095" lon="4.75623">
        <ele>151.41</ele>
        <time>2019-05-26T07:59:30.000Z</time>
      </trkpt>
      <trkpt lat="45.38089" lon="4.75642">
        <ele>151.47</ele>
        <time>2019-05-26T07:59:35.000Z</time>
      </trkpt>
      <trkpt lat="45.38085" lon="4.75658">
        <ele>150.47</ele>
        <time>2019-05-26T07:59:40.000Z</time>
      </trkpt>
      <trkpt lat="45.38079" lon="4.75682">
        <ele>149.68</ele>
        <time>2019-05-26T07:59:45.000Z</time>
      </trkpt>
      <trkpt lat="45.3807" lon="4.75745">
        <ele>147.46</ele>
        <time>2019-05-26T07:59:56.516Z</time>
      </trkpt>
      <trkpt lat="45.38066" lon="4.75767">
        <ele>149.49</ele>
        <time>2019-05-26T08:00:01.000Z</time>
      </trkpt>
      <trkpt lat="45.3806" lon="4.75796">
        <ele>150.23</ele>
        <time>2019-05-26T08:00:06.000Z</time>
      </trkpt>
      <trkpt lat="45.38055" lon="4.75825">
        <ele>148.55</ele>
        <time>2019-05-26T08:00:11.000Z</time>
      </trkpt>
      <trkpt lat="45.38048" lon="4.75857">
        <ele>148.72</ele>
        <time>2019-05-26T08:00:16.000Z</time>
      </trkpt>
      <trkpt lat="45.38041" lon="4.75892">
        <ele>148.48</ele>
        <time>2019-05-26T08:00:21.000Z</time>
      </trkpt>
      <trkpt lat="45.38038" lon="4.75927">
        <ele>146.74</ele>
        <time>2019-05-26T08:00:26.000Z</time>
      </trkpt>
      <trkpt lat="45.38028" lon="4.75969">
        <ele>145.49</ele>
        <time>2019-05-26T08:00:31.000Z</time>
      </trkpt>
      <trkpt lat="45.38006" lon="4.76002">
        <ele>145.48</ele>
        <time>2019-05-26T08:00:36.000Z</time>
      </trkpt>
      <trkpt lat="45.37983" lon="4.7602">
        <ele>145.29</ele>
        <time>2019-05-26T08:00:41.000Z</time>
      </trkpt>
      <trkpt lat="45.37951" lon="4.76038">
        <ele>142.79</ele>
        <time>2019-05-26T08:00:46.000Z</time>
      </trkpt>
      <trkpt lat="45.37911" lon="4.76062">
        <ele>141.5</ele>
        <time>2019-05-26T08:00:51.000Z</time>
      </trkpt>
      <trkpt lat="45.37876" lon="4.76081">
        <ele>142.48</ele>
        <time>2019-05-26T08:00:56.000Z</time>
      </trkpt>
      <trkpt lat="45.37851" lon="4.76094">
        <ele>139.73</ele>
        <time>2019-05-26T08:01:01.000Z</time>
      </trkpt>
      <trkpt lat="45.37828" lon="4.76109">
        <ele>139.68</ele>
        <time>2019-05-26T08:01:06.000Z</time>
      </trkpt>
      <trkpt lat="45.37782" lon="4.76126">
        <ele>140.98</ele>
        <time>2019-05-26T08:01:14.508Z</time>
      </trkpt>
      <trkpt lat="45.3776" lon="4.76147">
        <ele>144.51</ele>
        <time>2019-05-26T08:01:19.000Z</time>
      </trkpt>
      <trkpt lat="45.37727" lon="4.76164">
        <ele>139.79</ele>
        <time>2019-05-26T08:01:25.197Z</time>
      </trkpt>
      <trkpt lat="45.37699" lon="4.76182">
        <ele>142.2</ele>
        <time>2019-05-26T08:01:30.000Z</time>
      </trkpt>
      <trkpt lat="45.37669" lon="4.76199">
        <ele>143.73</ele>
        <time>2019-05-26T08:01:35.000Z</time>
      </trkpt>
      <trkpt lat="45.3764" lon="4.76218">
        <ele>141.54</ele>
        <time>2019-05-26T08:01:40.000Z</time>
      </trkpt>
      <trkpt lat="45.37612" lon="4.76236">
        <ele>140.54</ele>
        <time>2019-05-26T08:01:45.000Z</time>
      </trkpt>
      <trkpt lat="45.37583" lon="4.76254">
        <ele>140.52</ele>
        <time>2019-05-26T08:01:50.000Z</time>
      </trkpt>
      <trkpt lat="45.37555" lon="4.76277">
        <ele>141.46</ele>
        <time>2019-05-26T08:01:55.000Z</time>
      </trkpt>
      <trkpt lat="45.37274" lon="4.76485">
        <ele>139</ele>
        <time>2019-05-26T08:24:31.877Z</time>
      </trkpt>
      <trkpt lat="45.3703" lon="4.76704">
        <ele>138</ele>
        <time>2019-05-26T08:28:01.000Z</time>
      </trkpt>
      <trkpt lat="45.3667" lon="4.77037">
        <ele>138</ele>
        <time>2019-05-26T08:30:22.000Z</time>
      </trkpt>
      <trkpt lat="45.36363" lon="4.77309">
        <ele>138</ele>
        <time>2019-05-26T08:40:33.000Z</time>
      </trkpt>
      <trkpt lat="45.36003" lon="4.77647">
        <ele>138</ele>
        <time>2019-05-26T08:41:50.000Z</time>
      </trkpt>
      <trkpt lat="45.35574" lon="4.78017">
        <ele>138</ele>
        <time>2019-05-26T08:41:55.000Z</time>
      </trkpt>
      <trkpt lat="45.35326" lon="4.78147">
        <ele>136</ele>
        <time>2019-05-26T08:42:00.000Z</time>
      </trkpt>
      <trkpt lat="45.35283" lon="4.78222">
        <ele>139</ele>
        <time>2019-05-26T08:42:05.000Z</time>
      </trkpt>
      <trkpt lat="45.35229" lon="4.78191">
        <ele>140</ele>
        <time>2019-05-26T08:42:10.000Z</time>
      </trkpt>
      <trkpt lat="45.35178" lon="4.78184">
        <ele>140</ele>
        <time>2019-05-26T08:42:15.000Z</time>
      </trkpt>
      <trkpt lat="45.34068" lon="4.78379">
        <ele>144</ele>
        <time>2019-05-26T08:42:20.000Z</time>
      </trkpt>
      <trkpt lat="45.34026" lon="4.78455">
        <ele>141</ele>
        <time>2019-05-26T08:42:25.000Z</time>
      </trkpt>
      <trkpt lat="45.33992" lon="4.78455">
        <ele>139</ele>
        <time>2019-05-26T08:42:32.000Z</time>
      </trkpt>
      <trkpt lat="45.33965" lon="4.78375">
        <ele>141</ele>
        <time>2019-05-26T08:42:37.000Z</time>
      </trkpt>
      <trkpt lat="45.33737" lon="4.784">
        <ele>138</ele>
        <time>2019-05-26T08:42:42.000Z</time>
      </trkpt>
      <trkpt lat="45.32973" lon="4.78529">
        <ele>138</ele>
        <time>2019-05-26T08:42:47.000Z</time>
      </trkpt>
      <trkpt lat="45.32877" lon="4.78365">
        <ele>138</ele>
        <time>2019-05-26T08:42:52.000Z</time>
      </trkpt>
      <trkpt lat="45.32823" lon="4.78152">
        <ele>137</ele>
        <time>2019-05-26T08:42:57.000Z</time>
      </trkpt>
      <trkpt lat="45.32801" lon="4.77978">
        <ele>137</ele>
        <time>2019-05-26T08:43:02.000Z</time>
      </trkpt>
      <trkpt lat="45.32809" lon="4.77807">
        <ele>138</ele>
        <time>2019-05-26T08:43:07.000Z</time>
      </trkpt>
      <trkpt lat="45.32833" lon="4.77608">
        <ele>136.3</ele>
        <time>2019-05-26T08:43:12.000Z</time>
      </trkpt>
      <trkpt lat="45.32858" lon="4.77434">
        <ele>138</ele>
        <time>2019-05-26T08:43:17.000Z</time>
      </trkpt>
      <trkpt lat="45.32862" lon="4.77323">
        <ele>136</ele>
        <time>2019-05-26T08:43:22.000Z</time>
      </trkpt>
      <trkpt lat="45.32826" lon="4.77159">
        <ele>136</ele>
        <time>2019-05-26T08:43:27.000Z</time>
      </trkpt>
      <trkpt lat="45.32953" lon="4.77162">
        <ele>137</ele>
        <time>2019-05-26T08:43:32.000Z</time>
      </trkpt>
      <trkpt lat="45.32987" lon="4.77065">
        <ele>137</ele>
        <time>2019-05-26T08:43:37.000Z</time>
      </trkpt>
      <trkpt lat="45.32997" lon="4.76977">
        <ele>137</ele>
        <time>2019-05-26T08:43:42.000Z</time>
      </trkpt>
      <trkpt lat="45.3288" lon="4.76855">
        <ele>137</ele>
        <time>2019-05-26T08:43:47.000Z</time>
      </trkpt>
      <trkpt lat="45.32769" lon="4.768">
        <ele>138</ele>
        <time>2019-05-26T08:43:52.000Z</time>
      </trkpt>
      <trkpt lat="45.32715" lon="4.7673">
        <ele>139</ele>
        <time>2019-05-26T08:43:57.000Z</time>
      </trkpt>
      <trkpt lat="45.32595" lon="4.76782">
        <ele>137</ele>
        <time>2019-05-26T08:44:02.000Z</time>
      </trkpt>
      <trkpt lat="45.32434" lon="4.76817">
        <ele>137</ele>
        <time>2019-05-26T08:44:07.000Z</time>
      </trkpt>
      <trkpt lat="45.3223" lon="4.76772">
        <ele>137</ele>
        <time>2019-05-26T08:44:12.000Z</time>
      </trkpt>
      <trkpt lat="45.32041" lon="4.76751">
        <ele>137</ele>
        <time>2019-05-26T08:44:17.000Z</time>
      </trkpt>
      <trkpt lat="45.31951" lon="4.76821">
        <ele>136</ele>
        <time>2019-05-26T08:44:22.000Z</time>
      </trkpt>
      <trkpt lat="45.31902" lon="4.76831">
        <ele>137</ele>
        <time>2019-05-26T08:44:27.000Z</time>
      </trkpt>
      <trkpt lat="45.31773" lon="4.76574">
        <ele>189.4</ele>
        <time>2019-05-26T08:44:32.000Z</time>
      </trkpt>
      <trkpt lat="45.31772" lon="4.76562">
        <ele>137.4</ele>
        <time>2019-05-26T08:44:37.000Z</time>
      </trkpt>
      <trkpt lat="45.31882" lon="4.76842">
        <ele>139</ele>
        <time>2019-05-26T08:44:42.000Z</time>
      </trkpt>
      <trkpt lat="45.31844" lon="4.76888">
        <ele>129.76</ele>
        <time>2019-05-26T08:44:47.000Z</time>
      </trkpt>
      <trkpt lat="45.31763" lon="4.77027">
        <ele>136</ele>
        <time>2019-05-26T08:44:52.000Z</time>
      </trkpt>
      <trkpt lat="45.31689" lon="4.77152">
        <ele>136</ele>
        <time>2019-05-26T08:44:57.000Z</time>
      </trkpt>
      <trkpt lat="45.31656" lon="4.7723">
        <ele>137</ele>
        <time>2019-05-26T08:45:02.000Z</time>
      </trkpt>
      <trkpt lat="45.31584" lon="4.77348">
        <ele>137</ele>
        <time>2019-05-26T08:45:07.000Z</time>
      </trkpt>
      <trkpt lat="45.31474" lon="4.77544">
        <ele>137</ele>
        <time>2019-05-26T08:45:12.000Z</time>
      </trkpt>
      <trkpt lat="45.31417" lon="4.77643">
        <ele>137</ele>
        <time>2019-05-26T08:45:17.000Z</time>
      </trkpt>
      <trkpt lat="45.31374" lon="4.77785">
        <ele>137</ele>
        <time>2019-05-26T08:45:22.000Z</time>
      </trkpt>
      <trkpt lat="45.31345" lon="4.77836">
        <ele>137</ele>
        <time>2019-05-26T08:45:27.000Z</time>
      </trkpt>
      <trkpt lat="45.31292" lon="4.7788">
        <ele>137</ele>
        <time>2019-05-26T08:45:32.000Z</time>
      </trkpt>
      <trkpt lat="45.313" lon="4.77914">
        <ele>137</ele>
        <time>2019-05-26T08:45:37.000Z</time>
      </trkpt>
      <trkpt lat="45.31277" lon="4.77963">
        <ele>137</ele>
        <time>2019-05-26T08:45:42.000Z</time>
      </trkpt>
      <trkpt lat="45.31214" lon="4.78047">
        <ele>139</ele>
        <time>2019-05-26T08:45:47.000Z</time>
      </trkpt>
      <trkpt lat="45.31162" lon="4.78198">
        <ele>137</ele>
        <time>2019-05-26T08:45:52.000Z</time>
      </trkpt>
      <trkpt lat="45.31105" lon="4.78375">
        <ele>135</ele>
        <time>2019-05-26T08:45:57.000Z</time>
      </trkpt>
      <trkpt lat="45.31103" lon="4.78446">
        <ele>135</ele>
        <time>2019-05-26T08:46:02.000Z</time>
      </trkpt>
      <trkpt lat="45.31102" lon="4.78489">
        <ele>135</ele>
        <time>2019-05-26T08:46:07.000Z</time>
      </trkpt>
      <trkpt lat="45.31045" lon="4.78557">
        <ele>136</ele>
        <time>2019-05-26T08:46:12.000Z</time>
      </trkpt>
      <trkpt lat="45.31034" lon="4.78611">
        <ele>137</ele>
        <time>2019-05-26T08:46:17.000Z</time>
      </trkpt>
      <trkpt lat="45.31005" lon="4.78602">
        <ele>139</ele>
        <time>2019-05-26T08:46:22.000Z</time>
      </trkpt>
      <trkpt lat="45.3089" lon="4.78783">
        <ele>134</ele>
        <time>2019-05-26T08:46:27.000Z</time>
      </trkpt>
      <trkpt lat="45.30847" lon="4.78878">
        <ele>135</ele>
        <time>2019-05-26T08:46:32.000Z</time>
      </trkpt>
      <trkpt lat="45.3078" lon="4.78968">
        <ele>137</ele>
        <time>2019-05-26T08:46:37.000Z</time>
      </trkpt>
      <trkpt lat="45.30741" lon="4.79147">
        <ele>138</ele>
        <time>2019-05-26T08:47:58.000Z</time>
      </trkpt>
      <trkpt lat="45.3073" lon="4.79201">
        <ele>138</ele>
        <time>2019-05-26T08:48:03.000Z</time>
      </trkpt>
      <trkpt lat="45.30738" lon="4.79287">
        <ele>137</ele>
        <time>2019-05-26T08:48:08.000Z</time>
      </trkpt>
      <trkpt lat="45.30746" lon="4.79427">
        <ele>139</ele>
        <time>2019-05-26T08:48:13.000Z</time>
      </trkpt>
      <trkpt lat="45.30647" lon="4.79502">
        <ele>142</ele>
        <time>2019-05-26T08:48:18.000Z</time>
      </trkpt>
      <trkpt lat="45.30618" lon="4.79578">
        <ele>141</ele>
        <time>2019-05-26T08:48:23.000Z</time>
      </trkpt>
      <trkpt lat="45.30629" lon="4.7964">
        <ele>137</ele>
        <time>2019-05-26T08:48:28.000Z</time>
      </trkpt>
      <trkpt lat="45.30757" lon="4.79972">
        <ele>138.45</ele>
        <time>2019-05-26T08:48:33.000Z</time>
      </trkpt>
      <trkpt lat="45.30754" lon="4.79986">
        <ele>143.53</ele>
        <time>2019-05-26T08:48:38.000Z</time>
      </trkpt>
      <trkpt lat="45.30762" lon="4.79998">
        <ele>144.46</ele>
        <time>2019-05-26T08:48:43.000Z</time>
      </trkpt>
      <trkpt lat="45.30772" lon="4.80027">
        <ele>144.47</ele>
        <time>2019-05-26T08:48:48.000Z</time>
      </trkpt>
      <trkpt lat="45.3078" lon="4.80061">
        <ele>142.53</ele>
        <time>2019-05-26T08:48:53.000Z</time>
      </trkpt>
      <trkpt lat="45.30786" lon="4.80102">
        <ele>140.53</ele>
        <time>2019-05-26T08:48:58.000Z</time>
      </trkpt>
      <trkpt lat="45.30792" lon="4.80143">
        <ele>139.48</ele>
        <time>2019-05-26T08:49:03.000Z</time>
      </trkpt>
      <trkpt lat="45.30789" lon="4.80168">
        <ele>138.48</ele>
        <time>2019-05-26T08:49:08.000Z</time>
      </trkpt>
      <trkpt lat="45.30776" lon="4.80175">
        <ele>138.47</ele>
        <time>2019-05-26T08:49:13.000Z</time>
      </trkpt>
      <trkpt lat="45.30767" lon="4.80173">
        <ele>138.47</ele>
        <time>2019-05-26T08:49:18.000Z</time>
      </trkpt>
      <trkpt lat="45.30766" lon="4.80153">
        <ele>138.47</ele>
        <time>2019-05-26T08:49:23.000Z</time>
      </trkpt>
      <trkpt lat="45.30757" lon="4.80142">
        <ele>138.47</ele>
        <time>2019-05-26T08:49:28.000Z</time>
      </trkpt>
      <trkpt lat="45.30738" lon="4.80156">
        <ele>139.41</ele>
        <time>2019-05-26T08:49:33.000Z</time>
      </trkpt>
      <trkpt lat="45.30719" lon="4.80174">
        <ele>138.47</ele>
        <time>2019-05-26T08:49:38.000Z</time>
      </trkpt>
      <trkpt lat="45.30697" lon="4.80189">
        <ele>138.47</ele>
        <time>2019-05-26T08:49:43.000Z</time>
      </trkpt>
      <trkpt lat="45.30675" lon="4.80205">
        <ele>139.4</ele>
        <time>2019-05-26T08:49:48.000Z</time>
      </trkpt>
      <trkpt lat="45.30651" lon="4.80224">
        <ele>140.22</ele>
        <time>2019-05-26T08:49:53.000Z</time>
      </trkpt>
      <trkpt lat="45.30628" lon="4.80242">
        <ele>139.53</ele>
        <time>2019-05-26T08:49:58.000Z</time>
      </trkpt>
      <trkpt lat="45.30604" lon="4.80259">
        <ele>138.48</ele>
        <time>2019-05-26T08:50:03.000Z</time>
      </trkpt>
      <trkpt lat="45.3058" lon="4.80276">
        <ele>140.4</ele>
        <time>2019-05-26T08:50:08.000Z</time>
      </trkpt>
      <trkpt lat="45.30555" lon="4.80294">
        <ele>141.45</ele>
        <time>2019-05-26T08:50:13.000Z</time>
      </trkpt>
      <trkpt lat="45.30529" lon="4.80312">
        <ele>140.47</ele>
        <time>2019-05-26T08:50:18.000Z</time>
      </trkpt>
      <trkpt lat="45.30505" lon="4.80332">
        <ele>140.4</ele>
        <time>2019-05-26T08:50:23.000Z</time>
      </trkpt>
      <trkpt lat="45.30481" lon="4.80351">
        <ele>139.47</ele>
        <time>2019-05-26T08:50:28.000Z</time>
      </trkpt>
      <trkpt lat="45.30457" lon="4.80368">
        <ele>140.46</ele>
        <time>2019-05-26T08:50:33.000Z</time>
      </trkpt>
      <trkpt lat="45.30433" lon="4.80383">
        <ele>138.54</ele>
        <time>2019-05-26T08:50:38.000Z</time>
      </trkpt>
      <trkpt lat="45.30408" lon="4.80394">
        <ele>137.28</ele>
        <time>2019-05-26T08:50:43.000Z</time>
      </trkpt>
      <trkpt lat="45.30382" lon="4.80397">
        <ele>137.51</ele>
        <time>2019-05-26T08:50:48.000Z</time>
      </trkpt>
      <trkpt lat="45.30357" lon="4.80386">
        <ele>138.45</ele>
        <time>2019-05-26T08:50:53.000Z</time>
      </trkpt>
      <trkpt lat="45.30335" lon="4.80366">
        <ele>138.46</ele>
        <time>2019-05-26T08:50:58.000Z</time>
      </trkpt>
      <trkpt lat="45.30315" lon="4.80348">
        <ele>139.26</ele>
        <time>2019-05-26T08:51:03.000Z</time>
      </trkpt>
      <trkpt lat="45.30293" lon="4.8033">
        <ele>139.42</ele>
        <time>2019-05-26T08:51:08.000Z</time>
      </trkpt>
      <trkpt lat="45.3027" lon="4.80317">
        <ele>139.46</ele>
        <time>2019-05-26T08:51:13.000Z</time>
      </trkpt>
      <trkpt lat="45.30246" lon="4.80308">
        <ele>139.65</ele>
        <time>2019-05-26T08:51:18.000Z</time>
      </trkpt>
      <trkpt lat="45.30222" lon="4.80301">
        <ele>139.41</ele>
        <time>2019-05-26T08:51:23.000Z</time>
      </trkpt>
      <trkpt lat="45.30197" lon="4.80302">
        <ele>138.46</ele>
        <time>2019-05-26T08:51:28.000Z</time>
      </trkpt>
      <trkpt lat="45.30172" lon="4.80312">
        <ele>139.21</ele>
        <time>2019-05-26T08:51:33.000Z</time>
      </trkpt>
      <trkpt lat="45.30148" lon="4.80334">
        <ele>141.38</ele>
        <time>2019-05-26T08:51:38.000Z</time>
      </trkpt>
      <trkpt lat="45.30123" lon="4.8036">
        <ele>142.46</ele>
        <time>2019-05-26T08:51:43.000Z</time>
      </trkpt>
      <trkpt lat="45.30093" lon="4.80384">
        <ele>139.78</ele>
        <time>2019-05-26T08:51:48.000Z</time>
      </trkpt>
      <trkpt lat="45.30066" lon="4.8041">
        <ele>139.27</ele>
        <time>2019-05-26T08:51:53.000Z</time>
      </trkpt>
      <trkpt lat="45.30041" lon="4.80441">
        <ele>136.54</ele>
        <time>2019-05-26T08:51:58.000Z</time>
      </trkpt>
      <trkpt lat="45.30017" lon="4.8047">
        <ele>135.77</ele>
        <time>2019-05-26T08:52:03.000Z</time>
      </trkpt>
      <trkpt lat="45.29993" lon="4.80494">
        <ele>135.65</ele>
        <time>2019-05-26T08:52:08.000Z</time>
      </trkpt>
      <trkpt lat="45.29971" lon="4.80518">
        <ele>134.71</ele>
        <time>2019-05-26T08:52:13.000Z</time>
      </trkpt>
      <trkpt lat="45.29947" lon="4.80541">
        <ele>136.24</ele>
        <time>2019-05-26T08:52:18.000Z</time>
      </trkpt>
      <trkpt lat="45.2992" lon="4.80566">
        <ele>137.45</ele>
        <time>2019-05-26T08:52:23.000Z</time>
      </trkpt>
      <trkpt lat="45.29899" lon="4.80591">
        <ele>135.54</ele>
        <time>2019-05-26T08:52:28.000Z</time>
      </trkpt>
      <trkpt lat="45.29875" lon="4.80617">
        <ele>135.42</ele>
        <time>2019-05-26T08:52:33.000Z</time>
      </trkpt>
      <trkpt lat="45.29851" lon="4.80646">
        <ele>135.51</ele>
        <time>2019-05-26T08:52:38.000Z</time>
      </trkpt>
      <trkpt lat="45.29829" lon="4.80671">
        <ele>136.21</ele>
        <time>2019-05-26T08:52:43.000Z</time>
      </trkpt>
      <trkpt lat="45.29808" lon="4.80693">
        <ele>137.45</ele>
        <time>2019-05-26T08:52:48.000Z</time>
      </trkpt>
      <trkpt lat="45.29784" lon="4.80716">
        <ele>136.47</ele>
        <time>2019-05-26T08:52:53.000Z</time>
      </trkpt>
      <trkpt lat="45.29761" lon="4.80739">
        <ele>135.53</ele>
        <time>2019-05-26T08:52:58.000Z</time>
      </trkpt>
      <trkpt lat="45.29738" lon="4.80763">
        <ele>136.21</ele>
        <time>2019-05-26T08:53:03.000Z</time>
      </trkpt>
      <trkpt lat="45.29716" lon="4.80786">
        <ele>135.46</ele>
        <time>2019-05-26T08:53:08.000Z</time>
      </trkpt>
      <trkpt lat="45.29691" lon="4.80806">
        <ele>139.42</ele>
        <time>2019-05-26T08:53:13.000Z</time>
      </trkpt>
      <trkpt lat="45.29672" lon="4.8083">
        <ele>139.45</ele>
        <time>2019-05-26T08:53:18.000Z</time>
      </trkpt>
      <trkpt lat="45.29676" lon="4.80843">
        <ele>138.71</ele>
        <time>2019-05-26T08:53:23.000Z</time>
      </trkpt>
      <trkpt lat="45.29666" lon="4.80837">
        <ele>136.42</ele>
        <time>2019-05-26T08:53:28.000Z</time>
      </trkpt>
      <trkpt lat="45.29653" lon="4.80839">
        <ele>136.46</ele>
        <time>2019-05-26T08:53:33.000Z</time>
      </trkpt>
      <trkpt lat="45.29635" lon="4.80855">
        <ele>136.46</ele>
        <time>2019-05-26T08:53:38.000Z</time>
      </trkpt>
      <trkpt lat="45.29616" lon="4.80875">
        <ele>136.7</ele>
        <time>2019-05-26T08:53:43.000Z</time>
      </trkpt>
      <trkpt lat="45.29592" lon="4.80887">
        <ele>136.21</ele>
        <time>2019-05-26T08:53:48.000Z</time>
      </trkpt>
      <trkpt lat="45.29569" lon="4.80904">
        <ele>138.45</ele>
        <time>2019-05-26T08:53:53.000Z</time>
      </trkpt>
      <trkpt lat="45.29543" lon="4.80918">
        <ele>136.48</ele>
        <time>2019-05-26T08:53:58.000Z</time>
      </trkpt>
      <trkpt lat="45.29518" lon="4.80933">
        <ele>136.52</ele>
        <time>2019-05-26T08:54:03.000Z</time>
      </trkpt>
      <trkpt lat="45.29491" lon="4.8095">
        <ele>135.66</ele>
        <time>2019-05-26T08:54:08.000Z</time>
      </trkpt>
      <trkpt lat="45.29463" lon="4.80967">
        <ele>135.29</ele>
        <time>2019-05-26T08:54:13.000Z</time>
      </trkpt>
      <trkpt lat="45.29435" lon="4.8098">
        <ele>135.42</ele>
        <time>2019-05-26T08:54:18.000Z</time>
      </trkpt>
      <trkpt lat="45.29409" lon="4.80994">
        <ele>134.71</ele>
        <time>2019-05-26T08:54:23.000Z</time>
      </trkpt>
      <trkpt lat="45.2938" lon="4.81002">
        <ele>136.44</ele>
        <time>2019-05-26T08:54:28.000Z</time>
      </trkpt>
      <trkpt lat="45.29353" lon="4.81014">
        <ele>136.45</ele>
        <time>2019-05-26T08:54:33.000Z</time>
      </trkpt>
      <trkpt lat="45.29333" lon="4.81027">
        <ele>138.46</ele>
        <time>2019-05-26T08:54:38.000Z</time>
      </trkpt>
      <trkpt lat="45.29318" lon="4.81038">
        <ele>138.46</ele>
        <time>2019-05-26T08:54:43.000Z</time>
      </trkpt>
      <trkpt lat="45.29301" lon="4.81046">
        <ele>137.47</ele>
        <time>2019-05-26T08:54:48.000Z</time>
      </trkpt>
      <trkpt lat="45.29282" lon="4.81054">
        <ele>136.52</ele>
        <time>2019-05-26T08:54:53.000Z</time>
      </trkpt>
      <trkpt lat="45.2926" lon="4.81061">
        <ele>136.48</ele>
        <time>2019-05-26T08:54:58.000Z</time>
      </trkpt>
      <trkpt lat="45.29235" lon="4.81068">
        <ele>137.46</ele>
        <time>2019-05-26T08:55:03.000Z</time>
      </trkpt>
      <trkpt lat="45.29209" lon="4.8108">
        <ele>138.21</ele>
        <time>2019-05-26T08:55:08.000Z</time>
      </trkpt>
      <trkpt lat="45.29181" lon="4.81087">
        <ele>138.45</ele>
        <time>2019-05-26T08:55:13.000Z</time>
      </trkpt>
      <trkpt lat="45.29152" lon="4.81092">
        <ele>138.46</ele>
        <time>2019-05-26T08:55:18.000Z</time>
      </trkpt>
      <trkpt lat="45.29123" lon="4.81095">
        <ele>138.65</ele>
        <time>2019-05-26T08:55:23.000Z</time>
      </trkpt>
      <trkpt lat="45.29094" lon="4.811">
        <ele>146.21</ele>
        <time>2019-05-26T08:55:28.000Z</time>
      </trkpt>
      <trkpt lat="45.29065" lon="4.81103">
        <ele>140.79</ele>
        <time>2019-05-26T08:55:33.000Z</time>
      </trkpt>
      <trkpt lat="45.29035" lon="4.81107">
        <ele>140.46</ele>
        <time>2019-05-26T08:55:38.000Z</time>
      </trkpt>
      <trkpt lat="45.29004" lon="4.81111">
        <ele>140.46</ele>
        <time>2019-05-26T08:55:43.000Z</time>
      </trkpt>
      <trkpt lat="45.28972" lon="4.81112">
        <ele>140.46</ele>
        <time>2019-05-26T08:55:48.000Z</time>
      </trkpt>
      <trkpt lat="45.28941" lon="4.81115">
        <ele>140.46</ele>
        <time>2019-05-26T08:55:53.000Z</time>
      </trkpt>
      <trkpt lat="45.28908" lon="4.81116">
        <ele>139.52</ele>
        <time>2019-05-26T08:55:58.000Z</time>
      </trkpt>
      <trkpt lat="45.28877" lon="4.81118">
        <ele>140.46</ele>
        <time>2019-05-26T08:56:03.000Z</time>
      </trkpt>
      <trkpt lat="45.28845" lon="4.81119">
        <ele>140.46</ele>
        <time>2019-05-26T08:56:08.000Z</time>
      </trkpt>
      <trkpt lat="45.28814" lon="4.81119">
        <ele>140.46</ele>
        <time>2019-05-26T08:56:13.000Z</time>
      </trkpt>
      <trkpt lat="45.28783" lon="4.81117">
        <ele>138.52</ele>
        <time>2019-05-26T08:56:18.000Z</time>
      </trkpt>
      <trkpt lat="45.28753" lon="4.81115">
        <ele>137.47</ele>
        <time>2019-05-26T08:56:23.000Z</time>
      </trkpt>
      <trkpt lat="45.2872" lon="4.81118">
        <ele>136.46</ele>
        <time>2019-05-26T08:56:28.000Z</time>
      </trkpt>
      <trkpt lat="45.28687" lon="4.81118">
        <ele>135.69</ele>
        <time>2019-05-26T08:56:33.000Z</time>
      </trkpt>
      <trkpt lat="45.28654" lon="4.8112">
        <ele>136.22</ele>
        <time>2019-05-26T08:56:38.000Z</time>
      </trkpt>
      <trkpt lat="45.28622" lon="4.81122">
        <ele>136.45</ele>
        <time>2019-05-26T08:56:43.000Z</time>
      </trkpt>
      <trkpt lat="45.2859" lon="4.81115">
        <ele>136.45</ele>
        <time>2019-05-26T08:56:48.000Z</time>
      </trkpt>
      <trkpt lat="45.28559" lon="4.8111">
        <ele>135.46</ele>
        <time>2019-05-26T08:56:53.000Z</time>
      </trkpt>
      <trkpt lat="45.28526" lon="4.81109">
        <ele>135.45</ele>
        <time>2019-05-26T08:56:58.000Z</time>
      </trkpt>
      <trkpt lat="45.28492" lon="4.81107">
        <ele>134.51</ele>
        <time>2019-05-26T08:57:03.000Z</time>
      </trkpt>
      <trkpt lat="45.28455" lon="4.81102">
        <ele>132.7</ele>
        <time>2019-05-26T08:57:08.000Z</time>
      </trkpt>
      <trkpt lat="45.28415" lon="4.81102">
        <ele>132.45</ele>
        <time>2019-05-26T08:57:13.000Z</time>
      </trkpt>
      <trkpt lat="45.28379" lon="4.8111">
        <ele>132.68</ele>
        <time>2019-05-26T08:57:18.000Z</time>
      </trkpt>
      <trkpt lat="45.28344" lon="4.81112">
        <ele>132.45</ele>
        <time>2019-05-26T08:57:23.000Z</time>
      </trkpt>
      <trkpt lat="45.2831" lon="4.81116">
        <ele>132.2</ele>
        <time>2019-05-26T08:57:28.000Z</time>
      </trkpt>
      <trkpt lat="45.28277" lon="4.81119">
        <ele>132.64</ele>
        <time>2019-05-26T08:57:33.000Z</time>
      </trkpt>
      <trkpt lat="45.28243" lon="4.81125">
        <ele>133.43</ele>
        <time>2019-05-26T08:57:38.000Z</time>
      </trkpt>
      <trkpt lat="45.2821" lon="4.81131">
        <ele>133.45</ele>
        <time>2019-05-26T08:57:43.000Z</time>
      </trkpt>
      <trkpt lat="45.28176" lon="4.81132">
        <ele>134.19</ele>
        <time>2019-05-26T08:57:48.000Z</time>
      </trkpt>
      <trkpt lat="45.28144" lon="4.8114">
        <ele>134.58</ele>
        <time>2019-05-26T08:57:53.000Z</time>
      </trkpt>
      <trkpt lat="45.28113" lon="4.81145">
        <ele>134.46</ele>
        <time>2019-05-26T08:57:58.000Z</time>
      </trkpt>
      <trkpt lat="45.28083" lon="4.81148">
        <ele>135.2</ele>
        <time>2019-05-26T08:58:03.000Z</time>
      </trkpt>
      <trkpt lat="45.28049" lon="4.81156">
        <ele>133.74</ele>
        <time>2019-05-26T08:58:08.000Z</time>
      </trkpt>
      <trkpt lat="45.28018" lon="4.81164">
        <ele>136.57</ele>
        <time>2019-05-26T08:58:13.000Z</time>
      </trkpt>
      <trkpt lat="45.27989" lon="4.81168">
        <ele>135.14</ele>
        <time>2019-05-26T08:58:18.000Z</time>
      </trkpt>
      <trkpt lat="45.2796" lon="4.81174">
        <ele>135.46</ele>
        <time>2019-05-26T08:58:23.000Z</time>
      </trkpt>
      <trkpt lat="45.27933" lon="4.81183">
        <ele>137.19</ele>
        <time>2019-05-26T08:58:28.000Z</time>
      </trkpt>
      <trkpt lat="45.27906" lon="4.81182">
        <ele>135.51</ele>
        <time>2019-05-26T08:58:33.000Z</time>
      </trkpt>
      <trkpt lat="45.27874" lon="4.81179">
        <ele>134.44</ele>
        <time>2019-05-26T08:58:38.000Z</time>
      </trkpt>
      <trkpt lat="45.2784" lon="4.81177">
        <ele>133.51</ele>
        <time>2019-05-26T08:58:43.000Z</time>
      </trkpt>
      <trkpt lat="45.27808" lon="4.81178">
        <ele>132.69</ele>
        <time>2019-05-26T08:58:48.000Z</time>
      </trkpt>
      <trkpt lat="45.27778" lon="4.81176">
        <ele>134.43</ele>
        <time>2019-05-26T08:58:53.000Z</time>
      </trkpt>
      <trkpt lat="45.27745" lon="4.81174">
        <ele>134.44</ele>
        <time>2019-05-26T08:58:58.000Z</time>
      </trkpt>
      <trkpt lat="45.27714" lon="4.81178">
        <ele>131.77</ele>
        <time>2019-05-26T08:59:03.000Z</time>
      </trkpt>
      <trkpt lat="45.27684" lon="4.81174">
        <ele>132.69</ele>
        <time>2019-05-26T08:59:08.000Z</time>
      </trkpt>
      <trkpt lat="45.27653" lon="4.81176">
        <ele>133.45</ele>
        <time>2019-05-26T08:59:13.000Z</time>
      </trkpt>
      <trkpt lat="45.27619" lon="4.81174">
        <ele>132.5</ele>
        <time>2019-05-26T08:59:18.000Z</time>
      </trkpt>
      <trkpt lat="45.27586" lon="4.81174">
        <ele>132.39</ele>
        <time>2019-05-26T08:59:23.000Z</time>
      </trkpt>
      <trkpt lat="45.27555" lon="4.81173">
        <ele>134.17</ele>
        <time>2019-05-26T08:59:28.000Z</time>
      </trkpt>
      <trkpt lat="45.27522" lon="4.81169">
        <ele>135.42</ele>
        <time>2019-05-26T08:59:33.000Z</time>
      </trkpt>
      <trkpt lat="45.27489" lon="4.8117">
        <ele>132.69</ele>
        <time>2019-05-26T08:59:38.000Z</time>
      </trkpt>
      <trkpt lat="45.27461" lon="4.81172">
        <ele>133.42</ele>
        <time>2019-05-26T08:59:43.000Z</time>
      </trkpt>
      <trkpt lat="45.2743" lon="4.81172">
        <ele>133.45</ele>
        <time>2019-05-26T08:59:48.000Z</time>
      </trkpt>
      <trkpt lat="45.27398" lon="4.81169">
        <ele>131.63</ele>
        <time>2019-05-26T08:59:53.000Z</time>
      </trkpt>
      <trkpt lat="45.27369" lon="4.8117">
        <ele>130.58</ele>
        <time>2019-05-26T08:59:58.000Z</time>
      </trkpt>
      <trkpt lat="45.27343" lon="4.81172">
        <ele>132.42</ele>
        <time>2019-05-26T09:00:03.000Z</time>
      </trkpt>
      <trkpt lat="45.27319" lon="4.81175">
        <ele>133.47</ele>
        <time>2019-05-26T09:00:08.000Z</time>
      </trkpt>
      <trkpt lat="45.27296" lon="4.81177">
        <ele>136.17</ele>
        <time>2019-05-26T09:00:13.000Z</time>
      </trkpt>
      <trkpt lat="45.27274" lon="4.8118">
        <ele>137.42</ele>
        <time>2019-05-26T09:00:18.000Z</time>
      </trkpt>
      <trkpt lat="45.27253" lon="4.81183">
        <ele>139.42</ele>
        <time>2019-05-26T09:00:23.000Z</time>
      </trkpt>
      <trkpt lat="45.27232" lon="4.81184">
        <ele>140.43</ele>
        <time>2019-05-26T09:00:28.000Z</time>
      </trkpt>
      <trkpt lat="45.27213" lon="4.81186">
        <ele>140.43</ele>
        <time>2019-05-26T09:00:33.000Z</time>
      </trkpt>
      <trkpt lat="45.27194" lon="4.81187">
        <ele>140.48</ele>
        <time>2019-05-26T09:00:38.000Z</time>
      </trkpt>
      <trkpt lat="45.27175" lon="4.81188">
        <ele>140.43</ele>
        <time>2019-05-26T09:00:43.000Z</time>
      </trkpt>
      <trkpt lat="45.27148" lon="4.81187">
        <ele>139.45</ele>
        <time>2019-05-26T09:00:48.000Z</time>
      </trkpt>
      <trkpt lat="45.27114" lon="4.81188">
        <ele>137.68</ele>
        <time>2019-05-26T09:00:53.000Z</time>
      </trkpt>
      <trkpt lat="45.27077" lon="4.81194">
        <ele>136.45</ele>
        <time>2019-05-26T09:02:01.000Z</time>
      </trkpt>
      <trkpt lat="45.27041" lon="4.81199">
        <ele>134.45</ele>
        <time>2019-05-26T09:02:06.000Z</time>
      </trkpt>
      <trkpt lat="45.27006" lon="4.81194">
        <ele>134.43</ele>
        <time>2019-05-26T09:02:11.000Z</time>
      </trkpt>
      <trkpt lat="45.2697" lon="4.81195">
        <ele>133.62</ele>
        <time>2019-05-26T09:02:16.000Z</time>
      </trkpt>
      <trkpt lat="45.26935" lon="4.81193">
        <ele>133.43</ele>
        <time>2019-05-26T09:02:21.000Z</time>
      </trkpt>
      <trkpt lat="45.26901" lon="4.81195">
        <ele>134.18</ele>
        <time>2019-05-26T09:02:26.000Z</time>
      </trkpt>
      <trkpt lat="45.26867" lon="4.81202">
        <ele>133.68</ele>
        <time>2019-05-26T09:02:31.000Z</time>
      </trkpt>
      <trkpt lat="45.26832" lon="4.81208">
        <ele>133.43</ele>
        <time>2019-05-26T09:02:36.000Z</time>
      </trkpt>
      <trkpt lat="45.26796" lon="4.81214">
        <ele>133.43</ele>
        <time>2019-05-26T09:02:41.000Z</time>
      </trkpt>
      <trkpt lat="45.26761" lon="4.8122">
        <ele>132.48</ele>
        <time>2019-05-26T09:02:46.000Z</time>
      </trkpt>
      <trkpt lat="45.26728" lon="4.81229">
        <ele>132.43</ele>
        <time>2019-05-26T09:02:51.000Z</time>
      </trkpt>
      <trkpt lat="45.26699" lon="4.81242">
        <ele>131.68</ele>
        <time>2019-05-26T09:02:56.000Z</time>
      </trkpt>
      <trkpt lat="45.26667" lon="4.81257">
        <ele>131.43</ele>
        <time>2019-05-26T09:03:01.000Z</time>
      </trkpt>
      <trkpt lat="45.26637" lon="4.81272">
        <ele>129.49</ele>
        <time>2019-05-26T09:03:06.000Z</time>
      </trkpt>
      <trkpt lat="45.26606" lon="4.8127">
        <ele>130.36</ele>
        <time>2019-05-26T09:03:11.000Z</time>
      </trkpt>
      <trkpt lat="45.26577" lon="4.81258">
        <ele>131.37</ele>
        <time>2019-05-26T09:03:16.000Z</time>
      </trkpt>
      <trkpt lat="45.26549" lon="4.81242">
        <ele>130.68</ele>
        <time>2019-05-26T09:03:21.000Z</time>
      </trkpt>
      <trkpt lat="45.26518" lon="4.81233">
        <ele>130.43</ele>
        <time>2019-05-26T09:03:26.000Z</time>
      </trkpt>
      <trkpt lat="45.26488" lon="4.81232">
        <ele>131.44</ele>
        <time>2019-05-26T09:03:31.000Z</time>
      </trkpt>
      <trkpt lat="45.26456" lon="4.81225">
        <ele>132.38</ele>
        <time>2019-05-26T09:03:36.000Z</time>
      </trkpt>
      <trkpt lat="45.26423" lon="4.81221">
        <ele>131.42</ele>
        <time>2019-05-26T09:03:41.000Z</time>
      </trkpt>
      <trkpt lat="45.26393" lon="4.81219">
        <ele>132.42</ele>
        <time>2019-05-26T09:03:46.000Z</time>
      </trkpt>
      <trkpt lat="45.26364" lon="4.81225">
        <ele>131.48</ele>
        <time>2019-05-26T09:03:51.000Z</time>
      </trkpt>
      <trkpt lat="45.26334" lon="4.81225">
        <ele>132.22</ele>
        <time>2019-05-26T09:03:56.000Z</time>
      </trkpt>
      <trkpt lat="45.263" lon="4.8122">
        <ele>130.73</ele>
        <time>2019-05-26T09:04:01.000Z</time>
      </trkpt>
      <trkpt lat="45.2627" lon="4.81213">
        <ele>130.42</ele>
        <time>2019-05-26T09:04:06.000Z</time>
      </trkpt>
      <trkpt lat="45.26238" lon="4.81208">
        <ele>130.65</ele>
        <time>2019-05-26T09:04:11.000Z</time>
      </trkpt>
      <trkpt lat="45.26209" lon="4.81206">
        <ele>131.22</ele>
        <time>2019-05-26T09:04:16.000Z</time>
      </trkpt>
      <trkpt lat="45.26181" lon="4.81194">
        <ele>130.42</ele>
        <time>2019-05-26T09:04:21.000Z</time>
      </trkpt>
      <trkpt lat="45.26153" lon="4.81186">
        <ele>131.4</ele>
        <time>2019-05-26T09:04:26.000Z</time>
      </trkpt>
      <trkpt lat="45.26123" lon="4.81176">
        <ele>133.4</ele>
        <time>2019-05-26T09:04:31.000Z</time>
      </trkpt>
      <trkpt lat="45.26094" lon="4.81168">
        <ele>133.42</ele>
        <time>2019-05-26T09:04:36.000Z</time>
      </trkpt>
      <trkpt lat="45.26067" lon="4.81159">
        <ele>134.42</ele>
        <time>2019-05-26T09:04:41.000Z</time>
      </trkpt>
      <trkpt lat="45.2604" lon="4.81151">
        <ele>132.68</ele>
        <time>2019-05-26T09:04:46.000Z</time>
      </trkpt>
      <trkpt lat="45.26016" lon="4.81141">
        <ele>133.21</ele>
        <time>2019-05-26T09:04:51.000Z</time>
      </trkpt>
      <trkpt lat="45.25988" lon="4.81125">
        <ele>133.43</ele>
        <time>2019-05-26T09:04:56.000Z</time>
      </trkpt>
      <trkpt lat="45.25961" lon="4.81107">
        <ele>133.66</ele>
        <time>2019-05-26T09:05:01.000Z</time>
      </trkpt>
      <trkpt lat="45.25935" lon="4.81096">
        <ele>131.36</ele>
        <time>2019-05-26T09:05:06.000Z</time>
      </trkpt>
      <trkpt lat="45.25908" lon="4.81085">
        <ele>129.68</ele>
        <time>2019-05-26T09:05:11.000Z</time>
      </trkpt>
      <trkpt lat="45.2588" lon="4.81071">
        <ele>128.24</ele>
        <time>2019-05-26T09:05:16.000Z</time>
      </trkpt>
      <trkpt lat="45.25846" lon="4.8106">
        <ele>130.41</ele>
        <time>2019-05-26T09:05:21.000Z</time>
      </trkpt>
      <trkpt lat="45.25817" lon="4.81044">
        <ele>132.16</ele>
        <time>2019-05-26T09:05:26.000Z</time>
      </trkpt>
      <trkpt lat="45.25788" lon="4.81033">
        <ele>130.48</ele>
        <time>2019-05-26T09:05:31.000Z</time>
      </trkpt>
      <trkpt lat="45.25758" lon="4.81025">
        <ele>129.43</ele>
        <time>2019-05-26T09:05:36.000Z</time>
      </trkpt>
      <trkpt lat="45.2573" lon="4.81006">
        <ele>130.16</ele>
        <time>2019-05-26T09:05:41.000Z</time>
      </trkpt>
      <trkpt lat="45.25701" lon="4.80988">
        <ele>129.41</ele>
        <time>2019-05-26T09:05:46.000Z</time>
      </trkpt>
      <trkpt lat="45.2567" lon="4.80975">
        <ele>131.33</ele>
        <time>2019-05-26T09:05:51.000Z</time>
      </trkpt>
      <trkpt lat="45.25642" lon="4.80962">
        <ele>130.41</ele>
        <time>2019-05-26T09:05:56.000Z</time>
      </trkpt>
      <trkpt lat="45.25612" lon="4.80952">
        <ele>131.16</ele>
        <time>2019-05-26T09:06:01.000Z</time>
      </trkpt>
      <trkpt lat="45.25585" lon="4.80939">
        <ele>129.42</ele>
        <time>2019-05-26T09:06:06.000Z</time>
      </trkpt>
      <trkpt lat="45.2556" lon="4.80929">
        <ele>130.14</ele>
        <time>2019-05-26T09:06:11.000Z</time>
      </trkpt>
      <trkpt lat="45.25535" lon="4.8092">
        <ele>132.28</ele>
        <time>2019-05-26T09:06:16.000Z</time>
      </trkpt>
      <trkpt lat="45.25507" lon="4.80909">
        <ele>131.42</ele>
        <time>2019-05-26T09:06:21.000Z</time>
      </trkpt>
      <trkpt lat="45.25477" lon="4.80903">
        <ele>132.15</ele>
        <time>2019-05-26T09:06:26.000Z</time>
      </trkpt>
      <trkpt lat="45.2545" lon="4.80899">
        <ele>131.65</ele>
        <time>2019-05-26T09:06:31.000Z</time>
      </trkpt>
      <trkpt lat="45.25427" lon="4.80895">
        <ele>131.34</ele>
        <time>2019-05-26T09:06:36.000Z</time>
      </trkpt>
      <trkpt lat="45.25398" lon="4.80886">
        <ele>132.4</ele>
        <time>2019-05-26T09:06:41.000Z</time>
      </trkpt>
      <trkpt lat="45.25366" lon="4.80892">
        <ele>133.15</ele>
        <time>2019-05-26T09:06:46.000Z</time>
      </trkpt>
      <trkpt lat="45.25346" lon="4.8093">
        <ele>133.4</ele>
        <time>2019-05-26T09:06:51.000Z</time>
      </trkpt>
      <trkpt lat="45.25315" lon="4.80947">
        <ele>135.03</ele>
        <time>2019-05-26T09:06:56.000Z</time>
      </trkpt>
      <trkpt lat="45.25289" lon="4.80957">
        <ele>135.41</ele>
        <time>2019-05-26T09:07:01.000Z</time>
      </trkpt>
      <trkpt lat="45.25271" lon="4.80958">
        <ele>134.59</ele>
        <time>2019-05-26T09:07:06.000Z</time>
      </trkpt>
      <trkpt lat="45.25259" lon="4.80961">
        <ele>136.33</ele>
        <time>2019-05-26T09:07:51.000Z</time>
      </trkpt>
      <trkpt lat="45.25247" lon="4.80964">
        <ele>136.17</ele>
        <time>2019-05-26T09:07:57.000Z</time>
      </trkpt>
      <trkpt lat="45.25233" lon="4.80963">
        <ele>137.33</ele>
        <time>2019-05-26T09:08:02.000Z</time>
      </trkpt>
      <trkpt lat="45.25224" lon="4.80963">
        <ele>136.4</ele>
        <time>2019-05-26T09:08:07.000Z</time>
      </trkpt>
      <trkpt lat="45.25214" lon="4.80971">
        <ele>139.09</ele>
        <time>2019-05-26T09:08:12.000Z</time>
      </trkpt>
      <trkpt lat="45.2521" lon="4.80992">
        <ele>138.65</ele>
        <time>2019-05-26T09:08:17.000Z</time>
      </trkpt>
      <trkpt lat="45.25212" lon="4.81019">
        <ele>138.4</ele>
        <time>2019-05-26T09:08:22.000Z</time>
      </trkpt>
      <trkpt lat="45.25209" lon="4.81045">
        <ele>139.39</ele>
        <time>2019-05-26T09:08:27.000Z</time>
      </trkpt>
      <trkpt lat="45.25198" lon="4.81065">
        <ele>136.73</ele>
        <time>2019-05-26T09:08:32.000Z</time>
      </trkpt>
      <trkpt lat="45.25186" lon="4.81076">
        <ele>135.41</ele>
        <time>2019-05-26T09:08:37.000Z</time>
      </trkpt>
      <trkpt lat="45.25172" lon="4.81087">
        <ele>134.41</ele>
        <time>2019-05-26T09:08:42.000Z</time>
      </trkpt>
      <trkpt lat="45.2516" lon="4.81097">
        <ele>134.4</ele>
        <time>2019-05-26T09:08:47.000Z</time>
      </trkpt>
      <trkpt lat="45.25152" lon="4.81107">
        <ele>135.39</ele>
        <time>2019-05-26T09:08:52.000Z</time>
      </trkpt>
      <trkpt lat="45.25136" lon="4.81097">
        <ele>134.65</ele>
        <time>2019-05-26T09:08:57.000Z</time>
      </trkpt>
      <trkpt lat="45.25116" lon="4.81075">
        <ele>135.39</ele>
        <time>2019-05-26T09:09:02.000Z</time>
      </trkpt>
      <trkpt lat="45.25093" lon="4.81057">
        <ele>136.4</ele>
        <time>2019-05-26T09:09:07.000Z</time>
      </trkpt>
      <trkpt lat="45.25069" lon="4.8104">
        <ele>136.46</ele>
        <time>2019-05-26T09:09:12.000Z</time>
      </trkpt>
      <trkpt lat="45.25045" lon="4.81022">
        <ele>136.4</ele>
        <time>2019-05-26T09:09:17.000Z</time>
      </trkpt>
      <trkpt lat="45.25023" lon="4.81007">
        <ele>137.38</ele>
        <time>2019-05-26T09:09:25.000Z</time>
      </trkpt>
      <trkpt lat="45.25002" lon="4.80989">
        <ele>137.63</ele>
        <time>2019-05-26T09:09:30.000Z</time>
      </trkpt>
      <trkpt lat="45.24983" lon="4.80972">
        <ele>139.14</ele>
        <time>2019-05-26T09:09:55.000Z</time>
      </trkpt>
      <trkpt lat="45.24965" lon="4.80955">
        <ele>138.41</ele>
        <time>2019-05-26T09:10:00.000Z</time>
      </trkpt>
      <trkpt lat="45.24943" lon="4.80938">
        <ele>138.44</ele>
        <time>2019-05-26T09:10:05.000Z</time>
      </trkpt>
      <trkpt lat="45.24918" lon="4.80923">
        <ele>138.44</ele>
        <time>2019-05-26T09:10:11.000Z</time>
      </trkpt>
      <trkpt lat="45.24893" lon="4.80904">
        <ele>138.16</ele>
        <time>2019-05-26T09:10:16.000Z</time>
      </trkpt>
      <trkpt lat="45.24867" lon="4.80887">
        <ele>138.39</ele>
        <time>2019-05-26T09:10:21.000Z</time>
      </trkpt>
      <trkpt lat="45.24842" lon="4.80869">
        <ele>137.41</ele>
        <time>2019-05-26T09:10:26.000Z</time>
      </trkpt>
      <trkpt lat="45.24816" lon="4.8085">
        <ele>137.39</ele>
        <time>2019-05-26T09:10:31.000Z</time>
      </trkpt>
      <trkpt lat="45.24792" lon="4.80833">
        <ele>137.39</ele>
        <time>2019-05-26T09:10:36.000Z</time>
      </trkpt>
      <trkpt lat="45.24767" lon="4.80817">
        <ele>136.41</ele>
        <time>2019-05-26T09:10:41.000Z</time>
      </trkpt>
      <trkpt lat="45.24744" lon="4.80801">
        <ele>136.33</ele>
        <time>2019-05-26T09:10:46.000Z</time>
      </trkpt>
      <trkpt lat="45.24722" lon="4.80786">
        <ele>137.39</ele>
        <time>2019-05-26T09:10:51.000Z</time>
      </trkpt>
      <trkpt lat="45.247" lon="4.80768">
        <ele>137.39</ele>
        <time>2019-05-26T09:10:56.000Z</time>
      </trkpt>
      <trkpt lat="45.24677" lon="4.80749">
        <ele>138.38</ele>
        <time>2019-05-26T09:11:01.000Z</time>
      </trkpt>
      <trkpt lat="45.24654" lon="4.80732">
        <ele>139.14</ele>
        <time>2019-05-26T09:11:06.000Z</time>
      </trkpt>
      <trkpt lat="45.24632" lon="4.80715">
        <ele>139.34</ele>
        <time>2019-05-26T09:11:11.000Z</time>
      </trkpt>
      <trkpt lat="45.24609" lon="4.80698">
        <ele>140.2</ele>
        <time>2019-05-26T09:11:16.000Z</time>
      </trkpt>
      <trkpt lat="45.24586" lon="4.80682">
        <ele>140.33</ele>
        <time>2019-05-26T09:11:21.000Z</time>
      </trkpt>
      <trkpt lat="45.24564" lon="4.80665">
        <ele>140.39</ele>
        <time>2019-05-26T09:11:26.000Z</time>
      </trkpt>
      <trkpt lat="45.24539" lon="4.80655">
        <ele>138.45</ele>
        <time>2019-05-26T09:11:31.000Z</time>
      </trkpt>
      <trkpt lat="45.24513" lon="4.80647">
        <ele>139.38</ele>
        <time>2019-05-26T09:11:36.000Z</time>
      </trkpt>
      <trkpt lat="45.24493" lon="4.80641">
        <ele>138.68</ele>
        <time>2019-05-26T09:11:41.000Z</time>
      </trkpt>
      <trkpt lat="45.2448" lon="4.80637">
        <ele>137.43</ele>
        <time>2019-05-26T09:11:46.000Z</time>
      </trkpt>
      <trkpt lat="45.24468" lon="4.80633">
        <ele>138.38</ele>
        <time>2019-05-26T09:11:51.000Z</time>
      </trkpt>
      <trkpt lat="45.24456" lon="4.80629">
        <ele>137.6</ele>
        <time>2019-05-26T09:11:56.000Z</time>
      </trkpt>
      <trkpt lat="45.24447" lon="4.80627">
        <ele>138.38</ele>
        <time>2019-05-26T09:12:01.000Z</time>
      </trkpt>
      <trkpt lat="45.24436" lon="4.80624">
        <ele>139.38</ele>
        <time>2019-05-26T09:12:06.000Z</time>
      </trkpt>
      <trkpt lat="45.24427" lon="4.8062">
        <ele>139.2</ele>
        <time>2019-05-26T09:12:11.000Z</time>
      </trkpt>
      <trkpt lat="45.2441" lon="4.80615">
        <ele>139.38</ele>
        <time>2019-05-26T09:12:16.000Z</time>
      </trkpt>
      <trkpt lat="45.24387" lon="4.8061">
        <ele>140.38</ele>
        <time>2019-05-26T09:12:21.000Z</time>
      </trkpt>
      <trkpt lat="45.24361" lon="4.806">
        <ele>139.4</ele>
        <time>2019-05-26T09:12:26.000Z</time>
      </trkpt>
      <trkpt lat="45.24334" lon="4.80591">
        <ele>137.45</ele>
        <time>2019-05-26T09:12:31.000Z</time>
      </trkpt>
      <trkpt lat="45.24308" lon="4.80583">
        <ele>137.38</ele>
        <time>2019-05-26T09:12:36.000Z</time>
      </trkpt>
      <trkpt lat="45.24281" lon="4.80573">
        <ele>135.46</ele>
        <time>2019-05-26T09:12:41.000Z</time>
      </trkpt>
      <trkpt lat="45.24251" lon="4.80562">
        <ele>135.58</ele>
        <time>2019-05-26T09:12:46.000Z</time>
      </trkpt>
      <trkpt lat="45.24223" lon="4.80555">
        <ele>137.36</ele>
        <time>2019-05-26T09:12:51.000Z</time>
      </trkpt>
      <trkpt lat="45.24205" lon="4.80556">
        <ele>138.43</ele>
        <time>2019-05-26T09:12:56.000Z</time>
      </trkpt>
      <trkpt lat="45.2418" lon="4.80553">
        <ele>138.13</ele>
        <time>2019-05-26T09:13:01.000Z</time>
      </trkpt>
      <trkpt lat="45.24164" lon="4.80549">
        <ele>137.33</ele>
        <time>2019-05-26T09:13:06.000Z</time>
      </trkpt>
      <trkpt lat="45.24151" lon="4.80547">
        <ele>138.07</ele>
        <time>2019-05-26T09:13:11.000Z</time>
      </trkpt>
      <trkpt lat="45.2413" lon="4.80549">
        <ele>138.62</ele>
        <time>2019-05-26T09:13:16.000Z</time>
      </trkpt>
      <trkpt lat="45.24109" lon="4.80547">
        <ele>141.05</ele>
        <time>2019-05-26T09:13:21.000Z</time>
      </trkpt>
      <trkpt lat="45.24091" lon="4.80546">
        <ele>142.12</ele>
        <time>2019-05-26T09:13:26.000Z</time>
      </trkpt>
      <trkpt lat="45.24085" lon="4.80531">
        <ele>141.57</ele>
        <time>2019-05-26T09:13:31.000Z</time>
      </trkpt>
      <trkpt lat="45.24087" lon="4.80512">
        <ele>141.42</ele>
        <time>2019-05-26T09:13:36.000Z</time>
      </trkpt>
      <trkpt lat="45.24094" lon="4.805">
        <ele>140.13</ele>
        <time>2019-05-26T09:13:41.000Z</time>
      </trkpt>
      <trkpt lat="45.24102" lon="4.80507">
        <ele>141.3</ele>
        <time>2019-05-26T09:13:46.000Z</time>
      </trkpt>
      <trkpt lat="45.24111" lon="4.80512">
        <ele>140.38</ele>
        <time>2019-05-26T09:13:51.000Z</time>
      </trkpt>
      <trkpt lat="45.24114" lon="4.80535">
        <ele>139.44</ele>
        <time>2019-05-26T09:13:56.000Z</time>
      </trkpt>
      <trkpt lat="45.24116" lon="4.80552">
        <ele>139.57</ele>
        <time>2019-05-26T09:14:01.000Z</time>
      </trkpt>
      <trkpt lat="45.24137" lon="4.80551">
        <ele>140.38</ele>
        <time>2019-05-26T09:14:06.000Z</time>
      </trkpt>
      <trkpt lat="45.24159" lon="4.80554">
        <ele>141.56</ele>
        <time>2019-05-26T09:14:11.000Z</time>
      </trkpt>
      <trkpt lat="45.24181" lon="4.80554">
        <ele>142.32</ele>
        <time>2019-05-26T09:14:16.000Z</time>
      </trkpt>
      <trkpt lat="45.24202" lon="4.80556">
        <ele>145.22</ele>
        <time>2019-05-26T09:14:21.000Z</time>
      </trkpt>
      <trkpt lat="45.24224" lon="4.80559">
        <ele>143.38</ele>
        <time>2019-05-26T09:14:26.000Z</time>
      </trkpt>
      <trkpt lat="45.24245" lon="4.80567">
        <ele>140.39</ele>
        <time>2019-05-26T09:14:31.000Z</time>
      </trkpt>
      <trkpt lat="45.24269" lon="4.80575">
        <ele>141.08</ele>
        <time>2019-05-26T09:14:36.000Z</time>
      </trkpt>
      <trkpt lat="45.24292" lon="4.80582">
        <ele>139.63</ele>
        <time>2019-05-26T09:14:41.000Z</time>
      </trkpt>
      <trkpt lat="45.24314" lon="4.80592">
        <ele>140.38</ele>
        <time>2019-05-26T09:14:46.000Z</time>
      </trkpt>
      <trkpt lat="45.24334" lon="4.80598">
        <ele>139.63</ele>
        <time>2019-05-26T09:14:51.000Z</time>
      </trkpt>
      <trkpt lat="45.24355" lon="4.80603">
        <ele>139.38</ele>
        <time>2019-05-26T09:14:56.000Z</time>
      </trkpt>
      <trkpt lat="45.24374" lon="4.80609">
        <ele>140.37</ele>
        <time>2019-05-26T09:15:01.000Z</time>
      </trkpt>
      <trkpt lat="45.24393" lon="4.80614">
        <ele>141.38</ele>
        <time>2019-05-26T09:15:06.000Z</time>
      </trkpt>
      <trkpt lat="45.24408" lon="4.80621">
        <ele>144.07</ele>
        <time>2019-05-26T09:15:11.000Z</time>
      </trkpt>
      <trkpt lat="45.24416" lon="4.80626">
        <ele>146.38</ele>
        <time>2019-05-26T09:15:16.000Z</time>
      </trkpt>
      <trkpt lat="45.24428" lon="4.80633">
        <ele>145.38</ele>
        <time>2019-05-26T09:15:21.000Z</time>
      </trkpt>
      <trkpt lat="45.24437" lon="4.80633">
        <ele>140.4</ele>
        <time>2019-05-26T09:15:26.000Z</time>
      </trkpt>
      <trkpt lat="45.24448" lon="4.80632">
        <ele>142.12</ele>
        <time>2019-05-26T09:15:31.000Z</time>
      </trkpt>
      <trkpt lat="45.24459" lon="4.80636">
        <ele>141.14</ele>
        <time>2019-05-26T09:15:36.000Z</time>
      </trkpt>
      <trkpt lat="45.24458" lon="4.80618">
        <ele>140.44</ele>
        <time>2019-05-26T09:15:41.000Z</time>
      </trkpt>
      <trkpt lat="45.24457" lon="4.80578">
        <ele>139.4</ele>
        <time>2019-05-26T09:15:46.000Z</time>
      </trkpt>
      <trkpt lat="45.24461" lon="4.80543">
        <ele>139.38</ele>
        <time>2019-05-26T09:15:51.000Z</time>
      </trkpt>
      <trkpt lat="45.24464" lon="4.80511">
        <ele>138.63</ele>
        <time>2019-05-26T09:15:56.000Z</time>
      </trkpt>
      <trkpt lat="45.24467" lon="4.80471">
        <ele>137.65</ele>
        <time>2019-05-26T09:16:01.000Z</time>
      </trkpt>
      <trkpt lat="45.24471" lon="4.80423">
        <ele>136.44</ele>
        <time>2019-05-26T09:16:06.000Z</time>
      </trkpt>
      <trkpt lat="45.24474" lon="4.80372">
        <ele>135.44</ele>
        <time>2019-05-26T09:16:11.000Z</time>
      </trkpt>
      <trkpt lat="45.24476" lon="4.80325">
        <ele>135.38</ele>
        <time>2019-05-26T09:16:16.000Z</time>
      </trkpt>
      <trkpt lat="45.24462" lon="4.80313">
        <ele>134.39</ele>
        <time>2019-05-26T09:16:21.000Z</time>
      </trkpt>
      <trkpt lat="45.24434" lon="4.80311">
        <ele>135.31</ele>
        <time>2019-05-26T09:16:26.000Z</time>
      </trkpt>
      <trkpt lat="45.24403" lon="4.8031">
        <ele>135.44</ele>
        <time>2019-05-26T09:16:31.000Z</time>
      </trkpt>
      <trkpt lat="45.24373" lon="4.80311">
        <ele>133.68</ele>
        <time>2019-05-26T09:16:36.000Z</time>
      </trkpt>
      <trkpt lat="45.24341" lon="4.80311">
        <ele>133.56</ele>
        <time>2019-05-26T09:16:41.000Z</time>
      </trkpt>
      <trkpt lat="45.24308" lon="4.80303">
        <ele>132.39</ele>
        <time>2019-05-26T09:16:46.000Z</time>
      </trkpt>
      <trkpt lat="45.24281" lon="4.80283">
        <ele>129.45</ele>
        <time>2019-05-26T09:16:51.000Z</time>
      </trkpt>
      <trkpt lat="45.24251" lon="4.80271">
        <ele>129.37</ele>
        <time>2019-05-26T09:16:56.000Z</time>
      </trkpt>
      <trkpt lat="45.24223" lon="4.80261">
        <ele>128.38</ele>
        <time>2019-05-26T09:17:01.000Z</time>
      </trkpt>
      <trkpt lat="45.24194" lon="4.80264">
        <ele>127.38</ele>
        <time>2019-05-26T09:17:06.000Z</time>
      </trkpt>
      <trkpt lat="45.24165" lon="4.80273">
        <ele>128.12</ele>
        <time>2019-05-26T09:17:11.000Z</time>
      </trkpt>
      <trkpt lat="45.24136" lon="4.80283">
        <ele>129.13</ele>
        <time>2019-05-26T09:17:16.000Z</time>
      </trkpt>
      <trkpt lat="45.24107" lon="4.80293">
        <ele>129.37</ele>
        <time>2019-05-26T09:17:21.000Z</time>
      </trkpt>
      <trkpt lat="45.2408" lon="4.80297">
        <ele>129.33</ele>
        <time>2019-05-26T09:17:26.000Z</time>
      </trkpt>
      <trkpt lat="45.24051" lon="4.80302">
        <ele>129.37</ele>
        <time>2019-05-26T09:17:31.000Z</time>
      </trkpt>
      <trkpt lat="45.24023" lon="4.80303">
        <ele>129.37</ele>
        <time>2019-05-26T09:17:36.000Z</time>
      </trkpt>
      <trkpt lat="45.23993" lon="4.80306">
        <ele>128.62</ele>
        <time>2019-05-26T09:17:41.000Z</time>
      </trkpt>
      <trkpt lat="45.23966" lon="4.80307">
        <ele>129.36</ele>
        <time>2019-05-26T09:17:46.000Z</time>
      </trkpt>
      <trkpt lat="45.23938" lon="4.80315">
        <ele>131.12</ele>
        <time>2019-05-26T09:17:51.000Z</time>
      </trkpt>
      <trkpt lat="45.2391" lon="4.80324">
        <ele>131.37</ele>
        <time>2019-05-26T09:17:56.000Z</time>
      </trkpt>
      <trkpt lat="45.23882" lon="4.80332">
        <ele>132.37</ele>
        <time>2019-05-26T09:18:01.000Z</time>
      </trkpt>
      <trkpt lat="45.23856" lon="4.80338">
        <ele>132.37</ele>
        <time>2019-05-26T09:18:06.000Z</time>
      </trkpt>
      <trkpt lat="45.23828" lon="4.80343">
        <ele>132.37</ele>
        <time>2019-05-26T09:18:11.000Z</time>
      </trkpt>
      <trkpt lat="45.238" lon="4.8035">
        <ele>132.37</ele>
        <time>2019-05-26T09:18:16.000Z</time>
      </trkpt>
      <trkpt lat="45.2377" lon="4.80357">
        <ele>133.35</ele>
        <time>2019-05-26T09:18:21.000Z</time>
      </trkpt>
      <trkpt lat="45.23742" lon="4.80366">
        <ele>131.44</ele>
        <time>2019-05-26T09:18:26.000Z</time>
      </trkpt>
      <trkpt lat="45.23713" lon="4.80369">
        <ele>131.43</ele>
        <time>2019-05-26T09:18:31.000Z</time>
      </trkpt>
      <trkpt lat="45.23698" lon="4.80395">
        <ele>132.18</ele>
        <time>2019-05-26T09:18:36.000Z</time>
      </trkpt>
      <trkpt lat="45.23716" lon="4.80421">
        <ele>131.43</ele>
        <time>2019-05-26T09:18:41.000Z</time>
      </trkpt>
      <trkpt lat="45.23741" lon="4.80441">
        <ele>129.63</ele>
        <time>2019-05-26T09:18:46.000Z</time>
      </trkpt>
      <trkpt lat="45.23763" lon="4.80464">
        <ele>131.36</ele>
        <time>2019-05-26T09:18:51.000Z</time>
      </trkpt>
      <trkpt lat="45.23785" lon="4.80487">
        <ele>131.38</ele>
        <time>2019-05-26T09:18:56.000Z</time>
      </trkpt>
      <trkpt lat="45.23807" lon="4.80511">
        <ele>133.11</ele>
        <time>2019-05-26T09:19:01.000Z</time>
      </trkpt>
      <trkpt lat="45.23831" lon="4.80536">
        <ele>132.43</ele>
        <time>2019-05-26T09:19:06.000Z</time>
      </trkpt>
      <trkpt lat="45.23853" lon="4.8056">
        <ele>132.38</ele>
        <time>2019-05-26T09:19:11.000Z</time>
      </trkpt>
      <trkpt lat="45.23874" lon="4.80584">
        <ele>132.38</ele>
        <time>2019-05-26T09:19:16.000Z</time>
      </trkpt>
      <trkpt lat="45.23893" lon="4.80608">
        <ele>132.37</ele>
        <time>2019-05-26T09:19:21.000Z</time>
      </trkpt>
      <trkpt lat="45.23909" lon="4.80626">
        <ele>131.57</ele>
        <time>2019-05-26T09:19:26.000Z</time>
      </trkpt>
      <trkpt lat="45.23902" lon="4.80639">
        <ele>129.39</ele>
        <time>2019-05-26T09:19:31.000Z</time>
      </trkpt>
      <trkpt lat="45.23883" lon="4.8065">
        <ele>130.36</ele>
        <time>2019-05-26T09:19:36.000Z</time>
      </trkpt>
      <trkpt lat="45.23863" lon="4.80657">
        <ele>129.21</ele>
        <time>2019-05-26T09:19:41.000Z</time>
      </trkpt>
      <trkpt lat="45.23844" lon="4.80653">
        <ele>130.17</ele>
        <time>2019-05-26T09:19:46.000Z</time>
      </trkpt>
      <trkpt lat="45.23829" lon="4.80626">
        <ele>130.13</ele>
        <time>2019-05-26T09:19:51.000Z</time>
      </trkpt>
      <trkpt lat="45.23809" lon="4.80607">
        <ele>130.36</ele>
        <time>2019-05-26T09:19:56.000Z</time>
      </trkpt>
      <trkpt lat="45.23788" lon="4.80585">
        <ele>129.5</ele>
        <time>2019-05-26T09:20:01.000Z</time>
      </trkpt>
      <trkpt lat="45.23764" lon="4.80566">
        <ele>130.37</ele>
        <time>2019-05-26T09:20:06.000Z</time>
      </trkpt>
      <trkpt lat="45.23738" lon="4.80544">
        <ele>129.64</ele>
        <time>2019-05-26T09:20:11.000Z</time>
      </trkpt>
      <trkpt lat="45.23713" lon="4.80524">
        <ele>131.11</ele>
        <time>2019-05-26T09:20:16.000Z</time>
      </trkpt>
      <trkpt lat="45.23683" lon="4.80508">
        <ele>131.37</ele>
        <time>2019-05-26T09:20:21.000Z</time>
      </trkpt>
      <trkpt lat="45.23653" lon="4.805">
        <ele>132.37</ele>
        <time>2019-05-26T09:20:26.000Z</time>
      </trkpt>
      <trkpt lat="45.23625" lon="4.80494">
        <ele>131.43</ele>
        <time>2019-05-26T09:20:31.000Z</time>
      </trkpt>
      <trkpt lat="45.23599" lon="4.80488">
        <ele>129.4</ele>
        <time>2019-05-26T09:20:36.000Z</time>
      </trkpt>
      <trkpt lat="45.23574" lon="4.80483">
        <ele>129.37</ele>
        <time>2019-05-26T09:20:41.000Z</time>
      </trkpt>
      <trkpt lat="45.23549" lon="4.80479">
        <ele>129.56</ele>
        <time>2019-05-26T09:20:46.000Z</time>
      </trkpt>
      <trkpt lat="45.23523" lon="4.80473">
        <ele>128.62</ele>
        <time>2019-05-26T09:20:51.000Z</time>
      </trkpt>
      <trkpt lat="45.23495" lon="4.80465">
        <ele>127.37</ele>
        <time>2019-05-26T09:20:56.000Z</time>
      </trkpt>
      <trkpt lat="45.23466" lon="4.80459">
        <ele>129.16</ele>
        <time>2019-05-26T09:21:01.000Z</time>
      </trkpt>
      <trkpt lat="45.23436" lon="4.80452">
        <ele>130.37</ele>
        <time>2019-05-26T09:21:06.000Z</time>
      </trkpt>
      <trkpt lat="45.23405" lon="4.80442">
        <ele>130.38</ele>
        <time>2019-05-26T09:21:11.000Z</time>
      </trkpt>
      <trkpt lat="45.23376" lon="4.80433">
        <ele>130.13</ele>
        <time>2019-05-26T09:21:16.000Z</time>
      </trkpt>
      <trkpt lat="45.23343" lon="4.80424">
        <ele>129.37</ele>
        <time>2019-05-26T09:21:21.000Z</time>
      </trkpt>
      <trkpt lat="45.2331" lon="4.80424">
        <ele>128.37</ele>
        <time>2019-05-26T09:21:26.000Z</time>
      </trkpt>
      <trkpt lat="45.23277" lon="4.80428">
        <ele>127.37</ele>
        <time>2019-05-26T09:21:31.000Z</time>
      </trkpt>
      <trkpt lat="45.23248" lon="4.80441">
        <ele>128.38</ele>
        <time>2019-05-26T09:21:52.000Z</time>
      </trkpt>
      <trkpt lat="45.23219" lon="4.80442">
        <ele>130.3</ele>
        <time>2019-05-26T09:21:59.000Z</time>
      </trkpt>
      <trkpt lat="45.23187" lon="4.80438">
        <ele>131.36</ele>
        <time>2019-05-26T09:22:04.000Z</time>
      </trkpt>
      <trkpt lat="45.23157" lon="4.80434">
        <ele>130.32</ele>
        <time>2019-05-26T09:22:09.000Z</time>
      </trkpt>
      <trkpt lat="45.23127" lon="4.8043">
        <ele>131.36</ele>
        <time>2019-05-26T09:22:14.000Z</time>
      </trkpt>
      <trkpt lat="45.23095" lon="4.80425">
        <ele>131.36</ele>
        <time>2019-05-26T09:22:19.000Z</time>
      </trkpt>
      <trkpt lat="45.23068" lon="4.80423">
        <ele>129.43</ele>
        <time>2019-05-26T09:22:24.000Z</time>
      </trkpt>
      <trkpt lat="45.23052" lon="4.80422">
        <ele>130.36</ele>
        <time>2019-05-26T09:22:29.000Z</time>
      </trkpt>
      <trkpt lat="45.23036" lon="4.80416">
        <ele>131.3</ele>
        <time>2019-05-26T09:22:34.000Z</time>
      </trkpt>
      <trkpt lat="45.23018" lon="4.80408">
        <ele>131.37</ele>
        <time>2019-05-26T09:22:39.000Z</time>
      </trkpt>
      <trkpt lat="45.22994" lon="4.80408">
        <ele>131.13</ele>
        <time>2019-05-26T09:22:44.000Z</time>
      </trkpt>
      <trkpt lat="45.22969" lon="4.80408">
        <ele>131.36</ele>
        <time>2019-05-26T09:22:49.000Z</time>
      </trkpt>
      <trkpt lat="45.22944" lon="4.80407">
        <ele>132.11</ele>
        <time>2019-05-26T09:22:54.000Z</time>
      </trkpt>
      <trkpt lat="45.22918" lon="4.80408">
        <ele>131.42</ele>
        <time>2019-05-26T09:22:59.000Z</time>
      </trkpt>
      <trkpt lat="45.22892" lon="4.80408">
        <ele>131.36</ele>
        <time>2019-05-26T09:23:04.000Z</time>
      </trkpt>
      <trkpt lat="45.22866" lon="4.8041">
        <ele>130.36</ele>
        <time>2019-05-26T09:23:09.000Z</time>
      </trkpt>
      <trkpt lat="45.22841" lon="4.80413">
        <ele>131.54</ele>
        <time>2019-05-26T09:23:14.000Z</time>
      </trkpt>
      <trkpt lat="45.22815" lon="4.80419">
        <ele>131.36</ele>
        <time>2019-05-26T09:23:19.000Z</time>
      </trkpt>
      <trkpt lat="45.22788" lon="4.80427">
        <ele>132.31</ele>
        <time>2019-05-26T09:23:24.000Z</time>
      </trkpt>
      <trkpt lat="45.2276" lon="4.80437">
        <ele>132.36</ele>
        <time>2019-05-26T09:23:29.000Z</time>
      </trkpt>
      <trkpt lat="45.22731" lon="4.80447">
        <ele>131.36</ele>
        <time>2019-05-26T09:23:34.000Z</time>
      </trkpt>
      <trkpt lat="45.22703" lon="4.80457">
        <ele>132.36</ele>
        <time>2019-05-26T09:23:39.000Z</time>
      </trkpt>
      <trkpt lat="45.22676" lon="4.80467">
        <ele>132.36</ele>
        <time>2019-05-26T09:23:44.000Z</time>
      </trkpt>
      <trkpt lat="45.22648" lon="4.80478">
        <ele>131.61</ele>
        <time>2019-05-26T09:23:49.000Z</time>
      </trkpt>
      <trkpt lat="45.2262" lon="4.8049">
        <ele>131.36</ele>
        <time>2019-05-26T09:23:54.000Z</time>
      </trkpt>
      <trkpt lat="45.2259" lon="4.80505">
        <ele>131.16</ele>
        <time>2019-05-26T09:23:59.000Z</time>
      </trkpt>
      <trkpt lat="45.22563" lon="4.80523">
        <ele>132.11</ele>
        <time>2019-05-26T09:24:04.000Z</time>
      </trkpt>
      <trkpt lat="45.22534" lon="4.80536">
        <ele>131.36</ele>
        <time>2019-05-26T09:24:09.000Z</time>
      </trkpt>
      <trkpt lat="45.22504" lon="4.80551">
        <ele>131.59</ele>
        <time>2019-05-26T09:24:14.000Z</time>
      </trkpt>
      <trkpt lat="45.22474" lon="4.8057">
        <ele>132.36</ele>
        <time>2019-05-26T09:24:19.000Z</time>
      </trkpt>
      <trkpt lat="45.22444" lon="4.80586">
        <ele>133.3</ele>
        <time>2019-05-26T09:24:24.000Z</time>
      </trkpt>
      <trkpt lat="45.22413" lon="4.80602">
        <ele>132.36</ele>
        <time>2019-05-26T09:24:29.000Z</time>
      </trkpt>
      <trkpt lat="45.22383" lon="4.80619">
        <ele>132.34</ele>
        <time>2019-05-26T09:24:34.000Z</time>
      </trkpt>
      <trkpt lat="45.22352" lon="4.80635">
        <ele>132.36</ele>
        <time>2019-05-26T09:24:39.000Z</time>
      </trkpt>
      <trkpt lat="45.22319" lon="4.80652">
        <ele>131.36</ele>
        <time>2019-05-26T09:24:44.000Z</time>
      </trkpt>
      <trkpt lat="45.22288" lon="4.80669">
        <ele>131.36</ele>
        <time>2019-05-26T09:24:49.000Z</time>
      </trkpt>
      <trkpt lat="45.22257" lon="4.80684">
        <ele>131.31</ele>
        <time>2019-05-26T09:24:54.000Z</time>
      </trkpt>
      <trkpt lat="45.22228" lon="4.80697">
        <ele>129.62</ele>
        <time>2019-05-26T09:24:59.000Z</time>
      </trkpt>
      <trkpt lat="45.22198" lon="4.80709">
        <ele>129.42</ele>
        <time>2019-05-26T09:25:04.000Z</time>
      </trkpt>
      <trkpt lat="45.22166" lon="4.80723">
        <ele>129.3</ele>
        <time>2019-05-26T09:25:09.000Z</time>
      </trkpt>
      <trkpt lat="45.22136" lon="4.80734">
        <ele>126.58</ele>
        <time>2019-05-26T09:25:14.000Z</time>
      </trkpt>
      <trkpt lat="45.22105" lon="4.80751">
        <ele>128.91</ele>
        <time>2019-05-26T09:25:19.000Z</time>
      </trkpt>
      <trkpt lat="45.22077" lon="4.80764">
        <ele>129.42</ele>
        <time>2019-05-26T09:25:24.000Z</time>
      </trkpt>
      <trkpt lat="45.22052" lon="4.80779">
        <ele>128.61</ele>
        <time>2019-05-26T09:25:29.000Z</time>
      </trkpt>
      <trkpt lat="45.22029" lon="4.80786">
        <ele>129.31</ele>
        <time>2019-05-26T09:25:34.000Z</time>
      </trkpt>
      <trkpt lat="45.22" lon="4.80794">
        <ele>128.37</ele>
        <time>2019-05-26T09:25:39.000Z</time>
      </trkpt>
      <trkpt lat="45.21972" lon="4.80805">
        <ele>127.36</ele>
        <time>2019-05-26T09:25:44.000Z</time>
      </trkpt>
      <trkpt lat="45.21946" lon="4.80813">
        <ele>128.36</ele>
        <time>2019-05-26T09:25:49.000Z</time>
      </trkpt>
      <trkpt lat="45.2192" lon="4.80823">
        <ele>129.17</ele>
        <time>2019-05-26T09:25:54.000Z</time>
      </trkpt>
      <trkpt lat="45.21898" lon="4.80843">
        <ele>128.36</ele>
        <time>2019-05-26T09:25:59.000Z</time>
      </trkpt>
      <trkpt lat="45.21872" lon="4.80844">
        <ele>129.35</ele>
        <time>2019-05-26T09:26:04.000Z</time>
      </trkpt>
      <trkpt lat="45.21848" lon="4.80845">
        <ele>130.34</ele>
        <time>2019-05-26T09:26:09.000Z</time>
      </trkpt>
      <trkpt lat="45.2183" lon="4.80851">
        <ele>132.35</ele>
        <time>2019-05-26T09:26:14.000Z</time>
      </trkpt>
      <trkpt lat="45.2181" lon="4.80858">
        <ele>134.28</ele>
        <time>2019-05-26T09:26:19.000Z</time>
      </trkpt>
      <trkpt lat="45.21786" lon="4.8086">
        <ele>131.38</ele>
        <time>2019-05-26T09:26:24.000Z</time>
      </trkpt>
      <trkpt lat="45.21765" lon="4.80865">
        <ele>133.09</ele>
        <time>2019-05-26T09:26:29.000Z</time>
      </trkpt>
      <trkpt lat="45.21748" lon="4.8087">
        <ele>131.61</ele>
        <time>2019-05-26T09:26:34.000Z</time>
      </trkpt>
      <trkpt lat="45.21728" lon="4.80876">
        <ele>130.62</ele>
        <time>2019-05-26T09:26:39.000Z</time>
      </trkpt>
      <trkpt lat="45.21706" lon="4.80879">
        <ele>130.11</ele>
        <time>2019-05-26T09:26:44.000Z</time>
      </trkpt>
      <trkpt lat="45.21681" lon="4.80885">
        <ele>132.28</ele>
        <time>2019-05-26T09:26:49.000Z</time>
      </trkpt>
      <trkpt lat="45.21655" lon="4.80893">
        <ele>133.09</ele>
        <time>2019-05-26T09:26:54.000Z</time>
      </trkpt>
      <trkpt lat="45.21629" lon="4.80901">
        <ele>135.1</ele>
        <time>2019-05-26T09:26:59.000Z</time>
      </trkpt>
      <trkpt lat="45.21601" lon="4.80906">
        <ele>137.29</ele>
        <time>2019-05-26T09:27:04.000Z</time>
      </trkpt>
      <trkpt lat="45.21576" lon="4.80911">
        <ele>138.1</ele>
        <time>2019-05-26T09:27:09.000Z</time>
      </trkpt>
      <trkpt lat="45.21554" lon="4.80915">
        <ele>139.37</ele>
        <time>2019-05-26T09:27:14.000Z</time>
      </trkpt>
      <trkpt lat="45.21535" lon="4.80922">
        <ele>137.6</ele>
        <time>2019-05-26T09:27:19.000Z</time>
      </trkpt>
      <trkpt lat="45.21526" lon="4.80921">
        <ele>134.16</ele>
        <time>2019-05-26T09:27:24.000Z</time>
      </trkpt>
      <trkpt lat="45.21517" lon="4.80922">
        <ele>133.35</ele>
        <time>2019-05-26T09:27:29.000Z</time>
      </trkpt>
      <trkpt lat="45.21501" lon="4.80925">
        <ele>132.35</ele>
        <time>2019-05-26T09:27:34.000Z</time>
      </trkpt>
      <trkpt lat="45.2148" lon="4.80933">
        <ele>132.17</ele>
        <time>2019-05-26T09:27:39.000Z</time>
      </trkpt>
      <trkpt lat="45.21458" lon="4.8094">
        <ele>132.15</ele>
        <time>2019-05-26T09:27:44.000Z</time>
      </trkpt>
      <trkpt lat="45.21434" lon="4.80947">
        <ele>131.6</ele>
        <time>2019-05-26T09:27:49.000Z</time>
      </trkpt>
      <trkpt lat="45.21408" lon="4.80955">
        <ele>130.42</ele>
        <time>2019-05-26T09:27:54.000Z</time>
      </trkpt>
      <trkpt lat="45.21383" lon="4.80961">
        <ele>131.1</ele>
        <time>2019-05-26T09:27:59.000Z</time>
      </trkpt>
      <trkpt lat="45.21363" lon="4.80966">
        <ele>133.04</ele>
        <time>2019-05-26T09:28:04.000Z</time>
      </trkpt>
      <trkpt lat="45.21344" lon="4.80969">
        <ele>133.35</ele>
        <time>2019-05-26T09:28:09.000Z</time>
      </trkpt>
      <trkpt lat="45.2132" lon="4.80977">
        <ele>131.42</ele>
        <time>2019-05-26T09:28:14.000Z</time>
      </trkpt>
      <trkpt lat="45.21296" lon="4.80982">
        <ele>131.3</ele>
        <time>2019-05-26T09:28:19.000Z</time>
      </trkpt>
      <trkpt lat="45.21272" lon="4.80985">
        <ele>131.35</ele>
        <time>2019-05-26T09:28:24.000Z</time>
      </trkpt>
      <trkpt lat="45.21247" lon="4.80993">
        <ele>132.35</ele>
        <time>2019-05-26T09:28:29.000Z</time>
      </trkpt>
      <trkpt lat="45.21223" lon="4.81002">
        <ele>133.3</ele>
        <time>2019-05-26T09:28:34.000Z</time>
      </trkpt>
      <trkpt lat="45.21198" lon="4.81012">
        <ele>133.35</ele>
        <time>2019-05-26T09:28:39.000Z</time>
      </trkpt>
      <trkpt lat="45.21171" lon="4.81024">
        <ele>133.35</ele>
        <time>2019-05-26T09:28:44.000Z</time>
      </trkpt>
      <trkpt lat="45.21145" lon="4.81034">
        <ele>134.35</ele>
        <time>2019-05-26T09:28:49.000Z</time>
      </trkpt>
      <trkpt lat="45.21119" lon="4.81049">
        <ele>134.41</ele>
        <time>2019-05-26T09:28:54.000Z</time>
      </trkpt>
      <trkpt lat="45.21093" lon="4.81063">
        <ele>134.35</ele>
        <time>2019-05-26T09:28:59.000Z</time>
      </trkpt>
      <trkpt lat="45.21066" lon="4.81075">
        <ele>134.16</ele>
        <time>2019-05-26T09:29:04.000Z</time>
      </trkpt>
      <trkpt lat="45.21038" lon="4.81089">
        <ele>136.08</ele>
        <time>2019-05-26T09:29:09.000Z</time>
      </trkpt>
      <trkpt lat="45.21008" lon="4.81104">
        <ele>135.18</ele>
        <time>2019-05-26T09:29:14.000Z</time>
      </trkpt>
      <trkpt lat="45.20979" lon="4.81119">
        <ele>134.37</ele>
        <time>2019-05-26T09:29:19.000Z</time>
      </trkpt>
      <trkpt lat="45.20951" lon="4.81136">
        <ele>133.36</ele>
        <time>2019-05-26T09:29:24.000Z</time>
      </trkpt>
      <trkpt lat="45.20921" lon="4.81151">
        <ele>131.42</ele>
        <time>2019-05-26T09:29:29.000Z</time>
      </trkpt>
      <trkpt lat="45.20892" lon="4.81169">
        <ele>131.35</ele>
        <time>2019-05-26T09:29:34.000Z</time>
      </trkpt>
      <trkpt lat="45.20869" lon="4.81197">
        <ele>131.35</ele>
        <time>2019-05-26T09:29:39.000Z</time>
      </trkpt>
      <trkpt lat="45.20843" lon="4.81224">
        <ele>131.41</ele>
        <time>2019-05-26T09:29:44.000Z</time>
      </trkpt>
      <trkpt lat="45.20811" lon="4.8124">
        <ele>131.35</ele>
        <time>2019-05-26T09:29:49.000Z</time>
      </trkpt>
      <trkpt lat="45.20782" lon="4.81259">
        <ele>131.54</ele>
        <time>2019-05-26T09:29:54.000Z</time>
      </trkpt>
      <trkpt lat="45.20757" lon="4.81267">
        <ele>131.54</ele>
        <time>2019-05-26T09:29:59.000Z</time>
      </trkpt>
      <trkpt lat="45.2073" lon="4.8128">
        <ele>132.35</ele>
        <time>2019-05-26T09:30:04.000Z</time>
      </trkpt>
      <trkpt lat="45.20704" lon="4.81292">
        <ele>132.35</ele>
        <time>2019-05-26T09:30:09.000Z</time>
      </trkpt>
      <trkpt lat="45.20677" lon="4.81304">
        <ele>131.35</ele>
        <time>2019-05-26T09:30:14.000Z</time>
      </trkpt>
      <trkpt lat="45.20651" lon="4.81319">
        <ele>132.35</ele>
        <time>2019-05-26T09:30:19.000Z</time>
      </trkpt>
      <trkpt lat="45.20625" lon="4.8134">
        <ele>131.35</ele>
        <time>2019-05-26T09:30:24.000Z</time>
      </trkpt>
      <trkpt lat="45.20595" lon="4.81356">
        <ele>131.35</ele>
        <time>2019-05-26T09:30:29.000Z</time>
      </trkpt>
      <trkpt lat="45.20565" lon="4.81369">
        <ele>131.35</ele>
        <time>2019-05-26T09:30:34.000Z</time>
      </trkpt>
      <trkpt lat="45.20546" lon="4.81389">
        <ele>130.6</ele>
        <time>2019-05-26T09:30:39.000Z</time>
      </trkpt>
      <trkpt lat="45.20517" lon="4.81391">
        <ele>130.54</ele>
        <time>2019-05-26T09:30:44.000Z</time>
      </trkpt>
      <trkpt lat="45.20489" lon="4.81392">
        <ele>130.34</ele>
        <time>2019-05-26T09:30:49.000Z</time>
      </trkpt>
      <trkpt lat="45.20461" lon="4.81391">
        <ele>131.1</ele>
        <time>2019-05-26T09:30:54.000Z</time>
      </trkpt>
      <trkpt lat="45.20433" lon="4.81389">
        <ele>131.35</ele>
        <time>2019-05-26T09:30:59.000Z</time>
      </trkpt>
      <trkpt lat="45.20405" lon="4.8139">
        <ele>130.35</ele>
        <time>2019-05-26T09:31:04.000Z</time>
      </trkpt>
      <trkpt lat="45.20379" lon="4.81391">
        <ele>130.35</ele>
        <time>2019-05-26T09:31:09.000Z</time>
      </trkpt>
      <trkpt lat="45.20351" lon="4.81391">
        <ele>130.3</ele>
        <time>2019-05-26T09:31:14.000Z</time>
      </trkpt>
      <trkpt lat="45.20324" lon="4.81389">
        <ele>130.29</ele>
        <time>2019-05-26T09:31:19.000Z</time>
      </trkpt>
      <trkpt lat="45.20304" lon="4.81385">
        <ele>130.35</ele>
        <time>2019-05-26T09:31:24.000Z</time>
      </trkpt>
      <trkpt lat="45.20285" lon="4.81372">
        <ele>130.35</ele>
        <time>2019-05-26T09:31:29.000Z</time>
      </trkpt>
      <trkpt lat="45.20265" lon="4.81358">
        <ele>130.34</ele>
        <time>2019-05-26T09:31:34.000Z</time>
      </trkpt>
      <trkpt lat="45.20243" lon="4.81344">
        <ele>130.16</ele>
        <time>2019-05-26T09:31:39.000Z</time>
      </trkpt>
      <trkpt lat="45.2022" lon="4.8133">
        <ele>130.39</ele>
        <time>2019-05-26T09:31:44.000Z</time>
      </trkpt>
      <trkpt lat="45.20199" lon="4.81312">
        <ele>129.35</ele>
        <time>2019-05-26T09:31:49.000Z</time>
      </trkpt>
      <trkpt lat="45.20179" lon="4.81291">
        <ele>128.41</ele>
        <time>2019-05-26T09:32:28.000Z</time>
      </trkpt>
      <trkpt lat="45.20161" lon="4.81269">
        <ele>130.28</ele>
        <time>2019-05-26T09:32:56.000Z</time>
      </trkpt>
      <trkpt lat="45.20145" lon="4.81247">
        <ele>130.1</ele>
        <time>2019-05-26T09:33:01.000Z</time>
      </trkpt>
      <trkpt lat="45.2013" lon="4.81226">
        <ele>129.4</ele>
        <time>2019-05-26T09:33:06.000Z</time>
      </trkpt>
      <trkpt lat="45.20113" lon="4.81203">
        <ele>131.26</ele>
        <time>2019-05-26T09:33:11.000Z</time>
      </trkpt>
      <trkpt lat="45.20096" lon="4.81177">
        <ele>130.53</ele>
        <time>2019-05-26T09:35:36.000Z</time>
      </trkpt>
      <trkpt lat="45.20082" lon="4.81145">
        <ele>131.34</ele>
        <time>2019-05-26T09:35:41.000Z</time>
      </trkpt>
      <trkpt lat="45.20066" lon="4.81112">
        <ele>131.4</ele>
        <time>2019-05-26T09:35:46.000Z</time>
      </trkpt>
      <trkpt lat="45.20049" lon="4.8108">
        <ele>131.28</ele>
        <time>2019-05-26T09:35:51.000Z</time>
      </trkpt>
      <trkpt lat="45.20033" lon="4.81046">
        <ele>129.4</ele>
        <time>2019-05-26T09:35:56.000Z</time>
      </trkpt>
      <trkpt lat="45.20016" lon="4.81015">
        <ele>130.58</ele>
        <time>2019-05-26T09:36:01.000Z</time>
      </trkpt>
      <trkpt lat="45.19998" lon="4.8098">
        <ele>130.32</ele>
        <time>2019-05-26T09:36:06.000Z</time>
      </trkpt>
      <trkpt lat="45.19977" lon="4.80945">
        <ele>130.27</ele>
        <time>2019-05-26T09:36:11.000Z</time>
      </trkpt>
      <trkpt lat="45.19951" lon="4.80913">
        <ele>128.4</ele>
        <time>2019-05-26T09:36:16.000Z</time>
      </trkpt>
      <trkpt lat="45.19926" lon="4.80882">
        <ele>129.33</ele>
        <time>2019-05-26T09:36:21.000Z</time>
      </trkpt>
      <trkpt lat="45.19899" lon="4.80854">
        <ele>130.33</ele>
        <time>2019-05-26T09:36:26.000Z</time>
      </trkpt>
      <trkpt lat="45.19877" lon="4.80824">
        <ele>128.16</ele>
        <time>2019-05-26T09:36:31.000Z</time>
      </trkpt>
      <trkpt lat="45.19854" lon="4.808">
        <ele>128.52</ele>
        <time>2019-05-26T09:36:36.000Z</time>
      </trkpt>
      <trkpt lat="45.19827" lon="4.80789">
        <ele>130.06</ele>
        <time>2019-05-26T09:36:41.000Z</time>
      </trkpt>
      <trkpt lat="45.19801" lon="4.80785">
        <ele>131.26</ele>
        <time>2019-05-26T09:36:46.000Z</time>
      </trkpt>
      <trkpt lat="45.19779" lon="4.80784">
        <ele>132.27</ele>
        <time>2019-05-26T09:36:51.000Z</time>
      </trkpt>
      <trkpt lat="45.19755" lon="4.80783">
        <ele>131.64</ele>
        <time>2019-05-26T09:36:56.000Z</time>
      </trkpt>
      <trkpt lat="45.19727" lon="4.80775">
        <ele>131.52</ele>
        <time>2019-05-26T09:37:01.000Z</time>
      </trkpt>
      <trkpt lat="45.19698" lon="4.8077">
        <ele>131.33</ele>
        <time>2019-05-26T09:37:07.000Z</time>
      </trkpt>
      <trkpt lat="45.19667" lon="4.80768">
        <ele>131.33</ele>
        <time>2019-05-26T09:37:12.000Z</time>
      </trkpt>
      <trkpt lat="45.19635" lon="4.80765">
        <ele>131.27</ele>
        <time>2019-05-26T09:37:17.000Z</time>
      </trkpt>
      <trkpt lat="45.19605" lon="4.80762">
        <ele>131.32</ele>
        <time>2019-05-26T09:37:22.000Z</time>
      </trkpt>
      <trkpt lat="45.19573" lon="4.80762">
        <ele>132.12</ele>
        <time>2019-05-26T09:37:27.000Z</time>
      </trkpt>
      <trkpt lat="45.1954" lon="4.80764">
        <ele>132.28</ele>
        <time>2019-05-26T09:37:32.000Z</time>
      </trkpt>
      <trkpt lat="45.19507" lon="4.80767">
        <ele>130.59</ele>
        <time>2019-05-26T09:37:37.000Z</time>
      </trkpt>
      <trkpt lat="45.19473" lon="4.80755">
        <ele>130.31</ele>
        <time>2019-05-26T09:37:42.000Z</time>
      </trkpt>
      <trkpt lat="45.1944" lon="4.80761">
        <ele>131.12</ele>
        <time>2019-05-26T09:39:07.000Z</time>
      </trkpt>
      <trkpt lat="45.19408" lon="4.8077">
        <ele>132.26</ele>
        <time>2019-05-26T09:39:12.000Z</time>
      </trkpt>
      <trkpt lat="45.19375" lon="4.80783">
        <ele>133.32</ele>
        <time>2019-05-26T09:39:39.000Z</time>
      </trkpt>
      <trkpt lat="45.19341" lon="4.80799">
        <ele>133.32</ele>
        <time>2019-05-26T09:39:44.000Z</time>
      </trkpt>
      <trkpt lat="45.1931" lon="4.80819">
        <ele>130.64</ele>
        <time>2019-05-26T09:39:49.000Z</time>
      </trkpt>
      <trkpt lat="45.19278" lon="4.8084">
        <ele>132.07</ele>
        <time>2019-05-26T09:39:54.000Z</time>
      </trkpt>
      <trkpt lat="45.19246" lon="4.80863">
        <ele>132.26</ele>
        <time>2019-05-26T09:39:59.000Z</time>
      </trkpt>
      <trkpt lat="45.19214" lon="4.80883">
        <ele>132.32</ele>
        <time>2019-05-26T09:40:04.000Z</time>
      </trkpt>
      <trkpt lat="45.19185" lon="4.80905">
        <ele>132.57</ele>
        <time>2019-05-26T09:40:09.000Z</time>
      </trkpt>
      <trkpt lat="45.19156" lon="4.80925">
        <ele>134.31</ele>
        <time>2019-05-26T09:40:14.000Z</time>
      </trkpt>
      <trkpt lat="45.19127" lon="4.80946">
        <ele>134.26</ele>
        <time>2019-05-26T09:40:19.000Z</time>
      </trkpt>
      <trkpt lat="45.19097" lon="4.80966">
        <ele>134.33</ele>
        <time>2019-05-26T09:40:24.000Z</time>
      </trkpt>
      <trkpt lat="45.19064" lon="4.80988">
        <ele>132.57</ele>
        <time>2019-05-26T09:40:29.000Z</time>
      </trkpt>
      <trkpt lat="45.1903" lon="4.8101">
        <ele>133.27</ele>
        <time>2019-05-26T09:40:34.000Z</time>
      </trkpt>
      <trkpt lat="45.18997" lon="4.81033">
        <ele>133.32</ele>
        <time>2019-05-26T09:40:39.000Z</time>
      </trkpt>
      <trkpt lat="45.18965" lon="4.81054">
        <ele>135.07</ele>
        <time>2019-05-26T09:40:44.000Z</time>
      </trkpt>
      <trkpt lat="45.18934" lon="4.81076">
        <ele>135.32</ele>
        <time>2019-05-26T09:40:49.000Z</time>
      </trkpt>
      <trkpt lat="45.18902" lon="4.81098">
        <ele>135.32</ele>
        <time>2019-05-26T09:40:54.000Z</time>
      </trkpt>
      <trkpt lat="45.18871" lon="4.81119">
        <ele>134.34</ele>
        <time>2019-05-26T09:40:59.000Z</time>
      </trkpt>
      <trkpt lat="45.1884" lon="4.81139">
        <ele>133.33</ele>
        <time>2019-05-26T09:41:04.000Z</time>
      </trkpt>
      <trkpt lat="45.18809" lon="4.81159">
        <ele>133.14</ele>
        <time>2019-05-26T09:41:09.000Z</time>
      </trkpt>
      <trkpt lat="45.18779" lon="4.81175">
        <ele>133.32</ele>
        <time>2019-05-26T09:41:14.000Z</time>
      </trkpt>
      <trkpt lat="45.18751" lon="4.81191">
        <ele>131.34</ele>
        <time>2019-05-26T09:41:19.000Z</time>
      </trkpt>
      <trkpt lat="45.18721" lon="4.81207">
        <ele>131.32</ele>
        <time>2019-05-26T09:41:24.000Z</time>
      </trkpt>
      <trkpt lat="45.18692" lon="4.81222">
        <ele>132.32</ele>
        <time>2019-05-26T09:41:29.000Z</time>
      </trkpt>
      <trkpt lat="45.18669" lon="4.81239">
        <ele>133.07</ele>
        <time>2019-05-26T09:41:34.000Z</time>
      </trkpt>
      <trkpt lat="45.18644" lon="4.81254">
        <ele>132.32</ele>
        <time>2019-05-26T09:41:39.000Z</time>
      </trkpt>
      <trkpt lat="45.18619" lon="4.81268">
        <ele>132.32</ele>
        <time>2019-05-26T09:41:44.000Z</time>
      </trkpt>
      <trkpt lat="45.18591" lon="4.8128">
        <ele>133.31</ele>
        <time>2019-05-26T09:41:49.000Z</time>
      </trkpt>
      <trkpt lat="45.18563" lon="4.81294">
        <ele>131.39</ele>
        <time>2019-05-26T09:41:54.000Z</time>
      </trkpt>
      <trkpt lat="45.18535" lon="4.8131">
        <ele>133.57</ele>
        <time>2019-05-26T09:41:59.000Z</time>
      </trkpt>
      <trkpt lat="45.18508" lon="4.81325">
        <ele>133.28</ele>
        <time>2019-05-26T09:42:04.000Z</time>
      </trkpt>
      <trkpt lat="45.18481" lon="4.81344">
        <ele>132.32</ele>
        <time>2019-05-26T09:42:09.000Z</time>
      </trkpt>
      <trkpt lat="45.18459" lon="4.81358">
        <ele>133.26</ele>
        <time>2019-05-26T09:42:14.000Z</time>
      </trkpt>
      <trkpt lat="45.18448" lon="4.81367">
        <ele>135.3</ele>
        <time>2019-05-26T09:42:19.000Z</time>
      </trkpt>
      <trkpt lat="45.18455" lon="4.81377">
        <ele>134.32</ele>
        <time>2019-05-26T09:42:24.000Z</time>
      </trkpt>
      <trkpt lat="45.18455" lon="4.8139">
        <ele>139.26</ele>
        <time>2019-05-26T09:42:29.000Z</time>
      </trkpt>
      <trkpt lat="45.18441" lon="4.81377">
        <ele>138.37</ele>
        <time>2019-05-26T09:42:34.000Z</time>
      </trkpt>
      <trkpt lat="45.1842" lon="4.81374">
        <ele>138.32</ele>
        <time>2019-05-26T09:42:39.000Z</time>
      </trkpt>
      <trkpt lat="45.18408" lon="4.81373">
        <ele>137.57</ele>
        <time>2019-05-26T09:42:44.000Z</time>
      </trkpt>
      <trkpt lat="45.18411" lon="4.81386">
        <ele>137.09</ele>
        <time>2019-05-26T09:42:49.000Z</time>
      </trkpt>
      <trkpt lat="45.18428" lon="4.81397">
        <ele>137.32</ele>
        <time>2019-05-26T09:42:54.000Z</time>
      </trkpt>
      <trkpt lat="45.18444" lon="4.81379">
        <ele>139.3</ele>
        <time>2019-05-26T09:42:59.000Z</time>
      </trkpt>
      <trkpt lat="45.18439" lon="4.81344">
        <ele>138.33</ele>
        <time>2019-05-26T09:43:04.000Z</time>
      </trkpt>
      <trkpt lat="45.18433" lon="4.81315">
        <ele>137.38</ele>
        <time>2019-05-26T09:43:09.000Z</time>
      </trkpt>
      <trkpt lat="45.18428" lon="4.81288">
        <ele>137.37</ele>
        <time>2019-05-26T09:43:14.000Z</time>
      </trkpt>
      <trkpt lat="45.18424" lon="4.81263">
        <ele>137.31</ele>
        <time>2019-05-26T09:43:19.000Z</time>
      </trkpt>
      <trkpt lat="45.18419" lon="4.81236">
        <ele>137.32</ele>
        <time>2019-05-26T09:43:24.000Z</time>
      </trkpt>
      <trkpt lat="45.18413" lon="4.81207">
        <ele>137.32</ele>
        <time>2019-05-26T09:43:29.000Z</time>
      </trkpt>
      <trkpt lat="45.18408" lon="4.81175">
        <ele>137.32</ele>
        <time>2019-05-26T09:43:34.000Z</time>
      </trkpt>
      <trkpt lat="45.18401" lon="4.81141">
        <ele>137.32</ele>
        <time>2019-05-26T09:43:39.000Z</time>
      </trkpt>
      <trkpt lat="45.18393" lon="4.81105">
        <ele>135.57</ele>
        <time>2019-05-26T09:43:44.000Z</time>
      </trkpt>
      <trkpt lat="45.18387" lon="4.81065">
        <ele>134.57</ele>
        <time>2019-05-26T09:43:49.000Z</time>
      </trkpt>
      <trkpt lat="45.18379" lon="4.81023">
        <ele>133.33</ele>
        <time>2019-05-26T09:43:54.000Z</time>
      </trkpt>
      <trkpt lat="45.18373" lon="4.80979">
        <ele>133.27</ele>
        <time>2019-05-26T09:43:59.000Z</time>
      </trkpt>
      <trkpt lat="45.18371" lon="4.80935">
        <ele>132.33</ele>
        <time>2019-05-26T09:44:04.000Z</time>
      </trkpt>
      <trkpt lat="45.18374" lon="4.8089">
        <ele>131.33</ele>
        <time>2019-05-26T09:44:09.000Z</time>
      </trkpt>
      <trkpt lat="45.18377" lon="4.80864">
        <ele>131.31</ele>
        <time>2019-05-26T09:44:14.000Z</time>
      </trkpt>
      <trkpt lat="45.18366" lon="4.80861">
        <ele>131.31</ele>
        <time>2019-05-26T09:44:19.000Z</time>
      </trkpt>
      <trkpt lat="45.18354" lon="4.80881">
        <ele>129.58</ele>
        <time>2019-05-26T09:44:24.000Z</time>
      </trkpt>
      <trkpt lat="45.1834" lon="4.8091">
        <ele>129.31</ele>
        <time>2019-05-26T09:44:29.000Z</time>
      </trkpt>
      <trkpt lat="45.1833" lon="4.80936">
        <ele>129.56</ele>
        <time>2019-05-26T09:44:34.000Z</time>
      </trkpt>
      <trkpt lat="45.18317" lon="4.8097">
        <ele>129.32</ele>
        <time>2019-05-26T09:44:39.000Z</time>
      </trkpt>
      <trkpt lat="45.18302" lon="4.81">
        <ele>127.58</ele>
        <time>2019-05-26T09:44:44.000Z</time>
      </trkpt>
      <trkpt lat="45.18299" lon="4.81038">
        <ele>126.38</ele>
        <time>2019-05-26T09:44:49.000Z</time>
      </trkpt>
      <trkpt lat="45.18298" lon="4.81069">
        <ele>126.32</ele>
        <time>2019-05-26T09:44:54.000Z</time>
      </trkpt>
      <trkpt lat="45.18299" lon="4.81084">
        <ele>128.38</ele>
        <time>2019-05-26T09:44:59.000Z</time>
      </trkpt>
      <trkpt lat="45.18302" lon="4.81101">
        <ele>128.32</ele>
        <time>2019-05-26T09:45:04.000Z</time>
      </trkpt>
      <trkpt lat="45.18302" lon="4.81115">
        <ele>130.32</ele>
        <time>2019-05-26T09:45:09.000Z</time>
      </trkpt>
      <trkpt lat="45.18294" lon="4.81123">
        <ele>129.14</ele>
        <time>2019-05-26T09:45:14.000Z</time>
      </trkpt>
      <trkpt lat="45.1827" lon="4.81121">
        <ele>129.08</ele>
        <time>2019-05-26T09:45:19.000Z</time>
      </trkpt>
      <trkpt lat="45.18244" lon="4.81121">
        <ele>129.32</ele>
        <time>2019-05-26T09:45:24.000Z</time>
      </trkpt>
      <trkpt lat="45.18217" lon="4.81121">
        <ele>129.32</ele>
        <time>2019-05-26T09:45:29.000Z</time>
      </trkpt>
      <trkpt lat="45.18187" lon="4.81119">
        <ele>131.06</ele>
        <time>2019-05-26T09:45:34.000Z</time>
      </trkpt>
      <trkpt lat="45.18157" lon="4.81116">
        <ele>130.38</ele>
        <time>2019-05-26T09:45:39.000Z</time>
      </trkpt>
      <trkpt lat="45.18127" lon="4.81109">
        <ele>131.3</ele>
        <time>2019-05-26T09:45:44.000Z</time>
      </trkpt>
      <trkpt lat="45.18097" lon="4.81102">
        <ele>129.38</ele>
        <time>2019-05-26T09:45:49.000Z</time>
      </trkpt>
      <trkpt lat="45.18066" lon="4.81093">
        <ele>131.06</ele>
        <time>2019-05-26T09:45:54.000Z</time>
      </trkpt>
      <trkpt lat="45.18035" lon="4.81082">
        <ele>130.32</ele>
        <time>2019-05-26T09:45:59.000Z</time>
      </trkpt>
      <trkpt lat="45.18004" lon="4.8107">
        <ele>130.31</ele>
        <time>2019-05-26T09:46:04.000Z</time>
      </trkpt>
      <trkpt lat="45.17973" lon="4.81057">
        <ele>130.37</ele>
        <time>2019-05-26T09:46:09.000Z</time>
      </trkpt>
      <trkpt lat="45.17943" lon="4.81043">
        <ele>130.33</ele>
        <time>2019-05-26T09:46:14.000Z</time>
      </trkpt>
      <trkpt lat="45.17912" lon="4.81028">
        <ele>130.31</ele>
        <time>2019-05-26T09:46:19.000Z</time>
      </trkpt>
      <trkpt lat="45.17882" lon="4.81011">
        <ele>130.5</ele>
        <time>2019-05-26T09:46:24.000Z</time>
      </trkpt>
      <trkpt lat="45.17852" lon="4.80995">
        <ele>130.26</ele>
        <time>2019-05-26T09:46:29.000Z</time>
      </trkpt>
      <trkpt lat="45.17823" lon="4.80978">
        <ele>129.56</ele>
        <time>2019-05-26T09:46:34.000Z</time>
      </trkpt>
      <trkpt lat="45.17795" lon="4.80964">
        <ele>130.29</ele>
        <time>2019-05-26T09:46:39.000Z</time>
      </trkpt>
      <trkpt lat="45.17767" lon="4.80948">
        <ele>130.31</ele>
        <time>2019-05-26T09:46:44.000Z</time>
      </trkpt>
      <trkpt lat="45.17738" lon="4.80932">
        <ele>130.31</ele>
        <time>2019-05-26T09:46:49.000Z</time>
      </trkpt>
      <trkpt lat="45.17709" lon="4.80916">
        <ele>130.49</ele>
        <time>2019-05-26T09:46:54.000Z</time>
      </trkpt>
      <trkpt lat="45.1768" lon="4.809">
        <ele>130.32</ele>
        <time>2019-05-26T09:46:59.000Z</time>
      </trkpt>
      <trkpt lat="45.1765" lon="4.80884">
        <ele>130.24</ele>
        <time>2019-05-26T09:47:04.000Z</time>
      </trkpt>
      <trkpt lat="45.1762" lon="4.80868">
        <ele>129.31</ele>
        <time>2019-05-26T09:47:09.000Z</time>
      </trkpt>
      <trkpt lat="45.17591" lon="4.80853">
        <ele>129.26</ele>
        <time>2019-05-26T09:47:14.000Z</time>
      </trkpt>
      <trkpt lat="45.17562" lon="4.80837">
        <ele>129.3</ele>
        <time>2019-05-26T09:47:19.000Z</time>
      </trkpt>
      <trkpt lat="45.17533" lon="4.80822">
        <ele>130.29</ele>
        <time>2019-05-26T09:47:24.000Z</time>
      </trkpt>
      <trkpt lat="45.17505" lon="4.80805">
        <ele>129.3</ele>
        <time>2019-05-26T09:47:29.000Z</time>
      </trkpt>
      <trkpt lat="45.17476" lon="4.80789">
        <ele>129.3</ele>
        <time>2019-05-26T09:47:34.000Z</time>
      </trkpt>
      <trkpt lat="45.17446" lon="4.80774">
        <ele>129.54</ele>
        <time>2019-05-26T09:47:39.000Z</time>
      </trkpt>
      <trkpt lat="45.17418" lon="4.80758">
        <ele>130.3</ele>
        <time>2019-05-26T09:47:44.000Z</time>
      </trkpt>
      <trkpt lat="45.17391" lon="4.80745">
        <ele>131.11</ele>
        <time>2019-05-26T09:47:49.000Z</time>
      </trkpt>
      <trkpt lat="45.1736" lon="4.80729">
        <ele>131.3</ele>
        <time>2019-05-26T09:47:54.000Z</time>
      </trkpt>
      <trkpt lat="45.1733" lon="4.80712">
        <ele>131.28</ele>
        <time>2019-05-26T09:47:59.000Z</time>
      </trkpt>
      <trkpt lat="45.17298" lon="4.80696">
        <ele>130.3</ele>
        <time>2019-05-26T09:48:04.000Z</time>
      </trkpt>
      <trkpt lat="45.17268" lon="4.80681">
        <ele>130.3</ele>
        <time>2019-05-26T09:48:09.000Z</time>
      </trkpt>
      <trkpt lat="45.17237" lon="4.80668">
        <ele>130.29</ele>
        <time>2019-05-26T09:48:14.000Z</time>
      </trkpt>
      <trkpt lat="45.17207" lon="4.80656">
        <ele>130.3</ele>
        <time>2019-05-26T09:48:19.000Z</time>
      </trkpt>
      <trkpt lat="45.17176" lon="4.80645">
        <ele>128.55</ele>
        <time>2019-05-26T09:48:24.000Z</time>
      </trkpt>
      <trkpt lat="45.17144" lon="4.80637">
        <ele>128.49</ele>
        <time>2019-05-26T09:48:29.000Z</time>
      </trkpt>
      <trkpt lat="45.17111" lon="4.8063">
        <ele>129.25</ele>
        <time>2019-05-26T09:48:34.000Z</time>
      </trkpt>
      <trkpt lat="45.17078" lon="4.80626">
        <ele>128.29</ele>
        <time>2019-05-26T09:48:39.000Z</time>
      </trkpt>
      <trkpt lat="45.17049" lon="4.80618">
        <ele>128.24</ele>
        <time>2019-05-26T09:48:44.000Z</time>
      </trkpt>
      <trkpt lat="45.17019" lon="4.80615">
        <ele>128.29</ele>
        <time>2019-05-26T09:48:49.000Z</time>
      </trkpt>
      <trkpt lat="45.1699" lon="4.80613">
        <ele>129.28</ele>
        <time>2019-05-26T09:48:54.000Z</time>
      </trkpt>
      <trkpt lat="45.16965" lon="4.8062">
        <ele>130.04</ele>
        <time>2019-05-26T09:48:59.000Z</time>
      </trkpt>
      <trkpt lat="45.16946" lon="4.80629">
        <ele>130.29</ele>
        <time>2019-05-26T09:49:04.000Z</time>
      </trkpt>
      <trkpt lat="45.16928" lon="4.80625">
        <ele>132.23</ele>
        <time>2019-05-26T09:49:09.000Z</time>
      </trkpt>
      <trkpt lat="45.16911" lon="4.80621">
        <ele>133.23</ele>
        <time>2019-05-26T09:49:14.000Z</time>
      </trkpt>
      <trkpt lat="45.16899" lon="4.80633">
        <ele>133.53</ele>
        <time>2019-05-26T09:49:19.000Z</time>
      </trkpt>
      <trkpt lat="45.16886" lon="4.80641">
        <ele>135.02</ele>
        <time>2019-05-26T09:49:24.000Z</time>
      </trkpt>
      <trkpt lat="45.16876" lon="4.80643">
        <ele>136.29</ele>
        <time>2019-05-26T09:49:29.000Z</time>
      </trkpt>
      <trkpt lat="45.16885" lon="4.8063">
        <ele>137.04</ele>
        <time>2019-05-26T09:49:34.000Z</time>
      </trkpt>
      <trkpt lat="45.16898" lon="4.8062">
        <ele>138.04</ele>
        <time>2019-05-26T09:49:39.000Z</time>
      </trkpt>
      <trkpt lat="45.16906" lon="4.80608">
        <ele>137.48</ele>
        <time>2019-05-26T09:49:44.000Z</time>
      </trkpt>
      <trkpt lat="45.16892" lon="4.80613">
        <ele>138.23</ele>
        <time>2019-05-26T09:49:49.000Z</time>
      </trkpt>
      <trkpt lat="45.16877" lon="4.80627">
        <ele>142.21</ele>
        <time>2019-05-26T09:49:54.000Z</time>
      </trkpt>
      <trkpt lat="45.16864" lon="4.80637">
        <ele>143.03</ele>
        <time>2019-05-26T09:49:59.000Z</time>
      </trkpt>
      <trkpt lat="45.1685" lon="4.80648">
        <ele>144.29</ele>
        <time>2019-05-26T09:50:04.000Z</time>
      </trkpt>
      <trkpt lat="45.16834" lon="4.80655">
        <ele>144.29</ele>
        <time>2019-05-26T09:50:09.000Z</time>
      </trkpt>
      <trkpt lat="45.16819" lon="4.80661">
        <ele>146.04</ele>
        <time>2019-05-26T09:50:14.000Z</time>
      </trkpt>
      <trkpt lat="45.16806" lon="4.80667">
        <ele>145.31</ele>
        <time>2019-05-26T09:50:19.000Z</time>
      </trkpt>
      <trkpt lat="45.16793" lon="4.80677">
        <ele>147.97</ele>
        <time>2019-05-26T09:50:24.000Z</time>
      </trkpt>
      <trkpt lat="45.16777" lon="4.80685">
        <ele>150.04</ele>
        <time>2019-05-26T09:50:29.000Z</time>
      </trkpt>
      <trkpt lat="45.1676" lon="4.80695">
        <ele>149.29</ele>
        <time>2019-05-26T09:50:34.000Z</time>
      </trkpt>
      <trkpt lat="45.1674" lon="4.80699">
        <ele>147.36</ele>
        <time>2019-05-26T09:50:39.000Z</time>
      </trkpt>
      <trkpt lat="45.16719" lon="4.80712">
        <ele>147.04</ele>
        <time>2019-05-26T09:50:44.000Z</time>
      </trkpt>
      <trkpt lat="45.16698" lon="4.80727">
        <ele>148.28</ele>
        <time>2019-05-26T09:50:49.000Z</time>
      </trkpt>
      <trkpt lat="45.16675" lon="4.80746">
        <ele>147.35</ele>
        <time>2019-05-26T09:50:54.000Z</time>
      </trkpt>
      <trkpt lat="45.16651" lon="4.80765">
        <ele>147.29</ele>
        <time>2019-05-26T09:50:59.000Z</time>
      </trkpt>
      <trkpt lat="45.1663" lon="4.80785">
        <ele>148.04</ele>
        <time>2019-05-26T09:51:04.000Z</time>
      </trkpt>
      <trkpt lat="45.16606" lon="4.80799">
        <ele>147.29</ele>
        <time>2019-05-26T09:51:09.000Z</time>
      </trkpt>
      <trkpt lat="45.16578" lon="4.80817">
        <ele>146.34</ele>
        <time>2019-05-26T09:51:14.000Z</time>
      </trkpt>
      <trkpt lat="45.16552" lon="4.80835">
        <ele>145.31</ele>
        <time>2019-05-26T09:51:19.000Z</time>
      </trkpt>
      <trkpt lat="45.16524" lon="4.80855">
        <ele>147.27</ele>
        <time>2019-05-26T09:51:24.000Z</time>
      </trkpt>
      <trkpt lat="45.16496" lon="4.80876">
        <ele>146.55</ele>
        <time>2019-05-26T09:51:29.000Z</time>
      </trkpt>
      <trkpt lat="45.16469" lon="4.80894">
        <ele>145.3</ele>
        <time>2019-05-26T09:51:34.000Z</time>
      </trkpt>
      <trkpt lat="45.16441" lon="4.80913">
        <ele>147.27</ele>
        <time>2019-05-26T09:51:39.000Z</time>
      </trkpt>
      <trkpt lat="45.16413" lon="4.80932">
        <ele>148.23</ele>
        <time>2019-05-26T09:51:44.000Z</time>
      </trkpt>
      <trkpt lat="45.16384" lon="4.80949">
        <ele>148.29</ele>
        <time>2019-05-26T09:51:49.000Z</time>
      </trkpt>
      <trkpt lat="45.16352" lon="4.80968">
        <ele>146.3</ele>
        <time>2019-05-26T09:51:54.000Z</time>
      </trkpt>
      <trkpt lat="45.1632" lon="4.80989">
        <ele>145.29</ele>
        <time>2019-05-26T09:51:59.000Z</time>
      </trkpt>
      <trkpt lat="45.1629" lon="4.81014">
        <ele>143.56</ele>
        <time>2019-05-26T09:52:04.000Z</time>
      </trkpt>
      <trkpt lat="45.16261" lon="4.8104">
        <ele>141.54</ele>
        <time>2019-05-26T09:52:09.000Z</time>
      </trkpt>
      <trkpt lat="45.16234" lon="4.81067">
        <ele>142.29</ele>
        <time>2019-05-26T09:52:14.000Z</time>
      </trkpt>
      <trkpt lat="45.1621" lon="4.81099">
        <ele>140.31</ele>
        <time>2019-05-26T09:52:19.000Z</time>
      </trkpt>
      <trkpt lat="45.16182" lon="4.81117">
        <ele>140.34</ele>
        <time>2019-05-26T09:52:24.000Z</time>
      </trkpt>
      <trkpt lat="45.16156" lon="4.81139">
        <ele>138.59</ele>
        <time>2019-05-26T09:52:29.000Z</time>
      </trkpt>
      <trkpt lat="45.16136" lon="4.8117">
        <ele>138.12</ele>
        <time>2019-05-26T09:52:34.000Z</time>
      </trkpt>
      <trkpt lat="45.16116" lon="4.812">
        <ele>136.25</ele>
        <time>2019-05-26T09:52:39.000Z</time>
      </trkpt>
      <trkpt lat="45.16096" lon="4.81232">
        <ele>136.28</ele>
        <time>2019-05-26T09:52:44.000Z</time>
      </trkpt>
      <trkpt lat="45.16078" lon="4.81265">
        <ele>137.29</ele>
        <time>2019-05-26T09:52:49.000Z</time>
      </trkpt>
      <trkpt lat="45.16061" lon="4.81296">
        <ele>138.52</ele>
        <time>2019-05-26T09:52:54.000Z</time>
      </trkpt>
      <trkpt lat="45.16044" lon="4.81329">
        <ele>139.04</ele>
        <time>2019-05-26T09:52:59.000Z</time>
      </trkpt>
      <trkpt lat="45.16037" lon="4.81372">
        <ele>137.31</ele>
        <time>2019-05-26T09:53:04.000Z</time>
      </trkpt>
      <trkpt lat="45.16028" lon="4.81416">
        <ele>135.3</ele>
        <time>2019-05-26T09:53:09.000Z</time>
      </trkpt>
      <trkpt lat="45.16012" lon="4.81454">
        <ele>134.3</ele>
        <time>2019-05-26T09:53:14.000Z</time>
      </trkpt>
      <trkpt lat="45.15994" lon="4.81497">
        <ele>133.36</ele>
        <time>2019-05-26T09:53:19.000Z</time>
      </trkpt>
      <trkpt lat="45.15973" lon="4.81551">
        <ele>129.57</ele>
        <time>2019-05-26T09:53:24.000Z</time>
      </trkpt>
      <trkpt lat="45.15951" lon="4.81608">
        <ele>129.3</ele>
        <time>2019-05-26T09:53:29.000Z</time>
      </trkpt>
      <trkpt lat="45.15932" lon="4.8166">
        <ele>128.53</ele>
        <time>2019-05-26T09:53:34.000Z</time>
      </trkpt>
      <trkpt lat="45.15922" lon="4.81711">
        <ele>127.3</ele>
        <time>2019-05-26T09:53:39.000Z</time>
      </trkpt>
      <trkpt lat="45.15932" lon="4.8176">
        <ele>125.31</ele>
        <time>2019-05-26T09:53:44.000Z</time>
      </trkpt>
      <trkpt lat="45.15932" lon="4.81808">
        <ele>125.55</ele>
        <time>2019-05-26T09:53:49.000Z</time>
      </trkpt>
      <trkpt lat="45.15921" lon="4.81859">
        <ele>126.24</ele>
        <time>2019-05-26T09:53:54.000Z</time>
      </trkpt>
      <trkpt lat="45.15915" lon="4.8191">
        <ele>126.3</ele>
        <time>2019-05-26T09:53:59.000Z</time>
      </trkpt>
      <trkpt lat="45.15909" lon="4.81957">
        <ele>125.55</ele>
        <time>2019-05-26T09:54:04.000Z</time>
      </trkpt>
      <trkpt lat="45.15903" lon="4.82002">
        <ele>125.31</ele>
        <time>2019-05-26T09:54:09.000Z</time>
      </trkpt>
      <trkpt lat="45.15896" lon="4.82045">
        <ele>123.37</ele>
        <time>2019-05-26T09:54:14.000Z</time>
      </trkpt>
      <trkpt lat="45.15888" lon="4.82087">
        <ele>124.3</ele>
        <time>2019-05-26T09:54:19.000Z</time>
      </trkpt>
      <trkpt lat="45.15879" lon="4.82129">
        <ele>125.05</ele>
        <time>2019-05-26T09:54:24.000Z</time>
      </trkpt>
      <trkpt lat="45.15869" lon="4.8217">
        <ele>125.3</ele>
        <time>2019-05-26T09:54:29.000Z</time>
      </trkpt>
      <trkpt lat="45.15858" lon="4.82209">
        <ele>125.3</ele>
        <time>2019-05-26T09:54:34.000Z</time>
      </trkpt>
      <trkpt lat="45.15845" lon="4.82249">
        <ele>127.24</ele>
        <time>2019-05-26T09:54:39.000Z</time>
      </trkpt>
      <trkpt lat="45.1583" lon="4.82287">
        <ele>126.31</ele>
        <time>2019-05-26T09:54:44.000Z</time>
      </trkpt>
      <trkpt lat="45.15815" lon="4.82325">
        <ele>126.31</ele>
        <time>2019-05-26T09:54:49.000Z</time>
      </trkpt>
      <trkpt lat="45.15798" lon="4.82361">
        <ele>126.31</ele>
        <time>2019-05-26T09:54:54.000Z</time>
      </trkpt>
      <trkpt lat="45.15778" lon="4.82393">
        <ele>126.24</ele>
        <time>2019-05-26T09:55:00.000Z</time>
      </trkpt>
      <trkpt lat="45.15755" lon="4.82419">
        <ele>126.31</ele>
        <time>2019-05-26T09:55:05.000Z</time>
      </trkpt>
      <trkpt lat="45.1573" lon="4.82444">
        <ele>127.26</ele>
        <time>2019-05-26T09:55:10.000Z</time>
      </trkpt>
      <trkpt lat="45.15705" lon="4.82465">
        <ele>128.24</ele>
        <time>2019-05-26T09:55:15.000Z</time>
      </trkpt>
      <trkpt lat="45.15679" lon="4.82482">
        <ele>129.31</ele>
        <time>2019-05-26T09:55:20.000Z</time>
      </trkpt>
      <trkpt lat="45.15651" lon="4.82494">
        <ele>129.54</ele>
        <time>2019-05-26T09:55:25.000Z</time>
      </trkpt>
      <trkpt lat="45.15623" lon="4.82502">
        <ele>128.31</ele>
        <time>2019-05-26T09:55:30.000Z</time>
      </trkpt>
      <trkpt lat="45.15592" lon="4.82507">
        <ele>128.55</ele>
        <time>2019-05-26T09:55:35.000Z</time>
      </trkpt>
      <trkpt lat="45.15562" lon="4.82509">
        <ele>128.35</ele>
        <time>2019-05-26T09:55:40.000Z</time>
      </trkpt>
      <trkpt lat="45.1553" lon="4.82509">
        <ele>126.32</ele>
        <time>2019-05-26T09:55:45.000Z</time>
      </trkpt>
      <trkpt lat="45.15497" lon="4.82505">
        <ele>125.12</ele>
        <time>2019-05-26T09:55:50.000Z</time>
      </trkpt>
      <trkpt lat="45.15466" lon="4.82501">
        <ele>126.29</ele>
        <time>2019-05-26T09:55:55.000Z</time>
      </trkpt>
      <trkpt lat="45.15434" lon="4.82492">
        <ele>126.37</ele>
        <time>2019-05-26T09:56:00.000Z</time>
      </trkpt>
      <trkpt lat="45.15405" lon="4.82481">
        <ele>128.23</ele>
        <time>2019-05-26T09:56:05.000Z</time>
      </trkpt>
      <trkpt lat="45.15374" lon="4.82466">
        <ele>127.61</ele>
        <time>2019-05-26T09:56:10.000Z</time>
      </trkpt>
      <trkpt lat="45.15343" lon="4.82445">
        <ele>128.24</ele>
        <time>2019-05-26T09:56:15.000Z</time>
      </trkpt>
      <trkpt lat="45.15314" lon="4.82423">
        <ele>127.32</ele>
        <time>2019-05-26T09:56:20.000Z</time>
      </trkpt>
      <trkpt lat="45.15284" lon="4.82399">
        <ele>125.32</ele>
        <time>2019-05-26T09:56:25.000Z</time>
      </trkpt>
      <trkpt lat="45.15256" lon="4.82376">
        <ele>125.55</ele>
        <time>2019-05-26T09:56:30.000Z</time>
      </trkpt>
      <trkpt lat="45.15227" lon="4.82354">
        <ele>124.49</ele>
        <time>2019-05-26T09:56:35.000Z</time>
      </trkpt>
      <trkpt lat="45.15199" lon="4.82332">
        <ele>127.03</ele>
        <time>2019-05-26T09:56:46.000Z</time>
      </trkpt>
      <trkpt lat="45.15172" lon="4.82309">
        <ele>128.29</ele>
        <time>2019-05-26T09:56:51.000Z</time>
      </trkpt>
      <trkpt lat="45.15146" lon="4.82285">
        <ele>127.3</ele>
        <time>2019-05-26T09:56:56.000Z</time>
      </trkpt>
      <trkpt lat="45.15119" lon="4.82265">
        <ele>124.61</ele>
        <time>2019-05-26T09:57:01.000Z</time>
      </trkpt>
      <trkpt lat="45.15093" lon="4.82242">
        <ele>123.53</ele>
        <time>2019-05-26T09:57:06.000Z</time>
      </trkpt>
      <trkpt lat="45.15066" lon="4.82222">
        <ele>125.28</ele>
        <time>2019-05-26T09:57:11.000Z</time>
      </trkpt>
      <trkpt lat="45.1504" lon="4.82201">
        <ele>125.29</ele>
        <time>2019-05-26T09:57:16.000Z</time>
      </trkpt>
      <trkpt lat="45.15014" lon="4.82177">
        <ele>125.28</ele>
        <time>2019-05-26T09:57:21.000Z</time>
      </trkpt>
      <trkpt lat="45.14987" lon="4.82153">
        <ele>124.31</ele>
        <time>2019-05-26T09:57:26.000Z</time>
      </trkpt>
      <trkpt lat="45.1496" lon="4.82129">
        <ele>124.29</ele>
        <time>2019-05-26T09:57:31.000Z</time>
      </trkpt>
      <trkpt lat="45.14935" lon="4.82106">
        <ele>125.04</ele>
        <time>2019-05-26T09:57:36.000Z</time>
      </trkpt>
      <trkpt lat="45.1491" lon="4.82084">
        <ele>125.49</ele>
        <time>2019-05-26T09:57:41.000Z</time>
      </trkpt>
      <trkpt lat="45.14885" lon="4.82061">
        <ele>124.35</ele>
        <time>2019-05-26T09:57:46.000Z</time>
      </trkpt>
      <trkpt lat="45.14861" lon="4.82037">
        <ele>126.27</ele>
        <time>2019-05-26T09:57:51.000Z</time>
      </trkpt>
      <trkpt lat="45.14838" lon="4.82014">
        <ele>126.03</ele>
        <time>2019-05-26T09:57:56.000Z</time>
      </trkpt>
      <trkpt lat="45.14815" lon="4.81993">
        <ele>125.35</ele>
        <time>2019-05-26T09:58:01.000Z</time>
      </trkpt>
      <trkpt lat="45.14791" lon="4.81969">
        <ele>128.22</ele>
        <time>2019-05-26T09:58:06.000Z</time>
      </trkpt>
      <trkpt lat="45.14766" lon="4.81947">
        <ele>129.27</ele>
        <time>2019-05-26T09:58:11.000Z</time>
      </trkpt>
      <trkpt lat="45.14739" lon="4.81919">
        <ele>127.54</ele>
        <time>2019-05-26T09:58:16.000Z</time>
      </trkpt>
      <trkpt lat="45.14712" lon="4.81888">
        <ele>128.04</ele>
        <time>2019-05-26T09:58:21.000Z</time>
      </trkpt>
      <trkpt lat="45.14686" lon="4.81859">
        <ele>129.23</ele>
        <time>2019-05-26T09:58:26.000Z</time>
      </trkpt>
      <trkpt lat="45.14658" lon="4.8183">
        <ele>127.35</ele>
        <time>2019-05-26T09:58:31.000Z</time>
      </trkpt>
      <trkpt lat="45.14629" lon="4.81801">
        <ele>127.63</ele>
        <time>2019-05-26T09:58:36.000Z</time>
      </trkpt>
      <trkpt lat="45.146" lon="4.81774">
        <ele>122.33</ele>
        <time>2019-05-26T09:58:41.000Z</time>
      </trkpt>
      <trkpt lat="45.14573" lon="4.81747">
        <ele>124.47</ele>
        <time>2019-05-26T09:58:46.000Z</time>
      </trkpt>
      <trkpt lat="45.14546" lon="4.81721">
        <ele>125.02</ele>
        <time>2019-05-26T09:58:51.000Z</time>
      </trkpt>
      <trkpt lat="45.1452" lon="4.81695">
        <ele>125.27</ele>
        <time>2019-05-26T09:58:56.000Z</time>
      </trkpt>
      <trkpt lat="45.14496" lon="4.81668">
        <ele>125.28</ele>
        <time>2019-05-26T09:59:01.000Z</time>
      </trkpt>
      <trkpt lat="45.14473" lon="4.81645">
        <ele>125.27</ele>
        <time>2019-05-26T09:59:06.000Z</time>
      </trkpt>
      <trkpt lat="45.1445" lon="4.81621">
        <ele>126.27</ele>
        <time>2019-05-26T09:59:11.000Z</time>
      </trkpt>
      <trkpt lat="45.14423" lon="4.81597">
        <ele>126.28</ele>
        <time>2019-05-26T09:59:16.000Z</time>
      </trkpt>
      <trkpt lat="45.14396" lon="4.8157">
        <ele>125.28</ele>
        <time>2019-05-26T09:59:21.000Z</time>
      </trkpt>
      <trkpt lat="45.14371" lon="4.81542">
        <ele>124.28</ele>
        <time>2019-05-26T09:59:26.000Z</time>
      </trkpt>
      <trkpt lat="45.14345" lon="4.81515">
        <ele>124.27</ele>
        <time>2019-05-26T09:59:31.000Z</time>
      </trkpt>
      <trkpt lat="45.14319" lon="4.81491">
        <ele>124.34</ele>
        <time>2019-05-26T09:59:36.000Z</time>
      </trkpt>
      <trkpt lat="45.14295" lon="4.81465">
        <ele>125.21</ele>
        <time>2019-05-26T09:59:41.000Z</time>
      </trkpt>
      <trkpt lat="45.14273" lon="4.81437">
        <ele>128.02</ele>
        <time>2019-05-26T09:59:46.000Z</time>
      </trkpt>
      <trkpt lat="45.14251" lon="4.81416">
        <ele>130.02</ele>
        <time>2019-05-26T09:59:51.000Z</time>
      </trkpt>
      <trkpt lat="45.14232" lon="4.81396">
        <ele>131.21</ele>
        <time>2019-05-26T09:59:56.000Z</time>
      </trkpt>
      <trkpt lat="45.14216" lon="4.81379">
        <ele>132.21</ele>
        <time>2019-05-26T10:00:01.000Z</time>
      </trkpt>
      <trkpt lat="45.142" lon="4.8136">
        <ele>131.27</ele>
        <time>2019-05-26T10:00:06.000Z</time>
      </trkpt>
      <trkpt lat="45.14186" lon="4.8133">
        <ele>129.3</ele>
        <time>2019-05-26T10:00:11.000Z</time>
      </trkpt>
      <trkpt lat="45.14161" lon="4.81297">
        <ele>127.34</ele>
        <time>2019-05-26T10:00:16.000Z</time>
      </trkpt>
      <trkpt lat="45.14142" lon="4.81275">
        <ele>126.33</ele>
        <time>2019-05-26T10:00:21.000Z</time>
      </trkpt>
      <trkpt lat="45.14134" lon="4.81255">
        <ele>125.28</ele>
        <time>2019-05-26T10:00:26.000Z</time>
      </trkpt>
      <trkpt lat="45.14124" lon="4.81257">
        <ele>124.03</ele>
        <time>2019-05-26T10:00:31.000Z</time>
      </trkpt>
      <trkpt lat="45.14115" lon="4.8125">
        <ele>129</ele>
        <time>2019-05-26T10:00:36.000Z</time>
      </trkpt>
      <trkpt lat="45.14108" lon="4.81238">
        <ele>133.19</ele>
        <time>2019-05-26T10:00:41.000Z</time>
      </trkpt>
      <trkpt lat="45.14099" lon="4.81225">
        <ele>131.29</ele>
        <time>2019-05-26T10:00:46.000Z</time>
      </trkpt>
      <trkpt lat="45.14088" lon="4.81214">
        <ele>132</ele>
        <time>2019-05-26T10:00:51.000Z</time>
      </trkpt>
      <trkpt lat="45.14076" lon="4.81198">
        <ele>132.32</ele>
        <time>2019-05-26T10:00:56.000Z</time>
      </trkpt>
      <trkpt lat="45.14062" lon="4.81179">
        <ele>132.21</ele>
        <time>2019-05-26T10:01:01.000Z</time>
      </trkpt>
      <trkpt lat="45.14046" lon="4.81157">
        <ele>130.52</ele>
        <time>2019-05-26T10:01:06.000Z</time>
      </trkpt>
      <trkpt lat="45.14028" lon="4.81136">
        <ele>130.26</ele>
        <time>2019-05-26T10:01:11.000Z</time>
      </trkpt>
      <trkpt lat="45.14009" lon="4.81112">
        <ele>131.07</ele>
        <time>2019-05-26T10:01:16.000Z</time>
      </trkpt>
      <trkpt lat="45.1399" lon="4.81085">
        <ele>131.2</ele>
        <time>2019-05-26T10:01:21.000Z</time>
      </trkpt>
      <trkpt lat="45.13973" lon="4.81059">
        <ele>131.08</ele>
        <time>2019-05-26T10:01:26.000Z</time>
      </trkpt>
      <trkpt lat="45.13953" lon="4.81031">
        <ele>131.45</ele>
        <time>2019-05-26T10:01:31.000Z</time>
      </trkpt>
      <trkpt lat="45.1393" lon="4.80999">
        <ele>130.31</ele>
        <time>2019-05-26T10:01:36.000Z</time>
      </trkpt>
      <trkpt lat="45.13912" lon="4.80966">
        <ele>130.95</ele>
        <time>2019-05-26T10:01:41.000Z</time>
      </trkpt>
      <trkpt lat="45.13891" lon="4.80935">
        <ele>129.33</ele>
        <time>2019-05-26T10:01:46.000Z</time>
      </trkpt>
      <trkpt lat="45.13873" lon="4.80904">
        <ele>130.2</ele>
        <time>2019-05-26T10:01:51.000Z</time>
      </trkpt>
      <trkpt lat="45.13864" lon="4.80876">
        <ele>129.51</ele>
        <time>2019-05-26T10:01:56.000Z</time>
      </trkpt>
      <trkpt lat="45.13853" lon="4.8085">
        <ele>128.51</ele>
        <time>2019-05-26T10:02:01.000Z</time>
      </trkpt>
      <trkpt lat="45.13843" lon="4.80824">
        <ele>127.26</ele>
        <time>2019-05-26T10:02:06.000Z</time>
      </trkpt>
      <trkpt lat="45.13838" lon="4.80807">
        <ele>127.2</ele>
        <time>2019-05-26T10:02:11.000Z</time>
      </trkpt>
      <trkpt lat="45.13836" lon="4.80793">
        <ele>129.25</ele>
        <time>2019-05-26T10:02:16.000Z</time>
      </trkpt>
      <trkpt lat="45.13833" lon="4.80772">
        <ele>127.51</ele>
        <time>2019-05-26T10:02:21.000Z</time>
      </trkpt>
      <trkpt lat="45.13829" lon="4.80748">
        <ele>127.01</ele>
        <time>2019-05-26T10:02:26.000Z</time>
      </trkpt>
      <trkpt lat="45.1382" lon="4.80722">
        <ele>127.27</ele>
        <time>2019-05-26T10:02:31.000Z</time>
      </trkpt>
      <trkpt lat="45.13806" lon="4.80699">
        <ele>127.07</ele>
        <time>2019-05-26T10:02:36.000Z</time>
      </trkpt>
      <trkpt lat="45.1379" lon="4.80673">
        <ele>128.25</ele>
        <time>2019-05-26T10:02:41.000Z</time>
      </trkpt>
      <trkpt lat="45.13774" lon="4.8065">
        <ele>129.19</ele>
        <time>2019-05-26T10:02:46.000Z</time>
      </trkpt>
      <trkpt lat="45.13754" lon="4.80631">
        <ele>128.32</ele>
        <time>2019-05-26T10:02:51.000Z</time>
      </trkpt>
      <trkpt lat="45.13737" lon="4.80599">
        <ele>126.46</ele>
        <time>2019-05-26T10:02:56.000Z</time>
      </trkpt>
      <trkpt lat="45.1372" lon="4.80565">
        <ele>126.5</ele>
        <time>2019-05-26T10:03:01.000Z</time>
      </trkpt>
      <trkpt lat="45.13701" lon="4.8053">
        <ele>125.32</ele>
        <time>2019-05-26T10:03:06.000Z</time>
      </trkpt>
      <trkpt lat="45.13683" lon="4.80499">
        <ele>125.3</ele>
        <time>2019-05-26T10:03:11.000Z</time>
      </trkpt>
      <trkpt lat="45.13662" lon="4.80473">
        <ele>126.25</ele>
        <time>2019-05-26T10:03:16.000Z</time>
      </trkpt>
      <trkpt lat="45.1364" lon="4.80449">
        <ele>126.02</ele>
        <time>2019-05-26T10:03:21.000Z</time>
      </trkpt>
      <trkpt lat="45.13616" lon="4.80425">
        <ele>125.49</ele>
        <time>2019-05-26T10:03:26.000Z</time>
      </trkpt>
      <trkpt lat="45.13589" lon="4.80405">
        <ele>125.25</ele>
        <time>2019-05-26T10:03:31.000Z</time>
      </trkpt>
      <trkpt lat="45.1356" lon="4.80387">
        <ele>126.99</ele>
        <time>2019-05-26T10:03:36.000Z</time>
      </trkpt>
      <trkpt lat="45.13534" lon="4.80366">
        <ele>126.5</ele>
        <time>2019-05-26T10:03:41.000Z</time>
      </trkpt>
      <trkpt lat="45.1351" lon="4.80337">
        <ele>125.26</ele>
        <time>2019-05-26T10:03:46.000Z</time>
      </trkpt>
      <trkpt lat="45.13488" lon="4.80306">
        <ele>123.56</ele>
        <time>2019-05-26T10:03:51.000Z</time>
      </trkpt>
      <trkpt lat="45.13455" lon="4.80293">
        <ele>121.26</ele>
        <time>2019-05-26T10:03:56.000Z</time>
      </trkpt>
      <trkpt lat="45.13427" lon="4.80295">
        <ele>123.19</ele>
        <time>2019-05-26T10:04:01.000Z</time>
      </trkpt>
      <trkpt lat="45.13404" lon="4.80281">
        <ele>125.17</ele>
        <time>2019-05-26T10:04:06.000Z</time>
      </trkpt>
      <trkpt lat="45.13382" lon="4.80268">
        <ele>126.93</ele>
        <time>2019-05-26T10:04:11.000Z</time>
      </trkpt>
      <trkpt lat="45.13355" lon="4.80264">
        <ele>127.2</ele>
        <time>2019-05-26T10:08:34.000Z</time>
      </trkpt>
      <trkpt lat="45.13328" lon="4.80267">
        <ele>126.3</ele>
        <time>2019-05-26T10:08:47.000Z</time>
      </trkpt>
      <trkpt lat="45.13299" lon="4.80259">
        <ele>125.26</ele>
        <time>2019-05-26T10:08:52.000Z</time>
      </trkpt>
      <trkpt lat="45.13269" lon="4.80254">
        <ele>125.29</ele>
        <time>2019-05-26T10:08:57.000Z</time>
      </trkpt>
      <trkpt lat="45.13239" lon="4.80257">
        <ele>125.24</ele>
        <time>2019-05-26T10:09:02.000Z</time>
      </trkpt>
      <trkpt lat="45.13211" lon="4.80248">
        <ele>125.99</ele>
        <time>2019-05-26T10:09:07.000Z</time>
      </trkpt>
      <trkpt lat="45.13181" lon="4.80244">
        <ele>126.28</ele>
        <time>2019-05-26T10:09:12.000Z</time>
      </trkpt>
      <trkpt lat="45.13149" lon="4.80247">
        <ele>127.24</ele>
        <time>2019-05-26T10:09:17.000Z</time>
      </trkpt>
      <trkpt lat="45.13117" lon="4.80244">
        <ele>127.24</ele>
        <time>2019-05-26T10:09:22.000Z</time>
      </trkpt>
      <trkpt lat="45.13085" lon="4.8024">
        <ele>128.18</ele>
        <time>2019-05-26T10:09:27.000Z</time>
      </trkpt>
      <trkpt lat="45.13053" lon="4.80233">
        <ele>127.49</ele>
        <time>2019-05-26T10:09:32.000Z</time>
      </trkpt>
      <trkpt lat="45.13021" lon="4.80226">
        <ele>126.25</ele>
        <time>2019-05-26T10:09:37.000Z</time>
      </trkpt>
      <trkpt lat="45.12989" lon="4.80222">
        <ele>126.24</ele>
        <time>2019-05-26T10:09:42.000Z</time>
      </trkpt>
      <trkpt lat="45.12956" lon="4.80216">
        <ele>127.03</ele>
        <time>2019-05-26T10:09:47.000Z</time>
      </trkpt>
      <trkpt lat="45.12926" lon="4.80211">
        <ele>126.3</ele>
        <time>2019-05-26T10:09:52.000Z</time>
      </trkpt>
      <trkpt lat="45.12896" lon="4.80204">
        <ele>127.47</ele>
        <time>2019-05-26T10:09:57.000Z</time>
      </trkpt>
      <trkpt lat="45.12866" lon="4.80198">
        <ele>127.99</ele>
        <time>2019-05-26T10:10:02.000Z</time>
      </trkpt>
      <trkpt lat="45.12837" lon="4.80186">
        <ele>128.22</ele>
        <time>2019-05-26T10:10:07.000Z</time>
      </trkpt>
      <trkpt lat="45.12804" lon="4.80176">
        <ele>127.25</ele>
        <time>2019-05-26T10:10:12.000Z</time>
      </trkpt>
      <trkpt lat="45.12774" lon="4.80172">
        <ele>126.25</ele>
        <time>2019-05-26T10:10:17.000Z</time>
      </trkpt>
      <trkpt lat="45.12742" lon="4.80167">
        <ele>124.3</ele>
        <time>2019-05-26T10:10:22.000Z</time>
      </trkpt>
      <trkpt lat="45.12712" lon="4.80169">
        <ele>126.16</ele>
        <time>2019-05-26T10:10:27.000Z</time>
      </trkpt>
      <trkpt lat="45.12686" lon="4.80164">
        <ele>125.25</ele>
        <time>2019-05-26T10:10:32.000Z</time>
      </trkpt>
      <trkpt lat="45.12655" lon="4.80159">
        <ele>125.28</ele>
        <time>2019-05-26T10:10:37.000Z</time>
      </trkpt>
      <trkpt lat="45.12626" lon="4.80152">
        <ele>126.23</ele>
        <time>2019-05-26T10:10:42.000Z</time>
      </trkpt>
      <trkpt lat="45.12596" lon="4.80146">
        <ele>126.51</ele>
        <time>2019-05-26T10:10:47.000Z</time>
      </trkpt>
      <trkpt lat="45.12564" lon="4.80141">
        <ele>127.2</ele>
        <time>2019-05-26T10:10:52.000Z</time>
      </trkpt>
      <trkpt lat="45.12533" lon="4.80136">
        <ele>125.5</ele>
        <time>2019-05-26T10:10:57.000Z</time>
      </trkpt>
      <trkpt lat="45.12501" lon="4.8013">
        <ele>125.98</ele>
        <time>2019-05-26T10:11:02.000Z</time>
      </trkpt>
      <trkpt lat="45.12469" lon="4.80119">
        <ele>125.97</ele>
        <time>2019-05-26T10:11:07.000Z</time>
      </trkpt>
      <trkpt lat="45.12438" lon="4.80112">
        <ele>125.98</ele>
        <time>2019-05-26T10:11:12.000Z</time>
      </trkpt>
      <trkpt lat="45.12406" lon="4.80101">
        <ele>125.24</ele>
        <time>2019-05-26T10:11:17.000Z</time>
      </trkpt>
      <trkpt lat="45.12375" lon="4.80102">
        <ele>125</ele>
        <time>2019-05-26T10:11:22.000Z</time>
      </trkpt>
      <trkpt lat="45.12354" lon="4.80098">
        <ele>127.21</ele>
        <time>2019-05-26T10:11:27.000Z</time>
      </trkpt>
      <trkpt lat="45.12332" lon="4.80094">
        <ele>128.21</ele>
        <time>2019-05-26T10:11:32.000Z</time>
      </trkpt>
      <trkpt lat="45.12309" lon="4.80094">
        <ele>129.18</ele>
        <time>2019-05-26T10:11:37.000Z</time>
      </trkpt>
      <trkpt lat="45.12286" lon="4.80095">
        <ele>128.24</ele>
        <time>2019-05-26T10:11:42.000Z</time>
      </trkpt>
      <trkpt lat="45.1226" lon="4.80099">
        <ele>128.22</ele>
        <time>2019-05-26T10:11:47.000Z</time>
      </trkpt>
      <trkpt lat="45.12234" lon="4.80103">
        <ele>127.99</ele>
        <time>2019-05-26T10:11:52.000Z</time>
      </trkpt>
      <trkpt lat="45.12209" lon="4.80113">
        <ele>128.23</ele>
        <time>2019-05-26T10:11:57.000Z</time>
      </trkpt>
      <trkpt lat="45.12182" lon="4.80127">
        <ele>128.22</ele>
        <time>2019-05-26T10:12:02.000Z</time>
      </trkpt>
      <trkpt lat="45.12152" lon="4.80148">
        <ele>128.23</ele>
        <time>2019-05-26T10:12:07.000Z</time>
      </trkpt>
      <trkpt lat="45.12119" lon="4.80159">
        <ele>127.23</ele>
        <time>2019-05-26T10:12:12.000Z</time>
      </trkpt>
      <trkpt lat="45.12091" lon="4.80175">
        <ele>127.98</ele>
        <time>2019-05-26T10:12:17.000Z</time>
      </trkpt>
      <trkpt lat="45.12073" lon="4.80198">
        <ele>128.23</ele>
        <time>2019-05-26T10:12:22.000Z</time>
      </trkpt>
      <trkpt lat="45.12065" lon="4.80241">
        <ele>125.54</ele>
        <time>2019-05-26T10:12:27.000Z</time>
      </trkpt>
      <trkpt lat="45.12056" lon="4.80289">
        <ele>124.24</ele>
        <time>2019-05-26T10:12:32.000Z</time>
      </trkpt>
      <trkpt lat="45.1205" lon="4.80339">
        <ele>122.51</ele>
        <time>2019-05-26T10:12:37.000Z</time>
      </trkpt>
      <trkpt lat="45.12035" lon="4.80383">
        <ele>121.24</ele>
        <time>2019-05-26T10:12:42.000Z</time>
      </trkpt>
      <trkpt lat="45.1201" lon="4.80413">
        <ele>122.17</ele>
        <time>2019-05-26T10:12:47.000Z</time>
      </trkpt>
      <trkpt lat="45.11992" lon="4.80449">
        <ele>122.24</ele>
        <time>2019-05-26T10:12:52.000Z</time>
      </trkpt>
      <trkpt lat="45.11968" lon="4.80481">
        <ele>122.22</ele>
        <time>2019-05-26T10:12:57.000Z</time>
      </trkpt>
      <trkpt lat="45.11944" lon="4.80509">
        <ele>123.98</ele>
        <time>2019-05-26T10:13:02.000Z</time>
      </trkpt>
      <trkpt lat="45.1192" lon="4.80538">
        <ele>126.67</ele>
        <time>2019-05-26T10:13:07.000Z</time>
      </trkpt>
      <trkpt lat="45.11895" lon="4.80559">
        <ele>124.97</ele>
        <time>2019-05-26T10:13:12.000Z</time>
      </trkpt>
      <trkpt lat="45.1187" lon="4.80584">
        <ele>126.15</ele>
        <time>2019-05-26T10:13:17.000Z</time>
      </trkpt>
      <trkpt lat="45.11847" lon="4.80609">
        <ele>126.29</ele>
        <time>2019-05-26T10:13:22.000Z</time>
      </trkpt>
      <trkpt lat="45.11822" lon="4.80631">
        <ele>125.29</ele>
        <time>2019-05-26T10:13:27.000Z</time>
      </trkpt>
      <trkpt lat="45.11797" lon="4.8065">
        <ele>123.23</ele>
        <time>2019-05-26T10:13:32.000Z</time>
      </trkpt>
      <trkpt lat="45.11771" lon="4.80666">
        <ele>123.23</ele>
        <time>2019-05-26T10:13:37.000Z</time>
      </trkpt>
      <trkpt lat="45.11745" lon="4.80682">
        <ele>122</ele>
        <time>2019-05-26T10:13:42.000Z</time>
      </trkpt>
      <trkpt lat="45.11719" lon="4.80701">
        <ele>122.98</ele>
        <time>2019-05-26T10:13:47.000Z</time>
      </trkpt>
      <trkpt lat="45.11694" lon="4.80722">
        <ele>123.17</ele>
        <time>2019-05-26T10:13:52.000Z</time>
      </trkpt>
      <trkpt lat="45.11669" lon="4.80747">
        <ele>123.05</ele>
        <time>2019-05-26T10:13:57.000Z</time>
      </trkpt>
      <trkpt lat="45.11642" lon="4.80765">
        <ele>124.23</ele>
        <time>2019-05-26T10:14:02.000Z</time>
      </trkpt>
      <trkpt lat="45.1162" lon="4.80779">
        <ele>124.17</ele>
        <time>2019-05-26T10:14:07.000Z</time>
      </trkpt>
      <trkpt lat="45.1161" lon="4.8078">
        <ele>128.98</ele>
        <time>2019-05-26T10:14:12.000Z</time>
      </trkpt>
      <trkpt lat="45.11601" lon="4.80787">
        <ele>128.24</ele>
        <time>2019-05-26T10:14:17.000Z</time>
      </trkpt>
      <trkpt lat="45.11594" lon="4.80796">
        <ele>129.17</ele>
        <time>2019-05-26T10:14:22.000Z</time>
      </trkpt>
      <trkpt lat="45.11579" lon="4.8081">
        <ele>128.48</ele>
        <time>2019-05-26T10:14:27.000Z</time>
      </trkpt>
      <trkpt lat="45.11562" lon="4.80829">
        <ele>129.21</ele>
        <time>2019-05-26T10:14:32.000Z</time>
      </trkpt>
      <trkpt lat="45.11543" lon="4.80847">
        <ele>131.21</ele>
        <time>2019-05-26T10:14:37.000Z</time>
      </trkpt>
      <trkpt lat="45.11522" lon="4.80863">
        <ele>129.23</ele>
        <time>2019-05-26T10:14:42.000Z</time>
      </trkpt>
      <trkpt lat="45.115" lon="4.8088">
        <ele>129.97</ele>
        <time>2019-05-26T10:14:47.000Z</time>
      </trkpt>
      <trkpt lat="45.11479" lon="4.80901">
        <ele>128.24</ele>
        <time>2019-05-26T10:14:52.000Z</time>
      </trkpt>
      <trkpt lat="45.11457" lon="4.80922">
        <ele>128.28</ele>
        <time>2019-05-26T10:14:57.000Z</time>
      </trkpt>
      <trkpt lat="45.11435" lon="4.80941">
        <ele>128.28</ele>
        <time>2019-05-26T10:15:02.000Z</time>
      </trkpt>
      <trkpt lat="45.11411" lon="4.8096">
        <ele>129.17</ele>
        <time>2019-05-26T10:15:07.000Z</time>
      </trkpt>
      <trkpt lat="45.11389" lon="4.80981">
        <ele>129.23</ele>
        <time>2019-05-26T10:15:12.000Z</time>
      </trkpt>
      <trkpt lat="45.11368" lon="4.81003">
        <ele>130.21</ele>
        <time>2019-05-26T10:15:17.000Z</time>
      </trkpt>
      <trkpt lat="45.11349" lon="4.8103">
        <ele>129.25</ele>
        <time>2019-05-26T10:15:22.000Z</time>
      </trkpt>
      <trkpt lat="45.11325" lon="4.81048">
        <ele>129.48</ele>
        <time>2019-05-26T10:15:27.000Z</time>
      </trkpt>
      <trkpt lat="45.11301" lon="4.8106">
        <ele>128.48</ele>
        <time>2019-05-26T10:15:32.000Z</time>
      </trkpt>
      <trkpt lat="45.11278" lon="4.81073">
        <ele>128.46</ele>
        <time>2019-05-26T10:15:37.000Z</time>
      </trkpt>
      <trkpt lat="45.11254" lon="4.81087">
        <ele>126.97</ele>
        <time>2019-05-26T10:15:42.000Z</time>
      </trkpt>
      <trkpt lat="45.11232" lon="4.81105">
        <ele>126.17</ele>
        <time>2019-05-26T10:15:47.000Z</time>
      </trkpt>
      <trkpt lat="45.1121" lon="4.81127">
        <ele>126.98</ele>
        <time>2019-05-26T10:15:52.000Z</time>
      </trkpt>
      <trkpt lat="45.11193" lon="4.81154">
        <ele>127.98</ele>
        <time>2019-05-26T10:15:57.000Z</time>
      </trkpt>
      <trkpt lat="45.11179" lon="4.81186">
        <ele>127.06</ele>
        <time>2019-05-26T10:16:02.000Z</time>
      </trkpt>
      <trkpt lat="45.11164" lon="4.81217">
        <ele>126.48</ele>
        <time>2019-05-26T10:16:07.000Z</time>
      </trkpt>
      <trkpt lat="45.11138" lon="4.8123">
        <ele>126.24</ele>
        <time>2019-05-26T10:16:12.000Z</time>
      </trkpt>
      <trkpt lat="45.11112" lon="4.81234">
        <ele>125.23</ele>
        <time>2019-05-26T10:16:17.000Z</time>
      </trkpt>
      <trkpt lat="45.11085" lon="4.8124">
        <ele>124.25</ele>
        <time>2019-05-26T10:16:22.000Z</time>
      </trkpt>
      <trkpt lat="45.11058" lon="4.81244">
        <ele>123.48</ele>
        <time>2019-05-26T10:16:27.000Z</time>
      </trkpt>
      <trkpt lat="45.1103" lon="4.81254">
        <ele>122.48</ele>
        <time>2019-05-26T10:16:32.000Z</time>
      </trkpt>
      <trkpt lat="45.11003" lon="4.81274">
        <ele>122.43</ele>
        <time>2019-05-26T10:16:37.000Z</time>
      </trkpt>
      <trkpt lat="45.10976" lon="4.81298">
        <ele>122.24</ele>
        <time>2019-05-26T10:16:42.000Z</time>
      </trkpt>
      <trkpt lat="45.10952" lon="4.81325">
        <ele>123.21</ele>
        <time>2019-05-26T10:16:47.000Z</time>
      </trkpt>
      <trkpt lat="45.10933" lon="4.81357">
        <ele>123.19</ele>
        <time>2019-05-26T10:16:52.000Z</time>
      </trkpt>
      <trkpt lat="45.10917" lon="4.81394">
        <ele>125.17</ele>
        <time>2019-05-26T10:16:57.000Z</time>
      </trkpt>
      <trkpt lat="45.109" lon="4.8143">
        <ele>125.42</ele>
        <time>2019-05-26T10:17:02.000Z</time>
      </trkpt>
      <trkpt lat="45.10881" lon="4.81467">
        <ele>125.23</ele>
        <time>2019-05-26T10:17:07.000Z</time>
      </trkpt>
      <trkpt lat="45.10862" lon="4.81503">
        <ele>122.36</ele>
        <time>2019-05-26T10:17:12.000Z</time>
      </trkpt>
      <trkpt lat="45.10843" lon="4.81538">
        <ele>123.23</ele>
        <time>2019-05-26T10:17:17.000Z</time>
      </trkpt>
      <trkpt lat="45.10826" lon="4.81575">
        <ele>122.48</ele>
        <time>2019-05-26T10:17:22.000Z</time>
      </trkpt>
      <trkpt lat="45.10807" lon="4.8161">
        <ele>123.23</ele>
        <time>2019-05-26T10:17:27.000Z</time>
      </trkpt>
      <trkpt lat="45.10788" lon="4.81643">
        <ele>124.48</ele>
        <time>2019-05-26T10:17:32.000Z</time>
      </trkpt>
      <trkpt lat="45.10768" lon="4.81677">
        <ele>125.23</ele>
        <time>2019-05-26T10:17:37.000Z</time>
      </trkpt>
      <trkpt lat="45.10745" lon="4.81705">
        <ele>126.17</ele>
        <time>2019-05-26T10:17:42.000Z</time>
      </trkpt>
      <trkpt lat="45.1072" lon="4.8173">
        <ele>125.05</ele>
        <time>2019-05-26T10:17:47.000Z</time>
      </trkpt>
      <trkpt lat="45.10696" lon="4.81756">
        <ele>124.47</ele>
        <time>2019-05-26T10:17:52.000Z</time>
      </trkpt>
      <trkpt lat="45.1067" lon="4.8178">
        <ele>124.48</ele>
        <time>2019-05-26T10:17:57.000Z</time>
      </trkpt>
      <trkpt lat="45.10645" lon="4.81803">
        <ele>126.17</ele>
        <time>2019-05-26T10:18:02.000Z</time>
      </trkpt>
      <trkpt lat="45.10618" lon="4.81827">
        <ele>125.24</ele>
        <time>2019-05-26T10:18:07.000Z</time>
      </trkpt>
      <trkpt lat="45.10595" lon="4.8185">
        <ele>123.49</ele>
        <time>2019-05-26T10:18:12.000Z</time>
      </trkpt>
      <trkpt lat="45.10573" lon="4.8188">
        <ele>125.03</ele>
        <time>2019-05-26T10:18:17.000Z</time>
      </trkpt>
      <trkpt lat="45.10552" lon="4.81908">
        <ele>124.29</ele>
        <time>2019-05-26T10:18:22.000Z</time>
      </trkpt>
      <trkpt lat="45.10528" lon="4.81932">
        <ele>122.48</ele>
        <time>2019-05-26T10:18:27.000Z</time>
      </trkpt>
      <trkpt lat="45.10506" lon="4.81953">
        <ele>121.23</ele>
        <time>2019-05-26T10:18:32.000Z</time>
      </trkpt>
      <trkpt lat="45.10483" lon="4.81975">
        <ele>120.3</ele>
        <time>2019-05-26T10:18:37.000Z</time>
      </trkpt>
      <trkpt lat="45.10457" lon="4.81995">
        <ele>120.22</ele>
        <time>2019-05-26T10:18:42.000Z</time>
      </trkpt>
      <trkpt lat="45.10433" lon="4.82016">
        <ele>118.3</ele>
        <time>2019-05-26T10:18:47.000Z</time>
      </trkpt>
      <trkpt lat="45.10411" lon="4.8204">
        <ele>118.49</ele>
        <time>2019-05-26T10:18:52.000Z</time>
      </trkpt>
      <trkpt lat="45.1039" lon="4.82069">
        <ele>118.98</ele>
        <time>2019-05-26T10:18:57.000Z</time>
      </trkpt>
      <trkpt lat="45.10365" lon="4.82093">
        <ele>120.23</ele>
        <time>2019-05-26T10:19:02.000Z</time>
      </trkpt>
      <trkpt lat="45.10351" lon="4.82126">
        <ele>120.23</ele>
        <time>2019-05-26T10:19:07.000Z</time>
      </trkpt>
      <trkpt lat="45.10336" lon="4.82156">
        <ele>123.17</ele>
        <time>2019-05-26T10:19:12.000Z</time>
      </trkpt>
      <trkpt lat="45.10313" lon="4.82184">
        <ele>126.22</ele>
        <time>2019-05-26T10:19:17.000Z</time>
      </trkpt>
      <trkpt lat="45.10291" lon="4.82205">
        <ele>126.23</ele>
        <time>2019-05-26T10:19:22.000Z</time>
      </trkpt>
      <trkpt lat="45.10271" lon="4.82229">
        <ele>127.17</ele>
        <time>2019-05-26T10:19:27.000Z</time>
      </trkpt>
      <trkpt lat="45.10255" lon="4.82261">
        <ele>126.25</ele>
        <time>2019-05-26T10:19:32.000Z</time>
      </trkpt>
      <trkpt lat="45.10247" lon="4.8229">
        <ele>126.19</ele>
        <time>2019-05-26T10:19:37.000Z</time>
      </trkpt>
      <trkpt lat="45.10227" lon="4.823">
        <ele>126.25</ele>
        <time>2019-05-26T10:19:42.000Z</time>
      </trkpt>
      <trkpt lat="45.10203" lon="4.8231">
        <ele>124.05</ele>
        <time>2019-05-26T10:19:47.000Z</time>
      </trkpt>
      <trkpt lat="45.10177" lon="4.82322">
        <ele>123.99</ele>
        <time>2019-05-26T10:19:52.000Z</time>
      </trkpt>
      <trkpt lat="45.10151" lon="4.82334">
        <ele>122.36</ele>
        <time>2019-05-26T10:19:57.000Z</time>
      </trkpt>
      <trkpt lat="45.10125" lon="4.82349">
        <ele>124.16</ele>
        <time>2019-05-26T10:20:02.000Z</time>
      </trkpt>
      <trkpt lat="45.10104" lon="4.82372">
        <ele>125.27</ele>
        <time>2019-05-26T10:20:07.000Z</time>
      </trkpt>
      <trkpt lat="45.10082" lon="4.82386">
        <ele>123.53</ele>
        <time>2019-05-26T10:20:12.000Z</time>
      </trkpt>
      <trkpt lat="45.10058" lon="4.82402">
        <ele>124.23</ele>
        <time>2019-05-26T10:20:17.000Z</time>
      </trkpt>
      <trkpt lat="45.10035" lon="4.82414">
        <ele>125.17</ele>
        <time>2019-05-26T10:20:22.000Z</time>
      </trkpt>
      <trkpt lat="45.10012" lon="4.82421">
        <ele>126.74</ele>
        <time>2019-05-26T10:20:27.000Z</time>
      </trkpt>
      <trkpt lat="45.09987" lon="4.82432">
        <ele>126.47</ele>
        <time>2019-05-26T10:20:32.000Z</time>
      </trkpt>
      <trkpt lat="45.0996" lon="4.82443">
        <ele>125.25</ele>
        <time>2019-05-26T10:20:37.000Z</time>
      </trkpt>
      <trkpt lat="45.09932" lon="4.82454">
        <ele>125.94</ele>
        <time>2019-05-26T10:20:42.000Z</time>
      </trkpt>
      <trkpt lat="45.09907" lon="4.82463">
        <ele>123.5</ele>
        <time>2019-05-26T10:20:47.000Z</time>
      </trkpt>
      <trkpt lat="45.09881" lon="4.82472">
        <ele>122.5</ele>
        <time>2019-05-26T10:20:52.000Z</time>
      </trkpt>
      <trkpt lat="45.09857" lon="4.82483">
        <ele>125.02</ele>
        <time>2019-05-26T10:20:57.000Z</time>
      </trkpt>
      <trkpt lat="45.09831" lon="4.82493">
        <ele>126.29</ele>
        <time>2019-05-26T10:21:02.000Z</time>
      </trkpt>
      <trkpt lat="45.09801" lon="4.82507">
        <ele>127.18</ele>
        <time>2019-05-26T10:21:07.000Z</time>
      </trkpt>
      <trkpt lat="45.09773" lon="4.82521">
        <ele>125.3</ele>
        <time>2019-05-26T10:21:12.000Z</time>
      </trkpt>
      <trkpt lat="45.09744" lon="4.82539">
        <ele>126.92</ele>
        <time>2019-05-26T10:21:17.000Z</time>
      </trkpt>
      <trkpt lat="45.09716" lon="4.82551">
        <ele>128.29</ele>
        <time>2019-05-26T10:21:22.000Z</time>
      </trkpt>
      <trkpt lat="45.09693" lon="4.8257">
        <ele>127.23</ele>
        <time>2019-05-26T10:21:27.000Z</time>
      </trkpt>
      <trkpt lat="45.09682" lon="4.82602">
        <ele>124.39</ele>
        <time>2019-05-26T10:21:32.000Z</time>
      </trkpt>
      <trkpt lat="45.09664" lon="4.82611">
        <ele>127.96</ele>
        <time>2019-05-26T10:21:37.000Z</time>
      </trkpt>
      <trkpt lat="45.09642" lon="4.8261">
        <ele>128.46</ele>
        <time>2019-05-26T10:21:42.000Z</time>
      </trkpt>
      <trkpt lat="45.09631" lon="4.82639">
        <ele>128.04</ele>
        <time>2019-05-26T10:21:47.000Z</time>
      </trkpt>
      <trkpt lat="45.09619" lon="4.82668">
        <ele>125.48</ele>
        <time>2019-05-26T10:21:52.000Z</time>
      </trkpt>
      <trkpt lat="45.09606" lon="4.82696">
        <ele>127.24</ele>
        <time>2019-05-26T10:21:57.000Z</time>
      </trkpt>
      <trkpt lat="45.09589" lon="4.82727">
        <ele>126.29</ele>
        <time>2019-05-26T10:22:02.000Z</time>
      </trkpt>
      <trkpt lat="45.09565" lon="4.82755">
        <ele>126.29</ele>
        <time>2019-05-26T10:22:07.000Z</time>
      </trkpt>
      <trkpt lat="45.0954" lon="4.82777">
        <ele>126.29</ele>
        <time>2019-05-26T10:22:12.000Z</time>
      </trkpt>
      <trkpt lat="45.09514" lon="4.82802">
        <ele>125.19</ele>
        <time>2019-05-26T10:22:17.000Z</time>
      </trkpt>
      <trkpt lat="45.0949" lon="4.82827">
        <ele>125.29</ele>
        <time>2019-05-26T10:22:22.000Z</time>
      </trkpt>
      <trkpt lat="45.09464" lon="4.82847">
        <ele>125.04</ele>
        <time>2019-05-26T10:22:27.000Z</time>
      </trkpt>
      <trkpt lat="45.09433" lon="4.82853">
        <ele>123.25</ele>
        <time>2019-05-26T10:22:32.000Z</time>
      </trkpt>
      <trkpt lat="45.09401" lon="4.82859">
        <ele>122.48</ele>
        <time>2019-05-26T10:22:37.000Z</time>
      </trkpt>
      <trkpt lat="45.0937" lon="4.82867">
        <ele>122.18</ele>
        <time>2019-05-26T10:22:42.000Z</time>
      </trkpt>
      <trkpt lat="45.09339" lon="4.82878">
        <ele>124.98</ele>
        <time>2019-05-26T10:22:47.000Z</time>
      </trkpt>
      <trkpt lat="45.09309" lon="4.82887">
        <ele>124.48</ele>
        <time>2019-05-26T10:22:52.000Z</time>
      </trkpt>
      <trkpt lat="45.09278" lon="4.82899">
        <ele>123.42</ele>
        <time>2019-05-26T10:22:57.000Z</time>
      </trkpt>
      <trkpt lat="45.09247" lon="4.82912">
        <ele>121.25</ele>
        <time>2019-05-26T10:23:02.000Z</time>
      </trkpt>
      <trkpt lat="45.09218" lon="4.82924">
        <ele>119.24</ele>
        <time>2019-05-26T10:23:07.000Z</time>
      </trkpt>
      <trkpt lat="45.09189" lon="4.82945">
        <ele>121.96</ele>
        <time>2019-05-26T10:23:12.000Z</time>
      </trkpt>
      <trkpt lat="45.09159" lon="4.82964">
        <ele>123.47</ele>
        <time>2019-05-26T10:23:17.000Z</time>
      </trkpt>
      <trkpt lat="45.09127" lon="4.82974">
        <ele>122.48</ele>
        <time>2019-05-26T10:23:29.000Z</time>
      </trkpt>
      <trkpt lat="45.09094" lon="4.82984">
        <ele>123.22</ele>
        <time>2019-05-26T10:23:34.000Z</time>
      </trkpt>
      <trkpt lat="45.09061" lon="4.82992">
        <ele>122.47</ele>
        <time>2019-05-26T10:23:39.000Z</time>
      </trkpt>
      <trkpt lat="45.0903" lon="4.83004">
        <ele>121.48</ele>
        <time>2019-05-26T10:23:44.000Z</time>
      </trkpt>
      <trkpt lat="45.08999" lon="4.83018">
        <ele>121.04</ele>
        <time>2019-05-26T10:23:49.000Z</time>
      </trkpt>
      <trkpt lat="45.08967" lon="4.83032">
        <ele>122.22</ele>
        <time>2019-05-26T10:23:54.000Z</time>
      </trkpt>
      <trkpt lat="45.08935" lon="4.83034">
        <ele>121.24</ele>
        <time>2019-05-26T10:23:59.000Z</time>
      </trkpt>
      <trkpt lat="45.08902" lon="4.83036">
        <ele>120.24</ele>
        <time>2019-05-26T10:24:04.000Z</time>
      </trkpt>
      <trkpt lat="45.08872" lon="4.8304">
        <ele>119</ele>
        <time>2019-05-26T10:24:09.000Z</time>
      </trkpt>
      <trkpt lat="45.08839" lon="4.83046">
        <ele>117.73</ele>
        <time>2019-05-26T10:24:14.000Z</time>
      </trkpt>
      <trkpt lat="45.08808" lon="4.83047">
        <ele>118.23</ele>
        <time>2019-05-26T10:24:19.000Z</time>
      </trkpt>
      <trkpt lat="45.0878" lon="4.83043">
        <ele>117.98</ele>
        <time>2019-05-26T10:24:24.000Z</time>
      </trkpt>
      <trkpt lat="45.08747" lon="4.83038">
        <ele>119.22</ele>
        <time>2019-05-26T10:24:29.000Z</time>
      </trkpt>
      <trkpt lat="45.08717" lon="4.83034">
        <ele>118.98</ele>
        <time>2019-05-26T10:24:34.000Z</time>
      </trkpt>
      <trkpt lat="45.0869" lon="4.83024">
        <ele>121.16</ele>
        <time>2019-05-26T10:24:39.000Z</time>
      </trkpt>
      <trkpt lat="45.08658" lon="4.83013">
        <ele>122.21</ele>
        <time>2019-05-26T10:24:44.000Z</time>
      </trkpt>
      <trkpt lat="45.08631" lon="4.83001">
        <ele>122.96</ele>
        <time>2019-05-26T10:24:49.000Z</time>
      </trkpt>
      <trkpt lat="45.08605" lon="4.8299">
        <ele>124.14</ele>
        <time>2019-05-26T10:24:54.000Z</time>
      </trkpt>
      <trkpt lat="45.08576" lon="4.82977">
        <ele>122.48</ele>
        <time>2019-05-26T10:24:59.000Z</time>
      </trkpt>
      <trkpt lat="45.08547" lon="4.82962">
        <ele>119.32</ele>
        <time>2019-05-26T10:25:04.000Z</time>
      </trkpt>
      <trkpt lat="45.08518" lon="4.82945">
        <ele>119.47</ele>
        <time>2019-05-26T10:25:12.000Z</time>
      </trkpt>
      <trkpt lat="45.08494" lon="4.82924">
        <ele>120.22</ele>
        <time>2019-05-26T10:25:17.000Z</time>
      </trkpt>
      <trkpt lat="45.0847" lon="4.82903">
        <ele>121.39</ele>
        <time>2019-05-26T10:25:22.000Z</time>
      </trkpt>
      <trkpt lat="45.08447" lon="4.82883">
        <ele>122.2</ele>
        <time>2019-05-26T10:25:27.000Z</time>
      </trkpt>
      <trkpt lat="45.08424" lon="4.82862">
        <ele>121.23</ele>
        <time>2019-05-26T10:25:32.000Z</time>
      </trkpt>
      <trkpt lat="45.08399" lon="4.82849">
        <ele>122.2</ele>
        <time>2019-05-26T10:25:37.000Z</time>
      </trkpt>
      <trkpt lat="45.08372" lon="4.82833">
        <ele>122.22</ele>
        <time>2019-05-26T10:25:42.000Z</time>
      </trkpt>
      <trkpt lat="45.08347" lon="4.82816">
        <ele>124.15</ele>
        <time>2019-05-26T10:25:47.000Z</time>
      </trkpt>
      <trkpt lat="45.0832" lon="4.82799">
        <ele>124.22</ele>
        <time>2019-05-26T10:25:52.000Z</time>
      </trkpt>
      <trkpt lat="45.08293" lon="4.82783">
        <ele>124.22</ele>
        <time>2019-05-26T10:25:57.000Z</time>
      </trkpt>
      <trkpt lat="45.08266" lon="4.82768">
        <ele>122.22</ele>
        <time>2019-05-26T10:26:02.000Z</time>
      </trkpt>
      <trkpt lat="45.08239" lon="4.82753">
        <ele>122.21</ele>
        <time>2019-05-26T10:26:07.000Z</time>
      </trkpt>
      <trkpt lat="45.08213" lon="4.82735">
        <ele>121.42</ele>
        <time>2019-05-26T10:26:12.000Z</time>
      </trkpt>
      <trkpt lat="45.08186" lon="4.82717">
        <ele>120.42</ele>
        <time>2019-05-26T10:26:17.000Z</time>
      </trkpt>
      <trkpt lat="45.08161" lon="4.82698">
        <ele>121.21</ele>
        <time>2019-05-26T10:26:22.000Z</time>
      </trkpt>
      <trkpt lat="45.08134" lon="4.82687">
        <ele>120.26</ele>
        <time>2019-05-26T10:26:27.000Z</time>
      </trkpt>
      <trkpt lat="45.08105" lon="4.82679">
        <ele>119.23</ele>
        <time>2019-05-26T10:26:32.000Z</time>
      </trkpt>
      <trkpt lat="45.08082" lon="4.82666">
        <ele>120.21</ele>
        <time>2019-05-26T10:26:37.000Z</time>
      </trkpt>
      <trkpt lat="45.08059" lon="4.82648">
        <ele>119.21</ele>
        <time>2019-05-26T10:26:42.000Z</time>
      </trkpt>
      <trkpt lat="45.08038" lon="4.82625">
        <ele>118.27</ele>
        <time>2019-05-26T10:26:47.000Z</time>
      </trkpt>
      <trkpt lat="45.08013" lon="4.82619">
        <ele>119.21</ele>
        <time>2019-05-26T10:26:52.000Z</time>
      </trkpt>
      <trkpt lat="45.07988" lon="4.82625">
        <ele>118.46</ele>
        <time>2019-05-26T10:26:57.000Z</time>
      </trkpt>
      <trkpt lat="45.07959" lon="4.82621">
        <ele>119.21</ele>
        <time>2019-05-26T10:27:02.000Z</time>
      </trkpt>
      <trkpt lat="45.07929" lon="4.82621">
        <ele>117.23</ele>
        <time>2019-05-26T10:27:07.000Z</time>
      </trkpt>
      <trkpt lat="45.07898" lon="4.82617">
        <ele>115.46</ele>
        <time>2019-05-26T10:27:12.000Z</time>
      </trkpt>
      <trkpt lat="45.07869" lon="4.82614">
        <ele>117.94</ele>
        <time>2019-05-26T10:27:17.000Z</time>
      </trkpt>
      <trkpt lat="45.07841" lon="4.82611">
        <ele>118.21</ele>
        <time>2019-05-26T10:27:22.000Z</time>
      </trkpt>
      <trkpt lat="45.07811" lon="4.82608">
        <ele>117.28</ele>
        <time>2019-05-26T10:27:27.000Z</time>
      </trkpt>
      <trkpt lat="45.07782" lon="4.82607">
        <ele>117.02</ele>
        <time>2019-05-26T10:27:32.000Z</time>
      </trkpt>
      <trkpt lat="45.07756" lon="4.826">
        <ele>117.2</ele>
        <time>2019-05-26T10:27:37.000Z</time>
      </trkpt>
      <trkpt lat="45.07732" lon="4.82586">
        <ele>119.42</ele>
        <time>2019-05-26T10:27:42.000Z</time>
      </trkpt>
      <trkpt lat="45.07711" lon="4.82568">
        <ele>119.22</ele>
        <time>2019-05-26T10:27:47.000Z</time>
      </trkpt>
      <trkpt lat="45.0769" lon="4.8255">
        <ele>119.97</ele>
        <time>2019-05-26T10:27:52.000Z</time>
      </trkpt>
      <trkpt lat="45.07671" lon="4.82533">
        <ele>117.28</ele>
        <time>2019-05-26T10:27:57.000Z</time>
      </trkpt>
      <trkpt lat="45.07649" lon="4.82519">
        <ele>116.28</ele>
        <time>2019-05-26T10:28:02.000Z</time>
      </trkpt>
      <trkpt lat="45.07624" lon="4.82499">
        <ele>117.88</ele>
        <time>2019-05-26T10:28:07.000Z</time>
      </trkpt>
      <trkpt lat="45.07601" lon="4.82481">
        <ele>118.45</ele>
        <time>2019-05-26T10:28:12.000Z</time>
      </trkpt>
      <trkpt lat="45.07583" lon="4.82456">
        <ele>120.43</ele>
        <time>2019-05-26T10:28:17.000Z</time>
      </trkpt>
      <trkpt lat="45.07591" lon="4.82427">
        <ele>121.19</ele>
        <time>2019-05-26T10:28:22.000Z</time>
      </trkpt>
      <trkpt lat="45.07606" lon="4.82402">
        <ele>123.44</ele>
        <time>2019-05-26T10:28:27.000Z</time>
      </trkpt>
      <trkpt lat="45.0762" lon="4.82369">
        <ele>122</ele>
        <time>2019-05-26T10:28:32.000Z</time>
      </trkpt>
      <trkpt lat="45.07632" lon="4.82332">
        <ele>121.39</ele>
        <time>2019-05-26T10:28:37.000Z</time>
      </trkpt>
      <trkpt lat="45.07643" lon="4.82299">
        <ele>121.45</ele>
        <time>2019-05-26T10:28:42.000Z</time>
      </trkpt>
      <trkpt lat="45.07659" lon="4.82273">
        <ele>122.95</ele>
        <time>2019-05-26T10:28:47.000Z</time>
      </trkpt>
      <trkpt lat="45.07676" lon="4.82253">
        <ele>124.18</ele>
        <time>2019-05-26T10:28:52.000Z</time>
      </trkpt>
      <trkpt lat="45.07687" lon="4.82238">
        <ele>125.25</ele>
        <time>2019-05-26T10:28:57.000Z</time>
      </trkpt>
      <trkpt lat="45.07684" lon="4.82225">
        <ele>128.2</ele>
        <time>2019-05-26T10:29:02.000Z</time>
      </trkpt>
      <trkpt lat="45.07677" lon="4.82205">
        <ele>127.2</ele>
        <time>2019-05-26T10:29:07.000Z</time>
      </trkpt>
      <trkpt lat="45.07671" lon="4.82178">
        <ele>127.19</ele>
        <time>2019-05-26T10:29:12.000Z</time>
      </trkpt>
      <trkpt lat="45.07664" lon="4.82151">
        <ele>127.2</ele>
        <time>2019-05-26T10:29:17.000Z</time>
      </trkpt>
      <trkpt lat="45.07656" lon="4.8212">
        <ele>126.4</ele>
        <time>2019-05-26T10:29:22.000Z</time>
      </trkpt>
      <trkpt lat="45.07648" lon="4.82087">
        <ele>128.18</ele>
        <time>2019-05-26T10:29:27.000Z</time>
      </trkpt>
      <trkpt lat="45.0764" lon="4.82056">
        <ele>127.2</ele>
        <time>2019-05-26T10:29:32.000Z</time>
      </trkpt>
      <trkpt lat="45.07632" lon="4.82024">
        <ele>127.01</ele>
        <time>2019-05-26T10:29:37.000Z</time>
      </trkpt>
      <trkpt lat="45.07623" lon="4.8199">
        <ele>125.26</ele>
        <time>2019-05-26T10:29:42.000Z</time>
      </trkpt>
      <trkpt lat="45.07614" lon="4.81958">
        <ele>125.2</ele>
        <time>2019-05-26T10:29:47.000Z</time>
      </trkpt>
      <trkpt lat="45.07605" lon="4.81926">
        <ele>126.19</ele>
        <time>2019-05-26T10:29:52.000Z</time>
      </trkpt>
      <trkpt lat="45.07596" lon="4.81894">
        <ele>126.2</ele>
        <time>2019-05-26T10:29:57.000Z</time>
      </trkpt>
      <trkpt lat="45.07588" lon="4.81862">
        <ele>125.45</ele>
        <time>2019-05-26T10:30:02.000Z</time>
      </trkpt>
      <trkpt lat="45.0758" lon="4.81829">
        <ele>125.19</ele>
        <time>2019-05-26T10:30:07.000Z</time>
      </trkpt>
      <trkpt lat="45.07571" lon="4.81796">
        <ele>125.19</ele>
        <time>2019-05-26T10:30:12.000Z</time>
      </trkpt>
      <trkpt lat="45.07562" lon="4.81764">
        <ele>124.4</ele>
        <time>2019-05-26T10:30:17.000Z</time>
      </trkpt>
      <trkpt lat="45.07552" lon="4.81731">
        <ele>124.19</ele>
        <time>2019-05-26T10:30:22.000Z</time>
      </trkpt>
      <trkpt lat="45.07544" lon="4.81701">
        <ele>124.2</ele>
        <time>2019-05-26T10:30:27.000Z</time>
      </trkpt>
      <trkpt lat="45.07535" lon="4.81674">
        <ele>124.19</ele>
        <time>2019-05-26T10:30:32.000Z</time>
      </trkpt>
      <trkpt lat="45.07529" lon="4.81657">
        <ele>126.17</ele>
        <time>2019-05-26T10:30:37.000Z</time>
      </trkpt>
      <trkpt lat="45.0752" lon="4.81651">
        <ele>129.12</ele>
        <time>2019-05-26T10:30:42.000Z</time>
      </trkpt>
      <trkpt lat="45.07508" lon="4.81661">
        <ele>129.94</ele>
        <time>2019-05-26T10:30:47.000Z</time>
      </trkpt>
      <trkpt lat="45.07493" lon="4.81671">
        <ele>129.39</ele>
        <time>2019-05-26T10:30:52.000Z</time>
      </trkpt>
      <trkpt lat="45.07474" lon="4.81687">
        <ele>129.2</ele>
        <time>2019-05-26T10:30:57.000Z</time>
      </trkpt>
      <trkpt lat="45.07454" lon="4.81702">
        <ele>128.44</ele>
        <time>2019-05-26T10:31:02.000Z</time>
      </trkpt>
      <trkpt lat="45.07433" lon="4.81717">
        <ele>128.25</ele>
        <time>2019-05-26T10:31:07.000Z</time>
      </trkpt>
      <trkpt lat="45.07411" lon="4.81735">
        <ele>128.2</ele>
        <time>2019-05-26T10:32:00.000Z</time>
      </trkpt>
      <trkpt lat="45.0739" lon="4.81757">
        <ele>129.18</ele>
        <time>2019-05-26T10:32:05.000Z</time>
      </trkpt>
      <trkpt lat="45.07374" lon="4.81786">
        <ele>128.26</ele>
        <time>2019-05-26T10:32:10.000Z</time>
      </trkpt>
      <trkpt lat="45.07361" lon="4.81822">
        <ele>127.19</ele>
        <time>2019-05-26T10:32:15.000Z</time>
      </trkpt>
      <trkpt lat="45.0735" lon="4.81859">
        <ele>126.95</ele>
        <time>2019-05-26T10:32:20.000Z</time>
      </trkpt>
      <trkpt lat="45.07341" lon="4.81896">
        <ele>127.19</ele>
        <time>2019-05-26T10:32:25.000Z</time>
      </trkpt>
      <trkpt lat="45.07331" lon="4.81933">
        <ele>126.2</ele>
        <time>2019-05-26T10:32:30.000Z</time>
      </trkpt>
      <trkpt lat="45.07318" lon="4.81971">
        <ele>125.94</ele>
        <time>2019-05-26T10:32:35.000Z</time>
      </trkpt>
      <trkpt lat="45.07306" lon="4.82009">
        <ele>126.13</ele>
        <time>2019-05-26T10:32:40.000Z</time>
      </trkpt>
      <trkpt lat="45.07293" lon="4.82048">
        <ele>126.19</ele>
        <time>2019-05-26T10:32:45.000Z</time>
      </trkpt>
      <trkpt lat="45.07282" lon="4.82085">
        <ele>126.18</ele>
        <time>2019-05-26T10:32:50.000Z</time>
      </trkpt>
      <trkpt lat="45.07272" lon="4.82119">
        <ele>127</ele>
        <time>2019-05-26T10:32:55.000Z</time>
      </trkpt>
      <trkpt lat="45.07263" lon="4.82148">
        <ele>127.19</ele>
        <time>2019-05-26T10:33:34.000Z</time>
      </trkpt>
      <trkpt lat="45.07258" lon="4.82175">
        <ele>127.19</ele>
        <time>2019-05-26T10:33:39.000Z</time>
      </trkpt>
      <trkpt lat="45.07264" lon="4.82196">
        <ele>128.13</ele>
        <time>2019-05-26T10:33:44.000Z</time>
      </trkpt>
      <trkpt lat="45.07269" lon="4.8221">
        <ele>127.2</ele>
        <time>2019-05-26T10:33:49.000Z</time>
      </trkpt>
      <trkpt lat="45.07268" lon="4.82232">
        <ele>127.2</ele>
        <time>2019-05-26T10:33:54.000Z</time>
      </trkpt>
      <trkpt lat="45.07277" lon="4.82249">
        <ele>127.18</ele>
        <time>2019-05-26T10:33:59.000Z</time>
      </trkpt>
      <trkpt lat="45.07284" lon="4.82272">
        <ele>127.2</ele>
        <time>2019-05-26T10:34:10.000Z</time>
      </trkpt>
      <trkpt lat="45.07288" lon="4.82299">
        <ele>127.18</ele>
        <time>2019-05-26T10:34:15.000Z</time>
      </trkpt>
      <trkpt lat="45.07289" lon="4.82332">
        <ele>127.2</ele>
        <time>2019-05-26T10:34:21.000Z</time>
      </trkpt>
      <trkpt lat="45.07288" lon="4.82365">
        <ele>127.2</ele>
        <time>2019-05-26T10:34:26.000Z</time>
      </trkpt>
      <trkpt lat="45.07286" lon="4.82398">
        <ele>126.21</ele>
        <time>2019-05-26T10:34:31.000Z</time>
      </trkpt>
      <trkpt lat="45.07283" lon="4.82436">
        <ele>127.15</ele>
        <time>2019-05-26T10:34:37.000Z</time>
      </trkpt>
      <trkpt lat="45.07276" lon="4.82472">
        <ele>126.2</ele>
        <time>2019-05-26T10:34:42.000Z</time>
      </trkpt>
      <trkpt lat="45.07268" lon="4.82508">
        <ele>125.95</ele>
        <time>2019-05-26T10:34:47.000Z</time>
      </trkpt>
      <trkpt lat="45.07258" lon="4.82544">
        <ele>124.26</ele>
        <time>2019-05-26T10:34:52.000Z</time>
      </trkpt>
      <trkpt lat="45.07246" lon="4.82578">
        <ele>124.21</ele>
        <time>2019-05-26T10:34:57.000Z</time>
      </trkpt>
      <trkpt lat="45.07234" lon="4.82609">
        <ele>123.22</ele>
        <time>2019-05-26T10:35:02.000Z</time>
      </trkpt>
      <trkpt lat="45.07222" lon="4.82638">
        <ele>126.12</ele>
        <time>2019-05-26T10:35:07.000Z</time>
      </trkpt>
      <trkpt lat="45.0721" lon="4.82666">
        <ele>126.95</ele>
        <time>2019-05-26T10:35:12.000Z</time>
      </trkpt>
      <trkpt lat="45.07204" lon="4.82682">
        <ele>127.21</ele>
        <time>2019-05-26T10:35:17.000Z</time>
      </trkpt>
      <trkpt lat="45.07196" lon="4.82698">
        <ele>125.92</ele>
        <time>2019-05-26T10:35:22.000Z</time>
      </trkpt>
      <trkpt lat="45.07182" lon="4.8272">
        <ele>127.95</ele>
        <time>2019-05-26T10:35:27.000Z</time>
      </trkpt>
      <trkpt lat="45.07168" lon="4.82744">
        <ele>127.92</ele>
        <time>2019-05-26T10:35:32.000Z</time>
      </trkpt>
      <trkpt lat="45.07154" lon="4.82766">
        <ele>126.21</ele>
        <time>2019-05-26T10:35:37.000Z</time>
      </trkpt>
      <trkpt lat="45.07135" lon="4.82789">
        <ele>126.21</ele>
        <time>2019-05-26T10:35:42.000Z</time>
      </trkpt>
      <trkpt lat="45.07115" lon="4.82811">
        <ele>126.95</ele>
        <time>2019-05-26T10:35:47.000Z</time>
      </trkpt>
      <trkpt lat="45.07092" lon="4.82832">
        <ele>126.01</ele>
        <time>2019-05-26T10:35:52.000Z</time>
      </trkpt>
      <trkpt lat="45.07076" lon="4.82853">
        <ele>126.2</ele>
        <time>2019-05-26T10:35:57.000Z</time>
      </trkpt>
      <trkpt lat="45.07091" lon="4.82874">
        <ele>128.2</ele>
        <time>2019-05-26T10:36:02.000Z</time>
      </trkpt>
      <trkpt lat="45.07109" lon="4.82897">
        <ele>126.28</ele>
        <time>2019-05-26T10:36:07.000Z</time>
      </trkpt>
      <trkpt lat="45.07111" lon="4.82921">
        <ele>125.45</ele>
        <time>2019-05-26T10:36:56.000Z</time>
      </trkpt>
      <trkpt lat="45.07087" lon="4.82932">
        <ele>121.48</ele>
        <time>2019-05-26T10:37:01.000Z</time>
      </trkpt>
      <trkpt lat="45.0706" lon="4.8295">
        <ele>120.21</ele>
        <time>2019-05-26T10:37:06.000Z</time>
      </trkpt>
      <trkpt lat="45.07037" lon="4.82972">
        <ele>121.2</ele>
        <time>2019-05-26T10:37:24.000Z</time>
      </trkpt>
      <trkpt lat="45.07014" lon="4.82997">
        <ele>123.19</ele>
        <time>2019-05-26T10:37:29.000Z</time>
      </trkpt>
      <trkpt lat="45.06994" lon="4.83026">
        <ele>122.97</ele>
        <time>2019-05-26T10:37:34.000Z</time>
      </trkpt>
      <trkpt lat="45.06974" lon="4.83056">
        <ele>123.44</ele>
        <time>2019-05-26T10:37:39.000Z</time>
      </trkpt>
      <trkpt lat="45.06952" lon="4.83086">
        <ele>124</ele>
        <time>2019-05-26T10:37:44.000Z</time>
      </trkpt>
      <trkpt lat="45.06935" lon="4.83119">
        <ele>123.45</ele>
        <time>2019-05-26T10:37:49.000Z</time>
      </trkpt>
      <trkpt lat="45.06918" lon="4.83155">
        <ele>123.26</ele>
        <time>2019-05-26T10:37:54.000Z</time>
      </trkpt>
      <trkpt lat="45.06904" lon="4.83188">
        <ele>123.95</ele>
        <time>2019-05-26T10:37:59.000Z</time>
      </trkpt>
      <trkpt lat="45.06891" lon="4.83211">
        <ele>124.02</ele>
        <time>2019-05-26T10:38:04.000Z</time>
      </trkpt>
      <trkpt lat="45.06882" lon="4.8323">
        <ele>124.39</ele>
        <time>2019-05-26T10:38:09.000Z</time>
      </trkpt>
      <trkpt lat="45.06876" lon="4.83252">
        <ele>122.28</ele>
        <time>2019-05-26T10:38:14.000Z</time>
      </trkpt>
      <trkpt lat="45.06868" lon="4.83281">
        <ele>122.21</ele>
        <time>2019-05-26T10:38:19.000Z</time>
      </trkpt>
      <trkpt lat="45.06859" lon="4.83306">
        <ele>123.16</ele>
        <time>2019-05-26T10:38:24.000Z</time>
      </trkpt>
      <trkpt lat="45.06847" lon="4.83332">
        <ele>123.16</ele>
        <time>2019-05-26T10:38:29.000Z</time>
      </trkpt>
      <trkpt lat="45.06832" lon="4.8336">
        <ele>124.2</ele>
        <time>2019-05-26T10:38:34.000Z</time>
      </trkpt>
      <trkpt lat="45.06816" lon="4.83388">
        <ele>123.22</ele>
        <time>2019-05-26T10:38:39.000Z</time>
      </trkpt>
      <trkpt lat="45.06802" lon="4.83414">
        <ele>122.45</ele>
        <time>2019-05-26T10:38:44.000Z</time>
      </trkpt>
      <trkpt lat="45.06789" lon="4.83438">
        <ele>124.2</ele>
        <time>2019-05-26T10:39:00.000Z</time>
      </trkpt>
      <trkpt lat="45.06785" lon="4.83457">
        <ele>125.89</ele>
        <time>2019-05-26T10:39:05.000Z</time>
      </trkpt>
      <trkpt lat="45.06793" lon="4.8347">
        <ele>126.2</ele>
        <time>2019-05-26T10:39:10.000Z</time>
      </trkpt>
      <trkpt lat="45.06806" lon="4.83479">
        <ele>126.2</ele>
        <time>2019-05-26T10:39:15.000Z</time>
      </trkpt>
      <trkpt lat="45.06816" lon="4.83485">
        <ele>125.95</ele>
        <time>2019-05-26T10:39:23.000Z</time>
      </trkpt>
      <trkpt lat="45.06827" lon="4.83491">
        <ele>126.16</ele>
        <time>2019-05-26T10:39:32.000Z</time>
      </trkpt>
      <trkpt lat="45.06836" lon="4.83499">
        <ele>127.19</ele>
        <time>2019-05-26T10:39:47.000Z</time>
      </trkpt>
      <trkpt lat="45.06846" lon="4.83506">
        <ele>127.15</ele>
        <time>2019-05-26T10:40:19.000Z</time>
      </trkpt>
      <trkpt lat="45.06857" lon="4.83514">
        <ele>126.44</ele>
        <time>2019-05-26T10:40:26.000Z</time>
      </trkpt>
      <trkpt lat="45.06868" lon="4.8352">
        <ele>126.21</ele>
        <time>2019-05-26T10:40:37.000Z</time>
      </trkpt>
      <trkpt lat="45.0688" lon="4.8353">
        <ele>127.19</ele>
        <time>2019-05-26T10:40:42.000Z</time>
      </trkpt>
      <trkpt lat="45.06894" lon="4.83539">
        <ele>126.45</ele>
        <time>2019-05-26T10:40:47.000Z</time>
      </trkpt>
      <trkpt lat="45.06908" lon="4.83549">
        <ele>126.22</ele>
        <time>2019-05-26T10:40:52.000Z</time>
      </trkpt>
      <trkpt lat="45.06923" lon="4.83558">
        <ele>125.22</ele>
        <time>2019-05-26T10:40:57.000Z</time>
      </trkpt>
      <trkpt lat="45.06938" lon="4.83566">
        <ele>124.22</ele>
        <time>2019-05-26T10:41:02.000Z</time>
      </trkpt>
      <trkpt lat="45.06947" lon="4.83575">
        <ele>125.15</ele>
        <time>2019-05-26T10:41:07.000Z</time>
      </trkpt>
      <trkpt lat="45.06957" lon="4.83579">
        <ele>125.21</ele>
        <time>2019-05-26T10:41:12.000Z</time>
      </trkpt>
      <trkpt lat="45.06971" lon="4.83587">
        <ele>126.2</ele>
        <time>2019-05-26T10:41:17.000Z</time>
      </trkpt>
      <trkpt lat="45.06989" lon="4.83597">
        <ele>127.13</ele>
        <time>2019-05-26T10:41:22.000Z</time>
      </trkpt>
      <trkpt lat="45.07007" lon="4.83618">
        <ele>127.15</ele>
        <time>2019-05-26T10:41:27.000Z</time>
      </trkpt>
      <trkpt lat="45.07028" lon="4.83628">
        <ele>123.47</ele>
        <time>2019-05-26T10:41:32.000Z</time>
      </trkpt>
      <trkpt lat="45.07042" lon="4.83635">
        <ele>122.22</ele>
        <time>2019-05-26T10:41:37.000Z</time>
      </trkpt>
      <trkpt lat="45.07049" lon="4.83644">
        <ele>125.23</ele>
        <time>2019-05-26T10:41:42.000Z</time>
      </trkpt>
      <trkpt lat="45.0706" lon="4.83654">
        <ele>124.2</ele>
        <time>2019-05-26T10:41:47.000Z</time>
      </trkpt>
      <trkpt lat="45.07069" lon="4.83661">
        <ele>125.15</ele>
        <time>2019-05-26T10:41:52.000Z</time>
      </trkpt>
      <trkpt lat="45.0708" lon="4.83662">
        <ele>124.96</ele>
        <time>2019-05-26T10:42:27.000Z</time>
      </trkpt>
      <trkpt lat="45.07084" lon="4.83675">
        <ele>125.96</ele>
        <time>2019-05-26T10:42:32.000Z</time>
      </trkpt>
      <trkpt lat="45.07092" lon="4.83684">
        <ele>124.46</ele>
        <time>2019-05-26T10:42:38.000Z</time>
      </trkpt>
      <trkpt lat="45.07101" lon="4.8369">
        <ele>125.2</ele>
        <time>2019-05-26T10:42:43.000Z</time>
      </trkpt>
      <trkpt lat="45.07102" lon="4.8371">
        <ele>123.52</ele>
        <time>2019-05-26T10:42:48.000Z</time>
      </trkpt>
      <trkpt lat="45.07096" lon="4.83733">
        <ele>124.2</ele>
        <time>2019-05-26T10:42:53.000Z</time>
      </trkpt>
      <trkpt lat="45.07098" lon="4.83751">
        <ele>125.02</ele>
        <time>2019-05-26T10:42:58.000Z</time>
      </trkpt>
      <trkpt lat="45.07111" lon="4.83755">
        <ele>125.21</ele>
        <time>2019-05-26T10:43:03.000Z</time>
      </trkpt>
      <trkpt lat="45.07125" lon="4.83761">
        <ele>124.66</ele>
        <time>2019-05-26T10:44:48.000Z</time>
      </trkpt>
      <trkpt lat="45.07134" lon="4.83773">
        <ele>121.53</ele>
        <time>2019-05-26T10:44:57.000Z</time>
      </trkpt>
      <trkpt lat="45.07129" lon="4.83804">
        <ele>120.97</ele>
        <time>2019-05-26T10:45:02.000Z</time>
      </trkpt>
      <trkpt lat="45.07125" lon="4.83837">
        <ele>120.27</ele>
        <time>2019-05-26T10:45:07.000Z</time>
      </trkpt>
      <trkpt lat="45.07121" lon="4.83869">
        <ele>120.98</ele>
        <time>2019-05-26T10:45:13.000Z</time>
      </trkpt>
      <trkpt lat="45.07118" lon="4.839">
        <ele>121.21</ele>
        <time>2019-05-26T11:12:46.000Z</time>
      </trkpt>
      <trkpt lat="45.07114" lon="4.83925">
        <ele>122.96</ele>
        <time>2019-05-26T11:13:10.000Z</time>
      </trkpt>
      <trkpt lat="45.07107" lon="4.83933">
        <ele>127.89</ele>
        <time>2019-05-26T11:13:37.000Z</time>
      </trkpt>
      <trkpt lat="45.07088" lon="4.8393">
        <ele>127.71</ele>
        <time>2019-05-26T11:15:26.000Z</time>
      </trkpt>
      <trkpt lat="45.07066" lon="4.83922">
        <ele>125.53</ele>
        <time>2019-05-26T11:15:31.000Z</time>
      </trkpt>
      <trkpt lat="45.07042" lon="4.83916">
        <ele>124.46</ele>
        <time>2019-05-26T11:15:36.000Z</time>
      </trkpt>
      <trkpt lat="45.07018" lon="4.83907">
        <ele>126.15</ele>
        <time>2019-05-26T11:15:41.000Z</time>
      </trkpt>
      <trkpt lat="45.07001" lon="4.83904">
        <ele>126.96</ele>
        <time>2019-05-26T11:15:46.000Z</time>
      </trkpt>
      <trkpt lat="45.06992" lon="4.83899">
        <ele>124.23</ele>
        <time>2019-05-26T11:15:51.000Z</time>
      </trkpt>
      <trkpt lat="45.0698" lon="4.83912">
        <ele>121.48</ele>
        <time>2019-05-26T11:15:56.000Z</time>
      </trkpt>
      <trkpt lat="45.06978" lon="4.83927">
        <ele>122.21</ele>
        <time>2019-05-26T11:16:01.000Z</time>
      </trkpt>
      <trkpt lat="45.06979" lon="4.83943">
        <ele>122.88</ele>
        <time>2019-05-26T11:16:06.000Z</time>
      </trkpt>
      <trkpt lat="45.06969" lon="4.83977">
        <ele>122.46</ele>
        <time>2019-05-26T11:16:11.000Z</time>
      </trkpt>
      <trkpt lat="45.0696" lon="4.84012">
        <ele>122.23</ele>
        <time>2019-05-26T11:16:16.000Z</time>
      </trkpt>
      <trkpt lat="45.06951" lon="4.84044">
        <ele>122.21</ele>
        <time>2019-05-26T11:16:21.000Z</time>
      </trkpt>
      <trkpt lat="45.06942" lon="4.84079">
        <ele>121.46</ele>
        <time>2019-05-26T11:16:26.000Z</time>
      </trkpt>
      <trkpt lat="45.06932" lon="4.84114">
        <ele>122.15</ele>
        <time>2019-05-26T11:16:31.000Z</time>
      </trkpt>
      <trkpt lat="45.06923" lon="4.84147">
        <ele>122.21</ele>
        <time>2019-05-26T11:16:36.000Z</time>
      </trkpt>
      <trkpt lat="45.06913" lon="4.84179">
        <ele>121.23</ele>
        <time>2019-05-26T11:16:41.000Z</time>
      </trkpt>
      <trkpt lat="45.06903" lon="4.84215">
        <ele>122.15</ele>
        <time>2019-05-26T11:16:46.000Z</time>
      </trkpt>
      <trkpt lat="45.06892" lon="4.84252">
        <ele>122.97</ele>
        <time>2019-05-26T11:16:51.000Z</time>
      </trkpt>
      <trkpt lat="45.06882" lon="4.84292">
        <ele>121.29</ele>
        <time>2019-05-26T11:16:56.000Z</time>
      </trkpt>
      <trkpt lat="45.06873" lon="4.84326">
        <ele>119.47</ele>
        <time>2019-05-26T11:17:13.000Z</time>
      </trkpt>
      <trkpt lat="45.06868" lon="4.8435">
        <ele>123.84</ele>
        <time>2019-05-26T11:17:18.000Z</time>
      </trkpt>
      <trkpt lat="45.06858" lon="4.84381">
        <ele>124.28</ele>
        <time>2019-05-26T11:17:42.000Z</time>
      </trkpt>
      <trkpt lat="45.06848" lon="4.84415">
        <ele>123.28</ele>
        <time>2019-05-26T11:17:47.000Z</time>
      </trkpt>
      <trkpt lat="45.06838" lon="4.84449">
        <ele>122.22</ele>
        <time>2019-05-26T11:17:52.000Z</time>
      </trkpt>
      <trkpt lat="45.06833" lon="4.84468">
        <ele>121.22</ele>
        <time>2019-05-26T11:17:57.000Z</time>
      </trkpt>
      <trkpt lat="45.06836" lon="4.84456">
        <ele>122.22</ele>
        <time>2019-05-26T11:18:02.000Z</time>
      </trkpt>
      <trkpt lat="45.06841" lon="4.84442">
        <ele>122.96</ele>
        <time>2019-05-26T11:18:07.000Z</time>
      </trkpt>
      <trkpt lat="45.06845" lon="4.84429">
        <ele>122.41</ele>
        <time>2019-05-26T11:18:12.000Z</time>
      </trkpt>
      <trkpt lat="45.06849" lon="4.84417">
        <ele>123.21</ele>
        <time>2019-05-26T11:18:17.000Z</time>
      </trkpt>
      <trkpt lat="45.06852" lon="4.84404">
        <ele>123.21</ele>
        <time>2019-05-26T11:18:22.000Z</time>
      </trkpt>
      <trkpt lat="45.06854" lon="4.84391">
        <ele>121.28</ele>
        <time>2019-05-26T11:18:27.000Z</time>
      </trkpt>
      <trkpt lat="45.06854" lon="4.84377">
        <ele>117.93</ele>
        <time>2019-05-26T11:18:32.000Z</time>
      </trkpt>
      <trkpt lat="45.06855" lon="4.84363">
        <ele>122.21</ele>
        <time>2019-05-26T11:18:37.000Z</time>
      </trkpt>
      <trkpt lat="45.06861" lon="4.84352">
        <ele>124.19</ele>
        <time>2019-05-26T11:18:42.000Z</time>
      </trkpt>
      <trkpt lat="45.06871" lon="4.84355">
        <ele>125.28</ele>
        <time>2019-05-26T11:18:47.000Z</time>
      </trkpt>
      <trkpt lat="45.06886" lon="4.84355">
        <ele>126.21</ele>
        <time>2019-05-26T11:18:52.000Z</time>
      </trkpt>
      <trkpt lat="45.06905" lon="4.84354">
        <ele>125.17</ele>
        <time>2019-05-26T11:19:12.000Z</time>
      </trkpt>
      <trkpt lat="45.06925" lon="4.84352">
        <ele>125.22</ele>
        <time>2019-05-26T11:19:21.000Z</time>
      </trkpt>
      <trkpt lat="45.06947" lon="4.84349">
        <ele>125.26</ele>
        <time>2019-05-26T11:19:26.000Z</time>
      </trkpt>
      <trkpt lat="45.06971" lon="4.84347">
        <ele>125.97</ele>
        <time>2019-05-26T11:19:31.000Z</time>
      </trkpt>
      <trkpt lat="45.06994" lon="4.84346">
        <ele>126.21</ele>
        <time>2019-05-26T11:19:36.000Z</time>
      </trkpt>
      <trkpt lat="45.07015" lon="4.84344">
        <ele>126.2</ele>
        <time>2019-05-26T11:19:41.000Z</time>
      </trkpt>
      <trkpt lat="45.07033" lon="4.84352">
        <ele>122.49</ele>
        <time>2019-05-26T11:19:46.000Z</time>
      </trkpt>
      <trkpt lat="45.07034" lon="4.84384">
        <ele>121.24</ele>
        <time>2019-05-26T11:19:51.000Z</time>
      </trkpt>
      <trkpt lat="45.0703" lon="4.84413">
        <ele>120.04</ele>
        <time>2019-05-26T11:19:56.000Z</time>
      </trkpt>
      <trkpt lat="45.07013" lon="4.8442">
        <ele>121.97</ele>
        <time>2019-05-26T11:20:01.000Z</time>
      </trkpt>
      <trkpt lat="45.06988" lon="4.84422">
        <ele>119.3</ele>
        <time>2019-05-26T11:20:06.000Z</time>
      </trkpt>
      <trkpt lat="45.06965" lon="4.84419">
        <ele>120.16</ele>
        <time>2019-05-26T11:20:11.000Z</time>
      </trkpt>
      <trkpt lat="45.06943" lon="4.84422">
        <ele>119.55</ele>
        <time>2019-05-26T11:20:16.000Z</time>
      </trkpt>
      <trkpt lat="45.06934" lon="4.84433">
        <ele>120.16</ele>
        <time>2019-05-26T11:20:21.000Z</time>
      </trkpt>
      <trkpt lat="45.06936" lon="4.84448">
        <ele>119.97</ele>
        <time>2019-05-26T11:20:26.000Z</time>
      </trkpt>
      <trkpt lat="45.06936" lon="4.84463">
        <ele>123.89</ele>
        <time>2019-05-26T11:20:31.000Z</time>
      </trkpt>
      <trkpt lat="45.06928" lon="4.84472">
        <ele>123.28</ele>
        <time>2019-05-26T11:20:36.000Z</time>
      </trkpt>
      <trkpt lat="45.06913" lon="4.84469">
        <ele>123.22</ele>
        <time>2019-05-26T11:20:41.000Z</time>
      </trkpt>
      <trkpt lat="45.06898" lon="4.84469">
        <ele>123.22</ele>
        <time>2019-05-26T11:20:46.000Z</time>
      </trkpt>
      <trkpt lat="45.06887" lon="4.84477">
        <ele>122.28</ele>
        <time>2019-05-26T11:20:51.000Z</time>
      </trkpt>
      <trkpt lat="45.06874" lon="4.8448">
        <ele>121.42</ele>
        <time>2019-05-26T11:20:56.000Z</time>
      </trkpt>
      <trkpt lat="45.06864" lon="4.84474">
        <ele>122.91</ele>
        <time>2019-05-26T11:21:01.000Z</time>
      </trkpt>
      <trkpt lat="45.06867" lon="4.84487">
        <ele>130.16</ele>
        <time>2019-05-26T11:21:06.000Z</time>
      </trkpt>
      <trkpt lat="45.06866" lon="4.84501">
        <ele>125.71</ele>
        <time>2019-05-26T11:21:11.000Z</time>
      </trkpt>
      <trkpt lat="45.06857" lon="4.84503">
        <ele>125.23</ele>
        <time>2019-05-26T11:21:16.000Z</time>
      </trkpt>
      <trkpt lat="45.06847" lon="4.84504">
        <ele>124.89</ele>
        <time>2019-05-26T11:21:21.000Z</time>
      </trkpt>
      <trkpt lat="45.06838" lon="4.84504">
        <ele>126.28</ele>
        <time>2019-05-26T11:21:26.000Z</time>
      </trkpt>
      <trkpt lat="45.07085" lon="4.83635">
        <ele>121.12</ele>
        <time>2019-05-26T11:21:31.000Z</time>
      </trkpt>
      <trkpt lat="45.07088" lon="4.83648">
        <ele>127.13</ele>
        <time>2019-05-26T11:21:36.000Z</time>
      </trkpt>
      <trkpt lat="45.07085" lon="4.8366">
        <ele>133.88</ele>
        <time>2019-05-26T11:21:41.000Z</time>
      </trkpt>
      <trkpt lat="45.07077" lon="4.8367">
        <ele>126.22</ele>
        <time>2019-05-26T11:21:46.000Z</time>
      </trkpt>
      <trkpt lat="45.07071" lon="4.83682">
        <ele>126.21</ele>
        <time>2019-05-26T11:21:51.000Z</time>
      </trkpt>
      <trkpt lat="45.07053" lon="4.83674">
        <ele>125.7</ele>
        <time>2019-05-26T11:21:56.000Z</time>
      </trkpt>
      <trkpt lat="45.07042" lon="4.83668">
        <ele>126.44</ele>
        <time>2019-05-26T11:22:01.000Z</time>
      </trkpt>
      <trkpt lat="45.07035" lon="4.83688">
        <ele>123.78</ele>
        <time>2019-05-26T11:22:06.000Z</time>
      </trkpt>
      <trkpt lat="45.07031" lon="4.83722">
        <ele>123.97</ele>
        <time>2019-05-26T11:22:11.000Z</time>
      </trkpt>
      <trkpt lat="45.07026" lon="4.8376">
        <ele>124.26</ele>
        <time>2019-05-26T11:22:16.000Z</time>
      </trkpt>
      <trkpt lat="45.07021" lon="4.83798">
        <ele>124.21</ele>
        <time>2019-05-26T11:22:21.000Z</time>
      </trkpt>
      <trkpt lat="45.07012" lon="4.83834">
        <ele>123.21</ele>
        <time>2019-05-26T11:22:26.000Z</time>
      </trkpt>
      <trkpt lat="45.07003" lon="4.83871">
        <ele>122.23</ele>
        <time>2019-05-26T11:22:31.000Z</time>
      </trkpt>
      <trkpt lat="45.06992" lon="4.83908">
        <ele>122.21</ele>
        <time>2019-05-26T11:22:36.000Z</time>
      </trkpt>
      <trkpt lat="45.0698" lon="4.83945">
        <ele>121.46</ele>
        <time>2019-05-26T11:22:41.000Z</time>
      </trkpt>
      <trkpt lat="45.06968" lon="4.83985">
        <ele>121.16</ele>
        <time>2019-05-26T11:22:46.000Z</time>
      </trkpt>
      <trkpt lat="45.06956" lon="4.84022">
        <ele>120.46</ele>
        <time>2019-05-26T11:22:51.000Z</time>
      </trkpt>
      <trkpt lat="45.06947" lon="4.84061">
        <ele>120.2</ele>
        <time>2019-05-26T11:22:56.000Z</time>
      </trkpt>
      <trkpt lat="45.06938" lon="4.84103">
        <ele>121.2</ele>
        <time>2019-05-26T11:23:01.000Z</time>
      </trkpt>
      <trkpt lat="45.0693" lon="4.84137">
        <ele>120.28</ele>
        <time>2019-05-26T11:23:06.000Z</time>
      </trkpt>
      <trkpt lat="45.06921" lon="4.84159">
        <ele>120.46</ele>
        <time>2019-05-26T11:23:11.000Z</time>
      </trkpt>
      <trkpt lat="45.06914" lon="4.84172">
        <ele>122.14</ele>
        <time>2019-05-26T11:23:16.000Z</time>
      </trkpt>
      <trkpt lat="45.06908" lon="4.84184">
        <ele>123.22</ele>
        <time>2019-05-26T11:23:21.000Z</time>
      </trkpt>
      <trkpt lat="45.06905" lon="4.84197">
        <ele>123.16</ele>
        <time>2019-05-26T11:23:26.000Z</time>
      </trkpt>
      <trkpt lat="45.06903" lon="4.84212">
        <ele>123.27</ele>
        <time>2019-05-26T11:23:31.000Z</time>
      </trkpt>
      <trkpt lat="45.06893" lon="4.84248">
        <ele>123.22</ele>
        <time>2019-05-26T11:23:36.000Z</time>
      </trkpt>
      <trkpt lat="45.06882" lon="4.84287">
        <ele>122.22</ele>
        <time>2019-05-26T11:23:41.000Z</time>
      </trkpt>
      <trkpt lat="45.06871" lon="4.84328">
        <ele>121.28</ele>
        <time>2019-05-26T11:23:46.000Z</time>
      </trkpt>
      <trkpt lat="45.06859" lon="4.84371">
        <ele>120.47</ele>
        <time>2019-05-26T11:23:51.000Z</time>
      </trkpt>
      <trkpt lat="45.06846" lon="4.84414">
        <ele>119.47</ele>
        <time>2019-05-26T11:23:56.000Z</time>
      </trkpt>
      <trkpt lat="45.06835" lon="4.8446">
        <ele>119.23</ele>
        <time>2019-05-26T11:24:01.000Z</time>
      </trkpt>
      <trkpt lat="45.06823" lon="4.84507">
        <ele>120.16</ele>
        <time>2019-05-26T11:24:06.000Z</time>
      </trkpt>
      <trkpt lat="45.0681" lon="4.84552">
        <ele>120.22</ele>
        <time>2019-05-26T11:24:11.000Z</time>
      </trkpt>
      <trkpt lat="45.06798" lon="4.84599">
        <ele>120.22</ele>
        <time>2019-05-26T11:24:16.000Z</time>
      </trkpt>
      <trkpt lat="45.06788" lon="4.84638">
        <ele>119.28</ele>
        <time>2019-05-26T11:24:21.000Z</time>
      </trkpt>
      <trkpt lat="45.06776" lon="4.84674">
        <ele>119.22</ele>
        <time>2019-05-26T11:24:26.000Z</time>
      </trkpt>
      <trkpt lat="45.06768" lon="4.84705">
        <ele>118.03</ele>
        <time>2019-05-26T11:24:31.000Z</time>
      </trkpt>
      <trkpt lat="45.06759" lon="4.84734">
        <ele>117.22</ele>
        <time>2019-05-26T11:24:36.000Z</time>
      </trkpt>
      <trkpt lat="45.06753" lon="4.84756">
        <ele>117.17</ele>
        <time>2019-05-26T11:24:41.000Z</time>
      </trkpt>
      <trkpt lat="45.0675" lon="4.84769">
        <ele>118.96</ele>
        <time>2019-05-26T11:24:46.000Z</time>
      </trkpt>
      <trkpt lat="45.06755" lon="4.84753">
        <ele>122.16</ele>
        <time>2019-05-26T11:24:51.000Z</time>
      </trkpt>
      <trkpt lat="45.06761" lon="4.84726">
        <ele>121.22</ele>
        <time>2019-05-26T11:24:56.000Z</time>
      </trkpt>
      <trkpt lat="45.06769" lon="4.84699">
        <ele>121.16</ele>
        <time>2019-05-26T11:25:01.000Z</time>
      </trkpt>
      <trkpt lat="45.06777" lon="4.84671">
        <ele>121.47</ele>
        <time>2019-05-26T11:25:06.000Z</time>
      </trkpt>
      <trkpt lat="45.06784" lon="4.84646">
        <ele>121.22</ele>
        <time>2019-05-26T11:25:11.000Z</time>
      </trkpt>
      <trkpt lat="45.0678" lon="4.84625">
        <ele>122.89</ele>
        <time>2019-05-26T11:25:16.000Z</time>
      </trkpt>
      <trkpt lat="45.06787" lon="4.84601">
        <ele>122.22</ele>
        <time>2019-05-26T11:25:21.000Z</time>
      </trkpt>
      <trkpt lat="45.06795" lon="4.84577">
        <ele>122.21</ele>
        <time>2019-05-26T11:25:26.000Z</time>
      </trkpt>
      <trkpt lat="45.06791" lon="4.84558">
        <ele>122.23</ele>
        <time>2019-05-26T11:25:31.000Z</time>
      </trkpt>
      <trkpt lat="45.0677" lon="4.84548">
        <ele>123.16</ele>
        <time>2019-05-26T11:25:36.000Z</time>
      </trkpt>
      <trkpt lat="45.0675" lon="4.84539">
        <ele>122.23</ele>
        <time>2019-05-26T11:25:41.000Z</time>
      </trkpt>
      <trkpt lat="45.06735" lon="4.8452">
        <ele>123.22</ele>
        <time>2019-05-26T11:25:46.000Z</time>
      </trkpt>
      <trkpt lat="45.06716" lon="4.84515">
        <ele>122.47</ele>
        <time>2019-05-26T11:25:51.000Z</time>
      </trkpt>
      <trkpt lat="45.06706" lon="4.84533">
        <ele>123.22</ele>
        <time>2019-05-26T11:25:56.000Z</time>
      </trkpt>
      <trkpt lat="45.06701" lon="4.84561">
        <ele>123.17</ele>
        <time>2019-05-26T11:26:01.000Z</time>
      </trkpt>
      <trkpt lat="45.06698" lon="4.8459">
        <ele>123.2</ele>
        <time>2019-05-26T11:26:06.000Z</time>
      </trkpt>
      <trkpt lat="45.06695" lon="4.84622">
        <ele>123.22</ele>
        <time>2019-05-26T11:26:11.000Z</time>
      </trkpt>
      <trkpt lat="45.0669" lon="4.84657">
        <ele>123.97</ele>
        <time>2019-05-26T11:26:16.000Z</time>
      </trkpt>
      <trkpt lat="45.06685" lon="4.84692">
        <ele>123.23</ele>
        <time>2019-05-26T11:26:21.000Z</time>
      </trkpt>
      <trkpt lat="45.0668" lon="4.8473">
        <ele>121.22</ele>
        <time>2019-05-26T11:26:26.000Z</time>
      </trkpt>
      <trkpt lat="45.06675" lon="4.8477">
        <ele>121.22</ele>
        <time>2019-05-26T11:26:31.000Z</time>
      </trkpt>
      <trkpt lat="45.0667" lon="4.84811">
        <ele>120.47</ele>
        <time>2019-05-26T11:26:36.000Z</time>
      </trkpt>
      <trkpt lat="45.06665" lon="4.84849">
        <ele>120.41</ele>
        <time>2019-05-26T11:26:41.000Z</time>
      </trkpt>
      <trkpt lat="45.06661" lon="4.84891">
        <ele>120.22</ele>
        <time>2019-05-26T11:26:46.000Z</time>
      </trkpt>
      <trkpt lat="45.06656" lon="4.8493">
        <ele>121.21</ele>
        <time>2019-05-26T11:26:51.000Z</time>
      </trkpt>
      <trkpt lat="45.06651" lon="4.84969">
        <ele>120.27</ele>
        <time>2019-05-26T11:26:56.000Z</time>
      </trkpt>
      <trkpt lat="45.06645" lon="4.85009">
        <ele>120.27</ele>
        <time>2019-05-26T11:27:01.000Z</time>
      </trkpt>
      <trkpt lat="45.06638" lon="4.85047">
        <ele>119.23</ele>
        <time>2019-05-26T11:27:06.000Z</time>
      </trkpt>
      <trkpt lat="45.0663" lon="4.85085">
        <ele>119.22</ele>
        <time>2019-05-26T11:27:11.000Z</time>
      </trkpt>
      <trkpt lat="45.06622" lon="4.8512">
        <ele>118.98</ele>
        <time>2019-05-26T11:27:16.000Z</time>
      </trkpt>
      <trkpt lat="45.06612" lon="4.85156">
        <ele>118.22</ele>
        <time>2019-05-26T11:27:21.000Z</time>
      </trkpt>
      <trkpt lat="45.06601" lon="4.85193">
        <ele>118.22</ele>
        <time>2019-05-26T11:27:26.000Z</time>
      </trkpt>
      <trkpt lat="45.0659" lon="4.85231">
        <ele>119.16</ele>
        <time>2019-05-26T11:27:31.000Z</time>
      </trkpt>
      <trkpt lat="45.06578" lon="4.85269">
        <ele>118.47</ele>
        <time>2019-05-26T11:27:36.000Z</time>
      </trkpt>
      <trkpt lat="45.06566" lon="4.85307">
        <ele>119.22</ele>
        <time>2019-05-26T11:27:41.000Z</time>
      </trkpt>
      <trkpt lat="45.06554" lon="4.85344">
        <ele>119.97</ele>
        <time>2019-05-26T11:27:46.000Z</time>
      </trkpt>
      <trkpt lat="45.06541" lon="4.85381">
        <ele>119.23</ele>
        <time>2019-05-26T11:27:51.000Z</time>
      </trkpt>
      <trkpt lat="45.06528" lon="4.85416">
        <ele>116.54</ele>
        <time>2019-05-26T11:27:56.000Z</time>
      </trkpt>
      <trkpt lat="45.06513" lon="4.85452">
        <ele>117.96</ele>
        <time>2019-05-26T11:28:01.000Z</time>
      </trkpt>
      <trkpt lat="45.06498" lon="4.85486">
        <ele>118.23</ele>
        <time>2019-05-26T11:28:06.000Z</time>
      </trkpt>
      <trkpt lat="45.06483" lon="4.85521">
        <ele>118.23</ele>
        <time>2019-05-26T11:28:11.000Z</time>
      </trkpt>
      <trkpt lat="45.06468" lon="4.85554">
        <ele>119.23</ele>
        <time>2019-05-26T11:28:16.000Z</time>
      </trkpt>
      <trkpt lat="45.06454" lon="4.85589">
        <ele>119.23</ele>
        <time>2019-05-26T11:28:21.000Z</time>
      </trkpt>
      <trkpt lat="45.06436" lon="4.85622">
        <ele>120.16</ele>
        <time>2019-05-26T11:28:26.000Z</time>
      </trkpt>
      <trkpt lat="45.06417" lon="4.85658">
        <ele>118.23</ele>
        <time>2019-05-26T11:28:31.000Z</time>
      </trkpt>
      <trkpt lat="45.06399" lon="4.85692">
        <ele>117.29</ele>
        <time>2019-05-26T11:28:36.000Z</time>
      </trkpt>
      <trkpt lat="45.06382" lon="4.85724">
        <ele>117.23</ele>
        <time>2019-05-26T11:28:41.000Z</time>
      </trkpt>
      <trkpt lat="45.06365" lon="4.85757">
        <ele>118.23</ele>
        <time>2019-05-26T12:17:03.000Z</time>
      </trkpt>
      <trkpt lat="45.06342" lon="4.85785">
        <ele>118.23</ele>
        <time>2019-05-26T12:28:29.000Z</time>
      </trkpt>
      <trkpt lat="45.0632" lon="4.85813">
        <ele>117.29</ele>
        <time>2019-05-26T12:28:34.000Z</time>
      </trkpt>
      <trkpt lat="45.06296" lon="4.85841">
        <ele>117.98</ele>
        <time>2019-05-26T12:28:39.000Z</time>
      </trkpt>
      <trkpt lat="45.06277" lon="4.85864">
        <ele>120.21</ele>
        <time>2019-05-26T12:28:44.000Z</time>
      </trkpt>
      <trkpt lat="45.06257" lon="4.85884">
        <ele>119.3</ele>
        <time>2019-05-26T12:28:49.000Z</time>
      </trkpt>
      <trkpt lat="45.06233" lon="4.85903">
        <ele>118.24</ele>
        <time>2019-05-26T12:28:54.000Z</time>
      </trkpt>
      <trkpt lat="45.06208" lon="4.85925">
        <ele>117.29</ele>
        <time>2019-05-26T12:28:59.000Z</time>
      </trkpt>
      <trkpt lat="45.06182" lon="4.85947">
        <ele>118.23</ele>
        <time>2019-05-26T12:29:04.000Z</time>
      </trkpt>
      <trkpt lat="45.06154" lon="4.85968">
        <ele>118.23</ele>
        <time>2019-05-26T12:29:09.000Z</time>
      </trkpt>
      <trkpt lat="45.06127" lon="4.85989">
        <ele>118.97</ele>
        <time>2019-05-26T12:29:14.000Z</time>
      </trkpt>
      <trkpt lat="45.061" lon="4.8601">
        <ele>119.17</ele>
        <time>2019-05-26T12:29:19.000Z</time>
      </trkpt>
      <trkpt lat="45.06071" lon="4.86029">
        <ele>118.24</ele>
        <time>2019-05-26T12:29:24.000Z</time>
      </trkpt>
      <trkpt lat="45.06041" lon="4.86045">
        <ele>118.23</ele>
        <time>2019-05-26T12:29:29.000Z</time>
      </trkpt>
      <trkpt lat="45.06012" lon="4.86063">
        <ele>118.98</ele>
        <time>2019-05-26T12:29:34.000Z</time>
      </trkpt>
      <trkpt lat="45.05986" lon="4.86079">
        <ele>119.23</ele>
        <time>2019-05-26T12:29:39.000Z</time>
      </trkpt>
      <trkpt lat="45.05955" lon="4.86083">
        <ele>119.41</ele>
        <time>2019-05-26T12:29:44.000Z</time>
      </trkpt>
      <trkpt lat="45.05925" lon="4.86097">
        <ele>119.23</ele>
        <time>2019-05-26T12:29:49.000Z</time>
      </trkpt>
      <trkpt lat="45.05896" lon="4.86113">
        <ele>120.22</ele>
        <time>2019-05-26T12:29:54.000Z</time>
      </trkpt>
      <trkpt lat="45.05865" lon="4.86128">
        <ele>120.23</ele>
        <time>2019-05-26T12:29:59.000Z</time>
      </trkpt>
      <trkpt lat="45.05833" lon="4.86143">
        <ele>120.22</ele>
        <time>2019-05-26T12:30:04.000Z</time>
      </trkpt>
      <trkpt lat="45.05801" lon="4.86158">
        <ele>119.23</ele>
        <time>2019-05-26T12:30:09.000Z</time>
      </trkpt>
      <trkpt lat="45.05767" lon="4.86173">
        <ele>120.21</ele>
        <time>2019-05-26T12:30:14.000Z</time>
      </trkpt>
      <trkpt lat="45.05732" lon="4.86187">
        <ele>121.22</ele>
        <time>2019-05-26T12:30:19.000Z</time>
      </trkpt>
      <trkpt lat="45.05696" lon="4.86197">
        <ele>120.22</ele>
        <time>2019-05-26T12:30:24.000Z</time>
      </trkpt>
      <trkpt lat="45.05659" lon="4.86208">
        <ele>120.18</ele>
        <time>2019-05-26T12:30:29.000Z</time>
      </trkpt>
      <trkpt lat="45.05623" lon="4.86213">
        <ele>121.22</ele>
        <time>2019-05-26T12:30:34.000Z</time>
      </trkpt>
      <trkpt lat="45.05587" lon="4.86217">
        <ele>120.98</ele>
        <time>2019-05-26T12:30:39.000Z</time>
      </trkpt>
      <trkpt lat="45.05549" lon="4.86217">
        <ele>120.23</ele>
        <time>2019-05-26T12:30:44.000Z</time>
      </trkpt>
      <trkpt lat="45.05512" lon="4.86217">
        <ele>120.22</ele>
        <time>2019-05-26T12:30:49.000Z</time>
      </trkpt>
      <trkpt lat="45.05477" lon="4.86214">
        <ele>120.22</ele>
        <time>2019-05-26T12:30:54.000Z</time>
      </trkpt>
      <trkpt lat="45.05442" lon="4.86209">
        <ele>118.48</ele>
        <time>2019-05-26T12:30:59.000Z</time>
      </trkpt>
      <trkpt lat="45.05407" lon="4.862">
        <ele>118.47</ele>
        <time>2019-05-26T12:31:04.000Z</time>
      </trkpt>
      <trkpt lat="45.05373" lon="4.8619">
        <ele>118.45</ele>
        <time>2019-05-26T12:32:03.000Z</time>
      </trkpt>
      <trkpt lat="45.05339" lon="4.86177">
        <ele>118.46</ele>
        <time>2019-05-26T12:32:08.000Z</time>
      </trkpt>
      <trkpt lat="45.05308" lon="4.86163">
        <ele>120.15</ele>
        <time>2019-05-26T12:32:13.000Z</time>
      </trkpt>
      <trkpt lat="45.05277" lon="4.86147">
        <ele>120.22</ele>
        <time>2019-05-26T12:32:18.000Z</time>
      </trkpt>
      <trkpt lat="45.05247" lon="4.86127">
        <ele>120.26</ele>
        <time>2019-05-26T12:32:23.000Z</time>
      </trkpt>
      <trkpt lat="45.05215" lon="4.86109">
        <ele>119.28</ele>
        <time>2019-05-26T12:32:28.000Z</time>
      </trkpt>
      <trkpt lat="45.05184" lon="4.86089">
        <ele>119.23</ele>
        <time>2019-05-26T12:32:33.000Z</time>
      </trkpt>
      <trkpt lat="45.05153" lon="4.8607">
        <ele>119.21</ele>
        <time>2019-05-26T12:32:38.000Z</time>
      </trkpt>
      <trkpt lat="45.05125" lon="4.8605">
        <ele>118.28</ele>
        <time>2019-05-26T12:32:43.000Z</time>
      </trkpt>
      <trkpt lat="45.05097" lon="4.8603">
        <ele>120.15</ele>
        <time>2019-05-26T12:32:48.000Z</time>
      </trkpt>
      <trkpt lat="45.05069" lon="4.86008">
        <ele>120.21</ele>
        <time>2019-05-26T12:32:53.000Z</time>
      </trkpt>
      <trkpt lat="45.0504" lon="4.85986">
        <ele>120.21</ele>
        <time>2019-05-26T12:32:58.000Z</time>
      </trkpt>
      <trkpt lat="45.05013" lon="4.85965">
        <ele>119.21</ele>
        <time>2019-05-26T12:33:03.000Z</time>
      </trkpt>
      <trkpt lat="45.04986" lon="4.85945">
        <ele>119.97</ele>
        <time>2019-05-26T12:33:08.000Z</time>
      </trkpt>
      <trkpt lat="45.04959" lon="4.85924">
        <ele>119.23</ele>
        <time>2019-05-26T12:33:13.000Z</time>
      </trkpt>
      <trkpt lat="45.04934" lon="4.85903">
        <ele>119.21</ele>
        <time>2019-05-26T12:33:18.000Z</time>
      </trkpt>
      <trkpt lat="45.04906" lon="4.85882">
        <ele>120.15</ele>
        <time>2019-05-26T12:33:23.000Z</time>
      </trkpt>
      <trkpt lat="45.0488" lon="4.85859">
        <ele>119.27</ele>
        <time>2019-05-26T12:33:28.000Z</time>
      </trkpt>
      <trkpt lat="45.04855" lon="4.85838">
        <ele>118.4</ele>
        <time>2019-05-26T12:33:33.000Z</time>
      </trkpt>
      <trkpt lat="45.04829" lon="4.85817">
        <ele>118.21</ele>
        <time>2019-05-26T12:33:38.000Z</time>
      </trkpt>
      <trkpt lat="45.04804" lon="4.85794">
        <ele>119.16</ele>
        <time>2019-05-26T12:33:43.000Z</time>
      </trkpt>
      <trkpt lat="45.04779" lon="4.8577">
        <ele>119.21</ele>
        <time>2019-05-26T12:33:48.000Z</time>
      </trkpt>
      <trkpt lat="45.04755" lon="4.85746">
        <ele>119.2</ele>
        <time>2019-05-26T12:33:53.000Z</time>
      </trkpt>
      <trkpt lat="45.04729" lon="4.85723">
        <ele>119.39</ele>
        <time>2019-05-26T12:33:58.000Z</time>
      </trkpt>
      <trkpt lat="45.04706" lon="4.85697">
        <ele>119.97</ele>
        <time>2019-05-26T12:34:03.000Z</time>
      </trkpt>
      <trkpt lat="45.04683" lon="4.85672">
        <ele>119.45</ele>
        <time>2019-05-26T12:34:08.000Z</time>
      </trkpt>
      <trkpt lat="45.0466" lon="4.85647">
        <ele>118.46</ele>
        <time>2019-05-26T12:34:13.000Z</time>
      </trkpt>
      <trkpt lat="45.04638" lon="4.85621">
        <ele>118.2</ele>
        <time>2019-05-26T12:34:18.000Z</time>
      </trkpt>
      <trkpt lat="45.04616" lon="4.85593">
        <ele>117.22</ele>
        <time>2019-05-26T12:34:23.000Z</time>
      </trkpt>
      <trkpt lat="45.04594" lon="4.85564">
        <ele>117.2</ele>
        <time>2019-05-26T12:34:28.000Z</time>
      </trkpt>
      <trkpt lat="45.04573" lon="4.85533">
        <ele>117.2</ele>
        <time>2019-05-26T12:34:33.000Z</time>
      </trkpt>
      <trkpt lat="45.04552" lon="4.85504">
        <ele>118.2</ele>
        <time>2019-05-26T12:34:38.000Z</time>
      </trkpt>
      <trkpt lat="45.04533" lon="4.85477">
        <ele>118.2</ele>
        <time>2019-05-26T12:34:43.000Z</time>
      </trkpt>
      <trkpt lat="45.04542" lon="4.85469">
        <ele>107.45</ele>
        <time>2019-05-26T12:34:48.000Z</time>
      </trkpt>
      <trkpt lat="45.04532" lon="4.85468">
        <ele>113.21</ele>
        <time>2019-05-26T12:34:53.000Z</time>
      </trkpt>
      <trkpt lat="45.04523" lon="4.85455">
        <ele>113.2</ele>
        <time>2019-05-26T12:34:58.000Z</time>
      </trkpt>
      <trkpt lat="45.0451" lon="4.85434">
        <ele>114.38</ele>
        <time>2019-05-26T12:35:03.000Z</time>
      </trkpt>
      <trkpt lat="45.04495" lon="4.85413">
        <ele>114.2</ele>
        <time>2019-05-26T12:35:08.000Z</time>
      </trkpt>
      <trkpt lat="45.04482" lon="4.85391">
        <ele>114.2</ele>
        <time>2019-05-26T12:35:13.000Z</time>
      </trkpt>
      <trkpt lat="45.04466" lon="4.85364">
        <ele>114.38</ele>
        <time>2019-05-26T12:35:18.000Z</time>
      </trkpt>
      <trkpt lat="45.04446" lon="4.85335">
        <ele>114.2</ele>
        <time>2019-05-26T12:35:23.000Z</time>
      </trkpt>
      <trkpt lat="45.04429" lon="4.85305">
        <ele>115.15</ele>
        <time>2019-05-26T12:35:28.000Z</time>
      </trkpt>
      <trkpt lat="45.04408" lon="4.85275">
        <ele>115.94</ele>
        <time>2019-05-26T12:35:33.000Z</time>
      </trkpt>
      <trkpt lat="45.04388" lon="4.85243">
        <ele>115.2</ele>
        <time>2019-05-26T12:35:38.000Z</time>
      </trkpt>
      <trkpt lat="45.04371" lon="4.85208">
        <ele>115.94</ele>
        <time>2019-05-26T12:35:43.000Z</time>
      </trkpt>
      <trkpt lat="45.04352" lon="4.85176">
        <ele>115.19</ele>
        <time>2019-05-26T12:35:48.000Z</time>
      </trkpt>
      <trkpt lat="45.04333" lon="4.85148">
        <ele>115.19</ele>
        <time>2019-05-26T12:35:53.000Z</time>
      </trkpt>
      <trkpt lat="45.04317" lon="4.85121">
        <ele>116.18</ele>
        <time>2019-05-26T12:35:58.000Z</time>
      </trkpt>
      <trkpt lat="45.04302" lon="4.85088">
        <ele>115.44</ele>
        <time>2019-05-26T12:36:03.000Z</time>
      </trkpt>
      <trkpt lat="45.04282" lon="4.85058">
        <ele>115.19</ele>
        <time>2019-05-26T12:36:08.000Z</time>
      </trkpt>
      <trkpt lat="45.04264" lon="4.85027">
        <ele>116.19</ele>
        <time>2019-05-26T12:36:13.000Z</time>
      </trkpt>
      <trkpt lat="45.04246" lon="4.84998">
        <ele>116.19</ele>
        <time>2019-05-26T12:36:18.000Z</time>
      </trkpt>
      <trkpt lat="45.04228" lon="4.84967">
        <ele>116.19</ele>
        <time>2019-05-26T12:36:23.000Z</time>
      </trkpt>
      <trkpt lat="45.04208" lon="4.84937">
        <ele>115.19</ele>
        <time>2019-05-26T12:36:28.000Z</time>
      </trkpt>
      <trkpt lat="45.04185" lon="4.84908">
        <ele>116.12</ele>
        <time>2019-05-26T12:36:33.000Z</time>
      </trkpt>
      <trkpt lat="45.04163" lon="4.8488">
        <ele>118.12</ele>
        <time>2019-05-26T12:36:38.000Z</time>
      </trkpt>
      <trkpt lat="45.04142" lon="4.8485">
        <ele>117.19</ele>
        <time>2019-05-26T12:36:43.000Z</time>
      </trkpt>
      <trkpt lat="45.04121" lon="4.84819">
        <ele>117.18</ele>
        <time>2019-05-26T12:36:48.000Z</time>
      </trkpt>
      <trkpt lat="45.041" lon="4.84789">
        <ele>116.94</ele>
        <time>2019-05-26T12:36:53.000Z</time>
      </trkpt>
      <trkpt lat="45.04079" lon="4.84761">
        <ele>117.18</ele>
        <time>2019-05-26T12:36:58.000Z</time>
      </trkpt>
      <trkpt lat="45.04057" lon="4.84733">
        <ele>116.25</ele>
        <time>2019-05-26T12:37:03.000Z</time>
      </trkpt>
      <trkpt lat="45.04033" lon="4.8471">
        <ele>114.45</ele>
        <time>2019-05-26T12:37:08.000Z</time>
      </trkpt>
      <trkpt lat="45.04013" lon="4.84685">
        <ele>114.18</ele>
        <time>2019-05-26T12:37:13.000Z</time>
      </trkpt>
      <trkpt lat="45.03991" lon="4.84666">
        <ele>114.17</ele>
        <time>2019-05-26T12:37:18.000Z</time>
      </trkpt>
      <trkpt lat="45.0397" lon="4.84648">
        <ele>114.18</ele>
        <time>2019-05-26T12:37:23.000Z</time>
      </trkpt>
      <trkpt lat="45.03957" lon="4.84634">
        <ele>114.17</ele>
        <time>2019-05-26T12:37:28.000Z</time>
      </trkpt>
      <trkpt lat="45.03946" lon="4.84624">
        <ele>117.18</ele>
        <time>2019-05-26T12:37:33.000Z</time>
      </trkpt>
      <trkpt lat="45.03925" lon="4.84605">
        <ele>116.18</ele>
        <time>2019-05-26T12:37:38.000Z</time>
      </trkpt>
      <trkpt lat="45.03904" lon="4.84585">
        <ele>116.18</ele>
        <time>2019-05-26T12:37:43.000Z</time>
      </trkpt>
      <trkpt lat="45.0388" lon="4.84565">
        <ele>116.18</ele>
        <time>2019-05-26T12:37:48.000Z</time>
      </trkpt>
      <trkpt lat="45.03857" lon="4.84546">
        <ele>116.18</ele>
        <time>2019-05-26T12:37:53.000Z</time>
      </trkpt>
      <trkpt lat="45.03834" lon="4.84526">
        <ele>115.24</ele>
        <time>2019-05-26T12:37:58.000Z</time>
      </trkpt>
      <trkpt lat="45.03814" lon="4.84505">
        <ele>114.24</ele>
        <time>2019-05-26T12:38:03.000Z</time>
      </trkpt>
      <trkpt lat="45.03793" lon="4.84486">
        <ele>115.13</ele>
        <time>2019-05-26T12:38:08.000Z</time>
      </trkpt>
      <trkpt lat="45.03769" lon="4.84467">
        <ele>115.91</ele>
        <time>2019-05-26T12:38:13.000Z</time>
      </trkpt>
      <trkpt lat="45.03745" lon="4.84446">
        <ele>115.38</ele>
        <time>2019-05-26T12:38:18.000Z</time>
      </trkpt>
      <trkpt lat="45.03721" lon="4.84424">
        <ele>114.43</ele>
        <time>2019-05-26T12:38:23.000Z</time>
      </trkpt>
      <trkpt lat="45.03699" lon="4.84403">
        <ele>114.17</ele>
        <time>2019-05-26T12:38:28.000Z</time>
      </trkpt>
      <trkpt lat="45.03673" lon="4.84384">
        <ele>113.19</ele>
        <time>2019-05-26T12:38:33.000Z</time>
      </trkpt>
      <trkpt lat="45.03647" lon="4.84364">
        <ele>113.17</ele>
        <time>2019-05-26T12:38:38.000Z</time>
      </trkpt>
      <trkpt lat="45.03622" lon="4.84346">
        <ele>114.11</ele>
        <time>2019-05-26T12:38:43.000Z</time>
      </trkpt>
      <trkpt lat="45.03594" lon="4.84329">
        <ele>114.17</ele>
        <time>2019-05-26T12:38:48.000Z</time>
      </trkpt>
      <trkpt lat="45.03567" lon="4.84313">
        <ele>113.98</ele>
        <time>2019-05-26T12:38:53.000Z</time>
      </trkpt>
      <trkpt lat="45.03539" lon="4.84296">
        <ele>113.92</ele>
        <time>2019-05-26T12:38:58.000Z</time>
      </trkpt>
      <trkpt lat="45.03511" lon="4.84282">
        <ele>114.18</ele>
        <time>2019-05-26T12:39:03.000Z</time>
      </trkpt>
      <trkpt lat="45.03481" lon="4.84269">
        <ele>114.92</ele>
        <time>2019-05-26T12:39:08.000Z</time>
      </trkpt>
      <trkpt lat="45.03451" lon="4.84256">
        <ele>116.15</ele>
        <time>2019-05-26T12:39:13.000Z</time>
      </trkpt>
      <trkpt lat="45.03422" lon="4.84243">
        <ele>115.92</ele>
        <time>2019-05-26T12:39:18.000Z</time>
      </trkpt>
      <trkpt lat="45.03393" lon="4.84232">
        <ele>117.15</ele>
        <time>2019-05-26T12:39:23.000Z</time>
      </trkpt>
      <trkpt lat="45.03363" lon="4.84223">
        <ele>116.17</ele>
        <time>2019-05-26T12:39:28.000Z</time>
      </trkpt>
      <trkpt lat="45.03332" lon="4.84214">
        <ele>115.42</ele>
        <time>2019-05-26T12:39:33.000Z</time>
      </trkpt>
      <trkpt lat="45.03301" lon="4.84206">
        <ele>115.35</ele>
        <time>2019-05-26T12:39:38.000Z</time>
      </trkpt>
      <trkpt lat="45.03268" lon="4.84201">
        <ele>115.18</ele>
        <time>2019-05-26T12:39:43.000Z</time>
      </trkpt>
      <trkpt lat="45.03235" lon="4.84194">
        <ele>116.1</ele>
        <time>2019-05-26T12:39:48.000Z</time>
      </trkpt>
      <trkpt lat="45.03201" lon="4.8419">
        <ele>115.98</ele>
        <time>2019-05-26T12:39:53.000Z</time>
      </trkpt>
      <trkpt lat="45.03166" lon="4.84188">
        <ele>116.16</ele>
        <time>2019-05-26T12:39:58.000Z</time>
      </trkpt>
      <trkpt lat="45.0313" lon="4.84188">
        <ele>115.12</ele>
        <time>2019-05-26T12:40:03.000Z</time>
      </trkpt>
      <trkpt lat="45.03094" lon="4.8419">
        <ele>114.12</ele>
        <time>2019-05-26T12:40:08.000Z</time>
      </trkpt>
      <trkpt lat="45.03058" lon="4.84192">
        <ele>114.16</ele>
        <time>2019-05-26T12:40:13.000Z</time>
      </trkpt>
      <trkpt lat="45.03022" lon="4.84197">
        <ele>114.22</ele>
        <time>2019-05-26T12:40:18.000Z</time>
      </trkpt>
      <trkpt lat="45.02986" lon="4.84204">
        <ele>115.1</ele>
        <time>2019-05-26T12:40:23.000Z</time>
      </trkpt>
      <trkpt lat="45.0295" lon="4.8421">
        <ele>113.41</ele>
        <time>2019-05-26T12:40:28.000Z</time>
      </trkpt>
      <trkpt lat="45.02915" lon="4.84219">
        <ele>113.35</ele>
        <time>2019-05-26T12:40:33.000Z</time>
      </trkpt>
      <trkpt lat="45.02881" lon="4.8423">
        <ele>114.16</ele>
        <time>2019-05-26T12:40:38.000Z</time>
      </trkpt>
      <trkpt lat="45.02847" lon="4.84242">
        <ele>114.17</ele>
        <time>2019-05-26T12:40:43.000Z</time>
      </trkpt>
      <trkpt lat="45.02812" lon="4.84254">
        <ele>115.16</ele>
        <time>2019-05-26T12:40:48.000Z</time>
      </trkpt>
      <trkpt lat="45.02776" lon="4.8427">
        <ele>115.91</ele>
        <time>2019-05-26T12:40:53.000Z</time>
      </trkpt>
      <trkpt lat="45.02742" lon="4.84287">
        <ele>115.22</ele>
        <time>2019-05-26T12:40:58.000Z</time>
      </trkpt>
      <trkpt lat="45.02708" lon="4.84306">
        <ele>115.17</ele>
        <time>2019-05-26T12:41:03.000Z</time>
      </trkpt>
      <trkpt lat="45.02674" lon="4.84325">
        <ele>115.16</ele>
        <time>2019-05-26T12:41:08.000Z</time>
      </trkpt>
      <trkpt lat="45.0264" lon="4.84348">
        <ele>115.85</ele>
        <time>2019-05-26T12:41:13.000Z</time>
      </trkpt>
      <trkpt lat="45.02608" lon="4.84371">
        <ele>115.22</ele>
        <time>2019-05-26T12:41:18.000Z</time>
      </trkpt>
      <trkpt lat="45.02574" lon="4.84398">
        <ele>115.86</ele>
        <time>2019-05-26T12:41:23.000Z</time>
      </trkpt>
      <trkpt lat="45.02541" lon="4.84427">
        <ele>117.14</ele>
        <time>2019-05-26T12:41:28.000Z</time>
      </trkpt>
      <trkpt lat="45.0251" lon="4.84453">
        <ele>115.35</ele>
        <time>2019-05-26T12:41:33.000Z</time>
      </trkpt>
      <trkpt lat="45.0248" lon="4.84483">
        <ele>118.08</ele>
        <time>2019-05-26T12:41:38.000Z</time>
      </trkpt>
      <trkpt lat="45.02451" lon="4.84513">
        <ele>118.98</ele>
        <time>2019-05-26T12:41:43.000Z</time>
      </trkpt>
      <trkpt lat="45.02422" lon="4.84544">
        <ele>118.92</ele>
        <time>2019-05-26T12:41:48.000Z</time>
      </trkpt>
      <trkpt lat="45.02393" lon="4.84571">
        <ele>119.16</ele>
        <time>2019-05-26T12:41:53.000Z</time>
      </trkpt>
      <trkpt lat="45.02365" lon="4.84601">
        <ele>116.5</ele>
        <time>2019-05-26T12:41:58.000Z</time>
      </trkpt>
      <trkpt lat="45.02337" lon="4.84629">
        <ele>115.18</ele>
        <time>2019-05-26T12:42:03.000Z</time>
      </trkpt>
      <trkpt lat="45.0231" lon="4.84654">
        <ele>116.39</ele>
        <time>2019-05-26T12:42:08.000Z</time>
      </trkpt>
      <trkpt lat="45.02285" lon="4.8468">
        <ele>116.16</ele>
        <time>2019-05-26T12:42:13.000Z</time>
      </trkpt>
      <trkpt lat="45.0226" lon="4.84706">
        <ele>115.22</ele>
        <time>2019-05-26T12:42:18.000Z</time>
      </trkpt>
      <trkpt lat="45.02232" lon="4.84733">
        <ele>115.35</ele>
        <time>2019-05-26T12:42:23.000Z</time>
      </trkpt>
      <trkpt lat="45.02205" lon="4.8476">
        <ele>117.9</ele>
        <time>2019-05-26T12:42:28.000Z</time>
      </trkpt>
      <trkpt lat="45.02178" lon="4.84788">
        <ele>117.91</ele>
        <time>2019-05-26T12:42:33.000Z</time>
      </trkpt>
      <trkpt lat="45.0215" lon="4.84816">
        <ele>118.17</ele>
        <time>2019-05-26T12:42:38.000Z</time>
      </trkpt>
      <trkpt lat="45.02123" lon="4.84842">
        <ele>117.17</ele>
        <time>2019-05-26T12:42:43.000Z</time>
      </trkpt>
      <trkpt lat="45.02096" lon="4.84868">
        <ele>118.15</ele>
        <time>2019-05-26T12:42:48.000Z</time>
      </trkpt>
      <trkpt lat="45.0207" lon="4.84894">
        <ele>117.21</ele>
        <time>2019-05-26T12:42:53.000Z</time>
      </trkpt>
      <trkpt lat="45.02042" lon="4.84921">
        <ele>114.3</ele>
        <time>2019-05-26T12:42:58.000Z</time>
      </trkpt>
      <trkpt lat="45.02015" lon="4.84951">
        <ele>117.1</ele>
        <time>2019-05-26T12:43:03.000Z</time>
      </trkpt>
      <trkpt lat="45.01988" lon="4.84978">
        <ele>118.11</ele>
        <time>2019-05-26T12:43:08.000Z</time>
      </trkpt>
      <trkpt lat="45.01962" lon="4.85006">
        <ele>118.1</ele>
        <time>2019-05-26T12:43:13.000Z</time>
      </trkpt>
      <trkpt lat="45.01934" lon="4.85033">
        <ele>118.1</ele>
        <time>2019-05-26T12:43:18.000Z</time>
      </trkpt>
      <trkpt lat="45.01908" lon="4.85061">
        <ele>118.11</ele>
        <time>2019-05-26T12:43:23.000Z</time>
      </trkpt>
      <trkpt lat="45.01882" lon="4.85087">
        <ele>117.17</ele>
        <time>2019-05-26T12:43:28.000Z</time>
      </trkpt>
      <trkpt lat="45.01854" lon="4.85114">
        <ele>118.91</ele>
        <time>2019-05-26T12:43:33.000Z</time>
      </trkpt>
      <trkpt lat="45.01827" lon="4.85142">
        <ele>119.41</ele>
        <time>2019-05-26T12:43:38.000Z</time>
      </trkpt>
      <trkpt lat="45.018" lon="4.85167">
        <ele>119.16</ele>
        <time>2019-05-26T12:43:43.000Z</time>
      </trkpt>
      <trkpt lat="45.01774" lon="4.85192">
        <ele>119.16</ele>
        <time>2019-05-26T12:43:48.000Z</time>
      </trkpt>
      <trkpt lat="45.01747" lon="4.85218">
        <ele>118.22</ele>
        <time>2019-05-26T12:43:53.000Z</time>
      </trkpt>
      <trkpt lat="45.0172" lon="4.85245">
        <ele>118.09</ele>
        <time>2019-05-26T12:43:58.000Z</time>
      </trkpt>
      <trkpt lat="45.01695" lon="4.8527">
        <ele>118.16</ele>
        <time>2019-05-26T12:44:03.000Z</time>
      </trkpt>
      <trkpt lat="45.01671" lon="4.85296">
        <ele>117.17</ele>
        <time>2019-05-26T12:44:08.000Z</time>
      </trkpt>
      <trkpt lat="45.01646" lon="4.85319">
        <ele>117.16</ele>
        <time>2019-05-26T12:44:13.000Z</time>
      </trkpt>
      <trkpt lat="45.0162" lon="4.85343">
        <ele>116.1</ele>
        <time>2019-05-26T12:44:18.000Z</time>
      </trkpt>
      <trkpt lat="45.01596" lon="4.85363">
        <ele>115.41</ele>
        <time>2019-05-26T12:44:23.000Z</time>
      </trkpt>
      <trkpt lat="45.01574" lon="4.85383">
        <ele>116.9</ele>
        <time>2019-05-26T12:44:28.000Z</time>
      </trkpt>
      <trkpt lat="45.01554" lon="4.85401">
        <ele>117.91</ele>
        <time>2019-05-26T12:44:33.000Z</time>
      </trkpt>
      <trkpt lat="45.01531" lon="4.85419">
        <ele>117.16</ele>
        <time>2019-05-26T12:44:38.000Z</time>
      </trkpt>
      <trkpt lat="45.01508" lon="4.85439">
        <ele>115.36</ele>
        <time>2019-05-26T12:44:43.000Z</time>
      </trkpt>
      <trkpt lat="45.01488" lon="4.85452">
        <ele>114.22</ele>
        <time>2019-05-26T12:44:48.000Z</time>
      </trkpt>
      <trkpt lat="45.01474" lon="4.85465">
        <ele>114.16</ele>
        <time>2019-05-26T12:44:53.000Z</time>
      </trkpt>
      <trkpt lat="45.01454" lon="4.8548">
        <ele>115.17</ele>
        <time>2019-05-26T12:44:58.000Z</time>
      </trkpt>
      <trkpt lat="45.0143" lon="4.85497">
        <ele>116.15</ele>
        <time>2019-05-26T12:45:03.000Z</time>
      </trkpt>
      <trkpt lat="45.01402" lon="4.85516">
        <ele>116.2</ele>
        <time>2019-05-26T12:45:08.000Z</time>
      </trkpt>
      <trkpt lat="45.01372" lon="4.85536">
        <ele>118.9</ele>
        <time>2019-05-26T12:45:13.000Z</time>
      </trkpt>
      <trkpt lat="45.0134" lon="4.85557">
        <ele>118.16</ele>
        <time>2019-05-26T12:45:18.000Z</time>
      </trkpt>
      <trkpt lat="45.01306" lon="4.85579">
        <ele>118.15</ele>
        <time>2019-05-26T12:45:23.000Z</time>
      </trkpt>
      <trkpt lat="45.01271" lon="4.85599">
        <ele>116.22</ele>
        <time>2019-05-26T12:45:28.000Z</time>
      </trkpt>
      <trkpt lat="45.01236" lon="4.85617">
        <ele>116.15</ele>
        <time>2019-05-26T12:45:33.000Z</time>
      </trkpt>
      <trkpt lat="45.01199" lon="4.85639">
        <ele>116.15</ele>
        <time>2019-05-26T12:45:38.000Z</time>
      </trkpt>
      <trkpt lat="45.01162" lon="4.85659">
        <ele>116.15</ele>
        <time>2019-05-26T12:45:43.000Z</time>
      </trkpt>
      <trkpt lat="45.01126" lon="4.85681">
        <ele>116.16</ele>
        <time>2019-05-26T12:45:48.000Z</time>
      </trkpt>
      <trkpt lat="45.01088" lon="4.85703">
        <ele>116.15</ele>
        <time>2019-05-26T12:45:53.000Z</time>
      </trkpt>
      <trkpt lat="45.0105" lon="4.85724">
        <ele>115.4</ele>
        <time>2019-05-26T12:45:58.000Z</time>
      </trkpt>
      <trkpt lat="45.01013" lon="4.85745">
        <ele>116.15</ele>
        <time>2019-05-26T12:46:03.000Z</time>
      </trkpt>
      <trkpt lat="45.00973" lon="4.85769">
        <ele>117.15</ele>
        <time>2019-05-26T12:46:08.000Z</time>
      </trkpt>
      <trkpt lat="45.00933" lon="4.85791">
        <ele>115.91</ele>
        <time>2019-05-26T12:46:13.000Z</time>
      </trkpt>
      <trkpt lat="45.00894" lon="4.85814">
        <ele>114.92</ele>
        <time>2019-05-26T12:46:18.000Z</time>
      </trkpt>
      <trkpt lat="45.00854" lon="4.85835">
        <ele>113.96</ele>
        <time>2019-05-26T12:46:23.000Z</time>
      </trkpt>
      <trkpt lat="45.00817" lon="4.85857">
        <ele>115.1</ele>
        <time>2019-05-26T12:46:28.000Z</time>
      </trkpt>
      <trkpt lat="45.00776" lon="4.8588">
        <ele>115.15</ele>
        <time>2019-05-26T12:46:33.000Z</time>
      </trkpt>
      <trkpt lat="45.00734" lon="4.85905">
        <ele>117.83</ele>
        <time>2019-05-26T12:46:38.000Z</time>
      </trkpt>
      <trkpt lat="45.00691" lon="4.85928">
        <ele>118.34</ele>
        <time>2019-05-26T12:46:43.000Z</time>
      </trkpt>
      <trkpt lat="45.00647" lon="4.85952">
        <ele>119.1</ele>
        <time>2019-05-26T12:46:48.000Z</time>
      </trkpt>
      <trkpt lat="45.00603" lon="4.85977">
        <ele>118.15</ele>
        <time>2019-05-26T12:46:53.000Z</time>
      </trkpt>
      <trkpt lat="45.00559" lon="4.86002">
        <ele>118.21</ele>
        <time>2019-05-26T12:46:58.000Z</time>
      </trkpt>
      <trkpt lat="45.00517" lon="4.86025">
        <ele>118.15</ele>
        <time>2019-05-26T12:47:03.000Z</time>
      </trkpt>
      <trkpt lat="45.00474" lon="4.86048">
        <ele>118.15</ele>
        <time>2019-05-26T12:47:08.000Z</time>
      </trkpt>
      <trkpt lat="45.00432" lon="4.86073">
        <ele>118.15</ele>
        <time>2019-05-26T12:47:13.000Z</time>
      </trkpt>
      <trkpt lat="45.00392" lon="4.86096">
        <ele>117.9</ele>
        <time>2019-05-26T12:47:18.000Z</time>
      </trkpt>
      <trkpt lat="45.00352" lon="4.8612">
        <ele>117.38</ele>
        <time>2019-05-26T12:47:23.000Z</time>
      </trkpt>
      <trkpt lat="45.00312" lon="4.86143">
        <ele>115.41</ele>
        <time>2019-05-26T12:47:28.000Z</time>
      </trkpt>
      <trkpt lat="45.00271" lon="4.86166">
        <ele>116.85</ele>
        <time>2019-05-26T12:47:33.000Z</time>
      </trkpt>
      <trkpt lat="45.00232" lon="4.86188">
        <ele>117.33</ele>
        <time>2019-05-26T12:47:38.000Z</time>
      </trkpt>
      <trkpt lat="45.00193" lon="4.8621">
        <ele>116.39</ele>
        <time>2019-05-26T12:47:43.000Z</time>
      </trkpt>
      <trkpt lat="45.00153" lon="4.86231">
        <ele>117.14</ele>
        <time>2019-05-26T12:47:48.000Z</time>
      </trkpt>
      <trkpt lat="45.00114" lon="4.86253">
        <ele>117.88</ele>
        <time>2019-05-26T12:47:53.000Z</time>
      </trkpt>
      <trkpt lat="45.00073" lon="4.86276">
        <ele>118.14</ele>
        <time>2019-05-26T12:47:58.000Z</time>
      </trkpt>
      <trkpt lat="45.00032" lon="4.863">
        <ele>115.97</ele>
        <time>2019-05-26T12:48:03.000Z</time>
      </trkpt>
      <trkpt lat="44.99991" lon="4.86325">
        <ele>116.14</ele>
        <time>2019-05-26T12:48:08.000Z</time>
      </trkpt>
      <trkpt lat="44.9995" lon="4.86348">
        <ele>115.15</ele>
        <time>2019-05-26T12:48:13.000Z</time>
      </trkpt>
      <trkpt lat="44.9991" lon="4.8637">
        <ele>115.14</ele>
        <time>2019-05-26T12:48:18.000Z</time>
      </trkpt>
      <trkpt lat="44.9987" lon="4.86393">
        <ele>116.14</ele>
        <time>2019-05-26T12:48:23.000Z</time>
      </trkpt>
      <trkpt lat="44.9983" lon="4.86414">
        <ele>115.15</ele>
        <time>2019-05-26T12:48:28.000Z</time>
      </trkpt>
      <trkpt lat="44.99791" lon="4.86438">
        <ele>116.13</ele>
        <time>2019-05-26T12:48:33.000Z</time>
      </trkpt>
      <trkpt lat="44.99752" lon="4.8646">
        <ele>115.15</ele>
        <time>2019-05-26T12:48:38.000Z</time>
      </trkpt>
      <trkpt lat="44.99713" lon="4.86482">
        <ele>115.14</ele>
        <time>2019-05-26T12:48:43.000Z</time>
      </trkpt>
      <trkpt lat="44.99674" lon="4.86506">
        <ele>116.13</ele>
        <time>2019-05-26T12:48:48.000Z</time>
      </trkpt>
      <trkpt lat="44.99635" lon="4.86528">
        <ele>116.95</ele>
        <time>2019-05-26T12:48:53.000Z</time>
      </trkpt>
      <trkpt lat="44.99596" lon="4.86549">
        <ele>118.14</ele>
        <time>2019-05-26T12:48:58.000Z</time>
      </trkpt>
      <trkpt lat="44.99557" lon="4.8657">
        <ele>119.14</ele>
        <time>2019-05-26T12:49:03.000Z</time>
      </trkpt>
      <trkpt lat="44.9952" lon="4.86591">
        <ele>118.16</ele>
        <time>2019-05-26T12:49:08.000Z</time>
      </trkpt>
      <trkpt lat="44.99482" lon="4.86613">
        <ele>116.17</ele>
        <time>2019-05-26T12:49:13.000Z</time>
      </trkpt>
      <trkpt lat="44.99445" lon="4.86633">
        <ele>115.16</ele>
        <time>2019-05-26T12:49:18.000Z</time>
      </trkpt>
      <trkpt lat="44.99409" lon="4.86654">
        <ele>117.08</ele>
        <time>2019-05-26T12:49:23.000Z</time>
      </trkpt>
      <trkpt lat="44.99372" lon="4.86676">
        <ele>117.89</ele>
        <time>2019-05-26T12:49:28.000Z</time>
      </trkpt>
      <trkpt lat="44.99335" lon="4.86695">
        <ele>117.45</ele>
        <time>2019-05-26T12:49:33.000Z</time>
      </trkpt>
      <trkpt lat="44.993" lon="4.86713">
        <ele>116.15</ele>
        <time>2019-05-26T12:49:38.000Z</time>
      </trkpt>
      <trkpt lat="44.99286" lon="4.86743">
        <ele>117.14</ele>
        <time>2019-05-26T12:49:43.000Z</time>
      </trkpt>
      <trkpt lat="44.99314" lon="4.86757">
        <ele>117.89</ele>
        <time>2019-05-26T12:49:48.000Z</time>
      </trkpt>
      <trkpt lat="44.99343" lon="4.86772">
        <ele>118.14</ele>
        <time>2019-05-26T12:49:53.000Z</time>
      </trkpt>
      <trkpt lat="44.99372" lon="4.86788">
        <ele>119.14</ele>
        <time>2019-05-26T12:49:58.000Z</time>
      </trkpt>
      <trkpt lat="44.99402" lon="4.86804">
        <ele>118.16</ele>
        <time>2019-05-26T12:50:03.000Z</time>
      </trkpt>
      <trkpt lat="44.99431" lon="4.8682">
        <ele>118.08</ele>
        <time>2019-05-26T12:50:08.000Z</time>
      </trkpt>
      <trkpt lat="44.99456" lon="4.86839">
        <ele>117.16</ele>
        <time>2019-05-26T12:50:13.000Z</time>
      </trkpt>
      <trkpt lat="44.99482" lon="4.86859">
        <ele>115.4</ele>
        <time>2019-05-26T12:50:18.000Z</time>
      </trkpt>
      <trkpt lat="44.99507" lon="4.86878">
        <ele>115.1</ele>
        <time>2019-05-26T12:50:23.000Z</time>
      </trkpt>
      <trkpt lat="44.99524" lon="4.8689">
        <ele>116.13</ele>
        <time>2019-05-26T12:50:28.000Z</time>
      </trkpt>
      <trkpt lat="44.99514" lon="4.8691">
        <ele>117.13</ele>
        <time>2019-05-26T12:50:33.000Z</time>
      </trkpt>
      <trkpt lat="44.99502" lon="4.86933">
        <ele>119.84</ele>
        <time>2019-05-26T12:50:38.000Z</time>
      </trkpt>
      <trkpt lat="44.99488" lon="4.86963">
        <ele>121.14</ele>
        <time>2019-05-26T12:50:43.000Z</time>
      </trkpt>
      <trkpt lat="44.99472" lon="4.86994">
        <ele>121.21</ele>
        <time>2019-05-26T12:50:48.000Z</time>
      </trkpt>
      <trkpt lat="44.99455" lon="4.87029">
        <ele>121.96</ele>
        <time>2019-05-26T12:50:53.000Z</time>
      </trkpt>
      <trkpt lat="44.99438" lon="4.87064">
        <ele>122.15</ele>
        <time>2019-05-26T12:50:58.000Z</time>
      </trkpt>
      <trkpt lat="44.99421" lon="4.87097">
        <ele>122.15</ele>
        <time>2019-05-26T12:51:03.000Z</time>
      </trkpt>
      <trkpt lat="44.99402" lon="4.87106">
        <ele>120.23</ele>
        <time>2019-05-26T12:51:08.000Z</time>
      </trkpt>
      <trkpt lat="44.99374" lon="4.87086">
        <ele>118.4</ele>
        <time>2019-05-26T12:51:13.000Z</time>
      </trkpt>
      <trkpt lat="44.99342" lon="4.87071">
        <ele>118.15</ele>
        <time>2019-05-26T12:51:18.000Z</time>
      </trkpt>
      <trkpt lat="44.99308" lon="4.8706">
        <ele>117.16</ele>
        <time>2019-05-26T12:51:23.000Z</time>
      </trkpt>
      <trkpt lat="44.99274" lon="4.87052">
        <ele>116.38</ele>
        <time>2019-05-26T12:51:28.000Z</time>
      </trkpt>
      <trkpt lat="44.99239" lon="4.87041">
        <ele>116.39</ele>
        <time>2019-05-26T12:51:33.000Z</time>
      </trkpt>
      <trkpt lat="44.99204" lon="4.87029">
        <ele>115.21</ele>
        <time>2019-05-26T12:51:38.000Z</time>
      </trkpt>
      <trkpt lat="44.99171" lon="4.87014">
        <ele>116.1</ele>
        <time>2019-05-26T12:51:43.000Z</time>
      </trkpt>
      <trkpt lat="44.99137" lon="4.86998">
        <ele>116.89</ele>
        <time>2019-05-26T12:51:48.000Z</time>
      </trkpt>
      <trkpt lat="44.99104" lon="4.8698">
        <ele>116.16</ele>
        <time>2019-05-26T12:51:53.000Z</time>
      </trkpt>
      <trkpt lat="44.99073" lon="4.86964">
        <ele>115.15</ele>
        <time>2019-05-26T12:51:58.000Z</time>
      </trkpt>
      <trkpt lat="44.99043" lon="4.86942">
        <ele>114.92</ele>
        <time>2019-05-26T12:52:03.000Z</time>
      </trkpt>
      <trkpt lat="44.99017" lon="4.86916">
        <ele>115.39</ele>
        <time>2019-05-26T12:52:08.000Z</time>
      </trkpt>
      <trkpt lat="44.98994" lon="4.86888">
        <ele>115.14</ele>
        <time>2019-05-26T12:52:13.000Z</time>
      </trkpt>
      <trkpt lat="44.98969" lon="4.8686">
        <ele>115.38</ele>
        <time>2019-05-26T12:52:18.000Z</time>
      </trkpt>
      <trkpt lat="44.9894" lon="4.86838">
        <ele>116.14</ele>
        <time>2019-05-26T12:52:23.000Z</time>
      </trkpt>
      <trkpt lat="44.98909" lon="4.8682">
        <ele>115.9</ele>
        <time>2019-05-26T12:52:28.000Z</time>
      </trkpt>
      <trkpt lat="44.98876" lon="4.86802">
        <ele>116.08</ele>
        <time>2019-05-26T12:52:33.000Z</time>
      </trkpt>
      <trkpt lat="44.98843" lon="4.86784">
        <ele>115.39</ele>
        <time>2019-05-26T12:52:38.000Z</time>
      </trkpt>
      <trkpt lat="44.98811" lon="4.86766">
        <ele>116.32</ele>
        <time>2019-05-26T12:52:43.000Z</time>
      </trkpt>
      <trkpt lat="44.9878" lon="4.86748">
        <ele>118.14</ele>
        <time>2019-05-26T12:52:48.000Z</time>
      </trkpt>
      <trkpt lat="44.98748" lon="4.86728">
        <ele>116.91</ele>
        <time>2019-05-26T12:52:53.000Z</time>
      </trkpt>
      <trkpt lat="44.98716" lon="4.86706">
        <ele>116.9</ele>
        <time>2019-05-26T12:52:58.000Z</time>
      </trkpt>
      <trkpt lat="44.98685" lon="4.86682">
        <ele>116.89</ele>
        <time>2019-05-26T12:53:03.000Z</time>
      </trkpt>
      <trkpt lat="44.98656" lon="4.86658">
        <ele>117.34</ele>
        <time>2019-05-26T12:53:08.000Z</time>
      </trkpt>
      <trkpt lat="44.98629" lon="4.86633">
        <ele>117.08</ele>
        <time>2019-05-26T12:53:13.000Z</time>
      </trkpt>
      <trkpt lat="44.98602" lon="4.86606">
        <ele>116.2</ele>
        <time>2019-05-26T12:53:18.000Z</time>
      </trkpt>
      <trkpt lat="44.98576" lon="4.86576">
        <ele>116.14</ele>
        <time>2019-05-26T12:53:23.000Z</time>
      </trkpt>
      <trkpt lat="44.98554" lon="4.86545">
        <ele>116.14</ele>
        <time>2019-05-26T12:53:28.000Z</time>
      </trkpt>
      <trkpt lat="44.98532" lon="4.86513">
        <ele>116.14</ele>
        <time>2019-05-26T12:53:33.000Z</time>
      </trkpt>
      <trkpt lat="44.9851" lon="4.8648">
        <ele>116.2</ele>
        <time>2019-05-26T12:53:38.000Z</time>
      </trkpt>
      <trkpt lat="44.9849" lon="4.86446">
        <ele>115.14</ele>
        <time>2019-05-26T12:53:43.000Z</time>
      </trkpt>
      <trkpt lat="44.9847" lon="4.8641">
        <ele>115.09</ele>
        <time>2019-05-26T12:53:48.000Z</time>
      </trkpt>
      <trkpt lat="44.9845" lon="4.86374">
        <ele>114.9</ele>
        <time>2019-05-26T12:53:53.000Z</time>
      </trkpt>
      <trkpt lat="44.98432" lon="4.8634">
        <ele>116.86</ele>
        <time>2019-05-26T12:53:58.000Z</time>
      </trkpt>
      <trkpt lat="44.98414" lon="4.86305">
        <ele>117.14</ele>
        <time>2019-05-26T12:54:03.000Z</time>
      </trkpt>
      <trkpt lat="44.98396" lon="4.86267">
        <ele>116.95</ele>
        <time>2019-05-26T12:54:08.000Z</time>
      </trkpt>
      <trkpt lat="44.98381" lon="4.8623">
        <ele>116.89</ele>
        <time>2019-05-26T12:54:13.000Z</time>
      </trkpt>
      <trkpt lat="44.98366" lon="4.86192">
        <ele>115.2</ele>
        <time>2019-05-26T12:54:18.000Z</time>
      </trkpt>
      <trkpt lat="44.9835" lon="4.86156">
        <ele>116.13</ele>
        <time>2019-05-26T12:54:23.000Z</time>
      </trkpt>
      <trkpt lat="44.98333" lon="4.86121">
        <ele>115.13</ele>
        <time>2019-05-26T12:54:28.000Z</time>
      </trkpt>
      <trkpt lat="44.98316" lon="4.86087">
        <ele>116.37</ele>
        <time>2019-05-26T12:54:33.000Z</time>
      </trkpt>
      <trkpt lat="44.98298" lon="4.86056">
        <ele>116.13</ele>
        <time>2019-05-26T12:54:38.000Z</time>
      </trkpt>
      <trkpt lat="44.98277" lon="4.86023">
        <ele>115.38</ele>
        <time>2019-05-26T12:54:43.000Z</time>
      </trkpt>
      <trkpt lat="44.98256" lon="4.85993">
        <ele>116.13</ele>
        <time>2019-05-26T12:54:48.000Z</time>
      </trkpt>
      <trkpt lat="44.98232" lon="4.85968">
        <ele>117.11</ele>
        <time>2019-05-26T12:54:53.000Z</time>
      </trkpt>
      <trkpt lat="44.9821" lon="4.85944">
        <ele>117.13</ele>
        <time>2019-05-26T12:54:58.000Z</time>
      </trkpt>
      <trkpt lat="44.98185" lon="4.85922">
        <ele>117.88</ele>
        <time>2019-05-26T12:55:03.000Z</time>
      </trkpt>
      <trkpt lat="44.98158" lon="4.859">
        <ele>117.19</ele>
        <time>2019-05-26T12:55:08.000Z</time>
      </trkpt>
      <trkpt lat="44.9813" lon="4.85881">
        <ele>118.12</ele>
        <time>2019-05-26T12:55:13.000Z</time>
      </trkpt>
      <trkpt lat="44.98099" lon="4.85866">
        <ele>117.13</ele>
        <time>2019-05-26T12:55:18.000Z</time>
      </trkpt>
      <trkpt lat="44.98068" lon="4.85853">
        <ele>117.13</ele>
        <time>2019-05-26T12:55:23.000Z</time>
      </trkpt>
      <trkpt lat="44.98036" lon="4.85842">
        <ele>117.13</ele>
        <time>2019-05-26T12:55:28.000Z</time>
      </trkpt>
      <trkpt lat="44.98001" lon="4.85837">
        <ele>116.13</ele>
        <time>2019-05-26T12:55:33.000Z</time>
      </trkpt>
      <trkpt lat="44.97966" lon="4.85833">
        <ele>116.13</ele>
        <time>2019-05-26T12:55:38.000Z</time>
      </trkpt>
      <trkpt lat="44.97931" lon="4.85832">
        <ele>117.12</ele>
        <time>2019-05-26T12:55:43.000Z</time>
      </trkpt>
      <trkpt lat="44.97896" lon="4.85833">
        <ele>117.13</ele>
        <time>2019-05-26T12:55:48.000Z</time>
      </trkpt>
      <trkpt lat="44.97861" lon="4.85835">
        <ele>117.13</ele>
        <time>2019-05-26T12:55:53.000Z</time>
      </trkpt>
      <trkpt lat="44.97824" lon="4.85838">
        <ele>117.13</ele>
        <time>2019-05-26T12:55:58.000Z</time>
      </trkpt>
      <trkpt lat="44.97789" lon="4.85843">
        <ele>118.07</ele>
        <time>2019-05-26T12:56:03.000Z</time>
      </trkpt>
      <trkpt lat="44.97753" lon="4.85851">
        <ele>118.12</ele>
        <time>2019-05-26T12:56:08.000Z</time>
      </trkpt>
      <trkpt lat="44.97718" lon="4.85861">
        <ele>118.12</ele>
        <time>2019-05-26T12:56:13.000Z</time>
      </trkpt>
      <trkpt lat="44.97681" lon="4.85871">
        <ele>118.31</ele>
        <time>2019-05-26T12:56:18.000Z</time>
      </trkpt>
      <trkpt lat="44.97645" lon="4.85886">
        <ele>118.17</ele>
        <time>2019-05-26T12:56:23.000Z</time>
      </trkpt>
      <trkpt lat="44.97608" lon="4.85902">
        <ele>116.38</ele>
        <time>2019-05-26T12:56:28.000Z</time>
      </trkpt>
      <trkpt lat="44.97571" lon="4.85922">
        <ele>115.94</ele>
        <time>2019-05-26T12:56:33.000Z</time>
      </trkpt>
      <trkpt lat="44.97534" lon="4.85942">
        <ele>117.87</ele>
        <time>2019-05-26T12:56:38.000Z</time>
      </trkpt>
      <trkpt lat="44.97497" lon="4.85964">
        <ele>118.07</ele>
        <time>2019-05-26T12:56:43.000Z</time>
      </trkpt>
      <trkpt lat="44.9746" lon="4.85988">
        <ele>117.13</ele>
        <time>2019-05-26T12:56:48.000Z</time>
      </trkpt>
      <trkpt lat="44.97422" lon="4.8601">
        <ele>118.12</ele>
        <time>2019-05-26T12:56:53.000Z</time>
      </trkpt>
      <trkpt lat="44.97397" lon="4.86033">
        <ele>119.12</ele>
        <time>2019-05-26T12:56:58.000Z</time>
      </trkpt>
      <trkpt lat="44.97407" lon="4.86065">
        <ele>117.2</ele>
        <time>2019-05-26T12:57:03.000Z</time>
      </trkpt>
      <trkpt lat="44.97417" lon="4.86094">
        <ele>115.19</ele>
        <time>2019-05-26T12:57:08.000Z</time>
      </trkpt>
      <trkpt lat="44.97426" lon="4.86127">
        <ele>116.07</ele>
        <time>2019-05-26T12:57:13.000Z</time>
      </trkpt>
      <trkpt lat="44.97426" lon="4.86161">
        <ele>116.13</ele>
        <time>2019-05-26T12:57:18.000Z</time>
      </trkpt>
      <trkpt lat="44.97401" lon="4.86181">
        <ele>117.12</ele>
        <time>2019-05-26T12:57:23.000Z</time>
      </trkpt>
      <trkpt lat="44.97381" lon="4.86207">
        <ele>119.12</ele>
        <time>2019-05-26T12:57:28.000Z</time>
      </trkpt>
      <trkpt lat="44.97363" lon="4.8624">
        <ele>118.14</ele>
        <time>2019-05-26T12:57:33.000Z</time>
      </trkpt>
      <trkpt lat="44.9735" lon="4.86278">
        <ele>117.19</ele>
        <time>2019-05-26T12:57:38.000Z</time>
      </trkpt>
      <trkpt lat="44.9734" lon="4.86321">
        <ele>116.13</ele>
        <time>2019-05-26T12:57:43.000Z</time>
      </trkpt>
      <trkpt lat="44.97331" lon="4.86361">
        <ele>115.82</ele>
        <time>2019-05-26T12:57:48.000Z</time>
      </trkpt>
      <trkpt lat="44.97324" lon="4.86399">
        <ele>116.27</ele>
        <time>2019-05-26T12:57:53.000Z</time>
      </trkpt>
      <trkpt lat="44.97316" lon="4.86434">
        <ele>117.08</ele>
        <time>2019-05-26T12:57:58.000Z</time>
      </trkpt>
      <trkpt lat="44.9731" lon="4.8647">
        <ele>118.06</ele>
        <time>2019-05-26T12:58:03.000Z</time>
      </trkpt>
      <trkpt lat="44.97304" lon="4.86502">
        <ele>118.88</ele>
        <time>2019-05-26T12:58:08.000Z</time>
      </trkpt>
      <trkpt lat="44.97297" lon="4.86535">
        <ele>118.88</ele>
        <time>2019-05-26T12:58:13.000Z</time>
      </trkpt>
      <trkpt lat="44.97289" lon="4.86568">
        <ele>121.06</ele>
        <time>2019-05-26T12:58:18.000Z</time>
      </trkpt>
      <trkpt lat="44.97282" lon="4.86596">
        <ele>122.87</ele>
        <time>2019-05-26T12:58:23.000Z</time>
      </trkpt>
      <trkpt lat="44.97275" lon="4.86621">
        <ele>124.31</ele>
        <time>2019-05-26T12:58:28.000Z</time>
      </trkpt>
      <trkpt lat="44.97265" lon="4.86637">
        <ele>124.86</ele>
        <time>2019-05-26T12:58:33.000Z</time>
      </trkpt>
      <trkpt lat="44.97257" lon="4.86659">
        <ele>126.13</ele>
        <time>2019-05-26T12:58:38.000Z</time>
      </trkpt>
      <trkpt lat="44.97252" lon="4.86685">
        <ele>128.05</ele>
        <time>2019-05-26T12:58:43.000Z</time>
      </trkpt>
      <trkpt lat="44.97247" lon="4.86712">
        <ele>129.11</ele>
        <time>2019-05-26T12:58:48.000Z</time>
      </trkpt>
      <trkpt lat="44.97242" lon="4.86741">
        <ele>128.88</ele>
        <time>2019-05-26T12:58:53.000Z</time>
      </trkpt>
      <trkpt lat="44.97236" lon="4.86774">
        <ele>128.15</ele>
        <time>2019-05-26T12:58:58.000Z</time>
      </trkpt>
      <trkpt lat="44.97229" lon="4.86808">
        <ele>128.93</ele>
        <time>2019-05-26T12:59:03.000Z</time>
      </trkpt>
      <trkpt lat="44.97221" lon="4.86843">
        <ele>129.13</ele>
        <time>2019-05-26T12:59:08.000Z</time>
      </trkpt>
      <trkpt lat="44.97213" lon="4.86878">
        <ele>128.15</ele>
        <time>2019-05-26T12:59:13.000Z</time>
      </trkpt>
      <trkpt lat="44.97204" lon="4.86916">
        <ele>128.13</ele>
        <time>2019-05-26T12:59:18.000Z</time>
      </trkpt>
      <trkpt lat="44.97192" lon="4.86955">
        <ele>128.19</ele>
        <time>2019-05-26T12:59:23.000Z</time>
      </trkpt>
      <trkpt lat="44.97179" lon="4.86994">
        <ele>128.13</ele>
        <time>2019-05-26T12:59:28.000Z</time>
      </trkpt>
      <trkpt lat="44.97167" lon="4.87034">
        <ele>128.36</ele>
        <time>2019-05-26T12:59:33.000Z</time>
      </trkpt>
      <trkpt lat="44.97156" lon="4.87074">
        <ele>127.88</ele>
        <time>2019-05-26T12:59:38.000Z</time>
      </trkpt>
      <trkpt lat="44.97143" lon="4.87112">
        <ele>128.13</ele>
        <time>2019-05-26T12:59:43.000Z</time>
      </trkpt>
      <trkpt lat="44.9713" lon="4.8715">
        <ele>127.15</ele>
        <time>2019-05-26T12:59:48.000Z</time>
      </trkpt>
      <trkpt lat="44.97118" lon="4.87185">
        <ele>126.88</ele>
        <time>2019-05-26T12:59:53.000Z</time>
      </trkpt>
      <trkpt lat="44.97105" lon="4.87222">
        <ele>127.88</ele>
        <time>2019-05-26T12:59:58.000Z</time>
      </trkpt>
      <trkpt lat="44.9709" lon="4.87258">
        <ele>128.94</ele>
        <time>2019-05-26T13:00:03.000Z</time>
      </trkpt>
      <trkpt lat="44.97079" lon="4.87295">
        <ele>128.15</ele>
        <time>2019-05-26T13:00:08.000Z</time>
      </trkpt>
      <trkpt lat="44.97065" lon="4.87331">
        <ele>130.1</ele>
        <time>2019-05-26T13:00:13.000Z</time>
      </trkpt>
      <trkpt lat="44.97054" lon="4.87368">
        <ele>129.15</ele>
        <time>2019-05-26T13:00:18.000Z</time>
      </trkpt>
      <trkpt lat="44.97042" lon="4.87396">
        <ele>129.18</ele>
        <time>2019-05-26T13:00:23.000Z</time>
      </trkpt>
      <trkpt lat="44.97032" lon="4.87429">
        <ele>130.13</ele>
        <time>2019-05-26T13:00:28.000Z</time>
      </trkpt>
      <trkpt lat="44.97016" lon="4.87463">
        <ele>129.38</ele>
        <time>2019-05-26T13:00:33.000Z</time>
      </trkpt>
      <trkpt lat="44.96991" lon="4.87484">
        <ele>128.15</ele>
        <time>2019-05-26T13:00:38.000Z</time>
      </trkpt>
      <trkpt lat="44.96958" lon="4.87479">
        <ele>128.15</ele>
        <time>2019-05-26T13:00:43.000Z</time>
      </trkpt>
      <trkpt lat="44.96923" lon="4.87476">
        <ele>128.13</ele>
        <time>2019-05-26T13:00:48.000Z</time>
      </trkpt>
      <trkpt lat="44.96886" lon="4.87471">
        <ele>127.2</ele>
        <time>2019-05-26T13:00:53.000Z</time>
      </trkpt>
      <trkpt lat="44.96846" lon="4.87468">
        <ele>125.38</ele>
        <time>2019-05-26T13:00:58.000Z</time>
      </trkpt>
      <trkpt lat="44.96804" lon="4.87467">
        <ele>124.2</ele>
        <time>2019-05-26T13:01:03.000Z</time>
      </trkpt>
      <trkpt lat="44.96758" lon="4.87459">
        <ele>123.2</ele>
        <time>2019-05-26T13:01:08.000Z</time>
      </trkpt>
      <trkpt lat="44.96715" lon="4.87433">
        <ele>119.22</ele>
        <time>2019-05-26T13:01:13.000Z</time>
      </trkpt>
      <trkpt lat="44.96685" lon="4.87384">
        <ele>118.19</ele>
        <time>2019-05-26T13:01:18.000Z</time>
      </trkpt>
      <trkpt lat="44.96652" lon="4.87349">
        <ele>118.41</ele>
        <time>2019-05-26T13:01:23.000Z</time>
      </trkpt>
      <trkpt lat="44.9662" lon="4.87316">
        <ele>117.13</ele>
        <time>2019-05-26T13:01:28.000Z</time>
      </trkpt>
      <trkpt lat="44.96593" lon="4.87286">
        <ele>117.13</ele>
        <time>2019-05-26T13:01:33.000Z</time>
      </trkpt>
      <trkpt lat="44.96559" lon="4.87285">
        <ele>117.13</ele>
        <time>2019-05-26T13:01:38.000Z</time>
      </trkpt>
      <trkpt lat="44.96526" lon="4.87267">
        <ele>116.38</ele>
        <time>2019-05-26T13:01:43.000Z</time>
      </trkpt>
      <trkpt lat="44.96507" lon="4.87233">
        <ele>116.13</ele>
        <time>2019-05-26T13:01:48.000Z</time>
      </trkpt>
      <trkpt lat="44.965" lon="4.87194">
        <ele>117.88</ele>
        <time>2019-05-26T13:01:53.000Z</time>
      </trkpt>
      <trkpt lat="44.96482" lon="4.87163">
        <ele>119.07</ele>
        <time>2019-05-26T13:01:58.000Z</time>
      </trkpt>
      <trkpt lat="44.96455" lon="4.87137">
        <ele>118.19</ele>
        <time>2019-05-26T13:02:03.000Z</time>
      </trkpt>
      <trkpt lat="44.96428" lon="4.87151">
        <ele>117.13</ele>
        <time>2019-05-26T13:02:08.000Z</time>
      </trkpt>
      <trkpt lat="44.96406" lon="4.87185">
        <ele>116.88</ele>
        <time>2019-05-26T13:02:13.000Z</time>
      </trkpt>
      <trkpt lat="44.96375" lon="4.8721">
        <ele>116.13</ele>
        <time>2019-05-26T13:02:18.000Z</time>
      </trkpt>
      <trkpt lat="44.96347" lon="4.87235">
        <ele>115.88</ele>
        <time>2019-05-26T13:02:23.000Z</time>
      </trkpt>
      <trkpt lat="44.9632" lon="4.87262">
        <ele>115.13</ele>
        <time>2019-05-26T13:02:28.000Z</time>
      </trkpt>
      <trkpt lat="44.96293" lon="4.87296">
        <ele>115.69</ele>
        <time>2019-05-26T13:02:33.000Z</time>
      </trkpt>
      <trkpt lat="44.96282" lon="4.87342">
        <ele>117.86</ele>
        <time>2019-05-26T13:02:38.000Z</time>
      </trkpt>
      <trkpt lat="44.96283" lon="4.87384">
        <ele>117.14</ele>
        <time>2019-05-26T13:02:50.000Z</time>
      </trkpt>
      <trkpt lat="44.96294" lon="4.87425">
        <ele>116.94</ele>
        <time>2019-05-26T13:02:55.000Z</time>
      </trkpt>
      <trkpt lat="44.96304" lon="4.87462">
        <ele>118.07</ele>
        <time>2019-05-26T13:03:31.000Z</time>
      </trkpt>
      <trkpt lat="44.96283" lon="4.87487">
        <ele>117.14</ele>
        <time>2019-05-26T13:03:36.000Z</time>
      </trkpt>
      <trkpt lat="44.96263" lon="4.87517">
        <ele>115.9</ele>
        <time>2019-05-26T13:03:41.000Z</time>
      </trkpt>
      <trkpt lat="44.96252" lon="4.87532">
        <ele>114.18</ele>
        <time>2019-05-26T13:03:46.000Z</time>
      </trkpt>
      <trkpt lat="44.96234" lon="4.8753">
        <ele>114.13</ele>
        <time>2019-05-26T13:03:51.000Z</time>
      </trkpt>
      <trkpt lat="44.96207" lon="4.87527">
        <ele>115.07</ele>
        <time>2019-05-26T13:03:56.000Z</time>
      </trkpt>
      <trkpt lat="44.96178" lon="4.87521">
        <ele>114.13</ele>
        <time>2019-05-26T13:04:01.000Z</time>
      </trkpt>
      <trkpt lat="44.96158" lon="4.8754">
        <ele>114.38</ele>
        <time>2019-05-26T13:04:06.000Z</time>
      </trkpt>
      <trkpt lat="44.96139" lon="4.87568">
        <ele>114.08</ele>
        <time>2019-05-26T13:04:11.000Z</time>
      </trkpt>
      <trkpt lat="44.96118" lon="4.87598">
        <ele>114.88</ele>
        <time>2019-05-26T13:04:16.000Z</time>
      </trkpt>
      <trkpt lat="44.96098" lon="4.87627">
        <ele>114.13</ele>
        <time>2019-05-26T13:04:21.000Z</time>
      </trkpt>
      <trkpt lat="44.96079" lon="4.87653">
        <ele>115.13</ele>
        <time>2019-05-26T13:04:26.000Z</time>
      </trkpt>
      <trkpt lat="44.96058" lon="4.87679">
        <ele>115.13</ele>
        <time>2019-05-26T13:04:31.000Z</time>
      </trkpt>
      <trkpt lat="44.96037" lon="4.87704">
        <ele>115.13</ele>
        <time>2019-05-26T13:04:36.000Z</time>
      </trkpt>
      <trkpt lat="44.96014" lon="4.87729">
        <ele>116.32</ele>
        <time>2019-05-26T13:04:41.000Z</time>
      </trkpt>
      <trkpt lat="44.95987" lon="4.8775">
        <ele>115.38</ele>
        <time>2019-05-26T13:04:46.000Z</time>
      </trkpt>
      <trkpt lat="44.95956" lon="4.87777">
        <ele>114.33</ele>
        <time>2019-05-26T13:04:51.000Z</time>
      </trkpt>
      <trkpt lat="44.9592" lon="4.87799">
        <ele>113.13</ele>
        <time>2019-05-26T13:04:56.000Z</time>
      </trkpt>
      <trkpt lat="44.95887" lon="4.87826">
        <ele>112.13</ele>
        <time>2019-05-26T13:05:01.000Z</time>
      </trkpt>
      <trkpt lat="44.95855" lon="4.87853">
        <ele>111.13</ele>
        <time>2019-05-26T13:05:06.000Z</time>
      </trkpt>
      <trkpt lat="44.95822" lon="4.87876">
        <ele>110.38</ele>
        <time>2019-05-26T13:05:11.000Z</time>
      </trkpt>
      <trkpt lat="44.95785" lon="4.879">
        <ele>110.13</ele>
        <time>2019-05-26T13:05:16.000Z</time>
      </trkpt>
      <trkpt lat="44.9575" lon="4.87922">
        <ele>110.13</ele>
        <time>2019-05-26T13:05:21.000Z</time>
      </trkpt>
      <trkpt lat="44.95714" lon="4.87942">
        <ele>109.13</ele>
        <time>2019-05-26T13:05:26.000Z</time>
      </trkpt>
      <trkpt lat="44.95678" lon="4.8796">
        <ele>110.86</ele>
        <time>2019-05-26T13:05:31.000Z</time>
      </trkpt>
      <trkpt lat="44.95642" lon="4.87976">
        <ele>110.14</ele>
        <time>2019-05-26T13:05:36.000Z</time>
      </trkpt>
      <trkpt lat="44.95604" lon="4.87992">
        <ele>109.93</ele>
        <time>2019-05-26T13:05:41.000Z</time>
      </trkpt>
      <trkpt lat="44.95566" lon="4.88005">
        <ele>110.88</ele>
        <time>2019-05-26T13:05:46.000Z</time>
      </trkpt>
      <trkpt lat="44.95527" lon="4.88019">
        <ele>109.9</ele>
        <time>2019-05-26T13:05:51.000Z</time>
      </trkpt>
      <trkpt lat="44.95489" lon="4.88033">
        <ele>110.13</ele>
        <time>2019-05-26T13:05:56.000Z</time>
      </trkpt>
      <trkpt lat="44.9545" lon="4.88051">
        <ele>110.36</ele>
        <time>2019-05-26T13:06:01.000Z</time>
      </trkpt>
      <trkpt lat="44.95413" lon="4.88068">
        <ele>110.19</ele>
        <time>2019-05-26T13:06:06.000Z</time>
      </trkpt>
      <trkpt lat="44.95376" lon="4.88084">
        <ele>110.13</ele>
        <time>2019-05-26T13:06:11.000Z</time>
      </trkpt>
      <trkpt lat="44.95338" lon="4.881">
        <ele>110.07</ele>
        <time>2019-05-26T13:06:16.000Z</time>
      </trkpt>
      <trkpt lat="44.95301" lon="4.88115">
        <ele>112.11</ele>
        <time>2019-05-26T13:06:21.000Z</time>
      </trkpt>
      <trkpt lat="44.95265" lon="4.8813">
        <ele>111.13</ele>
        <time>2019-05-26T13:06:26.000Z</time>
      </trkpt>
      <trkpt lat="44.95229" lon="4.88147">
        <ele>111.19</ele>
        <time>2019-05-26T13:06:31.000Z</time>
      </trkpt>
      <trkpt lat="44.95193" lon="4.88166">
        <ele>112.13</ele>
        <time>2019-05-26T13:06:36.000Z</time>
      </trkpt>
      <trkpt lat="44.95157" lon="4.8818">
        <ele>112.12</ele>
        <time>2019-05-26T13:06:41.000Z</time>
      </trkpt>
      <trkpt lat="44.9512" lon="4.88197">
        <ele>112.36</ele>
        <time>2019-05-26T13:06:46.000Z</time>
      </trkpt>
      <trkpt lat="44.95083" lon="4.88211">
        <ele>112.13</ele>
        <time>2019-05-26T13:06:51.000Z</time>
      </trkpt>
      <trkpt lat="44.95048" lon="4.88227">
        <ele>113.31</ele>
        <time>2019-05-26T13:06:56.000Z</time>
      </trkpt>
      <trkpt lat="44.95013" lon="4.88241">
        <ele>114.11</ele>
        <time>2019-05-26T13:07:01.000Z</time>
      </trkpt>
      <trkpt lat="44.94978" lon="4.88258">
        <ele>114.88</ele>
        <time>2019-05-26T13:07:06.000Z</time>
      </trkpt>
      <trkpt lat="44.94944" lon="4.88272">
        <ele>114.13</ele>
        <time>2019-05-26T13:07:11.000Z</time>
      </trkpt>
      <trkpt lat="44.9491" lon="4.88288">
        <ele>113.94</ele>
        <time>2019-05-26T13:07:16.000Z</time>
      </trkpt>
      <trkpt lat="44.94875" lon="4.88302">
        <ele>114.13</ele>
        <time>2019-05-26T13:07:21.000Z</time>
      </trkpt>
      <trkpt lat="44.9484" lon="4.88318">
        <ele>114.14</ele>
        <time>2019-05-26T13:07:26.000Z</time>
      </trkpt>
      <trkpt lat="44.94806" lon="4.88333">
        <ele>114.13</ele>
        <time>2019-05-26T13:07:31.000Z</time>
      </trkpt>
      <trkpt lat="44.94773" lon="4.88351">
        <ele>113.36</ele>
        <time>2019-05-26T13:07:36.000Z</time>
      </trkpt>
      <trkpt lat="44.94738" lon="4.88365">
        <ele>113.13</ele>
        <time>2019-05-26T13:07:41.000Z</time>
      </trkpt>
      <trkpt lat="44.94703" lon="4.88381">
        <ele>111.38</ele>
        <time>2019-05-26T13:07:47.000Z</time>
      </trkpt>
      <trkpt lat="44.94669" lon="4.88395">
        <ele>112.11</ele>
        <time>2019-05-26T13:07:52.000Z</time>
      </trkpt>
      <trkpt lat="44.94635" lon="4.8841">
        <ele>112.88</ele>
        <time>2019-05-26T13:07:57.000Z</time>
      </trkpt>
      <trkpt lat="44.94601" lon="4.88427">
        <ele>113.06</ele>
        <time>2019-05-26T13:08:02.000Z</time>
      </trkpt>
      <trkpt lat="44.94567" lon="4.88441">
        <ele>112.89</ele>
        <time>2019-05-26T13:08:07.000Z</time>
      </trkpt>
      <trkpt lat="44.94539" lon="4.88455">
        <ele>111.19</ele>
        <time>2019-05-26T13:08:29.000Z</time>
      </trkpt>
      <trkpt lat="44.94529" lon="4.8848">
        <ele>112.11</ele>
        <time>2019-05-26T13:08:34.000Z</time>
      </trkpt>
      <trkpt lat="44.9452" lon="4.8851">
        <ele>112.37</ele>
        <time>2019-05-26T13:08:39.000Z</time>
      </trkpt>
      <trkpt lat="44.94512" lon="4.88539">
        <ele>113.12</ele>
        <time>2019-05-26T13:08:44.000Z</time>
      </trkpt>
      <trkpt lat="44.94505" lon="4.88569">
        <ele>113.06</ele>
        <time>2019-05-26T13:08:49.000Z</time>
      </trkpt>
      <trkpt lat="44.94489" lon="4.88594">
        <ele>114.12</ele>
        <time>2019-05-26T13:08:54.000Z</time>
      </trkpt>
      <trkpt lat="44.94474" lon="4.8861">
        <ele>114.19</ele>
        <time>2019-05-26T13:08:59.000Z</time>
      </trkpt>
      <trkpt lat="44.94461" lon="4.88599">
        <ele>113.13</ele>
        <time>2019-05-26T13:09:04.000Z</time>
      </trkpt>
      <trkpt lat="44.94467" lon="4.88613">
        <ele>116.06</ele>
        <time>2019-05-26T13:09:09.000Z</time>
      </trkpt>
      <trkpt lat="44.94478" lon="4.88631">
        <ele>116.31</ele>
        <time>2019-05-26T13:09:14.000Z</time>
      </trkpt>
      <trkpt lat="44.94485" lon="4.88643">
        <ele>117.13</ele>
        <time>2019-05-26T13:09:19.000Z</time>
      </trkpt>
      <trkpt lat="44.94489" lon="4.88662">
        <ele>118.11</ele>
        <time>2019-05-26T13:09:24.000Z</time>
      </trkpt>
      <trkpt lat="44.94485" lon="4.8868">
        <ele>117.14</ele>
        <time>2019-05-26T13:09:29.000Z</time>
      </trkpt>
      <trkpt lat="44.94471" lon="4.887">
        <ele>116.14</ele>
        <time>2019-05-26T13:09:34.000Z</time>
      </trkpt>
      <trkpt lat="44.94453" lon="4.88723">
        <ele>116.12</ele>
        <time>2019-05-26T13:09:39.000Z</time>
      </trkpt>
      <trkpt lat="44.94436" lon="4.88745">
        <ele>114.14</ele>
        <time>2019-05-26T13:09:44.000Z</time>
      </trkpt>
      <trkpt lat="44.94424" lon="4.8876">
        <ele>113.89</ele>
        <time>2019-05-26T13:09:49.000Z</time>
      </trkpt>
      <trkpt lat="44.9441" lon="4.88782">
        <ele>114.13</ele>
        <time>2019-05-26T13:09:54.000Z</time>
      </trkpt>
      <trkpt lat="44.94393" lon="4.88804">
        <ele>114.12</ele>
        <time>2019-05-26T13:09:59.000Z</time>
      </trkpt>
      <trkpt lat="44.9437" lon="4.88811">
        <ele>113.19</ele>
        <time>2019-05-26T13:10:04.000Z</time>
      </trkpt>
      <trkpt lat="44.9435" lon="4.88803">
        <ele>113.13</ele>
        <time>2019-05-26T13:10:09.000Z</time>
      </trkpt>
      <trkpt lat="44.94343" lon="4.8881">
        <ele>113.13</ele>
        <time>2019-05-26T13:10:14.000Z</time>
      </trkpt>
      <trkpt lat="44.94346" lon="4.88839">
        <ele>113.13</ele>
        <time>2019-05-26T13:10:19.000Z</time>
      </trkpt>
      <trkpt lat="44.94336" lon="4.88868">
        <ele>113.13</ele>
        <time>2019-05-26T13:10:24.000Z</time>
      </trkpt>
      <trkpt lat="44.94312" lon="4.88881">
        <ele>113.19</ele>
        <time>2019-05-26T13:10:29.000Z</time>
      </trkpt>
      <trkpt lat="44.94286" lon="4.88894">
        <ele>111.39</ele>
        <time>2019-05-26T13:10:34.000Z</time>
      </trkpt>
      <trkpt lat="44.94257" lon="4.889">
        <ele>110.14</ele>
        <time>2019-05-26T13:10:39.000Z</time>
      </trkpt>
      <trkpt lat="44.94228" lon="4.889">
        <ele>110.13</ele>
        <time>2019-05-26T13:10:44.000Z</time>
      </trkpt>
      <trkpt lat="44.94196" lon="4.88899">
        <ele>110.16</ele>
        <time>2019-05-26T13:10:49.000Z</time>
      </trkpt>
      <trkpt lat="44.94166" lon="4.88896">
        <ele>111.06</ele>
        <time>2019-05-26T13:10:54.000Z</time>
      </trkpt>
      <trkpt lat="44.94135" lon="4.88893">
        <ele>112.87</ele>
        <time>2019-05-26T13:10:59.000Z</time>
      </trkpt>
      <trkpt lat="44.94105" lon="4.88896">
        <ele>112.38</ele>
        <time>2019-05-26T13:11:04.000Z</time>
      </trkpt>
      <trkpt lat="44.94074" lon="4.88892">
        <ele>113.31</ele>
        <time>2019-05-26T13:11:09.000Z</time>
      </trkpt>
      <trkpt lat="44.94042" lon="4.88887">
        <ele>112.19</ele>
        <time>2019-05-26T13:11:14.000Z</time>
      </trkpt>
      <trkpt lat="44.94011" lon="4.8888">
        <ele>111.14</ele>
        <time>2019-05-26T13:11:19.000Z</time>
      </trkpt>
      <trkpt lat="44.94002" lon="4.88841">
        <ele>110.36</ele>
        <time>2019-05-26T13:11:24.000Z</time>
      </trkpt>
      <trkpt lat="44.94002" lon="4.888">
        <ele>109.13</ele>
        <time>2019-05-26T13:11:29.000Z</time>
      </trkpt>
      <trkpt lat="44.93985" lon="4.88766">
        <ele>109.87</ele>
        <time>2019-05-26T13:11:34.000Z</time>
      </trkpt>
      <trkpt lat="44.93957" lon="4.88767">
        <ele>109.87</ele>
        <time>2019-05-26T13:11:39.000Z</time>
      </trkpt>
      <trkpt lat="44.93929" lon="4.88783">
        <ele>109.19</ele>
        <time>2019-05-26T13:11:44.000Z</time>
      </trkpt>
      <trkpt lat="44.93902" lon="4.88795">
        <ele>110.12</ele>
        <time>2019-05-26T13:11:49.000Z</time>
      </trkpt>
      <trkpt lat="44.93873" lon="4.8881">
        <ele>110.12</ele>
        <time>2019-05-26T13:12:02.000Z</time>
      </trkpt>
      <trkpt lat="44.93847" lon="4.88823">
        <ele>112.06</ele>
        <time>2019-05-26T13:12:12.000Z</time>
      </trkpt>
      <trkpt lat="44.93819" lon="4.88836">
        <ele>113.87</ele>
        <time>2019-05-26T13:12:17.000Z</time>
      </trkpt>
      <trkpt lat="44.9379" lon="4.88846">
        <ele>113.14</ele>
        <time>2019-05-26T13:12:22.000Z</time>
      </trkpt>
      <trkpt lat="44.93759" lon="4.88848">
        <ele>112.14</ele>
        <time>2019-05-26T13:12:27.000Z</time>
      </trkpt>
      <trkpt lat="44.93729" lon="4.88852">
        <ele>112.12</ele>
        <time>2019-05-26T13:12:32.000Z</time>
      </trkpt>
      <trkpt lat="44.93701" lon="4.88866">
        <ele>109.39</ele>
        <time>2019-05-26T13:12:37.000Z</time>
      </trkpt>
      <trkpt lat="44.93687" lon="4.88866">
        <ele>109.12</ele>
        <time>2019-05-26T13:12:42.000Z</time>
      </trkpt>
      <trkpt lat="44.93671" lon="4.88858">
        <ele>110.13</ele>
        <time>2019-05-26T13:12:47.000Z</time>
      </trkpt>
      <trkpt lat="44.93649" lon="4.8885">
        <ele>109.18</ele>
        <time>2019-05-26T13:12:52.000Z</time>
      </trkpt>
      <trkpt lat="44.93633" lon="4.88845">
        <ele>110.12</ele>
        <time>2019-05-26T13:12:57.000Z</time>
      </trkpt>
      <trkpt lat="44.93625" lon="4.88833">
        <ele>109.36</ele>
        <time>2019-05-26T13:13:02.000Z</time>
      </trkpt>
      <trkpt lat="44.93631" lon="4.8882">
        <ele>109.37</ele>
        <time>2019-05-26T13:13:07.000Z</time>
      </trkpt>
      <trkpt lat="44.93641" lon="4.88819">
        <ele>110.87</ele>
        <time>2019-05-26T13:13:12.000Z</time>
      </trkpt>
      <trkpt lat="44.93639" lon="4.88836">
        <ele>111.12</ele>
        <time>2019-05-26T13:13:17.000Z</time>
      </trkpt>
      <trkpt lat="44.93633" lon="4.88847">
        <ele>109.94</ele>
        <time>2019-05-26T13:13:22.000Z</time>
      </trkpt>
      <trkpt lat="44.93648" lon="4.88854">
        <ele>110.13</ele>
        <time>2019-05-26T13:13:27.000Z</time>
      </trkpt>
      <trkpt lat="44.93665" lon="4.88858">
        <ele>109.37</ele>
        <time>2019-05-26T13:13:32.000Z</time>
      </trkpt>
      <trkpt lat="44.93684" lon="4.88863">
        <ele>109.14</ele>
        <time>2019-05-26T13:13:37.000Z</time>
      </trkpt>
      <trkpt lat="44.93694" lon="4.88874">
        <ele>110.38</ele>
        <time>2019-05-26T13:13:42.000Z</time>
      </trkpt>
      <trkpt lat="44.93704" lon="4.88872">
        <ele>109.42</ele>
        <time>2019-05-26T13:13:47.000Z</time>
      </trkpt>
      <trkpt lat="44.9372" lon="4.88863">
        <ele>107.22</ele>
        <time>2019-05-26T13:13:52.000Z</time>
      </trkpt>
      <trkpt lat="44.93731" lon="4.88857">
        <ele>109.87</ele>
        <time>2019-05-26T13:13:57.000Z</time>
      </trkpt>
      <trkpt lat="44.9374" lon="4.88852">
        <ele>109.12</ele>
        <time>2019-05-26T13:14:02.000Z</time>
      </trkpt>
      <trkpt lat="44.93752" lon="4.8885">
        <ele>109.93</ele>
        <time>2019-05-26T13:14:07.000Z</time>
      </trkpt>
      <trkpt lat="44.93763" lon="4.8885">
        <ele>111.13</ele>
        <time>2019-05-26T13:14:12.000Z</time>
      </trkpt>
      <trkpt lat="44.93783" lon="4.88846">
        <ele>110.89</ele>
        <time>2019-05-26T13:14:17.000Z</time>
      </trkpt>
      <trkpt lat="44.93804" lon="4.88844">
        <ele>109.2</ele>
        <time>2019-05-26T13:14:22.000Z</time>
      </trkpt>
      <trkpt lat="44.93828" lon="4.88836">
        <ele>110.12</ele>
        <time>2019-05-26T13:14:27.000Z</time>
      </trkpt>
      <trkpt lat="44.9385" lon="4.88823">
        <ele>111.86</ele>
        <time>2019-05-26T13:14:32.000Z</time>
      </trkpt>
      <trkpt lat="44.93876" lon="4.88813">
        <ele>113.11</ele>
        <time>2019-05-26T13:14:37.000Z</time>
      </trkpt>
      <trkpt lat="44.93901" lon="4.888">
        <ele>114.3</ele>
        <time>2019-05-26T13:14:42.000Z</time>
      </trkpt>
      <trkpt lat="44.93926" lon="4.88788">
        <ele>114.17</ele>
        <time>2019-05-26T13:14:47.000Z</time>
      </trkpt>
      <trkpt lat="44.93948" lon="4.88777">
        <ele>112.37</ele>
        <time>2019-05-26T13:14:52.000Z</time>
      </trkpt>
      <trkpt lat="44.93972" lon="4.88764">
        <ele>114.06</ele>
        <time>2019-05-26T13:14:57.000Z</time>
      </trkpt>
      <trkpt lat="44.93991" lon="4.8878">
        <ele>113.14</ele>
        <time>2019-05-26T13:15:02.000Z</time>
      </trkpt>
      <trkpt lat="44.94001" lon="4.88808">
        <ele>112.12</ele>
        <time>2019-05-26T13:15:07.000Z</time>
      </trkpt>
      <trkpt lat="44.94002" lon="4.88839">
        <ele>112.88</ele>
        <time>2019-05-26T13:15:12.000Z</time>
      </trkpt>
      <trkpt lat="44.94003" lon="4.88869">
        <ele>112.19</ele>
        <time>2019-05-26T13:15:17.000Z</time>
      </trkpt>
      <trkpt lat="44.94018" lon="4.88887">
        <ele>111.14</ele>
        <time>2019-05-26T13:15:22.000Z</time>
      </trkpt>
      <trkpt lat="44.9404" lon="4.88891">
        <ele>110.37</ele>
        <time>2019-05-26T13:15:27.000Z</time>
      </trkpt>
      <trkpt lat="44.94063" lon="4.88893">
        <ele>112.06</ele>
        <time>2019-05-26T13:15:32.000Z</time>
      </trkpt>
      <trkpt lat="44.94086" lon="4.88895">
        <ele>111.89</ele>
        <time>2019-05-26T13:15:37.000Z</time>
      </trkpt>
      <trkpt lat="44.94108" lon="4.88898">
        <ele>111.13</ele>
        <time>2019-05-26T13:15:42.000Z</time>
      </trkpt>
      <trkpt lat="44.94129" lon="4.88896">
        <ele>110.19</ele>
        <time>2019-05-26T13:15:47.000Z</time>
      </trkpt>
      <trkpt lat="44.9415" lon="4.88897">
        <ele>112.11</ele>
        <time>2019-05-26T13:15:52.000Z</time>
      </trkpt>
      <trkpt lat="44.94168" lon="4.88898">
        <ele>114.06</ele>
        <time>2019-05-26T13:15:57.000Z</time>
      </trkpt>
      <trkpt lat="44.94187" lon="4.88899">
        <ele>114.17</ele>
        <time>2019-05-26T13:16:02.000Z</time>
      </trkpt>
      <trkpt lat="44.94208" lon="4.88901">
        <ele>113.38</ele>
        <time>2019-05-26T13:16:07.000Z</time>
      </trkpt>
      <trkpt lat="44.94231" lon="4.88904">
        <ele>112.38</ele>
        <time>2019-05-26T13:16:12.000Z</time>
      </trkpt>
      <trkpt lat="44.94253" lon="4.88903">
        <ele>112.13</ele>
        <time>2019-05-26T13:16:17.000Z</time>
      </trkpt>
      <trkpt lat="44.94275" lon="4.88902">
        <ele>111.13</ele>
        <time>2019-05-26T13:16:22.000Z</time>
      </trkpt>
      <trkpt lat="44.94295" lon="4.88897">
        <ele>110.14</ele>
        <time>2019-05-26T13:16:27.000Z</time>
      </trkpt>
      <trkpt lat="44.94315" lon="4.88887">
        <ele>109.89</ele>
        <time>2019-05-26T13:16:32.000Z</time>
      </trkpt>
      <trkpt lat="44.94336" lon="4.88875">
        <ele>110.88</ele>
        <time>2019-05-26T13:16:37.000Z</time>
      </trkpt>
      <trkpt lat="44.94349" lon="4.88853">
        <ele>112.11</ele>
        <time>2019-05-26T13:16:42.000Z</time>
      </trkpt>
      <trkpt lat="44.94348" lon="4.88821">
        <ele>112.13</ele>
        <time>2019-05-26T13:16:47.000Z</time>
      </trkpt>
      <trkpt lat="44.94366" lon="4.88815">
        <ele>111.14</ele>
        <time>2019-05-26T13:16:52.000Z</time>
      </trkpt>
      <trkpt lat="44.94386" lon="4.88812">
        <ele>112.11</ele>
        <time>2019-05-26T13:16:57.000Z</time>
      </trkpt>
      <trkpt lat="44.94403" lon="4.88799">
        <ele>113.06</ele>
        <time>2019-05-26T13:17:02.000Z</time>
      </trkpt>
      <trkpt lat="44.94417" lon="4.88779">
        <ele>112.14</ele>
        <time>2019-05-26T13:17:07.000Z</time>
      </trkpt>
      <trkpt lat="44.94432" lon="4.88757">
        <ele>111.38</ele>
        <time>2019-05-26T13:17:12.000Z</time>
      </trkpt>
      <trkpt lat="44.94447" lon="4.88735">
        <ele>111.94</ele>
        <time>2019-05-26T13:17:17.000Z</time>
      </trkpt>
      <trkpt lat="44.94462" lon="4.88713">
        <ele>112.33</ele>
        <time>2019-05-26T13:17:22.000Z</time>
      </trkpt>
      <trkpt lat="44.94476" lon="4.88689">
        <ele>113.06</ele>
        <time>2019-05-26T13:17:27.000Z</time>
      </trkpt>
      <trkpt lat="44.94487" lon="4.88674">
        <ele>114.12</ele>
        <time>2019-05-26T13:17:32.000Z</time>
      </trkpt>
      <trkpt lat="44.94491" lon="4.88685">
        <ele>117.13</ele>
        <time>2019-05-26T13:17:37.000Z</time>
      </trkpt>
      <trkpt lat="44.94498" lon="4.88699">
        <ele>118.36</ele>
        <time>2019-05-26T13:17:42.000Z</time>
      </trkpt>
      <trkpt lat="44.94517" lon="4.88706">
        <ele>117.19</ele>
        <time>2019-05-26T13:17:47.000Z</time>
      </trkpt>
      <trkpt lat="44.94535" lon="4.88712">
        <ele>118.06</ele>
        <time>2019-05-26T13:17:52.000Z</time>
      </trkpt>
      <trkpt lat="44.94538" lon="4.88731">
        <ele>118.13</ele>
        <time>2019-05-26T13:17:57.000Z</time>
      </trkpt>
      <trkpt lat="44.94527" lon="4.88753">
        <ele>117.33</ele>
        <time>2019-05-26T13:18:02.000Z</time>
      </trkpt>
      <trkpt lat="44.94516" lon="4.88783">
        <ele>117.13</ele>
        <time>2019-05-26T13:18:07.000Z</time>
      </trkpt>
      <trkpt lat="44.94504" lon="4.88812">
        <ele>115.39</ele>
        <time>2019-05-26T13:18:12.000Z</time>
      </trkpt>
      <trkpt lat="44.94492" lon="4.88845">
        <ele>115.93</ele>
        <time>2019-05-26T13:18:17.000Z</time>
      </trkpt>
      <trkpt lat="44.94475" lon="4.88877">
        <ele>114.94</ele>
        <time>2019-05-26T13:18:22.000Z</time>
      </trkpt>
      <trkpt lat="44.94453" lon="4.88907">
        <ele>113.19</ele>
        <time>2019-05-26T13:18:27.000Z</time>
      </trkpt>
      <trkpt lat="44.94434" lon="4.88946">
        <ele>114.19</ele>
        <time>2019-05-26T13:18:32.000Z</time>
      </trkpt>
      <trkpt lat="44.94427" lon="4.88984">
        <ele>114.13</ele>
        <time>2019-05-26T13:18:37.000Z</time>
      </trkpt>
      <trkpt lat="44.94416" lon="4.89015">
        <ele>115.82</ele>
        <time>2019-05-26T13:18:42.000Z</time>
      </trkpt>
      <trkpt lat="44.94404" lon="4.89044">
        <ele>116.08</ele>
        <time>2019-05-26T13:18:47.000Z</time>
      </trkpt>
      <trkpt lat="44.9439" lon="4.89071">
        <ele>115.39</ele>
        <time>2019-05-26T13:18:52.000Z</time>
      </trkpt>
      <trkpt lat="44.94373" lon="4.89101">
        <ele>116.88</ele>
        <time>2019-05-26T13:18:57.000Z</time>
      </trkpt>
      <trkpt lat="44.94373" lon="4.89136">
        <ele>116.13</ele>
        <time>2019-05-26T13:19:02.000Z</time>
      </trkpt>
      <trkpt lat="44.94373" lon="4.89173">
        <ele>115.15</ele>
        <time>2019-05-26T13:19:07.000Z</time>
      </trkpt>
      <trkpt lat="44.9437" lon="4.89211">
        <ele>116.11</ele>
        <time>2019-05-26T13:19:12.000Z</time>
      </trkpt>
      <trkpt lat="44.94351" lon="4.89241">
        <ele>119.04</ele>
        <time>2019-05-26T13:19:17.000Z</time>
      </trkpt>
      <trkpt lat="44.94324" lon="4.89256">
        <ele>119.13</ele>
        <time>2019-05-26T13:24:18.000Z</time>
      </trkpt>
      <trkpt lat="44.94294" lon="4.89273">
        <ele>119.13</ele>
        <time>2019-05-26T13:24:23.000Z</time>
      </trkpt>
      <trkpt lat="44.94261" lon="4.89289">
        <ele>117.15</ele>
        <time>2019-05-26T13:24:28.000Z</time>
      </trkpt>
      <trkpt lat="44.94229" lon="4.89306">
        <ele>117.13</ele>
        <time>2019-05-26T13:24:33.000Z</time>
      </trkpt>
      <trkpt lat="44.94195" lon="4.89324">
        <ele>116.19</ele>
        <time>2019-05-26T13:24:38.000Z</time>
      </trkpt>
      <trkpt lat="44.94164" lon="4.89338">
        <ele>117.13</ele>
        <time>2019-05-26T13:24:43.000Z</time>
      </trkpt>
      <trkpt lat="44.94138" lon="4.8935">
        <ele>117.13</ele>
        <time>2019-05-26T13:25:25.000Z</time>
      </trkpt>
      <trkpt lat="44.94114" lon="4.89347">
        <ele>115.15</ele>
        <time>2019-05-26T13:25:30.000Z</time>
      </trkpt>
      <trkpt lat="44.94093" lon="4.89337">
        <ele>115.13</ele>
        <time>2019-05-26T13:25:36.000Z</time>
      </trkpt>
      <trkpt lat="44.94077" lon="4.8936">
        <ele>114.18</ele>
        <time>2019-05-26T13:25:43.000Z</time>
      </trkpt>
      <trkpt lat="44.94054" lon="4.89366">
        <ele>112.38</ele>
        <time>2019-05-26T13:26:20.000Z</time>
      </trkpt>
      <trkpt lat="44.94028" lon="4.89358">
        <ele>114.86</ele>
        <time>2019-05-26T13:26:48.000Z</time>
      </trkpt>
      <trkpt lat="44.93998" lon="4.89348">
        <ele>113.33</ele>
        <time>2019-05-26T13:27:00.000Z</time>
      </trkpt>
      <trkpt lat="44.93967" lon="4.8934">
        <ele>114.13</ele>
        <time>2019-05-26T13:27:14.000Z</time>
      </trkpt>
      <trkpt lat="44.93937" lon="4.89331">
        <ele>112.38</ele>
        <time>2019-05-26T13:48:00.000Z</time>
      </trkpt>
      <trkpt lat="44.93905" lon="4.89321">
        <ele>112.94</ele>
        <time>2019-05-26T13:48:14.000Z</time>
      </trkpt>
      <trkpt lat="44.93875" lon="4.89313">
        <ele>114.05</ele>
        <time>2019-05-26T13:48:27.000Z</time>
      </trkpt>
      <trkpt lat="44.93845" lon="4.89303">
        <ele>114.38</ele>
        <time>2019-05-26T13:48:32.000Z</time>
      </trkpt>
      <trkpt lat="44.93819" lon="4.89296">
        <ele>114.92</ele>
        <time>2019-05-26T13:48:47.000Z</time>
      </trkpt>
      <trkpt lat="44.93794" lon="4.89303">
        <ele>116.87</ele>
        <time>2019-05-26T13:49:24.000Z</time>
      </trkpt>
      <trkpt lat="44.93769" lon="4.89316">
        <ele>116.27</ele>
        <time>2019-05-26T13:50:32.000Z</time>
      </trkpt>
      <trkpt lat="44.93744" lon="4.89326">
        <ele>115.07</ele>
        <time>2019-05-26T13:50:37.000Z</time>
      </trkpt>
      <trkpt lat="44.93723" lon="4.89333">
        <ele>116.93</ele>
        <time>2019-05-26T13:50:42.000Z</time>
      </trkpt>
      <trkpt lat="44.93705" lon="4.89335">
        <ele>117.14</ele>
        <time>2019-05-26T13:50:47.000Z</time>
      </trkpt>
      <trkpt lat="44.93688" lon="4.89332">
        <ele>117.14</ele>
        <time>2019-05-26T13:50:52.000Z</time>
      </trkpt>
      <trkpt lat="44.93675" lon="4.89325">
        <ele>117.13</ele>
        <time>2019-05-26T13:50:57.000Z</time>
      </trkpt>
      <trkpt lat="44.93664" lon="4.89309">
        <ele>117.37</ele>
        <time>2019-05-26T13:51:02.000Z</time>
      </trkpt>
      <trkpt lat="44.93652" lon="4.8929">
        <ele>118.11</ele>
        <time>2019-05-26T13:51:07.000Z</time>
      </trkpt>
      <trkpt lat="44.93641" lon="4.89273">
        <ele>119.01</ele>
        <time>2019-05-26T13:51:12.000Z</time>
      </trkpt>
      <trkpt lat="44.9363" lon="4.89257">
        <ele>120.12</ele>
        <time>2019-05-26T13:51:17.000Z</time>
      </trkpt>
      <trkpt lat="44.93621" lon="4.8924">
        <ele>120.12</ele>
        <time>2019-05-26T13:51:22.000Z</time>
      </trkpt>
      <trkpt lat="44.93614" lon="4.89226">
        <ele>123.08</ele>
        <time>2019-05-26T13:51:27.000Z</time>
      </trkpt>
      <trkpt lat="44.93603" lon="4.89214">
        <ele>122.19</ele>
        <time>2019-05-26T13:51:32.000Z</time>
      </trkpt>
      <trkpt lat="44.93589" lon="4.89223">
        <ele>123.06</ele>
        <time>2019-05-26T13:51:37.000Z</time>
      </trkpt>
      <trkpt lat="44.93579" lon="4.89242">
        <ele>121.38</ele>
        <time>2019-05-26T13:51:42.000Z</time>
      </trkpt>
      <trkpt lat="44.9357" lon="4.89262">
        <ele>122.05</ele>
        <time>2019-05-26T13:51:47.000Z</time>
      </trkpt>
      <trkpt lat="44.93564" lon="4.89281">
        <ele>123.06</ele>
        <time>2019-05-26T13:51:52.000Z</time>
      </trkpt>
      <trkpt lat="44.93557" lon="4.89298">
        <ele>126.56</ele>
        <time>2019-05-26T13:51:57.000Z</time>
      </trkpt>
      <trkpt lat="44.93547" lon="4.89313">
        <ele>128.87</ele>
        <time>2019-05-26T13:52:02.000Z</time>
      </trkpt>
      <trkpt lat="44.9354" lon="4.89332">
        <ele>131.1</ele>
        <time>2019-05-26T13:52:07.000Z</time>
      </trkpt>
      <trkpt lat="44.93538" lon="4.89359">
        <ele>129.18</ele>
        <time>2019-05-26T13:52:12.000Z</time>
      </trkpt>
      <trkpt lat="44.93529" lon="4.89385">
        <ele>129.18</ele>
        <time>2019-05-26T13:52:17.000Z</time>
      </trkpt>
      <trkpt lat="44.93521" lon="4.89413">
        <ele>130.11</ele>
        <time>2019-05-26T13:52:22.000Z</time>
      </trkpt>
      <trkpt lat="44.93515" lon="4.89438">
        <ele>130.14</ele>
        <time>2019-05-26T13:52:27.000Z</time>
      </trkpt>
      <trkpt lat="44.93508" lon="4.89464">
        <ele>131.81</ele>
        <time>2019-05-26T13:52:32.000Z</time>
      </trkpt>
      <trkpt lat="44.93498" lon="4.8949">
        <ele>131.37</ele>
        <time>2019-05-26T13:52:37.000Z</time>
      </trkpt>
      <trkpt lat="44.93487" lon="4.89513">
        <ele>133.92</ele>
        <time>2019-05-26T13:52:42.000Z</time>
      </trkpt>
      <trkpt lat="44.93463" lon="4.8953">
        <ele>130.4</ele>
        <time>2019-05-26T13:52:57.000Z</time>
      </trkpt>
      <trkpt lat="44.93439" lon="4.89548">
        <ele>132.86</ele>
        <time>2019-05-26T13:53:30.000Z</time>
      </trkpt>
      <trkpt lat="44.93416" lon="4.89562">
        <ele>133.12</ele>
        <time>2019-05-26T13:53:35.000Z</time>
      </trkpt>
      <trkpt lat="44.93397" lon="4.89574">
        <ele>129.52</ele>
        <time>2019-05-26T13:53:40.000Z</time>
      </trkpt>
      <trkpt lat="44.9338" lon="4.89594">
        <ele>134.55</ele>
        <time>2019-05-26T13:54:02.000Z</time>
      </trkpt>
      <trkpt lat="44.93369" lon="4.89622">
        <ele>135.37</ele>
        <time>2019-05-26T13:54:23.000Z</time>
      </trkpt>
      <trkpt lat="44.93349" lon="4.89628">
        <ele>133.41</ele>
        <time>2019-05-26T13:54:28.000Z</time>
      </trkpt>
      <trkpt lat="44.9333" lon="4.89612">
        <ele>131.33</ele>
        <time>2019-05-26T13:54:33.000Z</time>
      </trkpt>
      <trkpt lat="44.9331" lon="4.89593">
        <ele>131.12</ele>
        <time>2019-05-26T13:54:38.000Z</time>
      </trkpt>
      <trkpt lat="44.93287" lon="4.89573">
        <ele>130.07</ele>
        <time>2019-05-26T13:54:43.000Z</time>
      </trkpt>
      <trkpt lat="44.93263" lon="4.89555">
        <ele>130.36</ele>
        <time>2019-05-26T13:54:48.000Z</time>
      </trkpt>
      <trkpt lat="44.93238" lon="4.89544">
        <ele>129.09</ele>
        <time>2019-05-26T13:54:53.000Z</time>
      </trkpt>
      <trkpt lat="44.93218" lon="4.89529">
        <ele>129.92</ele>
        <time>2019-05-26T13:54:58.000Z</time>
      </trkpt>
      <trkpt lat="44.93198" lon="4.89515">
        <ele>129.12</ele>
        <time>2019-05-26T13:55:03.000Z</time>
      </trkpt>
      <trkpt lat="44.93179" lon="4.89501">
        <ele>128.89</ele>
        <time>2019-05-26T13:55:10.000Z</time>
      </trkpt>
      <trkpt lat="44.93157" lon="4.8949">
        <ele>128.14</ele>
        <time>2019-05-26T13:55:16.000Z</time>
      </trkpt>
      <trkpt lat="44.9314" lon="4.89481">
        <ele>128.13</ele>
        <time>2019-05-26T13:55:21.000Z</time>
      </trkpt>
      <trkpt lat="44.93135" lon="4.8947">
        <ele>129.13</ele>
        <time>2019-05-26T13:55:26.000Z</time>
      </trkpt>
      <trkpt lat="44.93129" lon="4.8946">
        <ele>129.06</ele>
        <time>2019-05-26T13:55:31.000Z</time>
      </trkpt>
      <trkpt lat="44.93119" lon="4.89459">
        <ele>128</ele>
        <time>2019-05-26T13:55:52.000Z</time>
      </trkpt>
      <trkpt lat="44.93107" lon="4.89457">
        <ele>128.87</ele>
        <time>2019-05-26T13:55:57.000Z</time>
      </trkpt>
      <trkpt lat="44.93093" lon="4.89453">
        <ele>131.12</ele>
        <time>2019-05-26T13:56:02.000Z</time>
      </trkpt>
      <trkpt lat="44.93082" lon="4.89449">
        <ele>130.37</ele>
        <time>2019-05-26T13:56:07.000Z</time>
      </trkpt>
      <trkpt lat="44.93071" lon="4.89446">
        <ele>131.06</ele>
        <time>2019-05-26T13:56:12.000Z</time>
      </trkpt>
      <trkpt lat="44.93061" lon="4.8944">
        <ele>130.13</ele>
        <time>2019-05-26T13:56:17.000Z</time>
      </trkpt>
      <trkpt lat="44.93059" lon="4.89428">
        <ele>131.12</ele>
        <time>2019-05-26T13:56:22.000Z</time>
      </trkpt>
      <trkpt lat="44.93067" lon="4.8942">
        <ele>131.12</ele>
        <time>2019-05-26T13:56:27.000Z</time>
      </trkpt>
      <trkpt lat="44.93071" lon="4.89407">
        <ele>131.12</ele>
        <time>2019-05-26T13:56:32.000Z</time>
      </trkpt>
      <trkpt lat="44.9307" lon="4.89392">
        <ele>131.12</ele>
        <time>2019-05-26T13:56:37.000Z</time>
      </trkpt>
      <trkpt lat="44.9306" lon="4.89394">
        <ele>132.74</ele>
        <time>2019-05-26T13:56:42.000Z</time>
      </trkpt>
      <trkpt lat="44.93052" lon="4.89399">
        <ele>141.83</ele>
        <time>2019-05-26T13:56:47.000Z</time>
      </trkpt>
      <trkpt lat="44.93061" lon="4.89406">
        <ele>131.09</ele>
        <time>2019-05-26T13:56:52.000Z</time>
      </trkpt>
      <trkpt lat="44.9307" lon="4.89399">
        <ele>126.52</ele>
        <time>2019-05-26T13:56:57.000Z</time>
      </trkpt>
      <trkpt lat="44.93057" lon="4.89409">
        <ele>147.04</ele>
        <time>2019-05-26T13:57:02.000Z</time>
      </trkpt>
      <trkpt lat="44.93047" lon="4.8941">
        <ele>148.86</ele>
        <time>2019-05-26T13:57:27.000Z</time>
      </trkpt>
      <trkpt lat="44.93056" lon="4.89406">
        <ele>139.97</ele>
        <time>2019-05-26T14:00:35.000Z</time>
      </trkpt>
      <trkpt lat="44.93066" lon="4.89402">
        <ele>135.73</ele>
        <time>2019-05-26T14:02:13.000Z</time>
      </trkpt>
      <trkpt lat="44.93075" lon="4.89397">
        <ele>127.37</ele>
        <time>2019-05-26T14:02:18.000Z</time>
      </trkpt>
      <trkpt lat="44.9307" lon="4.89385">
        <ele>124.08</ele>
        <time>2019-05-26T14:02:23.000Z</time>
      </trkpt>
      <trkpt lat="44.93063" lon="4.89376">
        <ele>126.75</ele>
        <time>2019-05-26T14:02:28.000Z</time>
      </trkpt>
      <trkpt lat="44.93054" lon="4.89366">
        <ele>128.35</ele>
        <time>2019-05-26T14:02:33.000Z</time>
      </trkpt>
      <trkpt lat="44.93045" lon="4.89351">
        <ele>128.12</ele>
        <time>2019-05-26T14:02:38.000Z</time>
      </trkpt>
      <trkpt lat="44.9305" lon="4.89329">
        <ele>129.87</ele>
        <time>2019-05-26T14:02:43.000Z</time>
      </trkpt>
      <trkpt lat="44.93051" lon="4.89306">
        <ele>129.32</ele>
        <time>2019-05-26T14:03:35.000Z</time>
      </trkpt>
      <trkpt lat="44.93052" lon="4.89282">
        <ele>129.13</ele>
        <time>2019-05-26T14:03:40.000Z</time>
      </trkpt>
      <trkpt lat="44.93051" lon="4.89257">
        <ele>129.12</ele>
        <time>2019-05-26T14:03:45.000Z</time>
      </trkpt>
      <trkpt lat="44.93052" lon="4.89227">
        <ele>127.14</ele>
        <time>2019-05-26T14:03:50.000Z</time>
      </trkpt>
      <trkpt lat="44.9305" lon="4.89198">
        <ele>127.17</ele>
        <time>2019-05-26T14:03:55.000Z</time>
      </trkpt>
      <trkpt lat="44.93052" lon="4.89173">
        <ele>127.37</ele>
        <time>2019-05-26T14:04:04.000Z</time>
      </trkpt>
      <trkpt lat="44.93053" lon="4.89151">
        <ele>128.29</ele>
        <time>2019-05-26T14:04:09.000Z</time>
      </trkpt>
      <trkpt lat="44.93054" lon="4.89132">
        <ele>129.12</ele>
        <time>2019-05-26T14:04:14.000Z</time>
      </trkpt>
      <trkpt lat="44.93055" lon="4.89109">
        <ele>128.18</ele>
        <time>2019-05-26T14:04:19.000Z</time>
      </trkpt>
      <trkpt lat="44.93055" lon="4.89083">
        <ele>126.13</ele>
        <time>2019-05-26T14:04:24.000Z</time>
      </trkpt>
      <trkpt lat="44.93056" lon="4.89058">
        <ele>123.4</ele>
        <time>2019-05-26T14:04:29.000Z</time>
      </trkpt>
      <trkpt lat="44.93057" lon="4.89033">
        <ele>123.12</ele>
        <time>2019-05-26T14:04:34.000Z</time>
      </trkpt>
      <trkpt lat="44.93059" lon="4.89011">
        <ele>123.12</ele>
        <time>2019-05-26T14:04:39.000Z</time>
      </trkpt>
      <trkpt lat="44.93061" lon="4.88985">
        <ele>124.12</ele>
        <time>2019-05-26T14:04:44.000Z</time>
      </trkpt>
      <trkpt lat="44.93062" lon="4.88959">
        <ele>122.2</ele>
        <time>2019-05-26T14:04:49.000Z</time>
      </trkpt>
      <trkpt lat="44.93062" lon="4.88929">
        <ele>120.18</ele>
        <time>2019-05-26T14:04:54.000Z</time>
      </trkpt>
      <trkpt lat="44.93063" lon="4.88896">
        <ele>118.2</ele>
        <time>2019-05-26T14:04:59.000Z</time>
      </trkpt>
      <trkpt lat="44.9307" lon="4.88861">
        <ele>117.26</ele>
        <time>2019-05-26T14:05:04.000Z</time>
      </trkpt>
      <trkpt lat="44.93077" lon="4.88821">
        <ele>115.14</ele>
        <time>2019-05-26T14:05:09.000Z</time>
      </trkpt>
      <trkpt lat="44.93087" lon="4.88778">
        <ele>113.37</ele>
        <time>2019-05-26T14:05:14.000Z</time>
      </trkpt>
      <trkpt lat="44.93098" lon="4.88739">
        <ele>112.11</ele>
        <time>2019-05-26T14:05:37.000Z</time>
      </trkpt>
      <trkpt lat="44.93106" lon="4.88707">
        <ele>110.14</ele>
        <time>2019-05-26T14:05:42.000Z</time>
      </trkpt>
      <trkpt lat="44.93104" lon="4.88685">
        <ele>111.16</ele>
        <time>2019-05-26T14:06:29.000Z</time>
      </trkpt>
      <trkpt lat="44.93103" lon="4.88671">
        <ele>109.12</ele>
        <time>2019-05-26T14:06:34.000Z</time>
      </trkpt>
      <trkpt lat="44.93107" lon="4.88658">
        <ele>110.12</ele>
        <time>2019-05-26T14:06:39.000Z</time>
      </trkpt>
      <trkpt lat="44.93111" lon="4.88644">
        <ele>110.91</ele>
        <time>2019-05-26T14:06:44.000Z</time>
      </trkpt>
      <trkpt lat="44.93114" lon="4.88632">
        <ele>111.12</ele>
        <time>2019-05-26T14:06:49.000Z</time>
      </trkpt>
      <trkpt lat="44.93113" lon="4.8862">
        <ele>112.12</ele>
        <time>2019-05-26T14:06:54.000Z</time>
      </trkpt>
      <trkpt lat="44.93102" lon="4.88626">
        <ele>109.65</ele>
        <time>2019-05-26T14:06:59.000Z</time>
      </trkpt>
      <trkpt lat="44.9309" lon="4.88648">
        <ele>109.86</ele>
        <time>2019-05-26T14:07:04.000Z</time>
      </trkpt>
      <trkpt lat="44.93088" lon="4.88671">
        <ele>110.12</ele>
        <time>2019-05-26T14:07:09.000Z</time>
      </trkpt>
      <trkpt lat="44.93083" lon="4.88697">
        <ele>110.16</ele>
        <time>2019-05-26T14:07:14.000Z</time>
      </trkpt>
      <trkpt lat="44.93076" lon="4.88723">
        <ele>110.1</ele>
        <time>2019-05-26T14:07:19.000Z</time>
      </trkpt>
      <trkpt lat="44.9307" lon="4.88749">
        <ele>112.1</ele>
        <time>2019-05-26T14:07:24.000Z</time>
      </trkpt>
      <trkpt lat="44.93065" lon="4.88772">
        <ele>114.1</ele>
        <time>2019-05-26T14:07:29.000Z</time>
      </trkpt>
      <trkpt lat="44.93061" lon="4.88791">
        <ele>114.12</ele>
        <time>2019-05-26T14:07:34.000Z</time>
      </trkpt>
      <trkpt lat="44.93057" lon="4.88808">
        <ele>116.33</ele>
        <time>2019-05-26T14:07:39.000Z</time>
      </trkpt>
      <trkpt lat="44.93056" lon="4.88822">
        <ele>117.1</ele>
        <time>2019-05-26T14:07:44.000Z</time>
      </trkpt>
      <trkpt lat="44.93052" lon="4.88833">
        <ele>118.8</ele>
        <time>2019-05-26T14:07:49.000Z</time>
      </trkpt>
      <trkpt lat="44.93042" lon="4.88839">
        <ele>119.13</ele>
        <time>2019-05-26T14:07:54.000Z</time>
      </trkpt>
      <trkpt lat="44.93027" lon="4.8883">
        <ele>118.13</ele>
        <time>2019-05-26T14:07:59.000Z</time>
      </trkpt>
      <trkpt lat="44.93013" lon="4.88825">
        <ele>119.05</ele>
        <time>2019-05-26T14:08:04.000Z</time>
      </trkpt>
      <trkpt lat="44.93021" lon="4.88831">
        <ele>119.88</ele>
        <time>2019-05-26T14:08:09.000Z</time>
      </trkpt>
      <trkpt lat="44.93037" lon="4.8884">
        <ele>117.49</ele>
        <time>2019-05-26T14:08:14.000Z</time>
      </trkpt>
      <trkpt lat="44.9305" lon="4.88864">
        <ele>117.12</ele>
        <time>2019-05-26T14:08:19.000Z</time>
      </trkpt>
      <trkpt lat="44.9305" lon="4.88894">
        <ele>118.1</ele>
        <time>2019-05-26T14:08:24.000Z</time>
      </trkpt>
      <trkpt lat="44.93046" lon="4.88923">
        <ele>118.12</ele>
        <time>2019-05-26T14:08:29.000Z</time>
      </trkpt>
      <trkpt lat="44.93044" lon="4.8895">
        <ele>117.18</ele>
        <time>2019-05-26T14:08:34.000Z</time>
      </trkpt>
      <trkpt lat="44.93044" lon="4.88975">
        <ele>117.87</ele>
        <time>2019-05-26T14:08:39.000Z</time>
      </trkpt>
      <trkpt lat="44.93035" lon="4.8899">
        <ele>118.63</ele>
        <time>2019-05-26T14:08:44.000Z</time>
      </trkpt>
      <trkpt lat="44.93015" lon="4.88984">
        <ele>118.12</ele>
        <time>2019-05-26T14:08:49.000Z</time>
      </trkpt>
      <trkpt lat="44.92998" lon="4.88972">
        <ele>119.86</ele>
        <time>2019-05-26T14:08:54.000Z</time>
      </trkpt>
      <trkpt lat="44.92979" lon="4.8896">
        <ele>122.55</ele>
        <time>2019-05-26T14:08:59.000Z</time>
      </trkpt>
      <trkpt lat="44.9296" lon="4.88948">
        <ele>121.88</ele>
        <time>2019-05-26T14:09:04.000Z</time>
      </trkpt>
      <trkpt lat="44.92941" lon="4.88937">
        <ele>122.12</ele>
        <time>2019-05-26T14:09:09.000Z</time>
      </trkpt>
      <trkpt lat="44.92922" lon="4.88928">
        <ele>122.12</ele>
        <time>2019-05-26T14:09:14.000Z</time>
      </trkpt>
      <trkpt lat="44.92906" lon="4.88919">
        <ele>122.12</ele>
        <time>2019-05-26T14:09:19.000Z</time>
      </trkpt>
      <trkpt lat="44.92902" lon="4.88906">
        <ele>122.12</ele>
        <time>2019-05-26T14:09:24.000Z</time>
      </trkpt>
      <trkpt lat="44.92895" lon="4.88897">
        <ele>120.1</ele>
        <time>2019-05-26T14:09:29.000Z</time>
      </trkpt>
      <trkpt lat="44.929" lon="4.88883">
        <ele>120.85</ele>
        <time>2019-05-26T14:09:34.000Z</time>
      </trkpt>
      <trkpt lat="44.92907" lon="4.88864">
        <ele>120.12</ele>
        <time>2019-05-26T14:09:39.000Z</time>
      </trkpt>
      <trkpt lat="44.92916" lon="4.88843">
        <ele>121.62</ele>
        <time>2019-05-26T14:09:44.000Z</time>
      </trkpt>
      <trkpt lat="44.92925" lon="4.88824">
        <ele>120.12</ele>
        <time>2019-05-26T14:09:49.000Z</time>
      </trkpt>
      <trkpt lat="44.92933" lon="4.88809">
        <ele>121.6</ele>
        <time>2019-05-26T14:09:54.000Z</time>
      </trkpt>
      <trkpt lat="44.92936" lon="4.88792">
        <ele>120.37</ele>
        <time>2019-05-26T14:09:59.000Z</time>
      </trkpt>
      <trkpt lat="44.92941" lon="4.88779">
        <ele>120.37</ele>
        <time>2019-05-26T14:10:04.000Z</time>
      </trkpt>
      <trkpt lat="44.92935" lon="4.88793">
        <ele>123.37</ele>
        <time>2019-05-26T14:10:09.000Z</time>
      </trkpt>
      <trkpt lat="44.9292" lon="4.88786">
        <ele>122.13</ele>
        <time>2019-05-26T14:10:14.000Z</time>
      </trkpt>
      <trkpt lat="44.92909" lon="4.88776">
        <ele>119.19</ele>
        <time>2019-05-26T14:10:19.000Z</time>
      </trkpt>
      <trkpt lat="44.92918" lon="4.88777">
        <ele>119.36</ele>
        <time>2019-05-26T14:10:24.000Z</time>
      </trkpt>
      <trkpt lat="44.92932" lon="4.88784">
        <ele>119.12</ele>
        <time>2019-05-26T14:10:29.000Z</time>
      </trkpt>
      <trkpt lat="44.92933" lon="4.88769">
        <ele>120.1</ele>
        <time>2019-05-26T14:10:34.000Z</time>
      </trkpt>
      <trkpt lat="44.92912" lon="4.88751">
        <ele>118.37</ele>
        <time>2019-05-26T14:10:39.000Z</time>
      </trkpt>
      <trkpt lat="44.92886" lon="4.88733">
        <ele>116.14</ele>
        <time>2019-05-26T14:10:44.000Z</time>
      </trkpt>
      <trkpt lat="44.92853" lon="4.88709">
        <ele>113.43</ele>
        <time>2019-05-26T14:10:49.000Z</time>
      </trkpt>
      <trkpt lat="44.92818" lon="4.88673">
        <ele>110.18</ele>
        <time>2019-05-26T14:10:54.000Z</time>
      </trkpt>
      <trkpt lat="44.92795" lon="4.88623">
        <ele>107.37</ele>
        <time>2019-05-26T14:10:59.000Z</time>
      </trkpt>
      <trkpt lat="44.92809" lon="4.88571">
        <ele>107.12</ele>
        <time>2019-05-26T14:11:04.000Z</time>
      </trkpt>
      <trkpt lat="44.92833" lon="4.88535">
        <ele>108.05</ele>
        <time>2019-05-26T14:11:09.000Z</time>
      </trkpt>
      <trkpt lat="44.92853" lon="4.88505">
        <ele>106.12</ele>
        <time>2019-05-26T14:11:14.000Z</time>
      </trkpt>
      <trkpt lat="44.92872" lon="4.88476">
        <ele>105.3</ele>
        <time>2019-05-26T14:11:19.000Z</time>
      </trkpt>
      <trkpt lat="44.92883" lon="4.88443">
        <ele>105.13</ele>
        <time>2019-05-26T14:11:24.000Z</time>
      </trkpt>
      <trkpt lat="44.9289" lon="4.88405">
        <ele>105.11</ele>
        <time>2019-05-26T14:11:29.000Z</time>
      </trkpt>
      <trkpt lat="44.92895" lon="4.88368">
        <ele>106.19</ele>
        <time>2019-05-26T14:11:34.000Z</time>
      </trkpt>
      <trkpt lat="44.92902" lon="4.88335">
        <ele>107.11</ele>
        <time>2019-05-26T14:11:39.000Z</time>
      </trkpt>
      <trkpt lat="44.92906" lon="4.8832">
        <ele>108.1</ele>
        <time>2019-05-26T14:11:44.000Z</time>
      </trkpt>
      <trkpt lat="44.92909" lon="4.88306">
        <ele>110.16</ele>
        <time>2019-05-26T14:11:49.000Z</time>
      </trkpt>
      <trkpt lat="44.92911" lon="4.88287">
        <ele>108.18</ele>
        <time>2019-05-26T14:11:54.000Z</time>
      </trkpt>
      <trkpt lat="44.92903" lon="4.88292">
        <ele>109.11</ele>
        <time>2019-05-26T14:11:59.000Z</time>
      </trkpt>
      <trkpt lat="44.92885" lon="4.88287">
        <ele>109.11</ele>
        <time>2019-05-26T14:12:04.000Z</time>
      </trkpt>
      <trkpt lat="44.92863" lon="4.8828">
        <ele>111.36</ele>
        <time>2019-05-26T14:12:09.000Z</time>
      </trkpt>
      <trkpt lat="44.92838" lon="4.88273">
        <ele>109.42</ele>
        <time>2019-05-26T14:12:14.000Z</time>
      </trkpt>
      <trkpt lat="44.92808" lon="4.88271">
        <ele>108.11</ele>
        <time>2019-05-26T14:12:19.000Z</time>
      </trkpt>
      <trkpt lat="44.92778" lon="4.88269">
        <ele>108.38</ele>
        <time>2019-05-26T14:12:24.000Z</time>
      </trkpt>
      <trkpt lat="44.92749" lon="4.88259">
        <ele>108.11</ele>
        <time>2019-05-26T14:12:29.000Z</time>
      </trkpt>
      <trkpt lat="44.92719" lon="4.88249">
        <ele>107.11</ele>
        <time>2019-05-26T14:12:34.000Z</time>
      </trkpt>
      <trkpt lat="44.92689" lon="4.88239">
        <ele>106.11</ele>
        <time>2019-05-26T14:12:39.000Z</time>
      </trkpt>
      <trkpt lat="44.92659" lon="4.88228">
        <ele>105.11</ele>
        <time>2019-05-26T14:12:44.000Z</time>
      </trkpt>
      <trkpt lat="44.92628" lon="4.88215">
        <ele>105.11</ele>
        <time>2019-05-26T14:12:49.000Z</time>
      </trkpt>
      <trkpt lat="44.92597" lon="4.88193">
        <ele>106.05</ele>
        <time>2019-05-26T14:12:54.000Z</time>
      </trkpt>
      <trkpt lat="44.92576" lon="4.88161">
        <ele>106.11</ele>
        <time>2019-05-26T14:12:59.000Z</time>
      </trkpt>
      <trkpt lat="44.92557" lon="4.8813">
        <ele>105.36</ele>
        <time>2019-05-26T14:13:04.000Z</time>
      </trkpt>
      <trkpt lat="44.92529" lon="4.8811">
        <ele>105.11</ele>
        <time>2019-05-26T14:13:09.000Z</time>
      </trkpt>
      <trkpt lat="44.92503" lon="4.88094">
        <ele>104.17</ele>
        <time>2019-05-26T14:13:14.000Z</time>
      </trkpt>
      <trkpt lat="44.92479" lon="4.88074">
        <ele>104.11</ele>
        <time>2019-05-26T14:13:19.000Z</time>
      </trkpt>
      <trkpt lat="44.92457" lon="4.88054">
        <ele>105.05</ele>
        <time>2019-05-26T14:13:24.000Z</time>
      </trkpt>
      <trkpt lat="44.92443" lon="4.88036">
        <ele>106.86</ele>
        <time>2019-05-26T14:13:29.000Z</time>
      </trkpt>
      <trkpt lat="44.92432" lon="4.88019">
        <ele>107.05</ele>
        <time>2019-05-26T14:13:34.000Z</time>
      </trkpt>
      <trkpt lat="44.92424" lon="4.88">
        <ele>108.86</ele>
        <time>2019-05-26T14:13:39.000Z</time>
      </trkpt>
      <trkpt lat="44.92418" lon="4.87976">
        <ele>112.09</ele>
        <time>2019-05-26T14:13:44.000Z</time>
      </trkpt>
      <trkpt lat="44.92413" lon="4.87948">
        <ele>111.09</ele>
        <time>2019-05-26T14:13:49.000Z</time>
      </trkpt>
      <trkpt lat="44.92408" lon="4.87919">
        <ele>112.09</ele>
        <time>2019-05-26T14:13:54.000Z</time>
      </trkpt>
      <trkpt lat="44.92402" lon="4.87892">
        <ele>111.17</ele>
        <time>2019-05-26T14:13:59.000Z</time>
      </trkpt>
      <trkpt lat="44.92397" lon="4.87863">
        <ele>112.34</ele>
        <time>2019-05-26T14:14:04.000Z</time>
      </trkpt>
      <trkpt lat="44.92391" lon="4.87834">
        <ele>112.06</ele>
        <time>2019-05-26T14:14:09.000Z</time>
      </trkpt>
      <trkpt lat="44.92385" lon="4.87798">
        <ele>112.11</ele>
        <time>2019-05-26T14:14:14.000Z</time>
      </trkpt>
      <trkpt lat="44.92374" lon="4.87761">
        <ele>113.09</ele>
        <time>2019-05-26T14:14:19.000Z</time>
      </trkpt>
      <trkpt lat="44.9235" lon="4.87725">
        <ele>110.19</ele>
        <time>2019-05-26T14:14:24.000Z</time>
      </trkpt>
      <trkpt lat="44.92315" lon="4.87694">
        <ele>111.36</ele>
        <time>2019-05-26T14:14:29.000Z</time>
      </trkpt>
      <trkpt lat="44.92279" lon="4.87669">
        <ele>107.42</ele>
        <time>2019-05-26T14:14:34.000Z</time>
      </trkpt>
      <trkpt lat="44.9224" lon="4.87656">
        <ele>104.42</ele>
        <time>2019-05-26T14:14:39.000Z</time>
      </trkpt>
      <trkpt lat="44.92223" lon="4.8764">
        <ele>103.12</ele>
        <time>2019-05-26T14:14:44.000Z</time>
      </trkpt>
      <trkpt lat="44.92239" lon="4.87643">
        <ele>103.34</ele>
        <time>2019-05-26T14:14:49.000Z</time>
      </trkpt>
      <trkpt lat="44.92255" lon="4.87644">
        <ele>103.12</ele>
        <time>2019-05-26T14:14:54.000Z</time>
      </trkpt>
      <trkpt lat="44.92247" lon="4.87623">
        <ele>106.87</ele>
        <time>2019-05-26T14:14:59.000Z</time>
      </trkpt>
      <trkpt lat="44.92221" lon="4.87604">
        <ele>105.91</ele>
        <time>2019-05-26T14:15:04.000Z</time>
      </trkpt>
      <trkpt lat="44.92197" lon="4.87583">
        <ele>105.1</ele>
        <time>2019-05-26T14:15:09.000Z</time>
      </trkpt>
      <trkpt lat="44.92171" lon="4.87558">
        <ele>104.31</ele>
        <time>2019-05-26T14:15:14.000Z</time>
      </trkpt>
      <trkpt lat="44.92143" lon="4.87533">
        <ele>104.1</ele>
        <time>2019-05-26T14:15:19.000Z</time>
      </trkpt>
      <trkpt lat="44.92114" lon="4.87512">
        <ele>104.12</ele>
        <time>2019-05-26T14:15:24.000Z</time>
      </trkpt>
      <trkpt lat="44.92084" lon="4.87491">
        <ele>104.1</ele>
        <time>2019-05-26T14:15:29.000Z</time>
      </trkpt>
      <trkpt lat="44.92056" lon="4.87466">
        <ele>103.12</ele>
        <time>2019-05-26T14:15:34.000Z</time>
      </trkpt>
      <trkpt lat="44.92025" lon="4.87444">
        <ele>103.85</ele>
        <time>2019-05-26T14:15:39.000Z</time>
      </trkpt>
      <trkpt lat="44.91992" lon="4.87425">
        <ele>104.29</ele>
        <time>2019-05-26T14:15:44.000Z</time>
      </trkpt>
      <trkpt lat="44.91959" lon="4.87403">
        <ele>103.12</ele>
        <time>2019-05-26T14:15:49.000Z</time>
      </trkpt>
      <trkpt lat="44.91926" lon="4.87388">
        <ele>102.35</ele>
        <time>2019-05-26T14:15:54.000Z</time>
      </trkpt>
      <trkpt lat="44.91891" lon="4.87375">
        <ele>102.1</ele>
        <time>2019-05-26T14:15:59.000Z</time>
      </trkpt>
      <trkpt lat="44.91857" lon="4.8736">
        <ele>102.04</ele>
        <time>2019-05-26T14:16:04.000Z</time>
      </trkpt>
      <trkpt lat="44.91825" lon="4.87345">
        <ele>102.1</ele>
        <time>2019-05-26T14:16:09.000Z</time>
      </trkpt>
      <trkpt lat="44.91793" lon="4.87333">
        <ele>103.08</ele>
        <time>2019-05-26T14:16:14.000Z</time>
      </trkpt>
      <trkpt lat="44.9176" lon="4.87327">
        <ele>103.83</ele>
        <time>2019-05-26T14:16:19.000Z</time>
      </trkpt>
      <trkpt lat="44.91726" lon="4.87333">
        <ele>102.16</ele>
        <time>2019-05-26T14:16:24.000Z</time>
      </trkpt>
      <trkpt lat="44.91695" lon="4.87347">
        <ele>104.04</ele>
        <time>2019-05-26T14:16:29.000Z</time>
      </trkpt>
      <trkpt lat="44.91672" lon="4.87367">
        <ele>103.16</ele>
        <time>2019-05-26T14:16:34.000Z</time>
      </trkpt>
      <trkpt lat="44.91657" lon="4.8738">
        <ele>100.16</ele>
        <time>2019-05-26T14:16:39.000Z</time>
      </trkpt>
      <trkpt lat="44.91645" lon="4.87379">
        <ele>102.83</ele>
        <time>2019-05-26T14:16:44.000Z</time>
      </trkpt>
      <trkpt lat="44.91637" lon="4.87392">
        <ele>105.89</ele>
        <time>2019-05-26T14:16:49.000Z</time>
      </trkpt>
      <trkpt lat="44.91628" lon="4.8742">
        <ele>105.35</ele>
        <time>2019-05-26T14:16:54.000Z</time>
      </trkpt>
      <trkpt lat="44.91614" lon="4.87448">
        <ele>105.1</ele>
        <time>2019-05-26T14:16:59.000Z</time>
      </trkpt>
      <trkpt lat="44.91602" lon="4.87479">
        <ele>105.1</ele>
        <time>2019-05-26T14:17:04.000Z</time>
      </trkpt>
      <trkpt lat="44.91592" lon="4.87507">
        <ele>106.09</ele>
        <time>2019-05-26T14:17:09.000Z</time>
      </trkpt>
      <trkpt lat="44.91584" lon="4.87528">
        <ele>108.84</ele>
        <time>2019-05-26T14:17:14.000Z</time>
      </trkpt>
      <trkpt lat="44.91576" lon="4.87547">
        <ele>111.01</ele>
        <time>2019-05-26T14:17:19.000Z</time>
      </trkpt>
      <trkpt lat="44.91569" lon="4.8757">
        <ele>109.87</ele>
        <time>2019-05-26T14:17:24.000Z</time>
      </trkpt>
      <trkpt lat="44.91555" lon="4.87583">
        <ele>109.91</ele>
        <time>2019-05-26T14:17:29.000Z</time>
      </trkpt>
      <trkpt lat="44.91536" lon="4.87563">
        <ele>109.36</ele>
        <time>2019-05-26T14:17:34.000Z</time>
      </trkpt>
      <trkpt lat="44.91515" lon="4.87548">
        <ele>109.33</ele>
        <time>2019-05-26T14:17:39.000Z</time>
      </trkpt>
      <trkpt lat="44.91491" lon="4.87532">
        <ele>109.85</ele>
        <time>2019-05-26T14:17:44.000Z</time>
      </trkpt>
      <trkpt lat="44.91468" lon="4.87513">
        <ele>106.62</ele>
        <time>2019-05-26T14:17:49.000Z</time>
      </trkpt>
      <trkpt lat="44.91444" lon="4.87496">
        <ele>108.08</ele>
        <time>2019-05-26T14:17:54.000Z</time>
      </trkpt>
      <trkpt lat="44.91418" lon="4.87477">
        <ele>109.08</ele>
        <time>2019-05-26T14:17:59.000Z</time>
      </trkpt>
      <trkpt lat="44.91391" lon="4.87458">
        <ele>108.11</ele>
        <time>2019-05-26T14:18:04.000Z</time>
      </trkpt>
      <trkpt lat="44.91362" lon="4.8744">
        <ele>107.16</ele>
        <time>2019-05-26T14:18:09.000Z</time>
      </trkpt>
      <trkpt lat="44.91337" lon="4.87419">
        <ele>105.41</ele>
        <time>2019-05-26T14:18:14.000Z</time>
      </trkpt>
      <trkpt lat="44.91307" lon="4.87398">
        <ele>107.83</ele>
        <time>2019-05-26T14:18:19.000Z</time>
      </trkpt>
      <trkpt lat="44.9128" lon="4.87378">
        <ele>107.29</ele>
        <time>2019-05-26T14:18:24.000Z</time>
      </trkpt>
      <trkpt lat="44.91253" lon="4.87358">
        <ele>107.89</ele>
        <time>2019-05-26T14:18:29.000Z</time>
      </trkpt>
      <trkpt lat="44.91226" lon="4.8734">
        <ele>108.05</ele>
        <time>2019-05-26T14:18:34.000Z</time>
      </trkpt>
      <trkpt lat="44.91198" lon="4.87319">
        <ele>107.09</ele>
        <time>2019-05-26T14:18:39.000Z</time>
      </trkpt>
      <trkpt lat="44.91168" lon="4.873">
        <ele>107.14</ele>
        <time>2019-05-26T14:18:44.000Z</time>
      </trkpt>
      <trkpt lat="44.9114" lon="4.87279">
        <ele>107.1</ele>
        <time>2019-05-26T14:18:49.000Z</time>
      </trkpt>
      <trkpt lat="44.91108" lon="4.87256">
        <ele>107.09</ele>
        <time>2019-05-26T14:18:54.000Z</time>
      </trkpt>
      <trkpt lat="44.91077" lon="4.87235">
        <ele>107.09</ele>
        <time>2019-05-26T14:18:59.000Z</time>
      </trkpt>
      <trkpt lat="44.91045" lon="4.87215">
        <ele>107.09</ele>
        <time>2019-05-26T14:19:04.000Z</time>
      </trkpt>
      <trkpt lat="44.91015" lon="4.87191">
        <ele>106.09</ele>
        <time>2019-05-26T14:19:09.000Z</time>
      </trkpt>
      <trkpt lat="44.90987" lon="4.8717">
        <ele>106.09</ele>
        <time>2019-05-26T14:19:14.000Z</time>
      </trkpt>
      <trkpt lat="44.90956" lon="4.87148">
        <ele>107.08</ele>
        <time>2019-05-26T14:19:19.000Z</time>
      </trkpt>
      <trkpt lat="44.90927" lon="4.87125">
        <ele>106.15</ele>
        <time>2019-05-26T14:19:24.000Z</time>
      </trkpt>
      <trkpt lat="44.90899" lon="4.87102">
        <ele>106.09</ele>
        <time>2019-05-26T14:19:29.000Z</time>
      </trkpt>
      <trkpt lat="44.90872" lon="4.87078">
        <ele>106.09</ele>
        <time>2019-05-26T14:19:34.000Z</time>
      </trkpt>
      <trkpt lat="44.90844" lon="4.87053">
        <ele>106.09</ele>
        <time>2019-05-26T14:19:39.000Z</time>
      </trkpt>
      <trkpt lat="44.90815" lon="4.87026">
        <ele>106.09</ele>
        <time>2019-05-26T14:19:44.000Z</time>
      </trkpt>
      <trkpt lat="44.90788" lon="4.87002">
        <ele>106.09</ele>
        <time>2019-05-26T14:19:49.000Z</time>
      </trkpt>
      <trkpt lat="44.90762" lon="4.86975">
        <ele>106.09</ele>
        <time>2019-05-26T14:19:54.000Z</time>
      </trkpt>
      <trkpt lat="44.90734" lon="4.86955">
        <ele>106.04</ele>
        <time>2019-05-26T14:19:59.000Z</time>
      </trkpt>
      <trkpt lat="44.90708" lon="4.86962">
        <ele>105.32</ele>
        <time>2019-05-26T14:20:04.000Z</time>
      </trkpt>
      <trkpt lat="44.90685" lon="4.86992">
        <ele>105.85</ele>
        <time>2019-05-26T14:20:09.000Z</time>
      </trkpt>
      <trkpt lat="44.9067" lon="4.87029">
        <ele>106.78</ele>
        <time>2019-05-26T14:20:14.000Z</time>
      </trkpt>
      <trkpt lat="44.90656" lon="4.87066">
        <ele>107.28</ele>
        <time>2019-05-26T14:20:19.000Z</time>
      </trkpt>
      <trkpt lat="44.90643" lon="4.87101">
        <ele>106.15</ele>
        <time>2019-05-26T14:20:24.000Z</time>
      </trkpt>
      <trkpt lat="44.90627" lon="4.87122">
        <ele>106.14</ele>
        <time>2019-05-26T14:20:29.000Z</time>
      </trkpt>
      <trkpt lat="44.9062" lon="4.87159">
        <ele>106.09</ele>
        <time>2019-05-26T14:20:34.000Z</time>
      </trkpt>
      <trkpt lat="44.90616" lon="4.87198">
        <ele>105.03</ele>
        <time>2019-05-26T14:20:39.000Z</time>
      </trkpt>
      <trkpt lat="44.90612" lon="4.87236">
        <ele>105.84</ele>
        <time>2019-05-26T14:20:44.000Z</time>
      </trkpt>
      <trkpt lat="44.90601" lon="4.87248">
        <ele>105.84</ele>
        <time>2019-05-26T14:20:49.000Z</time>
      </trkpt>
      <trkpt lat="44.90581" lon="4.87231">
        <ele>105.04</ele>
        <time>2019-05-26T14:20:54.000Z</time>
      </trkpt>
      <trkpt lat="44.90557" lon="4.87211">
        <ele>105.09</ele>
        <time>2019-05-26T14:20:59.000Z</time>
      </trkpt>
      <trkpt lat="44.90533" lon="4.8719">
        <ele>106.03</ele>
        <time>2019-05-26T14:21:04.000Z</time>
      </trkpt>
      <trkpt lat="44.90522" lon="4.87172">
        <ele>106.09</ele>
        <time>2019-05-26T14:21:09.000Z</time>
      </trkpt>
      <trkpt lat="44.90534" lon="4.87153">
        <ele>107.03</ele>
        <time>2019-05-26T14:21:14.000Z</time>
      </trkpt>
      <trkpt lat="44.90547" lon="4.87134">
        <ele>107.28</ele>
        <time>2019-05-26T14:21:19.000Z</time>
      </trkpt>
      <trkpt lat="44.90559" lon="4.87115">
        <ele>109.03</ele>
        <time>2019-05-26T14:21:24.000Z</time>
      </trkpt>
      <trkpt lat="44.9057" lon="4.87097">
        <ele>109.09</ele>
        <time>2019-05-26T14:21:29.000Z</time>
      </trkpt>
      <trkpt lat="44.90579" lon="4.87082">
        <ele>109.09</ele>
        <time>2019-05-26T14:21:34.000Z</time>
      </trkpt>
      <trkpt lat="44.90586" lon="4.87071">
        <ele>110.09</ele>
        <time>2019-05-26T14:21:39.000Z</time>
      </trkpt>
      <trkpt lat="44.90596" lon="4.87057">
        <ele>111.13</ele>
        <time>2019-05-26T14:21:44.000Z</time>
      </trkpt>
      <trkpt lat="44.90606" lon="4.87041">
        <ele>111.84</ele>
        <time>2019-05-26T14:21:49.000Z</time>
      </trkpt>
      <trkpt lat="44.90615" lon="4.87026">
        <ele>112.84</ele>
        <time>2019-05-26T14:21:54.000Z</time>
      </trkpt>
      <trkpt lat="44.90625" lon="4.8701">
        <ele>113.84</ele>
        <time>2019-05-26T14:21:59.000Z</time>
      </trkpt>
      <trkpt lat="44.90636" lon="4.86995">
        <ele>113.09</ele>
        <time>2019-05-26T14:22:04.000Z</time>
      </trkpt>
      <trkpt lat="44.90646" lon="4.8698">
        <ele>114.04</ele>
        <time>2019-05-26T14:22:09.000Z</time>
      </trkpt>
      <trkpt lat="44.90654" lon="4.86965">
        <ele>115.03</ele>
        <time>2019-05-26T14:22:14.000Z</time>
      </trkpt>
      <trkpt lat="44.90663" lon="4.8695">
        <ele>115.1</ele>
        <time>2019-05-26T14:22:19.000Z</time>
      </trkpt>
      <trkpt lat="44.90672" lon="4.86936">
        <ele>117.02</ele>
        <time>2019-05-26T14:22:24.000Z</time>
      </trkpt>
      <trkpt lat="44.90681" lon="4.86921">
        <ele>118.82</ele>
        <time>2019-05-26T14:22:29.000Z</time>
      </trkpt>
      <trkpt lat="44.9069" lon="4.86907">
        <ele>119.84</ele>
        <time>2019-05-26T14:22:34.000Z</time>
      </trkpt>
      <trkpt lat="44.90699" lon="4.86891">
        <ele>120.09</ele>
        <time>2019-05-26T14:22:39.000Z</time>
      </trkpt>
      <trkpt lat="44.90708" lon="4.86877">
        <ele>121.03</ele>
        <time>2019-05-26T14:22:44.000Z</time>
      </trkpt>
      <trkpt lat="44.90717" lon="4.86862">
        <ele>120.15</ele>
        <time>2019-05-26T14:22:49.000Z</time>
      </trkpt>
      <trkpt lat="44.90727" lon="4.86846">
        <ele>121.09</ele>
        <time>2019-05-26T14:22:54.000Z</time>
      </trkpt>
      <trkpt lat="44.90736" lon="4.8683">
        <ele>121.03</ele>
        <time>2019-05-26T14:22:59.000Z</time>
      </trkpt>
      <trkpt lat="44.90746" lon="4.86813">
        <ele>120.34</ele>
        <time>2019-05-26T14:23:04.000Z</time>
      </trkpt>
      <trkpt lat="44.90756" lon="4.86795">
        <ele>122.02</ele>
        <time>2019-05-26T14:23:09.000Z</time>
      </trkpt>
      <trkpt lat="44.90767" lon="4.86777">
        <ele>123.03</ele>
        <time>2019-05-26T14:23:14.000Z</time>
      </trkpt>
      <trkpt lat="44.90777" lon="4.8676">
        <ele>123.84</ele>
        <time>2019-05-26T14:23:19.000Z</time>
      </trkpt>
      <trkpt lat="44.90789" lon="4.86742">
        <ele>124.03</ele>
        <time>2019-05-26T14:23:24.000Z</time>
      </trkpt>
      <trkpt lat="44.90803" lon="4.86722">
        <ele>125.07</ele>
        <time>2019-05-26T14:23:29.000Z</time>
      </trkpt>
      <trkpt lat="44.90816" lon="4.86701">
        <ele>124.14</ele>
        <time>2019-05-26T14:23:34.000Z</time>
      </trkpt>
      <trkpt lat="44.90829" lon="4.8668">
        <ele>124.09</ele>
        <time>2019-05-26T14:23:39.000Z</time>
      </trkpt>
      <trkpt lat="44.90842" lon="4.86658">
        <ele>124.15</ele>
        <time>2019-05-26T14:23:44.000Z</time>
      </trkpt>
      <trkpt lat="44.90857" lon="4.86635">
        <ele>124.09</ele>
        <time>2019-05-26T14:23:52.000Z</time>
      </trkpt>
      <trkpt lat="44.90872" lon="4.8661">
        <ele>124.09</ele>
        <time>2019-05-26T14:23:57.000Z</time>
      </trkpt>
      <trkpt lat="44.90888" lon="4.86585">
        <ele>123.1</ele>
        <time>2019-05-26T14:24:04.000Z</time>
      </trkpt>
      <trkpt lat="44.90905" lon="4.86557">
        <ele>123.04</ele>
        <time>2019-05-26T14:24:20.000Z</time>
      </trkpt>
      <trkpt lat="44.90924" lon="4.86529">
        <ele>121.15</ele>
        <time>2019-05-26T14:32:15.000Z</time>
      </trkpt>
      <trkpt lat="44.90944" lon="4.86499">
        <ele>120.09</ele>
        <time>2019-05-26T14:32:31.000Z</time>
      </trkpt>
      <trkpt lat="44.90965" lon="4.86465">
        <ele>119.14</ele>
        <time>2019-05-26T14:33:06.000Z</time>
      </trkpt>
      <trkpt lat="44.90989" lon="4.86432">
        <ele>117.34</ele>
        <time>2019-05-26T14:33:16.000Z</time>
      </trkpt>
      <trkpt lat="44.91017" lon="4.86396">
        <ele>116.29</ele>
        <time>2019-05-26T14:33:34.000Z</time>
      </trkpt>
      <trkpt lat="44.9105" lon="4.86358">
        <ele>112.35</ele>
        <time>2019-05-26T14:33:52.000Z</time>
      </trkpt>
      <trkpt lat="44.91085" lon="4.86333">
        <ele>111.09</ele>
        <time>2019-05-26T14:33:58.000Z</time>
      </trkpt>
      <trkpt lat="44.91118" lon="4.86313">
        <ele>109.15</ele>
        <time>2019-05-26T14:34:04.000Z</time>
      </trkpt>
      <trkpt lat="44.91151" lon="4.86297">
        <ele>108.09</ele>
        <time>2019-05-26T14:34:16.000Z</time>
      </trkpt>
      <trkpt lat="44.91183" lon="4.86286">
        <ele>106.34</ele>
        <time>2019-05-26T14:34:21.000Z</time>
      </trkpt>
      <trkpt lat="44.91214" lon="4.8628">
        <ele>106.09</ele>
        <time>2019-05-26T14:34:28.000Z</time>
      </trkpt>
      <trkpt lat="44.91244" lon="4.86276">
        <ele>107.01</ele>
        <time>2019-05-26T14:34:33.000Z</time>
      </trkpt>
      <trkpt lat="44.91269" lon="4.86276">
        <ele>106.09</ele>
        <time>2019-05-26T14:35:45.000Z</time>
      </trkpt>
      <trkpt lat="44.91293" lon="4.8628">
        <ele>106.34</ele>
        <time>2019-05-26T14:35:50.000Z</time>
      </trkpt>
      <trkpt lat="44.91314" lon="4.86285">
        <ele>105.4</ele>
        <time>2019-05-26T14:35:55.000Z</time>
      </trkpt>
      <trkpt lat="44.91335" lon="4.86291">
        <ele>106.03</ele>
        <time>2019-05-26T14:36:00.000Z</time>
      </trkpt>
      <trkpt lat="44.91353" lon="4.86295">
        <ele>107.08</ele>
        <time>2019-05-26T14:36:05.000Z</time>
      </trkpt>
      <trkpt lat="44.91372" lon="4.86301">
        <ele>106.84</ele>
        <time>2019-05-26T14:36:10.000Z</time>
      </trkpt>
      <trkpt lat="44.91391" lon="4.86306">
        <ele>107.78</ele>
        <time>2019-05-26T14:36:15.000Z</time>
      </trkpt>
      <trkpt lat="44.91411" lon="4.86312">
        <ele>108.09</ele>
        <time>2019-05-26T14:36:21.000Z</time>
      </trkpt>
      <trkpt lat="44.91431" lon="4.86317">
        <ele>109.09</ele>
        <time>2019-05-26T14:36:27.000Z</time>
      </trkpt>
      <trkpt lat="44.91449" lon="4.86322">
        <ele>109.07</ele>
        <time>2019-05-26T14:36:33.000Z</time>
      </trkpt>
      <trkpt lat="44.91468" lon="4.86326">
        <ele>109.14</ele>
        <time>2019-05-26T14:36:39.000Z</time>
      </trkpt>
      <trkpt lat="44.91486" lon="4.86331">
        <ele>108.11</ele>
        <time>2019-05-26T14:36:44.000Z</time>
      </trkpt>
      <trkpt lat="44.91505" lon="4.86335">
        <ele>107.84</ele>
        <time>2019-05-26T14:36:49.000Z</time>
      </trkpt>
      <trkpt lat="44.91524" lon="4.8634">
        <ele>109.09</ele>
        <time>2019-05-26T14:36:54.000Z</time>
      </trkpt>
      <trkpt lat="44.91543" lon="4.86345">
        <ele>109.09</ele>
        <time>2019-05-26T14:36:59.000Z</time>
      </trkpt>
      <trkpt lat="44.91562" lon="4.86351">
        <ele>109.09</ele>
        <time>2019-05-26T14:37:04.000Z</time>
      </trkpt>
      <trkpt lat="44.91582" lon="4.86353">
        <ele>109.09</ele>
        <time>2019-05-26T14:37:09.000Z</time>
      </trkpt>
      <trkpt lat="44.91603" lon="4.86355">
        <ele>108.84</ele>
        <time>2019-05-26T14:37:14.000Z</time>
      </trkpt>
      <trkpt lat="44.91624" lon="4.86356">
        <ele>108.9</ele>
        <time>2019-05-26T14:37:19.000Z</time>
      </trkpt>
      <trkpt lat="44.91644" lon="4.86356">
        <ele>108.29</ele>
        <time>2019-05-26T14:37:24.000Z</time>
      </trkpt>
      <trkpt lat="44.91663" lon="4.86353">
        <ele>109.08</ele>
        <time>2019-05-26T14:37:54.000Z</time>
      </trkpt>
      <trkpt lat="44.91675" lon="4.8635">
        <ele>109.09</ele>
        <time>2019-05-26T14:38:04.000Z</time>
      </trkpt>
      <trkpt lat="44.91667" lon="4.86359">
        <ele>109.83</ele>
        <time>2019-05-26T14:38:15.000Z</time>
      </trkpt>
      <trkpt lat="44.91648" lon="4.86361">
        <ele>109.11</ele>
        <time>2019-05-26T14:38:20.000Z</time>
      </trkpt>
      <trkpt lat="44.91626" lon="4.86374">
        <ele>107.36</ele>
        <time>2019-05-26T14:38:25.000Z</time>
      </trkpt>
      <trkpt lat="44.91595" lon="4.86379">
        <ele>105.16</ele>
        <time>2019-05-26T14:38:45.000Z</time>
      </trkpt>
      <trkpt lat="44.91562" lon="4.86376">
        <ele>104.11</ele>
        <time>2019-05-26T14:39:03.000Z</time>
      </trkpt>
      <trkpt lat="44.91528" lon="4.86375">
        <ele>103.09</ele>
        <time>2019-05-26T14:39:08.000Z</time>
      </trkpt>
      <trkpt lat="44.91497" lon="4.86394">
        <ele>103.09</ele>
        <time>2019-05-26T14:39:13.000Z</time>
      </trkpt>
      <trkpt lat="44.91466" lon="4.86407">
        <ele>102.09</ele>
        <time>2019-05-26T14:39:18.000Z</time>
      </trkpt>
      <trkpt lat="44.91436" lon="4.86392">
        <ele>101.05</ele>
        <time>2019-05-26T14:39:23.000Z</time>
      </trkpt>
      <trkpt lat="44.91403" lon="4.86385">
        <ele>102.84</ele>
        <time>2019-05-26T14:39:28.000Z</time>
      </trkpt>
      <trkpt lat="44.91372" lon="4.86385">
        <ele>102.1</ele>
        <time>2019-05-26T14:39:33.000Z</time>
      </trkpt>
      <trkpt lat="44.91344" lon="4.86375">
        <ele>102.09</ele>
        <time>2019-05-26T14:39:38.000Z</time>
      </trkpt>
      <trkpt lat="44.91318" lon="4.86354">
        <ele>102.09</ele>
        <time>2019-05-26T14:39:43.000Z</time>
      </trkpt>
      <trkpt lat="44.91289" lon="4.86341">
        <ele>103.09</ele>
        <time>2019-05-26T14:39:48.000Z</time>
      </trkpt>
      <trkpt lat="44.91259" lon="4.8634">
        <ele>104.08</ele>
        <time>2019-05-26T14:39:53.000Z</time>
      </trkpt>
      <trkpt lat="44.9123" lon="4.86336">
        <ele>103.34</ele>
        <time>2019-05-26T14:39:58.000Z</time>
      </trkpt>
      <trkpt lat="44.91196" lon="4.86334">
        <ele>103.84</ele>
        <time>2019-05-26T14:40:03.000Z</time>
      </trkpt>
      <trkpt lat="44.91163" lon="4.86331">
        <ele>103.15</ele>
        <time>2019-05-26T14:40:08.000Z</time>
      </trkpt>
      <trkpt lat="44.91146" lon="4.86361">
        <ele>104.03</ele>
        <time>2019-05-26T14:40:13.000Z</time>
      </trkpt>
      <trkpt lat="44.91135" lon="4.86402">
        <ele>103.85</ele>
        <time>2019-05-26T14:40:18.000Z</time>
      </trkpt>
      <trkpt lat="44.91117" lon="4.86431">
        <ele>104.09</ele>
        <time>2019-05-26T14:40:23.000Z</time>
      </trkpt>
      <trkpt lat="44.91096" lon="4.86444">
        <ele>105.08</ele>
        <time>2019-05-26T14:40:28.000Z</time>
      </trkpt>
      <trkpt lat="44.91074" lon="4.86452">
        <ele>105.84</ele>
        <time>2019-05-26T14:40:33.000Z</time>
      </trkpt>
      <trkpt lat="44.9106" lon="4.86444">
        <ele>106.13</ele>
        <time>2019-05-26T14:40:38.000Z</time>
      </trkpt>
      <trkpt lat="44.91049" lon="4.8642">
        <ele>105.34</ele>
        <time>2019-05-26T14:40:43.000Z</time>
      </trkpt>
      <trkpt lat="44.91035" lon="4.86389">
        <ele>104.34</ele>
        <time>2019-05-26T14:40:48.000Z</time>
      </trkpt>
      <trkpt lat="44.91023" lon="4.8636">
        <ele>104.09</ele>
        <time>2019-05-26T14:40:53.000Z</time>
      </trkpt>
      <trkpt lat="44.91017" lon="4.86334">
        <ele>105.79</ele>
        <time>2019-05-26T14:40:58.000Z</time>
      </trkpt>
      <trkpt lat="44.91017" lon="4.86349">
        <ele>106.1</ele>
        <time>2019-05-26T14:41:03.000Z</time>
      </trkpt>
      <trkpt lat="44.9103" lon="4.86346">
        <ele>103.4</ele>
        <time>2019-05-26T14:41:08.000Z</time>
      </trkpt>
      <trkpt lat="44.91039" lon="4.86342">
        <ele>104.08</ele>
        <time>2019-05-26T14:41:13.000Z</time>
      </trkpt>
      <trkpt lat="44.91031" lon="4.86338">
        <ele>101.35</ele>
        <time>2019-05-26T14:41:18.000Z</time>
      </trkpt>
      <trkpt lat="44.91036" lon="4.8635">
        <ele>104.1</ele>
        <time>2019-05-26T14:41:23.000Z</time>
      </trkpt>
      <trkpt lat="44.91031" lon="4.86338">
        <ele>108.21</ele>
        <time>2019-05-26T14:41:28.000Z</time>
      </trkpt>
      <trkpt lat="44.91041" lon="4.86334">
        <ele>103.84</ele>
        <time>2019-05-26T14:41:33.000Z</time>
      </trkpt>
      <trkpt lat="44.9105" lon="4.86333">
        <ele>102.09</ele>
        <time>2019-05-26T14:41:38.000Z</time>
      </trkpt>
      <trkpt lat="44.91051" lon="4.86346">
        <ele>109.33</ele>
        <time>2019-05-26T14:41:43.000Z</time>
      </trkpt>
      <trkpt lat="44.91056" lon="4.86334">
        <ele>108.15</ele>
        <time>2019-05-26T14:41:48.000Z</time>
      </trkpt>
      <trkpt lat="44.91054" lon="4.8632">
        <ele>105.81</ele>
        <time>2019-05-26T14:41:53.000Z</time>
      </trkpt>
      <trkpt lat="44.91063" lon="4.86316">
        <ele>107.02</ele>
        <time>2019-05-26T14:41:58.000Z</time>
      </trkpt>
      <trkpt lat="44.91054" lon="4.86318">
        <ele>104.96</ele>
        <time>2019-05-26T14:42:03.000Z</time>
      </trkpt>
      <trkpt lat="44.91044" lon="4.8632">
        <ele>104.4</ele>
        <time>2019-05-26T14:42:08.000Z</time>
      </trkpt>
      <trkpt lat="44.91034" lon="4.86326">
        <ele>103.9</ele>
        <time>2019-05-26T14:42:13.000Z</time>
      </trkpt>
      <trkpt lat="44.9103" lon="4.86342">
        <ele>104.83</ele>
        <time>2019-05-26T14:42:18.000Z</time>
      </trkpt>
      <trkpt lat="44.9104" lon="4.86352">
        <ele>98.43</ele>
        <time>2019-05-26T14:42:23.000Z</time>
      </trkpt>
      <trkpt lat="44.91045" lon="4.86374">
        <ele>98.1</ele>
        <time>2019-05-26T14:42:28.000Z</time>
      </trkpt>
      <trkpt lat="44.91036" lon="4.8638">
        <ele>98.1</ele>
        <time>2019-05-26T14:42:33.000Z</time>
      </trkpt>
      <trkpt lat="44.91029" lon="4.86368">
        <ele>97.67</ele>
        <time>2019-05-26T14:42:38.000Z</time>
      </trkpt>
      <trkpt lat="44.9102" lon="4.86352">
        <ele>100.02</ele>
        <time>2019-05-26T14:42:43.000Z</time>
      </trkpt>
      <trkpt lat="44.91007" lon="4.86366">
        <ele>101.89</ele>
        <time>2019-05-26T14:42:48.000Z</time>
      </trkpt>
      <trkpt lat="44.90996" lon="4.86379">
        <ele>103.08</ele>
        <time>2019-05-26T14:42:53.000Z</time>
      </trkpt>
      <trkpt lat="44.90989" lon="4.86388">
        <ele>105.02</ele>
        <time>2019-05-26T14:42:58.000Z</time>
      </trkpt>
      <trkpt lat="44.90982" lon="4.86398">
        <ele>105.03</ele>
        <time>2019-05-26T14:43:03.000Z</time>
      </trkpt>
      <trkpt lat="44.90976" lon="4.86409">
        <ele>104.09</ele>
        <time>2019-05-26T14:43:08.000Z</time>
      </trkpt>
      <trkpt lat="44.9097" lon="4.86399">
        <ele>104.07</ele>
        <time>2019-05-26T14:43:13.000Z</time>
      </trkpt>
      <trkpt lat="44.90976" lon="4.86384">
        <ele>106.02</ele>
        <time>2019-05-26T14:43:18.000Z</time>
      </trkpt>
      <trkpt lat="44.90988" lon="4.86369">
        <ele>106.08</ele>
        <time>2019-05-26T14:43:23.000Z</time>
      </trkpt>
      <trkpt lat="44.91" lon="4.86351">
        <ele>106.09</ele>
        <time>2019-05-26T14:43:28.000Z</time>
      </trkpt>
      <trkpt lat="44.9101" lon="4.86332">
        <ele>106.09</ele>
        <time>2019-05-26T14:43:33.000Z</time>
      </trkpt>
      <trkpt lat="44.91005" lon="4.86311">
        <ele>106.09</ele>
        <time>2019-05-26T14:43:38.000Z</time>
      </trkpt>
      <trkpt lat="44.90996" lon="4.86289">
        <ele>105.4</ele>
        <time>2019-05-26T14:43:43.000Z</time>
      </trkpt>
      <trkpt lat="44.90985" lon="4.86262">
        <ele>104.15</ele>
        <time>2019-05-26T14:43:48.000Z</time>
      </trkpt>
      <trkpt lat="44.90975" lon="4.86241">
        <ele>103.34</ele>
        <time>2019-05-26T14:43:53.000Z</time>
      </trkpt>
      <trkpt lat="44.90967" lon="4.86248">
        <ele>102.34</ele>
        <time>2019-05-26T14:43:58.000Z</time>
      </trkpt>
      <trkpt lat="44.90961" lon="4.86257">
        <ele>104.79</ele>
        <time>2019-05-26T14:44:03.000Z</time>
      </trkpt>
      <trkpt lat="44.90962" lon="4.86244">
        <ele>104.84</ele>
        <time>2019-05-26T14:44:08.000Z</time>
      </trkpt>
      <trkpt lat="44.90952" lon="4.8624">
        <ele>106.07</ele>
        <time>2019-05-26T14:44:13.000Z</time>
      </trkpt>
      <trkpt lat="44.90942" lon="4.86234">
        <ele>104.35</ele>
        <time>2019-05-26T14:44:18.000Z</time>
      </trkpt>
      <trkpt lat="44.90932" lon="4.86233">
        <ele>102.14</ele>
        <time>2019-05-26T14:44:23.000Z</time>
      </trkpt>
      <trkpt lat="44.90941" lon="4.86232">
        <ele>102.31</ele>
        <time>2019-05-26T14:44:28.000Z</time>
      </trkpt>
      <trkpt lat="44.9095" lon="4.86239">
        <ele>103.14</ele>
        <time>2019-05-26T14:44:33.000Z</time>
      </trkpt>
      <trkpt lat="44.90964" lon="4.86245">
        <ele>103.09</ele>
        <time>2019-05-26T14:44:38.000Z</time>
      </trkpt>
      <trkpt lat="44.90973" lon="4.86234">
        <ele>103.1</ele>
        <time>2019-05-26T14:44:43.000Z</time>
      </trkpt>
      <trkpt lat="44.90971" lon="4.86202">
        <ele>103.82</ele>
        <time>2019-05-26T14:44:48.000Z</time>
      </trkpt>
      <trkpt lat="44.90971" lon="4.86165">
        <ele>104.33</ele>
        <time>2019-05-26T14:44:53.000Z</time>
      </trkpt>
      <trkpt lat="44.90973" lon="4.86129">
        <ele>104.09</ele>
        <time>2019-05-26T14:44:58.000Z</time>
      </trkpt>
      <trkpt lat="44.90974" lon="4.86097">
        <ele>105.89</ele>
        <time>2019-05-26T14:45:03.000Z</time>
      </trkpt>
      <trkpt lat="44.90978" lon="4.86065">
        <ele>106.58</ele>
        <time>2019-05-26T14:45:08.000Z</time>
      </trkpt>
      <trkpt lat="44.90978" lon="4.86025">
        <ele>105.29</ele>
        <time>2019-05-26T14:45:13.000Z</time>
      </trkpt>
      <trkpt lat="44.90978" lon="4.85989">
        <ele>106.13</ele>
        <time>2019-05-26T14:45:18.000Z</time>
      </trkpt>
      <trkpt lat="44.90984" lon="4.85951">
        <ele>105.03</ele>
        <time>2019-05-26T14:45:23.000Z</time>
      </trkpt>
      <trkpt lat="44.90985" lon="4.8591">
        <ele>104.08</ele>
        <time>2019-05-26T14:45:28.000Z</time>
      </trkpt>
      <trkpt lat="44.90986" lon="4.85872">
        <ele>104.21</ele>
        <time>2019-05-26T14:45:33.000Z</time>
      </trkpt>
      <trkpt lat="44.90989" lon="4.85837">
        <ele>104.02</ele>
        <time>2019-05-26T14:45:38.000Z</time>
      </trkpt>
      <trkpt lat="44.90991" lon="4.85796">
        <ele>104.08</ele>
        <time>2019-05-26T14:45:43.000Z</time>
      </trkpt>
      <trkpt lat="44.90991" lon="4.85754">
        <ele>103.08</ele>
        <time>2019-05-26T14:45:48.000Z</time>
      </trkpt>
      <trkpt lat="44.90993" lon="4.85714">
        <ele>106.19</ele>
        <time>2019-05-26T14:45:53.000Z</time>
      </trkpt>
      <trkpt lat="44.90995" lon="4.85676">
        <ele>106.27</ele>
        <time>2019-05-26T14:45:58.000Z</time>
      </trkpt>
      <trkpt lat="44.90998" lon="4.85636">
        <ele>106.1</ele>
        <time>2019-05-26T14:46:03.000Z</time>
      </trkpt>
      <trkpt lat="44.91003" lon="4.856">
        <ele>105.13</ele>
        <time>2019-05-26T14:46:08.000Z</time>
      </trkpt>
      <trkpt lat="44.91011" lon="4.8557">
        <ele>105.08</ele>
        <time>2019-05-26T14:46:13.000Z</time>
      </trkpt>
      <trkpt lat="44.9102" lon="4.8554">
        <ele>106.02</ele>
        <time>2019-05-26T14:46:18.000Z</time>
      </trkpt>
      <trkpt lat="44.9103" lon="4.85509">
        <ele>105.08</ele>
        <time>2019-05-26T14:46:23.000Z</time>
      </trkpt>
      <trkpt lat="44.91034" lon="4.85489">
        <ele>107.25</ele>
        <time>2019-05-26T14:46:28.000Z</time>
      </trkpt>
      <trkpt lat="44.91016" lon="4.85475">
        <ele>105.34</ele>
        <time>2019-05-26T14:46:33.000Z</time>
      </trkpt>
      <trkpt lat="44.90992" lon="4.8546">
        <ele>105.08</ele>
        <time>2019-05-26T14:46:38.000Z</time>
      </trkpt>
      <trkpt lat="44.90967" lon="4.85443">
        <ele>104.13</ele>
        <time>2019-05-26T14:46:43.000Z</time>
      </trkpt>
      <trkpt lat="44.90939" lon="4.85424">
        <ele>102.1</ele>
        <time>2019-05-26T14:46:48.000Z</time>
      </trkpt>
      <trkpt lat="44.90912" lon="4.8541">
        <ele>102.08</ele>
        <time>2019-05-26T14:46:53.000Z</time>
      </trkpt>
      <trkpt lat="44.90883" lon="4.85402">
        <ele>104.01</ele>
        <time>2019-05-26T14:46:58.000Z</time>
      </trkpt>
      <trkpt lat="44.90855" lon="4.85394">
        <ele>103.03</ele>
        <time>2019-05-26T14:47:03.000Z</time>
      </trkpt>
      <trkpt lat="44.90828" lon="4.85389">
        <ele>104.02</ele>
        <time>2019-05-26T14:47:08.000Z</time>
      </trkpt>
      <trkpt lat="44.908" lon="4.85385">
        <ele>106.62</ele>
        <time>2019-05-26T14:47:13.000Z</time>
      </trkpt>
      <trkpt lat="44.90768" lon="4.85381">
        <ele>105.08</ele>
        <time>2019-05-26T14:47:18.000Z</time>
      </trkpt>
      <trkpt lat="44.90741" lon="4.85374">
        <ele>106.08</ele>
        <time>2019-05-26T14:47:23.000Z</time>
      </trkpt>
      <trkpt lat="44.90715" lon="4.85372">
        <ele>106.09</ele>
        <time>2019-05-26T14:47:28.000Z</time>
      </trkpt>
      <trkpt lat="44.90683" lon="4.85371">
        <ele>104.14</ele>
        <time>2019-05-26T14:47:33.000Z</time>
      </trkpt>
      <trkpt lat="44.90649" lon="4.85375">
        <ele>103.08</ele>
        <time>2019-05-26T14:47:38.000Z</time>
      </trkpt>
      <trkpt lat="44.90616" lon="4.85374">
        <ele>105.75</ele>
        <time>2019-05-26T14:47:43.000Z</time>
      </trkpt>
      <trkpt lat="44.90586" lon="4.85371">
        <ele>106.87</ele>
        <time>2019-05-26T14:47:48.000Z</time>
      </trkpt>
      <trkpt lat="44.90562" lon="4.8537">
        <ele>107.07</ele>
        <time>2019-05-26T14:47:53.000Z</time>
      </trkpt>
      <trkpt lat="44.90537" lon="4.85369">
        <ele>108.08</ele>
        <time>2019-05-26T14:47:58.000Z</time>
      </trkpt>
      <trkpt lat="44.9051" lon="4.85368">
        <ele>108.08</ele>
        <time>2019-05-26T14:48:03.000Z</time>
      </trkpt>
      <trkpt lat="44.90482" lon="4.85364">
        <ele>107.09</ele>
        <time>2019-05-26T14:48:08.000Z</time>
      </trkpt>
      <trkpt lat="44.90452" lon="4.85361">
        <ele>108.07</ele>
        <time>2019-05-26T14:48:13.000Z</time>
      </trkpt>
      <trkpt lat="44.90422" lon="4.85356">
        <ele>107.08</ele>
        <time>2019-05-26T14:48:18.000Z</time>
      </trkpt>
      <trkpt lat="44.90391" lon="4.8535">
        <ele>108.07</ele>
        <time>2019-05-26T14:48:23.000Z</time>
      </trkpt>
      <trkpt lat="44.90361" lon="4.85342">
        <ele>108.31</ele>
        <time>2019-05-26T14:48:28.000Z</time>
      </trkpt>
      <trkpt lat="44.9033" lon="4.85331">
        <ele>108.28</ele>
        <time>2019-05-26T14:48:33.000Z</time>
      </trkpt>
      <trkpt lat="44.903" lon="4.8532">
        <ele>108.08</ele>
        <time>2019-05-26T14:48:38.000Z</time>
      </trkpt>
      <trkpt lat="44.90266" lon="4.85308">
        <ele>107.09</ele>
        <time>2019-05-26T14:48:43.000Z</time>
      </trkpt>
      <trkpt lat="44.90233" lon="4.85293">
        <ele>106.33</ele>
        <time>2019-05-26T14:48:48.000Z</time>
      </trkpt>
      <trkpt lat="44.90201" lon="4.8528">
        <ele>106.08</ele>
        <time>2019-05-26T14:48:53.000Z</time>
      </trkpt>
      <trkpt lat="44.90168" lon="4.85266">
        <ele>104.15</ele>
        <time>2019-05-26T14:48:58.000Z</time>
      </trkpt>
      <trkpt lat="44.90131" lon="4.85253">
        <ele>104.07</ele>
        <time>2019-05-26T14:49:03.000Z</time>
      </trkpt>
      <trkpt lat="44.90096" lon="4.85246">
        <ele>105.26</ele>
        <time>2019-05-26T14:49:08.000Z</time>
      </trkpt>
      <trkpt lat="44.90059" lon="4.85237">
        <ele>104.89</ele>
        <time>2019-05-26T14:49:13.000Z</time>
      </trkpt>
      <trkpt lat="44.90024" lon="4.85231">
        <ele>104.09</ele>
        <time>2019-05-26T14:49:18.000Z</time>
      </trkpt>
      <trkpt lat="44.89988" lon="4.85227">
        <ele>104.08</ele>
        <time>2019-05-26T14:49:23.000Z</time>
      </trkpt>
      <trkpt lat="44.89952" lon="4.85222">
        <ele>104.32</ele>
        <time>2019-05-26T14:49:28.000Z</time>
      </trkpt>
      <trkpt lat="44.89915" lon="4.85219">
        <ele>103.33</ele>
        <time>2019-05-26T14:49:33.000Z</time>
      </trkpt>
      <trkpt lat="44.8988" lon="4.85215">
        <ele>104.01</ele>
        <time>2019-05-26T14:49:38.000Z</time>
      </trkpt>
      <trkpt lat="44.89845" lon="4.85213">
        <ele>103.26</ele>
        <time>2019-05-26T14:49:43.000Z</time>
      </trkpt>
      <trkpt lat="44.8981" lon="4.85209">
        <ele>104.06</ele>
        <time>2019-05-26T14:49:48.000Z</time>
      </trkpt>
      <trkpt lat="44.89774" lon="4.85205">
        <ele>103.08</ele>
        <time>2019-05-26T14:49:53.000Z</time>
      </trkpt>
      <trkpt lat="44.89738" lon="4.85202">
        <ele>103.07</ele>
        <time>2019-05-26T14:49:58.000Z</time>
      </trkpt>
      <trkpt lat="44.89702" lon="4.85197">
        <ele>102.32</ele>
        <time>2019-05-26T14:50:03.000Z</time>
      </trkpt>
      <trkpt lat="44.89666" lon="4.85194">
        <ele>102.82</ele>
        <time>2019-05-26T14:50:08.000Z</time>
      </trkpt>
      <trkpt lat="44.8963" lon="4.85192">
        <ele>104.06</ele>
        <time>2019-05-26T14:50:13.000Z</time>
      </trkpt>
      <trkpt lat="44.89595" lon="4.85188">
        <ele>104.07</ele>
        <time>2019-05-26T14:50:18.000Z</time>
      </trkpt>
      <trkpt lat="44.8956" lon="4.85184">
        <ele>104.08</ele>
        <time>2019-05-26T14:50:23.000Z</time>
      </trkpt>
      <trkpt lat="44.89524" lon="4.85182">
        <ele>105.02</ele>
        <time>2019-05-26T14:50:28.000Z</time>
      </trkpt>
      <trkpt lat="44.8949" lon="4.85176">
        <ele>106.99</ele>
        <time>2019-05-26T14:50:33.000Z</time>
      </trkpt>
      <trkpt lat="44.89457" lon="4.85176">
        <ele>107.07</ele>
        <time>2019-05-26T14:50:38.000Z</time>
      </trkpt>
      <trkpt lat="44.89422" lon="4.85175">
        <ele>106.82</ele>
        <time>2019-05-26T14:50:43.000Z</time>
      </trkpt>
      <trkpt lat="44.89386" lon="4.85175">
        <ele>107.26</ele>
        <time>2019-05-26T14:50:48.000Z</time>
      </trkpt>
      <trkpt lat="44.89347" lon="4.85173">
        <ele>107.32</ele>
        <time>2019-05-26T14:50:53.000Z</time>
      </trkpt>
      <trkpt lat="44.89305" lon="4.8517">
        <ele>105.32</ele>
        <time>2019-05-26T14:50:58.000Z</time>
      </trkpt>
      <trkpt lat="44.89264" lon="4.85172">
        <ele>105.07</ele>
        <time>2019-05-26T14:51:03.000Z</time>
      </trkpt>
      <trkpt lat="44.89226" lon="4.85176">
        <ele>104.32</ele>
        <time>2019-05-26T14:51:08.000Z</time>
      </trkpt>
      <trkpt lat="44.89189" lon="4.85185">
        <ele>103.32</ele>
        <time>2019-05-26T14:51:13.000Z</time>
      </trkpt>
      <trkpt lat="44.89152" lon="4.85192">
        <ele>101.38</ele>
        <time>2019-05-26T14:51:18.000Z</time>
      </trkpt>
      <trkpt lat="44.89116" lon="4.852">
        <ele>101.08</ele>
        <time>2019-05-26T14:51:23.000Z</time>
      </trkpt>
      <trkpt lat="44.89081" lon="4.8521">
        <ele>102.07</ele>
        <time>2019-05-26T14:51:28.000Z</time>
      </trkpt>
      <trkpt lat="44.89048" lon="4.85217">
        <ele>102.07</ele>
        <time>2019-05-26T14:51:33.000Z</time>
      </trkpt>
      <trkpt lat="44.89016" lon="4.85224">
        <ele>102.07</ele>
        <time>2019-05-26T14:51:38.000Z</time>
      </trkpt>
      <trkpt lat="44.88993" lon="4.85228">
        <ele>102.01</ele>
        <time>2019-05-26T14:51:43.000Z</time>
      </trkpt>
      <trkpt lat="44.88973" lon="4.85233">
        <ele>104.05</ele>
        <time>2019-05-26T14:51:48.000Z</time>
      </trkpt>
      <trkpt lat="44.88958" lon="4.85236">
        <ele>104.07</ele>
        <time>2019-05-26T14:51:53.000Z</time>
      </trkpt>
      <trkpt lat="44.88939" lon="4.85243">
        <ele>104.83</ele>
        <time>2019-05-26T14:51:58.000Z</time>
      </trkpt>
      <trkpt lat="44.88917" lon="4.85247">
        <ele>104.08</ele>
        <time>2019-05-26T14:52:03.000Z</time>
      </trkpt>
      <trkpt lat="44.88896" lon="4.85253">
        <ele>104.11</ele>
        <time>2019-05-26T14:52:08.000Z</time>
      </trkpt>
      <trkpt lat="44.88875" lon="4.85265">
        <ele>104.07</ele>
        <time>2019-05-26T14:52:13.000Z</time>
      </trkpt>
      <trkpt lat="44.88854" lon="4.85275">
        <ele>102.9</ele>
        <time>2019-05-26T14:52:18.000Z</time>
      </trkpt>
      <trkpt lat="44.8883" lon="4.85286">
        <ele>102.08</ele>
        <time>2019-05-26T14:52:23.000Z</time>
      </trkpt>
      <trkpt lat="44.88805" lon="4.853">
        <ele>101.13</ele>
        <time>2019-05-26T14:52:28.000Z</time>
      </trkpt>
      <trkpt lat="44.8878" lon="4.85313">
        <ele>101.07</ele>
        <time>2019-05-26T14:52:33.000Z</time>
      </trkpt>
      <trkpt lat="44.88755" lon="4.85326">
        <ele>101.06</ele>
        <time>2019-05-26T14:52:38.000Z</time>
      </trkpt>
      <trkpt lat="44.88731" lon="4.85337">
        <ele>102.87</ele>
        <time>2019-05-26T14:52:43.000Z</time>
      </trkpt>
      <trkpt lat="44.8871" lon="4.85351">
        <ele>101.38</ele>
        <time>2019-05-26T14:52:48.000Z</time>
      </trkpt>
      <trkpt lat="44.88687" lon="4.85364">
        <ele>103.8</ele>
        <time>2019-05-26T14:52:53.000Z</time>
      </trkpt>
      <trkpt lat="44.88665" lon="4.85379">
        <ele>103.5</ele>
        <time>2019-05-26T14:52:58.000Z</time>
      </trkpt>
      <trkpt lat="44.88642" lon="4.85392">
        <ele>105.99</ele>
        <time>2019-05-26T14:53:03.000Z</time>
      </trkpt>
      <trkpt lat="44.88618" lon="4.85409">
        <ele>104.09</ele>
        <time>2019-05-26T14:53:08.000Z</time>
      </trkpt>
      <trkpt lat="44.88594" lon="4.85426">
        <ele>102.38</ele>
        <time>2019-05-26T14:53:13.000Z</time>
      </trkpt>
      <trkpt lat="44.8857" lon="4.85443">
        <ele>102.06</ele>
        <time>2019-05-26T14:53:18.000Z</time>
      </trkpt>
      <trkpt lat="44.88546" lon="4.85459">
        <ele>101.32</ele>
        <time>2019-05-26T14:53:23.000Z</time>
      </trkpt>
      <trkpt lat="44.88521" lon="4.85467">
        <ele>102.87</ele>
        <time>2019-05-26T14:53:28.000Z</time>
      </trkpt>
      <trkpt lat="44.88494" lon="4.85468">
        <ele>102.32</ele>
        <time>2019-05-26T14:53:33.000Z</time>
      </trkpt>
      <trkpt lat="44.88467" lon="4.85477">
        <ele>101.88</ele>
        <time>2019-05-26T14:53:38.000Z</time>
      </trkpt>
      <trkpt lat="44.88441" lon="4.85483">
        <ele>101.82</ele>
        <time>2019-05-26T14:53:43.000Z</time>
      </trkpt>
      <trkpt lat="44.88413" lon="4.85487">
        <ele>103.05</ele>
        <time>2019-05-26T14:53:48.000Z</time>
      </trkpt>
      <trkpt lat="44.88388" lon="4.8549">
        <ele>102.32</ele>
        <time>2019-05-26T14:53:53.000Z</time>
      </trkpt>
      <trkpt lat="44.88364" lon="4.85493">
        <ele>101.13</ele>
        <time>2019-05-26T14:53:58.000Z</time>
      </trkpt>
      <trkpt lat="44.88339" lon="4.85495">
        <ele>101.3</ele>
        <time>2019-05-26T14:54:03.000Z</time>
      </trkpt>
      <trkpt lat="44.88315" lon="4.85492">
        <ele>101.82</ele>
        <time>2019-05-26T14:54:08.000Z</time>
      </trkpt>
      <trkpt lat="44.88292" lon="4.8548">
        <ele>102.06</ele>
        <time>2019-05-26T14:54:13.000Z</time>
      </trkpt>
      <trkpt lat="44.88267" lon="4.85466">
        <ele>102.06</ele>
        <time>2019-05-26T14:54:18.000Z</time>
      </trkpt>
      <trkpt lat="44.88242" lon="4.85452">
        <ele>103.06</ele>
        <time>2019-05-26T14:54:23.000Z</time>
      </trkpt>
      <trkpt lat="44.88215" lon="4.85439">
        <ele>104.05</ele>
        <time>2019-05-26T14:54:28.000Z</time>
      </trkpt>
      <trkpt lat="44.88188" lon="4.85427">
        <ele>103.13</ele>
        <time>2019-05-26T14:54:33.000Z</time>
      </trkpt>
      <trkpt lat="44.88162" lon="4.85414">
        <ele>102.31</ele>
        <time>2019-05-26T14:54:38.000Z</time>
      </trkpt>
      <trkpt lat="44.88134" lon="4.85407">
        <ele>102.11</ele>
        <time>2019-05-26T14:54:43.000Z</time>
      </trkpt>
      <trkpt lat="44.88106" lon="4.854">
        <ele>102.06</ele>
        <time>2019-05-26T14:54:48.000Z</time>
      </trkpt>
      <trkpt lat="44.88083" lon="4.85379">
        <ele>101.08</ele>
        <time>2019-05-26T14:54:53.000Z</time>
      </trkpt>
      <trkpt lat="44.88071" lon="4.85348">
        <ele>101.3</ele>
        <time>2019-05-26T14:54:58.000Z</time>
      </trkpt>
      <trkpt lat="44.88055" lon="4.85315">
        <ele>100.13</ele>
        <time>2019-05-26T14:55:03.000Z</time>
      </trkpt>
      <trkpt lat="44.8804" lon="4.85282">
        <ele>99.07</ele>
        <time>2019-05-26T14:55:08.000Z</time>
      </trkpt>
      <trkpt lat="44.8802" lon="4.8525">
        <ele>98.08</ele>
        <time>2019-05-26T14:55:13.000Z</time>
      </trkpt>
      <trkpt lat="44.87992" lon="4.85235">
        <ele>97.06</ele>
        <time>2019-05-26T14:55:18.000Z</time>
      </trkpt>
      <trkpt lat="44.87965" lon="4.85235">
        <ele>98</ele>
        <time>2019-05-26T14:55:23.000Z</time>
      </trkpt>
      <trkpt lat="44.87944" lon="4.85221">
        <ele>98.07</ele>
        <time>2019-05-26T14:55:28.000Z</time>
      </trkpt>
      <trkpt lat="44.87937" lon="4.8518">
        <ele>96.92</ele>
        <time>2019-05-26T14:55:33.000Z</time>
      </trkpt>
      <trkpt lat="44.87941" lon="4.85148">
        <ele>99.03</ele>
        <time>2019-05-26T14:55:38.000Z</time>
      </trkpt>
      <trkpt lat="44.87954" lon="4.85127">
        <ele>101.98</ele>
        <time>2019-05-26T14:55:43.000Z</time>
      </trkpt>
      <trkpt lat="44.87972" lon="4.85108">
        <ele>103.06</ele>
        <time>2019-05-26T14:55:48.000Z</time>
      </trkpt>
      <trkpt lat="44.8799" lon="4.85094">
        <ele>103.62</ele>
        <time>2019-05-26T14:55:53.000Z</time>
      </trkpt>
      <trkpt lat="44.8801" lon="4.85079">
        <ele>103</ele>
        <time>2019-05-26T14:55:58.000Z</time>
      </trkpt>
      <trkpt lat="44.88028" lon="4.85073">
        <ele>101.14</ele>
        <time>2019-05-26T14:56:03.000Z</time>
      </trkpt>
      <trkpt lat="44.88046" lon="4.85071">
        <ele>101.56</ele>
        <time>2019-05-26T14:56:08.000Z</time>
      </trkpt>
      <trkpt lat="44.88066" lon="4.85078">
        <ele>103.95</ele>
        <time>2019-05-26T14:56:13.000Z</time>
      </trkpt>
      <trkpt lat="44.88077" lon="4.8507">
        <ele>105.05</ele>
        <time>2019-05-26T14:56:18.000Z</time>
      </trkpt>
      <trkpt lat="44.88064" lon="4.85064">
        <ele>106.75</ele>
        <time>2019-05-26T14:56:23.000Z</time>
      </trkpt>
      <trkpt lat="44.88045" lon="4.85062">
        <ele>107.06</ele>
        <time>2019-05-26T14:56:28.000Z</time>
      </trkpt>
      <trkpt lat="44.88024" lon="4.85056">
        <ele>108.05</ele>
        <time>2019-05-26T14:56:33.000Z</time>
      </trkpt>
      <trkpt lat="44.88004" lon="4.85052">
        <ele>107.37</ele>
        <time>2019-05-26T14:56:38.000Z</time>
      </trkpt>
      <trkpt lat="44.87987" lon="4.85047">
        <ele>108.76</ele>
        <time>2019-05-26T14:56:43.000Z</time>
      </trkpt>
      <trkpt lat="44.8797" lon="4.85042">
        <ele>107.76</ele>
        <time>2019-05-26T14:56:48.000Z</time>
      </trkpt>
      <trkpt lat="44.8795" lon="4.85038">
        <ele>108.75</ele>
        <time>2019-05-26T14:56:53.000Z</time>
      </trkpt>
      <trkpt lat="44.87932" lon="4.85033">
        <ele>110.04</ele>
        <time>2019-05-26T14:56:58.000Z</time>
      </trkpt>
      <trkpt lat="44.87912" lon="4.85027">
        <ele>108.08</ele>
        <time>2019-05-26T14:57:03.000Z</time>
      </trkpt>
      <trkpt lat="44.87888" lon="4.85023">
        <ele>109.04</ele>
        <time>2019-05-26T14:57:08.000Z</time>
      </trkpt>
      <trkpt lat="44.87861" lon="4.85018">
        <ele>108.07</ele>
        <time>2019-05-26T14:57:13.000Z</time>
      </trkpt>
      <trkpt lat="44.87835" lon="4.85007">
        <ele>107.25</ele>
        <time>2019-05-26T14:57:18.000Z</time>
      </trkpt>
      <trkpt lat="44.87807" lon="4.85">
        <ele>107</ele>
        <time>2019-05-26T14:57:23.000Z</time>
      </trkpt>
      <trkpt lat="44.87777" lon="4.84997">
        <ele>108.04</ele>
        <time>2019-05-26T14:57:28.000Z</time>
      </trkpt>
      <trkpt lat="44.87747" lon="4.85007">
        <ele>109</ele>
        <time>2019-05-26T14:57:33.000Z</time>
      </trkpt>
      <trkpt lat="44.87717" lon="4.85021">
        <ele>107.31</ele>
        <time>2019-05-26T14:57:38.000Z</time>
      </trkpt>
      <trkpt lat="44.87689" lon="4.85033">
        <ele>107.06</ele>
        <time>2019-05-26T14:57:43.000Z</time>
      </trkpt>
      <trkpt lat="44.87662" lon="4.85043">
        <ele>107.06</ele>
        <time>2019-05-26T14:57:48.000Z</time>
      </trkpt>
      <trkpt lat="44.87633" lon="4.85053">
        <ele>107</ele>
        <time>2019-05-26T14:57:53.000Z</time>
      </trkpt>
      <trkpt lat="44.87604" lon="4.85059">
        <ele>105.37</ele>
        <time>2019-05-26T14:57:58.000Z</time>
      </trkpt>
      <trkpt lat="44.87574" lon="4.85058">
        <ele>104.31</ele>
        <time>2019-05-26T14:58:03.000Z</time>
      </trkpt>
      <trkpt lat="44.87543" lon="4.85057">
        <ele>103.09</ele>
        <time>2019-05-26T14:58:08.000Z</time>
      </trkpt>
      <trkpt lat="44.87512" lon="4.85056">
        <ele>104</ele>
        <time>2019-05-26T14:58:13.000Z</time>
      </trkpt>
      <trkpt lat="44.87481" lon="4.85049">
        <ele>103.81</ele>
        <time>2019-05-26T14:58:18.000Z</time>
      </trkpt>
      <trkpt lat="44.8745" lon="4.85039">
        <ele>105</ele>
        <time>2019-05-26T14:58:23.000Z</time>
      </trkpt>
      <trkpt lat="44.8742" lon="4.85028">
        <ele>106.06</ele>
        <time>2019-05-26T14:58:28.000Z</time>
      </trkpt>
      <trkpt lat="44.8739" lon="4.8502">
        <ele>106.81</ele>
        <time>2019-05-26T14:58:33.000Z</time>
      </trkpt>
      <trkpt lat="44.8736" lon="4.8501">
        <ele>107.06</ele>
        <time>2019-05-26T14:58:38.000Z</time>
      </trkpt>
      <trkpt lat="44.87328" lon="4.84992">
        <ele>107.06</ele>
        <time>2019-05-26T14:58:43.000Z</time>
      </trkpt>
      <trkpt lat="44.873" lon="4.84966">
        <ele>107.06</ele>
        <time>2019-05-26T14:58:48.000Z</time>
      </trkpt>
      <trkpt lat="44.87269" lon="4.84956">
        <ele>105.87</ele>
        <time>2019-05-26T14:58:53.000Z</time>
      </trkpt>
      <trkpt lat="44.87238" lon="4.84949">
        <ele>106.06</ele>
        <time>2019-05-26T14:58:58.000Z</time>
      </trkpt>
      <trkpt lat="44.87207" lon="4.8494">
        <ele>106.12</ele>
        <time>2019-05-26T14:59:03.000Z</time>
      </trkpt>
      <trkpt lat="44.87172" lon="4.8493">
        <ele>104.13</ele>
        <time>2019-05-26T14:59:08.000Z</time>
      </trkpt>
      <trkpt lat="44.87136" lon="4.84922">
        <ele>102.12</ele>
        <time>2019-05-26T14:59:13.000Z</time>
      </trkpt>
      <trkpt lat="44.87102" lon="4.84915">
        <ele>102.06</ele>
        <time>2019-05-26T14:59:18.000Z</time>
      </trkpt>
      <trkpt lat="44.87068" lon="4.84906">
        <ele>101.99</ele>
        <time>2019-05-26T14:59:23.000Z</time>
      </trkpt>
      <trkpt lat="44.87035" lon="4.84899">
        <ele>102.01</ele>
        <time>2019-05-26T14:59:28.000Z</time>
      </trkpt>
      <trkpt lat="44.87003" lon="4.84892">
        <ele>103.87</ele>
        <time>2019-05-26T14:59:33.000Z</time>
      </trkpt>
      <trkpt lat="44.86971" lon="4.84884">
        <ele>103.06</ele>
        <time>2019-05-26T14:59:38.000Z</time>
      </trkpt>
      <trkpt lat="44.86938" lon="4.84877">
        <ele>103.05</ele>
        <time>2019-05-26T14:59:46.000Z</time>
      </trkpt>
      <trkpt lat="44.86908" lon="4.84863">
        <ele>102.12</ele>
        <time>2019-05-26T14:59:51.000Z</time>
      </trkpt>
      <trkpt lat="44.86888" lon="4.84861">
        <ele>101.06</ele>
        <time>2019-05-26T14:59:56.000Z</time>
      </trkpt>
      <trkpt lat="44.86893" lon="4.84845">
        <ele>101.05</ele>
        <time>2019-05-26T15:00:01.000Z</time>
      </trkpt>
      <trkpt lat="44.86904" lon="4.84822">
        <ele>102.05</ele>
        <time>2019-05-26T15:00:06.000Z</time>
      </trkpt>
      <trkpt lat="44.86915" lon="4.84798">
        <ele>103.04</ele>
        <time>2019-05-26T15:00:11.000Z</time>
      </trkpt>
      <trkpt lat="44.86928" lon="4.84771">
        <ele>103.05</ele>
        <time>2019-05-26T15:00:16.000Z</time>
      </trkpt>
      <trkpt lat="44.86942" lon="4.84744">
        <ele>103.8</ele>
        <time>2019-05-26T15:00:21.000Z</time>
      </trkpt>
      <trkpt lat="44.86954" lon="4.84717">
        <ele>103.32</ele>
        <time>2019-05-26T15:00:26.000Z</time>
      </trkpt>
      <trkpt lat="44.86966" lon="4.84691">
        <ele>102.06</ele>
        <time>2019-05-26T15:00:31.000Z</time>
      </trkpt>
      <trkpt lat="44.86978" lon="4.84666">
        <ele>103.05</ele>
        <time>2019-05-26T15:00:36.000Z</time>
      </trkpt>
      <trkpt lat="44.8699" lon="4.84639">
        <ele>102.07</ele>
        <time>2019-05-26T15:00:41.000Z</time>
      </trkpt>
      <trkpt lat="44.87002" lon="4.84615">
        <ele>103.05</ele>
        <time>2019-05-26T15:00:46.000Z</time>
      </trkpt>
      <trkpt lat="44.87014" lon="4.84589">
        <ele>103.05</ele>
        <time>2019-05-26T15:00:51.000Z</time>
      </trkpt>
      <trkpt lat="44.87026" lon="4.84563">
        <ele>103.8</ele>
        <time>2019-05-26T15:00:56.000Z</time>
      </trkpt>
      <trkpt lat="44.87038" lon="4.84541">
        <ele>103.3</ele>
        <time>2019-05-26T15:01:01.000Z</time>
      </trkpt>
      <trkpt lat="44.87049" lon="4.84519">
        <ele>103.99</ele>
        <time>2019-05-26T15:01:06.000Z</time>
      </trkpt>
      <trkpt lat="44.87062" lon="4.84496">
        <ele>105.04</ele>
        <time>2019-05-26T15:01:11.000Z</time>
      </trkpt>
      <trkpt lat="44.87075" lon="4.84475">
        <ele>104.26</ele>
        <time>2019-05-26T15:01:16.000Z</time>
      </trkpt>
      <trkpt lat="44.87085" lon="4.84455">
        <ele>104.3</ele>
        <time>2019-05-26T15:01:21.000Z</time>
      </trkpt>
      <trkpt lat="44.87074" lon="4.84441">
        <ele>105.04</ele>
        <time>2019-05-26T15:01:26.000Z</time>
      </trkpt>
      <trkpt lat="44.87056" lon="4.84426">
        <ele>105.05</ele>
        <time>2019-05-26T15:03:22.000Z</time>
      </trkpt>
      <trkpt lat="44.87036" lon="4.8441">
        <ele>105.01</ele>
        <time>2019-05-26T15:03:43.000Z</time>
      </trkpt>
      <trkpt lat="44.87016" lon="4.84393">
        <ele>105.8</ele>
        <time>2019-05-26T15:03:48.000Z</time>
      </trkpt>
      <trkpt lat="44.86992" lon="4.84375">
        <ele>105.11</ele>
        <time>2019-05-26T15:03:53.000Z</time>
      </trkpt>
      <trkpt lat="44.86966" lon="4.84354">
        <ele>106.99</ele>
        <time>2019-05-26T15:03:58.000Z</time>
      </trkpt>
      <trkpt lat="44.86939" lon="4.84331">
        <ele>106.29</ele>
        <time>2019-05-26T15:04:05.000Z</time>
      </trkpt>
      <trkpt lat="44.86911" lon="4.84307">
        <ele>105.31</ele>
        <time>2019-05-26T15:04:10.000Z</time>
      </trkpt>
      <trkpt lat="44.8688" lon="4.84284">
        <ele>106.05</ele>
        <time>2019-05-26T15:09:47.000Z</time>
      </trkpt>
      <trkpt lat="44.8685" lon="4.84263">
        <ele>106.05</ele>
        <time>2019-05-26T15:09:53.000Z</time>
      </trkpt>
      <trkpt lat="44.86819" lon="4.84238">
        <ele>106.8</ele>
        <time>2019-05-26T15:09:59.000Z</time>
      </trkpt>
      <trkpt lat="44.86787" lon="4.84213">
        <ele>107.05</ele>
        <time>2019-05-26T15:10:04.000Z</time>
      </trkpt>
      <trkpt lat="44.86756" lon="4.84189">
        <ele>106.07</ele>
        <time>2019-05-26T15:10:10.000Z</time>
      </trkpt>
      <trkpt lat="44.86725" lon="4.84164">
        <ele>105.3</ele>
      </trkpt>
      <trkpt lat="44.86696" lon="4.8414">
        <ele>106.04</ele>
      </trkpt>
      <trkpt lat="44.86665" lon="4.84116">
        <ele>105.8</ele>
      </trkpt>
      <trkpt lat="44.86634" lon="4.84093">
        <ele>106.99</ele>
      </trkpt>
      <trkpt lat="44.86607" lon="4.84073">
        <ele>107.05</ele>
      </trkpt>
      <trkpt lat="44.8659" lon="4.84064">
        <ele>108.03</ele>
      </trkpt>
      <trkpt lat="44.86578" lon="4.84057">
        <ele>108</ele>
      </trkpt>
      <trkpt lat="44.86562" lon="4.84043">
        <ele>107.85</ele>
      </trkpt>
      <trkpt lat="44.8654" lon="4.84027">
        <ele>107.06</ele>
      </trkpt>
      <trkpt lat="44.86517" lon="4.84007">
        <ele>108.98</ele>
      </trkpt>
      <trkpt lat="44.86494" lon="4.83988">
        <ele>108.05</ele>
      </trkpt>
      <trkpt lat="44.8647" lon="4.83968">
        <ele>107.28</ele>
      </trkpt>
      <trkpt lat="44.86446" lon="4.83949">
        <ele>108.05</ele>
      </trkpt>
      <trkpt lat="44.86421" lon="4.83927">
        <ele>107.8</ele>
      </trkpt>
      <trkpt lat="44.86396" lon="4.83908">
        <ele>107.11</ele>
      </trkpt>
      <trkpt lat="44.86369" lon="4.83886">
        <ele>107.06</ele>
      </trkpt>
      <trkpt lat="44.86344" lon="4.83862">
        <ele>107.05</ele>
      </trkpt>
      <trkpt lat="44.86317" lon="4.83847">
        <ele>107.05</ele>
      </trkpt>
      <trkpt lat="44.86292" lon="4.83827">
        <ele>107.05</ele>
      </trkpt>
      <trkpt lat="44.86267" lon="4.83807">
        <ele>107.79</ele>
      </trkpt>
      <trkpt lat="44.86243" lon="4.83786">
        <ele>108.04</ele>
      </trkpt>
      <trkpt lat="44.8622" lon="4.83765">
        <ele>108.09</ele>
      </trkpt>
      <trkpt lat="44.86199" lon="4.83747">
        <ele>107.25</ele>
      </trkpt>
      <trkpt lat="44.86183" lon="4.83743">
        <ele>107.78</ele>
      </trkpt>
      <trkpt lat="44.86168" lon="4.83755">
        <ele>107.29</ele>
      </trkpt>
      <trkpt lat="44.86154" lon="4.8377">
        <ele>107.23</ele>
      </trkpt>
      <trkpt lat="44.86138" lon="4.83755">
        <ele>108.84</ele>
      </trkpt>
      <trkpt lat="44.86121" lon="4.83738">
        <ele>108.86</ele>
      </trkpt>
      <trkpt lat="44.86103" lon="4.83722">
        <ele>110.98</ele>
      </trkpt>
      <trkpt lat="44.86085" lon="4.83706">
        <ele>111.03</ele>
      </trkpt>
      <trkpt lat="44.86069" lon="4.83687">
        <ele>113.03</ele>
      </trkpt>
      <trkpt lat="44.86054" lon="4.83668">
        <ele>113.98</ele>
      </trkpt>
      <trkpt lat="44.86039" lon="4.83656">
        <ele>113.24</ele>
      </trkpt>
      <trkpt lat="44.8603" lon="4.83654">
        <ele>113.06</ele>
      </trkpt>
      <trkpt lat="44.86017" lon="4.83649">
        <ele>115.78</ele>
      </trkpt>
      <trkpt lat="44.86004" lon="4.83626">
        <ele>117.23</ele>
      </trkpt>
      <trkpt lat="44.85985" lon="4.83603">
        <ele>116.05</ele>
      </trkpt>
      <trkpt lat="44.85963" lon="4.8358">
        <ele>114.3</ele>
      </trkpt>
      <trkpt lat="44.85946" lon="4.83552">
        <ele>113.06</ele>
      </trkpt>
      <trkpt lat="44.85921" lon="4.83559">
        <ele>110.3</ele>
      </trkpt>
      <trkpt lat="44.85896" lon="4.83579">
        <ele>109.06</ele>
      </trkpt>
      <trkpt lat="44.85869" lon="4.83596">
        <ele>108.11</ele>
      </trkpt>
      <trkpt lat="44.85841" lon="4.83614">
        <ele>106.25</ele>
      </trkpt>
      <trkpt lat="44.85813" lon="4.83633">
        <ele>106.05</ele>
      </trkpt>
      <trkpt lat="44.85784" lon="4.83654">
        <ele>105.25</ele>
      </trkpt>
      <trkpt lat="44.85755" lon="4.83678">
        <ele>106.04</ele>
      </trkpt>
      <trkpt lat="44.85727" lon="4.837">
        <ele>106.04</ele>
      </trkpt>
      <trkpt lat="44.85702" lon="4.83718">
        <ele>105</ele>
      </trkpt>
      <trkpt lat="44.85674" lon="4.83737">
        <ele>104.28</ele>
      </trkpt>
      <trkpt lat="44.85644" lon="4.83758">
        <ele>105.23</ele>
      </trkpt>
      <trkpt lat="44.85616" lon="4.83776">
        <ele>105</ele>
      </trkpt>
      <trkpt lat="44.85588" lon="4.83787">
        <ele>105.04</ele>
      </trkpt>
      <trkpt lat="44.85563" lon="4.83786">
        <ele>104</ele>
      </trkpt>
      <trkpt lat="44.85544" lon="4.83788">
        <ele>104.1</ele>
      </trkpt>
      <trkpt lat="44.85534" lon="4.83789">
        <ele>96.73</ele>
      </trkpt>
      <trkpt lat="44.85525" lon="4.83793">
        <ele>97.04</ele>
      </trkpt>
      <trkpt lat="44.85529" lon="4.83806">
        <ele>98.98</ele>
      </trkpt>
      <trkpt lat="44.8554" lon="4.83823">
        <ele>99.84</ele>
      </trkpt>
      <trkpt lat="44.85553" lon="4.83844">
        <ele>100.79</ele>
      </trkpt>
      <trkpt lat="44.85562" lon="4.83843">
        <ele>102.79</ele>
      </trkpt>
      <trkpt lat="44.85566" lon="4.83829">
        <ele>103.04</ele>
      </trkpt>
      <trkpt lat="44.85572" lon="4.83817">
        <ele>107.98</ele>
      </trkpt>
      <trkpt lat="44.85582" lon="4.83815">
        <ele>107.06</ele>
      </trkpt>
      <trkpt lat="44.8559" lon="4.83822">
        <ele>107.09</ele>
      </trkpt>
      <trkpt lat="44.85599" lon="4.83828">
        <ele>108.04</ele>
      </trkpt>
      <trkpt lat="44.85607" lon="4.83835">
        <ele>109.03</ele>
      </trkpt>
    </trkseg>
  </trk>
  <trk>
    <name><![CDATA[2019-05-27 10:08:33]]></name>
    <trkseg>
      <trkpt lat="44.85374" lon="4.83629">
        <ele>107.29</ele>
        <time>2019-05-27T08:08:33.000Z</time>
      </trkpt>
      <trkpt lat="44.85364" lon="4.83627">
        <ele>106.29</ele>
        <time>2019-05-27T08:08:47.000Z</time>
      </trkpt>
      <trkpt lat="44.8535" lon="4.83624">
        <ele>106.04</ele>
        <time>2019-05-27T08:08:52.000Z</time>
      </trkpt>
      <trkpt lat="44.85332" lon="4.83621">
        <ele>104.29</ele>
        <time>2019-05-27T08:08:57.000Z</time>
      </trkpt>
      <trkpt lat="44.8531" lon="4.83607">
        <ele>105.04</ele>
        <time>2019-05-27T08:09:02.000Z</time>
      </trkpt>
      <trkpt lat="44.85285" lon="4.83588">
        <ele>107.72</ele>
        <time>2019-05-27T08:09:07.000Z</time>
      </trkpt>
      <trkpt lat="44.85267" lon="4.83563">
        <ele>108.29</ele>
        <time>2019-05-27T08:09:12.000Z</time>
      </trkpt>
      <trkpt lat="44.85249" lon="4.83532">
        <ele>106.11</ele>
        <time>2019-05-27T08:09:17.000Z</time>
      </trkpt>
      <trkpt lat="44.85229" lon="4.835">
        <ele>106.1</ele>
        <time>2019-05-27T08:09:22.000Z</time>
      </trkpt>
      <trkpt lat="44.85208" lon="4.83464">
        <ele>106.04</ele>
        <time>2019-05-27T08:09:27.000Z</time>
      </trkpt>
      <trkpt lat="44.85185" lon="4.83428">
        <ele>107.02</ele>
        <time>2019-05-27T08:09:32.000Z</time>
      </trkpt>
      <trkpt lat="44.85161" lon="4.83392">
        <ele>107.03</ele>
        <time>2019-05-27T08:09:37.000Z</time>
      </trkpt>
      <trkpt lat="44.85136" lon="4.83352">
        <ele>105.05</ele>
        <time>2019-05-27T08:09:42.000Z</time>
      </trkpt>
      <trkpt lat="44.85112" lon="4.8331">
        <ele>104.01</ele>
        <time>2019-05-27T08:09:47.000Z</time>
      </trkpt>
      <trkpt lat="44.85087" lon="4.83269">
        <ele>104.04</ele>
        <time>2019-05-27T08:09:52.000Z</time>
      </trkpt>
      <trkpt lat="44.85062" lon="4.8323">
        <ele>104.97</ele>
        <time>2019-05-27T08:09:57.000Z</time>
      </trkpt>
      <trkpt lat="44.85038" lon="4.8319">
        <ele>104.1</ele>
        <time>2019-05-27T08:10:02.000Z</time>
      </trkpt>
      <trkpt lat="44.85013" lon="4.83152">
        <ele>105.04</ele>
        <time>2019-05-27T08:10:07.000Z</time>
      </trkpt>
      <trkpt lat="44.84988" lon="4.83112">
        <ele>104.3</ele>
        <time>2019-05-27T08:10:12.000Z</time>
      </trkpt>
      <trkpt lat="44.84961" lon="4.83068">
        <ele>103.05</ele>
        <time>2019-05-27T08:10:17.000Z</time>
      </trkpt>
      <trkpt lat="44.84932" lon="4.83022">
        <ele>100.31</ele>
        <time>2019-05-27T08:10:22.000Z</time>
      </trkpt>
      <trkpt lat="44.84904" lon="4.82975">
        <ele>100.8</ele>
        <time>2019-05-27T08:10:27.000Z</time>
      </trkpt>
      <trkpt lat="44.8488" lon="4.82928">
        <ele>99.3</ele>
        <time>2019-05-27T08:10:32.000Z</time>
      </trkpt>
      <trkpt lat="44.84854" lon="4.82884">
        <ele>99.09</ele>
        <time>2019-05-27T08:10:37.000Z</time>
      </trkpt>
      <trkpt lat="44.8483" lon="4.82843">
        <ele>99.03</ele>
        <time>2019-05-27T08:10:42.000Z</time>
      </trkpt>
      <trkpt lat="44.84806" lon="4.82805">
        <ele>99.96</ele>
        <time>2019-05-27T08:10:47.000Z</time>
      </trkpt>
      <trkpt lat="44.84779" lon="4.82768">
        <ele>99.04</ele>
        <time>2019-05-27T08:10:52.000Z</time>
      </trkpt>
      <trkpt lat="44.84754" lon="4.8273">
        <ele>97.16</ele>
        <time>2019-05-27T08:10:57.000Z</time>
      </trkpt>
      <trkpt lat="44.8473" lon="4.82695">
        <ele>99.03</ele>
        <time>2019-05-27T08:11:02.000Z</time>
      </trkpt>
      <trkpt lat="44.84708" lon="4.82658">
        <ele>99.03</ele>
        <time>2019-05-27T08:11:07.000Z</time>
      </trkpt>
      <trkpt lat="44.84684" lon="4.8262">
        <ele>100.03</ele>
        <time>2019-05-27T08:11:12.000Z</time>
      </trkpt>
      <trkpt lat="44.84661" lon="4.82579">
        <ele>99.04</ele>
        <time>2019-05-27T08:11:17.000Z</time>
      </trkpt>
      <trkpt lat="44.84639" lon="4.82542">
        <ele>98.97</ele>
        <time>2019-05-27T08:11:22.000Z</time>
      </trkpt>
      <trkpt lat="44.84617" lon="4.82506">
        <ele>100.78</ele>
        <time>2019-05-27T08:11:27.000Z</time>
      </trkpt>
      <trkpt lat="44.84597" lon="4.82472">
        <ele>100.04</ele>
        <time>2019-05-27T08:11:32.000Z</time>
      </trkpt>
      <trkpt lat="44.84571" lon="4.8244">
        <ele>100.78</ele>
        <time>2019-05-27T08:11:37.000Z</time>
      </trkpt>
      <trkpt lat="44.84548" lon="4.82406">
        <ele>100.09</ele>
        <time>2019-05-27T08:11:42.000Z</time>
      </trkpt>
      <trkpt lat="44.84526" lon="4.82373">
        <ele>100.04</ele>
        <time>2019-05-27T08:11:47.000Z</time>
      </trkpt>
      <trkpt lat="44.84504" lon="4.82339">
        <ele>100.05</ele>
        <time>2019-05-27T08:11:52.000Z</time>
      </trkpt>
      <trkpt lat="44.84475" lon="4.82307">
        <ele>100.02</ele>
        <time>2019-05-27T08:11:57.000Z</time>
      </trkpt>
      <trkpt lat="44.84451" lon="4.82271">
        <ele>100.97</ele>
        <time>2019-05-27T08:12:02.000Z</time>
      </trkpt>
      <trkpt lat="44.84429" lon="4.8224">
        <ele>101.02</ele>
        <time>2019-05-27T08:12:07.000Z</time>
      </trkpt>
      <trkpt lat="44.84416" lon="4.82211">
        <ele>99.11</ele>
        <time>2019-05-27T08:12:12.000Z</time>
      </trkpt>
      <trkpt lat="44.84428" lon="4.82194">
        <ele>100.78</ele>
        <time>2019-05-27T08:12:17.000Z</time>
      </trkpt>
      <trkpt lat="44.84435" lon="4.82186">
        <ele>101.72</ele>
        <time>2019-05-27T08:12:24.000Z</time>
      </trkpt>
      <trkpt lat="44.84441" lon="4.82177">
        <ele>104.01</ele>
        <time>2019-05-27T08:12:29.000Z</time>
      </trkpt>
      <trkpt lat="44.84449" lon="4.82169">
        <ele>105.01</ele>
        <time>2019-05-27T08:12:34.000Z</time>
      </trkpt>
      <trkpt lat="44.84455" lon="4.82156">
        <ele>107.95</ele>
        <time>2019-05-27T08:12:39.000Z</time>
      </trkpt>
      <trkpt lat="44.84457" lon="4.82141">
        <ele>108.08</ele>
        <time>2019-05-27T08:12:44.000Z</time>
      </trkpt>
      <trkpt lat="44.84449" lon="4.82123">
        <ele>109.03</ele>
        <time>2019-05-27T08:12:49.000Z</time>
      </trkpt>
      <trkpt lat="44.84433" lon="4.82109">
        <ele>110.84</ele>
        <time>2019-05-27T08:12:54.000Z</time>
      </trkpt>
      <trkpt lat="44.8441" lon="4.82095">
        <ele>110.28</ele>
        <time>2019-05-27T08:12:59.000Z</time>
      </trkpt>
      <trkpt lat="44.84388" lon="4.82081">
        <ele>110.03</ele>
        <time>2019-05-27T08:13:04.000Z</time>
      </trkpt>
      <trkpt lat="44.84365" lon="4.82065">
        <ele>111.78</ele>
        <time>2019-05-27T08:13:09.000Z</time>
      </trkpt>
      <trkpt lat="44.84342" lon="4.82046">
        <ele>111.03</ele>
        <time>2019-05-27T08:13:14.000Z</time>
      </trkpt>
      <trkpt lat="44.8432" lon="4.82026">
        <ele>110.84</ele>
        <time>2019-05-27T08:13:19.000Z</time>
      </trkpt>
      <trkpt lat="44.84302" lon="4.82009">
        <ele>112.03</ele>
        <time>2019-05-27T08:13:24.000Z</time>
      </trkpt>
      <trkpt lat="44.84283" lon="4.81993">
        <ele>111.03</ele>
        <time>2019-05-27T08:13:29.000Z</time>
      </trkpt>
      <trkpt lat="44.84263" lon="4.81977">
        <ele>110.04</ele>
        <time>2019-05-27T08:13:34.000Z</time>
      </trkpt>
      <trkpt lat="44.84238" lon="4.81964">
        <ele>109.04</ele>
        <time>2019-05-27T08:13:39.000Z</time>
      </trkpt>
      <trkpt lat="44.8421" lon="4.81946">
        <ele>108.03</ele>
        <time>2019-05-27T08:13:44.000Z</time>
      </trkpt>
      <trkpt lat="44.84182" lon="4.81925">
        <ele>108.03</ele>
        <time>2019-05-27T08:13:49.000Z</time>
      </trkpt>
      <trkpt lat="44.84154" lon="4.81902">
        <ele>107.04</ele>
        <time>2019-05-27T08:13:54.000Z</time>
      </trkpt>
      <trkpt lat="44.84125" lon="4.81882">
        <ele>107.03</ele>
        <time>2019-05-27T08:13:59.000Z</time>
      </trkpt>
      <trkpt lat="44.84095" lon="4.81861">
        <ele>107.78</ele>
        <time>2019-05-27T08:14:04.000Z</time>
      </trkpt>
      <trkpt lat="44.84068" lon="4.81843">
        <ele>108.03</ele>
        <time>2019-05-27T08:14:09.000Z</time>
      </trkpt>
      <trkpt lat="44.84038" lon="4.81832">
        <ele>109.03</ele>
        <time>2019-05-27T08:14:14.000Z</time>
      </trkpt>
      <trkpt lat="44.84008" lon="4.81814">
        <ele>108.28</ele>
        <time>2019-05-27T08:14:19.000Z</time>
      </trkpt>
      <trkpt lat="44.83977" lon="4.81791">
        <ele>107.09</ele>
        <time>2019-05-27T08:14:24.000Z</time>
      </trkpt>
      <trkpt lat="44.83948" lon="4.81767">
        <ele>108.03</ele>
        <time>2019-05-27T08:14:29.000Z</time>
      </trkpt>
      <trkpt lat="44.83918" lon="4.81744">
        <ele>107.04</ele>
        <time>2019-05-27T08:14:34.000Z</time>
      </trkpt>
      <trkpt lat="44.83886" lon="4.81724">
        <ele>105.23</ele>
        <time>2019-05-27T08:14:39.000Z</time>
      </trkpt>
      <trkpt lat="44.83853" lon="4.81705">
        <ele>106.77</ele>
        <time>2019-05-27T08:14:44.000Z</time>
      </trkpt>
      <trkpt lat="44.8382" lon="4.81687">
        <ele>106.78</ele>
        <time>2019-05-27T08:14:49.000Z</time>
      </trkpt>
      <trkpt lat="44.83787" lon="4.8167">
        <ele>107.21</ele>
        <time>2019-05-27T08:14:54.000Z</time>
      </trkpt>
      <trkpt lat="44.83753" lon="4.81654">
        <ele>106.52</ele>
        <time>2019-05-27T08:14:59.000Z</time>
      </trkpt>
      <trkpt lat="44.83718" lon="4.8164">
        <ele>107.71</ele>
        <time>2019-05-27T08:15:04.000Z</time>
      </trkpt>
      <trkpt lat="44.83683" lon="4.81627">
        <ele>107.22</ele>
        <time>2019-05-27T08:15:09.000Z</time>
      </trkpt>
      <trkpt lat="44.83646" lon="4.8161">
        <ele>105.28</ele>
        <time>2019-05-27T08:15:14.000Z</time>
      </trkpt>
      <trkpt lat="44.83609" lon="4.81595">
        <ele>105.96</ele>
        <time>2019-05-27T08:15:19.000Z</time>
      </trkpt>
      <trkpt lat="44.83569" lon="4.8158">
        <ele>107.02</ele>
        <time>2019-05-27T08:15:24.000Z</time>
      </trkpt>
      <trkpt lat="44.83529" lon="4.81565">
        <ele>106.84</ele>
        <time>2019-05-27T08:15:29.000Z</time>
      </trkpt>
      <trkpt lat="44.83491" lon="4.81547">
        <ele>106.02</ele>
        <time>2019-05-27T08:15:34.000Z</time>
      </trkpt>
      <trkpt lat="44.83452" lon="4.8153">
        <ele>106.02</ele>
        <time>2019-05-27T08:15:39.000Z</time>
      </trkpt>
      <trkpt lat="44.83416" lon="4.81509">
        <ele>105.77</ele>
        <time>2019-05-27T08:15:44.000Z</time>
      </trkpt>
      <trkpt lat="44.83379" lon="4.81488">
        <ele>106.01</ele>
        <time>2019-05-27T08:15:49.000Z</time>
      </trkpt>
      <trkpt lat="44.83345" lon="4.81466">
        <ele>106.02</ele>
        <time>2019-05-27T08:15:54.000Z</time>
      </trkpt>
      <trkpt lat="44.83311" lon="4.81441">
        <ele>106.02</ele>
        <time>2019-05-27T08:15:59.000Z</time>
      </trkpt>
      <trkpt lat="44.83279" lon="4.81415">
        <ele>106.02</ele>
        <time>2019-05-27T08:16:04.000Z</time>
      </trkpt>
      <trkpt lat="44.83246" lon="4.81387">
        <ele>106.96</ele>
        <time>2019-05-27T08:16:09.000Z</time>
      </trkpt>
      <trkpt lat="44.83215" lon="4.81358">
        <ele>107.02</ele>
        <time>2019-05-27T08:16:14.000Z</time>
      </trkpt>
      <trkpt lat="44.83185" lon="4.81328">
        <ele>108.02</ele>
        <time>2019-05-27T08:16:19.000Z</time>
      </trkpt>
      <trkpt lat="44.83155" lon="4.81298">
        <ele>109.02</ele>
        <time>2019-05-27T08:16:24.000Z</time>
      </trkpt>
      <trkpt lat="44.83125" lon="4.81268">
        <ele>110.02</ele>
        <time>2019-05-27T08:16:29.000Z</time>
      </trkpt>
      <trkpt lat="44.83095" lon="4.81237">
        <ele>109.08</ele>
        <time>2019-05-27T08:16:34.000Z</time>
      </trkpt>
      <trkpt lat="44.83063" lon="4.81205">
        <ele>108.27</ele>
        <time>2019-05-27T08:16:39.000Z</time>
      </trkpt>
      <trkpt lat="44.83031" lon="4.81176">
        <ele>108.02</ele>
        <time>2019-05-27T08:16:44.000Z</time>
      </trkpt>
      <trkpt lat="44.82999" lon="4.81148">
        <ele>107.77</ele>
        <time>2019-05-27T08:16:49.000Z</time>
      </trkpt>
      <trkpt lat="44.82965" lon="4.81125">
        <ele>107.77</ele>
        <time>2019-05-27T08:16:54.000Z</time>
      </trkpt>
      <trkpt lat="44.82932" lon="4.81103">
        <ele>107.02</ele>
        <time>2019-05-27T08:16:59.000Z</time>
      </trkpt>
      <trkpt lat="44.82896" lon="4.81084">
        <ele>107.02</ele>
        <time>2019-05-27T08:17:04.000Z</time>
      </trkpt>
      <trkpt lat="44.82861" lon="4.81069">
        <ele>107.77</ele>
        <time>2019-05-27T08:17:09.000Z</time>
      </trkpt>
      <trkpt lat="44.82826" lon="4.81053">
        <ele>108.01</ele>
        <time>2019-05-27T08:17:14.000Z</time>
      </trkpt>
      <trkpt lat="44.82792" lon="4.81038">
        <ele>109</ele>
        <time>2019-05-27T08:17:19.000Z</time>
      </trkpt>
      <trkpt lat="44.82758" lon="4.81024">
        <ele>109.76</ele>
        <time>2019-05-27T08:17:24.000Z</time>
      </trkpt>
      <trkpt lat="44.82724" lon="4.81011">
        <ele>108.08</ele>
        <time>2019-05-27T08:17:29.000Z</time>
      </trkpt>
      <trkpt lat="44.8269" lon="4.80995">
        <ele>108.02</ele>
        <time>2019-05-27T08:17:34.000Z</time>
      </trkpt>
      <trkpt lat="44.82658" lon="4.8098">
        <ele>108.08</ele>
        <time>2019-05-27T08:17:39.000Z</time>
      </trkpt>
      <trkpt lat="44.82624" lon="4.80984">
        <ele>108.77</ele>
        <time>2019-05-27T08:17:44.000Z</time>
      </trkpt>
      <trkpt lat="44.82597" lon="4.81011">
        <ele>107.02</ele>
        <time>2019-05-27T08:17:49.000Z</time>
      </trkpt>
      <trkpt lat="44.82575" lon="4.81025">
        <ele>108</ele>
        <time>2019-05-27T08:17:54.000Z</time>
      </trkpt>
      <trkpt lat="44.82556" lon="4.81019">
        <ele>107.26</ele>
        <time>2019-05-27T08:17:59.000Z</time>
      </trkpt>
      <trkpt lat="44.82532" lon="4.81009">
        <ele>106.08</ele>
        <time>2019-05-27T08:18:04.000Z</time>
      </trkpt>
      <trkpt lat="44.82502" lon="4.80991">
        <ele>104.83</ele>
        <time>2019-05-27T08:18:09.000Z</time>
      </trkpt>
      <trkpt lat="44.82475" lon="4.80962">
        <ele>105.96</ele>
        <time>2019-05-27T08:18:14.000Z</time>
      </trkpt>
      <trkpt lat="44.82448" lon="4.80933">
        <ele>106.02</ele>
        <time>2019-05-27T08:18:19.000Z</time>
      </trkpt>
      <trkpt lat="44.82435" lon="4.80919">
        <ele>105.02</ele>
        <time>2019-05-27T08:18:24.000Z</time>
      </trkpt>
      <trkpt lat="44.82426" lon="4.80911">
        <ele>103.01</ele>
        <time>2019-05-27T08:21:00.000Z</time>
      </trkpt>
      <trkpt lat="44.82419" lon="4.80895">
        <ele>105.95</ele>
        <time>2019-05-27T08:21:05.000Z</time>
      </trkpt>
      <trkpt lat="44.82414" lon="4.80877">
        <ele>105.97</ele>
        <time>2019-05-27T08:21:10.000Z</time>
      </trkpt>
      <trkpt lat="44.82414" lon="4.80863">
        <ele>107.01</ele>
        <time>2019-05-27T08:21:15.000Z</time>
      </trkpt>
      <trkpt lat="44.82413" lon="4.80841">
        <ele>105.03</ele>
        <time>2019-05-27T08:21:20.000Z</time>
      </trkpt>
      <trkpt lat="44.82395" lon="4.80833">
        <ele>104.08</ele>
        <time>2019-05-27T08:21:25.000Z</time>
      </trkpt>
      <trkpt lat="44.82374" lon="4.8083">
        <ele>104.76</ele>
        <time>2019-05-27T08:21:30.000Z</time>
      </trkpt>
      <trkpt lat="44.82354" lon="4.80832">
        <ele>105.2</ele>
        <time>2019-05-27T08:21:35.000Z</time>
      </trkpt>
      <trkpt lat="44.82335" lon="4.80833">
        <ele>103.33</ele>
        <time>2019-05-27T08:21:40.000Z</time>
      </trkpt>
      <trkpt lat="44.82305" lon="4.80821">
        <ele>102.03</ele>
        <time>2019-05-27T08:21:45.000Z</time>
      </trkpt>
      <trkpt lat="44.82276" lon="4.80811">
        <ele>102.02</ele>
        <time>2019-05-27T08:21:50.000Z</time>
      </trkpt>
      <trkpt lat="44.82247" lon="4.80795">
        <ele>100.08</ele>
        <time>2019-05-27T08:21:55.000Z</time>
      </trkpt>
      <trkpt lat="44.82229" lon="4.80794">
        <ele>100.03</ele>
        <time>2019-05-27T08:22:00.000Z</time>
      </trkpt>
      <trkpt lat="44.82225" lon="4.8081">
        <ele>100.02</ele>
        <time>2019-05-27T08:22:05.000Z</time>
      </trkpt>
      <trkpt lat="44.82217" lon="4.80823">
        <ele>100.77</ele>
        <time>2019-05-27T08:22:10.000Z</time>
      </trkpt>
      <trkpt lat="44.82206" lon="4.80823">
        <ele>101.95</ele>
        <time>2019-05-27T08:22:15.000Z</time>
      </trkpt>
      <trkpt lat="44.82188" lon="4.80811">
        <ele>102.02</ele>
        <time>2019-05-27T08:22:20.000Z</time>
      </trkpt>
      <trkpt lat="44.82175" lon="4.80793">
        <ele>102.02</ele>
        <time>2019-05-27T08:22:25.000Z</time>
      </trkpt>
      <trkpt lat="44.82156" lon="4.80787">
        <ele>103</ele>
        <time>2019-05-27T08:22:30.000Z</time>
      </trkpt>
      <trkpt lat="44.82133" lon="4.80784">
        <ele>102.02</ele>
        <time>2019-05-27T08:22:35.000Z</time>
      </trkpt>
      <trkpt lat="44.8211" lon="4.80781">
        <ele>102.77</ele>
        <time>2019-05-27T08:22:40.000Z</time>
      </trkpt>
      <trkpt lat="44.82088" lon="4.80765">
        <ele>103.94</ele>
        <time>2019-05-27T08:22:45.000Z</time>
      </trkpt>
      <trkpt lat="44.82069" lon="4.8076">
        <ele>105.76</ele>
        <time>2019-05-27T08:22:50.000Z</time>
      </trkpt>
      <trkpt lat="44.82041" lon="4.8077">
        <ele>103.27</ele>
        <time>2019-05-27T08:22:55.000Z</time>
      </trkpt>
      <trkpt lat="44.82005" lon="4.80778">
        <ele>100.28</ele>
        <time>2019-05-27T08:23:00.000Z</time>
      </trkpt>
      <trkpt lat="44.81969" lon="4.80776">
        <ele>100.2</ele>
        <time>2019-05-27T08:23:05.000Z</time>
      </trkpt>
      <trkpt lat="44.81933" lon="4.80773">
        <ele>99.77</ele>
        <time>2019-05-27T08:23:10.000Z</time>
      </trkpt>
      <trkpt lat="44.81904" lon="4.80757">
        <ele>102</ele>
        <time>2019-05-27T08:23:15.000Z</time>
      </trkpt>
      <trkpt lat="44.81877" lon="4.80737">
        <ele>102</ele>
        <time>2019-05-27T08:23:20.000Z</time>
      </trkpt>
      <trkpt lat="44.81851" lon="4.80712">
        <ele>101.26</ele>
        <time>2019-05-27T08:23:25.000Z</time>
      </trkpt>
      <trkpt lat="44.81833" lon="4.80685">
        <ele>100.08</ele>
        <time>2019-05-27T08:23:30.000Z</time>
      </trkpt>
      <trkpt lat="44.81831" lon="4.80654">
        <ele>102</ele>
        <time>2019-05-27T08:23:35.000Z</time>
      </trkpt>
      <trkpt lat="44.81826" lon="4.80638">
        <ele>100.27</ele>
        <time>2019-05-27T08:23:40.000Z</time>
      </trkpt>
      <trkpt lat="44.81809" lon="4.80631">
        <ele>102</ele>
        <time>2019-05-27T08:23:45.000Z</time>
      </trkpt>
      <trkpt lat="44.81783" lon="4.80629">
        <ele>103.01</ele>
        <time>2019-05-27T08:23:50.000Z</time>
      </trkpt>
      <trkpt lat="44.81758" lon="4.80626">
        <ele>103.01</ele>
        <time>2019-05-27T08:23:55.000Z</time>
      </trkpt>
      <trkpt lat="44.81733" lon="4.80622">
        <ele>105.01</ele>
        <time>2019-05-27T08:24:00.000Z</time>
      </trkpt>
      <trkpt lat="44.81704" lon="4.80618">
        <ele>103.08</ele>
        <time>2019-05-27T08:24:05.000Z</time>
      </trkpt>
      <trkpt lat="44.81674" lon="4.80615">
        <ele>102.08</ele>
        <time>2019-05-27T08:24:10.000Z</time>
      </trkpt>
      <trkpt lat="44.81645" lon="4.80608">
        <ele>102.01</ele>
        <time>2019-05-27T08:24:15.000Z</time>
      </trkpt>
      <trkpt lat="44.81613" lon="4.80596">
        <ele>101.26</ele>
        <time>2019-05-27T08:24:20.000Z</time>
      </trkpt>
      <trkpt lat="44.81575" lon="4.80577">
        <ele>99.08</ele>
        <time>2019-05-27T08:24:25.000Z</time>
      </trkpt>
      <trkpt lat="44.81536" lon="4.80568">
        <ele>98.08</ele>
        <time>2019-05-27T08:24:30.000Z</time>
      </trkpt>
      <trkpt lat="44.81501" lon="4.80561">
        <ele>98.95</ele>
        <time>2019-05-27T08:24:35.000Z</time>
      </trkpt>
      <trkpt lat="44.81467" lon="4.80549">
        <ele>98.03</ele>
        <time>2019-05-27T08:24:40.000Z</time>
      </trkpt>
      <trkpt lat="44.81436" lon="4.80529">
        <ele>98.01</ele>
        <time>2019-05-27T08:24:45.000Z</time>
      </trkpt>
      <trkpt lat="44.81408" lon="4.80507">
        <ele>98.95</ele>
        <time>2019-05-27T08:24:50.000Z</time>
      </trkpt>
      <trkpt lat="44.8138" lon="4.80482">
        <ele>99.95</ele>
        <time>2019-05-27T08:24:55.000Z</time>
      </trkpt>
      <trkpt lat="44.8135" lon="4.80457">
        <ele>99.02</ele>
        <time>2019-05-27T08:25:00.000Z</time>
      </trkpt>
      <trkpt lat="44.81323" lon="4.80428">
        <ele>100.02</ele>
        <time>2019-05-27T08:25:05.000Z</time>
      </trkpt>
      <trkpt lat="44.81299" lon="4.80394">
        <ele>100.02</ele>
        <time>2019-05-27T08:25:10.000Z</time>
      </trkpt>
      <trkpt lat="44.81273" lon="4.80365">
        <ele>100.01</ele>
        <time>2019-05-27T08:25:15.000Z</time>
      </trkpt>
      <trkpt lat="44.81249" lon="4.80338">
        <ele>100.01</ele>
        <time>2019-05-27T08:25:20.000Z</time>
      </trkpt>
      <trkpt lat="44.81226" lon="4.80308">
        <ele>99.09</ele>
        <time>2019-05-27T08:25:25.000Z</time>
      </trkpt>
      <trkpt lat="44.8121" lon="4.80275">
        <ele>97.02</ele>
        <time>2019-05-27T08:25:30.000Z</time>
      </trkpt>
      <trkpt lat="44.81229" lon="4.80269">
        <ele>97.2</ele>
        <time>2019-05-27T08:25:35.000Z</time>
      </trkpt>
      <trkpt lat="44.81252" lon="4.80273">
        <ele>97.26</ele>
        <time>2019-05-27T08:25:40.000Z</time>
      </trkpt>
      <trkpt lat="44.81278" lon="4.80279">
        <ele>97.82</ele>
        <time>2019-05-27T08:25:45.000Z</time>
      </trkpt>
      <trkpt lat="44.81307" lon="4.80283">
        <ele>96.76</ele>
        <time>2019-05-27T08:25:50.000Z</time>
      </trkpt>
      <trkpt lat="44.81337" lon="4.80287">
        <ele>95.97</ele>
        <time>2019-05-27T08:25:55.000Z</time>
      </trkpt>
      <trkpt lat="44.81368" lon="4.80289">
        <ele>96.95</ele>
        <time>2019-05-27T08:26:00.000Z</time>
      </trkpt>
      <trkpt lat="44.81396" lon="4.80292">
        <ele>95.01</ele>
        <time>2019-05-27T08:26:05.000Z</time>
      </trkpt>
      <trkpt lat="44.81423" lon="4.80294">
        <ele>96.95</ele>
        <time>2019-05-27T08:26:10.000Z</time>
      </trkpt>
      <trkpt lat="44.81451" lon="4.80297">
        <ele>96.06</ele>
        <time>2019-05-27T08:26:15.000Z</time>
      </trkpt>
      <trkpt lat="44.81481" lon="4.80298">
        <ele>96.02</ele>
        <time>2019-05-27T08:26:20.000Z</time>
      </trkpt>
      <trkpt lat="44.81512" lon="4.80301">
        <ele>96.26</ele>
        <time>2019-05-27T08:26:25.000Z</time>
      </trkpt>
      <trkpt lat="44.81542" lon="4.80302">
        <ele>97.76</ele>
        <time>2019-05-27T08:26:30.000Z</time>
      </trkpt>
      <trkpt lat="44.81573" lon="4.80302">
        <ele>95.84</ele>
        <time>2019-05-27T08:26:35.000Z</time>
      </trkpt>
      <trkpt lat="44.81604" lon="4.80301">
        <ele>95.08</ele>
        <time>2019-05-27T08:26:40.000Z</time>
      </trkpt>
      <trkpt lat="44.8163" lon="4.80299">
        <ele>95.25</ele>
        <time>2019-05-27T08:26:45.000Z</time>
      </trkpt>
      <trkpt lat="44.81653" lon="4.80296">
        <ele>96.95</ele>
        <time>2019-05-27T08:26:50.000Z</time>
      </trkpt>
      <trkpt lat="44.81678" lon="4.80292">
        <ele>97.81</ele>
        <time>2019-05-27T08:26:55.000Z</time>
      </trkpt>
      <trkpt lat="44.81702" lon="4.80288">
        <ele>99.01</ele>
        <time>2019-05-27T08:27:00.000Z</time>
      </trkpt>
      <trkpt lat="44.81725" lon="4.80283">
        <ele>99.2</ele>
        <time>2019-05-27T08:27:05.000Z</time>
      </trkpt>
      <trkpt lat="44.81749" lon="4.80276">
        <ele>99.02</ele>
        <time>2019-05-27T08:27:10.000Z</time>
      </trkpt>
      <trkpt lat="44.81774" lon="4.80269">
        <ele>98.02</ele>
        <time>2019-05-27T08:27:15.000Z</time>
      </trkpt>
      <trkpt lat="44.81798" lon="4.80263">
        <ele>98.95</ele>
        <time>2019-05-27T08:27:20.000Z</time>
      </trkpt>
      <trkpt lat="44.81822" lon="4.80256">
        <ele>99.02</ele>
        <time>2019-05-27T08:27:25.000Z</time>
      </trkpt>
      <trkpt lat="44.81845" lon="4.80253">
        <ele>100</ele>
        <time>2019-05-27T08:27:30.000Z</time>
      </trkpt>
      <trkpt lat="44.81867" lon="4.8025">
        <ele>100.01</ele>
        <time>2019-05-27T08:27:35.000Z</time>
      </trkpt>
      <trkpt lat="44.8189" lon="4.80249">
        <ele>100.01</ele>
        <time>2019-05-27T08:27:40.000Z</time>
      </trkpt>
      <trkpt lat="44.81912" lon="4.80249">
        <ele>100.01</ele>
        <time>2019-05-27T08:27:45.000Z</time>
      </trkpt>
      <trkpt lat="44.81934" lon="4.80246">
        <ele>99.13</ele>
        <time>2019-05-27T08:27:50.000Z</time>
      </trkpt>
      <trkpt lat="44.81957" lon="4.80245">
        <ele>100.01</ele>
        <time>2019-05-27T08:27:55.000Z</time>
      </trkpt>
      <trkpt lat="44.81982" lon="4.80241">
        <ele>100.08</ele>
        <time>2019-05-27T08:28:00.000Z</time>
      </trkpt>
      <trkpt lat="44.82006" lon="4.80238">
        <ele>100.01</ele>
        <time>2019-05-27T08:28:05.000Z</time>
      </trkpt>
      <trkpt lat="44.82029" lon="4.80236">
        <ele>100.01</ele>
        <time>2019-05-27T08:28:10.000Z</time>
      </trkpt>
      <trkpt lat="44.82054" lon="4.80233">
        <ele>100.83</ele>
        <time>2019-05-27T08:28:15.000Z</time>
      </trkpt>
      <trkpt lat="44.82078" lon="4.80231">
        <ele>100.02</ele>
        <time>2019-05-27T08:28:20.000Z</time>
      </trkpt>
      <trkpt lat="44.82102" lon="4.80228">
        <ele>100.95</ele>
        <time>2019-05-27T08:28:25.000Z</time>
      </trkpt>
      <trkpt lat="44.82125" lon="4.80223">
        <ele>101.01</ele>
        <time>2019-05-27T08:28:30.000Z</time>
      </trkpt>
      <trkpt lat="44.82149" lon="4.80213">
        <ele>100.02</ele>
        <time>2019-05-27T08:28:35.000Z</time>
      </trkpt>
      <trkpt lat="44.82173" lon="4.80203">
        <ele>99.97</ele>
        <time>2019-05-27T08:28:40.000Z</time>
      </trkpt>
      <trkpt lat="44.82196" lon="4.80188">
        <ele>100.01</ele>
        <time>2019-05-27T08:28:45.000Z</time>
      </trkpt>
      <trkpt lat="44.82218" lon="4.80173">
        <ele>100.02</ele>
        <time>2019-05-27T08:28:50.000Z</time>
      </trkpt>
      <trkpt lat="44.82239" lon="4.80154">
        <ele>100.02</ele>
        <time>2019-05-27T08:28:55.000Z</time>
      </trkpt>
      <trkpt lat="44.82258" lon="4.8014">
        <ele>99.97</ele>
        <time>2019-05-27T08:29:00.000Z</time>
      </trkpt>
      <trkpt lat="44.82279" lon="4.80127">
        <ele>100.02</ele>
        <time>2019-05-27T08:29:05.000Z</time>
      </trkpt>
      <trkpt lat="44.823" lon="4.8011">
        <ele>101</ele>
        <time>2019-05-27T08:29:10.000Z</time>
      </trkpt>
      <trkpt lat="44.82321" lon="4.80093">
        <ele>100.03</ele>
        <time>2019-05-27T08:29:15.000Z</time>
      </trkpt>
      <trkpt lat="44.82342" lon="4.80086">
        <ele>100.77</ele>
        <time>2019-05-27T08:29:20.000Z</time>
      </trkpt>
      <trkpt lat="44.8236" lon="4.80081">
        <ele>102.01</ele>
        <time>2019-05-27T08:29:25.000Z</time>
      </trkpt>
      <trkpt lat="44.82373" lon="4.80073">
        <ele>103.95</ele>
        <time>2019-05-27T08:29:30.000Z</time>
      </trkpt>
      <trkpt lat="44.82391" lon="4.8006">
        <ele>104.02</ele>
        <time>2019-05-27T08:29:35.000Z</time>
      </trkpt>
      <trkpt lat="44.82415" lon="4.80042">
        <ele>103.02</ele>
        <time>2019-05-27T08:29:40.000Z</time>
      </trkpt>
      <trkpt lat="44.82435" lon="4.80026">
        <ele>102.02</ele>
        <time>2019-05-27T08:29:45.000Z</time>
      </trkpt>
      <trkpt lat="44.82451" lon="4.80013">
        <ele>102.02</ele>
        <time>2019-05-27T08:29:50.000Z</time>
      </trkpt>
      <trkpt lat="44.82462" lon="4.80004">
        <ele>102.02</ele>
        <time>2019-05-27T08:29:55.000Z</time>
      </trkpt>
      <trkpt lat="44.82472" lon="4.79997">
        <ele>103.77</ele>
        <time>2019-05-27T08:30:01.000Z</time>
      </trkpt>
      <trkpt lat="44.82481" lon="4.8">
        <ele>105.76</ele>
        <time>2019-05-27T08:30:07.000Z</time>
      </trkpt>
      <trkpt lat="44.82475" lon="4.79988">
        <ele>105.01</ele>
        <time>2019-05-27T08:30:26.000Z</time>
      </trkpt>
      <trkpt lat="44.82466" lon="4.79966">
        <ele>106.25</ele>
        <time>2019-05-27T08:30:31.000Z</time>
      </trkpt>
      <trkpt lat="44.82454" lon="4.79941">
        <ele>107</ele>
        <time>2019-05-27T08:30:36.000Z</time>
      </trkpt>
      <trkpt lat="44.8244" lon="4.79912">
        <ele>106.02</ele>
        <time>2019-05-27T08:30:41.000Z</time>
      </trkpt>
      <trkpt lat="44.82425" lon="4.79885">
        <ele>106.02</ele>
        <time>2019-05-27T08:30:46.000Z</time>
      </trkpt>
      <trkpt lat="44.8241" lon="4.79855">
        <ele>107.01</ele>
        <time>2019-05-27T08:30:51.000Z</time>
      </trkpt>
      <trkpt lat="44.82394" lon="4.79824">
        <ele>107.26</ele>
        <time>2019-05-27T08:30:56.000Z</time>
      </trkpt>
      <trkpt lat="44.8238" lon="4.79807">
        <ele>106.03</ele>
        <time>2019-05-27T08:31:01.000Z</time>
      </trkpt>
      <trkpt lat="44.8237" lon="4.7983">
        <ele>106.01</ele>
        <time>2019-05-27T08:31:06.000Z</time>
      </trkpt>
      <trkpt lat="44.82367" lon="4.79845">
        <ele>103.21</ele>
        <time>2019-05-27T08:32:32.000Z</time>
      </trkpt>
      <trkpt lat="44.82351" lon="4.79874">
        <ele>101.28</ele>
        <time>2019-05-27T08:32:37.000Z</time>
      </trkpt>
      <trkpt lat="44.82327" lon="4.79913">
        <ele>100.77</ele>
        <time>2019-05-27T08:32:42.000Z</time>
      </trkpt>
      <trkpt lat="44.82298" lon="4.79944">
        <ele>100.02</ele>
        <time>2019-05-27T08:32:47.000Z</time>
      </trkpt>
      <trkpt lat="44.82264" lon="4.79964">
        <ele>100.77</ele>
        <time>2019-05-27T08:32:52.000Z</time>
      </trkpt>
      <trkpt lat="44.82233" lon="4.79982">
        <ele>100.97</ele>
        <time>2019-05-27T08:32:57.000Z</time>
      </trkpt>
      <trkpt lat="44.82206" lon="4.8001">
        <ele>101.76</ele>
        <time>2019-05-27T08:33:02.000Z</time>
      </trkpt>
      <trkpt lat="44.82189" lon="4.80046">
        <ele>101.02</ele>
        <time>2019-05-27T08:33:07.000Z</time>
      </trkpt>
      <trkpt lat="44.82161" lon="4.80069">
        <ele>100.09</ele>
        <time>2019-05-27T08:33:12.000Z</time>
      </trkpt>
      <trkpt lat="44.82131" lon="4.80085">
        <ele>99.25</ele>
        <time>2019-05-27T08:33:17.000Z</time>
      </trkpt>
      <trkpt lat="44.82097" lon="4.80096">
        <ele>99.26</ele>
        <time>2019-05-27T08:33:22.000Z</time>
      </trkpt>
      <trkpt lat="44.82062" lon="4.80102">
        <ele>97.28</ele>
        <time>2019-05-27T08:33:27.000Z</time>
      </trkpt>
      <trkpt lat="44.82028" lon="4.80106">
        <ele>97.76</ele>
        <time>2019-05-27T08:33:32.000Z</time>
      </trkpt>
      <trkpt lat="44.81995" lon="4.80112">
        <ele>99.7</ele>
        <time>2019-05-27T08:33:37.000Z</time>
      </trkpt>
      <trkpt lat="44.81962" lon="4.80114">
        <ele>99.28</ele>
        <time>2019-05-27T08:33:42.000Z</time>
      </trkpt>
      <trkpt lat="44.81927" lon="4.8012">
        <ele>99.01</ele>
        <time>2019-05-27T08:33:47.000Z</time>
      </trkpt>
      <trkpt lat="44.81897" lon="4.80126">
        <ele>98.01</ele>
        <time>2019-05-27T08:33:52.000Z</time>
      </trkpt>
      <trkpt lat="44.81866" lon="4.80128">
        <ele>99.75</ele>
        <time>2019-05-27T08:33:57.000Z</time>
      </trkpt>
      <trkpt lat="44.81835" lon="4.80133">
        <ele>98.08</ele>
        <time>2019-05-27T08:34:02.000Z</time>
      </trkpt>
      <trkpt lat="44.81804" lon="4.80139">
        <ele>98.76</ele>
        <time>2019-05-27T08:34:07.000Z</time>
      </trkpt>
      <trkpt lat="44.81775" lon="4.80142">
        <ele>99.95</ele>
        <time>2019-05-27T08:34:12.000Z</time>
      </trkpt>
      <trkpt lat="44.81745" lon="4.80144">
        <ele>99.03</ele>
        <time>2019-05-27T08:34:17.000Z</time>
      </trkpt>
      <trkpt lat="44.81716" lon="4.80147">
        <ele>99.01</ele>
        <time>2019-05-27T08:34:22.000Z</time>
      </trkpt>
      <trkpt lat="44.81684" lon="4.80147">
        <ele>99.95</ele>
        <time>2019-05-27T08:34:27.000Z</time>
      </trkpt>
      <trkpt lat="44.81653" lon="4.80146">
        <ele>99.01</ele>
        <time>2019-05-27T08:34:32.000Z</time>
      </trkpt>
      <trkpt lat="44.81622" lon="4.80145">
        <ele>100.23</ele>
        <time>2019-05-27T08:34:37.000Z</time>
      </trkpt>
      <trkpt lat="44.8159" lon="4.80143">
        <ele>100.07</ele>
        <time>2019-05-27T08:34:42.000Z</time>
      </trkpt>
      <trkpt lat="44.81561" lon="4.8014">
        <ele>101.95</ele>
        <time>2019-05-27T08:34:47.000Z</time>
      </trkpt>
      <trkpt lat="44.8153" lon="4.80135">
        <ele>101.02</ele>
        <time>2019-05-27T08:34:52.000Z</time>
      </trkpt>
      <trkpt lat="44.81497" lon="4.80128">
        <ele>99.78</ele>
        <time>2019-05-27T08:34:57.000Z</time>
      </trkpt>
      <trkpt lat="44.81462" lon="4.80123">
        <ele>98.55</ele>
        <time>2019-05-27T08:35:02.000Z</time>
      </trkpt>
      <trkpt lat="44.8143" lon="4.80117">
        <ele>99.7</ele>
        <time>2019-05-27T08:35:07.000Z</time>
      </trkpt>
      <trkpt lat="44.81398" lon="4.80113">
        <ele>101.7</ele>
        <time>2019-05-27T08:35:12.000Z</time>
      </trkpt>
      <trkpt lat="44.81362" lon="4.80107">
        <ele>100.07</ele>
        <time>2019-05-27T08:35:17.000Z</time>
      </trkpt>
      <trkpt lat="44.81327" lon="4.80098">
        <ele>100.21</ele>
        <time>2019-05-27T08:35:22.000Z</time>
      </trkpt>
      <trkpt lat="44.81296" lon="4.80091">
        <ele>101.95</ele>
        <time>2019-05-27T08:35:27.000Z</time>
      </trkpt>
      <trkpt lat="44.81262" lon="4.80098">
        <ele>98.33</ele>
        <time>2019-05-27T08:35:32.000Z</time>
      </trkpt>
      <trkpt lat="44.81234" lon="4.80097">
        <ele>99.01</ele>
        <time>2019-05-27T08:35:37.000Z</time>
      </trkpt>
      <trkpt lat="44.81202" lon="4.80093">
        <ele>97.03</ele>
        <time>2019-05-27T08:35:42.000Z</time>
      </trkpt>
      <trkpt lat="44.81176" lon="4.80088">
        <ele>99.99</ele>
        <time>2019-05-27T08:35:47.000Z</time>
      </trkpt>
      <trkpt lat="44.8115" lon="4.8008">
        <ele>100.75</ele>
        <time>2019-05-27T08:35:52.000Z</time>
      </trkpt>
      <trkpt lat="44.81117" lon="4.80076">
        <ele>99.21</ele>
        <time>2019-05-27T08:35:57.000Z</time>
      </trkpt>
      <trkpt lat="44.81083" lon="4.80074">
        <ele>98.26</ele>
        <time>2019-05-27T08:36:02.000Z</time>
      </trkpt>
      <trkpt lat="44.81053" lon="4.80064">
        <ele>97.03</ele>
        <time>2019-05-27T08:36:07.000Z</time>
      </trkpt>
      <trkpt lat="44.81021" lon="4.80057">
        <ele>96.03</ele>
        <time>2019-05-27T08:36:12.000Z</time>
      </trkpt>
      <trkpt lat="44.80991" lon="4.80047">
        <ele>96.99</ele>
        <time>2019-05-27T08:36:17.000Z</time>
      </trkpt>
      <trkpt lat="44.80964" lon="4.80032">
        <ele>97.76</ele>
        <time>2019-05-27T08:36:22.000Z</time>
      </trkpt>
      <trkpt lat="44.80936" lon="4.80015">
        <ele>98.95</ele>
        <time>2019-05-27T08:36:27.000Z</time>
      </trkpt>
      <trkpt lat="44.80907" lon="4.79997">
        <ele>99.06</ele>
        <time>2019-05-27T08:36:32.000Z</time>
      </trkpt>
      <trkpt lat="44.80881" lon="4.79979">
        <ele>99.01</ele>
        <time>2019-05-27T08:36:37.000Z</time>
      </trkpt>
      <trkpt lat="44.80858" lon="4.79957">
        <ele>98.59</ele>
        <time>2019-05-27T08:36:42.000Z</time>
      </trkpt>
      <trkpt lat="44.80834" lon="4.79933">
        <ele>99.26</ele>
        <time>2019-05-27T08:36:47.000Z</time>
      </trkpt>
      <trkpt lat="44.80813" lon="4.79908">
        <ele>99.01</ele>
        <time>2019-05-27T08:36:52.000Z</time>
      </trkpt>
      <trkpt lat="44.80785" lon="4.79887">
        <ele>98.26</ele>
        <time>2019-05-27T08:36:57.000Z</time>
      </trkpt>
      <trkpt lat="44.80758" lon="4.7987">
        <ele>96.51</ele>
        <time>2019-05-27T08:37:02.000Z</time>
      </trkpt>
      <trkpt lat="44.80739" lon="4.79846">
        <ele>96.82</ele>
        <time>2019-05-27T08:37:07.000Z</time>
      </trkpt>
      <trkpt lat="44.80717" lon="4.79823">
        <ele>96.01</ele>
        <time>2019-05-27T08:37:12.000Z</time>
      </trkpt>
      <trkpt lat="44.80694" lon="4.79796">
        <ele>95.07</ele>
        <time>2019-05-27T08:37:17.000Z</time>
      </trkpt>
      <trkpt lat="44.80674" lon="4.79771">
        <ele>94.01</ele>
        <time>2019-05-27T08:37:22.000Z</time>
      </trkpt>
      <trkpt lat="44.80651" lon="4.79748">
        <ele>95.01</ele>
        <time>2019-05-27T08:37:27.000Z</time>
      </trkpt>
      <trkpt lat="44.80626" lon="4.79727">
        <ele>93.81</ele>
        <time>2019-05-27T08:37:32.000Z</time>
      </trkpt>
      <trkpt lat="44.806" lon="4.79701">
        <ele>94.25</ele>
        <time>2019-05-27T08:37:37.000Z</time>
      </trkpt>
      <trkpt lat="44.80586" lon="4.7967">
        <ele>95.97</ele>
        <time>2019-05-27T08:37:42.000Z</time>
      </trkpt>
      <trkpt lat="44.80573" lon="4.7963">
        <ele>95.02</ele>
        <time>2019-05-27T08:37:47.000Z</time>
      </trkpt>
      <trkpt lat="44.80559" lon="4.79589">
        <ele>95.82</ele>
        <time>2019-05-27T08:37:52.000Z</time>
      </trkpt>
      <trkpt lat="44.80551" lon="4.79542">
        <ele>95.77</ele>
        <time>2019-05-27T08:37:57.000Z</time>
      </trkpt>
      <trkpt lat="44.80547" lon="4.79499">
        <ele>95.01</ele>
        <time>2019-05-27T08:38:02.000Z</time>
      </trkpt>
      <trkpt lat="44.80535" lon="4.79458">
        <ele>95.94</ele>
        <time>2019-05-27T08:38:07.000Z</time>
      </trkpt>
      <trkpt lat="44.80528" lon="4.7942">
        <ele>96.99</ele>
        <time>2019-05-27T08:38:12.000Z</time>
      </trkpt>
      <trkpt lat="44.80513" lon="4.79406">
        <ele>97.8</ele>
        <time>2019-05-27T08:38:17.000Z</time>
      </trkpt>
      <trkpt lat="44.80506" lon="4.79375">
        <ele>98.99</ele>
        <time>2019-05-27T08:38:22.000Z</time>
      </trkpt>
      <trkpt lat="44.80495" lon="4.79345">
        <ele>95.45</ele>
        <time>2019-05-27T08:38:27.000Z</time>
      </trkpt>
      <trkpt lat="44.80473" lon="4.79319">
        <ele>95</ele>
        <time>2019-05-27T08:38:32.000Z</time>
      </trkpt>
      <trkpt lat="44.80461" lon="4.79288">
        <ele>96.8</ele>
        <time>2019-05-27T08:38:37.000Z</time>
      </trkpt>
      <trkpt lat="44.80453" lon="4.79253">
        <ele>96.76</ele>
        <time>2019-05-27T08:38:42.000Z</time>
      </trkpt>
      <trkpt lat="44.80435" lon="4.79224">
        <ele>97.01</ele>
        <time>2019-05-27T08:38:47.000Z</time>
      </trkpt>
      <trkpt lat="44.80422" lon="4.79191">
        <ele>96.99</ele>
        <time>2019-05-27T08:38:52.000Z</time>
      </trkpt>
      <trkpt lat="44.8041" lon="4.79156">
        <ele>97.8</ele>
        <time>2019-05-27T08:38:57.000Z</time>
      </trkpt>
      <trkpt lat="44.80401" lon="4.7912">
        <ele>99.05</ele>
        <time>2019-05-27T08:39:02.000Z</time>
      </trkpt>
      <trkpt lat="44.80412" lon="4.79085">
        <ele>98</ele>
        <time>2019-05-27T08:39:07.000Z</time>
      </trkpt>
      <trkpt lat="44.80391" lon="4.79047">
        <ele>97.26</ele>
        <time>2019-05-27T08:39:12.000Z</time>
      </trkpt>
      <trkpt lat="44.80379" lon="4.79014">
        <ele>93.32</ele>
        <time>2019-05-27T08:39:17.000Z</time>
      </trkpt>
      <trkpt lat="44.80363" lon="4.78985">
        <ele>93.24</ele>
        <time>2019-05-27T08:39:22.000Z</time>
      </trkpt>
      <trkpt lat="44.80347" lon="4.78934">
        <ele>92.97</ele>
        <time>2019-05-27T08:39:27.000Z</time>
      </trkpt>
      <trkpt lat="44.80333" lon="4.78898">
        <ele>95.31</ele>
        <time>2019-05-27T08:39:32.000Z</time>
      </trkpt>
      <trkpt lat="44.80316" lon="4.78852">
        <ele>92.01</ele>
        <time>2019-05-27T08:39:37.000Z</time>
      </trkpt>
      <trkpt lat="44.80305" lon="4.78811">
        <ele>93.93</ele>
        <time>2019-05-27T08:39:42.000Z</time>
      </trkpt>
      <trkpt lat="44.80296" lon="4.78773">
        <ele>92.44</ele>
        <time>2019-05-27T08:39:47.000Z</time>
      </trkpt>
      <trkpt lat="44.80283" lon="4.78737">
        <ele>91.27</ele>
        <time>2019-05-27T08:39:52.000Z</time>
      </trkpt>
      <trkpt lat="44.80273" lon="4.78702">
        <ele>90.77</ele>
        <time>2019-05-27T08:39:57.000Z</time>
      </trkpt>
      <trkpt lat="44.80264" lon="4.78673">
        <ele>93.73</ele>
        <time>2019-05-27T08:40:02.000Z</time>
      </trkpt>
      <trkpt lat="44.80248" lon="4.78637">
        <ele>91.07</ele>
        <time>2019-05-27T08:40:07.000Z</time>
      </trkpt>
      <trkpt lat="44.80232" lon="4.78595">
        <ele>88.33</ele>
        <time>2019-05-27T08:40:12.000Z</time>
      </trkpt>
      <trkpt lat="44.80217" lon="4.78559">
        <ele>87.96</ele>
        <time>2019-05-27T08:40:17.000Z</time>
      </trkpt>
      <trkpt lat="44.80203" lon="4.78525">
        <ele>88.21</ele>
        <time>2019-05-27T08:40:22.000Z</time>
      </trkpt>
      <trkpt lat="44.8019" lon="4.78493">
        <ele>88.95</ele>
        <time>2019-05-27T08:40:27.000Z</time>
      </trkpt>
      <trkpt lat="44.8018" lon="4.78472">
        <ele>89.25</ele>
        <time>2019-05-27T08:40:32.000Z</time>
      </trkpt>
      <trkpt lat="44.80169" lon="4.78454">
        <ele>88.72</ele>
        <time>2019-05-27T08:40:37.000Z</time>
      </trkpt>
      <trkpt lat="44.80156" lon="4.78425">
        <ele>91.08</ele>
        <time>2019-05-27T08:40:42.000Z</time>
      </trkpt>
      <trkpt lat="44.80138" lon="4.78396">
        <ele>89.26</ele>
        <time>2019-05-27T08:40:47.000Z</time>
      </trkpt>
      <trkpt lat="44.80114" lon="4.78366">
        <ele>93.05</ele>
        <time>2019-05-27T08:40:52.000Z</time>
      </trkpt>
      <trkpt lat="44.80085" lon="4.78339">
        <ele>92.01</ele>
        <time>2019-05-27T08:40:57.000Z</time>
      </trkpt>
      <trkpt lat="44.80064" lon="4.78307">
        <ele>92.25</ele>
        <time>2019-05-27T08:41:02.000Z</time>
      </trkpt>
      <trkpt lat="44.80048" lon="4.78278">
        <ele>93.05</ele>
        <time>2019-05-27T08:41:07.000Z</time>
      </trkpt>
      <trkpt lat="44.80037" lon="4.78257">
        <ele>94.99</ele>
        <time>2019-05-27T08:41:12.000Z</time>
      </trkpt>
      <trkpt lat="44.80024" lon="4.78239">
        <ele>97</ele>
        <time>2019-05-27T08:41:17.000Z</time>
      </trkpt>
      <trkpt lat="44.80012" lon="4.7822">
        <ele>98</ele>
        <time>2019-05-27T08:41:22.000Z</time>
      </trkpt>
      <trkpt lat="44.80004" lon="4.78206">
        <ele>99.94</ele>
        <time>2019-05-27T08:41:27.000Z</time>
      </trkpt>
      <trkpt lat="44.80001" lon="4.78193">
        <ele>99.19</ele>
        <time>2019-05-27T08:41:41.000Z</time>
      </trkpt>
      <trkpt lat="44.80012" lon="4.78192">
        <ele>97.95</ele>
        <time>2019-05-27T08:41:46.000Z</time>
      </trkpt>
      <trkpt lat="44.80024" lon="4.78215">
        <ele>99.93</ele>
        <time>2019-05-27T08:41:51.000Z</time>
      </trkpt>
      <trkpt lat="44.80036" lon="4.78232">
        <ele>98.99</ele>
        <time>2019-05-27T08:41:56.000Z</time>
      </trkpt>
      <trkpt lat="44.8004" lon="4.78221">
        <ele>98.76</ele>
        <time>2019-05-27T08:42:08.000Z</time>
      </trkpt>
      <trkpt lat="44.80037" lon="4.78206">
        <ele>95.99</ele>
        <time>2019-05-27T08:42:19.000Z</time>
      </trkpt>
      <trkpt lat="44.8003" lon="4.7819">
        <ele>97.94</ele>
        <time>2019-05-27T08:42:24.000Z</time>
      </trkpt>
      <trkpt lat="44.80027" lon="4.78177">
        <ele>99.93</ele>
        <time>2019-05-27T08:42:29.000Z</time>
      </trkpt>
      <trkpt lat="44.80032" lon="4.7819">
        <ele>102.06</ele>
        <time>2019-05-27T08:42:41.000Z</time>
      </trkpt>
      <trkpt lat="44.80036" lon="4.78208">
        <ele>100.75</ele>
        <time>2019-05-27T08:42:46.000Z</time>
      </trkpt>
      <trkpt lat="44.80045" lon="4.78205">
        <ele>100.25</ele>
        <time>2019-05-27T08:42:52.000Z</time>
      </trkpt>
      <trkpt lat="44.80047" lon="4.78188">
        <ele>99.95</ele>
        <time>2019-05-27T08:42:57.000Z</time>
      </trkpt>
      <trkpt lat="44.80049" lon="4.78169">
        <ele>101.94</ele>
        <time>2019-05-27T08:43:02.000Z</time>
      </trkpt>
      <trkpt lat="44.8005" lon="4.78155">
        <ele>100.99</ele>
        <time>2019-05-27T08:43:08.000Z</time>
      </trkpt>
      <trkpt lat="44.80037" lon="4.78143">
        <ele>102</ele>
        <time>2019-05-27T08:43:13.000Z</time>
      </trkpt>
      <trkpt lat="44.80019" lon="4.78137">
        <ele>102.69</ele>
        <time>2019-05-27T08:43:18.000Z</time>
      </trkpt>
      <trkpt lat="44.8001" lon="4.78123">
        <ele>105.67</ele>
        <time>2019-05-27T08:43:23.000Z</time>
      </trkpt>
      <trkpt lat="44.8" lon="4.7811">
        <ele>104.95</ele>
        <time>2019-05-27T08:43:28.000Z</time>
      </trkpt>
      <trkpt lat="44.80008" lon="4.78117">
        <ele>106.92</ele>
        <time>2019-05-27T08:43:40.000Z</time>
      </trkpt>
      <trkpt lat="44.80015" lon="4.78127">
        <ele>103.08</ele>
        <time>2019-05-27T08:43:51.000Z</time>
      </trkpt>
      <trkpt lat="44.80017" lon="4.7814">
        <ele>102.7</ele>
        <time>2019-05-27T08:59:14.000Z</time>
      </trkpt>
      <trkpt lat="44.80026" lon="4.78144">
        <ele>104.99</ele>
        <time>2019-05-27T08:59:22.000Z</time>
      </trkpt>
      <trkpt lat="44.80034" lon="4.78148">
        <ele>100.83</ele>
        <time>2019-05-27T08:59:29.000Z</time>
      </trkpt>
      <trkpt lat="44.80039" lon="4.7816">
        <ele>102.98</ele>
        <time>2019-05-27T09:00:07.000Z</time>
      </trkpt>
      <trkpt lat="44.80039" lon="4.78182">
        <ele>101.02</ele>
        <time>2019-05-27T09:00:12.000Z</time>
      </trkpt>
      <trkpt lat="44.80044" lon="4.78207">
        <ele>100.21</ele>
        <time>2019-05-27T09:00:17.000Z</time>
      </trkpt>
      <trkpt lat="44.8006" lon="4.78224">
        <ele>99.07</ele>
        <time>2019-05-27T09:00:22.000Z</time>
      </trkpt>
      <trkpt lat="44.80076" lon="4.78238">
        <ele>100.73</ele>
        <time>2019-05-27T09:00:27.000Z</time>
      </trkpt>
      <trkpt lat="44.80087" lon="4.78262">
        <ele>100.07</ele>
        <time>2019-05-27T09:00:32.000Z</time>
      </trkpt>
      <trkpt lat="44.80099" lon="4.78289">
        <ele>99.25</ele>
        <time>2019-05-27T09:00:37.000Z</time>
      </trkpt>
      <trkpt lat="44.80114" lon="4.78308">
        <ele>101.98</ele>
        <time>2019-05-27T09:00:42.000Z</time>
      </trkpt>
      <trkpt lat="44.80118" lon="4.78325">
        <ele>102.02</ele>
        <time>2019-05-27T09:00:47.000Z</time>
      </trkpt>
      <trkpt lat="44.80109" lon="4.78329">
        <ele>103.02</ele>
        <time>2019-05-27T09:01:05.000Z</time>
      </trkpt>
      <trkpt lat="44.80117" lon="4.78334">
        <ele>95.76</ele>
        <time>2019-05-27T09:01:26.000Z</time>
      </trkpt>
      <trkpt lat="44.80124" lon="4.78325">
        <ele>94.94</ele>
        <time>2019-05-27T09:01:33.000Z</time>
      </trkpt>
      <trkpt lat="44.80128" lon="4.78312">
        <ele>94.82</ele>
        <time>2019-05-27T09:01:38.000Z</time>
      </trkpt>
      <trkpt lat="44.80118" lon="4.78313">
        <ele>94.95</ele>
        <time>2019-05-27T09:01:43.000Z</time>
      </trkpt>
      <trkpt lat="44.80127" lon="4.78311">
        <ele>95.27</ele>
        <time>2019-05-27T09:01:54.000Z</time>
      </trkpt>
      <trkpt lat="44.80122" lon="4.78323">
        <ele>93.1</ele>
        <time>2019-05-27T09:02:01.000Z</time>
      </trkpt>
      <trkpt lat="44.80107" lon="4.7834">
        <ele>92.69</ele>
        <time>2019-05-27T09:02:06.000Z</time>
      </trkpt>
      <trkpt lat="44.80091" lon="4.78358">
        <ele>94.55</ele>
        <time>2019-05-27T09:02:11.000Z</time>
      </trkpt>
      <trkpt lat="44.80076" lon="4.78375">
        <ele>95.93</ele>
        <time>2019-05-27T09:02:16.000Z</time>
      </trkpt>
      <trkpt lat="44.80061" lon="4.7839">
        <ele>97</ele>
        <time>2019-05-27T09:02:21.000Z</time>
      </trkpt>
      <trkpt lat="44.80042" lon="4.78406">
        <ele>98.81</ele>
        <time>2019-05-27T09:02:26.000Z</time>
      </trkpt>
      <trkpt lat="44.80023" lon="4.78425">
        <ele>99.99</ele>
        <time>2019-05-27T09:02:31.000Z</time>
      </trkpt>
      <trkpt lat="44.80003" lon="4.78448">
        <ele>97.31</ele>
        <time>2019-05-27T09:02:36.000Z</time>
      </trkpt>
      <trkpt lat="44.79981" lon="4.78472">
        <ele>97.75</ele>
        <time>2019-05-27T09:02:41.000Z</time>
      </trkpt>
      <trkpt lat="44.79959" lon="4.78494">
        <ele>99.24</ele>
        <time>2019-05-27T09:02:46.000Z</time>
      </trkpt>
      <trkpt lat="44.79933" lon="4.7852">
        <ele>96.27</ele>
        <time>2019-05-27T09:02:51.000Z</time>
      </trkpt>
      <trkpt lat="44.79907" lon="4.78549">
        <ele>92.03</ele>
        <time>2019-05-27T09:02:56.000Z</time>
      </trkpt>
      <trkpt lat="44.7989" lon="4.78566">
        <ele>91.08</ele>
        <time>2019-05-27T09:03:01.000Z</time>
      </trkpt>
      <trkpt lat="44.79871" lon="4.78549">
        <ele>90.75</ele>
        <time>2019-05-27T09:03:06.000Z</time>
      </trkpt>
      <trkpt lat="44.79842" lon="4.78525">
        <ele>94.3</ele>
        <time>2019-05-27T09:03:11.000Z</time>
      </trkpt>
      <trkpt lat="44.79813" lon="4.78501">
        <ele>93</ele>
        <time>2019-05-27T09:03:16.000Z</time>
      </trkpt>
      <trkpt lat="44.79786" lon="4.78475">
        <ele>92</ele>
        <time>2019-05-27T09:03:21.000Z</time>
      </trkpt>
      <trkpt lat="44.79758" lon="4.78451">
        <ele>93.97</ele>
        <time>2019-05-27T09:03:26.000Z</time>
      </trkpt>
      <trkpt lat="44.79731" lon="4.78429">
        <ele>92.32</ele>
        <time>2019-05-27T09:03:31.000Z</time>
      </trkpt>
      <trkpt lat="44.79707" lon="4.78408">
        <ele>92.01</ele>
        <time>2019-05-27T09:03:36.000Z</time>
      </trkpt>
      <trkpt lat="44.79679" lon="4.78387">
        <ele>90.2</ele>
        <time>2019-05-27T09:03:41.000Z</time>
      </trkpt>
      <trkpt lat="44.79653" lon="4.78363">
        <ele>91.94</ele>
        <time>2019-05-27T09:03:46.000Z</time>
      </trkpt>
      <trkpt lat="44.79628" lon="4.78347">
        <ele>91</ele>
        <time>2019-05-27T09:03:51.000Z</time>
      </trkpt>
      <trkpt lat="44.796" lon="4.7833">
        <ele>91.94</ele>
        <time>2019-05-27T09:03:56.000Z</time>
      </trkpt>
      <trkpt lat="44.79572" lon="4.78315">
        <ele>92.05</ele>
        <time>2019-05-27T09:04:01.000Z</time>
      </trkpt>
      <trkpt lat="44.79543" lon="4.78299">
        <ele>92.99</ele>
        <time>2019-05-27T09:04:06.000Z</time>
      </trkpt>
      <trkpt lat="44.79514" lon="4.78281">
        <ele>95.03</ele>
        <time>2019-05-27T09:04:11.000Z</time>
      </trkpt>
      <trkpt lat="44.79489" lon="4.78261">
        <ele>94.94</ele>
        <time>2019-05-27T09:04:16.000Z</time>
      </trkpt>
      <trkpt lat="44.7947" lon="4.78238">
        <ele>95.02</ele>
        <time>2019-05-27T09:04:21.000Z</time>
      </trkpt>
      <trkpt lat="44.7945" lon="4.78211">
        <ele>94.95</ele>
        <time>2019-05-27T09:04:26.000Z</time>
      </trkpt>
      <trkpt lat="44.79423" lon="4.78185">
        <ele>94.25</ele>
        <time>2019-05-27T09:04:31.000Z</time>
      </trkpt>
      <trkpt lat="44.79394" lon="4.78169">
        <ele>94</ele>
        <time>2019-05-27T09:04:36.000Z</time>
      </trkpt>
      <trkpt lat="44.79363" lon="4.78155">
        <ele>95</ele>
        <time>2019-05-27T09:04:41.000Z</time>
      </trkpt>
      <trkpt lat="44.79334" lon="4.78131">
        <ele>95.56</ele>
        <time>2019-05-27T09:04:46.000Z</time>
      </trkpt>
      <trkpt lat="44.79303" lon="4.78101">
        <ele>94.81</ele>
        <time>2019-05-27T09:04:51.000Z</time>
      </trkpt>
      <trkpt lat="44.7927" lon="4.7808">
        <ele>94.02</ele>
        <time>2019-05-27T09:04:56.000Z</time>
      </trkpt>
      <trkpt lat="44.79238" lon="4.78059">
        <ele>94</ele>
        <time>2019-05-27T09:05:01.000Z</time>
      </trkpt>
      <trkpt lat="44.79208" lon="4.78036">
        <ele>95</ele>
        <time>2019-05-27T09:05:06.000Z</time>
      </trkpt>
      <trkpt lat="44.79179" lon="4.7801">
        <ele>95</ele>
        <time>2019-05-27T09:05:11.000Z</time>
      </trkpt>
      <trkpt lat="44.79148" lon="4.77985">
        <ele>95</ele>
        <time>2019-05-27T09:05:16.000Z</time>
      </trkpt>
      <trkpt lat="44.79117" lon="4.77961">
        <ele>94.06</ele>
        <time>2019-05-27T09:05:21.000Z</time>
      </trkpt>
      <trkpt lat="44.79088" lon="4.77936">
        <ele>94.05</ele>
        <time>2019-05-27T09:05:26.000Z</time>
      </trkpt>
      <trkpt lat="44.79058" lon="4.77911">
        <ele>93.77</ele>
        <time>2019-05-27T09:05:31.000Z</time>
      </trkpt>
      <trkpt lat="44.79028" lon="4.77884">
        <ele>92.25</ele>
        <time>2019-05-27T09:05:36.000Z</time>
      </trkpt>
      <trkpt lat="44.78997" lon="4.77857">
        <ele>93.94</ele>
        <time>2019-05-27T09:05:41.000Z</time>
      </trkpt>
      <trkpt lat="44.78967" lon="4.77828">
        <ele>94</ele>
        <time>2019-05-27T09:05:46.000Z</time>
      </trkpt>
      <trkpt lat="44.78937" lon="4.77803">
        <ele>93</ele>
        <time>2019-05-27T09:05:51.000Z</time>
      </trkpt>
      <trkpt lat="44.78908" lon="4.77775">
        <ele>93.75</ele>
        <time>2019-05-27T09:05:56.000Z</time>
      </trkpt>
      <trkpt lat="44.78878" lon="4.77748">
        <ele>94.01</ele>
        <time>2019-05-27T09:06:01.000Z</time>
      </trkpt>
      <trkpt lat="44.78848" lon="4.77722">
        <ele>93.2</ele>
        <time>2019-05-27T09:06:06.000Z</time>
      </trkpt>
      <trkpt lat="44.78818" lon="4.77696">
        <ele>93</ele>
        <time>2019-05-27T09:06:11.000Z</time>
      </trkpt>
      <trkpt lat="44.78786" lon="4.77673">
        <ele>92</ele>
        <time>2019-05-27T09:06:16.000Z</time>
      </trkpt>
      <trkpt lat="44.78754" lon="4.77651">
        <ele>92</ele>
        <time>2019-05-27T09:06:21.000Z</time>
      </trkpt>
      <trkpt lat="44.78719" lon="4.77632">
        <ele>92</ele>
        <time>2019-05-27T09:06:26.000Z</time>
      </trkpt>
      <trkpt lat="44.78686" lon="4.7761">
        <ele>92.98</ele>
        <time>2019-05-27T09:06:31.000Z</time>
      </trkpt>
      <trkpt lat="44.78656" lon="4.77587">
        <ele>92.76</ele>
        <time>2019-05-27T09:06:36.000Z</time>
      </trkpt>
      <trkpt lat="44.78624" lon="4.77567">
        <ele>93.92</ele>
        <time>2019-05-27T09:06:41.000Z</time>
      </trkpt>
      <trkpt lat="44.78591" lon="4.77547">
        <ele>93</ele>
        <time>2019-05-27T09:06:46.000Z</time>
      </trkpt>
      <trkpt lat="44.78557" lon="4.77531">
        <ele>91.76</ele>
        <time>2019-05-27T09:06:51.000Z</time>
      </trkpt>
      <trkpt lat="44.78522" lon="4.77519">
        <ele>92</ele>
        <time>2019-05-27T09:06:56.000Z</time>
      </trkpt>
      <trkpt lat="44.78486" lon="4.77506">
        <ele>92</ele>
        <time>2019-05-27T09:07:01.000Z</time>
      </trkpt>
      <trkpt lat="44.78448" lon="4.77496">
        <ele>92.99</ele>
        <time>2019-05-27T09:07:06.000Z</time>
      </trkpt>
      <trkpt lat="44.78412" lon="4.77484">
        <ele>94.75</ele>
        <time>2019-05-27T09:07:11.000Z</time>
      </trkpt>
      <trkpt lat="44.7838" lon="4.77471">
        <ele>95.31</ele>
        <time>2019-05-27T09:07:16.000Z</time>
      </trkpt>
      <trkpt lat="44.78344" lon="4.77459">
        <ele>92.94</ele>
        <time>2019-05-27T09:07:21.000Z</time>
      </trkpt>
      <trkpt lat="44.78309" lon="4.77444">
        <ele>96.67</ele>
        <time>2019-05-27T09:07:26.000Z</time>
      </trkpt>
      <trkpt lat="44.78274" lon="4.77431">
        <ele>95.97</ele>
        <time>2019-05-27T09:07:31.000Z</time>
      </trkpt>
      <trkpt lat="44.78241" lon="4.77419">
        <ele>93.27</ele>
        <time>2019-05-27T09:07:36.000Z</time>
      </trkpt>
      <trkpt lat="44.78209" lon="4.77399">
        <ele>92.82</ele>
        <time>2019-05-27T09:07:41.000Z</time>
      </trkpt>
      <trkpt lat="44.78184" lon="4.77377">
        <ele>93.26</ele>
        <time>2019-05-27T09:07:46.000Z</time>
      </trkpt>
      <trkpt lat="44.78156" lon="4.77377">
        <ele>91</ele>
        <time>2019-05-27T09:07:51.000Z</time>
      </trkpt>
      <trkpt lat="44.78157" lon="4.77412">
        <ele>91.92</ele>
        <time>2019-05-27T09:07:56.000Z</time>
      </trkpt>
      <trkpt lat="44.78144" lon="4.77424">
        <ele>92.7</ele>
        <time>2019-05-27T09:08:01.000Z</time>
      </trkpt>
      <trkpt lat="44.78125" lon="4.77418">
        <ele>92.01</ele>
        <time>2019-05-27T09:08:06.000Z</time>
      </trkpt>
      <trkpt lat="44.78103" lon="4.77433">
        <ele>89.28</ele>
        <time>2019-05-27T09:08:11.000Z</time>
      </trkpt>
      <trkpt lat="44.78088" lon="4.77409">
        <ele>90.68</ele>
        <time>2019-05-27T09:08:16.000Z</time>
      </trkpt>
      <trkpt lat="44.7808" lon="4.77402">
        <ele>89.06</ele>
        <time>2019-05-27T09:08:49.000Z</time>
      </trkpt>
      <trkpt lat="44.78081" lon="4.77387">
        <ele>88.98</ele>
        <time>2019-05-27T09:09:54.000Z</time>
      </trkpt>
      <trkpt lat="44.78076" lon="4.77371">
        <ele>89.93</ele>
        <time>2019-05-27T09:09:59.000Z</time>
      </trkpt>
      <trkpt lat="44.78063" lon="4.77345">
        <ele>91</ele>
        <time>2019-05-27T09:10:04.000Z</time>
      </trkpt>
      <trkpt lat="44.78049" lon="4.77317">
        <ele>92.93</ele>
        <time>2019-05-27T09:10:09.000Z</time>
      </trkpt>
      <trkpt lat="44.78032" lon="4.77285">
        <ele>94.73</ele>
        <time>2019-05-27T09:10:14.000Z</time>
      </trkpt>
      <trkpt lat="44.78014" lon="4.77249">
        <ele>93.5</ele>
        <time>2019-05-27T09:10:19.000Z</time>
      </trkpt>
      <trkpt lat="44.77998" lon="4.77212">
        <ele>94.75</ele>
        <time>2019-05-27T09:10:24.000Z</time>
      </trkpt>
      <trkpt lat="44.77983" lon="4.77172">
        <ele>95</ele>
        <time>2019-05-27T09:10:29.000Z</time>
      </trkpt>
      <trkpt lat="44.77963" lon="4.77133">
        <ele>95</ele>
        <time>2019-05-27T09:10:34.000Z</time>
      </trkpt>
      <trkpt lat="44.77942" lon="4.77093">
        <ele>95</ele>
        <time>2019-05-27T09:10:39.000Z</time>
      </trkpt>
      <trkpt lat="44.7792" lon="4.77057">
        <ele>94.01</ele>
        <time>2019-05-27T09:10:44.000Z</time>
      </trkpt>
      <trkpt lat="44.77896" lon="4.77026">
        <ele>93.76</ele>
        <time>2019-05-27T09:10:49.000Z</time>
      </trkpt>
      <trkpt lat="44.77874" lon="4.76995">
        <ele>92.07</ele>
        <time>2019-05-27T09:10:54.000Z</time>
      </trkpt>
      <trkpt lat="44.77849" lon="4.76968">
        <ele>92</ele>
        <time>2019-05-27T09:10:59.000Z</time>
      </trkpt>
      <trkpt lat="44.77824" lon="4.76944">
        <ele>92.95</ele>
        <time>2019-05-27T09:11:04.000Z</time>
      </trkpt>
      <trkpt lat="44.778" lon="4.76918">
        <ele>93.79</ele>
        <time>2019-05-27T09:11:09.000Z</time>
      </trkpt>
      <trkpt lat="44.77774" lon="4.76892">
        <ele>94.17</ele>
        <time>2019-05-27T09:11:14.000Z</time>
      </trkpt>
      <trkpt lat="44.77749" lon="4.76867">
        <ele>94.18</ele>
        <time>2019-05-27T09:11:19.000Z</time>
      </trkpt>
      <trkpt lat="44.77722" lon="4.76841">
        <ele>94.76</ele>
        <time>2019-05-27T09:11:24.000Z</time>
      </trkpt>
      <trkpt lat="44.77694" lon="4.76814">
        <ele>94</ele>
        <time>2019-05-27T09:11:29.000Z</time>
      </trkpt>
      <trkpt lat="44.77667" lon="4.76784">
        <ele>94</ele>
        <time>2019-05-27T09:11:34.000Z</time>
      </trkpt>
      <trkpt lat="44.77639" lon="4.76756">
        <ele>92.31</ele>
        <time>2019-05-27T09:11:39.000Z</time>
      </trkpt>
      <trkpt lat="44.77606" lon="4.76745">
        <ele>91.26</ele>
        <time>2019-05-27T09:11:44.000Z</time>
      </trkpt>
      <trkpt lat="44.77576" lon="4.76754">
        <ele>91.05</ele>
        <time>2019-05-27T09:11:49.000Z</time>
      </trkpt>
      <trkpt lat="44.77545" lon="4.7677">
        <ele>92.73</ele>
        <time>2019-05-27T09:11:54.000Z</time>
      </trkpt>
      <trkpt lat="44.77513" lon="4.76779">
        <ele>91.26</ele>
        <time>2019-05-27T09:11:59.000Z</time>
      </trkpt>
      <trkpt lat="44.77481" lon="4.76781">
        <ele>91.24</ele>
        <time>2019-05-27T09:12:04.000Z</time>
      </trkpt>
      <trkpt lat="44.77445" lon="4.76783">
        <ele>91.23</ele>
        <time>2019-05-27T09:12:09.000Z</time>
      </trkpt>
      <trkpt lat="44.77412" lon="4.7678">
        <ele>89.01</ele>
        <time>2019-05-27T09:12:14.000Z</time>
      </trkpt>
      <trkpt lat="44.77379" lon="4.76771">
        <ele>88.99</ele>
        <time>2019-05-27T09:12:19.000Z</time>
      </trkpt>
      <trkpt lat="44.77346" lon="4.76763">
        <ele>88.99</ele>
        <time>2019-05-27T09:12:24.000Z</time>
      </trkpt>
      <trkpt lat="44.77313" lon="4.76764">
        <ele>90.69</ele>
        <time>2019-05-27T09:12:29.000Z</time>
      </trkpt>
      <trkpt lat="44.77279" lon="4.76762">
        <ele>93.72</ele>
        <time>2019-05-27T09:12:34.000Z</time>
      </trkpt>
      <trkpt lat="44.77264" lon="4.76788">
        <ele>94.23</ele>
        <time>2019-05-27T09:12:39.000Z</time>
      </trkpt>
      <trkpt lat="44.77261" lon="4.76809">
        <ele>93.75</ele>
        <time>2019-05-27T09:12:44.000Z</time>
      </trkpt>
      <trkpt lat="44.77258" lon="4.76827">
        <ele>96.68</ele>
        <time>2019-05-27T09:12:49.000Z</time>
      </trkpt>
      <trkpt lat="44.77255" lon="4.76839">
        <ele>96.24</ele>
        <time>2019-05-27T09:12:54.000Z</time>
      </trkpt>
      <trkpt lat="44.77253" lon="4.76862">
        <ele>96.05</ele>
        <time>2019-05-27T09:12:59.000Z</time>
      </trkpt>
      <trkpt lat="44.77253" lon="4.76888">
        <ele>96.99</ele>
        <time>2019-05-27T09:13:04.000Z</time>
      </trkpt>
      <trkpt lat="44.77253" lon="4.76906">
        <ele>96.99</ele>
        <time>2019-05-27T09:13:09.000Z</time>
      </trkpt>
      <trkpt lat="44.77242" lon="4.76908">
        <ele>97.95</ele>
        <time>2019-05-27T09:13:14.000Z</time>
      </trkpt>
      <trkpt lat="44.77227" lon="4.76905">
        <ele>98.74</ele>
        <time>2019-05-27T09:13:19.000Z</time>
      </trkpt>
      <trkpt lat="44.77213" lon="4.76901">
        <ele>99.98</ele>
        <time>2019-05-27T09:13:24.000Z</time>
      </trkpt>
      <trkpt lat="44.77196" lon="4.76901">
        <ele>100.99</ele>
        <time>2019-05-27T09:13:29.000Z</time>
      </trkpt>
      <trkpt lat="44.77179" lon="4.769">
        <ele>100.99</ele>
        <time>2019-05-27T09:13:34.000Z</time>
      </trkpt>
      <trkpt lat="44.77159" lon="4.76898">
        <ele>101.04</ele>
        <time>2019-05-27T09:13:39.000Z</time>
      </trkpt>
      <trkpt lat="44.77136" lon="4.76896">
        <ele>100.99</ele>
        <time>2019-05-27T09:13:44.000Z</time>
      </trkpt>
      <trkpt lat="44.7711" lon="4.76895">
        <ele>101.06</ele>
        <time>2019-05-27T09:13:49.000Z</time>
      </trkpt>
      <trkpt lat="44.77086" lon="4.76893">
        <ele>98.93</ele>
        <time>2019-05-27T09:13:54.000Z</time>
      </trkpt>
      <trkpt lat="44.77076" lon="4.7689">
        <ele>99.99</ele>
        <time>2019-05-27T09:13:59.000Z</time>
      </trkpt>
      <trkpt lat="44.77078" lon="4.76864">
        <ele>99.99</ele>
        <time>2019-05-27T09:14:04.000Z</time>
      </trkpt>
      <trkpt lat="44.77081" lon="4.76826">
        <ele>100.23</ele>
        <time>2019-05-27T09:14:09.000Z</time>
      </trkpt>
      <trkpt lat="44.7708" lon="4.76786">
        <ele>99.06</ele>
        <time>2019-05-27T09:14:14.000Z</time>
      </trkpt>
      <trkpt lat="44.77079" lon="4.76744">
        <ele>98</ele>
        <time>2019-05-27T09:14:19.000Z</time>
      </trkpt>
      <trkpt lat="44.77077" lon="4.76702">
        <ele>98.23</ele>
        <time>2019-05-27T09:14:24.000Z</time>
      </trkpt>
      <trkpt lat="44.77073" lon="4.76664">
        <ele>98.93</ele>
        <time>2019-05-27T09:14:29.000Z</time>
      </trkpt>
      <trkpt lat="44.77065" lon="4.7667">
        <ele>97.06</ele>
        <time>2019-05-27T09:14:35.000Z</time>
      </trkpt>
      <trkpt lat="44.77063" lon="4.76705">
        <ele>95.01</ele>
        <time>2019-05-27T09:14:40.000Z</time>
      </trkpt>
      <trkpt lat="44.77056" lon="4.76686">
        <ele>93</ele>
        <time>2019-05-27T09:14:45.000Z</time>
      </trkpt>
      <trkpt lat="44.77055" lon="4.76655">
        <ele>92.99</ele>
        <time>2019-05-27T09:14:50.000Z</time>
      </trkpt>
      <trkpt lat="44.77052" lon="4.76619">
        <ele>92.99</ele>
        <time>2019-05-27T09:14:55.000Z</time>
      </trkpt>
      <trkpt lat="44.77047" lon="4.76582">
        <ele>93.06</ele>
        <time>2019-05-27T09:15:00.000Z</time>
      </trkpt>
      <trkpt lat="44.77042" lon="4.76545">
        <ele>93.74</ele>
        <time>2019-05-27T09:15:05.000Z</time>
      </trkpt>
      <trkpt lat="44.77036" lon="4.76509">
        <ele>94.74</ele>
        <time>2019-05-27T09:15:10.000Z</time>
      </trkpt>
      <trkpt lat="44.77028" lon="4.76471">
        <ele>93.81</ele>
        <time>2019-05-27T09:15:15.000Z</time>
      </trkpt>
      <trkpt lat="44.7702" lon="4.76432">
        <ele>93.99</ele>
        <time>2019-05-27T09:15:20.000Z</time>
      </trkpt>
      <trkpt lat="44.77011" lon="4.76394">
        <ele>94.99</ele>
        <time>2019-05-27T09:15:25.000Z</time>
      </trkpt>
      <trkpt lat="44.77" lon="4.76352">
        <ele>95.18</ele>
        <time>2019-05-27T09:15:30.000Z</time>
      </trkpt>
      <trkpt lat="44.76989" lon="4.76309">
        <ele>95.99</ele>
        <time>2019-05-27T09:15:35.000Z</time>
      </trkpt>
      <trkpt lat="44.76976" lon="4.76266">
        <ele>95.99</ele>
        <time>2019-05-27T09:15:40.000Z</time>
      </trkpt>
      <trkpt lat="44.76962" lon="4.76224">
        <ele>95.19</ele>
        <time>2019-05-27T09:15:45.000Z</time>
      </trkpt>
      <trkpt lat="44.76947" lon="4.76183">
        <ele>95.99</ele>
        <time>2019-05-27T09:15:50.000Z</time>
      </trkpt>
      <trkpt lat="44.76925" lon="4.76145">
        <ele>95.23</ele>
        <time>2019-05-27T09:15:55.000Z</time>
      </trkpt>
      <trkpt lat="44.76905" lon="4.76108">
        <ele>94.99</ele>
        <time>2019-05-27T09:16:00.000Z</time>
      </trkpt>
      <trkpt lat="44.76882" lon="4.76073">
        <ele>94.99</ele>
        <time>2019-05-27T09:16:05.000Z</time>
      </trkpt>
      <trkpt lat="44.76855" lon="4.76044">
        <ele>95.99</ele>
        <time>2019-05-27T09:16:10.000Z</time>
      </trkpt>
      <trkpt lat="44.76827" lon="4.76017">
        <ele>96.74</ele>
        <time>2019-05-27T09:16:15.000Z</time>
      </trkpt>
      <trkpt lat="44.76798" lon="4.75993">
        <ele>95.96</ele>
        <time>2019-05-27T09:16:20.000Z</time>
      </trkpt>
      <trkpt lat="44.76767" lon="4.75973">
        <ele>95.06</ele>
        <time>2019-05-27T09:16:25.000Z</time>
      </trkpt>
      <trkpt lat="44.76736" lon="4.75958">
        <ele>95.99</ele>
        <time>2019-05-27T09:16:30.000Z</time>
      </trkpt>
      <trkpt lat="44.76702" lon="4.75943">
        <ele>95.01</ele>
        <time>2019-05-27T09:16:35.000Z</time>
      </trkpt>
      <trkpt lat="44.76669" lon="4.7593">
        <ele>93.99</ele>
        <time>2019-05-27T09:16:40.000Z</time>
      </trkpt>
      <trkpt lat="44.76636" lon="4.75915">
        <ele>93.24</ele>
        <time>2019-05-27T09:16:45.000Z</time>
      </trkpt>
      <trkpt lat="44.76602" lon="4.759">
        <ele>92.99</ele>
        <time>2019-05-27T09:16:50.000Z</time>
      </trkpt>
      <trkpt lat="44.76571" lon="4.75884">
        <ele>92.99</ele>
        <time>2019-05-27T09:16:55.000Z</time>
      </trkpt>
      <trkpt lat="44.76539" lon="4.75871">
        <ele>93.93</ele>
        <time>2019-05-27T09:17:00.000Z</time>
      </trkpt>
      <trkpt lat="44.76508" lon="4.75857">
        <ele>93.99</ele>
        <time>2019-05-27T09:17:05.000Z</time>
      </trkpt>
      <trkpt lat="44.76477" lon="4.75841">
        <ele>93.06</ele>
        <time>2019-05-27T09:17:10.000Z</time>
      </trkpt>
      <trkpt lat="44.76445" lon="4.75826">
        <ele>93.94</ele>
        <time>2019-05-27T09:17:15.000Z</time>
      </trkpt>
      <trkpt lat="44.76414" lon="4.7581">
        <ele>94.01</ele>
        <time>2019-05-27T09:17:20.000Z</time>
      </trkpt>
      <trkpt lat="44.76381" lon="4.75797">
        <ele>93.01</ele>
        <time>2019-05-27T09:17:25.000Z</time>
      </trkpt>
      <trkpt lat="44.7635" lon="4.75783">
        <ele>93.99</ele>
        <time>2019-05-27T09:17:30.000Z</time>
      </trkpt>
      <trkpt lat="44.76318" lon="4.75768">
        <ele>93.98</ele>
        <time>2019-05-27T09:17:35.000Z</time>
      </trkpt>
      <trkpt lat="44.76285" lon="4.75753">
        <ele>93.99</ele>
        <time>2019-05-27T09:17:40.000Z</time>
      </trkpt>
      <trkpt lat="44.76252" lon="4.75737">
        <ele>93.24</ele>
        <time>2019-05-27T09:17:45.000Z</time>
      </trkpt>
      <trkpt lat="44.76216" lon="4.75722">
        <ele>92.98</ele>
        <time>2019-05-27T09:17:50.000Z</time>
      </trkpt>
      <trkpt lat="44.76181" lon="4.75704">
        <ele>92.99</ele>
        <time>2019-05-27T09:17:55.000Z</time>
      </trkpt>
      <trkpt lat="44.76146" lon="4.75688">
        <ele>93.74</ele>
        <time>2019-05-27T09:18:00.000Z</time>
      </trkpt>
      <trkpt lat="44.76112" lon="4.75675">
        <ele>93.99</ele>
        <time>2019-05-27T09:18:05.000Z</time>
      </trkpt>
      <trkpt lat="44.76076" lon="4.75656">
        <ele>93</ele>
        <time>2019-05-27T09:18:10.000Z</time>
      </trkpt>
      <trkpt lat="44.76038" lon="4.7564">
        <ele>93.99</ele>
        <time>2019-05-27T09:18:15.000Z</time>
      </trkpt>
      <trkpt lat="44.76002" lon="4.75622">
        <ele>92.25</ele>
        <time>2019-05-27T09:18:20.000Z</time>
      </trkpt>
      <trkpt lat="44.75964" lon="4.75605">
        <ele>93.93</ele>
        <time>2019-05-27T09:18:25.000Z</time>
      </trkpt>
      <trkpt lat="44.75927" lon="4.75589">
        <ele>93.99</ele>
        <time>2019-05-27T09:18:30.000Z</time>
      </trkpt>
      <trkpt lat="44.75891" lon="4.75578">
        <ele>94.79</ele>
        <time>2019-05-27T09:18:35.000Z</time>
      </trkpt>
      <trkpt lat="44.75854" lon="4.7557">
        <ele>95.74</ele>
        <time>2019-05-27T09:18:40.000Z</time>
      </trkpt>
      <trkpt lat="44.75819" lon="4.7556">
        <ele>95.24</ele>
        <time>2019-05-27T09:18:45.000Z</time>
      </trkpt>
      <trkpt lat="44.75784" lon="4.75556">
        <ele>95</ele>
        <time>2019-05-27T09:18:50.000Z</time>
      </trkpt>
      <trkpt lat="44.75751" lon="4.75553">
        <ele>94.01</ele>
        <time>2019-05-27T09:18:55.000Z</time>
      </trkpt>
      <trkpt lat="44.75719" lon="4.7555">
        <ele>93.99</ele>
        <time>2019-05-27T09:19:00.000Z</time>
      </trkpt>
      <trkpt lat="44.75695" lon="4.75565">
        <ele>93.25</ele>
        <time>2019-05-27T09:19:05.000Z</time>
      </trkpt>
      <trkpt lat="44.75688" lon="4.75611">
        <ele>92.24</ele>
        <time>2019-05-27T09:19:10.000Z</time>
      </trkpt>
      <trkpt lat="44.75685" lon="4.75635">
        <ele>91.99</ele>
        <time>2019-05-27T09:19:15.000Z</time>
      </trkpt>
      <trkpt lat="44.75678" lon="4.7566">
        <ele>92.05</ele>
        <time>2019-05-27T09:19:20.000Z</time>
      </trkpt>
      <trkpt lat="44.7566" lon="4.75674">
        <ele>93.87</ele>
        <time>2019-05-27T09:19:25.000Z</time>
      </trkpt>
      <trkpt lat="44.75648" lon="4.7568">
        <ele>94.93</ele>
        <time>2019-05-27T09:19:30.000Z</time>
      </trkpt>
      <trkpt lat="44.75638" lon="4.75681">
        <ele>94.94</ele>
        <time>2019-05-27T09:19:35.000Z</time>
      </trkpt>
      <trkpt lat="44.75632" lon="4.75669">
        <ele>95.79</ele>
        <time>2019-05-27T09:19:42.000Z</time>
      </trkpt>
      <trkpt lat="44.75634" lon="4.75646">
        <ele>96.49</ele>
        <time>2019-05-27T09:19:47.000Z</time>
      </trkpt>
      <trkpt lat="44.75636" lon="4.75626">
        <ele>95.99</ele>
        <time>2019-05-27T09:19:52.000Z</time>
      </trkpt>
      <trkpt lat="44.75626" lon="4.75623">
        <ele>95.98</ele>
        <time>2019-05-27T09:20:00.000Z</time>
      </trkpt>
      <trkpt lat="44.75625" lon="4.75598">
        <ele>95.98</ele>
        <time>2019-05-27T09:20:05.000Z</time>
      </trkpt>
      <trkpt lat="44.75628" lon="4.75566">
        <ele>94</ele>
        <time>2019-05-27T09:20:10.000Z</time>
      </trkpt>
      <trkpt lat="44.75624" lon="4.75531">
        <ele>94.99</ele>
        <time>2019-05-27T09:20:15.000Z</time>
      </trkpt>
      <trkpt lat="44.75605" lon="4.7552">
        <ele>95.98</ele>
        <time>2019-05-27T09:20:20.000Z</time>
      </trkpt>
      <trkpt lat="44.75608" lon="4.75495">
        <ele>96.93</ele>
        <time>2019-05-27T09:20:25.000Z</time>
      </trkpt>
      <trkpt lat="44.75621" lon="4.75474">
        <ele>95.99</ele>
        <time>2019-05-27T09:20:30.000Z</time>
      </trkpt>
      <trkpt lat="44.75628" lon="4.75455">
        <ele>96.93</ele>
        <time>2019-05-27T09:20:35.000Z</time>
      </trkpt>
      <trkpt lat="44.75623" lon="4.75435">
        <ele>95.24</ele>
        <time>2019-05-27T09:20:40.000Z</time>
      </trkpt>
      <trkpt lat="44.75621" lon="4.75416">
        <ele>93.81</ele>
        <time>2019-05-27T09:20:45.000Z</time>
      </trkpt>
      <trkpt lat="44.75619" lon="4.75397">
        <ele>94.01</ele>
        <time>2019-05-27T09:20:50.000Z</time>
      </trkpt>
      <trkpt lat="44.75617" lon="4.75372">
        <ele>93.18</ele>
        <time>2019-05-27T09:20:55.000Z</time>
      </trkpt>
      <trkpt lat="44.75618" lon="4.7535">
        <ele>93.74</ele>
        <time>2019-05-27T09:21:00.000Z</time>
      </trkpt>
      <trkpt lat="44.75618" lon="4.75329">
        <ele>95.24</ele>
        <time>2019-05-27T09:21:05.000Z</time>
      </trkpt>
      <trkpt lat="44.75615" lon="4.75305">
        <ele>94.98</ele>
        <time>2019-05-27T09:21:10.000Z</time>
      </trkpt>
      <trkpt lat="44.75613" lon="4.75278">
        <ele>96.68</ele>
        <time>2019-05-27T09:21:15.000Z</time>
      </trkpt>
      <trkpt lat="44.75613" lon="4.75247">
        <ele>95.92</ele>
        <time>2019-05-27T09:21:20.000Z</time>
      </trkpt>
      <trkpt lat="44.75604" lon="4.7521">
        <ele>96.99</ele>
        <time>2019-05-27T09:21:25.000Z</time>
      </trkpt>
      <trkpt lat="44.75603" lon="4.75174">
        <ele>96.23</ele>
        <time>2019-05-27T09:21:30.000Z</time>
      </trkpt>
      <trkpt lat="44.75599" lon="4.75135">
        <ele>97.36</ele>
        <time>2019-05-27T09:21:35.000Z</time>
      </trkpt>
      <trkpt lat="44.75595" lon="4.75097">
        <ele>96.57</ele>
        <time>2019-05-27T09:21:40.000Z</time>
      </trkpt>
      <trkpt lat="44.75588" lon="4.75074">
        <ele>94.3</ele>
        <time>2019-05-27T09:21:45.000Z</time>
      </trkpt>
      <trkpt lat="44.75588" lon="4.7505">
        <ele>96.91</ele>
        <time>2019-05-27T09:21:50.000Z</time>
      </trkpt>
      <trkpt lat="44.75589" lon="4.75036">
        <ele>97.49</ele>
        <time>2019-05-27T09:22:05.000Z</time>
      </trkpt>
      <trkpt lat="44.75584" lon="4.75025">
        <ele>91.96</ele>
        <time>2019-05-27T09:22:11.000Z</time>
      </trkpt>
      <trkpt lat="44.75579" lon="4.75001">
        <ele>90.94</ele>
        <time>2019-05-27T09:22:16.000Z</time>
      </trkpt>
      <trkpt lat="44.75575" lon="4.74977">
        <ele>90.8</ele>
        <time>2019-05-27T09:22:21.000Z</time>
      </trkpt>
      <trkpt lat="44.75566" lon="4.74974">
        <ele>91</ele>
        <time>2019-05-27T09:22:26.000Z</time>
      </trkpt>
      <trkpt lat="44.75554" lon="4.74975">
        <ele>92.99</ele>
        <time>2019-05-27T09:22:31.000Z</time>
      </trkpt>
      <trkpt lat="44.75539" lon="4.74971">
        <ele>91.99</ele>
        <time>2019-05-27T09:22:36.000Z</time>
      </trkpt>
      <trkpt lat="44.75528" lon="4.74965">
        <ele>92.49</ele>
        <time>2019-05-27T09:22:41.000Z</time>
      </trkpt>
      <trkpt lat="44.75528" lon="4.74948">
        <ele>92.91</ele>
        <time>2019-05-27T09:22:46.000Z</time>
      </trkpt>
      <trkpt lat="44.75526" lon="4.74924">
        <ele>93.69</ele>
        <time>2019-05-27T09:22:51.000Z</time>
      </trkpt>
      <trkpt lat="44.75526" lon="4.74889">
        <ele>92.99</ele>
        <time>2019-05-27T09:22:56.000Z</time>
      </trkpt>
      <trkpt lat="44.75517" lon="4.74871">
        <ele>92</ele>
        <time>2019-05-27T09:23:01.000Z</time>
      </trkpt>
      <trkpt lat="44.75516" lon="4.7485">
        <ele>91.99</ele>
        <time>2019-05-27T09:23:06.000Z</time>
      </trkpt>
      <trkpt lat="44.75518" lon="4.74834">
        <ele>92.18</ele>
        <time>2019-05-27T09:23:11.000Z</time>
      </trkpt>
      <trkpt lat="44.75498" lon="4.74837">
        <ele>92</ele>
        <time>2019-05-27T09:23:16.000Z</time>
      </trkpt>
      <trkpt lat="44.75482" lon="4.74856">
        <ele>91.99</ele>
        <time>2019-05-27T09:23:21.000Z</time>
      </trkpt>
      <trkpt lat="44.7549" lon="4.74845">
        <ele>94.98</ele>
        <time>2019-05-27T09:23:31.000Z</time>
      </trkpt>
      <trkpt lat="44.7548" lon="4.74845">
        <ele>93.25</ele>
        <time>2019-05-27T09:23:38.000Z</time>
      </trkpt>
      <trkpt lat="44.7547" lon="4.74858">
        <ele>92.48</ele>
        <time>2019-05-27T09:23:43.000Z</time>
      </trkpt>
      <trkpt lat="44.7546" lon="4.74849">
        <ele>92.74</ele>
        <time>2019-05-27T09:23:48.000Z</time>
      </trkpt>
      <trkpt lat="44.7545" lon="4.74832">
        <ele>93.18</ele>
        <time>2019-05-27T09:23:53.000Z</time>
      </trkpt>
      <trkpt lat="44.75441" lon="4.74817">
        <ele>94.98</ele>
        <time>2019-05-27T09:23:58.000Z</time>
      </trkpt>
      <trkpt lat="44.75431" lon="4.74819">
        <ele>92.31</ele>
        <time>2019-05-27T09:24:04.000Z</time>
      </trkpt>
      <trkpt lat="44.75419" lon="4.74841">
        <ele>93.68</ele>
        <time>2019-05-27T09:24:09.000Z</time>
      </trkpt>
      <trkpt lat="44.75418" lon="4.74827">
        <ele>94.97</ele>
        <time>2019-05-27T09:24:17.000Z</time>
      </trkpt>
      <trkpt lat="44.75425" lon="4.74801">
        <ele>92.25</ele>
        <time>2019-05-27T09:24:22.000Z</time>
      </trkpt>
      <trkpt lat="44.75402" lon="4.74792">
        <ele>93.22</ele>
        <time>2019-05-27T09:24:27.000Z</time>
      </trkpt>
      <trkpt lat="44.75378" lon="4.74786">
        <ele>93.03</ele>
        <time>2019-05-27T09:24:32.000Z</time>
      </trkpt>
      <trkpt lat="44.75354" lon="4.7478">
        <ele>92.25</ele>
        <time>2019-05-27T09:24:37.000Z</time>
      </trkpt>
      <trkpt lat="44.75342" lon="4.74759">
        <ele>92.74</ele>
        <time>2019-05-27T09:24:42.000Z</time>
      </trkpt>
      <trkpt lat="44.75325" lon="4.7477">
        <ele>91.24</ele>
        <time>2019-05-27T09:24:47.000Z</time>
      </trkpt>
      <trkpt lat="44.75303" lon="4.74773">
        <ele>91.74</ele>
        <time>2019-05-27T09:24:52.000Z</time>
      </trkpt>
      <trkpt lat="44.75279" lon="4.74767">
        <ele>91.94</ele>
        <time>2019-05-27T09:24:57.000Z</time>
      </trkpt>
      <trkpt lat="44.75254" lon="4.74762">
        <ele>92.99</ele>
        <time>2019-05-27T09:25:02.000Z</time>
      </trkpt>
      <trkpt lat="44.75229" lon="4.74753">
        <ele>95.9</ele>
        <time>2019-05-27T09:25:07.000Z</time>
      </trkpt>
      <trkpt lat="44.75201" lon="4.74749">
        <ele>99.96</ele>
        <time>2019-05-27T09:25:12.000Z</time>
      </trkpt>
      <trkpt lat="44.75176" lon="4.74742">
        <ele>97.54</ele>
        <time>2019-05-27T09:25:17.000Z</time>
      </trkpt>
      <trkpt lat="44.75148" lon="4.74737">
        <ele>96.97</ele>
        <time>2019-05-27T09:25:22.000Z</time>
      </trkpt>
      <trkpt lat="44.75121" lon="4.7473">
        <ele>97.05</ele>
        <time>2019-05-27T09:25:27.000Z</time>
      </trkpt>
      <trkpt lat="44.75098" lon="4.74728">
        <ele>97.22</ele>
        <time>2019-05-27T09:25:32.000Z</time>
      </trkpt>
      <trkpt lat="44.75074" lon="4.74724">
        <ele>95.01</ele>
        <time>2019-05-27T09:25:37.000Z</time>
      </trkpt>
      <trkpt lat="44.75048" lon="4.74715">
        <ele>94.05</ele>
        <time>2019-05-27T09:25:42.000Z</time>
      </trkpt>
      <trkpt lat="44.75018" lon="4.74704">
        <ele>93.05</ele>
        <time>2019-05-27T09:25:47.000Z</time>
      </trkpt>
      <trkpt lat="44.74988" lon="4.74687">
        <ele>91.99</ele>
        <time>2019-05-27T09:25:52.000Z</time>
      </trkpt>
      <trkpt lat="44.74955" lon="4.74672">
        <ele>91.98</ele>
        <time>2019-05-27T09:25:57.000Z</time>
      </trkpt>
      <trkpt lat="44.74922" lon="4.74657">
        <ele>92.97</ele>
        <time>2019-05-27T09:26:02.000Z</time>
      </trkpt>
      <trkpt lat="44.7489" lon="4.74639">
        <ele>92.98</ele>
        <time>2019-05-27T09:26:07.000Z</time>
      </trkpt>
      <trkpt lat="44.74856" lon="4.74622">
        <ele>93</ele>
        <time>2019-05-27T09:26:12.000Z</time>
      </trkpt>
      <trkpt lat="44.74824" lon="4.74605">
        <ele>91.99</ele>
        <time>2019-05-27T09:26:17.000Z</time>
      </trkpt>
      <trkpt lat="44.74796" lon="4.74583">
        <ele>90.99</ele>
        <time>2019-05-27T09:26:22.000Z</time>
      </trkpt>
      <trkpt lat="44.74776" lon="4.7456">
        <ele>90.78</ele>
        <time>2019-05-27T09:26:27.000Z</time>
      </trkpt>
      <trkpt lat="44.74767" lon="4.74545">
        <ele>89.92</ele>
        <time>2019-05-27T09:26:32.000Z</time>
      </trkpt>
      <trkpt lat="44.74758" lon="4.74542">
        <ele>90.49</ele>
        <time>2019-05-27T09:26:37.000Z</time>
      </trkpt>
      <trkpt lat="44.74748" lon="4.74535">
        <ele>86.99</ele>
        <time>2019-05-27T09:26:48.000Z</time>
      </trkpt>
      <trkpt lat="44.74731" lon="4.74539">
        <ele>88.97</ele>
        <time>2019-05-27T09:26:53.000Z</time>
      </trkpt>
      <trkpt lat="44.74717" lon="4.7456">
        <ele>90.17</ele>
        <time>2019-05-27T09:26:58.000Z</time>
      </trkpt>
      <trkpt lat="44.74703" lon="4.74574">
        <ele>89.97</ele>
        <time>2019-05-27T09:27:03.000Z</time>
      </trkpt>
      <trkpt lat="44.74682" lon="4.74559">
        <ele>90.92</ele>
        <time>2019-05-27T09:27:08.000Z</time>
      </trkpt>
      <trkpt lat="44.74659" lon="4.7455">
        <ele>91.98</ele>
        <time>2019-05-27T09:27:13.000Z</time>
      </trkpt>
      <trkpt lat="44.74634" lon="4.7454">
        <ele>90.24</ele>
        <time>2019-05-27T09:27:18.000Z</time>
      </trkpt>
      <trkpt lat="44.74609" lon="4.74525">
        <ele>90.73</ele>
        <time>2019-05-27T09:27:23.000Z</time>
      </trkpt>
      <trkpt lat="44.74584" lon="4.74514">
        <ele>90.98</ele>
        <time>2019-05-27T09:27:28.000Z</time>
      </trkpt>
      <trkpt lat="44.74556" lon="4.74502">
        <ele>90.05</ele>
        <time>2019-05-27T09:27:33.000Z</time>
      </trkpt>
      <trkpt lat="44.74531" lon="4.74489">
        <ele>91.73</ele>
        <time>2019-05-27T09:27:38.000Z</time>
      </trkpt>
      <trkpt lat="44.74502" lon="4.74476">
        <ele>93.18</ele>
        <time>2019-05-27T09:27:43.000Z</time>
      </trkpt>
      <trkpt lat="44.74475" lon="4.74463">
        <ele>90.99</ele>
        <time>2019-05-27T09:27:48.000Z</time>
      </trkpt>
      <trkpt lat="44.74448" lon="4.74449">
        <ele>91.92</ele>
        <time>2019-05-27T09:27:53.000Z</time>
      </trkpt>
      <trkpt lat="44.74421" lon="4.74438">
        <ele>92.98</ele>
        <time>2019-05-27T09:27:58.000Z</time>
      </trkpt>
      <trkpt lat="44.74394" lon="4.74424">
        <ele>92.23</ele>
        <time>2019-05-27T09:28:03.000Z</time>
      </trkpt>
      <trkpt lat="44.74365" lon="4.74413">
        <ele>92.98</ele>
        <time>2019-05-27T09:28:08.000Z</time>
      </trkpt>
      <trkpt lat="44.74339" lon="4.744">
        <ele>93.97</ele>
        <time>2019-05-27T09:28:13.000Z</time>
      </trkpt>
      <trkpt lat="44.74309" lon="4.74394">
        <ele>92.48</ele>
        <time>2019-05-27T09:28:18.000Z</time>
      </trkpt>
      <trkpt lat="44.74277" lon="4.74387">
        <ele>92.98</ele>
        <time>2019-05-27T09:28:23.000Z</time>
      </trkpt>
      <trkpt lat="44.74251" lon="4.74387">
        <ele>93.97</ele>
        <time>2019-05-27T09:28:28.000Z</time>
      </trkpt>
      <trkpt lat="44.74225" lon="4.74376">
        <ele>93.23</ele>
        <time>2019-05-27T09:28:33.000Z</time>
      </trkpt>
      <trkpt lat="44.74203" lon="4.7437">
        <ele>92.25</ele>
        <time>2019-05-27T09:28:38.000Z</time>
      </trkpt>
      <trkpt lat="44.74196" lon="4.74404">
        <ele>90.99</ele>
        <time>2019-05-27T09:28:43.000Z</time>
      </trkpt>
      <trkpt lat="44.74192" lon="4.74443">
        <ele>90.99</ele>
        <time>2019-05-27T09:28:48.000Z</time>
      </trkpt>
      <trkpt lat="44.74187" lon="4.74483">
        <ele>92.72</ele>
        <time>2019-05-27T09:28:53.000Z</time>
      </trkpt>
      <trkpt lat="44.74183" lon="4.74522">
        <ele>92.98</ele>
        <time>2019-05-27T09:28:58.000Z</time>
      </trkpt>
      <trkpt lat="44.74179" lon="4.74559">
        <ele>91.99</ele>
        <time>2019-05-27T09:29:03.000Z</time>
      </trkpt>
      <trkpt lat="44.74173" lon="4.74598">
        <ele>92.04</ele>
        <time>2019-05-27T09:29:08.000Z</time>
      </trkpt>
      <trkpt lat="44.74168" lon="4.74633">
        <ele>91.99</ele>
        <time>2019-05-27T09:29:13.000Z</time>
      </trkpt>
      <trkpt lat="44.74165" lon="4.7467">
        <ele>91.99</ele>
        <time>2019-05-27T09:29:18.000Z</time>
      </trkpt>
      <trkpt lat="44.74159" lon="4.74704">
        <ele>92.93</ele>
        <time>2019-05-27T09:29:23.000Z</time>
      </trkpt>
      <trkpt lat="44.74154" lon="4.74737">
        <ele>92.05</ele>
        <time>2019-05-27T09:29:28.000Z</time>
      </trkpt>
      <trkpt lat="44.7415" lon="4.74771">
        <ele>91.99</ele>
        <time>2019-05-27T09:29:33.000Z</time>
      </trkpt>
      <trkpt lat="44.74142" lon="4.74802">
        <ele>91.93</ele>
        <time>2019-05-27T09:29:38.000Z</time>
      </trkpt>
      <trkpt lat="44.7412" lon="4.74808">
        <ele>91.99</ele>
        <time>2019-05-27T09:29:43.000Z</time>
      </trkpt>
      <trkpt lat="44.74093" lon="4.74803">
        <ele>91.99</ele>
        <time>2019-05-27T09:29:48.000Z</time>
      </trkpt>
      <trkpt lat="44.74065" lon="4.74802">
        <ele>91.01</ele>
        <time>2019-05-27T09:29:53.000Z</time>
      </trkpt>
      <trkpt lat="44.74036" lon="4.74796">
        <ele>91.74</ele>
        <time>2019-05-27T09:29:58.000Z</time>
      </trkpt>
      <trkpt lat="44.74005" lon="4.74792">
        <ele>91.99</ele>
        <time>2019-05-27T09:30:03.000Z</time>
      </trkpt>
      <trkpt lat="44.73974" lon="4.74787">
        <ele>91.24</ele>
        <time>2019-05-27T09:30:08.000Z</time>
      </trkpt>
      <trkpt lat="44.73941" lon="4.7478">
        <ele>92.74</ele>
        <time>2019-05-27T09:30:13.000Z</time>
      </trkpt>
      <trkpt lat="44.73906" lon="4.74776">
        <ele>91.99</ele>
        <time>2019-05-27T09:30:18.000Z</time>
      </trkpt>
      <trkpt lat="44.73872" lon="4.74772">
        <ele>91.06</ele>
        <time>2019-05-27T09:30:23.000Z</time>
      </trkpt>
      <trkpt lat="44.73838" lon="4.74766">
        <ele>90.01</ele>
        <time>2019-05-27T09:30:28.000Z</time>
      </trkpt>
      <trkpt lat="44.73802" lon="4.74761">
        <ele>90.99</ele>
        <time>2019-05-27T09:30:33.000Z</time>
      </trkpt>
      <trkpt lat="44.73767" lon="4.74757">
        <ele>91</ele>
        <time>2019-05-27T09:30:38.000Z</time>
      </trkpt>
      <trkpt lat="44.73729" lon="4.74753">
        <ele>90.01</ele>
        <time>2019-05-27T09:30:43.000Z</time>
      </trkpt>
      <trkpt lat="44.73693" lon="4.74747">
        <ele>89.19</ele>
        <time>2019-05-27T09:30:48.000Z</time>
      </trkpt>
      <trkpt lat="44.73659" lon="4.74741">
        <ele>90.73</ele>
        <time>2019-05-27T09:30:53.000Z</time>
      </trkpt>
      <trkpt lat="44.73625" lon="4.74737">
        <ele>90.99</ele>
        <time>2019-05-27T09:30:58.000Z</time>
      </trkpt>
      <trkpt lat="44.73591" lon="4.74733">
        <ele>90.99</ele>
        <time>2019-05-27T09:31:03.000Z</time>
      </trkpt>
      <trkpt lat="44.73556" lon="4.74727">
        <ele>91.01</ele>
        <time>2019-05-27T09:31:08.000Z</time>
      </trkpt>
      <trkpt lat="44.73521" lon="4.74721">
        <ele>91.06</ele>
        <time>2019-05-27T09:31:13.000Z</time>
      </trkpt>
      <trkpt lat="44.73486" lon="4.74716">
        <ele>90.26</ele>
        <time>2019-05-27T09:31:18.000Z</time>
      </trkpt>
      <trkpt lat="44.73451" lon="4.74712">
        <ele>90.99</ele>
        <time>2019-05-27T09:31:23.000Z</time>
      </trkpt>
      <trkpt lat="44.73417" lon="4.74707">
        <ele>90.99</ele>
        <time>2019-05-27T09:31:28.000Z</time>
      </trkpt>
      <trkpt lat="44.73384" lon="4.74702">
        <ele>91.93</ele>
        <time>2019-05-27T09:31:33.000Z</time>
      </trkpt>
      <trkpt lat="44.7335" lon="4.74697">
        <ele>91.75</ele>
        <time>2019-05-27T09:31:38.000Z</time>
      </trkpt>
      <trkpt lat="44.73316" lon="4.74691">
        <ele>91.99</ele>
        <time>2019-05-27T09:31:43.000Z</time>
      </trkpt>
      <trkpt lat="44.73281" lon="4.74685">
        <ele>90.06</ele>
        <time>2019-05-27T09:31:48.000Z</time>
      </trkpt>
      <trkpt lat="44.73247" lon="4.74679">
        <ele>90.24</ele>
        <time>2019-05-27T09:31:53.000Z</time>
      </trkpt>
      <trkpt lat="44.73217" lon="4.74676">
        <ele>89.76</ele>
        <time>2019-05-27T09:31:58.000Z</time>
      </trkpt>
      <trkpt lat="44.73198" lon="4.74675">
        <ele>90</ele>
        <time>2019-05-27T09:32:03.000Z</time>
      </trkpt>
      <trkpt lat="44.7319" lon="4.74702">
        <ele>91</ele>
        <time>2019-05-27T09:32:08.000Z</time>
      </trkpt>
      <trkpt lat="44.73176" lon="4.74725">
        <ele>92</ele>
        <time>2019-05-27T09:32:13.000Z</time>
      </trkpt>
      <trkpt lat="44.73161" lon="4.7474">
        <ele>93.99</ele>
        <time>2019-05-27T09:32:18.000Z</time>
      </trkpt>
      <trkpt lat="44.7315" lon="4.74763">
        <ele>92.75</ele>
        <time>2019-05-27T09:32:23.000Z</time>
      </trkpt>
      <trkpt lat="44.73137" lon="4.74792">
        <ele>93.99</ele>
        <time>2019-05-27T09:32:28.000Z</time>
      </trkpt>
      <trkpt lat="44.73125" lon="4.74824">
        <ele>94.93</ele>
        <time>2019-05-27T09:32:33.000Z</time>
      </trkpt>
      <trkpt lat="44.73114" lon="4.74858">
        <ele>93.08</ele>
        <time>2019-05-27T09:32:38.000Z</time>
      </trkpt>
      <trkpt lat="44.73101" lon="4.74892">
        <ele>94.75</ele>
        <time>2019-05-27T09:32:43.000Z</time>
      </trkpt>
      <trkpt lat="44.7309" lon="4.74929">
        <ele>95.75</ele>
        <time>2019-05-27T09:32:48.000Z</time>
      </trkpt>
      <trkpt lat="44.73078" lon="4.74966">
        <ele>95</ele>
        <time>2019-05-27T09:32:53.000Z</time>
      </trkpt>
      <trkpt lat="44.73068" lon="4.75001">
        <ele>94.99</ele>
        <time>2019-05-27T09:32:58.000Z</time>
      </trkpt>
      <trkpt lat="44.7306" lon="4.75037">
        <ele>94</ele>
        <time>2019-05-27T09:33:03.000Z</time>
      </trkpt>
      <trkpt lat="44.73054" lon="4.75075">
        <ele>93.01</ele>
        <time>2019-05-27T09:33:08.000Z</time>
      </trkpt>
      <trkpt lat="44.73048" lon="4.75112">
        <ele>92.95</ele>
        <time>2019-05-27T09:33:13.000Z</time>
      </trkpt>
      <trkpt lat="44.73044" lon="4.75149">
        <ele>92</ele>
        <time>2019-05-27T09:33:18.000Z</time>
      </trkpt>
      <trkpt lat="44.73058" lon="4.75178">
        <ele>90.27</ele>
        <time>2019-05-27T09:33:23.000Z</time>
      </trkpt>
      <trkpt lat="44.73082" lon="4.75205">
        <ele>89.06</ele>
        <time>2019-05-27T09:33:28.000Z</time>
      </trkpt>
      <trkpt lat="44.73106" lon="4.7523">
        <ele>88.05</ele>
        <time>2019-05-27T09:33:33.000Z</time>
      </trkpt>
      <trkpt lat="44.73125" lon="4.75261">
        <ele>88.02</ele>
        <time>2019-05-27T09:33:38.000Z</time>
      </trkpt>
      <trkpt lat="44.73141" lon="4.75295">
        <ele>89</ele>
        <time>2019-05-27T09:33:43.000Z</time>
      </trkpt>
      <trkpt lat="44.73154" lon="4.75331">
        <ele>90.75</ele>
        <time>2019-05-27T09:33:48.000Z</time>
      </trkpt>
      <trkpt lat="44.73172" lon="4.75361">
        <ele>92</ele>
        <time>2019-05-27T09:33:53.000Z</time>
      </trkpt>
      <trkpt lat="44.73191" lon="4.75387">
        <ele>92.98</ele>
        <time>2019-05-27T09:33:58.000Z</time>
      </trkpt>
      <trkpt lat="44.73214" lon="4.75408">
        <ele>90.07</ele>
        <time>2019-05-27T09:34:03.000Z</time>
      </trkpt>
      <trkpt lat="44.73239" lon="4.75416">
        <ele>89.25</ele>
        <time>2019-05-27T09:34:08.000Z</time>
      </trkpt>
      <trkpt lat="44.73263" lon="4.75418">
        <ele>89.94</ele>
        <time>2019-05-27T09:34:13.000Z</time>
      </trkpt>
      <trkpt lat="44.73276" lon="4.7544">
        <ele>88.82</ele>
        <time>2019-05-27T09:34:18.000Z</time>
      </trkpt>
      <trkpt lat="44.73272" lon="4.75473">
        <ele>87.08</ele>
        <time>2019-05-27T09:34:23.000Z</time>
      </trkpt>
      <trkpt lat="44.73268" lon="4.7551">
        <ele>87.81</ele>
        <time>2019-05-27T09:34:28.000Z</time>
      </trkpt>
      <trkpt lat="44.73263" lon="4.75546">
        <ele>88</ele>
        <time>2019-05-27T09:34:33.000Z</time>
      </trkpt>
      <trkpt lat="44.73259" lon="4.75584">
        <ele>88</ele>
        <time>2019-05-27T09:34:38.000Z</time>
      </trkpt>
      <trkpt lat="44.73255" lon="4.75622">
        <ele>88</ele>
        <time>2019-05-27T09:34:43.000Z</time>
      </trkpt>
      <trkpt lat="44.73246" lon="4.75652">
        <ele>87.76</ele>
        <time>2019-05-27T09:34:48.000Z</time>
      </trkpt>
      <trkpt lat="44.73221" lon="4.75652">
        <ele>88.81</ele>
        <time>2019-05-27T09:34:53.000Z</time>
      </trkpt>
      <trkpt lat="44.73194" lon="4.75656">
        <ele>87.25</ele>
        <time>2019-05-27T09:34:58.000Z</time>
      </trkpt>
      <trkpt lat="44.73166" lon="4.75667">
        <ele>86.27</ele>
        <time>2019-05-27T09:35:03.000Z</time>
      </trkpt>
      <trkpt lat="44.73139" lon="4.75683">
        <ele>86.74</ele>
        <time>2019-05-27T09:35:08.000Z</time>
      </trkpt>
      <trkpt lat="44.73124" lon="4.757">
        <ele>87</ele>
        <time>2019-05-27T09:35:13.000Z</time>
      </trkpt>
      <trkpt lat="44.73112" lon="4.75709">
        <ele>87</ele>
        <time>2019-05-27T09:35:18.000Z</time>
      </trkpt>
      <trkpt lat="44.73092" lon="4.75717">
        <ele>84.79</ele>
        <time>2019-05-27T09:35:23.000Z</time>
      </trkpt>
      <trkpt lat="44.73081" lon="4.75715">
        <ele>88.17</ele>
        <time>2019-05-27T09:35:28.000Z</time>
      </trkpt>
      <trkpt lat="44.73072" lon="4.75711">
        <ele>89.93</ele>
        <time>2019-05-27T09:35:33.000Z</time>
      </trkpt>
      <trkpt lat="44.73061" lon="4.75706">
        <ele>88.37</ele>
        <time>2019-05-27T09:35:38.000Z</time>
      </trkpt>
      <trkpt lat="44.73049" lon="4.75701">
        <ele>88.8</ele>
        <time>2019-05-27T09:35:43.000Z</time>
      </trkpt>
      <trkpt lat="44.73036" lon="4.75695">
        <ele>88.3</ele>
        <time>2019-05-27T09:35:48.000Z</time>
      </trkpt>
      <trkpt lat="44.7302" lon="4.75689">
        <ele>87.25</ele>
        <time>2019-05-27T09:35:53.000Z</time>
      </trkpt>
      <trkpt lat="44.73" lon="4.75682">
        <ele>87.95</ele>
        <time>2019-05-27T09:35:58.000Z</time>
      </trkpt>
      <trkpt lat="44.72973" lon="4.7568">
        <ele>83.2</ele>
        <time>2019-05-27T09:36:03.000Z</time>
      </trkpt>
      <trkpt lat="44.72944" lon="4.75676">
        <ele>86.68</ele>
        <time>2019-05-27T09:36:08.000Z</time>
      </trkpt>
      <trkpt lat="44.72914" lon="4.75666">
        <ele>86.99</ele>
        <time>2019-05-27T09:36:13.000Z</time>
      </trkpt>
      <trkpt lat="44.72883" lon="4.75651">
        <ele>87.13</ele>
        <time>2019-05-27T09:36:18.000Z</time>
      </trkpt>
      <trkpt lat="44.72851" lon="4.75636">
        <ele>85.07</ele>
        <time>2019-05-27T09:36:23.000Z</time>
      </trkpt>
      <trkpt lat="44.7282" lon="4.75619">
        <ele>85</ele>
        <time>2019-05-27T09:36:28.000Z</time>
      </trkpt>
      <trkpt lat="44.72788" lon="4.75602">
        <ele>85.19</ele>
        <time>2019-05-27T09:36:33.000Z</time>
      </trkpt>
      <trkpt lat="44.72754" lon="4.75616">
        <ele>84.02</ele>
        <time>2019-05-27T09:36:38.000Z</time>
      </trkpt>
      <trkpt lat="44.72724" lon="4.75634">
        <ele>84.75</ele>
        <time>2019-05-27T09:36:43.000Z</time>
      </trkpt>
      <trkpt lat="44.72694" lon="4.75649">
        <ele>82.07</ele>
        <time>2019-05-27T09:36:48.000Z</time>
      </trkpt>
      <trkpt lat="44.72666" lon="4.75672">
        <ele>80.25</ele>
        <time>2019-05-27T09:36:53.000Z</time>
      </trkpt>
      <trkpt lat="44.72635" lon="4.7569">
        <ele>80.74</ele>
        <time>2019-05-27T09:36:58.000Z</time>
      </trkpt>
      <trkpt lat="44.72609" lon="4.75718">
        <ele>81.02</ele>
        <time>2019-05-27T09:37:03.000Z</time>
      </trkpt>
      <trkpt lat="44.72591" lon="4.75757">
        <ele>82.49</ele>
        <time>2019-05-27T09:37:08.000Z</time>
      </trkpt>
      <trkpt lat="44.72565" lon="4.75783">
        <ele>82.25</ele>
        <time>2019-05-27T09:37:13.000Z</time>
      </trkpt>
      <trkpt lat="44.72534" lon="4.75796">
        <ele>83.01</ele>
        <time>2019-05-27T09:37:18.000Z</time>
      </trkpt>
      <trkpt lat="44.72503" lon="4.75817">
        <ele>83</ele>
        <time>2019-05-27T09:37:23.000Z</time>
      </trkpt>
      <trkpt lat="44.72468" lon="4.75835">
        <ele>82.22</ele>
        <time>2019-05-27T09:37:28.000Z</time>
      </trkpt>
      <trkpt lat="44.72439" lon="4.75848">
        <ele>81.25</ele>
        <time>2019-05-27T09:37:33.000Z</time>
      </trkpt>
      <trkpt lat="44.72407" lon="4.75864">
        <ele>80.01</ele>
        <time>2019-05-27T09:37:38.000Z</time>
      </trkpt>
      <trkpt lat="44.72378" lon="4.75886">
        <ele>80.05</ele>
        <time>2019-05-27T09:37:43.000Z</time>
      </trkpt>
      <trkpt lat="44.72345" lon="4.75882">
        <ele>80.8</ele>
        <time>2019-05-27T09:37:48.000Z</time>
      </trkpt>
      <trkpt lat="44.72316" lon="4.75851">
        <ele>82.94</ele>
        <time>2019-05-27T09:37:53.000Z</time>
      </trkpt>
      <trkpt lat="44.7229" lon="4.7582">
        <ele>84.99</ele>
        <time>2019-05-27T09:37:58.000Z</time>
      </trkpt>
      <trkpt lat="44.72258" lon="4.75801">
        <ele>84.99</ele>
        <time>2019-05-27T09:38:03.000Z</time>
      </trkpt>
      <trkpt lat="44.72227" lon="4.75782">
        <ele>85.99</ele>
        <time>2019-05-27T09:38:08.000Z</time>
      </trkpt>
      <trkpt lat="44.72198" lon="4.75756">
        <ele>85.26</ele>
        <time>2019-05-27T09:38:13.000Z</time>
      </trkpt>
      <trkpt lat="44.72166" lon="4.75733">
        <ele>85.01</ele>
        <time>2019-05-27T09:38:18.000Z</time>
      </trkpt>
      <trkpt lat="44.72139" lon="4.75702">
        <ele>84.26</ele>
        <time>2019-05-27T09:38:23.000Z</time>
      </trkpt>
      <trkpt lat="44.7211" lon="4.75674">
        <ele>84.19</ele>
        <time>2019-05-27T09:38:28.000Z</time>
      </trkpt>
      <trkpt lat="44.7208" lon="4.75653">
        <ele>84.96</ele>
        <time>2019-05-27T09:38:33.000Z</time>
      </trkpt>
      <trkpt lat="44.72049" lon="4.75637">
        <ele>84.01</ele>
        <time>2019-05-27T09:38:38.000Z</time>
      </trkpt>
      <trkpt lat="44.72015" lon="4.75645">
        <ele>85.01</ele>
        <time>2019-05-27T09:38:43.000Z</time>
      </trkpt>
      <trkpt lat="44.71981" lon="4.75654">
        <ele>86.74</ele>
        <time>2019-05-27T09:38:48.000Z</time>
      </trkpt>
      <trkpt lat="44.71947" lon="4.75658">
        <ele>84.15</ele>
        <time>2019-05-27T09:38:53.000Z</time>
      </trkpt>
      <trkpt lat="44.7191" lon="4.75659">
        <ele>85.01</ele>
        <time>2019-05-27T09:38:58.000Z</time>
      </trkpt>
      <trkpt lat="44.71875" lon="4.75662">
        <ele>85.01</ele>
        <time>2019-05-27T09:39:03.000Z</time>
      </trkpt>
      <trkpt lat="44.71843" lon="4.75672">
        <ele>82.09</ele>
        <time>2019-05-27T09:39:08.000Z</time>
      </trkpt>
      <trkpt lat="44.71812" lon="4.75687">
        <ele>79.83</ele>
        <time>2019-05-27T09:39:13.000Z</time>
      </trkpt>
      <trkpt lat="44.71784" lon="4.7569">
        <ele>79.77</ele>
        <time>2019-05-27T09:39:18.000Z</time>
      </trkpt>
      <trkpt lat="44.71768" lon="4.75686">
        <ele>81.99</ele>
        <time>2019-05-27T09:39:23.000Z</time>
      </trkpt>
      <trkpt lat="44.71756" lon="4.75708">
        <ele>82.01</ele>
        <time>2019-05-27T09:39:28.000Z</time>
      </trkpt>
      <trkpt lat="44.71741" lon="4.75734">
        <ele>81.07</ele>
        <time>2019-05-27T09:39:33.000Z</time>
      </trkpt>
      <trkpt lat="44.71724" lon="4.75763">
        <ele>81.01</ele>
        <time>2019-05-27T09:39:38.000Z</time>
      </trkpt>
      <trkpt lat="44.71708" lon="4.75792">
        <ele>83.68</ele>
        <time>2019-05-27T09:39:43.000Z</time>
      </trkpt>
      <trkpt lat="44.7169" lon="4.75823">
        <ele>85.96</ele>
        <time>2019-05-27T09:39:48.000Z</time>
      </trkpt>
      <trkpt lat="44.71673" lon="4.75855">
        <ele>86.01</ele>
        <time>2019-05-27T09:39:53.000Z</time>
      </trkpt>
      <trkpt lat="44.71655" lon="4.75884">
        <ele>86.26</ele>
        <time>2019-05-27T09:39:58.000Z</time>
      </trkpt>
      <trkpt lat="44.71638" lon="4.75914">
        <ele>86.95</ele>
        <time>2019-05-27T09:40:03.000Z</time>
      </trkpt>
      <trkpt lat="44.71619" lon="4.75944">
        <ele>85.78</ele>
        <time>2019-05-27T09:40:08.000Z</time>
      </trkpt>
      <trkpt lat="44.71601" lon="4.75976">
        <ele>86.01</ele>
        <time>2019-05-27T09:40:13.000Z</time>
      </trkpt>
      <trkpt lat="44.71583" lon="4.76004">
        <ele>85.07</ele>
        <time>2019-05-27T09:40:18.000Z</time>
      </trkpt>
      <trkpt lat="44.71567" lon="4.76033">
        <ele>84.81</ele>
        <time>2019-05-27T09:40:23.000Z</time>
      </trkpt>
      <trkpt lat="44.71554" lon="4.76053">
        <ele>84.26</ele>
        <time>2019-05-27T09:40:28.000Z</time>
      </trkpt>
      <trkpt lat="44.71541" lon="4.76072">
        <ele>85.99</ele>
        <time>2019-05-27T09:40:33.000Z</time>
      </trkpt>
      <trkpt lat="44.71524" lon="4.76093">
        <ele>85.76</ele>
        <time>2019-05-27T09:40:38.000Z</time>
      </trkpt>
      <trkpt lat="44.71506" lon="4.7612">
        <ele>89.49</ele>
        <time>2019-05-27T09:40:43.000Z</time>
      </trkpt>
      <trkpt lat="44.71489" lon="4.76151">
        <ele>87.11</ele>
        <time>2019-05-27T09:40:48.000Z</time>
      </trkpt>
      <trkpt lat="44.71468" lon="4.76177">
        <ele>85.78</ele>
        <time>2019-05-27T09:40:53.000Z</time>
      </trkpt>
      <trkpt lat="44.71444" lon="4.76201">
        <ele>87.07</ele>
        <time>2019-05-27T09:40:58.000Z</time>
      </trkpt>
      <trkpt lat="44.71423" lon="4.76222">
        <ele>87.01</ele>
        <time>2019-05-27T09:41:03.000Z</time>
      </trkpt>
      <trkpt lat="44.71395" lon="4.76236">
        <ele>86.13</ele>
        <time>2019-05-27T09:41:08.000Z</time>
      </trkpt>
      <trkpt lat="44.71374" lon="4.76248">
        <ele>84.06</ele>
        <time>2019-05-27T09:41:13.000Z</time>
      </trkpt>
      <trkpt lat="44.71361" lon="4.76275">
        <ele>85.47</ele>
        <time>2019-05-27T09:41:18.000Z</time>
      </trkpt>
      <trkpt lat="44.71369" lon="4.76302">
        <ele>86.01</ele>
        <time>2019-05-27T09:41:23.000Z</time>
      </trkpt>
      <trkpt lat="44.71364" lon="4.76326">
        <ele>83.97</ele>
        <time>2019-05-27T09:41:28.000Z</time>
      </trkpt>
      <trkpt lat="44.71347" lon="4.76336">
        <ele>87.02</ele>
        <time>2019-05-27T09:41:33.000Z</time>
      </trkpt>
      <trkpt lat="44.71338" lon="4.7634">
        <ele>89.45</ele>
        <time>2019-05-27T09:41:49.000Z</time>
      </trkpt>
      <trkpt lat="44.7132" lon="4.76349">
        <ele>87.34</ele>
        <time>2019-05-27T09:41:54.000Z</time>
      </trkpt>
      <trkpt lat="44.713" lon="4.7637">
        <ele>84.08</ele>
        <time>2019-05-27T09:41:59.000Z</time>
      </trkpt>
      <trkpt lat="44.7128" lon="4.76386">
        <ele>78.12</ele>
        <time>2019-05-27T09:42:04.000Z</time>
      </trkpt>
      <trkpt lat="44.71262" lon="4.7641">
        <ele>82.76</ele>
        <time>2019-05-27T09:42:09.000Z</time>
      </trkpt>
      <trkpt lat="44.71252" lon="4.76429">
        <ele>87.32</ele>
        <time>2019-05-27T09:42:14.000Z</time>
      </trkpt>
      <trkpt lat="44.71242" lon="4.76432">
        <ele>82.16</ele>
        <time>2019-05-27T09:42:19.000Z</time>
      </trkpt>
      <trkpt lat="44.71231" lon="4.7643">
        <ele>82.01</ele>
        <time>2019-05-27T09:42:27.000Z</time>
      </trkpt>
      <trkpt lat="44.71222" lon="4.76419">
        <ele>80.83</ele>
        <time>2019-05-27T09:42:32.000Z</time>
      </trkpt>
      <trkpt lat="44.71218" lon="4.76404">
        <ele>82.51</ele>
        <time>2019-05-27T09:42:37.000Z</time>
      </trkpt>
      <trkpt lat="44.71215" lon="4.76391">
        <ele>81.84</ele>
        <time>2019-05-27T09:42:42.000Z</time>
      </trkpt>
      <trkpt lat="44.71207" lon="4.76384">
        <ele>81.78</ele>
        <time>2019-05-27T09:42:50.000Z</time>
      </trkpt>
      <trkpt lat="44.71189" lon="4.76409">
        <ele>84.98</ele>
        <time>2019-05-27T09:42:55.000Z</time>
      </trkpt>
      <trkpt lat="44.7117" lon="4.76435">
        <ele>90.57</ele>
        <time>2019-05-27T09:43:00.000Z</time>
      </trkpt>
      <trkpt lat="44.71153" lon="4.76457">
        <ele>87.01</ele>
        <time>2019-05-27T09:43:05.000Z</time>
      </trkpt>
      <trkpt lat="44.71137" lon="4.76481">
        <ele>90.06</ele>
        <time>2019-05-27T09:43:10.000Z</time>
      </trkpt>
      <trkpt lat="44.71116" lon="4.76498">
        <ele>88.03</ele>
        <time>2019-05-27T09:43:15.000Z</time>
      </trkpt>
      <trkpt lat="44.71095" lon="4.76523">
        <ele>85.23</ele>
        <time>2019-05-27T09:43:20.000Z</time>
      </trkpt>
      <trkpt lat="44.71076" lon="4.7654">
        <ele>85.01</ele>
        <time>2019-05-27T09:43:25.000Z</time>
      </trkpt>
      <trkpt lat="44.71078" lon="4.76555">
        <ele>86.26</ele>
        <time>2019-05-27T09:43:31.000Z</time>
      </trkpt>
      <trkpt lat="44.71083" lon="4.76568">
        <ele>87.01</ele>
        <time>2019-05-27T09:43:49.000Z</time>
      </trkpt>
      <trkpt lat="44.7108" lon="4.76594">
        <ele>86.21</ele>
        <time>2019-05-27T09:43:54.000Z</time>
      </trkpt>
      <trkpt lat="44.71053" lon="4.76627">
        <ele>84.09</ele>
        <time>2019-05-27T09:43:59.000Z</time>
      </trkpt>
      <trkpt lat="44.71028" lon="4.76664">
        <ele>81.09</ele>
        <time>2019-05-27T09:44:04.000Z</time>
      </trkpt>
      <trkpt lat="44.70997" lon="4.76679">
        <ele>81.96</ele>
        <time>2019-05-27T09:44:09.000Z</time>
      </trkpt>
      <trkpt lat="44.7097" lon="4.76684">
        <ele>79.48</ele>
        <time>2019-05-27T09:44:14.000Z</time>
      </trkpt>
      <trkpt lat="44.70945" lon="4.76708">
        <ele>77.79</ele>
        <time>2019-05-27T09:44:19.000Z</time>
      </trkpt>
      <trkpt lat="44.70923" lon="4.76719">
        <ele>82.8</ele>
        <time>2019-05-27T09:44:24.000Z</time>
      </trkpt>
      <trkpt lat="44.70904" lon="4.76742">
        <ele>84.95</ele>
        <time>2019-05-27T09:44:29.000Z</time>
      </trkpt>
      <trkpt lat="44.70876" lon="4.76748">
        <ele>86</ele>
        <time>2019-05-27T09:44:34.000Z</time>
      </trkpt>
      <trkpt lat="44.70845" lon="4.76756">
        <ele>87.01</ele>
        <time>2019-05-27T09:44:39.000Z</time>
      </trkpt>
      <trkpt lat="44.70811" lon="4.76755">
        <ele>85.02</ele>
        <time>2019-05-27T09:44:44.000Z</time>
      </trkpt>
      <trkpt lat="44.70777" lon="4.76752">
        <ele>86.51</ele>
        <time>2019-05-27T09:44:49.000Z</time>
      </trkpt>
      <trkpt lat="44.7074" lon="4.7675">
        <ele>85.45</ele>
        <time>2019-05-27T09:44:54.000Z</time>
      </trkpt>
      <trkpt lat="44.70707" lon="4.76756">
        <ele>84</ele>
        <time>2019-05-27T09:44:59.000Z</time>
      </trkpt>
      <trkpt lat="44.70673" lon="4.76762">
        <ele>87</ele>
        <time>2019-05-27T09:45:04.000Z</time>
      </trkpt>
      <trkpt lat="44.7064" lon="4.76759">
        <ele>85.03</ele>
        <time>2019-05-27T09:45:09.000Z</time>
      </trkpt>
      <trkpt lat="44.70608" lon="4.76748">
        <ele>83.09</ele>
        <time>2019-05-27T09:45:14.000Z</time>
      </trkpt>
      <trkpt lat="44.70577" lon="4.76733">
        <ele>84.01</ele>
        <time>2019-05-27T09:45:19.000Z</time>
      </trkpt>
      <trkpt lat="44.70543" lon="4.76734">
        <ele>82.02</ele>
        <time>2019-05-27T09:45:24.000Z</time>
      </trkpt>
      <trkpt lat="44.70517" lon="4.76703">
        <ele>84.7</ele>
        <time>2019-05-27T09:45:29.000Z</time>
      </trkpt>
      <trkpt lat="44.70486" lon="4.76686">
        <ele>85.02</ele>
        <time>2019-05-27T09:45:34.000Z</time>
      </trkpt>
      <trkpt lat="44.70454" lon="4.76677">
        <ele>85.81</ele>
        <time>2019-05-27T09:45:39.000Z</time>
      </trkpt>
      <trkpt lat="44.70419" lon="4.76679">
        <ele>84.27</ele>
        <time>2019-05-27T09:45:44.000Z</time>
      </trkpt>
      <trkpt lat="44.70383" lon="4.76683">
        <ele>84.01</ele>
        <time>2019-05-27T09:45:49.000Z</time>
      </trkpt>
      <trkpt lat="44.70351" lon="4.76688">
        <ele>84.02</ele>
        <time>2019-05-27T09:45:54.000Z</time>
      </trkpt>
      <trkpt lat="44.70319" lon="4.76699">
        <ele>84</ele>
        <time>2019-05-27T09:45:59.000Z</time>
      </trkpt>
      <trkpt lat="44.70289" lon="4.76726">
        <ele>82.14</ele>
        <time>2019-05-27T09:46:04.000Z</time>
      </trkpt>
      <trkpt lat="44.7027" lon="4.76736">
        <ele>83</ele>
        <time>2019-05-27T09:46:09.000Z</time>
      </trkpt>
      <trkpt lat="44.70266" lon="4.76708">
        <ele>85.7</ele>
        <time>2019-05-27T09:46:14.000Z</time>
      </trkpt>
      <trkpt lat="44.70261" lon="4.76679">
        <ele>86</ele>
        <time>2019-05-27T09:46:19.000Z</time>
      </trkpt>
      <trkpt lat="44.70247" lon="4.76657">
        <ele>85.21</ele>
        <time>2019-05-27T09:46:24.000Z</time>
      </trkpt>
      <trkpt lat="44.70224" lon="4.7667">
        <ele>87.01</ele>
        <time>2019-05-27T09:46:29.000Z</time>
      </trkpt>
      <trkpt lat="44.70202" lon="4.76682">
        <ele>87.77</ele>
        <time>2019-05-27T09:46:34.000Z</time>
      </trkpt>
      <trkpt lat="44.70186" lon="4.7669">
        <ele>89.01</ele>
        <time>2019-05-27T09:46:39.000Z</time>
      </trkpt>
      <trkpt lat="44.70174" lon="4.76675">
        <ele>89.02</ele>
        <time>2019-05-27T09:46:44.000Z</time>
      </trkpt>
      <trkpt lat="44.70162" lon="4.76659">
        <ele>89.27</ele>
        <time>2019-05-27T09:46:49.000Z</time>
      </trkpt>
      <trkpt lat="44.70152" lon="4.76669">
        <ele>90.52</ele>
        <time>2019-05-27T09:46:54.000Z</time>
      </trkpt>
      <trkpt lat="44.70139" lon="4.76684">
        <ele>93.75</ele>
        <time>2019-05-27T09:46:59.000Z</time>
      </trkpt>
      <trkpt lat="44.70113" lon="4.76698">
        <ele>91.85</ele>
        <time>2019-05-27T09:47:04.000Z</time>
      </trkpt>
      <trkpt lat="44.70085" lon="4.76714">
        <ele>91.27</ele>
        <time>2019-05-27T09:47:09.000Z</time>
      </trkpt>
      <trkpt lat="44.70054" lon="4.76732">
        <ele>89.78</ele>
        <time>2019-05-27T09:47:14.000Z</time>
      </trkpt>
      <trkpt lat="44.70022" lon="4.76749">
        <ele>89.02</ele>
        <time>2019-05-27T09:47:19.000Z</time>
      </trkpt>
      <trkpt lat="44.69988" lon="4.76768">
        <ele>88.77</ele>
        <time>2019-05-27T09:47:24.000Z</time>
      </trkpt>
      <trkpt lat="44.69956" lon="4.76789">
        <ele>88.22</ele>
        <time>2019-05-27T09:47:29.000Z</time>
      </trkpt>
      <trkpt lat="44.69925" lon="4.76808">
        <ele>89.25</ele>
        <time>2019-05-27T09:47:34.000Z</time>
      </trkpt>
      <trkpt lat="44.69903" lon="4.76823">
        <ele>90.76</ele>
        <time>2019-05-27T09:47:39.000Z</time>
      </trkpt>
      <trkpt lat="44.69908" lon="4.76853">
        <ele>90.03</ele>
        <time>2019-05-27T09:47:44.000Z</time>
      </trkpt>
      <trkpt lat="44.69901" lon="4.76878">
        <ele>87.04</ele>
        <time>2019-05-27T09:47:49.000Z</time>
      </trkpt>
      <trkpt lat="44.69881" lon="4.76889">
        <ele>86.02</ele>
        <time>2019-05-27T09:47:54.000Z</time>
      </trkpt>
      <trkpt lat="44.69858" lon="4.76898">
        <ele>86.06</ele>
        <time>2019-05-27T09:47:59.000Z</time>
      </trkpt>
      <trkpt lat="44.69833" lon="4.76909">
        <ele>85.22</ele>
        <time>2019-05-27T09:48:04.000Z</time>
      </trkpt>
      <trkpt lat="44.69807" lon="4.76921">
        <ele>86</ele>
        <time>2019-05-27T09:48:09.000Z</time>
      </trkpt>
      <trkpt lat="44.6978" lon="4.76938">
        <ele>86.96</ele>
        <time>2019-05-27T09:48:14.000Z</time>
      </trkpt>
      <trkpt lat="44.69758" lon="4.76951">
        <ele>88.02</ele>
        <time>2019-05-27T09:48:19.000Z</time>
      </trkpt>
      <trkpt lat="44.69741" lon="4.76962">
        <ele>88.77</ele>
        <time>2019-05-27T09:48:24.000Z</time>
      </trkpt>
      <trkpt lat="44.69724" lon="4.76973">
        <ele>91.5</ele>
        <time>2019-05-27T09:48:29.000Z</time>
      </trkpt>
      <trkpt lat="44.69699" lon="4.76988">
        <ele>90.28</ele>
        <time>2019-05-27T09:48:34.000Z</time>
      </trkpt>
      <trkpt lat="44.69669" lon="4.77008">
        <ele>87.29</ele>
        <time>2019-05-27T09:48:39.000Z</time>
      </trkpt>
      <trkpt lat="44.69639" lon="4.77026">
        <ele>88.14</ele>
        <time>2019-05-27T09:48:44.000Z</time>
      </trkpt>
      <trkpt lat="44.69607" lon="4.77043">
        <ele>85.09</ele>
        <time>2019-05-27T09:48:49.000Z</time>
      </trkpt>
      <trkpt lat="44.69575" lon="4.77064">
        <ele>85.02</ele>
        <time>2019-05-27T09:48:54.000Z</time>
      </trkpt>
      <trkpt lat="44.69545" lon="4.77084">
        <ele>85.27</ele>
        <time>2019-05-27T09:48:59.000Z</time>
      </trkpt>
      <trkpt lat="44.69514" lon="4.77101">
        <ele>82.09</ele>
        <time>2019-05-27T09:49:04.000Z</time>
      </trkpt>
      <trkpt lat="44.69482" lon="4.77119">
        <ele>81.09</ele>
        <time>2019-05-27T09:49:09.000Z</time>
      </trkpt>
      <trkpt lat="44.69452" lon="4.77138">
        <ele>83.75</ele>
        <time>2019-05-27T09:49:14.000Z</time>
      </trkpt>
      <trkpt lat="44.69426" lon="4.7715">
        <ele>84.82</ele>
        <time>2019-05-27T09:49:19.000Z</time>
      </trkpt>
      <trkpt lat="44.69404" lon="4.77162">
        <ele>87.01</ele>
        <time>2019-05-27T09:49:24.000Z</time>
      </trkpt>
      <trkpt lat="44.69381" lon="4.77178">
        <ele>85.27</ele>
        <time>2019-05-27T09:49:29.000Z</time>
      </trkpt>
      <trkpt lat="44.69353" lon="4.77196">
        <ele>84.02</ele>
        <time>2019-05-27T09:49:34.000Z</time>
      </trkpt>
      <trkpt lat="44.69325" lon="4.77215">
        <ele>83.96</ele>
        <time>2019-05-27T09:49:39.000Z</time>
      </trkpt>
      <trkpt lat="44.69304" lon="4.77233">
        <ele>83.04</ele>
        <time>2019-05-27T09:49:44.000Z</time>
      </trkpt>
      <trkpt lat="44.69277" lon="4.77241">
        <ele>81.08</ele>
        <time>2019-05-27T09:49:49.000Z</time>
      </trkpt>
      <trkpt lat="44.6925" lon="4.77252">
        <ele>81.27</ele>
        <time>2019-05-27T09:49:54.000Z</time>
      </trkpt>
      <trkpt lat="44.69219" lon="4.77266">
        <ele>81.07</ele>
        <time>2019-05-27T09:49:59.000Z</time>
      </trkpt>
      <trkpt lat="44.69189" lon="4.77277">
        <ele>81.02</ele>
        <time>2019-05-27T09:50:04.000Z</time>
      </trkpt>
      <trkpt lat="44.69154" lon="4.77288">
        <ele>81.77</ele>
        <time>2019-05-27T09:50:09.000Z</time>
      </trkpt>
      <trkpt lat="44.69119" lon="4.77293">
        <ele>81.96</ele>
        <time>2019-05-27T09:50:14.000Z</time>
      </trkpt>
      <trkpt lat="44.69083" lon="4.77293">
        <ele>83.02</ele>
        <time>2019-05-27T09:50:19.000Z</time>
      </trkpt>
      <trkpt lat="44.69049" lon="4.77292">
        <ele>83.26</ele>
        <time>2019-05-27T09:50:24.000Z</time>
      </trkpt>
      <trkpt lat="44.69017" lon="4.77291">
        <ele>85.01</ele>
        <time>2019-05-27T09:50:29.000Z</time>
      </trkpt>
      <trkpt lat="44.68982" lon="4.7729">
        <ele>85.02</ele>
        <time>2019-05-27T09:50:34.000Z</time>
      </trkpt>
      <trkpt lat="44.68946" lon="4.77289">
        <ele>84.27</ele>
        <time>2019-05-27T09:50:39.000Z</time>
      </trkpt>
      <trkpt lat="44.6891" lon="4.77287">
        <ele>85.02</ele>
        <time>2019-05-27T09:50:44.000Z</time>
      </trkpt>
      <trkpt lat="44.68874" lon="4.77282">
        <ele>84.08</ele>
        <time>2019-05-27T09:50:49.000Z</time>
      </trkpt>
      <trkpt lat="44.68838" lon="4.77279">
        <ele>83.03</ele>
        <time>2019-05-27T09:50:54.000Z</time>
      </trkpt>
      <trkpt lat="44.68802" lon="4.77277">
        <ele>83.02</ele>
        <time>2019-05-27T09:50:59.000Z</time>
      </trkpt>
      <trkpt lat="44.68766" lon="4.77274">
        <ele>83.79</ele>
        <time>2019-05-27T09:51:04.000Z</time>
      </trkpt>
      <trkpt lat="44.68729" lon="4.77272">
        <ele>83.04</ele>
        <time>2019-05-27T09:51:09.000Z</time>
      </trkpt>
      <trkpt lat="44.68691" lon="4.7727">
        <ele>81.22</ele>
        <time>2019-05-27T09:51:14.000Z</time>
      </trkpt>
      <trkpt lat="44.68654" lon="4.77269">
        <ele>82.95</ele>
        <time>2019-05-27T09:51:19.000Z</time>
      </trkpt>
      <trkpt lat="44.68629" lon="4.77265">
        <ele>82.04</ele>
        <time>2019-05-27T09:51:24.000Z</time>
      </trkpt>
      <trkpt lat="44.68615" lon="4.77254">
        <ele>80.09</ele>
        <time>2019-05-27T09:51:29.000Z</time>
      </trkpt>
      <trkpt lat="44.68593" lon="4.77252">
        <ele>79.83</ele>
        <time>2019-05-27T09:51:34.000Z</time>
      </trkpt>
      <trkpt lat="44.68564" lon="4.7725">
        <ele>79.03</ele>
        <time>2019-05-27T09:51:39.000Z</time>
      </trkpt>
      <trkpt lat="44.68532" lon="4.77248">
        <ele>79.96</ele>
        <time>2019-05-27T09:51:44.000Z</time>
      </trkpt>
      <trkpt lat="44.685" lon="4.77245">
        <ele>79.83</ele>
        <time>2019-05-27T09:51:49.000Z</time>
      </trkpt>
      <trkpt lat="44.68467" lon="4.77241">
        <ele>80.04</ele>
        <time>2019-05-27T09:51:54.000Z</time>
      </trkpt>
      <trkpt lat="44.68433" lon="4.77235">
        <ele>80.03</ele>
        <time>2019-05-27T09:51:59.000Z</time>
      </trkpt>
      <trkpt lat="44.68399" lon="4.77238">
        <ele>81.57</ele>
        <time>2019-05-27T09:52:04.000Z</time>
      </trkpt>
      <trkpt lat="44.68365" lon="4.77244">
        <ele>81.03</ele>
        <time>2019-05-27T09:52:09.000Z</time>
      </trkpt>
      <trkpt lat="44.68333" lon="4.77246">
        <ele>82.77</ele>
        <time>2019-05-27T09:52:14.000Z</time>
      </trkpt>
      <trkpt lat="44.68299" lon="4.77247">
        <ele>83.03</ele>
        <time>2019-05-27T09:52:19.000Z</time>
      </trkpt>
      <trkpt lat="44.68267" lon="4.77249">
        <ele>84.03</ele>
        <time>2019-05-27T09:52:24.000Z</time>
      </trkpt>
      <trkpt lat="44.68236" lon="4.77249">
        <ele>84.97</ele>
        <time>2019-05-27T09:52:29.000Z</time>
      </trkpt>
      <trkpt lat="44.68208" lon="4.77246">
        <ele>85.96</ele>
        <time>2019-05-27T09:52:34.000Z</time>
      </trkpt>
      <trkpt lat="44.68184" lon="4.77239">
        <ele>86.79</ele>
        <time>2019-05-27T09:52:39.000Z</time>
      </trkpt>
      <trkpt lat="44.68162" lon="4.77233">
        <ele>88.71</ele>
        <time>2019-05-27T09:52:44.000Z</time>
      </trkpt>
      <trkpt lat="44.68142" lon="4.77228">
        <ele>88.97</ele>
        <time>2019-05-27T09:52:49.000Z</time>
      </trkpt>
      <trkpt lat="44.68122" lon="4.77225">
        <ele>90.96</ele>
        <time>2019-05-27T09:52:54.000Z</time>
      </trkpt>
      <trkpt lat="44.68103" lon="4.77223">
        <ele>92.03</ele>
        <time>2019-05-27T09:52:59.000Z</time>
      </trkpt>
      <trkpt lat="44.68083" lon="4.77222">
        <ele>93.07</ele>
        <time>2019-05-27T09:53:04.000Z</time>
      </trkpt>
      <trkpt lat="44.68062" lon="4.77219">
        <ele>93.96</ele>
        <time>2019-05-27T09:53:09.000Z</time>
      </trkpt>
      <trkpt lat="44.68041" lon="4.77218">
        <ele>93.03</ele>
        <time>2019-05-27T09:53:14.000Z</time>
      </trkpt>
      <trkpt lat="44.6802" lon="4.77218">
        <ele>92.03</ele>
        <time>2019-05-27T09:53:19.000Z</time>
      </trkpt>
      <trkpt lat="44.67997" lon="4.77216">
        <ele>90.28</ele>
        <time>2019-05-27T09:53:24.000Z</time>
      </trkpt>
      <trkpt lat="44.67966" lon="4.77224">
        <ele>89.09</ele>
        <time>2019-05-27T09:53:29.000Z</time>
      </trkpt>
      <trkpt lat="44.67947" lon="4.77232">
        <ele>90.02</ele>
        <time>2019-05-27T09:53:34.000Z</time>
      </trkpt>
      <trkpt lat="44.67944" lon="4.77254">
        <ele>90.03</ele>
        <time>2019-05-27T09:53:39.000Z</time>
      </trkpt>
      <trkpt lat="44.67945" lon="4.77283">
        <ele>88.09</ele>
        <time>2019-05-27T09:53:44.000Z</time>
      </trkpt>
      <trkpt lat="44.67948" lon="4.7732">
        <ele>86.09</ele>
        <time>2019-05-27T09:53:49.000Z</time>
      </trkpt>
      <trkpt lat="44.67943" lon="4.77364">
        <ele>84.22</ele>
        <time>2019-05-27T09:53:54.000Z</time>
      </trkpt>
      <trkpt lat="44.67932" lon="4.77412">
        <ele>85.54</ele>
        <time>2019-05-27T09:53:59.000Z</time>
      </trkpt>
      <trkpt lat="44.67927" lon="4.77455">
        <ele>83.29</ele>
        <time>2019-05-27T09:54:04.000Z</time>
      </trkpt>
      <trkpt lat="44.67925" lon="4.77488">
        <ele>82.78</ele>
        <time>2019-05-27T09:54:09.000Z</time>
      </trkpt>
      <trkpt lat="44.67931" lon="4.77512">
        <ele>84.15</ele>
        <time>2019-05-27T09:54:14.000Z</time>
      </trkpt>
      <trkpt lat="44.67927" lon="4.77545">
        <ele>82.97</ele>
        <time>2019-05-27T09:54:19.000Z</time>
      </trkpt>
      <trkpt lat="44.67918" lon="4.77584">
        <ele>83.03</ele>
        <time>2019-05-27T09:54:24.000Z</time>
      </trkpt>
      <trkpt lat="44.67904" lon="4.77618">
        <ele>83.03</ele>
        <time>2019-05-27T09:54:29.000Z</time>
      </trkpt>
      <trkpt lat="44.67884" lon="4.77651">
        <ele>81.03</ele>
        <time>2019-05-27T09:54:34.000Z</time>
      </trkpt>
      <trkpt lat="44.67861" lon="4.7768">
        <ele>81.96</ele>
        <time>2019-05-27T09:54:39.000Z</time>
      </trkpt>
      <trkpt lat="44.67833" lon="4.777">
        <ele>83.03</ele>
        <time>2019-05-27T09:54:44.000Z</time>
      </trkpt>
      <trkpt lat="44.67803" lon="4.77709">
        <ele>83.03</ele>
        <time>2019-05-27T09:54:49.000Z</time>
      </trkpt>
      <trkpt lat="44.67774" lon="4.77709">
        <ele>83.03</ele>
        <time>2019-05-27T09:54:54.000Z</time>
      </trkpt>
      <trkpt lat="44.67744" lon="4.77705">
        <ele>84.77</ele>
        <time>2019-05-27T09:54:59.000Z</time>
      </trkpt>
      <trkpt lat="44.67713" lon="4.77702">
        <ele>84.83</ele>
        <time>2019-05-27T09:55:04.000Z</time>
      </trkpt>
      <trkpt lat="44.67683" lon="4.77696">
        <ele>86.72</ele>
        <time>2019-05-27T09:55:09.000Z</time>
      </trkpt>
      <trkpt lat="44.67651" lon="4.77692">
        <ele>86.22</ele>
        <time>2019-05-27T09:55:14.000Z</time>
      </trkpt>
      <trkpt lat="44.67619" lon="4.7769">
        <ele>86.03</ele>
        <time>2019-05-27T09:55:19.000Z</time>
      </trkpt>
      <trkpt lat="44.67587" lon="4.77692">
        <ele>86.03</ele>
        <time>2019-05-27T09:55:24.000Z</time>
      </trkpt>
      <trkpt lat="44.67554" lon="4.777">
        <ele>87.78</ele>
        <time>2019-05-27T09:55:29.000Z</time>
      </trkpt>
      <trkpt lat="44.67522" lon="4.77707">
        <ele>87.98</ele>
        <time>2019-05-27T09:55:34.000Z</time>
      </trkpt>
      <trkpt lat="44.6749" lon="4.77726">
        <ele>86.81</ele>
        <time>2019-05-27T09:55:39.000Z</time>
      </trkpt>
      <trkpt lat="44.67458" lon="4.77745">
        <ele>86.04</ele>
        <time>2019-05-27T09:55:44.000Z</time>
      </trkpt>
      <trkpt lat="44.67429" lon="4.77769">
        <ele>85.02</ele>
        <time>2019-05-27T09:55:49.000Z</time>
      </trkpt>
      <trkpt lat="44.67398" lon="4.77794">
        <ele>85.03</ele>
        <time>2019-05-27T09:55:54.000Z</time>
      </trkpt>
      <trkpt lat="44.67371" lon="4.77818">
        <ele>85.02</ele>
        <time>2019-05-27T09:55:59.000Z</time>
      </trkpt>
      <trkpt lat="44.67343" lon="4.77844">
        <ele>86.01</ele>
        <time>2019-05-27T09:56:04.000Z</time>
      </trkpt>
      <trkpt lat="44.67314" lon="4.77868">
        <ele>86.03</ele>
        <time>2019-05-27T09:56:09.000Z</time>
      </trkpt>
      <trkpt lat="44.67286" lon="4.77893">
        <ele>86.03</ele>
        <time>2019-05-27T09:56:14.000Z</time>
      </trkpt>
      <trkpt lat="44.67257" lon="4.77915">
        <ele>85.33</ele>
        <time>2019-05-27T09:56:19.000Z</time>
      </trkpt>
      <trkpt lat="44.6723" lon="4.77938">
        <ele>82.29</ele>
        <time>2019-05-27T09:56:24.000Z</time>
      </trkpt>
      <trkpt lat="44.67203" lon="4.77962">
        <ele>80.53</ele>
        <time>2019-05-27T09:56:29.000Z</time>
      </trkpt>
      <trkpt lat="44.67174" lon="4.77983">
        <ele>80.27</ele>
        <time>2019-05-27T09:56:34.000Z</time>
      </trkpt>
      <trkpt lat="44.67145" lon="4.77999">
        <ele>80.04</ele>
        <time>2019-05-27T09:56:39.000Z</time>
      </trkpt>
      <trkpt lat="44.67114" lon="4.78013">
        <ele>77.35</ele>
        <time>2019-05-27T09:56:44.000Z</time>
      </trkpt>
      <trkpt lat="44.67081" lon="4.78019">
        <ele>79.72</ele>
        <time>2019-05-27T09:56:49.000Z</time>
      </trkpt>
      <trkpt lat="44.67048" lon="4.7803">
        <ele>81.02</ele>
        <time>2019-05-27T09:56:54.000Z</time>
      </trkpt>
      <trkpt lat="44.67016" lon="4.7804">
        <ele>81.03</ele>
        <time>2019-05-27T09:56:59.000Z</time>
      </trkpt>
      <trkpt lat="44.66982" lon="4.7805">
        <ele>82.96</ele>
        <time>2019-05-27T09:57:04.000Z</time>
      </trkpt>
      <trkpt lat="44.66949" lon="4.78062">
        <ele>83.03</ele>
        <time>2019-05-27T09:57:09.000Z</time>
      </trkpt>
      <trkpt lat="44.66915" lon="4.78072">
        <ele>84.22</ele>
        <time>2019-05-27T09:57:14.000Z</time>
      </trkpt>
      <trkpt lat="44.66883" lon="4.78083">
        <ele>84.02</ele>
        <time>2019-05-27T09:57:19.000Z</time>
      </trkpt>
      <trkpt lat="44.66852" lon="4.78091">
        <ele>84.04</ele>
        <time>2019-05-27T09:57:24.000Z</time>
      </trkpt>
      <trkpt lat="44.66819" lon="4.78103">
        <ele>84.33</ele>
        <time>2019-05-27T09:57:29.000Z</time>
      </trkpt>
      <trkpt lat="44.66788" lon="4.78111">
        <ele>82.35</ele>
        <time>2019-05-27T09:57:34.000Z</time>
      </trkpt>
      <trkpt lat="44.66757" lon="4.7812">
        <ele>82.78</ele>
        <time>2019-05-27T09:57:39.000Z</time>
      </trkpt>
      <trkpt lat="44.66724" lon="4.7813">
        <ele>82.09</ele>
        <time>2019-05-27T09:57:44.000Z</time>
      </trkpt>
      <trkpt lat="44.66691" lon="4.7814">
        <ele>82.6</ele>
        <time>2019-05-27T09:57:49.000Z</time>
      </trkpt>
      <trkpt lat="44.66658" lon="4.78148">
        <ele>83.08</ele>
        <time>2019-05-27T09:57:54.000Z</time>
      </trkpt>
      <trkpt lat="44.66624" lon="4.78147">
        <ele>83.03</ele>
        <time>2019-05-27T09:57:59.000Z</time>
      </trkpt>
      <trkpt lat="44.66591" lon="4.78145">
        <ele>83.78</ele>
        <time>2019-05-27T09:58:04.000Z</time>
      </trkpt>
      <trkpt lat="44.66558" lon="4.78143">
        <ele>85.22</ele>
        <time>2019-05-27T09:58:09.000Z</time>
      </trkpt>
      <trkpt lat="44.66523" lon="4.78137">
        <ele>86.02</ele>
        <time>2019-05-27T09:58:14.000Z</time>
      </trkpt>
      <trkpt lat="44.66491" lon="4.78124">
        <ele>85.28</ele>
        <time>2019-05-27T09:58:19.000Z</time>
      </trkpt>
      <trkpt lat="44.66457" lon="4.7811">
        <ele>85.03</ele>
        <time>2019-05-27T09:58:24.000Z</time>
      </trkpt>
      <trkpt lat="44.66422" lon="4.78095">
        <ele>85.02</ele>
        <time>2019-05-27T09:58:29.000Z</time>
      </trkpt>
      <trkpt lat="44.66386" lon="4.78081">
        <ele>84.04</ele>
        <time>2019-05-27T09:58:34.000Z</time>
      </trkpt>
      <trkpt lat="44.66347" lon="4.78066">
        <ele>83.04</ele>
        <time>2019-05-27T09:58:39.000Z</time>
      </trkpt>
      <trkpt lat="44.66309" lon="4.7805">
        <ele>83.85</ele>
        <time>2019-05-27T09:58:44.000Z</time>
      </trkpt>
      <trkpt lat="44.66271" lon="4.78034">
        <ele>83.05</ele>
        <time>2019-05-27T09:58:49.000Z</time>
      </trkpt>
      <trkpt lat="44.66233" lon="4.78019">
        <ele>82.97</ele>
        <time>2019-05-27T09:58:54.000Z</time>
      </trkpt>
      <trkpt lat="44.66194" lon="4.78004">
        <ele>82.85</ele>
        <time>2019-05-27T09:58:59.000Z</time>
      </trkpt>
      <trkpt lat="44.66157" lon="4.77989">
        <ele>83.83</ele>
        <time>2019-05-27T09:59:04.000Z</time>
      </trkpt>
      <trkpt lat="44.66119" lon="4.77973">
        <ele>83.97</ele>
        <time>2019-05-27T09:59:09.000Z</time>
      </trkpt>
      <trkpt lat="44.66082" lon="4.77957">
        <ele>83.03</ele>
        <time>2019-05-27T09:59:14.000Z</time>
      </trkpt>
      <trkpt lat="44.66046" lon="4.77943">
        <ele>84.97</ele>
        <time>2019-05-27T09:59:19.000Z</time>
      </trkpt>
      <trkpt lat="44.6601" lon="4.77926">
        <ele>85.1</ele>
        <time>2019-05-27T09:59:24.000Z</time>
      </trkpt>
      <trkpt lat="44.65974" lon="4.77911">
        <ele>82.98</ele>
        <time>2019-05-27T09:59:29.000Z</time>
      </trkpt>
      <trkpt lat="44.65939" lon="4.77899">
        <ele>80.98</ele>
        <time>2019-05-27T09:59:34.000Z</time>
      </trkpt>
      <trkpt lat="44.65902" lon="4.77881">
        <ele>81.05</ele>
        <time>2019-05-27T09:59:39.000Z</time>
      </trkpt>
      <trkpt lat="44.65868" lon="4.77862">
        <ele>82.02</ele>
        <time>2019-05-27T09:59:44.000Z</time>
      </trkpt>
      <trkpt lat="44.65834" lon="4.77838">
        <ele>82.23</ele>
        <time>2019-05-27T09:59:49.000Z</time>
      </trkpt>
      <trkpt lat="44.65802" lon="4.77811">
        <ele>81.29</ele>
        <time>2019-05-27T09:59:54.000Z</time>
      </trkpt>
      <trkpt lat="44.65772" lon="4.77784">
        <ele>82.02</ele>
        <time>2019-05-27T09:59:59.000Z</time>
      </trkpt>
      <trkpt lat="44.65741" lon="4.77759">
        <ele>84.77</ele>
        <time>2019-05-27T10:00:04.000Z</time>
      </trkpt>
      <trkpt lat="44.65709" lon="4.77739">
        <ele>84.04</ele>
        <time>2019-05-27T10:00:09.000Z</time>
      </trkpt>
      <trkpt lat="44.65674" lon="4.77724">
        <ele>84.04</ele>
        <time>2019-05-27T10:00:14.000Z</time>
      </trkpt>
      <trkpt lat="44.65639" lon="4.7771">
        <ele>84.79</ele>
        <time>2019-05-27T10:00:19.000Z</time>
      </trkpt>
      <trkpt lat="44.65604" lon="4.77697">
        <ele>84.29</ele>
        <time>2019-05-27T10:00:24.000Z</time>
      </trkpt>
      <trkpt lat="44.65571" lon="4.77684">
        <ele>85.04</ele>
        <time>2019-05-27T10:00:29.000Z</time>
      </trkpt>
      <trkpt lat="44.65541" lon="4.77673">
        <ele>85.04</ele>
        <time>2019-05-27T10:00:34.000Z</time>
      </trkpt>
      <trkpt lat="44.65526" lon="4.77671">
        <ele>84.34</ele>
        <time>2019-05-27T10:00:39.000Z</time>
      </trkpt>
      <trkpt lat="44.65533" lon="4.77688">
        <ele>81.36</ele>
        <time>2019-05-27T10:00:44.000Z</time>
      </trkpt>
      <trkpt lat="44.6555" lon="4.77705">
        <ele>80.04</ele>
        <time>2019-05-27T10:00:49.000Z</time>
      </trkpt>
      <trkpt lat="44.65561" lon="4.77721">
        <ele>78.31</ele>
        <time>2019-05-27T10:00:54.000Z</time>
      </trkpt>
      <trkpt lat="44.65554" lon="4.77734">
        <ele>79.22</ele>
        <time>2019-05-27T10:00:59.000Z</time>
      </trkpt>
      <trkpt lat="44.65541" lon="4.77733">
        <ele>80.03</ele>
        <time>2019-05-27T10:01:04.000Z</time>
      </trkpt>
      <trkpt lat="44.65532" lon="4.77735">
        <ele>82.04</ele>
        <time>2019-05-27T10:01:14.000Z</time>
      </trkpt>
      <trkpt lat="44.65524" lon="4.77722">
        <ele>81.05</ele>
        <time>2019-05-27T10:01:19.000Z</time>
      </trkpt>
      <trkpt lat="44.65511" lon="4.7771">
        <ele>80.98</ele>
        <time>2019-05-27T10:01:24.000Z</time>
      </trkpt>
      <trkpt lat="44.65496" lon="4.77713">
        <ele>82.79</ele>
        <time>2019-05-27T10:01:29.000Z</time>
      </trkpt>
      <trkpt lat="44.65485" lon="4.77726">
        <ele>80.06</ele>
        <time>2019-05-27T10:01:34.000Z</time>
      </trkpt>
      <trkpt lat="44.65474" lon="4.77739">
        <ele>78.29</ele>
        <time>2019-05-27T10:01:39.000Z</time>
      </trkpt>
      <trkpt lat="44.65463" lon="4.77727">
        <ele>77.29</ele>
        <time>2019-05-27T10:01:44.000Z</time>
      </trkpt>
      <trkpt lat="44.65452" lon="4.77719">
        <ele>77.98</ele>
        <time>2019-05-27T10:01:49.000Z</time>
      </trkpt>
      <trkpt lat="44.65436" lon="4.77713">
        <ele>77.29</ele>
        <time>2019-05-27T10:01:54.000Z</time>
      </trkpt>
      <trkpt lat="44.65417" lon="4.77703">
        <ele>79.02</ele>
        <time>2019-05-27T10:01:59.000Z</time>
      </trkpt>
      <trkpt lat="44.65399" lon="4.77695">
        <ele>80.04</ele>
        <time>2019-05-27T10:02:04.000Z</time>
      </trkpt>
      <trkpt lat="44.65387" lon="4.77688">
        <ele>79.29</ele>
        <time>2019-05-27T10:02:09.000Z</time>
      </trkpt>
      <trkpt lat="44.6539" lon="4.77676">
        <ele>78.12</ele>
        <time>2019-05-27T10:02:22.000Z</time>
      </trkpt>
      <trkpt lat="44.65388" lon="4.77689">
        <ele>80.98</ele>
        <time>2019-05-27T10:05:38.000Z</time>
      </trkpt>
      <trkpt lat="44.65401" lon="4.77699">
        <ele>81.04</ele>
        <time>2019-05-27T10:05:43.000Z</time>
      </trkpt>
      <trkpt lat="44.65414" lon="4.77685">
        <ele>81.79</ele>
        <time>2019-05-27T10:05:48.000Z</time>
      </trkpt>
      <trkpt lat="44.65417" lon="4.7766">
        <ele>82.1</ele>
        <time>2019-05-27T10:05:53.000Z</time>
      </trkpt>
      <trkpt lat="44.65415" lon="4.77635">
        <ele>82.04</ele>
        <time>2019-05-27T10:05:58.000Z</time>
      </trkpt>
      <trkpt lat="44.65423" lon="4.7762">
        <ele>83.04</ele>
        <time>2019-05-27T10:06:03.000Z</time>
      </trkpt>
      <trkpt lat="44.65445" lon="4.77634">
        <ele>83.98</ele>
        <time>2019-05-27T10:06:08.000Z</time>
      </trkpt>
      <trkpt lat="44.65465" lon="4.77645">
        <ele>84.99</ele>
        <time>2019-05-27T10:06:13.000Z</time>
      </trkpt>
      <trkpt lat="44.65484" lon="4.77654">
        <ele>85.04</ele>
        <time>2019-05-27T10:06:18.000Z</time>
      </trkpt>
      <trkpt lat="44.655" lon="4.77661">
        <ele>86.04</ele>
        <time>2019-05-27T10:06:23.000Z</time>
      </trkpt>
      <trkpt lat="44.65514" lon="4.77666">
        <ele>86.04</ele>
        <time>2019-05-27T10:06:28.000Z</time>
      </trkpt>
      <trkpt lat="44.65528" lon="4.77656">
        <ele>85.29</ele>
        <time>2019-05-27T10:06:33.000Z</time>
      </trkpt>
      <trkpt lat="44.65531" lon="4.77621">
        <ele>84.3</ele>
        <time>2019-05-27T10:06:38.000Z</time>
      </trkpt>
      <trkpt lat="44.65536" lon="4.7759">
        <ele>83.99</ele>
        <time>2019-05-27T10:06:43.000Z</time>
      </trkpt>
      <trkpt lat="44.6554" lon="4.77564">
        <ele>84.98</ele>
        <time>2019-05-27T10:06:48.000Z</time>
      </trkpt>
      <trkpt lat="44.65533" lon="4.77575">
        <ele>82.12</ele>
        <time>2019-05-27T10:06:55.000Z</time>
      </trkpt>
      <trkpt lat="44.6553" lon="4.77593">
        <ele>81.04</ele>
        <time>2019-05-27T10:07:00.000Z</time>
      </trkpt>
      <trkpt lat="44.65526" lon="4.7761">
        <ele>80.04</ele>
        <time>2019-05-27T10:07:05.000Z</time>
      </trkpt>
      <trkpt lat="44.65505" lon="4.77602">
        <ele>76.36</ele>
        <time>2019-05-27T10:07:10.000Z</time>
      </trkpt>
      <trkpt lat="44.65471" lon="4.77592">
        <ele>75.23</ele>
        <time>2019-05-27T10:07:15.000Z</time>
      </trkpt>
      <trkpt lat="44.65441" lon="4.77576">
        <ele>76.78</ele>
        <time>2019-05-27T10:07:20.000Z</time>
      </trkpt>
      <trkpt lat="44.65411" lon="4.7756">
        <ele>77.78</ele>
        <time>2019-05-27T10:07:25.000Z</time>
      </trkpt>
      <trkpt lat="44.65388" lon="4.77542">
        <ele>79.74</ele>
        <time>2019-05-27T10:07:30.000Z</time>
      </trkpt>
      <trkpt lat="44.65366" lon="4.77523">
        <ele>81.04</ele>
        <time>2019-05-27T10:07:35.000Z</time>
      </trkpt>
      <trkpt lat="44.65344" lon="4.77506">
        <ele>81.98</ele>
        <time>2019-05-27T10:07:40.000Z</time>
      </trkpt>
      <trkpt lat="44.65322" lon="4.77487">
        <ele>83.04</ele>
        <time>2019-05-27T10:07:45.000Z</time>
      </trkpt>
      <trkpt lat="44.65304" lon="4.77467">
        <ele>84.04</ele>
        <time>2019-05-27T10:07:50.000Z</time>
      </trkpt>
      <trkpt lat="44.6528" lon="4.7745">
        <ele>81.11</ele>
        <time>2019-05-27T10:07:55.000Z</time>
      </trkpt>
      <trkpt lat="44.65256" lon="4.7743">
        <ele>81.22</ele>
        <time>2019-05-27T10:08:00.000Z</time>
      </trkpt>
      <trkpt lat="44.65231" lon="4.77412">
        <ele>80.47</ele>
        <time>2019-05-27T10:08:05.000Z</time>
      </trkpt>
      <trkpt lat="44.65208" lon="4.77393">
        <ele>80.1</ele>
        <time>2019-05-27T10:08:10.000Z</time>
      </trkpt>
      <trkpt lat="44.65184" lon="4.77371">
        <ele>81.86</ele>
        <time>2019-05-27T10:08:15.000Z</time>
      </trkpt>
      <trkpt lat="44.6516" lon="4.7735">
        <ele>82.04</ele>
        <time>2019-05-27T10:08:20.000Z</time>
      </trkpt>
      <trkpt lat="44.65131" lon="4.77327">
        <ele>80.06</ele>
        <time>2019-05-27T10:08:25.000Z</time>
      </trkpt>
      <trkpt lat="44.65103" lon="4.77303">
        <ele>80.98</ele>
        <time>2019-05-27T10:08:30.000Z</time>
      </trkpt>
      <trkpt lat="44.65074" lon="4.77283">
        <ele>81.04</ele>
        <time>2019-05-27T10:08:35.000Z</time>
      </trkpt>
      <trkpt lat="44.65048" lon="4.77261">
        <ele>79.29</ele>
        <time>2019-05-27T10:08:40.000Z</time>
      </trkpt>
      <trkpt lat="44.65019" lon="4.77238">
        <ele>79.11</ele>
        <time>2019-05-27T10:08:45.000Z</time>
      </trkpt>
      <trkpt lat="44.64992" lon="4.77214">
        <ele>79.28</ele>
        <time>2019-05-27T10:08:50.000Z</time>
      </trkpt>
      <trkpt lat="44.64966" lon="4.7719">
        <ele>79.79</ele>
        <time>2019-05-27T10:08:55.000Z</time>
      </trkpt>
      <trkpt lat="44.64939" lon="4.77168">
        <ele>83.02</ele>
        <time>2019-05-27T10:09:00.000Z</time>
      </trkpt>
      <trkpt lat="44.64913" lon="4.77147">
        <ele>80.42</ele>
        <time>2019-05-27T10:09:05.000Z</time>
      </trkpt>
      <trkpt lat="44.64884" lon="4.77126">
        <ele>80.8</ele>
        <time>2019-05-27T10:09:10.000Z</time>
      </trkpt>
      <trkpt lat="44.64857" lon="4.77102">
        <ele>79.28</ele>
        <time>2019-05-27T10:09:15.000Z</time>
      </trkpt>
      <trkpt lat="44.6483" lon="4.77081">
        <ele>78.3</ele>
        <time>2019-05-27T10:09:20.000Z</time>
      </trkpt>
      <trkpt lat="44.64799" lon="4.77054">
        <ele>79.95</ele>
        <time>2019-05-27T10:09:25.000Z</time>
      </trkpt>
      <trkpt lat="44.64772" lon="4.77032">
        <ele>81.24</ele>
        <time>2019-05-27T10:09:30.000Z</time>
      </trkpt>
      <trkpt lat="44.64742" lon="4.77012">
        <ele>79.17</ele>
        <time>2019-05-27T10:09:35.000Z</time>
      </trkpt>
      <trkpt lat="44.64714" lon="4.76986">
        <ele>79.05</ele>
        <time>2019-05-27T10:09:40.000Z</time>
      </trkpt>
      <trkpt lat="44.64685" lon="4.7696">
        <ele>78.06</ele>
        <time>2019-05-27T10:09:45.000Z</time>
      </trkpt>
      <trkpt lat="44.64655" lon="4.76935">
        <ele>77.3</ele>
        <time>2019-05-27T10:09:50.000Z</time>
      </trkpt>
      <trkpt lat="44.64626" lon="4.76908">
        <ele>78.05</ele>
        <time>2019-05-27T10:09:55.000Z</time>
      </trkpt>
      <trkpt lat="44.64595" lon="4.76884">
        <ele>77.99</ele>
        <time>2019-05-27T10:10:00.000Z</time>
      </trkpt>
      <trkpt lat="44.64564" lon="4.76862">
        <ele>77.99</ele>
        <time>2019-05-27T10:10:05.000Z</time>
      </trkpt>
      <trkpt lat="44.64537" lon="4.76836">
        <ele>78.05</ele>
        <time>2019-05-27T10:10:10.000Z</time>
      </trkpt>
      <trkpt lat="44.64507" lon="4.7681">
        <ele>77</ele>
        <time>2019-05-27T10:10:15.000Z</time>
      </trkpt>
      <trkpt lat="44.64478" lon="4.76784">
        <ele>77.99</ele>
        <time>2019-05-27T10:10:20.000Z</time>
      </trkpt>
      <trkpt lat="44.64449" lon="4.76761">
        <ele>77.53</ele>
        <time>2019-05-27T10:10:25.000Z</time>
      </trkpt>
      <trkpt lat="44.64421" lon="4.76735">
        <ele>78.8</ele>
        <time>2019-05-27T10:10:30.000Z</time>
      </trkpt>
      <trkpt lat="44.64391" lon="4.76711">
        <ele>80.05</ele>
        <time>2019-05-27T10:10:35.000Z</time>
      </trkpt>
      <trkpt lat="44.64361" lon="4.76686">
        <ele>78.3</ele>
        <time>2019-05-27T10:10:40.000Z</time>
      </trkpt>
      <trkpt lat="44.64333" lon="4.76664">
        <ele>80.04</ele>
        <time>2019-05-27T10:10:45.000Z</time>
      </trkpt>
      <trkpt lat="44.64305" lon="4.7664">
        <ele>81.05</ele>
        <time>2019-05-27T10:10:50.000Z</time>
      </trkpt>
      <trkpt lat="44.64274" lon="4.76615">
        <ele>80.05</ele>
        <time>2019-05-27T10:10:55.000Z</time>
      </trkpt>
      <trkpt lat="44.64243" lon="4.76592">
        <ele>80.05</ele>
        <time>2019-05-27T10:11:00.000Z</time>
      </trkpt>
      <trkpt lat="44.64215" lon="4.76564">
        <ele>79.11</ele>
        <time>2019-05-27T10:11:05.000Z</time>
      </trkpt>
      <trkpt lat="44.64183" lon="4.7654">
        <ele>79.05</ele>
        <time>2019-05-27T10:11:10.000Z</time>
      </trkpt>
      <trkpt lat="44.64152" lon="4.76513">
        <ele>78.05</ele>
        <time>2019-05-27T10:11:15.000Z</time>
      </trkpt>
      <trkpt lat="44.64122" lon="4.76489">
        <ele>78.86</ele>
        <time>2019-05-27T10:11:20.000Z</time>
      </trkpt>
      <trkpt lat="44.64097" lon="4.76465">
        <ele>79.93</ele>
        <time>2019-05-27T10:11:25.000Z</time>
      </trkpt>
      <trkpt lat="44.64065" lon="4.76443">
        <ele>79.3</ele>
        <time>2019-05-27T10:11:30.000Z</time>
      </trkpt>
      <trkpt lat="44.64039" lon="4.76418">
        <ele>77.36</ele>
        <time>2019-05-27T10:11:35.000Z</time>
      </trkpt>
      <trkpt lat="44.6401" lon="4.76395">
        <ele>78</ele>
        <time>2019-05-27T10:11:40.000Z</time>
      </trkpt>
      <trkpt lat="44.63983" lon="4.76373">
        <ele>79.24</ele>
        <time>2019-05-27T10:11:45.000Z</time>
      </trkpt>
      <trkpt lat="44.63954" lon="4.76347">
        <ele>81.8</ele>
        <time>2019-05-27T10:11:50.000Z</time>
      </trkpt>
      <trkpt lat="44.63926" lon="4.76324">
        <ele>82.36</ele>
        <time>2019-05-27T10:11:55.000Z</time>
      </trkpt>
      <trkpt lat="44.63904" lon="4.76288">
        <ele>79.07</ele>
        <time>2019-05-27T10:12:00.000Z</time>
      </trkpt>
      <trkpt lat="44.63886" lon="4.76262">
        <ele>79.11</ele>
        <time>2019-05-27T10:12:05.000Z</time>
      </trkpt>
      <trkpt lat="44.6389" lon="4.76226">
        <ele>77.37</ele>
        <time>2019-05-27T10:12:10.000Z</time>
      </trkpt>
      <trkpt lat="44.63902" lon="4.76194">
        <ele>74.31</ele>
        <time>2019-05-27T10:12:15.000Z</time>
      </trkpt>
      <trkpt lat="44.63902" lon="4.76154">
        <ele>73.05</ele>
        <time>2019-05-27T10:12:20.000Z</time>
      </trkpt>
      <trkpt lat="44.63904" lon="4.76114">
        <ele>73.8</ele>
        <time>2019-05-27T10:12:25.000Z</time>
      </trkpt>
      <trkpt lat="44.63908" lon="4.76078">
        <ele>77.72</ele>
        <time>2019-05-27T10:12:30.000Z</time>
      </trkpt>
      <trkpt lat="44.6391" lon="4.76043">
        <ele>78.05</ele>
        <time>2019-05-27T10:12:35.000Z</time>
      </trkpt>
      <trkpt lat="44.63912" lon="4.76017">
        <ele>76.87</ele>
        <time>2019-05-27T10:12:40.000Z</time>
      </trkpt>
      <trkpt lat="44.63913" lon="4.76002">
        <ele>78.07</ele>
        <time>2019-05-27T10:15:30.000Z</time>
      </trkpt>
      <trkpt lat="44.63915" lon="4.7598">
        <ele>78.29</ele>
        <time>2019-05-27T10:15:35.000Z</time>
      </trkpt>
      <trkpt lat="44.63917" lon="4.75955">
        <ele>78.99</ele>
        <time>2019-05-27T10:15:40.000Z</time>
      </trkpt>
      <trkpt lat="44.63922" lon="4.75925">
        <ele>78.07</ele>
        <time>2019-05-27T10:15:45.000Z</time>
      </trkpt>
      <trkpt lat="44.63927" lon="4.75894">
        <ele>78.05</ele>
        <time>2019-05-27T10:15:50.000Z</time>
      </trkpt>
      <trkpt lat="44.63931" lon="4.75861">
        <ele>76.07</ele>
        <time>2019-05-27T10:15:55.000Z</time>
      </trkpt>
      <trkpt lat="44.63938" lon="4.75828">
        <ele>76.05</ele>
        <time>2019-05-27T10:16:00.000Z</time>
      </trkpt>
      <trkpt lat="44.63942" lon="4.75799">
        <ele>76.29</ele>
        <time>2019-05-27T10:16:05.000Z</time>
      </trkpt>
      <trkpt lat="44.63947" lon="4.75772">
        <ele>77.04</ele>
        <time>2019-05-27T10:16:10.000Z</time>
      </trkpt>
      <trkpt lat="44.63949" lon="4.75757">
        <ele>76.06</ele>
        <time>2019-05-27T10:17:06.000Z</time>
      </trkpt>
      <trkpt lat="44.63954" lon="4.75729">
        <ele>75.3</ele>
        <time>2019-05-27T10:17:11.000Z</time>
      </trkpt>
      <trkpt lat="44.6396" lon="4.75697">
        <ele>75.06</ele>
        <time>2019-05-27T10:17:16.000Z</time>
      </trkpt>
      <trkpt lat="44.63962" lon="4.75664">
        <ele>75.99</ele>
        <time>2019-05-27T10:17:21.000Z</time>
      </trkpt>
      <trkpt lat="44.63961" lon="4.7563">
        <ele>75.06</ele>
        <time>2019-05-27T10:17:26.000Z</time>
      </trkpt>
      <trkpt lat="44.63958" lon="4.75597">
        <ele>74.11</ele>
        <time>2019-05-27T10:17:31.000Z</time>
      </trkpt>
      <trkpt lat="44.63959" lon="4.75565">
        <ele>76.05</ele>
        <time>2019-05-27T10:17:36.000Z</time>
      </trkpt>
      <trkpt lat="44.63947" lon="4.75537">
        <ele>77.74</ele>
        <time>2019-05-27T10:17:41.000Z</time>
      </trkpt>
      <trkpt lat="44.63936" lon="4.75515">
        <ele>77.81</ele>
        <time>2019-05-27T10:17:46.000Z</time>
      </trkpt>
      <trkpt lat="44.63924" lon="4.75491">
        <ele>77.06</ele>
        <time>2019-05-27T10:17:51.000Z</time>
      </trkpt>
      <trkpt lat="44.63909" lon="4.75472">
        <ele>77.29</ele>
        <time>2019-05-27T10:17:56.000Z</time>
      </trkpt>
      <trkpt lat="44.6389" lon="4.75453">
        <ele>77.06</ele>
        <time>2019-05-27T10:18:01.000Z</time>
      </trkpt>
      <trkpt lat="44.63886" lon="4.75436">
        <ele>76.12</ele>
        <time>2019-05-27T10:18:06.000Z</time>
      </trkpt>
      <trkpt lat="44.6388" lon="4.75419">
        <ele>77.74</ele>
        <time>2019-05-27T10:18:11.000Z</time>
      </trkpt>
      <trkpt lat="44.63866" lon="4.75408">
        <ele>79.74</ele>
        <time>2019-05-27T10:18:16.000Z</time>
      </trkpt>
      <trkpt lat="44.6386" lon="4.75398">
        <ele>76.99</ele>
        <time>2019-05-27T10:18:50.000Z</time>
      </trkpt>
      <trkpt lat="44.63841" lon="4.75378">
        <ele>77.1</ele>
        <time>2019-05-27T10:18:55.000Z</time>
      </trkpt>
      <trkpt lat="44.63819" lon="4.75356">
        <ele>76.06</ele>
        <time>2019-05-27T10:19:00.000Z</time>
      </trkpt>
      <trkpt lat="44.63797" lon="4.75333">
        <ele>77.04</ele>
        <time>2019-05-27T10:19:05.000Z</time>
      </trkpt>
      <trkpt lat="44.63775" lon="4.75308">
        <ele>77.07</ele>
        <time>2019-05-27T10:19:10.000Z</time>
      </trkpt>
      <trkpt lat="44.63751" lon="4.7528">
        <ele>78.04</ele>
        <time>2019-05-27T10:19:15.000Z</time>
      </trkpt>
      <trkpt lat="44.63724" lon="4.75255">
        <ele>78.06</ele>
        <time>2019-05-27T10:19:20.000Z</time>
      </trkpt>
      <trkpt lat="44.63698" lon="4.75228">
        <ele>78.06</ele>
        <time>2019-05-27T10:19:25.000Z</time>
      </trkpt>
      <trkpt lat="44.63669" lon="4.75201">
        <ele>78.1</ele>
        <time>2019-05-27T10:19:30.000Z</time>
      </trkpt>
      <trkpt lat="44.63641" lon="4.75171">
        <ele>77.86</ele>
        <time>2019-05-27T10:19:35.000Z</time>
      </trkpt>
      <trkpt lat="44.63613" lon="4.75144">
        <ele>78.25</ele>
        <time>2019-05-27T10:19:40.000Z</time>
      </trkpt>
      <trkpt lat="44.63589" lon="4.7512">
        <ele>79.06</ele>
        <time>2019-05-27T10:19:45.000Z</time>
      </trkpt>
      <trkpt lat="44.63576" lon="4.751">
        <ele>78.08</ele>
        <time>2019-05-27T10:19:50.000Z</time>
      </trkpt>
      <trkpt lat="44.63558" lon="4.75086">
        <ele>78.12</ele>
        <time>2019-05-27T10:19:55.000Z</time>
      </trkpt>
      <trkpt lat="44.63539" lon="4.75064">
        <ele>78.87</ele>
        <time>2019-05-27T10:20:00.000Z</time>
      </trkpt>
      <trkpt lat="44.63517" lon="4.75039">
        <ele>79.01</ele>
        <time>2019-05-27T10:20:05.000Z</time>
      </trkpt>
      <trkpt lat="44.63497" lon="4.75009">
        <ele>78.11</ele>
        <time>2019-05-27T10:20:10.000Z</time>
      </trkpt>
      <trkpt lat="44.63508" lon="4.74971">
        <ele>78.81</ele>
        <time>2019-05-27T10:20:15.000Z</time>
      </trkpt>
      <trkpt lat="44.63522" lon="4.74931">
        <ele>78.06</ele>
        <time>2019-05-27T10:20:20.000Z</time>
      </trkpt>
      <trkpt lat="44.63534" lon="4.74893">
        <ele>78.06</ele>
        <time>2019-05-27T10:20:25.000Z</time>
      </trkpt>
      <trkpt lat="44.63548" lon="4.74856">
        <ele>78.06</ele>
        <time>2019-05-27T10:20:30.000Z</time>
      </trkpt>
      <trkpt lat="44.6356" lon="4.7482">
        <ele>80.04</ele>
        <time>2019-05-27T10:20:35.000Z</time>
      </trkpt>
      <trkpt lat="44.63547" lon="4.74796">
        <ele>80.06</ele>
        <time>2019-05-27T10:20:40.000Z</time>
      </trkpt>
      <trkpt lat="44.63523" lon="4.74775">
        <ele>80.06</ele>
        <time>2019-05-27T10:20:45.000Z</time>
      </trkpt>
      <trkpt lat="44.63498" lon="4.74752">
        <ele>79.12</ele>
        <time>2019-05-27T10:20:50.000Z</time>
      </trkpt>
      <trkpt lat="44.63467" lon="4.74735">
        <ele>78.82</ele>
        <time>2019-05-27T10:20:55.000Z</time>
      </trkpt>
      <trkpt lat="44.63439" lon="4.74716">
        <ele>78.81</ele>
        <time>2019-05-27T10:21:00.000Z</time>
      </trkpt>
      <trkpt lat="44.63412" lon="4.74702">
        <ele>78.06</ele>
        <time>2019-05-27T10:21:05.000Z</time>
      </trkpt>
      <trkpt lat="44.63397" lon="4.7469">
        <ele>78.04</ele>
        <time>2019-05-27T10:21:10.000Z</time>
      </trkpt>
      <trkpt lat="44.63384" lon="4.74682">
        <ele>79.05</ele>
        <time>2019-05-27T10:21:15.000Z</time>
      </trkpt>
      <trkpt lat="44.63373" lon="4.74672">
        <ele>80.04</ele>
        <time>2019-05-27T10:21:20.000Z</time>
      </trkpt>
      <trkpt lat="44.63366" lon="4.74663">
        <ele>78.56</ele>
        <time>2019-05-27T10:21:26.000Z</time>
      </trkpt>
      <trkpt lat="44.63354" lon="4.74657">
        <ele>79.05</ele>
        <time>2019-05-27T10:21:31.000Z</time>
      </trkpt>
      <trkpt lat="44.63336" lon="4.74649">
        <ele>79.79</ele>
        <time>2019-05-27T10:21:36.000Z</time>
      </trkpt>
      <trkpt lat="44.63326" lon="4.74617">
        <ele>79.06</ele>
        <time>2019-05-27T10:21:41.000Z</time>
      </trkpt>
      <trkpt lat="44.63313" lon="4.74583">
        <ele>77.31</ele>
        <time>2019-05-27T10:21:46.000Z</time>
      </trkpt>
      <trkpt lat="44.63289" lon="4.74557">
        <ele>76.13</ele>
        <time>2019-05-27T10:21:51.000Z</time>
      </trkpt>
      <trkpt lat="44.63258" lon="4.74537">
        <ele>75.11</ele>
        <time>2019-05-27T10:21:56.000Z</time>
      </trkpt>
      <trkpt lat="44.63228" lon="4.74526">
        <ele>74.08</ele>
        <time>2019-05-27T10:22:01.000Z</time>
      </trkpt>
      <trkpt lat="44.63198" lon="4.74513">
        <ele>75.01</ele>
        <time>2019-05-27T10:22:06.000Z</time>
      </trkpt>
      <trkpt lat="44.63167" lon="4.745">
        <ele>76.04</ele>
        <time>2019-05-27T10:22:11.000Z</time>
      </trkpt>
      <trkpt lat="44.63137" lon="4.74488">
        <ele>76.3</ele>
        <time>2019-05-27T10:22:16.000Z</time>
      </trkpt>
      <trkpt lat="44.63102" lon="4.74476">
        <ele>76.29</ele>
        <time>2019-05-27T10:22:21.000Z</time>
      </trkpt>
      <trkpt lat="44.63068" lon="4.74462">
        <ele>75.32</ele>
        <time>2019-05-27T10:22:26.000Z</time>
      </trkpt>
      <trkpt lat="44.63034" lon="4.74447">
        <ele>75.05</ele>
        <time>2019-05-27T10:22:31.000Z</time>
      </trkpt>
      <trkpt lat="44.62997" lon="4.74433">
        <ele>73.13</ele>
        <time>2019-05-27T10:22:36.000Z</time>
      </trkpt>
      <trkpt lat="44.62963" lon="4.74419">
        <ele>74.29</ele>
        <time>2019-05-27T10:22:41.000Z</time>
      </trkpt>
      <trkpt lat="44.62927" lon="4.7442">
        <ele>74.07</ele>
        <time>2019-05-27T10:22:46.000Z</time>
      </trkpt>
      <trkpt lat="44.62896" lon="4.74426">
        <ele>75.8</ele>
        <time>2019-05-27T10:22:51.000Z</time>
      </trkpt>
      <trkpt lat="44.62867" lon="4.74437">
        <ele>73.87</ele>
        <time>2019-05-27T10:22:56.000Z</time>
      </trkpt>
      <trkpt lat="44.62836" lon="4.74446">
        <ele>74.81</ele>
        <time>2019-05-27T10:23:01.000Z</time>
      </trkpt>
      <trkpt lat="44.62806" lon="4.74455">
        <ele>75.99</ele>
        <time>2019-05-27T10:23:06.000Z</time>
      </trkpt>
      <trkpt lat="44.6278" lon="4.7446">
        <ele>77.04</ele>
        <time>2019-05-27T10:23:11.000Z</time>
      </trkpt>
      <trkpt lat="44.6277" lon="4.74484">
        <ele>78.8</ele>
        <time>2019-05-27T10:23:16.000Z</time>
      </trkpt>
      <trkpt lat="44.62764" lon="4.74514">
        <ele>79.06</ele>
        <time>2019-05-27T10:23:21.000Z</time>
      </trkpt>
      <trkpt lat="44.62755" lon="4.74545">
        <ele>78.12</ele>
        <time>2019-05-27T10:23:26.000Z</time>
      </trkpt>
      <trkpt lat="44.62749" lon="4.7458">
        <ele>76.13</ele>
        <time>2019-05-27T10:23:31.000Z</time>
      </trkpt>
      <trkpt lat="44.62742" lon="4.74616">
        <ele>76.06</ele>
        <time>2019-05-27T10:23:36.000Z</time>
      </trkpt>
      <trkpt lat="44.62736" lon="4.7465">
        <ele>76.86</ele>
        <time>2019-05-27T10:23:41.000Z</time>
      </trkpt>
      <trkpt lat="44.62729" lon="4.74684">
        <ele>75.33</ele>
        <time>2019-05-27T10:23:46.000Z</time>
      </trkpt>
      <trkpt lat="44.62723" lon="4.74722">
        <ele>76.04</ele>
        <time>2019-05-27T10:23:51.000Z</time>
      </trkpt>
      <trkpt lat="44.62713" lon="4.74758">
        <ele>76.06</ele>
        <time>2019-05-27T10:23:56.000Z</time>
      </trkpt>
      <trkpt lat="44.62706" lon="4.74795">
        <ele>76.06</ele>
        <time>2019-05-27T10:24:01.000Z</time>
      </trkpt>
      <trkpt lat="44.62698" lon="4.74831">
        <ele>77.25</ele>
        <time>2019-05-27T10:24:06.000Z</time>
      </trkpt>
      <trkpt lat="44.62693" lon="4.74864">
        <ele>78</ele>
        <time>2019-05-27T10:24:11.000Z</time>
      </trkpt>
      <trkpt lat="44.62688" lon="4.74892">
        <ele>79.06</ele>
        <time>2019-05-27T10:24:16.000Z</time>
      </trkpt>
      <trkpt lat="44.62682" lon="4.74921">
        <ele>79.06</ele>
        <time>2019-05-27T10:24:21.000Z</time>
      </trkpt>
      <trkpt lat="44.62668" lon="4.7494">
        <ele>77.33</ele>
        <time>2019-05-27T10:24:26.000Z</time>
      </trkpt>
      <trkpt lat="44.62639" lon="4.74926">
        <ele>77.06</ele>
        <time>2019-05-27T10:24:31.000Z</time>
      </trkpt>
      <trkpt lat="44.62609" lon="4.7491">
        <ele>77.12</ele>
        <time>2019-05-27T10:24:36.000Z</time>
      </trkpt>
      <trkpt lat="44.62578" lon="4.74898">
        <ele>78.06</ele>
        <time>2019-05-27T10:24:41.000Z</time>
      </trkpt>
      <trkpt lat="44.6256" lon="4.74925">
        <ele>78.07</ele>
        <time>2019-05-27T10:24:46.000Z</time>
      </trkpt>
      <trkpt lat="44.62552" lon="4.74961">
        <ele>77.07</ele>
        <time>2019-05-27T10:24:51.000Z</time>
      </trkpt>
      <trkpt lat="44.62546" lon="4.74997">
        <ele>78.94</ele>
        <time>2019-05-27T10:24:56.000Z</time>
      </trkpt>
      <trkpt lat="44.62539" lon="4.75032">
        <ele>78.08</ele>
        <time>2019-05-27T10:25:01.000Z</time>
      </trkpt>
      <trkpt lat="44.6254" lon="4.7506">
        <ele>79</ele>
        <time>2019-05-27T10:25:06.000Z</time>
      </trkpt>
      <trkpt lat="44.62541" lon="4.75075">
        <ele>81.05</ele>
        <time>2019-05-27T10:25:11.000Z</time>
      </trkpt>
      <trkpt lat="44.62535" lon="4.75087">
        <ele>82.12</ele>
        <time>2019-05-27T10:25:17.000Z</time>
      </trkpt>
      <trkpt lat="44.62519" lon="4.75089">
        <ele>82.05</ele>
        <time>2019-05-27T10:25:22.000Z</time>
      </trkpt>
      <trkpt lat="44.625" lon="4.75082">
        <ele>81.07</ele>
        <time>2019-05-27T10:25:27.000Z</time>
      </trkpt>
      <trkpt lat="44.62479" lon="4.75063">
        <ele>81.06</ele>
        <time>2019-05-27T10:25:32.000Z</time>
      </trkpt>
      <trkpt lat="44.62457" lon="4.75044">
        <ele>82.06</ele>
        <time>2019-05-27T10:25:37.000Z</time>
      </trkpt>
      <trkpt lat="44.62434" lon="4.75027">
        <ele>83.05</ele>
        <time>2019-05-27T10:25:42.000Z</time>
      </trkpt>
      <trkpt lat="44.6241" lon="4.7501">
        <ele>83.07</ele>
        <time>2019-05-27T10:25:47.000Z</time>
      </trkpt>
      <trkpt lat="44.62384" lon="4.74992">
        <ele>84</ele>
        <time>2019-05-27T10:25:52.000Z</time>
      </trkpt>
      <trkpt lat="44.62356" lon="4.74973">
        <ele>84.07</ele>
        <time>2019-05-27T10:25:57.000Z</time>
      </trkpt>
      <trkpt lat="44.62328" lon="4.74954">
        <ele>84.11</ele>
        <time>2019-05-27T10:26:02.000Z</time>
      </trkpt>
      <trkpt lat="44.62297" lon="4.74936">
        <ele>83.32</ele>
        <time>2019-05-27T10:26:07.000Z</time>
      </trkpt>
      <trkpt lat="44.62267" lon="4.74914">
        <ele>82.08</ele>
        <time>2019-05-27T10:26:12.000Z</time>
      </trkpt>
      <trkpt lat="44.62236" lon="4.74897">
        <ele>81.08</ele>
        <time>2019-05-27T10:26:17.000Z</time>
      </trkpt>
      <trkpt lat="44.62206" lon="4.74877">
        <ele>81.07</ele>
        <time>2019-05-27T10:26:22.000Z</time>
      </trkpt>
      <trkpt lat="44.62175" lon="4.74856">
        <ele>81.07</ele>
        <time>2019-05-27T10:26:27.000Z</time>
      </trkpt>
      <trkpt lat="44.62142" lon="4.74835">
        <ele>81.07</ele>
        <time>2019-05-27T10:26:32.000Z</time>
      </trkpt>
      <trkpt lat="44.62108" lon="4.74813">
        <ele>81.07</ele>
        <time>2019-05-27T10:26:37.000Z</time>
      </trkpt>
      <trkpt lat="44.62072" lon="4.74791">
        <ele>81.01</ele>
        <time>2019-05-27T10:26:42.000Z</time>
      </trkpt>
      <trkpt lat="44.62038" lon="4.74771">
        <ele>79.32</ele>
        <time>2019-05-27T10:26:47.000Z</time>
      </trkpt>
      <trkpt lat="44.62005" lon="4.74749">
        <ele>79.82</ele>
        <time>2019-05-27T10:26:52.000Z</time>
      </trkpt>
      <trkpt lat="44.6197" lon="4.74726">
        <ele>80.81</ele>
        <time>2019-05-27T10:26:57.000Z</time>
      </trkpt>
      <trkpt lat="44.61936" lon="4.74705">
        <ele>81.06</ele>
        <time>2019-05-27T10:27:02.000Z</time>
      </trkpt>
      <trkpt lat="44.61901" lon="4.74682">
        <ele>81.06</ele>
        <time>2019-05-27T10:27:07.000Z</time>
      </trkpt>
      <trkpt lat="44.61866" lon="4.7466">
        <ele>80.02</ele>
        <time>2019-05-27T10:27:12.000Z</time>
      </trkpt>
      <trkpt lat="44.61831" lon="4.74638">
        <ele>79.07</ele>
        <time>2019-05-27T10:27:17.000Z</time>
      </trkpt>
      <trkpt lat="44.61795" lon="4.74615">
        <ele>78.12</ele>
        <time>2019-05-27T10:27:22.000Z</time>
      </trkpt>
      <trkpt lat="44.61759" lon="4.74591">
        <ele>79.05</ele>
        <time>2019-05-27T10:27:27.000Z</time>
      </trkpt>
      <trkpt lat="44.61722" lon="4.74569">
        <ele>77.13</ele>
        <time>2019-05-27T10:27:32.000Z</time>
      </trkpt>
      <trkpt lat="44.61686" lon="4.74546">
        <ele>77.81</ele>
        <time>2019-05-27T10:27:37.000Z</time>
      </trkpt>
      <trkpt lat="44.6165" lon="4.74523">
        <ele>78.3</ele>
        <time>2019-05-27T10:27:42.000Z</time>
      </trkpt>
      <trkpt lat="44.61615" lon="4.74502">
        <ele>78.31</ele>
        <time>2019-05-27T10:27:47.000Z</time>
      </trkpt>
      <trkpt lat="44.61578" lon="4.74477">
        <ele>78.25</ele>
        <time>2019-05-27T10:27:52.000Z</time>
      </trkpt>
      <trkpt lat="44.6154" lon="4.74454">
        <ele>78.13</ele>
        <time>2019-05-27T10:27:57.000Z</time>
      </trkpt>
      <trkpt lat="44.61503" lon="4.7443">
        <ele>78.81</ele>
        <time>2019-05-27T10:28:02.000Z</time>
      </trkpt>
      <trkpt lat="44.61466" lon="4.74406">
        <ele>79.06</ele>
        <time>2019-05-27T10:28:07.000Z</time>
      </trkpt>
      <trkpt lat="44.61429" lon="4.74382">
        <ele>79.06</ele>
        <time>2019-05-27T10:28:12.000Z</time>
      </trkpt>
      <trkpt lat="44.61392" lon="4.74358">
        <ele>79.06</ele>
        <time>2019-05-27T10:28:17.000Z</time>
      </trkpt>
      <trkpt lat="44.61354" lon="4.74334">
        <ele>79</ele>
        <time>2019-05-27T10:28:22.000Z</time>
      </trkpt>
      <trkpt lat="44.61317" lon="4.74312">
        <ele>80.01</ele>
        <time>2019-05-27T10:28:27.000Z</time>
      </trkpt>
      <trkpt lat="44.61282" lon="4.74289">
        <ele>80.06</ele>
        <time>2019-05-27T10:28:32.000Z</time>
      </trkpt>
      <trkpt lat="44.61246" lon="4.74266">
        <ele>79.06</ele>
        <time>2019-05-27T10:28:37.000Z</time>
      </trkpt>
      <trkpt lat="44.6121" lon="4.74244">
        <ele>78.31</ele>
        <time>2019-05-27T10:28:42.000Z</time>
      </trkpt>
      <trkpt lat="44.61174" lon="4.74221">
        <ele>79.06</ele>
        <time>2019-05-27T10:28:47.000Z</time>
      </trkpt>
      <trkpt lat="44.61139" lon="4.74199">
        <ele>77.32</ele>
        <time>2019-05-27T10:28:52.000Z</time>
      </trkpt>
      <trkpt lat="44.61105" lon="4.74176">
        <ele>78.81</ele>
        <time>2019-05-27T10:28:57.000Z</time>
      </trkpt>
      <trkpt lat="44.6107" lon="4.74153">
        <ele>79.06</ele>
        <time>2019-05-27T10:29:02.000Z</time>
      </trkpt>
      <trkpt lat="44.61034" lon="4.74131">
        <ele>79.06</ele>
        <time>2019-05-27T10:29:07.000Z</time>
      </trkpt>
      <trkpt lat="44.60998" lon="4.74109">
        <ele>79.07</ele>
        <time>2019-05-27T10:29:12.000Z</time>
      </trkpt>
      <trkpt lat="44.60962" lon="4.74087">
        <ele>79.25</ele>
        <time>2019-05-27T10:29:17.000Z</time>
      </trkpt>
      <trkpt lat="44.60927" lon="4.74064">
        <ele>80.06</ele>
        <time>2019-05-27T10:29:22.000Z</time>
      </trkpt>
      <trkpt lat="44.60891" lon="4.74044">
        <ele>80.12</ele>
        <time>2019-05-27T10:29:27.000Z</time>
      </trkpt>
      <trkpt lat="44.60856" lon="4.74021">
        <ele>80.06</ele>
        <time>2019-05-27T10:29:32.000Z</time>
      </trkpt>
      <trkpt lat="44.60822" lon="4.73998">
        <ele>80.06</ele>
        <time>2019-05-27T10:29:37.000Z</time>
      </trkpt>
      <trkpt lat="44.60786" lon="4.73974">
        <ele>78.88</ele>
        <time>2019-05-27T10:29:42.000Z</time>
      </trkpt>
      <trkpt lat="44.60751" lon="4.7395">
        <ele>77.01</ele>
        <time>2019-05-27T10:29:47.000Z</time>
      </trkpt>
      <trkpt lat="44.60716" lon="4.73929">
        <ele>77.06</ele>
        <time>2019-05-27T10:29:52.000Z</time>
      </trkpt>
      <trkpt lat="44.60683" lon="4.73911">
        <ele>77.02</ele>
        <time>2019-05-27T10:29:57.000Z</time>
      </trkpt>
      <trkpt lat="44.60657" lon="4.73879">
        <ele>76.14</ele>
        <time>2019-05-27T10:30:02.000Z</time>
      </trkpt>
      <trkpt lat="44.60652" lon="4.73845">
        <ele>75.31</ele>
        <time>2019-05-27T10:30:07.000Z</time>
      </trkpt>
      <trkpt lat="44.60659" lon="4.7382">
        <ele>74.31</ele>
        <time>2019-05-27T10:30:12.000Z</time>
      </trkpt>
      <trkpt lat="44.60646" lon="4.73803">
        <ele>75.06</ele>
        <time>2019-05-27T10:30:17.000Z</time>
      </trkpt>
      <trkpt lat="44.60622" lon="4.73789">
        <ele>75.01</ele>
        <time>2019-05-27T10:30:22.000Z</time>
      </trkpt>
      <trkpt lat="44.60592" lon="4.73771">
        <ele>73.83</ele>
        <time>2019-05-27T10:30:27.000Z</time>
      </trkpt>
      <trkpt lat="44.60561" lon="4.73752">
        <ele>75.92</ele>
        <time>2019-05-27T10:30:32.000Z</time>
      </trkpt>
      <trkpt lat="44.6053" lon="4.73734">
        <ele>77.81</ele>
        <time>2019-05-27T10:30:37.000Z</time>
      </trkpt>
      <trkpt lat="44.605" lon="4.73717">
        <ele>77.87</ele>
        <time>2019-05-27T10:30:42.000Z</time>
      </trkpt>
      <trkpt lat="44.60468" lon="4.737">
        <ele>77.08</ele>
        <time>2019-05-27T10:30:47.000Z</time>
      </trkpt>
      <trkpt lat="44.60438" lon="4.73678">
        <ele>76.06</ele>
        <time>2019-05-27T10:30:52.000Z</time>
      </trkpt>
      <trkpt lat="44.60409" lon="4.7366">
        <ele>76.31</ele>
        <time>2019-05-27T10:30:57.000Z</time>
      </trkpt>
      <trkpt lat="44.60381" lon="4.73638">
        <ele>77.82</ele>
        <time>2019-05-27T10:31:02.000Z</time>
      </trkpt>
      <trkpt lat="44.60348" lon="4.73613">
        <ele>77.26</ele>
        <time>2019-05-27T10:31:07.000Z</time>
      </trkpt>
      <trkpt lat="44.60318" lon="4.73592">
        <ele>75.08</ele>
        <time>2019-05-27T10:31:12.000Z</time>
      </trkpt>
      <trkpt lat="44.60288" lon="4.73575">
        <ele>76.31</ele>
        <time>2019-05-27T10:31:17.000Z</time>
      </trkpt>
      <trkpt lat="44.60257" lon="4.73553">
        <ele>77.06</ele>
        <time>2019-05-27T10:31:22.000Z</time>
      </trkpt>
      <trkpt lat="44.60228" lon="4.73531">
        <ele>73.15</ele>
        <time>2019-05-27T10:31:27.000Z</time>
      </trkpt>
      <trkpt lat="44.60199" lon="4.73507">
        <ele>75.04</ele>
        <time>2019-05-27T10:31:32.000Z</time>
      </trkpt>
      <trkpt lat="44.60174" lon="4.73485">
        <ele>73.87</ele>
        <time>2019-05-27T10:31:37.000Z</time>
      </trkpt>
      <trkpt lat="44.60144" lon="4.73459">
        <ele>75.86</ele>
        <time>2019-05-27T10:31:42.000Z</time>
      </trkpt>
      <trkpt lat="44.60115" lon="4.73433">
        <ele>77</ele>
        <time>2019-05-27T10:31:47.000Z</time>
      </trkpt>
      <trkpt lat="44.60083" lon="4.73408">
        <ele>76.06</ele>
        <time>2019-05-27T10:31:52.000Z</time>
      </trkpt>
      <trkpt lat="44.60056" lon="4.73383">
        <ele>76.01</ele>
        <time>2019-05-27T10:31:57.000Z</time>
      </trkpt>
      <trkpt lat="44.60028" lon="4.73359">
        <ele>77.04</ele>
        <time>2019-05-27T10:32:02.000Z</time>
      </trkpt>
      <trkpt lat="44.6" lon="4.73331">
        <ele>74.37</ele>
        <time>2019-05-27T10:32:07.000Z</time>
      </trkpt>
      <trkpt lat="44.59974" lon="4.73298">
        <ele>75.99</ele>
        <time>2019-05-27T10:32:12.000Z</time>
      </trkpt>
      <trkpt lat="44.59952" lon="4.73265">
        <ele>75.09</ele>
        <time>2019-05-27T10:32:17.000Z</time>
      </trkpt>
      <trkpt lat="44.59931" lon="4.73233">
        <ele>77.3</ele>
        <time>2019-05-27T10:32:22.000Z</time>
      </trkpt>
      <trkpt lat="44.5992" lon="4.73201">
        <ele>75.88</ele>
        <time>2019-05-27T10:32:27.000Z</time>
      </trkpt>
      <trkpt lat="44.59926" lon="4.7318">
        <ele>76.11</ele>
        <time>2019-05-27T10:32:32.000Z</time>
      </trkpt>
      <trkpt lat="44.59925" lon="4.73166">
        <ele>79.54</ele>
        <time>2019-05-27T10:32:37.000Z</time>
      </trkpt>
      <trkpt lat="44.59911" lon="4.73169">
        <ele>79.31</ele>
        <time>2019-05-27T10:32:42.000Z</time>
      </trkpt>
      <trkpt lat="44.59895" lon="4.73187">
        <ele>79.25</ele>
        <time>2019-05-27T10:32:47.000Z</time>
      </trkpt>
      <trkpt lat="44.5988" lon="4.73207">
        <ele>79.05</ele>
        <time>2019-05-27T10:32:52.000Z</time>
      </trkpt>
      <trkpt lat="44.59866" lon="4.73228">
        <ele>79.06</ele>
        <time>2019-05-27T10:32:57.000Z</time>
      </trkpt>
      <trkpt lat="44.59851" lon="4.73249">
        <ele>78.83</ele>
        <time>2019-05-27T10:33:02.000Z</time>
      </trkpt>
      <trkpt lat="44.59832" lon="4.73246">
        <ele>79.06</ele>
        <time>2019-05-27T10:33:07.000Z</time>
      </trkpt>
      <trkpt lat="44.59812" lon="4.73225">
        <ele>79.81</ele>
        <time>2019-05-27T10:33:12.000Z</time>
      </trkpt>
      <trkpt lat="44.59791" lon="4.73199">
        <ele>80.06</ele>
        <time>2019-05-27T10:33:17.000Z</time>
      </trkpt>
      <trkpt lat="44.59769" lon="4.73172">
        <ele>80.06</ele>
        <time>2019-05-27T10:33:22.000Z</time>
      </trkpt>
      <trkpt lat="44.59747" lon="4.73145">
        <ele>79.06</ele>
        <time>2019-05-27T10:33:27.000Z</time>
      </trkpt>
      <trkpt lat="44.59724" lon="4.73117">
        <ele>79.06</ele>
        <time>2019-05-27T10:33:32.000Z</time>
      </trkpt>
      <trkpt lat="44.59701" lon="4.7309">
        <ele>81</ele>
        <time>2019-05-27T10:33:37.000Z</time>
      </trkpt>
      <trkpt lat="44.59679" lon="4.73063">
        <ele>80.31</ele>
        <time>2019-05-27T10:33:42.000Z</time>
      </trkpt>
      <trkpt lat="44.59655" lon="4.73034">
        <ele>79.06</ele>
        <time>2019-05-27T10:33:47.000Z</time>
      </trkpt>
      <trkpt lat="44.59631" lon="4.73006">
        <ele>78.06</ele>
        <time>2019-05-27T10:33:52.000Z</time>
      </trkpt>
      <trkpt lat="44.59606" lon="4.72977">
        <ele>79.06</ele>
        <time>2019-05-27T10:33:57.000Z</time>
      </trkpt>
      <trkpt lat="44.59581" lon="4.72945">
        <ele>79.06</ele>
        <time>2019-05-27T10:34:02.000Z</time>
      </trkpt>
      <trkpt lat="44.59555" lon="4.72914">
        <ele>79.81</ele>
        <time>2019-05-27T10:34:07.000Z</time>
      </trkpt>
      <trkpt lat="44.59531" lon="4.72883">
        <ele>79.05</ele>
        <time>2019-05-27T10:34:12.000Z</time>
      </trkpt>
      <trkpt lat="44.59508" lon="4.72851">
        <ele>80.06</ele>
        <time>2019-05-27T10:34:17.000Z</time>
      </trkpt>
      <trkpt lat="44.5949" lon="4.72815">
        <ele>81.06</ele>
        <time>2019-05-27T10:34:22.000Z</time>
      </trkpt>
      <trkpt lat="44.59472" lon="4.72778">
        <ele>80.12</ele>
        <time>2019-05-27T10:34:27.000Z</time>
      </trkpt>
      <trkpt lat="44.59456" lon="4.72742">
        <ele>80.87</ele>
        <time>2019-05-27T10:34:32.000Z</time>
      </trkpt>
      <trkpt lat="44.59439" lon="4.72708">
        <ele>80.88</ele>
        <time>2019-05-27T10:34:37.000Z</time>
      </trkpt>
      <trkpt lat="44.59424" lon="4.72677">
        <ele>81</ele>
        <time>2019-05-27T10:34:42.000Z</time>
      </trkpt>
      <trkpt lat="44.59415" lon="4.72645">
        <ele>79.12</ele>
        <time>2019-05-27T10:34:47.000Z</time>
      </trkpt>
      <trkpt lat="44.59422" lon="4.72621">
        <ele>77.12</ele>
        <time>2019-05-27T10:34:52.000Z</time>
      </trkpt>
      <trkpt lat="44.59431" lon="4.72601">
        <ele>77.06</ele>
        <time>2019-05-27T10:34:57.000Z</time>
      </trkpt>
      <trkpt lat="44.59418" lon="4.72568">
        <ele>77.99</ele>
        <time>2019-05-27T10:35:02.000Z</time>
      </trkpt>
      <trkpt lat="44.59404" lon="4.72535">
        <ele>78.06</ele>
        <time>2019-05-27T10:35:07.000Z</time>
      </trkpt>
      <trkpt lat="44.59388" lon="4.72503">
        <ele>78.05</ele>
        <time>2019-05-27T10:35:12.000Z</time>
      </trkpt>
      <trkpt lat="44.59375" lon="4.72469">
        <ele>77.82</ele>
        <time>2019-05-27T10:35:17.000Z</time>
      </trkpt>
      <trkpt lat="44.5936" lon="4.72436">
        <ele>77.1</ele>
        <time>2019-05-27T10:35:22.000Z</time>
      </trkpt>
      <trkpt lat="44.59345" lon="4.72411">
        <ele>78.79</ele>
        <time>2019-05-27T10:35:27.000Z</time>
      </trkpt>
      <trkpt lat="44.59346" lon="4.72396">
        <ele>79.06</ele>
        <time>2019-05-27T10:35:32.000Z</time>
      </trkpt>
      <trkpt lat="44.59357" lon="4.72375">
        <ele>79.07</ele>
        <time>2019-05-27T10:35:37.000Z</time>
      </trkpt>
      <trkpt lat="44.5937" lon="4.72351">
        <ele>79.05</ele>
        <time>2019-05-27T10:35:42.000Z</time>
      </trkpt>
      <trkpt lat="44.59384" lon="4.72325">
        <ele>78.07</ele>
        <time>2019-05-27T10:35:47.000Z</time>
      </trkpt>
      <trkpt lat="44.59389" lon="4.72292">
        <ele>78.05</ele>
        <time>2019-05-27T10:35:52.000Z</time>
      </trkpt>
      <trkpt lat="44.59392" lon="4.72254">
        <ele>77.06</ele>
        <time>2019-05-27T10:35:57.000Z</time>
      </trkpt>
      <trkpt lat="44.59395" lon="4.72214">
        <ele>77.05</ele>
        <time>2019-05-27T10:36:02.000Z</time>
      </trkpt>
      <trkpt lat="44.59398" lon="4.72173">
        <ele>76.3</ele>
        <time>2019-05-27T10:36:07.000Z</time>
      </trkpt>
      <trkpt lat="44.59401" lon="4.72131">
        <ele>75.3</ele>
        <time>2019-05-27T10:36:12.000Z</time>
      </trkpt>
      <trkpt lat="44.59408" lon="4.7209">
        <ele>72.86</ele>
        <time>2019-05-27T10:36:17.000Z</time>
      </trkpt>
      <trkpt lat="44.59418" lon="4.72061">
        <ele>72.86</ele>
        <time>2019-05-27T10:36:22.000Z</time>
      </trkpt>
      <trkpt lat="44.59414" lon="4.7205">
        <ele>74.3</ele>
        <time>2019-05-27T10:36:29.000Z</time>
      </trkpt>
      <trkpt lat="44.59391" lon="4.72045">
        <ele>73.07</ele>
        <time>2019-05-27T10:36:34.000Z</time>
      </trkpt>
      <trkpt lat="44.59362" lon="4.72036">
        <ele>72.05</ele>
        <time>2019-05-27T10:36:39.000Z</time>
      </trkpt>
      <trkpt lat="44.59334" lon="4.72021">
        <ele>72.05</ele>
        <time>2019-05-27T10:36:44.000Z</time>
      </trkpt>
      <trkpt lat="44.59308" lon="4.72005">
        <ele>73.05</ele>
        <time>2019-05-27T10:36:49.000Z</time>
      </trkpt>
      <trkpt lat="44.59281" lon="4.7199">
        <ele>72.36</ele>
        <time>2019-05-27T10:36:54.000Z</time>
      </trkpt>
      <trkpt lat="44.59252" lon="4.71974">
        <ele>73.05</ele>
        <time>2019-05-27T10:36:59.000Z</time>
      </trkpt>
      <trkpt lat="44.59224" lon="4.71959">
        <ele>74.05</ele>
        <time>2019-05-27T10:37:04.000Z</time>
      </trkpt>
      <trkpt lat="44.59199" lon="4.71951">
        <ele>73.25</ele>
        <time>2019-05-27T10:37:09.000Z</time>
      </trkpt>
      <trkpt lat="44.59184" lon="4.71983">
        <ele>72.05</ele>
        <time>2019-05-27T10:37:14.000Z</time>
      </trkpt>
      <trkpt lat="44.59161" lon="4.72005">
        <ele>71.05</ele>
        <time>2019-05-27T10:37:19.000Z</time>
      </trkpt>
      <trkpt lat="44.59136" lon="4.71988">
        <ele>71.05</ele>
        <time>2019-05-27T10:37:24.000Z</time>
      </trkpt>
      <trkpt lat="44.5911" lon="4.71967">
        <ele>72.8</ele>
        <time>2019-05-27T10:37:29.000Z</time>
      </trkpt>
      <trkpt lat="44.59083" lon="4.71947">
        <ele>72.07</ele>
        <time>2019-05-27T10:37:34.000Z</time>
      </trkpt>
      <trkpt lat="44.59056" lon="4.71927">
        <ele>72.05</ele>
        <time>2019-05-27T10:37:39.000Z</time>
      </trkpt>
      <trkpt lat="44.5903" lon="4.71905">
        <ele>72.05</ele>
        <time>2019-05-27T10:37:44.000Z</time>
      </trkpt>
      <trkpt lat="44.59006" lon="4.71879">
        <ele>73.05</ele>
        <time>2019-05-27T10:37:49.000Z</time>
      </trkpt>
      <trkpt lat="44.58983" lon="4.71852">
        <ele>73.05</ele>
        <time>2019-05-27T10:37:54.000Z</time>
      </trkpt>
      <trkpt lat="44.5896" lon="4.71824">
        <ele>73.05</ele>
        <time>2019-05-27T10:37:59.000Z</time>
      </trkpt>
      <trkpt lat="44.58938" lon="4.71795">
        <ele>74.8</ele>
        <time>2019-05-27T10:38:04.000Z</time>
      </trkpt>
      <trkpt lat="44.58916" lon="4.71769">
        <ele>74.06</ele>
        <time>2019-05-27T10:38:09.000Z</time>
      </trkpt>
      <trkpt lat="44.58896" lon="4.71741">
        <ele>74.05</ele>
        <time>2019-05-27T10:38:14.000Z</time>
      </trkpt>
      <trkpt lat="44.58874" lon="4.71712">
        <ele>73.01</ele>
        <time>2019-05-27T10:38:19.000Z</time>
      </trkpt>
      <trkpt lat="44.58853" lon="4.71686">
        <ele>71.82</ele>
        <time>2019-05-27T10:38:24.000Z</time>
      </trkpt>
      <trkpt lat="44.58829" lon="4.7166">
        <ele>72.05</ele>
        <time>2019-05-27T10:38:29.000Z</time>
      </trkpt>
      <trkpt lat="44.58809" lon="4.71631">
        <ele>73.05</ele>
        <time>2019-05-27T10:38:34.000Z</time>
      </trkpt>
      <trkpt lat="44.58788" lon="4.71598">
        <ele>73.05</ele>
        <time>2019-05-27T10:38:39.000Z</time>
      </trkpt>
      <trkpt lat="44.58765" lon="4.71565">
        <ele>72.05</ele>
        <time>2019-05-27T10:38:44.000Z</time>
      </trkpt>
      <trkpt lat="44.58742" lon="4.71532">
        <ele>72.8</ele>
        <time>2019-05-27T10:38:49.000Z</time>
      </trkpt>
      <trkpt lat="44.5872" lon="4.71501">
        <ele>72.05</ele>
        <time>2019-05-27T10:38:54.000Z</time>
      </trkpt>
      <trkpt lat="44.58699" lon="4.71471">
        <ele>73.04</ele>
        <time>2019-05-27T10:38:59.000Z</time>
      </trkpt>
      <trkpt lat="44.58682" lon="4.71451">
        <ele>72.24</ele>
        <time>2019-05-27T10:39:04.000Z</time>
      </trkpt>
      <trkpt lat="44.58663" lon="4.71425">
        <ele>73</ele>
        <time>2019-05-27T10:39:09.000Z</time>
      </trkpt>
      <trkpt lat="44.58642" lon="4.71395">
        <ele>73.04</ele>
        <time>2019-05-27T10:39:14.000Z</time>
      </trkpt>
      <trkpt lat="44.58621" lon="4.71363">
        <ele>74.8</ele>
        <time>2019-05-27T10:39:19.000Z</time>
      </trkpt>
      <trkpt lat="44.58599" lon="4.71331">
        <ele>74.86</ele>
        <time>2019-05-27T10:39:24.000Z</time>
      </trkpt>
      <trkpt lat="44.5858" lon="4.71294">
        <ele>75.03</ele>
        <time>2019-05-27T10:39:29.000Z</time>
      </trkpt>
      <trkpt lat="44.58567" lon="4.71252">
        <ele>75.8</ele>
        <time>2019-05-27T10:39:34.000Z</time>
      </trkpt>
      <trkpt lat="44.58554" lon="4.71215">
        <ele>75.31</ele>
        <time>2019-05-27T10:39:39.000Z</time>
      </trkpt>
      <trkpt lat="44.58531" lon="4.71192">
        <ele>75</ele>
        <time>2019-05-27T10:39:44.000Z</time>
      </trkpt>
      <trkpt lat="44.58504" lon="4.71171">
        <ele>75.81</ele>
        <time>2019-05-27T10:39:49.000Z</time>
      </trkpt>
      <trkpt lat="44.58486" lon="4.71141">
        <ele>76.85</ele>
        <time>2019-05-27T10:39:54.000Z</time>
      </trkpt>
      <trkpt lat="44.58486" lon="4.71105">
        <ele>75.06</ele>
        <time>2019-05-27T10:39:59.000Z</time>
      </trkpt>
      <trkpt lat="44.58504" lon="4.71084">
        <ele>75.04</ele>
        <time>2019-05-27T10:40:04.000Z</time>
      </trkpt>
      <trkpt lat="44.58522" lon="4.71063">
        <ele>74.06</ele>
        <time>2019-05-27T10:40:09.000Z</time>
      </trkpt>
      <trkpt lat="44.5854" lon="4.7104">
        <ele>74.04</ele>
        <time>2019-05-27T10:40:14.000Z</time>
      </trkpt>
      <trkpt lat="44.58558" lon="4.71015">
        <ele>73.11</ele>
        <time>2019-05-27T10:40:19.000Z</time>
      </trkpt>
      <trkpt lat="44.58577" lon="4.70993">
        <ele>73.04</ele>
        <time>2019-05-27T10:40:24.000Z</time>
      </trkpt>
      <trkpt lat="44.58598" lon="4.70969">
        <ele>73.04</ele>
        <time>2019-05-27T10:40:29.000Z</time>
      </trkpt>
      <trkpt lat="44.58616" lon="4.70945">
        <ele>73.04</ele>
        <time>2019-05-27T10:40:34.000Z</time>
      </trkpt>
      <trkpt lat="44.58616" lon="4.70908">
        <ele>74.04</ele>
        <time>2019-05-27T10:40:39.000Z</time>
      </trkpt>
      <trkpt lat="44.58617" lon="4.70873">
        <ele>75.96</ele>
        <time>2019-05-27T10:40:44.000Z</time>
      </trkpt>
      <trkpt lat="44.58617" lon="4.70834">
        <ele>76.04</ele>
        <time>2019-05-27T10:40:49.000Z</time>
      </trkpt>
      <trkpt lat="44.58617" lon="4.70795">
        <ele>75.79</ele>
        <time>2019-05-27T10:40:54.000Z</time>
      </trkpt>
      <trkpt lat="44.58622" lon="4.70757">
        <ele>75.23</ele>
        <time>2019-05-27T10:40:59.000Z</time>
      </trkpt>
      <trkpt lat="44.58624" lon="4.70719">
        <ele>74.81</ele>
        <time>2019-05-27T10:41:04.000Z</time>
      </trkpt>
      <trkpt lat="44.5864" lon="4.70692">
        <ele>74.29</ele>
        <time>2019-05-27T10:41:09.000Z</time>
      </trkpt>
      <trkpt lat="44.58658" lon="4.70668">
        <ele>72.06</ele>
        <time>2019-05-27T10:41:14.000Z</time>
      </trkpt>
      <trkpt lat="44.58677" lon="4.70641">
        <ele>73.04</ele>
        <time>2019-05-27T10:41:19.000Z</time>
      </trkpt>
      <trkpt lat="44.58697" lon="4.70615">
        <ele>73.23</ele>
        <time>2019-05-27T10:41:24.000Z</time>
      </trkpt>
      <trkpt lat="44.58709" lon="4.70591">
        <ele>74.03</ele>
        <time>2019-05-27T10:41:29.000Z</time>
      </trkpt>
      <trkpt lat="44.58698" lon="4.70576">
        <ele>74.98</ele>
        <time>2019-05-27T10:41:34.000Z</time>
      </trkpt>
      <trkpt lat="44.5869" lon="4.70568">
        <ele>74.1</ele>
        <time>2019-05-27T10:41:40.000Z</time>
      </trkpt>
      <trkpt lat="44.5869" lon="4.70551">
        <ele>74.29</ele>
        <time>2019-05-27T10:41:45.000Z</time>
      </trkpt>
      <trkpt lat="44.58681" lon="4.70537">
        <ele>74.05</ele>
        <time>2019-05-27T10:41:50.000Z</time>
      </trkpt>
      <trkpt lat="44.58682" lon="4.70519">
        <ele>74.04</ele>
        <time>2019-05-27T10:41:55.000Z</time>
      </trkpt>
      <trkpt lat="44.5869" lon="4.70509">
        <ele>73.8</ele>
        <time>2019-05-27T10:42:00.000Z</time>
      </trkpt>
      <trkpt lat="44.58686" lon="4.70522">
        <ele>73.29</ele>
        <time>2019-05-27T10:42:07.000Z</time>
      </trkpt>
      <trkpt lat="44.58677" lon="4.70532">
        <ele>72.91</ele>
        <time>2019-05-27T10:42:12.000Z</time>
      </trkpt>
      <trkpt lat="44.58683" lon="4.70521">
        <ele>72.23</ele>
        <time>2019-05-27T10:42:23.000Z</time>
      </trkpt>
      <trkpt lat="44.58699" lon="4.70506">
        <ele>72.03</ele>
        <time>2019-05-27T10:42:28.000Z</time>
      </trkpt>
      <trkpt lat="44.58712" lon="4.7049">
        <ele>71.79</ele>
        <time>2019-05-27T10:42:33.000Z</time>
      </trkpt>
      <trkpt lat="44.58718" lon="4.7048">
        <ele>72.04</ele>
        <time>2019-05-27T10:42:38.000Z</time>
      </trkpt>
      <trkpt lat="44.58725" lon="4.70468">
        <ele>72.04</ele>
        <time>2019-05-27T10:42:55.000Z</time>
      </trkpt>
      <trkpt lat="44.58737" lon="4.70454">
        <ele>71.09</ele>
        <time>2019-05-27T10:43:00.000Z</time>
      </trkpt>
      <trkpt lat="44.58751" lon="4.70432">
        <ele>70.04</ele>
        <time>2019-05-27T10:43:05.000Z</time>
      </trkpt>
      <trkpt lat="44.58765" lon="4.70413">
        <ele>71.77</ele>
        <time>2019-05-27T10:43:10.000Z</time>
      </trkpt>
      <trkpt lat="44.58771" lon="4.70403">
        <ele>75.02</ele>
        <time>2019-05-27T10:43:36.000Z</time>
      </trkpt>
      <trkpt lat="44.58765" lon="4.70387">
        <ele>75.04</ele>
        <time>2019-05-27T10:43:41.000Z</time>
      </trkpt>
      <trkpt lat="44.58755" lon="4.70371">
        <ele>75.98</ele>
        <time>2019-05-27T10:43:46.000Z</time>
      </trkpt>
      <trkpt lat="44.58743" lon="4.70354">
        <ele>76.03</ele>
        <time>2019-05-27T10:43:51.000Z</time>
      </trkpt>
      <trkpt lat="44.58731" lon="4.70337">
        <ele>75.8</ele>
        <time>2019-05-27T10:43:56.000Z</time>
      </trkpt>
      <trkpt lat="44.58719" lon="4.70323">
        <ele>75.03</ele>
        <time>2019-05-27T10:44:01.000Z</time>
      </trkpt>
      <trkpt lat="44.5871" lon="4.70299">
        <ele>75.8</ele>
        <time>2019-05-27T10:44:06.000Z</time>
      </trkpt>
      <trkpt lat="44.587" lon="4.70276">
        <ele>77.72</ele>
        <time>2019-05-27T10:44:11.000Z</time>
      </trkpt>
      <trkpt lat="44.58683" lon="4.70259">
        <ele>76.99</ele>
        <time>2019-05-27T10:44:16.000Z</time>
      </trkpt>
      <trkpt lat="44.58664" lon="4.70246">
        <ele>78.97</ele>
        <time>2019-05-27T10:44:21.000Z</time>
      </trkpt>
      <trkpt lat="44.58642" lon="4.70229">
        <ele>78.47</ele>
        <time>2019-05-27T10:44:26.000Z</time>
      </trkpt>
      <trkpt lat="44.58619" lon="4.70208">
        <ele>76.36</ele>
        <time>2019-05-27T10:44:31.000Z</time>
      </trkpt>
      <trkpt lat="44.58599" lon="4.7019">
        <ele>78.96</ele>
        <time>2019-05-27T10:44:36.000Z</time>
      </trkpt>
      <trkpt lat="44.58578" lon="4.70167">
        <ele>78</ele>
        <time>2019-05-27T10:44:41.000Z</time>
      </trkpt>
      <trkpt lat="44.58559" lon="4.70146">
        <ele>79.69</ele>
        <time>2019-05-27T10:44:46.000Z</time>
      </trkpt>
      <trkpt lat="44.58541" lon="4.70126">
        <ele>80.77</ele>
        <time>2019-05-27T10:44:51.000Z</time>
      </trkpt>
      <trkpt lat="44.58524" lon="4.70107">
        <ele>82.02</ele>
        <time>2019-05-27T10:44:56.000Z</time>
      </trkpt>
      <trkpt lat="44.58506" lon="4.70088">
        <ele>81.97</ele>
        <time>2019-05-27T10:45:01.000Z</time>
      </trkpt>
      <trkpt lat="44.58488" lon="4.70068">
        <ele>82.03</ele>
        <time>2019-05-27T10:45:06.000Z</time>
      </trkpt>
      <trkpt lat="44.58471" lon="4.7005">
        <ele>82.98</ele>
        <time>2019-05-27T10:45:11.000Z</time>
      </trkpt>
      <trkpt lat="44.58452" lon="4.70035">
        <ele>84.97</ele>
        <time>2019-05-27T10:45:16.000Z</time>
      </trkpt>
      <trkpt lat="44.58436" lon="4.70019">
        <ele>85.03</ele>
        <time>2019-05-27T10:45:21.000Z</time>
      </trkpt>
      <trkpt lat="44.58424" lon="4.69999">
        <ele>85.09</ele>
        <time>2019-05-27T10:45:26.000Z</time>
      </trkpt>
      <trkpt lat="44.5843" lon="4.69988">
        <ele>85.1</ele>
        <time>2019-05-27T10:45:42.000Z</time>
      </trkpt>
      <trkpt lat="44.58441" lon="4.7001">
        <ele>85.03</ele>
        <time>2019-05-27T10:45:47.000Z</time>
      </trkpt>
      <trkpt lat="44.58458" lon="4.70035">
        <ele>84.03</ele>
        <time>2019-05-27T10:45:52.000Z</time>
      </trkpt>
      <trkpt lat="44.58481" lon="4.70046">
        <ele>83.97</ele>
        <time>2019-05-27T10:45:57.000Z</time>
      </trkpt>
      <trkpt lat="44.58502" lon="4.7005">
        <ele>84.03</ele>
        <time>2019-05-27T10:46:02.000Z</time>
      </trkpt>
      <trkpt lat="44.58517" lon="4.70054">
        <ele>84.78</ele>
        <time>2019-05-27T10:46:07.000Z</time>
      </trkpt>
      <trkpt lat="44.58532" lon="4.70059">
        <ele>85.03</ele>
        <time>2019-05-27T10:46:12.000Z</time>
      </trkpt>
      <trkpt lat="44.58546" lon="4.70066">
        <ele>87.22</ele>
        <time>2019-05-27T10:46:17.000Z</time>
      </trkpt>
      <trkpt lat="44.58559" lon="4.70069">
        <ele>88.03</ele>
        <time>2019-05-27T10:46:22.000Z</time>
      </trkpt>
      <trkpt lat="44.58571" lon="4.7007">
        <ele>88.03</ele>
        <time>2019-05-27T10:46:27.000Z</time>
      </trkpt>
      <trkpt lat="44.58583" lon="4.70077">
        <ele>88.78</ele>
        <time>2019-05-27T10:46:32.000Z</time>
      </trkpt>
      <trkpt lat="44.58592" lon="4.70086">
        <ele>90.77</ele>
        <time>2019-05-27T10:46:37.000Z</time>
      </trkpt>
      <trkpt lat="44.58601" lon="4.70096">
        <ele>93.97</ele>
        <time>2019-05-27T10:46:42.000Z</time>
      </trkpt>
      <trkpt lat="44.5861" lon="4.70105">
        <ele>95.97</ele>
        <time>2019-05-27T10:46:47.000Z</time>
      </trkpt>
      <trkpt lat="44.5862" lon="4.70113">
        <ele>98.95</ele>
        <time>2019-05-27T10:46:52.000Z</time>
      </trkpt>
      <trkpt lat="44.58627" lon="4.70123">
        <ele>98.1</ele>
        <time>2019-05-27T10:46:57.000Z</time>
      </trkpt>
      <trkpt lat="44.58637" lon="4.70132">
        <ele>98.03</ele>
        <time>2019-05-27T10:47:20.000Z</time>
      </trkpt>
      <trkpt lat="44.58647" lon="4.70144">
        <ele>95.11</ele>
        <time>2019-05-27T10:47:25.000Z</time>
      </trkpt>
      <trkpt lat="44.58662" lon="4.70147">
        <ele>94.1</ele>
        <time>2019-05-27T10:47:30.000Z</time>
      </trkpt>
      <trkpt lat="44.58664" lon="4.7016">
        <ele>94.1</ele>
        <time>2019-05-27T10:47:41.000Z</time>
      </trkpt>
      <trkpt lat="44.58664" lon="4.70184">
        <ele>94.78</ele>
        <time>2019-05-27T10:47:46.000Z</time>
      </trkpt>
      <trkpt lat="44.5867" lon="4.70195">
        <ele>97.28</ele>
        <time>2019-05-27T10:47:51.000Z</time>
      </trkpt>
      <trkpt lat="44.58662" lon="4.70201">
        <ele>96.08</ele>
        <time>2019-05-27T10:47:56.000Z</time>
      </trkpt>
      <trkpt lat="44.58651" lon="4.70208">
        <ele>94.86</ele>
        <time>2019-05-27T10:48:01.000Z</time>
      </trkpt>
      <trkpt lat="44.58656" lon="4.70196">
        <ele>95.02</ele>
        <time>2019-05-27T10:48:10.000Z</time>
      </trkpt>
      <trkpt lat="44.58663" lon="4.70187">
        <ele>94.04</ele>
        <time>2019-05-27T10:48:15.000Z</time>
      </trkpt>
      <trkpt lat="44.5867" lon="4.70201">
        <ele>93.28</ele>
        <time>2019-05-27T10:48:20.000Z</time>
      </trkpt>
      <trkpt lat="44.5868" lon="4.70212">
        <ele>93.27</ele>
        <time>2019-05-27T10:48:25.000Z</time>
      </trkpt>
      <trkpt lat="44.58699" lon="4.70208">
        <ele>93.25</ele>
        <time>2019-05-27T10:48:30.000Z</time>
      </trkpt>
      <trkpt lat="44.58719" lon="4.70226">
        <ele>93.22</ele>
        <time>2019-05-27T10:48:35.000Z</time>
      </trkpt>
      <trkpt lat="44.58717" lon="4.70246">
        <ele>92.04</ele>
        <time>2019-05-27T10:48:40.000Z</time>
      </trkpt>
      <trkpt lat="44.58724" lon="4.70265">
        <ele>91.04</ele>
        <time>2019-05-27T10:48:45.000Z</time>
      </trkpt>
      <trkpt lat="44.58737" lon="4.7028">
        <ele>90.05</ele>
        <time>2019-05-27T10:48:50.000Z</time>
      </trkpt>
      <trkpt lat="44.58748" lon="4.70295">
        <ele>91.77</ele>
        <time>2019-05-27T10:48:55.000Z</time>
      </trkpt>
      <trkpt lat="44.58751" lon="4.7031">
        <ele>82.29</ele>
        <time>2019-05-27T10:49:00.000Z</time>
      </trkpt>
      <trkpt lat="44.5876" lon="4.70331">
        <ele>79.12</ele>
        <time>2019-05-27T10:49:05.000Z</time>
      </trkpt>
      <trkpt lat="44.58775" lon="4.70348">
        <ele>79.03</ele>
        <time>2019-05-27T10:49:10.000Z</time>
      </trkpt>
      <trkpt lat="44.58794" lon="4.70359">
        <ele>80.02</ele>
        <time>2019-05-27T10:49:15.000Z</time>
      </trkpt>
      <trkpt lat="44.5881" lon="4.70365">
        <ele>79.79</ele>
        <time>2019-05-27T10:49:20.000Z</time>
      </trkpt>
      <trkpt lat="44.58801" lon="4.70408">
        <ele>79.79</ele>
        <time>2019-05-27T10:49:25.000Z</time>
      </trkpt>
      <trkpt lat="44.58833" lon="4.70384">
        <ele>78.03</ele>
        <time>2019-05-27T10:49:30.000Z</time>
      </trkpt>
      <trkpt lat="44.58846" lon="4.70395">
        <ele>78.77</ele>
        <time>2019-05-27T10:49:35.000Z</time>
      </trkpt>
      <trkpt lat="44.5885" lon="4.70414">
        <ele>79.23</ele>
        <time>2019-05-27T10:49:40.000Z</time>
      </trkpt>
      <trkpt lat="44.58853" lon="4.70429">
        <ele>79.04</ele>
        <time>2019-05-27T10:49:45.000Z</time>
      </trkpt>
      <trkpt lat="44.58876" lon="4.70417">
        <ele>80.86</ele>
        <time>2019-05-27T10:49:50.000Z</time>
      </trkpt>
      <trkpt lat="44.58886" lon="4.70421">
        <ele>79.29</ele>
        <time>2019-05-27T10:49:55.000Z</time>
      </trkpt>
      <trkpt lat="44.58891" lon="4.70435">
        <ele>80.04</ele>
        <time>2019-05-27T10:50:00.000Z</time>
      </trkpt>
      <trkpt lat="44.58902" lon="4.70453">
        <ele>80.97</ele>
        <time>2019-05-27T10:50:05.000Z</time>
      </trkpt>
      <trkpt lat="44.5891" lon="4.70471">
        <ele>81.27</ele>
        <time>2019-05-27T10:50:10.000Z</time>
      </trkpt>
      <trkpt lat="44.58913" lon="4.70493">
        <ele>81.17</ele>
        <time>2019-05-27T10:50:15.000Z</time>
      </trkpt>
      <trkpt lat="44.58926" lon="4.70519">
        <ele>78.87</ele>
        <time>2019-05-27T10:50:20.000Z</time>
      </trkpt>
      <trkpt lat="44.58938" lon="4.70551">
        <ele>76.1</ele>
        <time>2019-05-27T10:50:25.000Z</time>
      </trkpt>
      <trkpt lat="44.58932" lon="4.70567">
        <ele>72.96</ele>
        <time>2019-05-27T10:50:30.000Z</time>
      </trkpt>
      <trkpt lat="44.58923" lon="4.70572">
        <ele>72.33</ele>
        <time>2019-05-27T10:50:36.000Z</time>
      </trkpt>
      <trkpt lat="44.58912" lon="4.70564">
        <ele>72.78</ele>
        <time>2019-05-27T10:51:07.000Z</time>
      </trkpt>
      <trkpt lat="44.58889" lon="4.7055">
        <ele>72.77</ele>
        <time>2019-05-27T10:51:12.000Z</time>
      </trkpt>
      <trkpt lat="44.58858" lon="4.70541">
        <ele>70.04</ele>
        <time>2019-05-27T10:51:17.000Z</time>
      </trkpt>
      <trkpt lat="44.58835" lon="4.70509">
        <ele>70.1</ele>
        <time>2019-05-27T10:51:22.000Z</time>
      </trkpt>
      <trkpt lat="44.58812" lon="4.70471">
        <ele>71.03</ele>
        <time>2019-05-27T10:51:27.000Z</time>
      </trkpt>
      <trkpt lat="44.58791" lon="4.70439">
        <ele>72.06</ele>
        <time>2019-05-27T10:51:32.000Z</time>
      </trkpt>
      <trkpt lat="44.58772" lon="4.70408">
        <ele>67.13</ele>
        <time>2019-05-27T10:51:37.000Z</time>
      </trkpt>
      <trkpt lat="44.58766" lon="4.70388">
        <ele>68.97</ele>
        <time>2019-05-27T10:51:42.000Z</time>
      </trkpt>
      <trkpt lat="44.58768" lon="4.70375">
        <ele>73.84</ele>
        <time>2019-05-27T11:06:08.000Z</time>
      </trkpt>
      <trkpt lat="44.5876" lon="4.70387">
        <ele>83.79</ele>
        <time>2019-05-27T11:11:49.000Z</time>
      </trkpt>
      <trkpt lat="44.58761" lon="4.70385">
        <ele>83.04</ele>
        <time>2019-05-27T11:12:02.000Z</time>
      </trkpt>
      <trkpt lat="44.58759" lon="4.7037">
        <ele>81.71</ele>
        <time>2019-05-27T11:43:28.000Z</time>
      </trkpt>
      <trkpt lat="44.58753" lon="4.7038">
        <ele>83.97</ele>
        <time>2019-05-27T11:43:53.000Z</time>
      </trkpt>
      <trkpt lat="44.58746" lon="4.70396">
        <ele>81.06</ele>
        <time>2019-05-27T11:43:58.000Z</time>
      </trkpt>
      <trkpt lat="44.58736" lon="4.70416">
        <ele>81.09</ele>
        <time>2019-05-27T11:44:03.000Z</time>
      </trkpt>
      <trkpt lat="44.58722" lon="4.70435">
        <ele>82.02</ele>
        <time>2019-05-27T11:44:08.000Z</time>
      </trkpt>
      <trkpt lat="44.58704" lon="4.70458">
        <ele>82.99</ele>
        <time>2019-05-27T11:44:13.000Z</time>
      </trkpt>
      <trkpt lat="44.58695" lon="4.70485">
        <ele>81.11</ele>
        <time>2019-05-27T11:44:18.000Z</time>
      </trkpt>
      <trkpt lat="44.58684" lon="4.70513">
        <ele>82.04</ele>
        <time>2019-05-27T11:44:23.000Z</time>
      </trkpt>
      <trkpt lat="44.58673" lon="4.70525">
        <ele>79.35</ele>
        <time>2019-05-27T11:44:28.000Z</time>
      </trkpt>
      <trkpt lat="44.58682" lon="4.70527">
        <ele>76.8</ele>
        <time>2019-05-27T11:47:54.000Z</time>
      </trkpt>
      <trkpt lat="44.58674" lon="4.70534">
        <ele>73.28</ele>
        <time>2019-05-27T11:48:14.000Z</time>
      </trkpt>
      <trkpt lat="44.58683" lon="4.7053">
        <ele>74.54</ele>
        <time>2019-05-27T11:48:29.000Z</time>
      </trkpt>
      <trkpt lat="44.58672" lon="4.70533">
        <ele>74.97</ele>
        <time>2019-05-27T11:49:24.000Z</time>
      </trkpt>
      <trkpt lat="44.58665" lon="4.70544">
        <ele>78.71</ele>
        <time>2019-05-27T11:49:29.000Z</time>
      </trkpt>
      <trkpt lat="44.58656" lon="4.70558">
        <ele>78.04</ele>
        <time>2019-05-27T11:49:34.000Z</time>
      </trkpt>
      <trkpt lat="44.58644" lon="4.70576">
        <ele>78.23</ele>
        <time>2019-05-27T11:49:39.000Z</time>
      </trkpt>
      <trkpt lat="44.58628" lon="4.70599">
        <ele>78.04</ele>
        <time>2019-05-27T11:49:44.000Z</time>
      </trkpt>
      <trkpt lat="44.58612" lon="4.70622">
        <ele>79.04</ele>
        <time>2019-05-27T11:49:49.000Z</time>
      </trkpt>
      <trkpt lat="44.58596" lon="4.70644">
        <ele>78.04</ele>
        <time>2019-05-27T11:49:54.000Z</time>
      </trkpt>
      <trkpt lat="44.58582" lon="4.70667">
        <ele>76.12</ele>
        <time>2019-05-27T11:49:59.000Z</time>
      </trkpt>
      <trkpt lat="44.58566" lon="4.70688">
        <ele>75.04</ele>
        <time>2019-05-27T11:50:04.000Z</time>
      </trkpt>
      <trkpt lat="44.58551" lon="4.70713">
        <ele>74.1</ele>
        <time>2019-05-27T11:50:09.000Z</time>
      </trkpt>
      <trkpt lat="44.58534" lon="4.70735">
        <ele>74.09</ele>
        <time>2019-05-27T11:50:14.000Z</time>
      </trkpt>
      <trkpt lat="44.58517" lon="4.70759">
        <ele>75.05</ele>
        <time>2019-05-27T11:50:19.000Z</time>
      </trkpt>
      <trkpt lat="44.58499" lon="4.70784">
        <ele>76.79</ele>
        <time>2019-05-27T11:50:24.000Z</time>
      </trkpt>
      <trkpt lat="44.58481" lon="4.70808">
        <ele>77.04</ele>
        <time>2019-05-27T11:50:29.000Z</time>
      </trkpt>
      <trkpt lat="44.58465" lon="4.70832">
        <ele>77.28</ele>
        <time>2019-05-27T11:50:34.000Z</time>
      </trkpt>
      <trkpt lat="44.58446" lon="4.70857">
        <ele>76.05</ele>
        <time>2019-05-27T11:50:39.000Z</time>
      </trkpt>
      <trkpt lat="44.58431" lon="4.70881">
        <ele>75.35</ele>
        <time>2019-05-27T11:50:44.000Z</time>
      </trkpt>
      <trkpt lat="44.58415" lon="4.70906">
        <ele>72.25</ele>
        <time>2019-05-27T11:50:49.000Z</time>
      </trkpt>
      <trkpt lat="44.58396" lon="4.7093">
        <ele>72.69</ele>
        <time>2019-05-27T11:50:54.000Z</time>
      </trkpt>
      <trkpt lat="44.58379" lon="4.70952">
        <ele>73.86</ele>
        <time>2019-05-27T11:50:59.000Z</time>
      </trkpt>
      <trkpt lat="44.5836" lon="4.70977">
        <ele>76.96</ele>
        <time>2019-05-27T11:51:04.000Z</time>
      </trkpt>
      <trkpt lat="44.58345" lon="4.70995">
        <ele>75.92</ele>
        <time>2019-05-27T11:51:09.000Z</time>
      </trkpt>
      <trkpt lat="44.58334" lon="4.71012">
        <ele>79.03</ele>
        <time>2019-05-27T11:51:14.000Z</time>
      </trkpt>
      <trkpt lat="44.58325" lon="4.71027">
        <ele>81.09</ele>
        <time>2019-05-27T11:51:19.000Z</time>
      </trkpt>
      <trkpt lat="44.58313" lon="4.71042">
        <ele>80.05</ele>
        <time>2019-05-27T11:51:24.000Z</time>
      </trkpt>
      <trkpt lat="44.58301" lon="4.71061">
        <ele>80.05</ele>
        <time>2019-05-27T11:51:29.000Z</time>
      </trkpt>
      <trkpt lat="44.58287" lon="4.71081">
        <ele>78.25</ele>
        <time>2019-05-27T11:51:34.000Z</time>
      </trkpt>
      <trkpt lat="44.58274" lon="4.71099">
        <ele>78.05</ele>
        <time>2019-05-27T11:51:39.000Z</time>
      </trkpt>
      <trkpt lat="44.5826" lon="4.71119">
        <ele>78.06</ele>
        <time>2019-05-27T11:51:44.000Z</time>
      </trkpt>
      <trkpt lat="44.5825" lon="4.71136">
        <ele>77.8</ele>
        <time>2019-05-27T11:51:49.000Z</time>
      </trkpt>
      <trkpt lat="44.58239" lon="4.71151">
        <ele>79.98</ele>
        <time>2019-05-27T11:51:54.000Z</time>
      </trkpt>
      <trkpt lat="44.58229" lon="4.71162">
        <ele>79.06</ele>
        <time>2019-05-27T11:51:59.000Z</time>
      </trkpt>
      <trkpt lat="44.58214" lon="4.71183">
        <ele>77.11</ele>
        <time>2019-05-27T11:52:04.000Z</time>
      </trkpt>
      <trkpt lat="44.58198" lon="4.71207">
        <ele>77.05</ele>
        <time>2019-05-27T11:52:09.000Z</time>
      </trkpt>
      <trkpt lat="44.5818" lon="4.7123">
        <ele>77.8</ele>
        <time>2019-05-27T11:52:14.000Z</time>
      </trkpt>
      <trkpt lat="44.58164" lon="4.71253">
        <ele>76.12</ele>
        <time>2019-05-27T11:52:19.000Z</time>
      </trkpt>
      <trkpt lat="44.58151" lon="4.71271">
        <ele>76.05</ele>
        <time>2019-05-27T11:52:24.000Z</time>
      </trkpt>
      <trkpt lat="44.58142" lon="4.71285">
        <ele>77.05</ele>
        <time>2019-05-27T11:52:29.000Z</time>
      </trkpt>
      <trkpt lat="44.5813" lon="4.71298">
        <ele>78.78</ele>
        <time>2019-05-27T11:52:34.000Z</time>
      </trkpt>
      <trkpt lat="44.58116" lon="4.71318">
        <ele>80.3</ele>
        <time>2019-05-27T11:52:39.000Z</time>
      </trkpt>
      <trkpt lat="44.58099" lon="4.71344">
        <ele>79.05</ele>
        <time>2019-05-27T11:52:44.000Z</time>
      </trkpt>
      <trkpt lat="44.58077" lon="4.71374">
        <ele>78.05</ele>
        <time>2019-05-27T11:52:49.000Z</time>
      </trkpt>
      <trkpt lat="44.58058" lon="4.71408">
        <ele>78.05</ele>
        <time>2019-05-27T11:52:54.000Z</time>
      </trkpt>
      <trkpt lat="44.58061" lon="4.71447">
        <ele>78.05</ele>
        <time>2019-05-27T11:52:59.000Z</time>
      </trkpt>
      <trkpt lat="44.58072" lon="4.71485">
        <ele>77.07</ele>
        <time>2019-05-27T11:53:04.000Z</time>
      </trkpt>
      <trkpt lat="44.58082" lon="4.71522">
        <ele>78.05</ele>
        <time>2019-05-27T11:53:09.000Z</time>
      </trkpt>
      <trkpt lat="44.58091" lon="4.71559">
        <ele>78.05</ele>
        <time>2019-05-27T11:53:14.000Z</time>
      </trkpt>
      <trkpt lat="44.58098" lon="4.71592">
        <ele>77.3</ele>
        <time>2019-05-27T11:53:19.000Z</time>
      </trkpt>
      <trkpt lat="44.58106" lon="4.71623">
        <ele>77.05</ele>
        <time>2019-05-27T11:53:24.000Z</time>
      </trkpt>
      <trkpt lat="44.58114" lon="4.71656">
        <ele>78.04</ele>
        <time>2019-05-27T11:53:29.000Z</time>
      </trkpt>
      <trkpt lat="44.58123" lon="4.71688">
        <ele>78.05</ele>
        <time>2019-05-27T11:53:34.000Z</time>
      </trkpt>
      <trkpt lat="44.5813" lon="4.7172">
        <ele>77.06</ele>
        <time>2019-05-27T11:53:39.000Z</time>
      </trkpt>
      <trkpt lat="44.58123" lon="4.71747">
        <ele>77.06</ele>
        <time>2019-05-27T11:53:44.000Z</time>
      </trkpt>
      <trkpt lat="44.58119" lon="4.71765">
        <ele>79.79</ele>
        <time>2019-05-27T11:53:49.000Z</time>
      </trkpt>
      <trkpt lat="44.58121" lon="4.7178">
        <ele>80.06</ele>
        <time>2019-05-27T11:53:54.000Z</time>
      </trkpt>
      <trkpt lat="44.58115" lon="4.7179">
        <ele>81.8</ele>
        <time>2019-05-27T11:54:01.000Z</time>
      </trkpt>
      <trkpt lat="44.58108" lon="4.71776">
        <ele>80.88</ele>
        <time>2019-05-27T11:54:56.000Z</time>
      </trkpt>
      <trkpt lat="44.58091" lon="4.71768">
        <ele>81.06</ele>
        <time>2019-05-27T11:55:01.000Z</time>
      </trkpt>
      <trkpt lat="44.58068" lon="4.71759">
        <ele>80.31</ele>
        <time>2019-05-27T11:55:06.000Z</time>
      </trkpt>
      <trkpt lat="44.58045" lon="4.71749">
        <ele>81.05</ele>
        <time>2019-05-27T11:55:11.000Z</time>
      </trkpt>
      <trkpt lat="44.58019" lon="4.71738">
        <ele>81.81</ele>
        <time>2019-05-27T11:55:16.000Z</time>
      </trkpt>
      <trkpt lat="44.5799" lon="4.71728">
        <ele>82.06</ele>
        <time>2019-05-27T11:55:21.000Z</time>
      </trkpt>
      <trkpt lat="44.5796" lon="4.71718">
        <ele>82.1</ele>
        <time>2019-05-27T11:55:26.000Z</time>
      </trkpt>
      <trkpt lat="44.57929" lon="4.71708">
        <ele>82.81</ele>
        <time>2019-05-27T11:55:31.000Z</time>
      </trkpt>
      <trkpt lat="44.57896" lon="4.71699">
        <ele>83.06</ele>
        <time>2019-05-27T11:55:36.000Z</time>
      </trkpt>
      <trkpt lat="44.57861" lon="4.71693">
        <ele>82.31</ele>
        <time>2019-05-27T11:55:41.000Z</time>
      </trkpt>
      <trkpt lat="44.57825" lon="4.71687">
        <ele>82.06</ele>
        <time>2019-05-27T11:55:46.000Z</time>
      </trkpt>
      <trkpt lat="44.57789" lon="4.71682">
        <ele>83.04</ele>
        <time>2019-05-27T11:55:51.000Z</time>
      </trkpt>
      <trkpt lat="44.57753" lon="4.71677">
        <ele>83.06</ele>
        <time>2019-05-27T11:55:56.000Z</time>
      </trkpt>
      <trkpt lat="44.57716" lon="4.71673">
        <ele>83.06</ele>
        <time>2019-05-27T11:56:01.000Z</time>
      </trkpt>
      <trkpt lat="44.5768" lon="4.71668">
        <ele>83.06</ele>
        <time>2019-05-27T11:56:06.000Z</time>
      </trkpt>
      <trkpt lat="44.57644" lon="4.71663">
        <ele>83.06</ele>
        <time>2019-05-27T11:56:11.000Z</time>
      </trkpt>
      <trkpt lat="44.57611" lon="4.7166">
        <ele>83.3</ele>
        <time>2019-05-27T11:56:16.000Z</time>
      </trkpt>
      <trkpt lat="44.57573" lon="4.71654">
        <ele>83.06</ele>
        <time>2019-05-27T11:56:21.000Z</time>
      </trkpt>
      <trkpt lat="44.57536" lon="4.71648">
        <ele>82.31</ele>
        <time>2019-05-27T11:56:26.000Z</time>
      </trkpt>
      <trkpt lat="44.57497" lon="4.71643">
        <ele>81.31</ele>
        <time>2019-05-27T11:56:31.000Z</time>
      </trkpt>
      <trkpt lat="44.57458" lon="4.71639">
        <ele>82.06</ele>
        <time>2019-05-27T11:56:36.000Z</time>
      </trkpt>
      <trkpt lat="44.5742" lon="4.71634">
        <ele>82</ele>
        <time>2019-05-27T11:56:41.000Z</time>
      </trkpt>
      <trkpt lat="44.57383" lon="4.71628">
        <ele>82.06</ele>
        <time>2019-05-27T11:56:46.000Z</time>
      </trkpt>
      <trkpt lat="44.57346" lon="4.71624">
        <ele>81.31</ele>
        <time>2019-05-27T11:56:51.000Z</time>
      </trkpt>
      <trkpt lat="44.57308" lon="4.71619">
        <ele>82.11</ele>
        <time>2019-05-27T11:56:56.000Z</time>
      </trkpt>
      <trkpt lat="44.5727" lon="4.71613">
        <ele>82.06</ele>
        <time>2019-05-27T11:57:01.000Z</time>
      </trkpt>
      <trkpt lat="44.57229" lon="4.71609">
        <ele>82.05</ele>
        <time>2019-05-27T11:57:06.000Z</time>
      </trkpt>
      <trkpt lat="44.57192" lon="4.71605">
        <ele>82.06</ele>
        <time>2019-05-27T11:57:11.000Z</time>
      </trkpt>
      <trkpt lat="44.57154" lon="4.71598">
        <ele>82.06</ele>
        <time>2019-05-27T11:57:16.000Z</time>
      </trkpt>
      <trkpt lat="44.57117" lon="4.71592">
        <ele>82.06</ele>
        <time>2019-05-27T11:57:21.000Z</time>
      </trkpt>
      <trkpt lat="44.57079" lon="4.71587">
        <ele>82.06</ele>
        <time>2019-05-27T11:57:26.000Z</time>
      </trkpt>
      <trkpt lat="44.5704" lon="4.71583">
        <ele>82.06</ele>
        <time>2019-05-27T11:57:31.000Z</time>
      </trkpt>
      <trkpt lat="44.57002" lon="4.71578">
        <ele>82.81</ele>
        <time>2019-05-27T11:57:36.000Z</time>
      </trkpt>
      <trkpt lat="44.56964" lon="4.71574">
        <ele>82.06</ele>
        <time>2019-05-27T11:57:41.000Z</time>
      </trkpt>
      <trkpt lat="44.56925" lon="4.71569">
        <ele>82.06</ele>
        <time>2019-05-27T11:57:46.000Z</time>
      </trkpt>
      <trkpt lat="44.56886" lon="4.71563">
        <ele>82.11</ele>
        <time>2019-05-27T11:57:51.000Z</time>
      </trkpt>
      <trkpt lat="44.56847" lon="4.71557">
        <ele>83.06</ele>
        <time>2019-05-27T11:57:56.000Z</time>
      </trkpt>
      <trkpt lat="44.56808" lon="4.71551">
        <ele>82.06</ele>
        <time>2019-05-27T11:58:01.000Z</time>
      </trkpt>
      <trkpt lat="44.56767" lon="4.71547">
        <ele>82.06</ele>
        <time>2019-05-27T11:58:06.000Z</time>
      </trkpt>
      <trkpt lat="44.56727" lon="4.71541">
        <ele>83.01</ele>
        <time>2019-05-27T11:58:11.000Z</time>
      </trkpt>
      <trkpt lat="44.56685" lon="4.71536">
        <ele>83.06</ele>
        <time>2019-05-27T11:58:16.000Z</time>
      </trkpt>
      <trkpt lat="44.56643" lon="4.71531">
        <ele>82.07</ele>
        <time>2019-05-27T11:58:21.000Z</time>
      </trkpt>
      <trkpt lat="44.56601" lon="4.71527">
        <ele>81.07</ele>
        <time>2019-05-27T11:58:26.000Z</time>
      </trkpt>
      <trkpt lat="44.56562" lon="4.7152">
        <ele>82.06</ele>
        <time>2019-05-27T11:58:31.000Z</time>
      </trkpt>
      <trkpt lat="44.56521" lon="4.71515">
        <ele>81.13</ele>
        <time>2019-05-27T11:58:36.000Z</time>
      </trkpt>
      <trkpt lat="44.56481" lon="4.7151">
        <ele>81.13</ele>
        <time>2019-05-27T11:58:41.000Z</time>
      </trkpt>
      <trkpt lat="44.56442" lon="4.71504">
        <ele>81.06</ele>
        <time>2019-05-27T11:58:46.000Z</time>
      </trkpt>
      <trkpt lat="44.56402" lon="4.715">
        <ele>81.81</ele>
        <time>2019-05-27T11:58:51.000Z</time>
      </trkpt>
      <trkpt lat="44.56363" lon="4.71494">
        <ele>81.13</ele>
        <time>2019-05-27T11:58:56.000Z</time>
      </trkpt>
      <trkpt lat="44.56323" lon="4.71491">
        <ele>80.08</ele>
        <time>2019-05-27T11:59:01.000Z</time>
      </trkpt>
      <trkpt lat="44.56283" lon="4.71485">
        <ele>80.07</ele>
        <time>2019-05-27T11:59:06.000Z</time>
      </trkpt>
      <trkpt lat="44.56243" lon="4.71478">
        <ele>81.06</ele>
        <time>2019-05-27T11:59:11.000Z</time>
      </trkpt>
      <trkpt lat="44.56204" lon="4.71473">
        <ele>81.07</ele>
        <time>2019-05-27T11:59:16.000Z</time>
      </trkpt>
      <trkpt lat="44.56164" lon="4.71468">
        <ele>82.07</ele>
        <time>2019-05-27T11:59:21.000Z</time>
      </trkpt>
      <trkpt lat="44.56124" lon="4.71463">
        <ele>82.3</ele>
        <time>2019-05-27T11:59:26.000Z</time>
      </trkpt>
      <trkpt lat="44.56085" lon="4.71459">
        <ele>83.05</ele>
        <time>2019-05-27T11:59:31.000Z</time>
      </trkpt>
      <trkpt lat="44.56046" lon="4.71453">
        <ele>83.02</ele>
        <time>2019-05-27T11:59:36.000Z</time>
      </trkpt>
      <trkpt lat="44.56006" lon="4.71447">
        <ele>83.07</ele>
        <time>2019-05-27T11:59:41.000Z</time>
      </trkpt>
      <trkpt lat="44.55967" lon="4.71443">
        <ele>82.26</ele>
        <time>2019-05-27T11:59:46.000Z</time>
      </trkpt>
      <trkpt lat="44.55927" lon="4.71439">
        <ele>83.07</ele>
        <time>2019-05-27T11:59:51.000Z</time>
      </trkpt>
      <trkpt lat="44.55887" lon="4.71435">
        <ele>83.07</ele>
        <time>2019-05-27T11:59:56.000Z</time>
      </trkpt>
      <trkpt lat="44.55847" lon="4.71432">
        <ele>82.13</ele>
        <time>2019-05-27T12:00:01.000Z</time>
      </trkpt>
      <trkpt lat="44.55805" lon="4.71432">
        <ele>82.07</ele>
        <time>2019-05-27T12:00:06.000Z</time>
      </trkpt>
      <trkpt lat="44.55762" lon="4.71434">
        <ele>82.07</ele>
        <time>2019-05-27T12:00:11.000Z</time>
      </trkpt>
      <trkpt lat="44.5572" lon="4.71433">
        <ele>82.31</ele>
        <time>2019-05-27T12:00:16.000Z</time>
      </trkpt>
      <trkpt lat="44.55677" lon="4.71436">
        <ele>83.07</ele>
        <time>2019-05-27T12:00:21.000Z</time>
      </trkpt>
      <trkpt lat="44.55635" lon="4.71439">
        <ele>83.07</ele>
        <time>2019-05-27T12:00:26.000Z</time>
      </trkpt>
      <trkpt lat="44.55593" lon="4.71443">
        <ele>81.13</ele>
        <time>2019-05-27T12:00:31.000Z</time>
      </trkpt>
      <trkpt lat="44.55551" lon="4.71449">
        <ele>82.05</ele>
        <time>2019-05-27T12:00:36.000Z</time>
      </trkpt>
      <trkpt lat="44.55511" lon="4.71455">
        <ele>83.07</ele>
        <time>2019-05-27T12:00:41.000Z</time>
      </trkpt>
      <trkpt lat="44.55476" lon="4.71463">
        <ele>83.07</ele>
        <time>2019-05-27T12:00:46.000Z</time>
      </trkpt>
      <trkpt lat="44.55461" lon="4.71436">
        <ele>82.13</ele>
        <time>2019-05-27T12:00:51.000Z</time>
      </trkpt>
      <trkpt lat="44.55456" lon="4.71385">
        <ele>80.38</ele>
        <time>2019-05-27T12:00:56.000Z</time>
      </trkpt>
      <trkpt lat="44.55442" lon="4.71328">
        <ele>76.4</ele>
        <time>2019-05-27T12:01:01.000Z</time>
      </trkpt>
      <trkpt lat="44.55417" lon="4.71287">
        <ele>76.07</ele>
        <time>2019-05-27T12:01:06.000Z</time>
      </trkpt>
      <trkpt lat="44.55408" lon="4.71312">
        <ele>76.13</ele>
        <time>2019-05-27T12:01:11.000Z</time>
      </trkpt>
      <trkpt lat="44.5541" lon="4.71349">
        <ele>76.07</ele>
        <time>2019-05-27T12:01:16.000Z</time>
      </trkpt>
      <trkpt lat="44.55385" lon="4.71358">
        <ele>72.4</ele>
        <time>2019-05-27T12:01:21.000Z</time>
      </trkpt>
      <trkpt lat="44.55355" lon="4.71362">
        <ele>73.07</ele>
        <time>2019-05-27T12:01:26.000Z</time>
      </trkpt>
      <trkpt lat="44.55325" lon="4.71371">
        <ele>73.12</ele>
        <time>2019-05-27T12:01:31.000Z</time>
      </trkpt>
      <trkpt lat="44.55296" lon="4.71383">
        <ele>74.06</ele>
        <time>2019-05-27T12:01:36.000Z</time>
      </trkpt>
      <trkpt lat="44.55263" lon="4.71399">
        <ele>73.13</ele>
        <time>2019-05-27T12:01:41.000Z</time>
      </trkpt>
      <trkpt lat="44.5523" lon="4.71411">
        <ele>73.08</ele>
        <time>2019-05-27T12:01:46.000Z</time>
      </trkpt>
      <trkpt lat="44.55197" lon="4.71423">
        <ele>73.08</ele>
        <time>2019-05-27T12:01:51.000Z</time>
      </trkpt>
      <trkpt lat="44.5516" lon="4.71437">
        <ele>73.13</ele>
        <time>2019-05-27T12:01:56.000Z</time>
      </trkpt>
      <trkpt lat="44.55125" lon="4.71448">
        <ele>73.32</ele>
        <time>2019-05-27T12:02:01.000Z</time>
      </trkpt>
      <trkpt lat="44.55089" lon="4.71458">
        <ele>73.26</ele>
        <time>2019-05-27T12:02:06.000Z</time>
      </trkpt>
      <trkpt lat="44.55056" lon="4.71473">
        <ele>74.82</ele>
        <time>2019-05-27T12:02:11.000Z</time>
      </trkpt>
      <trkpt lat="44.5503" lon="4.71504">
        <ele>75.26</ele>
        <time>2019-05-27T12:02:16.000Z</time>
      </trkpt>
      <trkpt lat="44.55011" lon="4.71536">
        <ele>75.08</ele>
        <time>2019-05-27T12:02:21.000Z</time>
      </trkpt>
      <trkpt lat="44.54991" lon="4.71561">
        <ele>74.09</ele>
        <time>2019-05-27T12:02:26.000Z</time>
      </trkpt>
      <trkpt lat="44.54962" lon="4.71577">
        <ele>73.83</ele>
        <time>2019-05-27T12:02:31.000Z</time>
      </trkpt>
      <trkpt lat="44.54931" lon="4.71594">
        <ele>74.83</ele>
        <time>2019-05-27T12:02:36.000Z</time>
      </trkpt>
      <trkpt lat="44.54903" lon="4.71617">
        <ele>75.09</ele>
        <time>2019-05-27T12:02:41.000Z</time>
      </trkpt>
      <trkpt lat="44.54882" lon="4.71646">
        <ele>74.89</ele>
        <time>2019-05-27T12:02:46.000Z</time>
      </trkpt>
      <trkpt lat="44.54853" lon="4.71667">
        <ele>75.08</ele>
        <time>2019-05-27T12:02:51.000Z</time>
      </trkpt>
      <trkpt lat="44.54819" lon="4.71675">
        <ele>75.31</ele>
        <time>2019-05-27T12:02:56.000Z</time>
      </trkpt>
      <trkpt lat="44.54784" lon="4.71673">
        <ele>74.89</ele>
        <time>2019-05-27T12:03:01.000Z</time>
      </trkpt>
      <trkpt lat="44.54748" lon="4.71671">
        <ele>75.08</ele>
        <time>2019-05-27T12:03:06.000Z</time>
      </trkpt>
      <trkpt lat="44.54713" lon="4.7168">
        <ele>75.08</ele>
        <time>2019-05-27T12:03:11.000Z</time>
      </trkpt>
      <trkpt lat="44.54677" lon="4.71693">
        <ele>76.06</ele>
        <time>2019-05-27T12:03:16.000Z</time>
      </trkpt>
      <trkpt lat="44.54642" lon="4.71709">
        <ele>76.03</ele>
        <time>2019-05-27T12:03:21.000Z</time>
      </trkpt>
      <trkpt lat="44.54606" lon="4.71725">
        <ele>77.06</ele>
        <time>2019-05-27T12:03:26.000Z</time>
      </trkpt>
      <trkpt lat="44.54572" lon="4.71745">
        <ele>76.08</ele>
        <time>2019-05-27T12:03:31.000Z</time>
      </trkpt>
      <trkpt lat="44.54537" lon="4.71766">
        <ele>76.08</ele>
        <time>2019-05-27T12:03:36.000Z</time>
      </trkpt>
      <trkpt lat="44.54501" lon="4.71787">
        <ele>75.27</ele>
        <time>2019-05-27T12:03:41.000Z</time>
      </trkpt>
      <trkpt lat="44.54465" lon="4.71807">
        <ele>77.07</ele>
        <time>2019-05-27T12:03:46.000Z</time>
      </trkpt>
      <trkpt lat="44.5443" lon="4.71828">
        <ele>77.83</ele>
        <time>2019-05-27T12:03:51.000Z</time>
      </trkpt>
      <trkpt lat="44.54396" lon="4.71848">
        <ele>77.1</ele>
        <time>2019-05-27T12:03:56.000Z</time>
      </trkpt>
      <trkpt lat="44.54363" lon="4.71868">
        <ele>76.09</ele>
        <time>2019-05-27T12:04:01.000Z</time>
      </trkpt>
      <trkpt lat="44.5433" lon="4.71887">
        <ele>77.08</ele>
        <time>2019-05-27T12:04:06.000Z</time>
      </trkpt>
      <trkpt lat="44.54295" lon="4.71906">
        <ele>75.35</ele>
        <time>2019-05-27T12:04:11.000Z</time>
      </trkpt>
      <trkpt lat="44.54259" lon="4.71928">
        <ele>75.08</ele>
        <time>2019-05-27T12:04:16.000Z</time>
      </trkpt>
      <trkpt lat="44.54223" lon="4.71947">
        <ele>76.04</ele>
        <time>2019-05-27T12:04:21.000Z</time>
      </trkpt>
      <trkpt lat="44.54188" lon="4.71967">
        <ele>76.28</ele>
        <time>2019-05-27T12:04:26.000Z</time>
      </trkpt>
      <trkpt lat="44.54152" lon="4.71987">
        <ele>76.15</ele>
        <time>2019-05-27T12:04:31.000Z</time>
      </trkpt>
      <trkpt lat="44.54116" lon="4.72008">
        <ele>76.09</ele>
        <time>2019-05-27T12:04:36.000Z</time>
      </trkpt>
      <trkpt lat="44.54081" lon="4.72027">
        <ele>76.84</ele>
        <time>2019-05-27T12:04:41.000Z</time>
      </trkpt>
      <trkpt lat="44.54047" lon="4.72047">
        <ele>77.33</ele>
        <time>2019-05-27T12:04:46.000Z</time>
      </trkpt>
      <trkpt lat="44.54014" lon="4.72066">
        <ele>77.1</ele>
        <time>2019-05-27T12:04:51.000Z</time>
      </trkpt>
      <trkpt lat="44.53981" lon="4.72084">
        <ele>76.9</ele>
        <time>2019-05-27T12:04:56.000Z</time>
      </trkpt>
      <trkpt lat="44.53949" lon="4.72103">
        <ele>76.14</ele>
        <time>2019-05-27T12:05:01.000Z</time>
      </trkpt>
      <trkpt lat="44.53916" lon="4.72112">
        <ele>78.03</ele>
        <time>2019-05-27T12:05:06.000Z</time>
      </trkpt>
      <trkpt lat="44.53885" lon="4.72094">
        <ele>77.09</ele>
        <time>2019-05-27T12:05:11.000Z</time>
      </trkpt>
      <trkpt lat="44.53855" lon="4.72081">
        <ele>77.09</ele>
        <time>2019-05-27T12:05:16.000Z</time>
      </trkpt>
      <trkpt lat="44.53824" lon="4.72077">
        <ele>78.15</ele>
        <time>2019-05-27T12:05:21.000Z</time>
      </trkpt>
      <trkpt lat="44.53794" lon="4.72076">
        <ele>78.84</ele>
        <time>2019-05-27T12:05:26.000Z</time>
      </trkpt>
      <trkpt lat="44.53761" lon="4.72081">
        <ele>79.84</ele>
        <time>2019-05-27T12:05:31.000Z</time>
      </trkpt>
      <trkpt lat="44.53727" lon="4.72086">
        <ele>80.84</ele>
        <time>2019-05-27T12:05:36.000Z</time>
      </trkpt>
      <trkpt lat="44.53693" lon="4.721">
        <ele>81.14</ele>
        <time>2019-05-27T12:05:41.000Z</time>
      </trkpt>
      <trkpt lat="44.53664" lon="4.72124">
        <ele>83.07</ele>
        <time>2019-05-27T12:05:46.000Z</time>
      </trkpt>
      <trkpt lat="44.53639" lon="4.72156">
        <ele>77.83</ele>
        <time>2019-05-27T12:05:51.000Z</time>
      </trkpt>
      <trkpt lat="44.53613" lon="4.72188">
        <ele>76.09</ele>
        <time>2019-05-27T12:05:56.000Z</time>
      </trkpt>
      <trkpt lat="44.53586" lon="4.72219">
        <ele>77.09</ele>
        <time>2019-05-27T12:06:01.000Z</time>
      </trkpt>
      <trkpt lat="44.53559" lon="4.72251">
        <ele>76.15</ele>
        <time>2019-05-27T12:06:06.000Z</time>
      </trkpt>
      <trkpt lat="44.53535" lon="4.72285">
        <ele>76.56</ele>
        <time>2019-05-27T12:06:11.000Z</time>
      </trkpt>
      <trkpt lat="44.53514" lon="4.72318">
        <ele>75.97</ele>
        <time>2019-05-27T12:06:16.000Z</time>
      </trkpt>
      <trkpt lat="44.53495" lon="4.72354">
        <ele>79.03</ele>
        <time>2019-05-27T12:06:21.000Z</time>
      </trkpt>
      <trkpt lat="44.53486" lon="4.72384">
        <ele>78.11</ele>
        <time>2019-05-27T12:06:26.000Z</time>
      </trkpt>
      <trkpt lat="44.53462" lon="4.72381">
        <ele>78.35</ele>
        <time>2019-05-27T12:06:31.000Z</time>
      </trkpt>
      <trkpt lat="44.5345" lon="4.72354">
        <ele>80.07</ele>
        <time>2019-05-27T12:06:36.000Z</time>
      </trkpt>
      <trkpt lat="44.53432" lon="4.72332">
        <ele>81.09</ele>
        <time>2019-05-27T12:06:41.000Z</time>
      </trkpt>
      <trkpt lat="44.53418" lon="4.72312">
        <ele>81.09</ele>
        <time>2019-05-27T12:06:46.000Z</time>
      </trkpt>
      <trkpt lat="44.53409" lon="4.72298">
        <ele>82.27</ele>
        <time>2019-05-27T12:06:51.000Z</time>
      </trkpt>
      <trkpt lat="44.53413" lon="4.72313">
        <ele>86.08</ele>
        <time>2019-05-27T12:09:01.000Z</time>
      </trkpt>
      <trkpt lat="44.53419" lon="4.72334">
        <ele>86.09</ele>
        <time>2019-05-27T12:09:06.000Z</time>
      </trkpt>
      <trkpt lat="44.53425" lon="4.72352">
        <ele>85.1</ele>
        <time>2019-05-27T12:09:11.000Z</time>
      </trkpt>
      <trkpt lat="44.53431" lon="4.72364">
        <ele>86.33</ele>
        <time>2019-05-27T12:09:16.000Z</time>
      </trkpt>
      <trkpt lat="44.5344" lon="4.7237">
        <ele>84.1</ele>
        <time>2019-05-27T12:12:12.000Z</time>
      </trkpt>
      <trkpt lat="44.53437" lon="4.72383">
        <ele>85.08</ele>
        <time>2019-05-27T12:12:17.000Z</time>
      </trkpt>
      <trkpt lat="44.53431" lon="4.72402">
        <ele>86.03</ele>
        <time>2019-05-27T12:12:22.000Z</time>
      </trkpt>
      <trkpt lat="44.53435" lon="4.72426">
        <ele>86.09</ele>
        <time>2019-05-27T12:12:27.000Z</time>
      </trkpt>
      <trkpt lat="44.53439" lon="4.72447">
        <ele>86.09</ele>
        <time>2019-05-27T12:12:32.000Z</time>
      </trkpt>
      <trkpt lat="44.53441" lon="4.72464">
        <ele>86.85</ele>
        <time>2019-05-27T12:12:37.000Z</time>
      </trkpt>
      <trkpt lat="44.53447" lon="4.72476">
        <ele>90.09</ele>
        <time>2019-05-27T12:13:30.000Z</time>
      </trkpt>
      <trkpt lat="44.53453" lon="4.72507">
        <ele>90.34</ele>
        <time>2019-05-27T12:13:35.000Z</time>
      </trkpt>
      <trkpt lat="44.53461" lon="4.72539">
        <ele>91.83</ele>
        <time>2019-05-27T12:13:40.000Z</time>
      </trkpt>
      <trkpt lat="44.53466" lon="4.72568">
        <ele>91.08</ele>
        <time>2019-05-27T12:13:45.000Z</time>
      </trkpt>
      <trkpt lat="44.53474" lon="4.72604">
        <ele>90.16</ele>
        <time>2019-05-27T12:13:50.000Z</time>
      </trkpt>
      <trkpt lat="44.53482" lon="4.7264">
        <ele>90.05</ele>
        <time>2019-05-27T12:13:55.000Z</time>
      </trkpt>
      <trkpt lat="44.53489" lon="4.72678">
        <ele>88.86</ele>
        <time>2019-05-27T12:14:00.000Z</time>
      </trkpt>
      <trkpt lat="44.53501" lon="4.72718">
        <ele>88.1</ele>
        <time>2019-05-27T12:14:05.000Z</time>
      </trkpt>
      <trkpt lat="44.5351" lon="4.7276">
        <ele>89.04</ele>
        <time>2019-05-27T12:14:10.000Z</time>
      </trkpt>
      <trkpt lat="44.5351" lon="4.72798">
        <ele>89.04</ele>
        <time>2019-05-27T12:14:15.000Z</time>
      </trkpt>
      <trkpt lat="44.53508" lon="4.72834">
        <ele>86.18</ele>
        <time>2019-05-27T12:14:20.000Z</time>
      </trkpt>
      <trkpt lat="44.53505" lon="4.72872">
        <ele>85.35</ele>
        <time>2019-05-27T12:14:25.000Z</time>
      </trkpt>
      <trkpt lat="44.53494" lon="4.72911">
        <ele>85.29</ele>
        <time>2019-05-27T12:14:30.000Z</time>
      </trkpt>
      <trkpt lat="44.53486" lon="4.72947">
        <ele>86.1</ele>
        <time>2019-05-27T12:14:35.000Z</time>
      </trkpt>
      <trkpt lat="44.53474" lon="4.72977">
        <ele>87.04</ele>
        <time>2019-05-27T12:14:40.000Z</time>
      </trkpt>
      <trkpt lat="44.53467" lon="4.73011">
        <ele>87.1</ele>
        <time>2019-05-27T12:14:45.000Z</time>
      </trkpt>
      <trkpt lat="44.53483" lon="4.73039">
        <ele>86.16</ele>
        <time>2019-05-27T12:14:50.000Z</time>
      </trkpt>
      <trkpt lat="44.53506" lon="4.73038">
        <ele>87.1</ele>
        <time>2019-05-27T12:14:55.000Z</time>
      </trkpt>
      <trkpt lat="44.53522" lon="4.73008">
        <ele>86.12</ele>
        <time>2019-05-27T12:15:00.000Z</time>
      </trkpt>
      <trkpt lat="44.53532" lon="4.72979">
        <ele>86.79</ele>
        <time>2019-05-27T12:15:05.000Z</time>
      </trkpt>
      <trkpt lat="44.53523" lon="4.72974">
        <ele>87.1</ele>
        <time>2019-05-27T12:15:55.000Z</time>
      </trkpt>
      <trkpt lat="44.53513" lon="4.72967">
        <ele>87.1</ele>
        <time>2019-05-27T12:16:00.000Z</time>
      </trkpt>
      <trkpt lat="44.53494" lon="4.72949">
        <ele>86.1</ele>
        <time>2019-05-27T12:16:05.000Z</time>
      </trkpt>
      <trkpt lat="44.535" lon="4.72915">
        <ele>86.11</ele>
        <time>2019-05-27T12:16:10.000Z</time>
      </trkpt>
      <trkpt lat="44.5351" lon="4.72882">
        <ele>87.29</ele>
        <time>2019-05-27T12:16:15.000Z</time>
      </trkpt>
      <trkpt lat="44.53516" lon="4.72848">
        <ele>87.1</ele>
        <time>2019-05-27T12:16:20.000Z</time>
      </trkpt>
      <trkpt lat="44.53524" lon="4.72824">
        <ele>87.11</ele>
        <time>2019-05-27T12:16:25.000Z</time>
      </trkpt>
      <trkpt lat="44.53529" lon="4.72814">
        <ele>85.11</ele>
        <time>2019-05-27T12:16:31.000Z</time>
      </trkpt>
      <trkpt lat="44.53518" lon="4.72795">
        <ele>85.1</ele>
        <time>2019-05-27T12:16:36.000Z</time>
      </trkpt>
      <trkpt lat="44.53517" lon="4.72767">
        <ele>84.41</ele>
        <time>2019-05-27T12:16:41.000Z</time>
      </trkpt>
      <trkpt lat="44.53521" lon="4.72745">
        <ele>84.11</ele>
        <time>2019-05-27T12:16:46.000Z</time>
      </trkpt>
      <trkpt lat="44.53548" lon="4.72721">
        <ele>82.17</ele>
        <time>2019-05-27T12:16:51.000Z</time>
      </trkpt>
      <trkpt lat="44.5358" lon="4.727">
        <ele>82.16</ele>
        <time>2019-05-27T12:16:56.000Z</time>
      </trkpt>
      <trkpt lat="44.5361" lon="4.72685">
        <ele>82.34</ele>
        <time>2019-05-27T12:17:01.000Z</time>
      </trkpt>
      <trkpt lat="44.53639" lon="4.72668">
        <ele>79.18</ele>
        <time>2019-05-27T12:17:06.000Z</time>
      </trkpt>
      <trkpt lat="44.53669" lon="4.72653">
        <ele>78.1</ele>
        <time>2019-05-27T12:17:11.000Z</time>
      </trkpt>
      <trkpt lat="44.53698" lon="4.72636">
        <ele>79.14</ele>
        <time>2019-05-27T12:17:16.000Z</time>
      </trkpt>
      <trkpt lat="44.53726" lon="4.72623">
        <ele>80.83</ele>
        <time>2019-05-27T12:17:21.000Z</time>
      </trkpt>
      <trkpt lat="44.53755" lon="4.72605">
        <ele>80.2</ele>
        <time>2019-05-27T12:17:26.000Z</time>
      </trkpt>
      <trkpt lat="44.53783" lon="4.72589">
        <ele>81.84</ele>
        <time>2019-05-27T12:17:31.000Z</time>
      </trkpt>
      <trkpt lat="44.53809" lon="4.72574">
        <ele>80.35</ele>
        <time>2019-05-27T12:17:36.000Z</time>
      </trkpt>
      <trkpt lat="44.53838" lon="4.72558">
        <ele>81.09</ele>
        <time>2019-05-27T12:17:41.000Z</time>
      </trkpt>
      <trkpt lat="44.53865" lon="4.72542">
        <ele>82.03</ele>
        <time>2019-05-27T12:17:46.000Z</time>
      </trkpt>
      <trkpt lat="44.53891" lon="4.72529">
        <ele>81.85</ele>
        <time>2019-05-27T12:17:51.000Z</time>
      </trkpt>
      <trkpt lat="44.53919" lon="4.72512">
        <ele>80.86</ele>
        <time>2019-05-27T12:17:56.000Z</time>
      </trkpt>
      <trkpt lat="44.53946" lon="4.72495">
        <ele>81.9</ele>
        <time>2019-05-27T12:18:01.000Z</time>
      </trkpt>
      <trkpt lat="44.53972" lon="4.7248">
        <ele>80.36</ele>
        <time>2019-05-27T12:18:06.000Z</time>
      </trkpt>
      <trkpt lat="44.53995" lon="4.72467">
        <ele>80.09</ele>
        <time>2019-05-27T12:18:11.000Z</time>
      </trkpt>
      <trkpt lat="44.54017" lon="4.72455">
        <ele>80.33</ele>
        <time>2019-05-27T12:18:16.000Z</time>
      </trkpt>
      <trkpt lat="44.54039" lon="4.72442">
        <ele>79.34</ele>
        <time>2019-05-27T12:18:21.000Z</time>
      </trkpt>
      <trkpt lat="44.54063" lon="4.7243">
        <ele>81.03</ele>
        <time>2019-05-27T12:18:26.000Z</time>
      </trkpt>
      <trkpt lat="44.54087" lon="4.72417">
        <ele>81.84</ele>
        <time>2019-05-27T12:18:31.000Z</time>
      </trkpt>
      <trkpt lat="44.54111" lon="4.72404">
        <ele>83.09</ele>
        <time>2019-05-27T12:18:36.000Z</time>
      </trkpt>
      <trkpt lat="44.54134" lon="4.72389">
        <ele>83.09</ele>
        <time>2019-05-27T12:18:41.000Z</time>
      </trkpt>
      <trkpt lat="44.54161" lon="4.72373">
        <ele>82.15</ele>
        <time>2019-05-27T12:18:46.000Z</time>
      </trkpt>
      <trkpt lat="44.54187" lon="4.72359">
        <ele>82.15</ele>
        <time>2019-05-27T12:18:51.000Z</time>
      </trkpt>
      <trkpt lat="44.54213" lon="4.72345">
        <ele>82.09</ele>
        <time>2019-05-27T12:18:56.000Z</time>
      </trkpt>
      <trkpt lat="44.54237" lon="4.72331">
        <ele>81.9</ele>
        <time>2019-05-27T12:19:01.000Z</time>
      </trkpt>
      <trkpt lat="44.54263" lon="4.72316">
        <ele>81.1</ele>
        <time>2019-05-27T12:19:06.000Z</time>
      </trkpt>
      <trkpt lat="44.54287" lon="4.72302">
        <ele>80.85</ele>
        <time>2019-05-27T12:19:11.000Z</time>
      </trkpt>
      <trkpt lat="44.54311" lon="4.72288">
        <ele>80.1</ele>
        <time>2019-05-27T12:19:16.000Z</time>
      </trkpt>
      <trkpt lat="44.54336" lon="4.72275">
        <ele>80.27</ele>
        <time>2019-05-27T12:19:21.000Z</time>
      </trkpt>
      <trkpt lat="44.54361" lon="4.72259">
        <ele>81.96</ele>
        <time>2019-05-27T12:19:26.000Z</time>
      </trkpt>
      <trkpt lat="44.54384" lon="4.72243">
        <ele>81.84</ele>
        <time>2019-05-27T12:19:31.000Z</time>
      </trkpt>
      <trkpt lat="44.54407" lon="4.72231">
        <ele>80.16</ele>
        <time>2019-05-27T12:19:36.000Z</time>
      </trkpt>
      <trkpt lat="44.5443" lon="4.72219">
        <ele>79.85</ele>
        <time>2019-05-27T12:19:41.000Z</time>
      </trkpt>
      <trkpt lat="44.54451" lon="4.72207">
        <ele>80.84</ele>
        <time>2019-05-27T12:19:46.000Z</time>
      </trkpt>
      <trkpt lat="44.54473" lon="4.72197">
        <ele>80.34</ele>
        <time>2019-05-27T12:19:51.000Z</time>
      </trkpt>
      <trkpt lat="44.54495" lon="4.72183">
        <ele>80.04</ele>
        <time>2019-05-27T12:19:56.000Z</time>
      </trkpt>
      <trkpt lat="44.54519" lon="4.7217">
        <ele>79.84</ele>
        <time>2019-05-27T12:20:01.000Z</time>
      </trkpt>
      <trkpt lat="44.54541" lon="4.72157">
        <ele>81.07</ele>
        <time>2019-05-27T12:20:06.000Z</time>
      </trkpt>
      <trkpt lat="44.54565" lon="4.72144">
        <ele>80.09</ele>
        <time>2019-05-27T12:20:11.000Z</time>
      </trkpt>
      <trkpt lat="44.5459" lon="4.72132">
        <ele>81.02</ele>
        <time>2019-05-27T12:20:16.000Z</time>
      </trkpt>
      <trkpt lat="44.54615" lon="4.72115">
        <ele>82.08</ele>
        <time>2019-05-27T12:20:21.000Z</time>
      </trkpt>
      <trkpt lat="44.54642" lon="4.72099">
        <ele>80.38</ele>
        <time>2019-05-27T12:20:26.000Z</time>
      </trkpt>
      <trkpt lat="44.54668" lon="4.72085">
        <ele>80.27</ele>
        <time>2019-05-27T12:20:31.000Z</time>
      </trkpt>
      <trkpt lat="44.54694" lon="4.72071">
        <ele>80.1</ele>
        <time>2019-05-27T12:20:36.000Z</time>
      </trkpt>
      <trkpt lat="44.54718" lon="4.72056">
        <ele>78.16</ele>
        <time>2019-05-27T12:20:41.000Z</time>
      </trkpt>
      <trkpt lat="44.54744" lon="4.72043">
        <ele>80.77</ele>
        <time>2019-05-27T12:20:46.000Z</time>
      </trkpt>
      <trkpt lat="44.54769" lon="4.72021">
        <ele>83.06</ele>
        <time>2019-05-27T12:20:51.000Z</time>
      </trkpt>
      <trkpt lat="44.54791" lon="4.72">
        <ele>83.08</ele>
        <time>2019-05-27T12:20:56.000Z</time>
      </trkpt>
      <trkpt lat="44.54811" lon="4.71979">
        <ele>83.08</ele>
        <time>2019-05-27T12:21:01.000Z</time>
      </trkpt>
      <trkpt lat="44.54832" lon="4.71962">
        <ele>83.07</ele>
        <time>2019-05-27T12:21:06.000Z</time>
      </trkpt>
      <trkpt lat="44.54854" lon="4.71952">
        <ele>84.3</ele>
        <time>2019-05-27T12:21:11.000Z</time>
      </trkpt>
      <trkpt lat="44.54862" lon="4.71962">
        <ele>83.08</ele>
        <time>2019-05-27T12:21:16.000Z</time>
      </trkpt>
      <trkpt lat="44.54866" lon="4.71947">
        <ele>81.02</ele>
        <time>2019-05-27T12:22:35.000Z</time>
      </trkpt>
      <trkpt lat="44.54879" lon="4.71929">
        <ele>82.08</ele>
        <time>2019-05-27T12:22:40.000Z</time>
      </trkpt>
      <trkpt lat="44.54896" lon="4.71921">
        <ele>83.27</ele>
        <time>2019-05-27T12:22:45.000Z</time>
      </trkpt>
      <trkpt lat="44.54915" lon="4.71912">
        <ele>82.1</ele>
        <time>2019-05-27T12:22:50.000Z</time>
      </trkpt>
      <trkpt lat="44.54936" lon="4.71901">
        <ele>81.88</ele>
        <time>2019-05-27T12:22:55.000Z</time>
      </trkpt>
      <trkpt lat="44.54959" lon="4.71887">
        <ele>81.08</ele>
        <time>2019-05-27T12:23:00.000Z</time>
      </trkpt>
      <trkpt lat="44.54982" lon="4.71875">
        <ele>82.07</ele>
        <time>2019-05-27T12:23:05.000Z</time>
      </trkpt>
      <trkpt lat="44.55006" lon="4.71875">
        <ele>81.08</ele>
        <time>2019-05-27T12:23:10.000Z</time>
      </trkpt>
      <trkpt lat="44.55023" lon="4.71904">
        <ele>81.02</ele>
        <time>2019-05-27T12:23:15.000Z</time>
      </trkpt>
      <trkpt lat="44.55038" lon="4.71934">
        <ele>81.28</ele>
        <time>2019-05-27T12:23:20.000Z</time>
      </trkpt>
      <trkpt lat="44.55051" lon="4.71966">
        <ele>82.83</ele>
        <time>2019-05-27T12:23:25.000Z</time>
      </trkpt>
      <trkpt lat="44.55065" lon="4.71996">
        <ele>82.33</ele>
        <time>2019-05-27T12:23:30.000Z</time>
      </trkpt>
      <trkpt lat="44.55078" lon="4.72026">
        <ele>82.19</ele>
        <time>2019-05-27T12:23:35.000Z</time>
      </trkpt>
      <trkpt lat="44.55093" lon="4.72056">
        <ele>84.58</ele>
        <time>2019-05-27T12:23:40.000Z</time>
      </trkpt>
      <trkpt lat="44.55107" lon="4.72082">
        <ele>83.39</ele>
        <time>2019-05-27T12:23:45.000Z</time>
      </trkpt>
      <trkpt lat="44.55119" lon="4.72107">
        <ele>81.33</ele>
        <time>2019-05-27T12:23:50.000Z</time>
      </trkpt>
      <trkpt lat="44.55133" lon="4.72137">
        <ele>81.13</ele>
        <time>2019-05-27T12:23:55.000Z</time>
      </trkpt>
      <trkpt lat="44.55147" lon="4.72165">
        <ele>80.14</ele>
        <time>2019-05-27T12:24:00.000Z</time>
      </trkpt>
      <trkpt lat="44.55163" lon="4.72196">
        <ele>80.07</ele>
        <time>2019-05-27T12:24:05.000Z</time>
      </trkpt>
      <trkpt lat="44.55177" lon="4.72225">
        <ele>78.39</ele>
        <time>2019-05-27T12:24:10.000Z</time>
      </trkpt>
      <trkpt lat="44.55191" lon="4.72255">
        <ele>79.06</ele>
        <time>2019-05-27T12:24:15.000Z</time>
      </trkpt>
      <trkpt lat="44.55207" lon="4.72287">
        <ele>80.08</ele>
        <time>2019-05-27T12:24:20.000Z</time>
      </trkpt>
      <trkpt lat="44.55223" lon="4.72318">
        <ele>80.08</ele>
        <time>2019-05-27T12:24:25.000Z</time>
      </trkpt>
      <trkpt lat="44.55239" lon="4.7235">
        <ele>81.82</ele>
        <time>2019-05-27T12:24:30.000Z</time>
      </trkpt>
      <trkpt lat="44.55253" lon="4.72381">
        <ele>81.1</ele>
        <time>2019-05-27T12:24:35.000Z</time>
      </trkpt>
      <trkpt lat="44.55267" lon="4.7241">
        <ele>80.14</ele>
        <time>2019-05-27T12:24:40.000Z</time>
      </trkpt>
      <trkpt lat="44.55281" lon="4.72439">
        <ele>81.02</ele>
        <time>2019-05-27T12:24:45.000Z</time>
      </trkpt>
      <trkpt lat="44.55296" lon="4.7247">
        <ele>79.9</ele>
        <time>2019-05-27T12:24:50.000Z</time>
      </trkpt>
      <trkpt lat="44.5531" lon="4.725">
        <ele>81.08</ele>
        <time>2019-05-27T12:24:55.000Z</time>
      </trkpt>
      <trkpt lat="44.55325" lon="4.72532">
        <ele>79.09</ele>
        <time>2019-05-27T12:25:00.000Z</time>
      </trkpt>
      <trkpt lat="44.55341" lon="4.72564">
        <ele>80.02</ele>
        <time>2019-05-27T12:25:05.000Z</time>
      </trkpt>
      <trkpt lat="44.55357" lon="4.72595">
        <ele>82.07</ele>
        <time>2019-05-27T12:25:10.000Z</time>
      </trkpt>
      <trkpt lat="44.55372" lon="4.72627">
        <ele>81.15</ele>
        <time>2019-05-27T12:25:15.000Z</time>
      </trkpt>
      <trkpt lat="44.55387" lon="4.72659">
        <ele>80.33</ele>
        <time>2019-05-27T12:25:20.000Z</time>
      </trkpt>
      <trkpt lat="44.55402" lon="4.72689">
        <ele>80.08</ele>
        <time>2019-05-27T12:25:25.000Z</time>
      </trkpt>
      <trkpt lat="44.55419" lon="4.7272">
        <ele>80.83</ele>
        <time>2019-05-27T12:25:30.000Z</time>
      </trkpt>
      <trkpt lat="44.55433" lon="4.72753">
        <ele>80.1</ele>
        <time>2019-05-27T12:25:35.000Z</time>
      </trkpt>
      <trkpt lat="44.55449" lon="4.72786">
        <ele>80.33</ele>
        <time>2019-05-27T12:25:40.000Z</time>
      </trkpt>
      <trkpt lat="44.55463" lon="4.72818">
        <ele>80.1</ele>
        <time>2019-05-27T12:25:45.000Z</time>
      </trkpt>
      <trkpt lat="44.55474" lon="4.72853">
        <ele>79.1</ele>
        <time>2019-05-27T12:25:50.000Z</time>
      </trkpt>
      <trkpt lat="44.55485" lon="4.7289">
        <ele>80.82</ele>
        <time>2019-05-27T12:25:55.000Z</time>
      </trkpt>
      <trkpt lat="44.55497" lon="4.72926">
        <ele>81.1</ele>
        <time>2019-05-27T12:26:00.000Z</time>
      </trkpt>
      <trkpt lat="44.55507" lon="4.72962">
        <ele>80.1</ele>
        <time>2019-05-27T12:26:05.000Z</time>
      </trkpt>
      <trkpt lat="44.55507" lon="4.72995">
        <ele>80.09</ele>
        <time>2019-05-27T12:26:10.000Z</time>
      </trkpt>
      <trkpt lat="44.55509" lon="4.73033">
        <ele>81.02</ele>
        <time>2019-05-27T12:26:15.000Z</time>
      </trkpt>
      <trkpt lat="44.55515" lon="4.73078">
        <ele>79.1</ele>
        <time>2019-05-27T12:26:20.000Z</time>
      </trkpt>
      <trkpt lat="44.55521" lon="4.73118">
        <ele>79.09</ele>
        <time>2019-05-27T12:26:25.000Z</time>
      </trkpt>
      <trkpt lat="44.55525" lon="4.73158">
        <ele>79.28</ele>
        <time>2019-05-27T12:26:30.000Z</time>
      </trkpt>
      <trkpt lat="44.55529" lon="4.73198">
        <ele>81.02</ele>
        <time>2019-05-27T12:26:35.000Z</time>
      </trkpt>
      <trkpt lat="44.55531" lon="4.73239">
        <ele>81.28</ele>
        <time>2019-05-27T12:26:40.000Z</time>
      </trkpt>
      <trkpt lat="44.55531" lon="4.73278">
        <ele>80.14</ele>
        <time>2019-05-27T12:26:45.000Z</time>
      </trkpt>
      <trkpt lat="44.5553" lon="4.73317">
        <ele>79.15</ele>
        <time>2019-05-27T12:26:50.000Z</time>
      </trkpt>
      <trkpt lat="44.55529" lon="4.73358">
        <ele>80.07</ele>
        <time>2019-05-27T12:26:55.000Z</time>
      </trkpt>
      <trkpt lat="44.55526" lon="4.73395">
        <ele>80.09</ele>
        <time>2019-05-27T12:27:00.000Z</time>
      </trkpt>
      <trkpt lat="44.55523" lon="4.73432">
        <ele>79.34</ele>
        <time>2019-05-27T12:27:05.000Z</time>
      </trkpt>
      <trkpt lat="44.55518" lon="4.7347">
        <ele>79.04</ele>
        <time>2019-05-27T12:27:10.000Z</time>
      </trkpt>
      <trkpt lat="44.55511" lon="4.73508">
        <ele>78.14</ele>
        <time>2019-05-27T12:27:15.000Z</time>
      </trkpt>
      <trkpt lat="44.55504" lon="4.73543">
        <ele>78.14</ele>
        <time>2019-05-27T12:27:20.000Z</time>
      </trkpt>
      <trkpt lat="44.55496" lon="4.73578">
        <ele>81.01</ele>
        <time>2019-05-27T12:27:25.000Z</time>
      </trkpt>
      <trkpt lat="44.55486" lon="4.7361">
        <ele>79.11</ele>
        <time>2019-05-27T12:27:30.000Z</time>
      </trkpt>
      <trkpt lat="44.55465" lon="4.73636">
        <ele>78.85</ele>
        <time>2019-05-27T12:27:35.000Z</time>
      </trkpt>
      <trkpt lat="44.55454" lon="4.73675">
        <ele>80.14</ele>
        <time>2019-05-27T12:27:40.000Z</time>
      </trkpt>
      <trkpt lat="44.55444" lon="4.73715">
        <ele>80.09</ele>
        <time>2019-05-27T12:27:45.000Z</time>
      </trkpt>
      <trkpt lat="44.55432" lon="4.73753">
        <ele>81.09</ele>
        <time>2019-05-27T12:27:50.000Z</time>
      </trkpt>
      <trkpt lat="44.55422" lon="4.73794">
        <ele>79.22</ele>
        <time>2019-05-27T12:27:55.000Z</time>
      </trkpt>
      <trkpt lat="44.55414" lon="4.73836">
        <ele>79.85</ele>
        <time>2019-05-27T12:28:00.000Z</time>
      </trkpt>
      <trkpt lat="44.55407" lon="4.73879">
        <ele>80.05</ele>
        <time>2019-05-27T12:28:05.000Z</time>
      </trkpt>
      <trkpt lat="44.55402" lon="4.7392">
        <ele>79.1</ele>
        <time>2019-05-27T12:28:10.000Z</time>
      </trkpt>
      <trkpt lat="44.55397" lon="4.73964">
        <ele>80.1</ele>
        <time>2019-05-27T12:28:15.000Z</time>
      </trkpt>
      <trkpt lat="44.55391" lon="4.74006">
        <ele>80.1</ele>
        <time>2019-05-27T12:28:20.000Z</time>
      </trkpt>
      <trkpt lat="44.55386" lon="4.74048">
        <ele>80.11</ele>
        <time>2019-05-27T12:28:25.000Z</time>
      </trkpt>
      <trkpt lat="44.55381" lon="4.74089">
        <ele>79.35</ele>
        <time>2019-05-27T12:28:30.000Z</time>
      </trkpt>
      <trkpt lat="44.55379" lon="4.74129">
        <ele>79.15</ele>
        <time>2019-05-27T12:28:35.000Z</time>
      </trkpt>
      <trkpt lat="44.55376" lon="4.74169">
        <ele>78.1</ele>
        <time>2019-05-27T12:28:40.000Z</time>
      </trkpt>
      <trkpt lat="44.55374" lon="4.74211">
        <ele>79.1</ele>
        <time>2019-05-27T12:28:45.000Z</time>
      </trkpt>
      <trkpt lat="44.5537" lon="4.74254">
        <ele>79.15</ele>
        <time>2019-05-27T12:28:50.000Z</time>
      </trkpt>
      <trkpt lat="44.55366" lon="4.74296">
        <ele>79.85</ele>
        <time>2019-05-27T12:28:55.000Z</time>
      </trkpt>
      <trkpt lat="44.55361" lon="4.74338">
        <ele>78.17</ele>
        <time>2019-05-27T12:29:00.000Z</time>
      </trkpt>
      <trkpt lat="44.55352" lon="4.7438">
        <ele>79.09</ele>
        <time>2019-05-27T12:29:05.000Z</time>
      </trkpt>
      <trkpt lat="44.55343" lon="4.74418">
        <ele>78.34</ele>
        <time>2019-05-27T12:29:10.000Z</time>
      </trkpt>
      <trkpt lat="44.55337" lon="4.74458">
        <ele>78.91</ele>
        <time>2019-05-27T12:29:15.000Z</time>
      </trkpt>
      <trkpt lat="44.55328" lon="4.74497">
        <ele>78.1</ele>
        <time>2019-05-27T12:29:20.000Z</time>
      </trkpt>
      <trkpt lat="44.5532" lon="4.7454">
        <ele>78.86</ele>
        <time>2019-05-27T12:29:25.000Z</time>
      </trkpt>
      <trkpt lat="44.55314" lon="4.74583">
        <ele>83.67</ele>
        <time>2019-05-27T12:29:30.000Z</time>
      </trkpt>
      <trkpt lat="44.55303" lon="4.74623">
        <ele>79.33</ele>
        <time>2019-05-27T12:29:35.000Z</time>
      </trkpt>
      <trkpt lat="44.55293" lon="4.74662">
        <ele>82.06</ele>
        <time>2019-05-27T12:29:40.000Z</time>
      </trkpt>
      <trkpt lat="44.55285" lon="4.74699">
        <ele>80.92</ele>
        <time>2019-05-27T12:29:45.000Z</time>
      </trkpt>
      <trkpt lat="44.55278" lon="4.74733">
        <ele>81.67</ele>
        <time>2019-05-27T12:29:50.000Z</time>
      </trkpt>
      <trkpt lat="44.55271" lon="4.74758">
        <ele>81.18</ele>
        <time>2019-05-27T12:29:55.000Z</time>
      </trkpt>
      <trkpt lat="44.55264" lon="4.74785">
        <ele>83.1</ele>
        <time>2019-05-27T12:30:00.000Z</time>
      </trkpt>
      <trkpt lat="44.55254" lon="4.74797">
        <ele>85.04</ele>
        <time>2019-05-27T12:30:05.000Z</time>
      </trkpt>
      <trkpt lat="44.55248" lon="4.74825">
        <ele>88.12</ele>
        <time>2019-05-27T12:30:10.000Z</time>
      </trkpt>
      <trkpt lat="44.55249" lon="4.74866">
        <ele>86.92</ele>
        <time>2019-05-27T12:30:15.000Z</time>
      </trkpt>
      <trkpt lat="44.55255" lon="4.74901">
        <ele>84.19</ele>
        <time>2019-05-27T12:30:20.000Z</time>
      </trkpt>
      <trkpt lat="44.55267" lon="4.74934">
        <ele>84.11</ele>
        <time>2019-05-27T12:30:25.000Z</time>
      </trkpt>
      <trkpt lat="44.55281" lon="4.74963">
        <ele>84.11</ele>
        <time>2019-05-27T12:30:30.000Z</time>
      </trkpt>
      <trkpt lat="44.55299" lon="4.74988">
        <ele>83.11</ele>
        <time>2019-05-27T12:30:35.000Z</time>
      </trkpt>
      <trkpt lat="44.55315" lon="4.75014">
        <ele>81.12</ele>
        <time>2019-05-27T12:30:40.000Z</time>
      </trkpt>
      <trkpt lat="44.55335" lon="4.75036">
        <ele>82.56</ele>
        <time>2019-05-27T12:30:45.000Z</time>
      </trkpt>
      <trkpt lat="44.55353" lon="4.75057">
        <ele>82.11</ele>
        <time>2019-05-27T12:30:50.000Z</time>
      </trkpt>
      <trkpt lat="44.55372" lon="4.75075">
        <ele>82.11</ele>
        <time>2019-05-27T12:30:55.000Z</time>
      </trkpt>
      <trkpt lat="44.55388" lon="4.75094">
        <ele>81.17</ele>
        <time>2019-05-27T12:31:00.000Z</time>
      </trkpt>
      <trkpt lat="44.55407" lon="4.75113">
        <ele>83.04</ele>
        <time>2019-05-27T12:31:05.000Z</time>
      </trkpt>
      <trkpt lat="44.55426" lon="4.75133">
        <ele>82.18</ele>
        <time>2019-05-27T12:31:10.000Z</time>
      </trkpt>
      <trkpt lat="44.55445" lon="4.75152">
        <ele>81.36</ele>
        <time>2019-05-27T12:31:15.000Z</time>
      </trkpt>
      <trkpt lat="44.55465" lon="4.75173">
        <ele>82.04</ele>
        <time>2019-05-27T12:31:20.000Z</time>
      </trkpt>
      <trkpt lat="44.55485" lon="4.75192">
        <ele>81.36</ele>
        <time>2019-05-27T12:31:25.000Z</time>
      </trkpt>
      <trkpt lat="44.55504" lon="4.75211">
        <ele>81.11</ele>
        <time>2019-05-27T12:31:30.000Z</time>
      </trkpt>
      <trkpt lat="44.55524" lon="4.75233">
        <ele>81.34</ele>
        <time>2019-05-27T12:31:35.000Z</time>
      </trkpt>
      <trkpt lat="44.55545" lon="4.75253">
        <ele>81.86</ele>
        <time>2019-05-27T12:31:40.000Z</time>
      </trkpt>
      <trkpt lat="44.55564" lon="4.75272">
        <ele>81.11</ele>
        <time>2019-05-27T12:31:45.000Z</time>
      </trkpt>
      <trkpt lat="44.55583" lon="4.75291">
        <ele>81.35</ele>
        <time>2019-05-27T12:31:50.000Z</time>
      </trkpt>
      <trkpt lat="44.55602" lon="4.75308">
        <ele>82.1</ele>
        <time>2019-05-27T12:31:55.000Z</time>
      </trkpt>
      <trkpt lat="44.5562" lon="4.75326">
        <ele>82.1</ele>
        <time>2019-05-27T12:32:00.000Z</time>
      </trkpt>
      <trkpt lat="44.55638" lon="4.75345">
        <ele>81.35</ele>
        <time>2019-05-27T12:32:05.000Z</time>
      </trkpt>
      <trkpt lat="44.55657" lon="4.75365">
        <ele>80.91</ele>
        <time>2019-05-27T12:32:10.000Z</time>
      </trkpt>
      <trkpt lat="44.55676" lon="4.75382">
        <ele>82.35</ele>
        <time>2019-05-27T12:32:15.000Z</time>
      </trkpt>
      <trkpt lat="44.55692" lon="4.75395">
        <ele>82.9</ele>
        <time>2019-05-27T12:32:20.000Z</time>
      </trkpt>
      <trkpt lat="44.55704" lon="4.75404">
        <ele>85.27</ele>
        <time>2019-05-27T12:32:25.000Z</time>
      </trkpt>
      <trkpt lat="44.55714" lon="4.75411">
        <ele>85.15</ele>
        <time>2019-05-27T12:32:30.000Z</time>
      </trkpt>
      <trkpt lat="44.55725" lon="4.75422">
        <ele>87.79</ele>
        <time>2019-05-27T12:32:35.000Z</time>
      </trkpt>
      <trkpt lat="44.55737" lon="4.75416">
        <ele>87.04</ele>
        <time>2019-05-27T12:32:54.000Z</time>
      </trkpt>
      <trkpt lat="44.5575" lon="4.75401">
        <ele>88.09</ele>
        <time>2019-05-27T12:32:59.000Z</time>
      </trkpt>
      <trkpt lat="44.55759" lon="4.75383">
        <ele>88.29</ele>
        <time>2019-05-27T12:33:04.000Z</time>
      </trkpt>
      <trkpt lat="44.55766" lon="4.75363">
        <ele>87.12</ele>
        <time>2019-05-27T12:33:09.000Z</time>
      </trkpt>
      <trkpt lat="44.55772" lon="4.75338">
        <ele>87.1</ele>
        <time>2019-05-27T12:33:14.000Z</time>
      </trkpt>
      <trkpt lat="44.55782" lon="4.75314">
        <ele>88.6</ele>
        <time>2019-05-27T12:33:19.000Z</time>
      </trkpt>
      <trkpt lat="44.55788" lon="4.75301">
        <ele>92.03</ele>
        <time>2019-05-27T12:33:25.000Z</time>
      </trkpt>
      <trkpt lat="44.55797" lon="4.75308">
        <ele>89.92</ele>
        <time>2019-05-27T12:33:30.000Z</time>
      </trkpt>
      <trkpt lat="44.55788" lon="4.75298">
        <ele>87.1</ele>
        <time>2019-05-27T12:33:45.000Z</time>
      </trkpt>
      <trkpt lat="44.55771" lon="4.7528">
        <ele>89.03</ele>
        <time>2019-05-27T12:33:50.000Z</time>
      </trkpt>
      <trkpt lat="44.5576" lon="4.75265">
        <ele>89.11</ele>
        <time>2019-05-27T12:33:55.000Z</time>
      </trkpt>
      <trkpt lat="44.5575" lon="4.75247">
        <ele>89.11</ele>
        <time>2019-05-27T12:34:00.000Z</time>
      </trkpt>
      <trkpt lat="44.55747" lon="4.75234">
        <ele>90.98</ele>
        <time>2019-05-27T12:34:10.000Z</time>
      </trkpt>
      <trkpt lat="44.55752" lon="4.75211">
        <ele>93.85</ele>
        <time>2019-05-27T12:34:15.000Z</time>
      </trkpt>
      <trkpt lat="44.55753" lon="4.75186">
        <ele>90.07</ele>
        <time>2019-05-27T12:34:20.000Z</time>
      </trkpt>
      <trkpt lat="44.55758" lon="4.75159">
        <ele>92.1</ele>
        <time>2019-05-27T12:34:25.000Z</time>
      </trkpt>
      <trkpt lat="44.55758" lon="4.75129">
        <ele>89.04</ele>
        <time>2019-05-27T12:34:30.000Z</time>
      </trkpt>
      <trkpt lat="44.55761" lon="4.75107">
        <ele>91.11</ele>
        <time>2019-05-27T12:34:35.000Z</time>
      </trkpt>
      <trkpt lat="44.55775" lon="4.75079">
        <ele>89.09</ele>
        <time>2019-05-27T12:34:40.000Z</time>
      </trkpt>
      <trkpt lat="44.55774" lon="4.75063">
        <ele>87.34</ele>
        <time>2019-05-27T12:34:45.000Z</time>
      </trkpt>
      <trkpt lat="44.55783" lon="4.75066">
        <ele>88.9</ele>
        <time>2019-05-27T12:34:51.000Z</time>
      </trkpt>
      <trkpt lat="44.55799" lon="4.75074">
        <ele>89.96</ele>
        <time>2019-05-27T12:34:56.000Z</time>
      </trkpt>
      <trkpt lat="44.55813" lon="4.75078">
        <ele>92.29</ele>
        <time>2019-05-27T12:35:01.000Z</time>
      </trkpt>
      <trkpt lat="44.55822" lon="4.75083">
        <ele>89.37</ele>
        <time>2019-05-27T12:35:06.000Z</time>
      </trkpt>
      <trkpt lat="44.55831" lon="4.75089">
        <ele>89.05</ele>
        <time>2019-05-27T12:35:11.000Z</time>
      </trkpt>
      <trkpt lat="44.55845" lon="4.75092">
        <ele>89.21</ele>
        <time>2019-05-27T12:35:16.000Z</time>
      </trkpt>
      <trkpt lat="44.5586" lon="4.75093">
        <ele>90.1</ele>
        <time>2019-05-27T12:35:21.000Z</time>
      </trkpt>
      <trkpt lat="44.55878" lon="4.75101">
        <ele>89.04</ele>
        <time>2019-05-27T12:35:26.000Z</time>
      </trkpt>
      <trkpt lat="44.55893" lon="4.7511">
        <ele>90.9</ele>
        <time>2019-05-27T12:35:31.000Z</time>
      </trkpt>
      <trkpt lat="44.5591" lon="4.75118">
        <ele>90.1</ele>
        <time>2019-05-27T12:35:36.000Z</time>
      </trkpt>
      <trkpt lat="44.55921" lon="4.75117">
        <ele>93.97</ele>
        <time>2019-05-27T12:35:41.000Z</time>
      </trkpt>
      <trkpt lat="44.55933" lon="4.75123">
        <ele>93.09</ele>
        <time>2019-05-27T12:35:46.000Z</time>
      </trkpt>
      <trkpt lat="44.55943" lon="4.75125">
        <ele>95.33</ele>
        <time>2019-05-27T12:35:51.000Z</time>
      </trkpt>
      <trkpt lat="44.55946" lon="4.75137">
        <ele>91.94</ele>
        <time>2019-05-27T12:35:57.000Z</time>
      </trkpt>
      <trkpt lat="44.55944" lon="4.75157">
        <ele>90.11</ele>
        <time>2019-05-27T12:36:02.000Z</time>
      </trkpt>
      <trkpt lat="44.55938" lon="4.75174">
        <ele>88.12</ele>
        <time>2019-05-27T12:36:07.000Z</time>
      </trkpt>
      <trkpt lat="44.55925" lon="4.7517">
        <ele>88.1</ele>
        <time>2019-05-27T12:36:12.000Z</time>
      </trkpt>
      <trkpt lat="44.5591" lon="4.75168">
        <ele>90.77</ele>
        <time>2019-05-27T12:36:17.000Z</time>
      </trkpt>
      <trkpt lat="44.559" lon="4.75157">
        <ele>92.1</ele>
        <time>2019-05-27T12:36:22.000Z</time>
      </trkpt>
      <trkpt lat="44.55904" lon="4.75144">
        <ele>90.24</ele>
        <time>2019-05-27T12:36:27.000Z</time>
      </trkpt>
      <trkpt lat="44.55911" lon="4.75127">
        <ele>90.1</ele>
        <time>2019-05-27T12:36:32.000Z</time>
      </trkpt>
      <trkpt lat="44.55915" lon="4.75112">
        <ele>88.6</ele>
        <time>2019-05-27T12:36:37.000Z</time>
      </trkpt>
      <trkpt lat="44.55917" lon="4.75097">
        <ele>86.77</ele>
        <time>2019-05-27T12:36:43.000Z</time>
      </trkpt>
      <trkpt lat="44.55919" lon="4.75078">
        <ele>85.3</ele>
        <time>2019-05-27T12:36:48.000Z</time>
      </trkpt>
      <trkpt lat="44.55929" lon="4.75069">
        <ele>87.13</ele>
        <time>2019-05-27T12:36:53.000Z</time>
      </trkpt>
      <trkpt lat="44.55922" lon="4.7508">
        <ele>82.27</ele>
        <time>2019-05-27T12:38:20.000Z</time>
      </trkpt>
      <trkpt lat="44.55931" lon="4.75074">
        <ele>77.77</ele>
        <time>2019-05-27T12:42:07.000Z</time>
      </trkpt>
      <trkpt lat="44.55941" lon="4.75073">
        <ele>80.79</ele>
        <time>2019-05-27T12:42:12.000Z</time>
      </trkpt>
      <trkpt lat="44.5595" lon="4.75078">
        <ele>85.83</ele>
        <time>2019-05-27T12:42:19.000Z</time>
      </trkpt>
      <trkpt lat="44.55959" lon="4.75072">
        <ele>85.41</ele>
        <time>2019-05-27T12:42:26.000Z</time>
      </trkpt>
      <trkpt lat="44.55971" lon="4.75076">
        <ele>85.11</ele>
        <time>2019-05-27T12:42:31.000Z</time>
      </trkpt>
      <trkpt lat="44.55982" lon="4.75085">
        <ele>83.12</ele>
        <time>2019-05-27T12:42:36.000Z</time>
      </trkpt>
      <trkpt lat="44.55999" lon="4.75093">
        <ele>85.05</ele>
        <time>2019-05-27T12:42:41.000Z</time>
      </trkpt>
      <trkpt lat="44.56015" lon="4.751">
        <ele>87.27</ele>
        <time>2019-05-27T12:42:46.000Z</time>
      </trkpt>
      <trkpt lat="44.56029" lon="4.75106">
        <ele>85.23</ele>
        <time>2019-05-27T12:42:51.000Z</time>
      </trkpt>
      <trkpt lat="44.56044" lon="4.75115">
        <ele>88.07</ele>
        <time>2019-05-27T12:42:56.000Z</time>
      </trkpt>
      <trkpt lat="44.56057" lon="4.75117">
        <ele>84.27</ele>
        <time>2019-05-27T12:43:01.000Z</time>
      </trkpt>
      <trkpt lat="44.56071" lon="4.75121">
        <ele>83.87</ele>
        <time>2019-05-27T12:43:06.000Z</time>
      </trkpt>
      <trkpt lat="44.56082" lon="4.75107">
        <ele>85.16</ele>
        <time>2019-05-27T12:43:11.000Z</time>
      </trkpt>
      <trkpt lat="44.5609" lon="4.75097">
        <ele>87.08</ele>
        <time>2019-05-27T12:43:16.000Z</time>
      </trkpt>
      <trkpt lat="44.56106" lon="4.75113">
        <ele>84.98</ele>
        <time>2019-05-27T12:43:21.000Z</time>
      </trkpt>
      <trkpt lat="44.56119" lon="4.75116">
        <ele>87.94</ele>
        <time>2019-05-27T12:43:26.000Z</time>
      </trkpt>
      <trkpt lat="44.5613" lon="4.75112">
        <ele>87.81</ele>
        <time>2019-05-27T12:44:47.000Z</time>
      </trkpt>
      <trkpt lat="44.56137" lon="4.75103">
        <ele>89.36</ele>
        <time>2019-05-27T12:44:53.000Z</time>
      </trkpt>
      <trkpt lat="44.5613" lon="4.75113">
        <ele>85.13</ele>
        <time>2019-05-27T12:45:08.000Z</time>
      </trkpt>
      <trkpt lat="44.56128" lon="4.75131">
        <ele>83.17</ele>
        <time>2019-05-27T12:45:13.000Z</time>
      </trkpt>
      <trkpt lat="44.56128" lon="4.75151">
        <ele>83.11</ele>
        <time>2019-05-27T12:45:18.000Z</time>
      </trkpt>
      <trkpt lat="44.56121" lon="4.75169">
        <ele>83.85</ele>
        <time>2019-05-27T12:45:23.000Z</time>
      </trkpt>
      <trkpt lat="44.56116" lon="4.75189">
        <ele>87.87</ele>
        <time>2019-05-27T12:45:28.000Z</time>
      </trkpt>
      <trkpt lat="44.56111" lon="4.75207">
        <ele>87.4</ele>
        <time>2019-05-27T12:45:33.000Z</time>
      </trkpt>
      <trkpt lat="44.56107" lon="4.75224">
        <ele>87.34</ele>
        <time>2019-05-27T12:45:38.000Z</time>
      </trkpt>
      <trkpt lat="44.56104" lon="4.75238">
        <ele>86.92</ele>
        <time>2019-05-27T12:45:43.000Z</time>
      </trkpt>
      <trkpt lat="44.56099" lon="4.75252">
        <ele>87.29</ele>
        <time>2019-05-27T12:45:48.000Z</time>
      </trkpt>
      <trkpt lat="44.56094" lon="4.75265">
        <ele>86.87</ele>
        <time>2019-05-27T12:45:53.000Z</time>
      </trkpt>
      <trkpt lat="44.56098" lon="4.75276">
        <ele>95.04</ele>
        <time>2019-05-27T12:46:22.000Z</time>
      </trkpt>
      <trkpt lat="44.56105" lon="4.75285">
        <ele>96.11</ele>
        <time>2019-05-27T12:47:24.000Z</time>
      </trkpt>
      <trkpt lat="44.56128" lon="4.75293">
        <ele>93.99</ele>
        <time>2019-05-27T12:47:29.000Z</time>
      </trkpt>
      <trkpt lat="44.56149" lon="4.75306">
        <ele>93.93</ele>
        <time>2019-05-27T12:47:34.000Z</time>
      </trkpt>
      <trkpt lat="44.5617" lon="4.75322">
        <ele>92.73</ele>
        <time>2019-05-27T12:47:39.000Z</time>
      </trkpt>
      <trkpt lat="44.56192" lon="4.75332">
        <ele>91.16</ele>
        <time>2019-05-27T12:47:44.000Z</time>
      </trkpt>
      <trkpt lat="44.56214" lon="4.75345">
        <ele>91.09</ele>
        <time>2019-05-27T12:47:49.000Z</time>
      </trkpt>
      <trkpt lat="44.56237" lon="4.75357">
        <ele>91.54</ele>
        <time>2019-05-27T12:47:54.000Z</time>
      </trkpt>
      <trkpt lat="44.56259" lon="4.7537">
        <ele>90.11</ele>
        <time>2019-05-27T12:47:59.000Z</time>
      </trkpt>
      <trkpt lat="44.56279" lon="4.75381">
        <ele>89.87</ele>
        <time>2019-05-27T12:48:04.000Z</time>
      </trkpt>
      <trkpt lat="44.56301" lon="4.75391">
        <ele>89.1</ele>
        <time>2019-05-27T12:48:09.000Z</time>
      </trkpt>
      <trkpt lat="44.56323" lon="4.75402">
        <ele>89.15</ele>
        <time>2019-05-27T12:48:14.000Z</time>
      </trkpt>
      <trkpt lat="44.56344" lon="4.75414">
        <ele>88.16</ele>
        <time>2019-05-27T12:48:19.000Z</time>
      </trkpt>
      <trkpt lat="44.56375" lon="4.75428">
        <ele>87.5</ele>
        <time>2019-05-27T14:00:27.000Z</time>
      </trkpt>
      <trkpt lat="44.56374" lon="4.7542">
        <ele>82.85</ele>
        <time>2019-05-27T14:00:32.000Z</time>
      </trkpt>
      <trkpt lat="44.56352" lon="4.75409">
        <ele>81.93</ele>
        <time>2019-05-27T14:00:37.000Z</time>
      </trkpt>
      <trkpt lat="44.56328" lon="4.75395">
        <ele>82.29</ele>
        <time>2019-05-27T14:00:42.000Z</time>
      </trkpt>
      <trkpt lat="44.56303" lon="4.75381">
        <ele>83.1</ele>
        <time>2019-05-27T14:00:47.000Z</time>
      </trkpt>
      <trkpt lat="44.56278" lon="4.75366">
        <ele>83.12</ele>
        <time>2019-05-27T14:00:52.000Z</time>
      </trkpt>
      <trkpt lat="44.56251" lon="4.75351">
        <ele>82.87</ele>
        <time>2019-05-27T14:00:57.000Z</time>
      </trkpt>
      <trkpt lat="44.56221" lon="4.75337">
        <ele>84.1</ele>
        <time>2019-05-27T14:01:02.000Z</time>
      </trkpt>
      <trkpt lat="44.56192" lon="4.75321">
        <ele>85.85</ele>
        <time>2019-05-27T14:01:07.000Z</time>
      </trkpt>
      <trkpt lat="44.56164" lon="4.75308">
        <ele>86.09</ele>
        <time>2019-05-27T14:01:12.000Z</time>
      </trkpt>
      <trkpt lat="44.56138" lon="4.75293">
        <ele>89.09</ele>
        <time>2019-05-27T14:01:17.000Z</time>
      </trkpt>
      <trkpt lat="44.56113" lon="4.75279">
        <ele>91.35</ele>
        <time>2019-05-27T14:01:22.000Z</time>
      </trkpt>
      <trkpt lat="44.56111" lon="4.75243">
        <ele>89.17</ele>
        <time>2019-05-27T14:01:27.000Z</time>
      </trkpt>
      <trkpt lat="44.56124" lon="4.75194">
        <ele>85.42</ele>
        <time>2019-05-27T14:01:32.000Z</time>
      </trkpt>
      <trkpt lat="44.56136" lon="4.75159">
        <ele>82.17</ele>
        <time>2019-05-27T14:01:37.000Z</time>
      </trkpt>
      <trkpt lat="44.56147" lon="4.75126">
        <ele>80.42</ele>
        <time>2019-05-27T14:01:42.000Z</time>
      </trkpt>
      <trkpt lat="44.56151" lon="4.7508">
        <ele>79.85</ele>
        <time>2019-05-27T14:01:47.000Z</time>
      </trkpt>
      <trkpt lat="44.56148" lon="4.75036">
        <ele>75.39</ele>
        <time>2019-05-27T14:01:52.000Z</time>
      </trkpt>
      <trkpt lat="44.56141" lon="4.74995">
        <ele>74.35</ele>
        <time>2019-05-27T14:01:57.000Z</time>
      </trkpt>
      <trkpt lat="44.56129" lon="4.74954">
        <ele>74.14</ele>
        <time>2019-05-27T14:02:02.000Z</time>
      </trkpt>
      <trkpt lat="44.56119" lon="4.74917">
        <ele>76.04</ele>
        <time>2019-05-27T14:02:07.000Z</time>
      </trkpt>
      <trkpt lat="44.56106" lon="4.74877">
        <ele>78.09</ele>
        <time>2019-05-27T14:02:12.000Z</time>
      </trkpt>
      <trkpt lat="44.56093" lon="4.74842">
        <ele>78.85</ele>
        <time>2019-05-27T14:02:17.000Z</time>
      </trkpt>
      <trkpt lat="44.5607" lon="4.74819">
        <ele>76.06</ele>
        <time>2019-05-27T14:02:22.000Z</time>
      </trkpt>
      <trkpt lat="44.56052" lon="4.7481">
        <ele>77.36</ele>
        <time>2019-05-27T14:02:27.000Z</time>
      </trkpt>
      <trkpt lat="44.56048" lon="4.74799">
        <ele>76.1</ele>
        <time>2019-05-27T14:02:32.000Z</time>
      </trkpt>
      <trkpt lat="44.56028" lon="4.7479">
        <ele>76.13</ele>
        <time>2019-05-27T14:02:37.000Z</time>
      </trkpt>
      <trkpt lat="44.56007" lon="4.7479">
        <ele>76.04</ele>
        <time>2019-05-27T14:02:42.000Z</time>
      </trkpt>
      <trkpt lat="44.55982" lon="4.74789">
        <ele>78.17</ele>
        <time>2019-05-27T14:02:47.000Z</time>
      </trkpt>
      <trkpt lat="44.55957" lon="4.74788">
        <ele>76.17</ele>
        <time>2019-05-27T14:02:52.000Z</time>
      </trkpt>
      <trkpt lat="44.55931" lon="4.74788">
        <ele>75.35</ele>
        <time>2019-05-27T14:02:57.000Z</time>
      </trkpt>
      <trkpt lat="44.55905" lon="4.74784">
        <ele>79.05</ele>
        <time>2019-05-27T14:03:02.000Z</time>
      </trkpt>
      <trkpt lat="44.55879" lon="4.74785">
        <ele>80.1</ele>
        <time>2019-05-27T14:03:07.000Z</time>
      </trkpt>
      <trkpt lat="44.55857" lon="4.74783">
        <ele>81.07</ele>
        <time>2019-05-27T14:03:12.000Z</time>
      </trkpt>
      <trkpt lat="44.55842" lon="4.74786">
        <ele>81.11</ele>
        <time>2019-05-27T14:03:20.000Z</time>
      </trkpt>
      <trkpt lat="44.55831" lon="4.74787">
        <ele>82.11</ele>
        <time>2019-05-27T14:03:27.000Z</time>
      </trkpt>
      <trkpt lat="44.55823" lon="4.74781">
        <ele>82.09</ele>
        <time>2019-05-27T14:03:32.000Z</time>
      </trkpt>
      <trkpt lat="44.55794" lon="4.7477">
        <ele>82.1</ele>
        <time>2019-05-27T14:03:37.000Z</time>
      </trkpt>
      <trkpt lat="44.55771" lon="4.74768">
        <ele>80.35</ele>
        <time>2019-05-27T14:03:42.000Z</time>
      </trkpt>
      <trkpt lat="44.55745" lon="4.74763">
        <ele>78.17</ele>
        <time>2019-05-27T14:03:47.000Z</time>
      </trkpt>
      <trkpt lat="44.5572" lon="4.74756">
        <ele>78.06</ele>
        <time>2019-05-27T14:03:52.000Z</time>
      </trkpt>
      <trkpt lat="44.55696" lon="4.74748">
        <ele>77.15</ele>
        <time>2019-05-27T14:03:57.000Z</time>
      </trkpt>
      <trkpt lat="44.55685" lon="4.74744">
        <ele>76.35</ele>
        <time>2019-05-27T14:04:02.000Z</time>
      </trkpt>
      <trkpt lat="44.55669" lon="4.74734">
        <ele>76.87</ele>
        <time>2019-05-27T14:04:07.000Z</time>
      </trkpt>
      <trkpt lat="44.55644" lon="4.74729">
        <ele>77.38</ele>
        <time>2019-05-27T14:04:12.000Z</time>
      </trkpt>
      <trkpt lat="44.55621" lon="4.74756">
        <ele>78.29</ele>
        <time>2019-05-27T14:04:17.000Z</time>
      </trkpt>
      <trkpt lat="44.55611" lon="4.74794">
        <ele>79.1</ele>
        <time>2019-05-27T14:04:22.000Z</time>
      </trkpt>
      <trkpt lat="44.556" lon="4.74827">
        <ele>81.04</ele>
        <time>2019-05-27T14:04:27.000Z</time>
      </trkpt>
      <trkpt lat="44.55586" lon="4.74862">
        <ele>80.92</ele>
        <time>2019-05-27T14:04:32.000Z</time>
      </trkpt>
      <trkpt lat="44.5557" lon="4.74892">
        <ele>83.23</ele>
        <time>2019-05-27T14:04:37.000Z</time>
      </trkpt>
      <trkpt lat="44.55549" lon="4.74914">
        <ele>81.87</ele>
        <time>2019-05-27T14:04:42.000Z</time>
      </trkpt>
      <trkpt lat="44.55531" lon="4.74933">
        <ele>79.88</ele>
        <time>2019-05-27T14:04:47.000Z</time>
      </trkpt>
      <trkpt lat="44.5551" lon="4.74927">
        <ele>80.11</ele>
        <time>2019-05-27T14:04:52.000Z</time>
      </trkpt>
      <trkpt lat="44.55484" lon="4.74917">
        <ele>80.86</ele>
        <time>2019-05-27T14:04:57.000Z</time>
      </trkpt>
      <trkpt lat="44.55457" lon="4.74905">
        <ele>79.36</ele>
        <time>2019-05-27T14:05:02.000Z</time>
      </trkpt>
      <trkpt lat="44.55429" lon="4.74894">
        <ele>80.29</ele>
        <time>2019-05-27T14:05:07.000Z</time>
      </trkpt>
      <trkpt lat="44.55399" lon="4.7488">
        <ele>80.11</ele>
        <time>2019-05-27T14:05:12.000Z</time>
      </trkpt>
      <trkpt lat="44.5537" lon="4.74865">
        <ele>82.04</ele>
        <time>2019-05-27T14:05:17.000Z</time>
      </trkpt>
      <trkpt lat="44.55344" lon="4.74846">
        <ele>83.11</ele>
        <time>2019-05-27T14:05:22.000Z</time>
      </trkpt>
      <trkpt lat="44.55329" lon="4.74823">
        <ele>85.03</ele>
        <time>2019-05-27T14:05:43.000Z</time>
      </trkpt>
      <trkpt lat="44.55321" lon="4.74818">
        <ele>86.1</ele>
        <time>2019-05-27T14:05:48.000Z</time>
      </trkpt>
      <trkpt lat="44.55301" lon="4.74827">
        <ele>84.36</ele>
        <time>2019-05-27T14:05:53.000Z</time>
      </trkpt>
      <trkpt lat="44.55282" lon="4.74832">
        <ele>84.11</ele>
        <time>2019-05-27T14:05:58.000Z</time>
      </trkpt>
      <trkpt lat="44.55275" lon="4.74814">
        <ele>83.43</ele>
        <time>2019-05-27T14:06:03.000Z</time>
      </trkpt>
      <trkpt lat="44.55276" lon="4.74781">
        <ele>81.36</ele>
        <time>2019-05-27T14:06:08.000Z</time>
      </trkpt>
      <trkpt lat="44.55283" lon="4.74734">
        <ele>79.22</ele>
        <time>2019-05-27T14:06:13.000Z</time>
      </trkpt>
      <trkpt lat="44.55295" lon="4.74682">
        <ele>79.3</ele>
        <time>2019-05-27T14:06:18.000Z</time>
      </trkpt>
      <trkpt lat="44.55305" lon="4.74633">
        <ele>78.12</ele>
        <time>2019-05-27T14:06:23.000Z</time>
      </trkpt>
      <trkpt lat="44.55315" lon="4.74584">
        <ele>77.1</ele>
        <time>2019-05-27T14:06:28.000Z</time>
      </trkpt>
      <trkpt lat="44.55325" lon="4.74537">
        <ele>77.06</ele>
        <time>2019-05-27T14:06:33.000Z</time>
      </trkpt>
      <trkpt lat="44.55334" lon="4.74488">
        <ele>77.9</ele>
        <time>2019-05-27T14:06:38.000Z</time>
      </trkpt>
      <trkpt lat="44.55344" lon="4.74441">
        <ele>77.54</ele>
        <time>2019-05-27T14:06:43.000Z</time>
      </trkpt>
      <trkpt lat="44.55354" lon="4.74399">
        <ele>74.42</ele>
        <time>2019-05-27T14:06:48.000Z</time>
      </trkpt>
      <trkpt lat="44.55363" lon="4.74353">
        <ele>74.85</ele>
        <time>2019-05-27T14:06:53.000Z</time>
      </trkpt>
      <trkpt lat="44.55369" lon="4.74307">
        <ele>75.85</ele>
        <time>2019-05-27T14:06:58.000Z</time>
      </trkpt>
      <trkpt lat="44.55372" lon="4.74259">
        <ele>75.16</ele>
        <time>2019-05-27T14:07:03.000Z</time>
      </trkpt>
      <trkpt lat="44.55375" lon="4.74213">
        <ele>74.1</ele>
        <time>2019-05-27T14:07:08.000Z</time>
      </trkpt>
      <trkpt lat="44.55379" lon="4.74169">
        <ele>74.09</ele>
        <time>2019-05-27T14:07:13.000Z</time>
      </trkpt>
      <trkpt lat="44.55381" lon="4.74126">
        <ele>74.1</ele>
        <time>2019-05-27T14:07:18.000Z</time>
      </trkpt>
      <trkpt lat="44.55384" lon="4.7408">
        <ele>75.05</ele>
        <time>2019-05-27T14:07:23.000Z</time>
      </trkpt>
      <trkpt lat="44.55387" lon="4.74035">
        <ele>74.35</ele>
        <time>2019-05-27T14:07:28.000Z</time>
      </trkpt>
      <trkpt lat="44.55398" lon="4.73995">
        <ele>73.11</ele>
        <time>2019-05-27T14:07:33.000Z</time>
      </trkpt>
      <trkpt lat="44.55402" lon="4.73957">
        <ele>73.1</ele>
        <time>2019-05-27T14:07:38.000Z</time>
      </trkpt>
      <trkpt lat="44.55405" lon="4.73918">
        <ele>73.1</ele>
        <time>2019-05-27T14:07:43.000Z</time>
      </trkpt>
      <trkpt lat="44.55411" lon="4.73876">
        <ele>74.1</ele>
        <time>2019-05-27T14:07:48.000Z</time>
      </trkpt>
      <trkpt lat="44.55418" lon="4.73833">
        <ele>73.35</ele>
        <time>2019-05-27T14:07:53.000Z</time>
      </trkpt>
      <trkpt lat="44.55427" lon="4.73789">
        <ele>73.15</ele>
        <time>2019-05-27T14:07:58.000Z</time>
      </trkpt>
      <trkpt lat="44.55438" lon="4.73749">
        <ele>74.09</ele>
        <time>2019-05-27T14:08:03.000Z</time>
      </trkpt>
      <trkpt lat="44.55451" lon="4.7371">
        <ele>75.28</ele>
        <time>2019-05-27T14:08:08.000Z</time>
      </trkpt>
      <trkpt lat="44.55468" lon="4.73681">
        <ele>76.03</ele>
        <time>2019-05-27T14:08:13.000Z</time>
      </trkpt>
      <trkpt lat="44.5546" lon="4.73672">
        <ele>74.41</ele>
        <time>2019-05-27T14:08:18.000Z</time>
      </trkpt>
      <trkpt lat="44.55467" lon="4.73641">
        <ele>74.84</ele>
        <time>2019-05-27T14:08:23.000Z</time>
      </trkpt>
      <trkpt lat="44.55485" lon="4.73617">
        <ele>75.09</ele>
        <time>2019-05-27T14:08:28.000Z</time>
      </trkpt>
      <trkpt lat="44.55497" lon="4.73584">
        <ele>75.28</ele>
        <time>2019-05-27T14:08:33.000Z</time>
      </trkpt>
      <trkpt lat="44.55507" lon="4.73545">
        <ele>76.09</ele>
        <time>2019-05-27T14:08:38.000Z</time>
      </trkpt>
      <trkpt lat="44.55515" lon="4.73503">
        <ele>75.89</ele>
        <time>2019-05-27T14:08:43.000Z</time>
      </trkpt>
      <trkpt lat="44.55523" lon="4.73459">
        <ele>75.15</ele>
        <time>2019-05-27T14:08:48.000Z</time>
      </trkpt>
      <trkpt lat="44.55528" lon="4.73415">
        <ele>76.04</ele>
        <time>2019-05-27T14:08:53.000Z</time>
      </trkpt>
      <trkpt lat="44.55531" lon="4.73371">
        <ele>76.09</ele>
        <time>2019-05-27T14:08:58.000Z</time>
      </trkpt>
      <trkpt lat="44.55533" lon="4.73326">
        <ele>75.09</ele>
        <time>2019-05-27T14:09:03.000Z</time>
      </trkpt>
      <trkpt lat="44.55532" lon="4.73282">
        <ele>73.34</ele>
        <time>2019-05-27T14:09:08.000Z</time>
      </trkpt>
      <trkpt lat="44.55531" lon="4.73237">
        <ele>73.32</ele>
        <time>2019-05-27T14:09:13.000Z</time>
      </trkpt>
      <trkpt lat="44.5553" lon="4.7319">
        <ele>73.09</ele>
        <time>2019-05-27T14:09:18.000Z</time>
      </trkpt>
      <trkpt lat="44.55526" lon="4.73142">
        <ele>73.09</ele>
        <time>2019-05-27T14:09:23.000Z</time>
      </trkpt>
      <trkpt lat="44.55521" lon="4.73094">
        <ele>74.08</ele>
        <time>2019-05-27T14:09:28.000Z</time>
      </trkpt>
      <trkpt lat="44.55512" lon="4.73048">
        <ele>74.09</ele>
        <time>2019-05-27T14:09:33.000Z</time>
      </trkpt>
      <trkpt lat="44.5551" lon="4.73002">
        <ele>74.84</ele>
        <time>2019-05-27T14:09:38.000Z</time>
      </trkpt>
      <trkpt lat="44.55512" lon="4.72973">
        <ele>75.14</ele>
        <time>2019-05-27T14:09:43.000Z</time>
      </trkpt>
      <trkpt lat="44.55505" lon="4.72936">
        <ele>74.1</ele>
        <time>2019-05-27T14:09:48.000Z</time>
      </trkpt>
      <trkpt lat="44.55493" lon="4.72898">
        <ele>74.09</ele>
        <time>2019-05-27T14:09:53.000Z</time>
      </trkpt>
      <trkpt lat="44.55479" lon="4.72858">
        <ele>74.33</ele>
        <time>2019-05-27T14:09:58.000Z</time>
      </trkpt>
      <trkpt lat="44.55466" lon="4.72818">
        <ele>74.15</ele>
        <time>2019-05-27T14:10:03.000Z</time>
      </trkpt>
      <trkpt lat="44.55449" lon="4.72778">
        <ele>75.07</ele>
        <time>2019-05-27T14:10:08.000Z</time>
      </trkpt>
      <trkpt lat="44.5543" lon="4.72737">
        <ele>75.07</ele>
        <time>2019-05-27T14:10:13.000Z</time>
      </trkpt>
      <trkpt lat="44.5541" lon="4.72695">
        <ele>74.1</ele>
        <time>2019-05-27T14:10:18.000Z</time>
      </trkpt>
      <trkpt lat="44.55389" lon="4.72654">
        <ele>74.08</ele>
        <time>2019-05-27T14:10:23.000Z</time>
      </trkpt>
      <trkpt lat="44.55369" lon="4.72614">
        <ele>75.07</ele>
        <time>2019-05-27T14:10:28.000Z</time>
      </trkpt>
      <trkpt lat="44.55349" lon="4.72573">
        <ele>76.07</ele>
        <time>2019-05-27T14:10:33.000Z</time>
      </trkpt>
      <trkpt lat="44.55328" lon="4.72532">
        <ele>75.09</ele>
        <time>2019-05-27T14:10:38.000Z</time>
      </trkpt>
      <trkpt lat="44.55309" lon="4.72493">
        <ele>75.08</ele>
        <time>2019-05-27T14:10:43.000Z</time>
      </trkpt>
      <trkpt lat="44.55291" lon="4.72455">
        <ele>75.1</ele>
        <time>2019-05-27T14:10:48.000Z</time>
      </trkpt>
      <trkpt lat="44.55273" lon="4.72417">
        <ele>76.07</ele>
        <time>2019-05-27T14:10:53.000Z</time>
      </trkpt>
      <trkpt lat="44.55254" lon="4.72379">
        <ele>75.08</ele>
        <time>2019-05-27T14:10:58.000Z</time>
      </trkpt>
      <trkpt lat="44.55236" lon="4.72342">
        <ele>76.08</ele>
        <time>2019-05-27T14:11:03.000Z</time>
      </trkpt>
      <trkpt lat="44.55219" lon="4.72304">
        <ele>74.29</ele>
        <time>2019-05-27T14:11:08.000Z</time>
      </trkpt>
      <trkpt lat="44.55199" lon="4.72264">
        <ele>74.08</ele>
        <time>2019-05-27T14:11:13.000Z</time>
      </trkpt>
      <trkpt lat="44.5518" lon="4.72225">
        <ele>75.08</ele>
        <time>2019-05-27T14:11:18.000Z</time>
      </trkpt>
      <trkpt lat="44.55161" lon="4.72187">
        <ele>76.02</ele>
        <time>2019-05-27T14:11:23.000Z</time>
      </trkpt>
      <trkpt lat="44.55143" lon="4.72151">
        <ele>76.08</ele>
        <time>2019-05-27T14:11:28.000Z</time>
      </trkpt>
      <trkpt lat="44.55126" lon="4.72113">
        <ele>76.08</ele>
        <time>2019-05-27T14:11:33.000Z</time>
      </trkpt>
      <trkpt lat="44.55107" lon="4.72074">
        <ele>76.08</ele>
        <time>2019-05-27T14:11:38.000Z</time>
      </trkpt>
      <trkpt lat="44.55088" lon="4.72035">
        <ele>76.06</ele>
        <time>2019-05-27T14:11:43.000Z</time>
      </trkpt>
      <trkpt lat="44.55069" lon="4.71997">
        <ele>75.08</ele>
        <time>2019-05-27T14:11:48.000Z</time>
      </trkpt>
      <trkpt lat="44.5505" lon="4.71959">
        <ele>75.14</ele>
        <time>2019-05-27T14:11:53.000Z</time>
      </trkpt>
      <trkpt lat="44.55032" lon="4.71919">
        <ele>76.06</ele>
        <time>2019-05-27T14:11:58.000Z</time>
      </trkpt>
      <trkpt lat="44.55013" lon="4.7188">
        <ele>76.08</ele>
        <time>2019-05-27T14:12:03.000Z</time>
      </trkpt>
      <trkpt lat="44.54988" lon="4.71871">
        <ele>76.08</ele>
        <time>2019-05-27T14:12:08.000Z</time>
      </trkpt>
      <trkpt lat="44.54962" lon="4.71884">
        <ele>76.08</ele>
        <time>2019-05-27T14:12:13.000Z</time>
      </trkpt>
      <trkpt lat="44.54934" lon="4.71899">
        <ele>76.08</ele>
        <time>2019-05-27T14:12:18.000Z</time>
      </trkpt>
      <trkpt lat="44.54904" lon="4.71915">
        <ele>76.08</ele>
        <time>2019-05-27T14:12:23.000Z</time>
      </trkpt>
      <trkpt lat="44.54874" lon="4.71933">
        <ele>76.31</ele>
        <time>2019-05-27T14:12:28.000Z</time>
      </trkpt>
      <trkpt lat="44.54843" lon="4.71952">
        <ele>76.14</ele>
        <time>2019-05-27T14:12:33.000Z</time>
      </trkpt>
      <trkpt lat="44.54812" lon="4.71974">
        <ele>76.08</ele>
        <time>2019-05-27T14:12:38.000Z</time>
      </trkpt>
      <trkpt lat="44.54783" lon="4.72004">
        <ele>75.08</ele>
        <time>2019-05-27T14:12:43.000Z</time>
      </trkpt>
      <trkpt lat="44.54752" lon="4.72032">
        <ele>74.09</ele>
        <time>2019-05-27T14:12:48.000Z</time>
      </trkpt>
      <trkpt lat="44.5472" lon="4.72053">
        <ele>74.33</ele>
        <time>2019-05-27T14:12:53.000Z</time>
      </trkpt>
      <trkpt lat="44.54686" lon="4.72074">
        <ele>75.08</ele>
        <time>2019-05-27T14:12:58.000Z</time>
      </trkpt>
      <trkpt lat="44.54652" lon="4.72093">
        <ele>75.08</ele>
        <time>2019-05-27T14:13:03.000Z</time>
      </trkpt>
      <trkpt lat="44.54619" lon="4.72112">
        <ele>74.09</ele>
        <time>2019-05-27T14:13:08.000Z</time>
      </trkpt>
      <trkpt lat="44.54585" lon="4.72131">
        <ele>74.08</ele>
        <time>2019-05-27T14:13:13.000Z</time>
      </trkpt>
      <trkpt lat="44.54552" lon="4.7215">
        <ele>74.15</ele>
        <time>2019-05-27T14:13:18.000Z</time>
      </trkpt>
      <trkpt lat="44.54522" lon="4.72167">
        <ele>74.08</ele>
        <time>2019-05-27T14:13:23.000Z</time>
      </trkpt>
      <trkpt lat="44.54492" lon="4.72184">
        <ele>74.13</ele>
        <time>2019-05-27T14:13:28.000Z</time>
      </trkpt>
      <trkpt lat="44.54461" lon="4.72202">
        <ele>74.09</ele>
        <time>2019-05-27T14:13:33.000Z</time>
      </trkpt>
      <trkpt lat="44.54429" lon="4.7222">
        <ele>75.08</ele>
        <time>2019-05-27T14:13:38.000Z</time>
      </trkpt>
      <trkpt lat="44.54395" lon="4.72237">
        <ele>75.08</ele>
        <time>2019-05-27T14:13:43.000Z</time>
      </trkpt>
      <trkpt lat="44.54363" lon="4.72257">
        <ele>75.09</ele>
        <time>2019-05-27T14:13:48.000Z</time>
      </trkpt>
      <trkpt lat="44.5433" lon="4.72276">
        <ele>75.09</ele>
        <time>2019-05-27T14:13:53.000Z</time>
      </trkpt>
      <trkpt lat="44.54297" lon="4.72295">
        <ele>75.09</ele>
        <time>2019-05-27T14:13:58.000Z</time>
      </trkpt>
      <trkpt lat="44.54264" lon="4.72313">
        <ele>76.09</ele>
        <time>2019-05-27T14:14:03.000Z</time>
      </trkpt>
      <trkpt lat="44.54231" lon="4.72331">
        <ele>75.89</ele>
        <time>2019-05-27T14:14:08.000Z</time>
      </trkpt>
      <trkpt lat="44.54197" lon="4.72351">
        <ele>76.09</ele>
        <time>2019-05-27T14:14:13.000Z</time>
      </trkpt>
      <trkpt lat="44.54162" lon="4.72371">
        <ele>76.84</ele>
        <time>2019-05-27T14:14:18.000Z</time>
      </trkpt>
      <trkpt lat="44.54125" lon="4.72391">
        <ele>77.09</ele>
        <time>2019-05-27T14:14:23.000Z</time>
      </trkpt>
      <trkpt lat="44.5409" lon="4.72413">
        <ele>76.34</ele>
        <time>2019-05-27T14:14:28.000Z</time>
      </trkpt>
      <trkpt lat="44.54054" lon="4.72432">
        <ele>76.09</ele>
        <time>2019-05-27T14:14:33.000Z</time>
      </trkpt>
      <trkpt lat="44.54018" lon="4.72452">
        <ele>76.84</ele>
        <time>2019-05-27T14:14:38.000Z</time>
      </trkpt>
      <trkpt lat="44.53983" lon="4.72472">
        <ele>77.03</ele>
        <time>2019-05-27T14:14:43.000Z</time>
      </trkpt>
      <trkpt lat="44.53947" lon="4.72492">
        <ele>76.1</ele>
        <time>2019-05-27T14:14:48.000Z</time>
      </trkpt>
      <trkpt lat="44.53911" lon="4.72512">
        <ele>77.08</ele>
        <time>2019-05-27T14:14:53.000Z</time>
      </trkpt>
      <trkpt lat="44.53878" lon="4.72532">
        <ele>76.1</ele>
        <time>2019-05-27T14:14:58.000Z</time>
      </trkpt>
      <trkpt lat="44.53846" lon="4.72551">
        <ele>75.28</ele>
        <time>2019-05-27T14:15:03.000Z</time>
      </trkpt>
      <trkpt lat="44.53814" lon="4.72571">
        <ele>75.1</ele>
        <time>2019-05-27T14:15:08.000Z</time>
      </trkpt>
      <trkpt lat="44.53781" lon="4.72588">
        <ele>74.34</ele>
        <time>2019-05-27T14:15:13.000Z</time>
      </trkpt>
      <trkpt lat="44.53746" lon="4.72607">
        <ele>75.09</ele>
        <time>2019-05-27T14:15:18.000Z</time>
      </trkpt>
      <trkpt lat="44.53711" lon="4.72626">
        <ele>75.09</ele>
        <time>2019-05-27T14:15:23.000Z</time>
      </trkpt>
      <trkpt lat="44.53677" lon="4.72645">
        <ele>75.09</ele>
        <time>2019-05-27T14:15:28.000Z</time>
      </trkpt>
      <trkpt lat="44.53644" lon="4.72664">
        <ele>75.9</ele>
        <time>2019-05-27T14:15:33.000Z</time>
      </trkpt>
      <trkpt lat="44.53612" lon="4.72681">
        <ele>76.1</ele>
        <time>2019-05-27T14:15:38.000Z</time>
      </trkpt>
      <trkpt lat="44.5358" lon="4.72699">
        <ele>76.11</ele>
        <time>2019-05-27T14:15:43.000Z</time>
      </trkpt>
      <trkpt lat="44.53551" lon="4.72717">
        <ele>77.09</ele>
        <time>2019-05-27T14:15:48.000Z</time>
      </trkpt>
      <trkpt lat="44.53532" lon="4.72736">
        <ele>79.03</ele>
        <time>2019-05-27T14:15:53.000Z</time>
      </trkpt>
      <trkpt lat="44.53521" lon="4.72752">
        <ele>81.02</ele>
        <time>2019-05-27T14:15:58.000Z</time>
      </trkpt>
      <trkpt lat="44.53512" lon="4.72755">
        <ele>83.84</ele>
        <time>2019-05-27T14:16:03.000Z</time>
      </trkpt>
      <trkpt lat="44.53509" lon="4.72737">
        <ele>83.1</ele>
        <time>2019-05-27T14:16:39.000Z</time>
      </trkpt>
      <trkpt lat="44.53505" lon="4.72722">
        <ele>81.35</ele>
        <time>2019-05-27T14:16:44.000Z</time>
      </trkpt>
      <trkpt lat="44.53498" lon="4.7269">
        <ele>81.1</ele>
        <time>2019-05-27T14:16:49.000Z</time>
      </trkpt>
      <trkpt lat="44.53492" lon="4.72657">
        <ele>82.08</ele>
        <time>2019-05-27T14:16:54.000Z</time>
      </trkpt>
      <trkpt lat="44.53483" lon="4.7262">
        <ele>83.03</ele>
        <time>2019-05-27T14:16:59.000Z</time>
      </trkpt>
      <trkpt lat="44.53474" lon="4.72579">
        <ele>83.1</ele>
        <time>2019-05-27T14:17:04.000Z</time>
      </trkpt>
      <trkpt lat="44.53463" lon="4.72535">
        <ele>82.16</ele>
        <time>2019-05-27T14:17:09.000Z</time>
      </trkpt>
      <trkpt lat="44.53453" lon="4.72489">
        <ele>82.14</ele>
        <time>2019-05-27T14:17:14.000Z</time>
      </trkpt>
      <trkpt lat="44.53444" lon="4.72441">
        <ele>81.11</ele>
        <time>2019-05-27T14:17:19.000Z</time>
      </trkpt>
      <trkpt lat="44.53436" lon="4.7239">
        <ele>79.36</ele>
        <time>2019-05-27T14:17:24.000Z</time>
      </trkpt>
      <trkpt lat="44.53427" lon="4.72349">
        <ele>77.16</ele>
        <time>2019-05-27T14:17:29.000Z</time>
      </trkpt>
      <trkpt lat="44.53412" lon="4.72308">
        <ele>75.11</ele>
        <time>2019-05-27T14:17:34.000Z</time>
      </trkpt>
      <trkpt lat="44.53402" lon="4.72301">
        <ele>74.09</ele>
        <time>2019-05-27T14:17:39.000Z</time>
      </trkpt>
      <trkpt lat="44.53388" lon="4.72304">
        <ele>74.09</ele>
        <time>2019-05-27T14:17:45.000Z</time>
      </trkpt>
      <trkpt lat="44.53397" lon="4.72308">
        <ele>75.14</ele>
        <time>2019-05-27T14:17:53.000Z</time>
      </trkpt>
      <trkpt lat="44.53388" lon="4.72304">
        <ele>74.16</ele>
        <time>2019-05-27T14:17:58.000Z</time>
      </trkpt>
      <trkpt lat="44.53367" lon="4.72291">
        <ele>74.09</ele>
        <time>2019-05-27T14:18:03.000Z</time>
      </trkpt>
      <trkpt lat="44.53342" lon="4.72298">
        <ele>74.09</ele>
        <time>2019-05-27T14:18:08.000Z</time>
      </trkpt>
      <trkpt lat="44.53315" lon="4.7231">
        <ele>75.09</ele>
        <time>2019-05-27T14:18:13.000Z</time>
      </trkpt>
      <trkpt lat="44.53286" lon="4.7232">
        <ele>75.09</ele>
        <time>2019-05-27T14:18:18.000Z</time>
      </trkpt>
      <trkpt lat="44.53256" lon="4.72331">
        <ele>74.3</ele>
        <time>2019-05-27T14:18:23.000Z</time>
      </trkpt>
      <trkpt lat="44.53224" lon="4.72342">
        <ele>73.11</ele>
        <time>2019-05-27T14:18:28.000Z</time>
      </trkpt>
      <trkpt lat="44.53191" lon="4.72353">
        <ele>72.85</ele>
        <time>2019-05-27T14:18:33.000Z</time>
      </trkpt>
      <trkpt lat="44.53158" lon="4.72363">
        <ele>72.1</ele>
        <time>2019-05-27T14:18:38.000Z</time>
      </trkpt>
      <trkpt lat="44.53126" lon="4.72373">
        <ele>73.08</ele>
        <time>2019-05-27T14:18:43.000Z</time>
      </trkpt>
      <trkpt lat="44.53094" lon="4.72383">
        <ele>72.11</ele>
        <time>2019-05-27T14:18:48.000Z</time>
      </trkpt>
      <trkpt lat="44.5306" lon="4.72394">
        <ele>73.08</ele>
        <time>2019-05-27T14:18:53.000Z</time>
      </trkpt>
      <trkpt lat="44.53026" lon="4.72404">
        <ele>73.1</ele>
        <time>2019-05-27T14:18:58.000Z</time>
      </trkpt>
      <trkpt lat="44.52991" lon="4.72411">
        <ele>73.85</ele>
        <time>2019-05-27T14:19:03.000Z</time>
      </trkpt>
      <trkpt lat="44.52957" lon="4.72406">
        <ele>75.85</ele>
        <time>2019-05-27T14:19:08.000Z</time>
      </trkpt>
      <trkpt lat="44.52926" lon="4.72393">
        <ele>75.85</ele>
        <time>2019-05-27T14:19:13.000Z</time>
      </trkpt>
      <trkpt lat="44.52892" lon="4.72385">
        <ele>76.1</ele>
        <time>2019-05-27T14:19:18.000Z</time>
      </trkpt>
      <trkpt lat="44.52859" lon="4.72378">
        <ele>76.1</ele>
        <time>2019-05-27T14:19:23.000Z</time>
      </trkpt>
      <trkpt lat="44.52824" lon="4.72371">
        <ele>76.1</ele>
        <time>2019-05-27T14:19:28.000Z</time>
      </trkpt>
      <trkpt lat="44.52791" lon="4.72363">
        <ele>76.1</ele>
        <time>2019-05-27T14:19:33.000Z</time>
      </trkpt>
      <trkpt lat="44.52756" lon="4.72354">
        <ele>76.1</ele>
        <time>2019-05-27T14:19:38.000Z</time>
      </trkpt>
      <trkpt lat="44.52721" lon="4.72345">
        <ele>76.85</ele>
        <time>2019-05-27T14:19:43.000Z</time>
      </trkpt>
      <trkpt lat="44.52687" lon="4.72336">
        <ele>76.16</ele>
        <time>2019-05-27T14:19:48.000Z</time>
      </trkpt>
      <trkpt lat="44.52651" lon="4.72327">
        <ele>76.1</ele>
        <time>2019-05-27T14:19:53.000Z</time>
      </trkpt>
      <trkpt lat="44.52616" lon="4.72319">
        <ele>76.85</ele>
        <time>2019-05-27T14:19:58.000Z</time>
      </trkpt>
      <trkpt lat="44.52582" lon="4.7231">
        <ele>76.11</ele>
        <time>2019-05-27T14:20:03.000Z</time>
      </trkpt>
      <trkpt lat="44.52547" lon="4.72303">
        <ele>76.1</ele>
        <time>2019-05-27T14:20:08.000Z</time>
      </trkpt>
      <trkpt lat="44.52512" lon="4.72307">
        <ele>75.91</ele>
        <time>2019-05-27T14:20:13.000Z</time>
      </trkpt>
      <trkpt lat="44.5248" lon="4.72326">
        <ele>76.1</ele>
        <time>2019-05-27T14:20:18.000Z</time>
      </trkpt>
      <trkpt lat="44.52448" lon="4.72344">
        <ele>76.35</ele>
        <time>2019-05-27T14:20:23.000Z</time>
      </trkpt>
      <trkpt lat="44.52416" lon="4.72363">
        <ele>76.16</ele>
        <time>2019-05-27T14:20:28.000Z</time>
      </trkpt>
      <trkpt lat="44.52382" lon="4.72383">
        <ele>76.1</ele>
        <time>2019-05-27T14:20:33.000Z</time>
      </trkpt>
      <trkpt lat="44.52346" lon="4.72405">
        <ele>75.11</ele>
        <time>2019-05-27T14:20:38.000Z</time>
      </trkpt>
      <trkpt lat="44.52308" lon="4.72422">
        <ele>74.31</ele>
        <time>2019-05-27T14:20:43.000Z</time>
      </trkpt>
      <trkpt lat="44.52268" lon="4.72425">
        <ele>73.17</ele>
        <time>2019-05-27T14:20:48.000Z</time>
      </trkpt>
      <trkpt lat="44.52219" lon="4.72424">
        <ele>70.18</ele>
        <time>2019-05-27T14:20:53.000Z</time>
      </trkpt>
      <trkpt lat="44.52175" lon="4.72424">
        <ele>66.19</ele>
        <time>2019-05-27T14:20:58.000Z</time>
      </trkpt>
      <trkpt lat="44.52147" lon="4.72447">
        <ele>65.1</ele>
        <time>2019-05-27T14:21:03.000Z</time>
      </trkpt>
      <trkpt lat="44.52114" lon="4.72473">
        <ele>64.11</ele>
        <time>2019-05-27T14:21:08.000Z</time>
      </trkpt>
      <trkpt lat="44.52083" lon="4.72506">
        <ele>62.98</ele>
        <time>2019-05-27T14:21:13.000Z</time>
      </trkpt>
      <trkpt lat="44.52053" lon="4.72533">
        <ele>64.05</ele>
        <time>2019-05-27T14:21:18.000Z</time>
      </trkpt>
      <trkpt lat="44.52016" lon="4.72535">
        <ele>63.12</ele>
        <time>2019-05-27T14:21:23.000Z</time>
      </trkpt>
      <trkpt lat="44.51978" lon="4.72534">
        <ele>63.11</ele>
        <time>2019-05-27T14:21:28.000Z</time>
      </trkpt>
      <trkpt lat="44.51941" lon="4.72532">
        <ele>64.04</ele>
        <time>2019-05-27T14:21:33.000Z</time>
      </trkpt>
      <trkpt lat="44.51907" lon="4.72526">
        <ele>63.87</ele>
        <time>2019-05-27T14:21:38.000Z</time>
      </trkpt>
      <trkpt lat="44.51874" lon="4.72519">
        <ele>64.11</ele>
        <time>2019-05-27T14:21:43.000Z</time>
      </trkpt>
      <trkpt lat="44.51842" lon="4.72514">
        <ele>64.11</ele>
        <time>2019-05-27T14:21:48.000Z</time>
      </trkpt>
      <trkpt lat="44.5181" lon="4.72505">
        <ele>65.1</ele>
        <time>2019-05-27T14:21:53.000Z</time>
      </trkpt>
      <trkpt lat="44.51777" lon="4.72494">
        <ele>65.11</ele>
        <time>2019-05-27T14:21:58.000Z</time>
      </trkpt>
      <trkpt lat="44.51748" lon="4.7247">
        <ele>65.85</ele>
        <time>2019-05-27T14:22:03.000Z</time>
      </trkpt>
      <trkpt lat="44.51716" lon="4.72458">
        <ele>66.11</ele>
        <time>2019-05-27T14:22:08.000Z</time>
      </trkpt>
      <trkpt lat="44.51681" lon="4.72445">
        <ele>64.19</ele>
        <time>2019-05-27T14:22:13.000Z</time>
      </trkpt>
      <trkpt lat="44.51644" lon="4.72433">
        <ele>65.11</ele>
        <time>2019-05-27T14:22:18.000Z</time>
      </trkpt>
      <trkpt lat="44.51608" lon="4.72417">
        <ele>64.35</ele>
        <time>2019-05-27T14:22:23.000Z</time>
      </trkpt>
      <trkpt lat="44.51571" lon="4.724">
        <ele>64.11</ele>
        <time>2019-05-27T14:22:28.000Z</time>
      </trkpt>
      <trkpt lat="44.51536" lon="4.72385">
        <ele>63.88</ele>
        <time>2019-05-27T14:22:33.000Z</time>
      </trkpt>
      <trkpt lat="44.515" lon="4.72368">
        <ele>64.11</ele>
        <time>2019-05-27T14:22:38.000Z</time>
      </trkpt>
      <trkpt lat="44.51467" lon="4.72354">
        <ele>64.34</ele>
        <time>2019-05-27T14:22:43.000Z</time>
      </trkpt>
      <trkpt lat="44.51432" lon="4.72339">
        <ele>63.37</ele>
        <time>2019-05-27T14:22:48.000Z</time>
      </trkpt>
      <trkpt lat="44.514" lon="4.72324">
        <ele>63.3</ele>
        <time>2019-05-27T14:22:53.000Z</time>
      </trkpt>
      <trkpt lat="44.51368" lon="4.7231">
        <ele>62.16</ele>
        <time>2019-05-27T14:22:58.000Z</time>
      </trkpt>
      <trkpt lat="44.51336" lon="4.72295">
        <ele>62.11</ele>
        <time>2019-05-27T14:23:03.000Z</time>
      </trkpt>
      <trkpt lat="44.51302" lon="4.72281">
        <ele>62.11</ele>
        <time>2019-05-27T14:23:08.000Z</time>
      </trkpt>
      <trkpt lat="44.51269" lon="4.72265">
        <ele>60.11</ele>
        <time>2019-05-27T14:23:13.000Z</time>
      </trkpt>
      <trkpt lat="44.5124" lon="4.72241">
        <ele>59.12</ele>
        <time>2019-05-27T14:23:18.000Z</time>
      </trkpt>
      <trkpt lat="44.51232" lon="4.72198">
        <ele>61.09</ele>
        <time>2019-05-27T14:23:23.000Z</time>
      </trkpt>
      <trkpt lat="44.51226" lon="4.72151">
        <ele>60.36</ele>
        <time>2019-05-27T14:23:28.000Z</time>
      </trkpt>
      <trkpt lat="44.51218" lon="4.72105">
        <ele>61.11</ele>
        <time>2019-05-27T14:23:33.000Z</time>
      </trkpt>
      <trkpt lat="44.51216" lon="4.72063">
        <ele>62.09</ele>
        <time>2019-05-27T14:23:38.000Z</time>
      </trkpt>
      <trkpt lat="44.51215" lon="4.7202">
        <ele>63.09</ele>
        <time>2019-05-27T14:23:43.000Z</time>
      </trkpt>
      <trkpt lat="44.51213" lon="4.71976">
        <ele>62.17</ele>
        <time>2019-05-27T14:23:48.000Z</time>
      </trkpt>
      <trkpt lat="44.51207" lon="4.7193">
        <ele>61.29</ele>
        <time>2019-05-27T14:23:53.000Z</time>
      </trkpt>
      <trkpt lat="44.5119" lon="4.7189">
        <ele>61.11</ele>
        <time>2019-05-27T14:23:58.000Z</time>
      </trkpt>
      <trkpt lat="44.51166" lon="4.71858">
        <ele>61.05</ele>
        <time>2019-05-27T14:24:03.000Z</time>
      </trkpt>
      <trkpt lat="44.51137" lon="4.71832">
        <ele>61.11</ele>
        <time>2019-05-27T14:24:08.000Z</time>
      </trkpt>
      <trkpt lat="44.51108" lon="4.71803">
        <ele>62.04</ele>
        <time>2019-05-27T14:24:13.000Z</time>
      </trkpt>
      <trkpt lat="44.51078" lon="4.71775">
        <ele>61.12</ele>
        <time>2019-05-27T14:24:18.000Z</time>
      </trkpt>
      <trkpt lat="44.51049" lon="4.71748">
        <ele>60.09</ele>
        <time>2019-05-27T14:24:23.000Z</time>
      </trkpt>
      <trkpt lat="44.5102" lon="4.71717">
        <ele>60.29</ele>
        <time>2019-05-27T14:24:28.000Z</time>
      </trkpt>
      <trkpt lat="44.50993" lon="4.71683">
        <ele>60.86</ele>
        <time>2019-05-27T14:24:33.000Z</time>
      </trkpt>
      <trkpt lat="44.50967" lon="4.71649">
        <ele>61.1</ele>
        <time>2019-05-27T14:24:38.000Z</time>
      </trkpt>
      <trkpt lat="44.50944" lon="4.71616">
        <ele>61.12</ele>
        <time>2019-05-27T14:24:43.000Z</time>
      </trkpt>
      <trkpt lat="44.50917" lon="4.71589">
        <ele>60.17</ele>
        <time>2019-05-27T14:24:48.000Z</time>
      </trkpt>
      <trkpt lat="44.50889" lon="4.71566">
        <ele>60.06</ele>
        <time>2019-05-27T14:24:53.000Z</time>
      </trkpt>
      <trkpt lat="44.50861" lon="4.71547">
        <ele>61.1</ele>
        <time>2019-05-27T14:24:58.000Z</time>
      </trkpt>
      <trkpt lat="44.50832" lon="4.7153">
        <ele>61.85</ele>
        <time>2019-05-27T14:25:03.000Z</time>
      </trkpt>
      <trkpt lat="44.50801" lon="4.71511">
        <ele>64.78</ele>
        <time>2019-05-27T14:25:08.000Z</time>
      </trkpt>
      <trkpt lat="44.50773" lon="4.71497">
        <ele>66.1</ele>
        <time>2019-05-27T14:25:13.000Z</time>
      </trkpt>
      <trkpt lat="44.5074" lon="4.71485">
        <ele>64.87</ele>
        <time>2019-05-27T14:25:18.000Z</time>
      </trkpt>
      <trkpt lat="44.50712" lon="4.71464">
        <ele>63.41</ele>
        <time>2019-05-27T14:25:23.000Z</time>
      </trkpt>
      <trkpt lat="44.50699" lon="4.71422">
        <ele>62.91</ele>
        <time>2019-05-27T14:25:28.000Z</time>
      </trkpt>
      <trkpt lat="44.50685" lon="4.71383">
        <ele>62.87</ele>
        <time>2019-05-27T14:25:33.000Z</time>
      </trkpt>
      <trkpt lat="44.50668" lon="4.71344">
        <ele>61.12</ele>
        <time>2019-05-27T14:25:38.000Z</time>
      </trkpt>
      <trkpt lat="44.50653" lon="4.71304">
        <ele>60.12</ele>
        <time>2019-05-27T14:25:43.000Z</time>
      </trkpt>
      <trkpt lat="44.50637" lon="4.71264">
        <ele>59.12</ele>
        <time>2019-05-27T14:25:48.000Z</time>
      </trkpt>
      <trkpt lat="44.50621" lon="4.71222">
        <ele>58.92</ele>
        <time>2019-05-27T14:25:53.000Z</time>
      </trkpt>
      <trkpt lat="44.50607" lon="4.71179">
        <ele>58.12</ele>
        <time>2019-05-27T14:25:58.000Z</time>
      </trkpt>
      <trkpt lat="44.5059" lon="4.71135">
        <ele>58.85</ele>
        <time>2019-05-27T14:26:03.000Z</time>
      </trkpt>
      <trkpt lat="44.50574" lon="4.71093">
        <ele>60.09</ele>
        <time>2019-05-27T14:26:08.000Z</time>
      </trkpt>
      <trkpt lat="44.50559" lon="4.71053">
        <ele>60.1</ele>
        <time>2019-05-27T14:26:13.000Z</time>
      </trkpt>
      <trkpt lat="44.50543" lon="4.71014">
        <ele>59.92</ele>
        <time>2019-05-27T14:26:18.000Z</time>
      </trkpt>
      <trkpt lat="44.50527" lon="4.70974">
        <ele>60.1</ele>
        <time>2019-05-27T14:26:23.000Z</time>
      </trkpt>
      <trkpt lat="44.50505" lon="4.7094">
        <ele>61.1</ele>
        <time>2019-05-27T14:26:28.000Z</time>
      </trkpt>
      <trkpt lat="44.50488" lon="4.70901">
        <ele>60.86</ele>
        <time>2019-05-27T14:26:33.000Z</time>
      </trkpt>
      <trkpt lat="44.50472" lon="4.7086">
        <ele>60.12</ele>
        <time>2019-05-27T14:26:38.000Z</time>
      </trkpt>
      <trkpt lat="44.50456" lon="4.70818">
        <ele>60.1</ele>
        <time>2019-05-27T14:26:43.000Z</time>
      </trkpt>
      <trkpt lat="44.50434" lon="4.70784">
        <ele>60.15</ele>
        <time>2019-05-27T14:26:48.000Z</time>
      </trkpt>
      <trkpt lat="44.50417" lon="4.70749">
        <ele>60.11</ele>
        <time>2019-05-27T14:26:53.000Z</time>
      </trkpt>
      <trkpt lat="44.50389" lon="4.70724">
        <ele>60.1</ele>
        <time>2019-05-27T14:26:58.000Z</time>
      </trkpt>
      <trkpt lat="44.50359" lon="4.70717">
        <ele>61.05</ele>
        <time>2019-05-27T14:27:03.000Z</time>
      </trkpt>
      <trkpt lat="44.50338" lon="4.7075">
        <ele>60.1</ele>
        <time>2019-05-27T14:27:08.000Z</time>
      </trkpt>
      <trkpt lat="44.50321" lon="4.70785">
        <ele>61.09</ele>
        <time>2019-05-27T14:27:13.000Z</time>
      </trkpt>
      <trkpt lat="44.50302" lon="4.70787">
        <ele>63.79</ele>
        <time>2019-05-27T14:27:18.000Z</time>
      </trkpt>
      <trkpt lat="44.5029" lon="4.70771">
        <ele>63.35</ele>
        <time>2019-05-27T14:27:23.000Z</time>
      </trkpt>
      <trkpt lat="44.50271" lon="4.70788">
        <ele>64.09</ele>
        <time>2019-05-27T14:27:28.000Z</time>
      </trkpt>
      <trkpt lat="44.50248" lon="4.70787">
        <ele>62.92</ele>
        <time>2019-05-27T14:27:33.000Z</time>
      </trkpt>
      <trkpt lat="44.50224" lon="4.70764">
        <ele>62.35</ele>
        <time>2019-05-27T14:27:38.000Z</time>
      </trkpt>
      <trkpt lat="44.50215" lon="4.70729">
        <ele>62.16</ele>
        <time>2019-05-27T14:27:43.000Z</time>
      </trkpt>
      <trkpt lat="44.50204" lon="4.70691">
        <ele>62.1</ele>
        <time>2019-05-27T14:27:48.000Z</time>
      </trkpt>
      <trkpt lat="44.50189" lon="4.70655">
        <ele>61.16</ele>
        <time>2019-05-27T14:27:53.000Z</time>
      </trkpt>
      <trkpt lat="44.50175" lon="4.70616">
        <ele>61.85</ele>
        <time>2019-05-27T14:27:58.000Z</time>
      </trkpt>
      <trkpt lat="44.50151" lon="4.70586">
        <ele>61.35</ele>
        <time>2019-05-27T14:28:03.000Z</time>
      </trkpt>
      <trkpt lat="44.50132" lon="4.70547">
        <ele>62.1</ele>
        <time>2019-05-27T14:28:08.000Z</time>
      </trkpt>
      <trkpt lat="44.50116" lon="4.70508">
        <ele>62.1</ele>
        <time>2019-05-27T14:28:13.000Z</time>
      </trkpt>
      <trkpt lat="44.50106" lon="4.70485">
        <ele>62.1</ele>
        <time>2019-05-27T14:28:18.000Z</time>
      </trkpt>
      <trkpt lat="44.50094" lon="4.70485">
        <ele>63.04</ele>
        <time>2019-05-27T14:28:23.000Z</time>
      </trkpt>
      <trkpt lat="44.5008" lon="4.70506">
        <ele>62.4</ele>
        <time>2019-05-27T14:28:28.000Z</time>
      </trkpt>
      <trkpt lat="44.50064" lon="4.70526">
        <ele>62.1</ele>
        <time>2019-05-27T14:28:33.000Z</time>
      </trkpt>
      <trkpt lat="44.50047" lon="4.70549">
        <ele>63.04</ele>
        <time>2019-05-27T14:28:38.000Z</time>
      </trkpt>
      <trkpt lat="44.50031" lon="4.7057">
        <ele>63.85</ele>
        <time>2019-05-27T14:28:43.000Z</time>
      </trkpt>
      <trkpt lat="44.50015" lon="4.70587">
        <ele>65.09</ele>
        <time>2019-05-27T14:28:48.000Z</time>
      </trkpt>
      <trkpt lat="44.5" lon="4.70603">
        <ele>67.05</ele>
        <time>2019-05-27T14:28:53.000Z</time>
      </trkpt>
      <trkpt lat="44.49989" lon="4.70612">
        <ele>68.09</ele>
        <time>2019-05-27T14:30:10.000Z</time>
      </trkpt>
      <trkpt lat="44.49982" lon="4.70623">
        <ele>70.35</ele>
        <time>2019-05-27T14:30:15.000Z</time>
      </trkpt>
      <trkpt lat="44.49979" lon="4.70646">
        <ele>70.09</ele>
        <time>2019-05-27T14:30:20.000Z</time>
      </trkpt>
      <trkpt lat="44.49969" lon="4.70667">
        <ele>70.9</ele>
        <time>2019-05-27T14:30:25.000Z</time>
      </trkpt>
      <trkpt lat="44.49959" lon="4.70681">
        <ele>72.04</ele>
        <time>2019-05-27T14:30:30.000Z</time>
      </trkpt>
      <trkpt lat="44.4995" lon="4.70694">
        <ele>72.1</ele>
        <time>2019-05-27T14:30:35.000Z</time>
      </trkpt>
      <trkpt lat="44.4994" lon="4.70708">
        <ele>69.65</ele>
        <time>2019-05-27T14:30:40.000Z</time>
      </trkpt>
      <trkpt lat="44.49925" lon="4.70729">
        <ele>66.18</ele>
        <time>2019-05-27T14:30:45.000Z</time>
      </trkpt>
      <trkpt lat="44.49903" lon="4.7076">
        <ele>65.36</ele>
        <time>2019-05-27T14:30:50.000Z</time>
      </trkpt>
      <trkpt lat="44.49879" lon="4.70794">
        <ele>67.04</ele>
        <time>2019-05-27T14:30:55.000Z</time>
      </trkpt>
      <trkpt lat="44.49857" lon="4.70825">
        <ele>68.06</ele>
        <time>2019-05-27T14:31:00.000Z</time>
      </trkpt>
      <trkpt lat="44.49834" lon="4.70854">
        <ele>69.1</ele>
        <time>2019-05-27T14:31:05.000Z</time>
      </trkpt>
      <trkpt lat="44.49814" lon="4.70881">
        <ele>69.86</ele>
        <time>2019-05-27T14:31:10.000Z</time>
      </trkpt>
      <trkpt lat="44.4979" lon="4.70889">
        <ele>69.17</ele>
        <time>2019-05-27T14:31:15.000Z</time>
      </trkpt>
      <trkpt lat="44.4977" lon="4.70899">
        <ele>69.1</ele>
        <time>2019-05-27T14:31:20.000Z</time>
      </trkpt>
      <trkpt lat="44.49755" lon="4.7092">
        <ele>69.17</ele>
        <time>2019-05-27T14:31:25.000Z</time>
      </trkpt>
      <trkpt lat="44.49735" lon="4.70941">
        <ele>72.04</ele>
        <time>2019-05-27T14:31:30.000Z</time>
      </trkpt>
      <trkpt lat="44.49718" lon="4.70965">
        <ele>71.86</ele>
        <time>2019-05-27T14:31:35.000Z</time>
      </trkpt>
      <trkpt lat="44.49702" lon="4.70989">
        <ele>71.3</ele>
        <time>2019-05-27T14:31:40.000Z</time>
      </trkpt>
      <trkpt lat="44.49686" lon="4.7101">
        <ele>70.41</ele>
        <time>2019-05-27T14:31:45.000Z</time>
      </trkpt>
      <trkpt lat="44.4967" lon="4.71032">
        <ele>72.83</ele>
        <time>2019-05-27T14:31:50.000Z</time>
      </trkpt>
      <trkpt lat="44.49664" lon="4.7106">
        <ele>71.13</ele>
        <time>2019-05-27T14:31:55.000Z</time>
      </trkpt>
      <trkpt lat="44.49663" lon="4.71086">
        <ele>70.13</ele>
        <time>2019-05-27T14:32:00.000Z</time>
      </trkpt>
      <trkpt lat="44.4965" lon="4.71107">
        <ele>68.61</ele>
        <time>2019-05-27T14:32:05.000Z</time>
      </trkpt>
      <trkpt lat="44.49619" lon="4.71111">
        <ele>67.32</ele>
        <time>2019-05-27T14:32:10.000Z</time>
      </trkpt>
      <trkpt lat="44.49587" lon="4.71104">
        <ele>64.38</ele>
        <time>2019-05-27T14:32:15.000Z</time>
      </trkpt>
      <trkpt lat="44.49551" lon="4.71109">
        <ele>64.11</ele>
        <time>2019-05-27T14:32:20.000Z</time>
      </trkpt>
      <trkpt lat="44.49517" lon="4.71117">
        <ele>64.36</ele>
        <time>2019-05-27T14:32:25.000Z</time>
      </trkpt>
      <trkpt lat="44.49478" lon="4.7112">
        <ele>64.11</ele>
        <time>2019-05-27T14:32:30.000Z</time>
      </trkpt>
      <trkpt lat="44.49442" lon="4.71133">
        <ele>64.11</ele>
        <time>2019-05-27T14:32:35.000Z</time>
      </trkpt>
      <trkpt lat="44.49409" lon="4.71156">
        <ele>66.05</ele>
        <time>2019-05-27T14:32:40.000Z</time>
      </trkpt>
      <trkpt lat="44.49377" lon="4.71157">
        <ele>65.93</ele>
        <time>2019-05-27T14:32:45.000Z</time>
      </trkpt>
      <trkpt lat="44.49353" lon="4.71168">
        <ele>66.1</ele>
        <time>2019-05-27T14:32:50.000Z</time>
      </trkpt>
      <trkpt lat="44.49336" lon="4.71201">
        <ele>67.11</ele>
        <time>2019-05-27T14:32:55.000Z</time>
      </trkpt>
      <trkpt lat="44.49321" lon="4.71239">
        <ele>66.37</ele>
        <time>2019-05-27T14:33:00.000Z</time>
      </trkpt>
      <trkpt lat="44.49308" lon="4.71262">
        <ele>65.37</ele>
        <time>2019-05-27T14:33:05.000Z</time>
      </trkpt>
      <trkpt lat="44.4929" lon="4.71236">
        <ele>65.12</ele>
        <time>2019-05-27T14:33:10.000Z</time>
      </trkpt>
      <trkpt lat="44.49263" lon="4.71212">
        <ele>64.37</ele>
        <time>2019-05-27T14:33:15.000Z</time>
      </trkpt>
      <trkpt lat="44.49233" lon="4.71188">
        <ele>64.13</ele>
        <time>2019-05-27T14:33:20.000Z</time>
      </trkpt>
      <trkpt lat="44.49203" lon="4.71164">
        <ele>63.18</ele>
        <time>2019-05-27T14:33:25.000Z</time>
      </trkpt>
      <trkpt lat="44.49175" lon="4.71141">
        <ele>63.87</ele>
        <time>2019-05-27T14:33:30.000Z</time>
      </trkpt>
      <trkpt lat="44.49146" lon="4.71117">
        <ele>63.12</ele>
        <time>2019-05-27T14:33:35.000Z</time>
      </trkpt>
      <trkpt lat="44.49117" lon="4.71093">
        <ele>64.11</ele>
        <time>2019-05-27T14:33:40.000Z</time>
      </trkpt>
      <trkpt lat="44.49087" lon="4.71067">
        <ele>64.12</ele>
        <time>2019-05-27T14:33:45.000Z</time>
      </trkpt>
      <trkpt lat="44.49057" lon="4.7104">
        <ele>64.12</ele>
        <time>2019-05-27T14:33:50.000Z</time>
      </trkpt>
      <trkpt lat="44.49026" lon="4.71012">
        <ele>64.92</ele>
        <time>2019-05-27T14:33:55.000Z</time>
      </trkpt>
      <trkpt lat="44.48994" lon="4.70987">
        <ele>64.12</ele>
        <time>2019-05-27T14:34:00.000Z</time>
      </trkpt>
      <trkpt lat="44.48962" lon="4.70961">
        <ele>64.31</ele>
        <time>2019-05-27T14:34:05.000Z</time>
      </trkpt>
      <trkpt lat="44.48933" lon="4.70935">
        <ele>64.87</ele>
        <time>2019-05-27T14:34:10.000Z</time>
      </trkpt>
      <trkpt lat="44.48904" lon="4.7091">
        <ele>65.12</ele>
        <time>2019-05-27T14:34:15.000Z</time>
      </trkpt>
      <trkpt lat="44.48876" lon="4.70882">
        <ele>64.13</ele>
        <time>2019-05-27T14:34:20.000Z</time>
      </trkpt>
      <trkpt lat="44.48851" lon="4.70851">
        <ele>64.12</ele>
        <time>2019-05-27T14:34:25.000Z</time>
      </trkpt>
      <trkpt lat="44.48826" lon="4.7082">
        <ele>64.12</ele>
        <time>2019-05-27T14:34:30.000Z</time>
      </trkpt>
      <trkpt lat="44.48801" lon="4.70787">
        <ele>63.12</ele>
        <time>2019-05-27T14:34:35.000Z</time>
      </trkpt>
      <trkpt lat="44.48779" lon="4.70753">
        <ele>63.17</ele>
        <time>2019-05-27T14:34:40.000Z</time>
      </trkpt>
      <trkpt lat="44.48755" lon="4.70719">
        <ele>62.12</ele>
        <time>2019-05-27T14:34:45.000Z</time>
      </trkpt>
      <trkpt lat="44.48729" lon="4.70681">
        <ele>61.18</ele>
        <time>2019-05-27T14:34:50.000Z</time>
      </trkpt>
      <trkpt lat="44.48704" lon="4.70642">
        <ele>63.1</ele>
        <time>2019-05-27T14:34:55.000Z</time>
      </trkpt>
      <trkpt lat="44.48676" lon="4.70605">
        <ele>63.31</ele>
        <time>2019-05-27T14:35:00.000Z</time>
      </trkpt>
      <trkpt lat="44.48649" lon="4.70567">
        <ele>62.12</ele>
        <time>2019-05-27T14:35:05.000Z</time>
      </trkpt>
      <trkpt lat="44.48622" lon="4.7053">
        <ele>61.12</ele>
        <time>2019-05-27T14:35:10.000Z</time>
      </trkpt>
      <trkpt lat="44.48597" lon="4.70491">
        <ele>61.12</ele>
        <time>2019-05-27T14:35:15.000Z</time>
      </trkpt>
      <trkpt lat="44.48572" lon="4.70454">
        <ele>60.93</ele>
        <time>2019-05-27T14:35:20.000Z</time>
      </trkpt>
      <trkpt lat="44.48547" lon="4.70417">
        <ele>59.18</ele>
        <time>2019-05-27T14:35:25.000Z</time>
      </trkpt>
      <trkpt lat="44.48522" lon="4.70383">
        <ele>58.31</ele>
        <time>2019-05-27T14:35:30.000Z</time>
      </trkpt>
      <trkpt lat="44.48496" lon="4.70348">
        <ele>59.07</ele>
        <time>2019-05-27T14:35:35.000Z</time>
      </trkpt>
      <trkpt lat="44.48471" lon="4.70315">
        <ele>58.37</ele>
        <time>2019-05-27T14:35:40.000Z</time>
      </trkpt>
      <trkpt lat="44.48444" lon="4.70284">
        <ele>59.12</ele>
        <time>2019-05-27T14:35:45.000Z</time>
      </trkpt>
      <trkpt lat="44.48416" lon="4.70255">
        <ele>61.1</ele>
        <time>2019-05-27T14:35:50.000Z</time>
      </trkpt>
      <trkpt lat="44.48393" lon="4.7022">
        <ele>61.35</ele>
        <time>2019-05-27T14:35:55.000Z</time>
      </trkpt>
      <trkpt lat="44.4837" lon="4.70186">
        <ele>61.18</ele>
        <time>2019-05-27T14:36:00.000Z</time>
      </trkpt>
      <trkpt lat="44.48348" lon="4.70154">
        <ele>61.37</ele>
        <time>2019-05-27T14:36:05.000Z</time>
      </trkpt>
      <trkpt lat="44.48324" lon="4.70129">
        <ele>61.87</ele>
        <time>2019-05-27T14:36:10.000Z</time>
      </trkpt>
      <trkpt lat="44.48312" lon="4.70113">
        <ele>61.12</ele>
        <time>2019-05-27T14:36:58.000Z</time>
      </trkpt>
      <trkpt lat="44.48301" lon="4.70119">
        <ele>59.39</ele>
        <time>2019-05-27T14:37:03.000Z</time>
      </trkpt>
      <trkpt lat="44.48285" lon="4.70115">
        <ele>59.12</ele>
        <time>2019-05-27T14:37:08.000Z</time>
      </trkpt>
      <trkpt lat="44.48262" lon="4.7011">
        <ele>58.12</ele>
        <time>2019-05-27T14:37:13.000Z</time>
      </trkpt>
      <trkpt lat="44.48237" lon="4.70113">
        <ele>59.06</ele>
        <time>2019-05-27T14:37:18.000Z</time>
      </trkpt>
      <trkpt lat="44.48222" lon="4.70126">
        <ele>58.12</ele>
        <time>2019-05-27T14:37:23.000Z</time>
      </trkpt>
      <trkpt lat="44.48207" lon="4.70143">
        <ele>58.12</ele>
        <time>2019-05-27T14:37:28.000Z</time>
      </trkpt>
      <trkpt lat="44.48189" lon="4.70146">
        <ele>58.13</ele>
        <time>2019-05-27T14:37:40.000Z</time>
      </trkpt>
      <trkpt lat="44.48183" lon="4.70156">
        <ele>60.87</ele>
        <time>2019-05-27T14:37:53.000Z</time>
      </trkpt>
      <trkpt lat="44.48184" lon="4.7017">
        <ele>64.12</ele>
        <time>2019-05-27T14:37:58.000Z</time>
      </trkpt>
      <trkpt lat="44.48178" lon="4.70156">
        <ele>62.36</ele>
        <time>2019-05-27T14:38:03.000Z</time>
      </trkpt>
      <trkpt lat="44.48177" lon="4.70127">
        <ele>62.87</ele>
        <time>2019-05-27T14:38:08.000Z</time>
      </trkpt>
      <trkpt lat="44.48175" lon="4.701">
        <ele>62.37</ele>
        <time>2019-05-27T14:38:13.000Z</time>
      </trkpt>
      <trkpt lat="44.48173" lon="4.70073">
        <ele>62.11</ele>
        <time>2019-05-27T14:38:18.000Z</time>
      </trkpt>
      <trkpt lat="44.48171" lon="4.70047">
        <ele>64.85</ele>
        <time>2019-05-27T14:38:23.000Z</time>
      </trkpt>
      <trkpt lat="44.48169" lon="4.70021">
        <ele>67.85</ele>
        <time>2019-05-27T14:38:28.000Z</time>
      </trkpt>
      <trkpt lat="44.48167" lon="4.69996">
        <ele>69.05</ele>
        <time>2019-05-27T14:38:33.000Z</time>
      </trkpt>
      <trkpt lat="44.48164" lon="4.69968">
        <ele>70.1</ele>
        <time>2019-05-27T14:38:38.000Z</time>
      </trkpt>
      <trkpt lat="44.48162" lon="4.69942">
        <ele>70.87</ele>
        <time>2019-05-27T14:38:43.000Z</time>
      </trkpt>
      <trkpt lat="44.4816" lon="4.69915">
        <ele>70.14</ele>
        <time>2019-05-27T14:38:48.000Z</time>
      </trkpt>
      <trkpt lat="44.48157" lon="4.69884">
        <ele>70.12</ele>
        <time>2019-05-27T14:38:53.000Z</time>
      </trkpt>
      <trkpt lat="44.48156" lon="4.69849">
        <ele>69.12</ele>
        <time>2019-05-27T14:38:58.000Z</time>
      </trkpt>
      <trkpt lat="44.48153" lon="4.69812">
        <ele>69.12</ele>
        <time>2019-05-27T14:39:03.000Z</time>
      </trkpt>
      <trkpt lat="44.4815" lon="4.69775">
        <ele>69.12</ele>
        <time>2019-05-27T14:39:08.000Z</time>
      </trkpt>
      <trkpt lat="44.48146" lon="4.69735">
        <ele>68.18</ele>
        <time>2019-05-27T14:39:13.000Z</time>
      </trkpt>
      <trkpt lat="44.48144" lon="4.69697">
        <ele>66.37</ele>
        <time>2019-05-27T14:39:18.000Z</time>
      </trkpt>
      <trkpt lat="44.48146" lon="4.69667">
        <ele>64.2</ele>
        <time>2019-05-27T14:39:23.000Z</time>
      </trkpt>
      <trkpt lat="44.48174" lon="4.69663">
        <ele>62.39</ele>
        <time>2019-05-27T14:39:28.000Z</time>
      </trkpt>
      <trkpt lat="44.48193" lon="4.69655">
        <ele>61.12</ele>
        <time>2019-05-27T14:39:44.000Z</time>
      </trkpt>
      <trkpt lat="44.48185" lon="4.69668">
        <ele>62.12</ele>
        <time>2019-05-27T14:39:49.000Z</time>
      </trkpt>
      <trkpt lat="44.48177" lon="4.69694">
        <ele>60.12</ele>
        <time>2019-05-27T14:39:54.000Z</time>
      </trkpt>
      <trkpt lat="44.4816" lon="4.69714">
        <ele>58.89</ele>
        <time>2019-05-27T14:39:59.000Z</time>
      </trkpt>
      <trkpt lat="44.48145" lon="4.69742">
        <ele>58.18</ele>
        <time>2019-05-27T14:40:04.000Z</time>
      </trkpt>
      <trkpt lat="44.48125" lon="4.69747">
        <ele>58.12</ele>
        <time>2019-05-27T14:40:09.000Z</time>
      </trkpt>
      <trkpt lat="44.48107" lon="4.69741">
        <ele>61.05</ele>
        <time>2019-05-27T14:40:14.000Z</time>
      </trkpt>
      <trkpt lat="44.48082" lon="4.69746">
        <ele>58.39</ele>
        <time>2019-05-27T14:40:19.000Z</time>
      </trkpt>
      <trkpt lat="44.48055" lon="4.69751">
        <ele>59.06</ele>
        <time>2019-05-27T14:40:24.000Z</time>
      </trkpt>
      <trkpt lat="44.48027" lon="4.6975">
        <ele>58.18</ele>
        <time>2019-05-27T14:40:29.000Z</time>
      </trkpt>
      <trkpt lat="44.47999" lon="4.69752">
        <ele>55.39</ele>
        <time>2019-05-27T14:40:34.000Z</time>
      </trkpt>
      <trkpt lat="44.47968" lon="4.69758">
        <ele>55.37</ele>
        <time>2019-05-27T14:40:39.000Z</time>
      </trkpt>
      <trkpt lat="44.47935" lon="4.69769">
        <ele>54.12</ele>
        <time>2019-05-27T14:40:44.000Z</time>
      </trkpt>
      <trkpt lat="44.47905" lon="4.69766">
        <ele>56.09</ele>
        <time>2019-05-27T14:40:49.000Z</time>
      </trkpt>
      <trkpt lat="44.47873" lon="4.69764">
        <ele>56.13</ele>
        <time>2019-05-27T14:40:54.000Z</time>
      </trkpt>
      <trkpt lat="44.47845" lon="4.69769">
        <ele>57</ele>
        <time>2019-05-27T14:40:59.000Z</time>
      </trkpt>
      <trkpt lat="44.47817" lon="4.69772">
        <ele>57.12</ele>
        <time>2019-05-27T14:41:04.000Z</time>
      </trkpt>
      <trkpt lat="44.4779" lon="4.69775">
        <ele>53.43</ele>
        <time>2019-05-27T14:41:09.000Z</time>
      </trkpt>
      <trkpt lat="44.47764" lon="4.69782">
        <ele>53.12</ele>
        <time>2019-05-27T14:41:14.000Z</time>
      </trkpt>
      <trkpt lat="44.47738" lon="4.69785">
        <ele>55.3</ele>
        <time>2019-05-27T14:41:19.000Z</time>
      </trkpt>
      <trkpt lat="44.4771" lon="4.69789">
        <ele>57.03</ele>
        <time>2019-05-27T14:41:24.000Z</time>
      </trkpt>
      <trkpt lat="44.47679" lon="4.69791">
        <ele>58.12</ele>
        <time>2019-05-27T14:41:29.000Z</time>
      </trkpt>
      <trkpt lat="44.47647" lon="4.69798">
        <ele>59.13</ele>
        <time>2019-05-27T14:41:34.000Z</time>
      </trkpt>
      <trkpt lat="44.47618" lon="4.69804">
        <ele>58.39</ele>
        <time>2019-05-27T14:41:39.000Z</time>
      </trkpt>
      <trkpt lat="44.47592" lon="4.69812">
        <ele>58.13</ele>
        <time>2019-05-27T14:41:44.000Z</time>
      </trkpt>
      <trkpt lat="44.47559" lon="4.69818">
        <ele>55.49</ele>
        <time>2019-05-27T14:41:49.000Z</time>
      </trkpt>
      <trkpt lat="44.47525" lon="4.69819">
        <ele>54.38</ele>
        <time>2019-05-27T14:41:54.000Z</time>
      </trkpt>
      <trkpt lat="44.47494" lon="4.69818">
        <ele>53.13</ele>
        <time>2019-05-27T14:41:59.000Z</time>
      </trkpt>
      <trkpt lat="44.47462" lon="4.69816">
        <ele>53.38</ele>
        <time>2019-05-27T14:42:04.000Z</time>
      </trkpt>
      <trkpt lat="44.47428" lon="4.69814">
        <ele>53.13</ele>
        <time>2019-05-27T14:42:09.000Z</time>
      </trkpt>
      <trkpt lat="44.47397" lon="4.69812">
        <ele>55.87</ele>
        <time>2019-05-27T14:42:14.000Z</time>
      </trkpt>
      <trkpt lat="44.47364" lon="4.69812">
        <ele>56.13</ele>
        <time>2019-05-27T14:42:19.000Z</time>
      </trkpt>
      <trkpt lat="44.47333" lon="4.69811">
        <ele>57.08</ele>
        <time>2019-05-27T14:42:24.000Z</time>
      </trkpt>
      <trkpt lat="44.47312" lon="4.69812">
        <ele>55.9</ele>
        <time>2019-05-27T14:43:11.000Z</time>
      </trkpt>
      <trkpt lat="44.47312" lon="4.69798">
        <ele>56.13</ele>
        <time>2019-05-27T14:43:16.000Z</time>
      </trkpt>
      <trkpt lat="44.47321" lon="4.6978">
        <ele>56.08</ele>
        <time>2019-05-27T14:43:21.000Z</time>
      </trkpt>
      <trkpt lat="44.47324" lon="4.69747">
        <ele>54.13</ele>
        <time>2019-05-27T14:43:26.000Z</time>
      </trkpt>
      <trkpt lat="44.47324" lon="4.69716">
        <ele>57.05</ele>
        <time>2019-05-27T14:43:31.000Z</time>
      </trkpt>
      <trkpt lat="44.47322" lon="4.69684">
        <ele>59.86</ele>
        <time>2019-05-27T14:43:36.000Z</time>
      </trkpt>
      <trkpt lat="44.47311" lon="4.69662">
        <ele>58.39</ele>
        <time>2019-05-27T14:43:41.000Z</time>
      </trkpt>
      <trkpt lat="44.473" lon="4.69644">
        <ele>58.13</ele>
        <time>2019-05-27T14:43:46.000Z</time>
      </trkpt>
      <trkpt lat="44.47294" lon="4.6963">
        <ele>57.37</ele>
        <time>2019-05-27T14:43:51.000Z</time>
      </trkpt>
      <trkpt lat="44.47275" lon="4.69633">
        <ele>57.94</ele>
        <time>2019-05-27T14:43:56.000Z</time>
      </trkpt>
      <trkpt lat="44.47248" lon="4.69637">
        <ele>56.38</ele>
        <time>2019-05-27T14:44:01.000Z</time>
      </trkpt>
      <trkpt lat="44.4722" lon="4.69641">
        <ele>54.9</ele>
        <time>2019-05-27T14:44:06.000Z</time>
      </trkpt>
      <trkpt lat="44.4719" lon="4.69643">
        <ele>55.83</ele>
        <time>2019-05-27T14:44:11.000Z</time>
      </trkpt>
      <trkpt lat="44.47159" lon="4.69644">
        <ele>55.13</ele>
        <time>2019-05-27T14:44:16.000Z</time>
      </trkpt>
      <trkpt lat="44.47128" lon="4.69644">
        <ele>54.15</ele>
        <time>2019-05-27T14:44:21.000Z</time>
      </trkpt>
      <trkpt lat="44.47096" lon="4.69641">
        <ele>55.82</ele>
        <time>2019-05-27T14:44:26.000Z</time>
      </trkpt>
      <trkpt lat="44.47064" lon="4.69641">
        <ele>55.13</ele>
        <time>2019-05-27T14:44:31.000Z</time>
      </trkpt>
      <trkpt lat="44.47035" lon="4.69644">
        <ele>55.13</ele>
        <time>2019-05-27T14:44:36.000Z</time>
      </trkpt>
      <trkpt lat="44.47004" lon="4.69645">
        <ele>56.07</ele>
        <time>2019-05-27T14:44:41.000Z</time>
      </trkpt>
      <trkpt lat="44.46974" lon="4.69648">
        <ele>55.13</ele>
        <time>2019-05-27T14:44:46.000Z</time>
      </trkpt>
      <trkpt lat="44.46943" lon="4.69651">
        <ele>54.08</ele>
        <time>2019-05-27T14:44:51.000Z</time>
      </trkpt>
      <trkpt lat="44.46913" lon="4.69653">
        <ele>52.89</ele>
        <time>2019-05-27T14:44:56.000Z</time>
      </trkpt>
      <trkpt lat="44.46882" lon="4.69653">
        <ele>55.06</ele>
        <time>2019-05-27T14:45:01.000Z</time>
      </trkpt>
      <trkpt lat="44.46849" lon="4.69658">
        <ele>55.12</ele>
        <time>2019-05-27T14:45:06.000Z</time>
      </trkpt>
      <trkpt lat="44.46816" lon="4.69665">
        <ele>53.4</ele>
        <time>2019-05-27T14:45:11.000Z</time>
      </trkpt>
      <trkpt lat="44.46784" lon="4.69675">
        <ele>53.09</ele>
        <time>2019-05-27T14:45:16.000Z</time>
      </trkpt>
      <trkpt lat="44.46753" lon="4.69687">
        <ele>53.15</ele>
        <time>2019-05-27T14:45:21.000Z</time>
      </trkpt>
      <trkpt lat="44.46722" lon="4.69698">
        <ele>57.06</ele>
        <time>2019-05-27T14:45:26.000Z</time>
      </trkpt>
      <trkpt lat="44.4669" lon="4.6971">
        <ele>55.45</ele>
        <time>2019-05-27T14:45:31.000Z</time>
      </trkpt>
      <trkpt lat="44.46661" lon="4.69722">
        <ele>56.07</ele>
        <time>2019-05-27T14:45:36.000Z</time>
      </trkpt>
      <trkpt lat="44.4663" lon="4.69734">
        <ele>55.19</ele>
        <time>2019-05-27T14:45:41.000Z</time>
      </trkpt>
      <trkpt lat="44.46601" lon="4.6975">
        <ele>53.64</ele>
        <time>2019-05-27T14:45:46.000Z</time>
      </trkpt>
      <trkpt lat="44.4657" lon="4.69758">
        <ele>55.88</ele>
        <time>2019-05-27T14:45:51.000Z</time>
      </trkpt>
      <trkpt lat="44.46536" lon="4.69762">
        <ele>56.2</ele>
        <time>2019-05-27T14:45:56.000Z</time>
      </trkpt>
      <trkpt lat="44.46503" lon="4.69764">
        <ele>57.14</ele>
        <time>2019-05-27T14:46:01.000Z</time>
      </trkpt>
      <trkpt lat="44.4647" lon="4.69768">
        <ele>57.14</ele>
        <time>2019-05-27T14:46:06.000Z</time>
      </trkpt>
      <trkpt lat="44.4644" lon="4.69773">
        <ele>57.14</ele>
        <time>2019-05-27T14:46:11.000Z</time>
      </trkpt>
      <trkpt lat="44.46408" lon="4.69776">
        <ele>56.95</ele>
        <time>2019-05-27T14:46:16.000Z</time>
      </trkpt>
      <trkpt lat="44.46379" lon="4.69776">
        <ele>58.08</ele>
        <time>2019-05-27T14:46:21.000Z</time>
      </trkpt>
      <trkpt lat="44.46352" lon="4.69775">
        <ele>57.2</ele>
        <time>2019-05-27T14:46:26.000Z</time>
      </trkpt>
      <trkpt lat="44.46325" lon="4.6978">
        <ele>57.14</ele>
        <time>2019-05-27T14:46:31.000Z</time>
      </trkpt>
      <trkpt lat="44.46296" lon="4.69783">
        <ele>55.39</ele>
        <time>2019-05-27T14:46:36.000Z</time>
      </trkpt>
      <trkpt lat="44.46267" lon="4.69784">
        <ele>54.96</ele>
        <time>2019-05-27T14:46:41.000Z</time>
      </trkpt>
      <trkpt lat="44.46236" lon="4.69783">
        <ele>55.14</ele>
        <time>2019-05-27T14:46:46.000Z</time>
      </trkpt>
      <trkpt lat="44.46211" lon="4.69784">
        <ele>55.38</ele>
        <time>2019-05-27T14:46:51.000Z</time>
      </trkpt>
      <trkpt lat="44.46185" lon="4.6979">
        <ele>56.09</ele>
        <time>2019-05-27T14:46:56.000Z</time>
      </trkpt>
      <trkpt lat="44.46157" lon="4.69799">
        <ele>56.14</ele>
        <time>2019-05-27T14:47:01.000Z</time>
      </trkpt>
      <trkpt lat="44.46129" lon="4.69807">
        <ele>56.14</ele>
        <time>2019-05-27T14:47:06.000Z</time>
      </trkpt>
      <trkpt lat="44.46099" lon="4.69813">
        <ele>56.14</ele>
        <time>2019-05-27T14:47:11.000Z</time>
      </trkpt>
      <trkpt lat="44.46069" lon="4.69816">
        <ele>54.1</ele>
        <time>2019-05-27T14:47:16.000Z</time>
      </trkpt>
      <trkpt lat="44.46038" lon="4.69815">
        <ele>55.65</ele>
        <time>2019-05-27T14:47:21.000Z</time>
      </trkpt>
      <trkpt lat="44.46006" lon="4.69812">
        <ele>55.15</ele>
        <time>2019-05-27T14:47:26.000Z</time>
      </trkpt>
      <trkpt lat="44.45974" lon="4.69807">
        <ele>56.94</ele>
        <time>2019-05-27T14:47:31.000Z</time>
      </trkpt>
      <trkpt lat="44.45941" lon="4.69801">
        <ele>56.15</ele>
        <time>2019-05-27T14:47:36.000Z</time>
      </trkpt>
      <trkpt lat="44.45912" lon="4.69794">
        <ele>54.46</ele>
        <time>2019-05-27T14:47:41.000Z</time>
      </trkpt>
      <trkpt lat="44.45882" lon="4.69787">
        <ele>55.15</ele>
        <time>2019-05-27T14:47:46.000Z</time>
      </trkpt>
      <trkpt lat="44.45851" lon="4.69778">
        <ele>55.21</ele>
        <time>2019-05-27T14:47:51.000Z</time>
      </trkpt>
      <trkpt lat="44.45823" lon="4.69771">
        <ele>55.96</ele>
        <time>2019-05-27T14:47:56.000Z</time>
      </trkpt>
      <trkpt lat="44.45814" lon="4.69776">
        <ele>55.34</ele>
        <time>2019-05-27T14:49:14.000Z</time>
      </trkpt>
      <trkpt lat="44.45807" lon="4.69766">
        <ele>56.9</ele>
        <time>2019-05-27T14:49:19.000Z</time>
      </trkpt>
      <trkpt lat="44.4579" lon="4.69763">
        <ele>57.89</ele>
        <time>2019-05-27T14:49:24.000Z</time>
      </trkpt>
      <trkpt lat="44.45768" lon="4.69758">
        <ele>58.14</ele>
        <time>2019-05-27T14:49:29.000Z</time>
      </trkpt>
      <trkpt lat="44.45744" lon="4.69753">
        <ele>57.38</ele>
        <time>2019-05-27T14:49:34.000Z</time>
      </trkpt>
      <trkpt lat="44.45721" lon="4.69745">
        <ele>59.32</ele>
        <time>2019-05-27T14:49:39.000Z</time>
      </trkpt>
      <trkpt lat="44.45697" lon="4.6974">
        <ele>60.21</ele>
        <time>2019-05-27T14:49:44.000Z</time>
      </trkpt>
      <trkpt lat="44.4567" lon="4.69729">
        <ele>60.4</ele>
        <time>2019-05-27T14:49:49.000Z</time>
      </trkpt>
      <trkpt lat="44.45646" lon="4.69722">
        <ele>60.16</ele>
        <time>2019-05-27T14:49:54.000Z</time>
      </trkpt>
      <trkpt lat="44.45625" lon="4.69715">
        <ele>60.15</ele>
        <time>2019-05-27T14:50:49.000Z</time>
      </trkpt>
      <trkpt lat="44.45616" lon="4.69713">
        <ele>60.88</ele>
        <time>2019-05-27T14:50:54.000Z</time>
      </trkpt>
      <trkpt lat="44.45606" lon="4.69707">
        <ele>60.15</ele>
        <time>2019-05-27T14:50:59.000Z</time>
      </trkpt>
      <trkpt lat="44.45587" lon="4.697">
        <ele>60.09</ele>
        <time>2019-05-27T14:51:04.000Z</time>
      </trkpt>
      <trkpt lat="44.45564" lon="4.69693">
        <ele>58.4</ele>
        <time>2019-05-27T14:51:09.000Z</time>
      </trkpt>
      <trkpt lat="44.45541" lon="4.69682">
        <ele>58.21</ele>
        <time>2019-05-27T14:51:14.000Z</time>
      </trkpt>
      <trkpt lat="44.45518" lon="4.69667">
        <ele>60.07</ele>
        <time>2019-05-27T14:51:19.000Z</time>
      </trkpt>
      <trkpt lat="44.45494" lon="4.69653">
        <ele>62.15</ele>
        <time>2019-05-27T14:51:24.000Z</time>
      </trkpt>
      <trkpt lat="44.45468" lon="4.6964">
        <ele>65.08</ele>
        <time>2019-05-27T14:51:29.000Z</time>
      </trkpt>
      <trkpt lat="44.45443" lon="4.69627">
        <ele>64.21</ele>
        <time>2019-05-27T14:51:34.000Z</time>
      </trkpt>
      <trkpt lat="44.45416" lon="4.6961">
        <ele>64.17</ele>
        <time>2019-05-27T14:51:39.000Z</time>
      </trkpt>
      <trkpt lat="44.45387" lon="4.69601">
        <ele>62.16</ele>
        <time>2019-05-27T14:51:44.000Z</time>
      </trkpt>
      <trkpt lat="44.45358" lon="4.69606">
        <ele>61.15</ele>
        <time>2019-05-27T14:51:49.000Z</time>
      </trkpt>
      <trkpt lat="44.45327" lon="4.69609">
        <ele>61.09</ele>
        <time>2019-05-27T14:51:54.000Z</time>
      </trkpt>
      <trkpt lat="44.45298" lon="4.69611">
        <ele>61.15</ele>
        <time>2019-05-27T14:51:59.000Z</time>
      </trkpt>
      <trkpt lat="44.45275" lon="4.69597">
        <ele>61.84</ele>
        <time>2019-05-27T14:52:04.000Z</time>
      </trkpt>
      <trkpt lat="44.45267" lon="4.6958">
        <ele>63.16</ele>
        <time>2019-05-27T14:52:09.000Z</time>
      </trkpt>
      <trkpt lat="44.45255" lon="4.69577">
        <ele>63.4</ele>
        <time>2019-05-27T14:52:14.000Z</time>
      </trkpt>
      <trkpt lat="44.45239" lon="4.69597">
        <ele>62.42</ele>
        <time>2019-05-27T14:52:19.000Z</time>
      </trkpt>
      <trkpt lat="44.45209" lon="4.69591">
        <ele>61.91</ele>
        <time>2019-05-27T14:52:24.000Z</time>
      </trkpt>
      <trkpt lat="44.45181" lon="4.69572">
        <ele>60.36</ele>
        <time>2019-05-27T14:52:29.000Z</time>
      </trkpt>
      <trkpt lat="44.45154" lon="4.69548">
        <ele>59.22</ele>
        <time>2019-05-27T14:52:34.000Z</time>
      </trkpt>
      <trkpt lat="44.45129" lon="4.69527">
        <ele>59.17</ele>
        <time>2019-05-27T14:52:39.000Z</time>
      </trkpt>
      <trkpt lat="44.45103" lon="4.69512">
        <ele>60.28</ele>
        <time>2019-05-27T14:52:44.000Z</time>
      </trkpt>
      <trkpt lat="44.45075" lon="4.69497">
        <ele>59.16</ele>
        <time>2019-05-27T14:52:49.000Z</time>
      </trkpt>
      <trkpt lat="44.45046" lon="4.69482">
        <ele>58.41</ele>
        <time>2019-05-27T14:52:54.000Z</time>
      </trkpt>
      <trkpt lat="44.45015" lon="4.69465">
        <ele>58.16</ele>
        <time>2019-05-27T14:52:59.000Z</time>
      </trkpt>
      <trkpt lat="44.44985" lon="4.69448">
        <ele>57.41</ele>
        <time>2019-05-27T14:53:04.000Z</time>
      </trkpt>
      <trkpt lat="44.44953" lon="4.69433">
        <ele>57.91</ele>
        <time>2019-05-27T14:53:09.000Z</time>
      </trkpt>
      <trkpt lat="44.44921" lon="4.69417">
        <ele>56.41</ele>
        <time>2019-05-27T14:53:14.000Z</time>
      </trkpt>
      <trkpt lat="44.44906" lon="4.69377">
        <ele>56.91</ele>
        <time>2019-05-27T14:53:19.000Z</time>
      </trkpt>
      <trkpt lat="44.44904" lon="4.69329">
        <ele>58.15</ele>
        <time>2019-05-27T14:53:24.000Z</time>
      </trkpt>
      <trkpt lat="44.44902" lon="4.69284">
        <ele>58.16</ele>
        <time>2019-05-27T14:53:29.000Z</time>
      </trkpt>
      <trkpt lat="44.44883" lon="4.69257">
        <ele>57.91</ele>
        <time>2019-05-27T14:53:34.000Z</time>
      </trkpt>
      <trkpt lat="44.4485" lon="4.6926">
        <ele>55.42</ele>
        <time>2019-05-27T14:53:39.000Z</time>
      </trkpt>
      <trkpt lat="44.4482" lon="4.69266">
        <ele>55.16</ele>
        <time>2019-05-27T14:53:44.000Z</time>
      </trkpt>
      <trkpt lat="44.44789" lon="4.69266">
        <ele>55.91</ele>
        <time>2019-05-27T14:53:49.000Z</time>
      </trkpt>
      <trkpt lat="44.44762" lon="4.69254">
        <ele>55.91</ele>
        <time>2019-05-27T14:53:54.000Z</time>
      </trkpt>
      <trkpt lat="44.44736" lon="4.69234">
        <ele>55.22</ele>
        <time>2019-05-27T14:53:59.000Z</time>
      </trkpt>
      <trkpt lat="44.4471" lon="4.69214">
        <ele>55.1</ele>
        <time>2019-05-27T14:54:04.000Z</time>
      </trkpt>
      <trkpt lat="44.44682" lon="4.6919">
        <ele>54.96</ele>
        <time>2019-05-27T14:54:09.000Z</time>
      </trkpt>
      <trkpt lat="44.44652" lon="4.6917">
        <ele>54.16</ele>
        <time>2019-05-27T14:54:14.000Z</time>
      </trkpt>
      <trkpt lat="44.44624" lon="4.69151">
        <ele>55.1</ele>
        <time>2019-05-27T14:54:19.000Z</time>
      </trkpt>
      <trkpt lat="44.44592" lon="4.69137">
        <ele>55.71</ele>
        <time>2019-05-27T14:54:24.000Z</time>
      </trkpt>
      <trkpt lat="44.4456" lon="4.69123">
        <ele>55.35</ele>
        <time>2019-05-27T14:54:29.000Z</time>
      </trkpt>
      <trkpt lat="44.44528" lon="4.6911">
        <ele>55.41</ele>
        <time>2019-05-27T14:54:34.000Z</time>
      </trkpt>
      <trkpt lat="44.44496" lon="4.69097">
        <ele>55.39</ele>
        <time>2019-05-27T14:54:39.000Z</time>
      </trkpt>
      <trkpt lat="44.44466" lon="4.69079">
        <ele>57.14</ele>
        <time>2019-05-27T14:54:44.000Z</time>
      </trkpt>
      <trkpt lat="44.44439" lon="4.69056">
        <ele>56.21</ele>
        <time>2019-05-27T14:54:49.000Z</time>
      </trkpt>
      <trkpt lat="44.44413" lon="4.69028">
        <ele>56.86</ele>
        <time>2019-05-27T14:54:54.000Z</time>
      </trkpt>
      <trkpt lat="44.44394" lon="4.69049">
        <ele>57.15</ele>
        <time>2019-05-27T14:54:59.000Z</time>
      </trkpt>
      <trkpt lat="44.44371" lon="4.69041">
        <ele>58.89</ele>
        <time>2019-05-27T14:55:04.000Z</time>
      </trkpt>
      <trkpt lat="44.4436" lon="4.69006">
        <ele>59.16</ele>
        <time>2019-05-27T14:55:09.000Z</time>
      </trkpt>
      <trkpt lat="44.44342" lon="4.68979">
        <ele>56.48</ele>
        <time>2019-05-27T14:55:14.000Z</time>
      </trkpt>
      <trkpt lat="44.4432" lon="4.68951">
        <ele>55.42</ele>
        <time>2019-05-27T14:55:19.000Z</time>
      </trkpt>
      <trkpt lat="44.443" lon="4.68918">
        <ele>56.33</ele>
        <time>2019-05-27T14:55:24.000Z</time>
      </trkpt>
      <trkpt lat="44.4428" lon="4.68888">
        <ele>57.85</ele>
        <time>2019-05-27T14:55:29.000Z</time>
      </trkpt>
      <trkpt lat="44.44262" lon="4.68857">
        <ele>58.16</ele>
        <time>2019-05-27T14:55:34.000Z</time>
      </trkpt>
      <trkpt lat="44.44237" lon="4.68824">
        <ele>59.86</ele>
        <time>2019-05-27T14:55:39.000Z</time>
      </trkpt>
      <trkpt lat="44.44218" lon="4.68788">
        <ele>58.47</ele>
        <time>2019-05-27T14:55:44.000Z</time>
      </trkpt>
      <trkpt lat="44.442" lon="4.68749">
        <ele>56.91</ele>
        <time>2019-05-27T14:55:49.000Z</time>
      </trkpt>
      <trkpt lat="44.44178" lon="4.68722">
        <ele>55.26</ele>
        <time>2019-05-27T14:55:54.000Z</time>
      </trkpt>
      <trkpt lat="44.44163" lon="4.68697">
        <ele>55.39</ele>
        <time>2019-05-27T14:55:59.000Z</time>
      </trkpt>
      <trkpt lat="44.44141" lon="4.68656">
        <ele>54.53</ele>
        <time>2019-05-27T14:56:04.000Z</time>
      </trkpt>
      <trkpt lat="44.4413" lon="4.68621">
        <ele>55.34</ele>
        <time>2019-05-27T14:56:09.000Z</time>
      </trkpt>
      <trkpt lat="44.44108" lon="4.68595">
        <ele>57.1</ele>
        <time>2019-05-27T14:56:14.000Z</time>
      </trkpt>
      <trkpt lat="44.44083" lon="4.68574">
        <ele>58.9</ele>
        <time>2019-05-27T14:56:19.000Z</time>
      </trkpt>
      <trkpt lat="44.44061" lon="4.68551">
        <ele>60.1</ele>
        <time>2019-05-27T14:56:24.000Z</time>
      </trkpt>
      <trkpt lat="44.44048" lon="4.6852">
        <ele>57.42</ele>
        <time>2019-05-27T14:56:29.000Z</time>
      </trkpt>
      <trkpt lat="44.4404" lon="4.68484">
        <ele>57.86</ele>
        <time>2019-05-27T14:56:34.000Z</time>
      </trkpt>
      <trkpt lat="44.44033" lon="4.68448">
        <ele>61.11</ele>
        <time>2019-05-27T14:56:39.000Z</time>
      </trkpt>
      <trkpt lat="44.44036" lon="4.68414">
        <ele>60.41</ele>
        <time>2019-05-27T14:56:44.000Z</time>
      </trkpt>
      <trkpt lat="44.4405" lon="4.68394">
        <ele>58.18</ele>
        <time>2019-05-27T14:56:49.000Z</time>
      </trkpt>
      <trkpt lat="44.44056" lon="4.68369">
        <ele>57.16</ele>
        <time>2019-05-27T14:56:54.000Z</time>
      </trkpt>
      <trkpt lat="44.44053" lon="4.68349">
        <ele>57.89</ele>
        <time>2019-05-27T14:56:59.000Z</time>
      </trkpt>
      <trkpt lat="44.44049" lon="4.68326">
        <ele>58.35</ele>
        <time>2019-05-27T14:57:04.000Z</time>
      </trkpt>
      <trkpt lat="44.44047" lon="4.68295">
        <ele>59.04</ele>
        <time>2019-05-27T14:57:09.000Z</time>
      </trkpt>
      <trkpt lat="44.44039" lon="4.68266">
        <ele>60.16</ele>
        <time>2019-05-27T14:57:14.000Z</time>
      </trkpt>
      <trkpt lat="44.44021" lon="4.6825">
        <ele>61.16</ele>
        <time>2019-05-27T14:57:19.000Z</time>
      </trkpt>
      <trkpt lat="44.44004" lon="4.68242">
        <ele>61.39</ele>
        <time>2019-05-27T14:57:24.000Z</time>
      </trkpt>
      <trkpt lat="44.43997" lon="4.68225">
        <ele>62.1</ele>
        <time>2019-05-27T14:57:29.000Z</time>
      </trkpt>
      <trkpt lat="44.44006" lon="4.68211">
        <ele>63.16</ele>
        <time>2019-05-27T14:57:34.000Z</time>
      </trkpt>
      <trkpt lat="44.4402" lon="4.68195">
        <ele>64.1</ele>
        <time>2019-05-27T14:57:39.000Z</time>
      </trkpt>
      <trkpt lat="44.44038" lon="4.68188">
        <ele>65.16</ele>
        <time>2019-05-27T14:57:44.000Z</time>
      </trkpt>
      <trkpt lat="44.44055" lon="4.68184">
        <ele>62.41</ele>
        <time>2019-05-27T14:57:49.000Z</time>
      </trkpt>
      <trkpt lat="44.44067" lon="4.68174">
        <ele>62.16</ele>
        <time>2019-05-27T14:57:54.000Z</time>
      </trkpt>
      <trkpt lat="44.44069" lon="4.68158">
        <ele>62.86</ele>
        <time>2019-05-27T14:57:59.000Z</time>
      </trkpt>
      <trkpt lat="44.44061" lon="4.68141">
        <ele>63.35</ele>
        <time>2019-05-27T14:58:04.000Z</time>
      </trkpt>
      <trkpt lat="44.44036" lon="4.6813">
        <ele>61.22</ele>
        <time>2019-05-27T14:58:09.000Z</time>
      </trkpt>
      <trkpt lat="44.44011" lon="4.68123">
        <ele>62.14</ele>
        <time>2019-05-27T14:58:14.000Z</time>
      </trkpt>
      <trkpt lat="44.43992" lon="4.68093">
        <ele>60.93</ele>
        <time>2019-05-27T14:58:19.000Z</time>
      </trkpt>
      <trkpt lat="44.43976" lon="4.68062">
        <ele>60.97</ele>
        <time>2019-05-27T14:58:24.000Z</time>
      </trkpt>
      <trkpt lat="44.43959" lon="4.68031">
        <ele>60.41</ele>
        <time>2019-05-27T14:58:29.000Z</time>
      </trkpt>
      <trkpt lat="44.43939" lon="4.67982">
        <ele>57.16</ele>
        <time>2019-05-27T14:58:34.000Z</time>
      </trkpt>
      <trkpt lat="44.43932" lon="4.67931">
        <ele>57.91</ele>
        <time>2019-05-27T14:58:39.000Z</time>
      </trkpt>
      <trkpt lat="44.43931" lon="4.67886">
        <ele>57.17</ele>
        <time>2019-05-27T14:58:44.000Z</time>
      </trkpt>
      <trkpt lat="44.43926" lon="4.67843">
        <ele>56.39</ele>
        <time>2019-05-27T14:58:49.000Z</time>
      </trkpt>
      <trkpt lat="44.4392" lon="4.678">
        <ele>55.41</ele>
        <time>2019-05-27T14:58:54.000Z</time>
      </trkpt>
      <trkpt lat="44.43912" lon="4.67753">
        <ele>55.36</ele>
        <time>2019-05-27T14:58:59.000Z</time>
      </trkpt>
      <trkpt lat="44.43907" lon="4.67705">
        <ele>56.14</ele>
        <time>2019-05-27T14:59:04.000Z</time>
      </trkpt>
      <trkpt lat="44.43904" lon="4.67661">
        <ele>56.92</ele>
        <time>2019-05-27T14:59:09.000Z</time>
      </trkpt>
      <trkpt lat="44.43895" lon="4.67629">
        <ele>56.22</ele>
        <time>2019-05-27T14:59:14.000Z</time>
      </trkpt>
      <trkpt lat="44.4388" lon="4.67602">
        <ele>55.16</ele>
        <time>2019-05-27T14:59:19.000Z</time>
      </trkpt>
      <trkpt lat="44.43862" lon="4.67568">
        <ele>56.15</ele>
        <time>2019-05-27T14:59:24.000Z</time>
      </trkpt>
      <trkpt lat="44.43847" lon="4.67532">
        <ele>56.1</ele>
        <time>2019-05-27T14:59:29.000Z</time>
      </trkpt>
      <trkpt lat="44.43832" lon="4.67495">
        <ele>56.16</ele>
        <time>2019-05-27T14:59:34.000Z</time>
      </trkpt>
      <trkpt lat="44.43817" lon="4.6746">
        <ele>55.16</ele>
        <time>2019-05-27T14:59:39.000Z</time>
      </trkpt>
      <trkpt lat="44.43803" lon="4.67423">
        <ele>56.13</ele>
        <time>2019-05-27T14:59:44.000Z</time>
      </trkpt>
      <trkpt lat="44.4379" lon="4.67391">
        <ele>56.91</ele>
        <time>2019-05-27T14:59:49.000Z</time>
      </trkpt>
      <trkpt lat="44.43776" lon="4.67358">
        <ele>58.14</ele>
        <time>2019-05-27T14:59:54.000Z</time>
      </trkpt>
      <trkpt lat="44.43762" lon="4.67323">
        <ele>58.92</ele>
        <time>2019-05-27T14:59:59.000Z</time>
      </trkpt>
      <trkpt lat="44.43751" lon="4.67293">
        <ele>59.16</ele>
        <time>2019-05-27T15:00:04.000Z</time>
      </trkpt>
      <trkpt lat="44.43737" lon="4.67263">
        <ele>60.16</ele>
        <time>2019-05-27T15:00:09.000Z</time>
      </trkpt>
      <trkpt lat="44.43721" lon="4.67234">
        <ele>60.91</ele>
        <time>2019-05-27T15:00:14.000Z</time>
      </trkpt>
      <trkpt lat="44.43704" lon="4.6721">
        <ele>60.39</ele>
        <time>2019-05-27T15:00:19.000Z</time>
      </trkpt>
      <trkpt lat="44.43687" lon="4.67183">
        <ele>61.14</ele>
        <time>2019-05-27T15:00:24.000Z</time>
      </trkpt>
      <trkpt lat="44.43669" lon="4.67159">
        <ele>60.22</ele>
        <time>2019-05-27T15:00:29.000Z</time>
      </trkpt>
      <trkpt lat="44.4365" lon="4.67135">
        <ele>59.22</ele>
        <time>2019-05-27T15:00:34.000Z</time>
      </trkpt>
      <trkpt lat="44.43629" lon="4.6711">
        <ele>57.42</ele>
        <time>2019-05-27T15:00:39.000Z</time>
      </trkpt>
      <trkpt lat="44.43608" lon="4.67082">
        <ele>56.36</ele>
        <time>2019-05-27T15:00:44.000Z</time>
      </trkpt>
      <trkpt lat="44.43586" lon="4.67051">
        <ele>57.91</ele>
        <time>2019-05-27T15:00:49.000Z</time>
      </trkpt>
      <trkpt lat="44.43562" lon="4.67025">
        <ele>57.22</ele>
        <time>2019-05-27T15:00:54.000Z</time>
      </trkpt>
      <trkpt lat="44.43535" lon="4.67004">
        <ele>57.16</ele>
        <time>2019-05-27T15:00:59.000Z</time>
      </trkpt>
      <trkpt lat="44.43513" lon="4.66978">
        <ele>56.9</ele>
        <time>2019-05-27T15:01:04.000Z</time>
      </trkpt>
      <trkpt lat="44.43491" lon="4.66952">
        <ele>56.16</ele>
        <time>2019-05-27T15:01:09.000Z</time>
      </trkpt>
      <trkpt lat="44.43469" lon="4.66924">
        <ele>58.09</ele>
        <time>2019-05-27T15:01:14.000Z</time>
      </trkpt>
      <trkpt lat="44.43447" lon="4.66899">
        <ele>57.91</ele>
        <time>2019-05-27T15:01:19.000Z</time>
      </trkpt>
      <trkpt lat="44.43424" lon="4.66878">
        <ele>57.41</ele>
        <time>2019-05-27T15:01:24.000Z</time>
      </trkpt>
      <trkpt lat="44.43398" lon="4.6685">
        <ele>55.1</ele>
        <time>2019-05-27T15:01:29.000Z</time>
      </trkpt>
      <trkpt lat="44.43369" lon="4.66827">
        <ele>57.09</ele>
        <time>2019-05-27T15:01:34.000Z</time>
      </trkpt>
      <trkpt lat="44.4334" lon="4.66807">
        <ele>58.1</ele>
        <time>2019-05-27T15:01:39.000Z</time>
      </trkpt>
      <trkpt lat="44.43315" lon="4.66788">
        <ele>57.22</ele>
        <time>2019-05-27T15:01:44.000Z</time>
      </trkpt>
      <trkpt lat="44.43288" lon="4.66769">
        <ele>58.14</ele>
        <time>2019-05-27T15:01:49.000Z</time>
      </trkpt>
      <trkpt lat="44.43261" lon="4.66752">
        <ele>57.41</ele>
        <time>2019-05-27T15:01:54.000Z</time>
      </trkpt>
      <trkpt lat="44.43234" lon="4.66729">
        <ele>59.14</ele>
        <time>2019-05-27T15:01:59.000Z</time>
      </trkpt>
      <trkpt lat="44.43207" lon="4.66711">
        <ele>58.16</ele>
        <time>2019-05-27T15:02:04.000Z</time>
      </trkpt>
      <trkpt lat="44.43178" lon="4.66693">
        <ele>57.21</ele>
        <time>2019-05-27T15:02:09.000Z</time>
      </trkpt>
      <trkpt lat="44.43154" lon="4.66674">
        <ele>58.1</ele>
        <time>2019-05-27T15:02:14.000Z</time>
      </trkpt>
      <trkpt lat="44.43127" lon="4.66658">
        <ele>57.16</ele>
        <time>2019-05-27T15:02:19.000Z</time>
      </trkpt>
      <trkpt lat="44.43098" lon="4.6664">
        <ele>56.97</ele>
        <time>2019-05-27T15:02:24.000Z</time>
      </trkpt>
      <trkpt lat="44.43071" lon="4.66623">
        <ele>58.1</ele>
        <time>2019-05-27T15:02:29.000Z</time>
      </trkpt>
      <trkpt lat="44.43045" lon="4.66607">
        <ele>59.16</ele>
        <time>2019-05-27T15:02:34.000Z</time>
      </trkpt>
      <trkpt lat="44.43016" lon="4.6659">
        <ele>60.16</ele>
        <time>2019-05-27T15:02:39.000Z</time>
      </trkpt>
      <trkpt lat="44.42988" lon="4.66574">
        <ele>58.23</ele>
        <time>2019-05-27T15:02:44.000Z</time>
      </trkpt>
      <trkpt lat="44.42963" lon="4.6656">
        <ele>57.97</ele>
        <time>2019-05-27T15:02:49.000Z</time>
      </trkpt>
      <trkpt lat="44.42937" lon="4.66552">
        <ele>57.17</ele>
        <time>2019-05-27T15:02:54.000Z</time>
      </trkpt>
      <trkpt lat="44.42911" lon="4.66543">
        <ele>58.91</ele>
        <time>2019-05-27T15:02:59.000Z</time>
      </trkpt>
      <trkpt lat="44.42882" lon="4.6653">
        <ele>60.16</ele>
        <time>2019-05-27T15:03:04.000Z</time>
      </trkpt>
      <trkpt lat="44.42856" lon="4.66513">
        <ele>59.41</ele>
        <time>2019-05-27T15:03:09.000Z</time>
      </trkpt>
      <trkpt lat="44.42828" lon="4.665">
        <ele>60.16</ele>
        <time>2019-05-27T15:03:14.000Z</time>
      </trkpt>
      <trkpt lat="44.42799" lon="4.66483">
        <ele>59.47</ele>
        <time>2019-05-27T15:03:19.000Z</time>
      </trkpt>
      <trkpt lat="44.42772" lon="4.66469">
        <ele>59.31</ele>
        <time>2019-05-27T15:03:24.000Z</time>
      </trkpt>
      <trkpt lat="44.42746" lon="4.66458">
        <ele>59.1</ele>
        <time>2019-05-27T15:03:29.000Z</time>
      </trkpt>
      <trkpt lat="44.42722" lon="4.66443">
        <ele>57.24</ele>
        <time>2019-05-27T15:03:34.000Z</time>
      </trkpt>
      <trkpt lat="44.42691" lon="4.66432">
        <ele>58.21</ele>
        <time>2019-05-27T15:03:39.000Z</time>
      </trkpt>
      <trkpt lat="44.42661" lon="4.6642">
        <ele>56.18</ele>
        <time>2019-05-27T15:03:44.000Z</time>
      </trkpt>
      <trkpt lat="44.42632" lon="4.66408">
        <ele>53.43</ele>
        <time>2019-05-27T15:03:49.000Z</time>
      </trkpt>
      <trkpt lat="44.42604" lon="4.66397">
        <ele>53.18</ele>
        <time>2019-05-27T15:03:54.000Z</time>
      </trkpt>
      <trkpt lat="44.42575" lon="4.66387">
        <ele>55.1</ele>
        <time>2019-05-27T15:03:59.000Z</time>
      </trkpt>
      <trkpt lat="44.42545" lon="4.66378">
        <ele>53.17</ele>
        <time>2019-05-27T15:04:04.000Z</time>
      </trkpt>
      <trkpt lat="44.42515" lon="4.66366">
        <ele>52.41</ele>
        <time>2019-05-27T15:04:09.000Z</time>
      </trkpt>
      <trkpt lat="44.42486" lon="4.66354">
        <ele>54.09</ele>
        <time>2019-05-27T15:04:14.000Z</time>
      </trkpt>
      <trkpt lat="44.42459" lon="4.66346">
        <ele>53.67</ele>
        <time>2019-05-27T15:04:19.000Z</time>
      </trkpt>
      <trkpt lat="44.4243" lon="4.66339">
        <ele>53.12</ele>
        <time>2019-05-27T15:04:24.000Z</time>
      </trkpt>
      <trkpt lat="44.42402" lon="4.66328">
        <ele>53.47</ele>
        <time>2019-05-27T15:04:29.000Z</time>
      </trkpt>
      <trkpt lat="44.42372" lon="4.66318">
        <ele>52.73</ele>
        <time>2019-05-27T15:04:34.000Z</time>
      </trkpt>
      <trkpt lat="44.42344" lon="4.66307">
        <ele>54.16</ele>
        <time>2019-05-27T15:04:39.000Z</time>
      </trkpt>
      <trkpt lat="44.42317" lon="4.66303">
        <ele>53.11</ele>
        <time>2019-05-27T15:04:44.000Z</time>
      </trkpt>
      <trkpt lat="44.42287" lon="4.66294">
        <ele>51.42</ele>
        <time>2019-05-27T15:04:49.000Z</time>
      </trkpt>
      <trkpt lat="44.42258" lon="4.66286">
        <ele>51.54</ele>
        <time>2019-05-27T15:04:54.000Z</time>
      </trkpt>
      <trkpt lat="44.42233" lon="4.66276">
        <ele>52.92</ele>
        <time>2019-05-27T15:04:59.000Z</time>
      </trkpt>
      <trkpt lat="44.42204" lon="4.66268">
        <ele>53.98</ele>
        <time>2019-05-27T15:05:04.000Z</time>
      </trkpt>
      <trkpt lat="44.42176" lon="4.66262">
        <ele>54.92</ele>
        <time>2019-05-27T15:05:09.000Z</time>
      </trkpt>
      <trkpt lat="44.42148" lon="4.66258">
        <ele>55.23</ele>
        <time>2019-05-27T15:05:14.000Z</time>
      </trkpt>
      <trkpt lat="44.42119" lon="4.66253">
        <ele>56.12</ele>
        <time>2019-05-27T15:05:19.000Z</time>
      </trkpt>
      <trkpt lat="44.42089" lon="4.66242">
        <ele>53.48</ele>
        <time>2019-05-27T15:05:24.000Z</time>
      </trkpt>
      <trkpt lat="44.42061" lon="4.66239">
        <ele>53.17</ele>
        <time>2019-05-27T15:05:29.000Z</time>
      </trkpt>
      <trkpt lat="44.42031" lon="4.66238">
        <ele>54.87</ele>
        <time>2019-05-27T15:05:34.000Z</time>
      </trkpt>
      <trkpt lat="44.42003" lon="4.66232">
        <ele>53.19</ele>
        <time>2019-05-27T15:05:39.000Z</time>
      </trkpt>
      <trkpt lat="44.41975" lon="4.66227">
        <ele>53.92</ele>
        <time>2019-05-27T15:05:44.000Z</time>
      </trkpt>
      <trkpt lat="44.41946" lon="4.66223">
        <ele>54.37</ele>
        <time>2019-05-27T15:05:49.000Z</time>
      </trkpt>
      <trkpt lat="44.41915" lon="4.66219">
        <ele>55.11</ele>
        <time>2019-05-27T15:05:54.000Z</time>
      </trkpt>
      <trkpt lat="44.41886" lon="4.66213">
        <ele>56.11</ele>
        <time>2019-05-27T15:05:59.000Z</time>
      </trkpt>
      <trkpt lat="44.41855" lon="4.66211">
        <ele>58.22</ele>
        <time>2019-05-27T15:06:04.000Z</time>
      </trkpt>
      <trkpt lat="44.41824" lon="4.66213">
        <ele>55.44</ele>
        <time>2019-05-27T15:06:09.000Z</time>
      </trkpt>
      <trkpt lat="44.41792" lon="4.66214">
        <ele>57.11</ele>
        <time>2019-05-27T15:06:14.000Z</time>
      </trkpt>
      <trkpt lat="44.41761" lon="4.66207">
        <ele>54.38</ele>
        <time>2019-05-27T15:06:19.000Z</time>
      </trkpt>
      <trkpt lat="44.4173" lon="4.66203">
        <ele>53.18</ele>
        <time>2019-05-27T15:06:24.000Z</time>
      </trkpt>
      <trkpt lat="44.41699" lon="4.662">
        <ele>55.1</ele>
        <time>2019-05-27T15:06:29.000Z</time>
      </trkpt>
      <trkpt lat="44.41682" lon="4.66227">
        <ele>52.48</ele>
        <time>2019-05-27T15:06:34.000Z</time>
      </trkpt>
      <trkpt lat="44.41685" lon="4.66266">
        <ele>53.92</ele>
        <time>2019-05-27T15:06:39.000Z</time>
      </trkpt>
      <trkpt lat="44.41684" lon="4.66291">
        <ele>55.17</ele>
        <time>2019-05-27T15:06:44.000Z</time>
      </trkpt>
      <trkpt lat="44.41666" lon="4.66301">
        <ele>52.95</ele>
        <time>2019-05-27T15:06:49.000Z</time>
      </trkpt>
      <trkpt lat="44.41648" lon="4.66299">
        <ele>54.36</ele>
        <time>2019-05-27T15:06:54.000Z</time>
      </trkpt>
      <trkpt lat="44.41627" lon="4.66298">
        <ele>54.18</ele>
        <time>2019-05-27T15:06:59.000Z</time>
      </trkpt>
      <trkpt lat="44.41604" lon="4.66297">
        <ele>55.16</ele>
        <time>2019-05-27T15:07:04.000Z</time>
      </trkpt>
      <trkpt lat="44.41579" lon="4.66299">
        <ele>60.02</ele>
        <time>2019-05-27T15:07:09.000Z</time>
      </trkpt>
      <trkpt lat="44.41554" lon="4.663">
        <ele>59.23</ele>
        <time>2019-05-27T15:07:14.000Z</time>
      </trkpt>
      <trkpt lat="44.4153" lon="4.66298">
        <ele>56.26</ele>
        <time>2019-05-27T15:07:19.000Z</time>
      </trkpt>
      <trkpt lat="44.41504" lon="4.66301">
        <ele>56.47</ele>
        <time>2019-05-27T15:07:24.000Z</time>
      </trkpt>
      <trkpt lat="44.41473" lon="4.66307">
        <ele>56.18</ele>
        <time>2019-05-27T15:07:29.000Z</time>
      </trkpt>
      <trkpt lat="44.41445" lon="4.66308">
        <ele>56.41</ele>
        <time>2019-05-27T15:07:34.000Z</time>
      </trkpt>
      <trkpt lat="44.41419" lon="4.663">
        <ele>56.19</ele>
        <time>2019-05-27T15:07:39.000Z</time>
      </trkpt>
      <trkpt lat="44.41392" lon="4.66295">
        <ele>56.18</ele>
        <time>2019-05-27T15:07:44.000Z</time>
      </trkpt>
      <trkpt lat="44.41365" lon="4.6629">
        <ele>55.18</ele>
        <time>2019-05-27T15:07:49.000Z</time>
      </trkpt>
      <trkpt lat="44.41338" lon="4.66289">
        <ele>54.02</ele>
        <time>2019-05-27T15:07:54.000Z</time>
      </trkpt>
      <trkpt lat="44.41311" lon="4.66284">
        <ele>54.17</ele>
        <time>2019-05-27T15:07:59.000Z</time>
      </trkpt>
      <trkpt lat="44.41285" lon="4.66283">
        <ele>53.08</ele>
        <time>2019-05-27T15:08:04.000Z</time>
      </trkpt>
      <trkpt lat="44.41262" lon="4.66285">
        <ele>55.41</ele>
        <time>2019-05-27T15:08:09.000Z</time>
      </trkpt>
      <trkpt lat="44.41243" lon="4.66279">
        <ele>54.45</ele>
        <time>2019-05-27T15:09:27.000Z</time>
      </trkpt>
      <trkpt lat="44.41236" lon="4.66287">
        <ele>60.18</ele>
        <time>2019-05-27T15:09:32.000Z</time>
      </trkpt>
      <trkpt lat="44.41216" lon="4.66282">
        <ele>58.44</ele>
        <time>2019-05-27T15:09:37.000Z</time>
      </trkpt>
      <trkpt lat="44.4119" lon="4.66276">
        <ele>57.18</ele>
        <time>2019-05-27T15:09:42.000Z</time>
      </trkpt>
      <trkpt lat="44.4117" lon="4.66268">
        <ele>57.17</ele>
        <time>2019-05-27T15:09:47.000Z</time>
      </trkpt>
      <trkpt lat="44.41149" lon="4.66259">
        <ele>56.18</ele>
        <time>2019-05-27T15:09:52.000Z</time>
      </trkpt>
      <trkpt lat="44.41127" lon="4.66248">
        <ele>56.89</ele>
        <time>2019-05-27T15:09:57.000Z</time>
      </trkpt>
      <trkpt lat="44.41101" lon="4.66243">
        <ele>57.93</ele>
        <time>2019-05-27T15:10:02.000Z</time>
      </trkpt>
      <trkpt lat="44.41073" lon="4.66242">
        <ele>60.12</ele>
        <time>2019-05-27T15:10:07.000Z</time>
      </trkpt>
      <trkpt lat="44.41043" lon="4.66236">
        <ele>55.33</ele>
        <time>2019-05-27T15:10:12.000Z</time>
      </trkpt>
      <trkpt lat="44.41024" lon="4.66214">
        <ele>53.25</ele>
        <time>2019-05-27T15:10:17.000Z</time>
      </trkpt>
      <trkpt lat="44.41023" lon="4.66179">
        <ele>51.27</ele>
        <time>2019-05-27T15:10:22.000Z</time>
      </trkpt>
      <trkpt lat="44.40998" lon="4.66161">
        <ele>50</ele>
        <time>2019-05-27T15:10:27.000Z</time>
      </trkpt>
      <trkpt lat="44.40974" lon="4.66149">
        <ele>49.43</ele>
        <time>2019-05-27T15:10:32.000Z</time>
      </trkpt>
      <trkpt lat="44.40953" lon="4.66154">
        <ele>49.19</ele>
        <time>2019-05-27T15:10:37.000Z</time>
      </trkpt>
      <trkpt lat="44.40932" lon="4.6615">
        <ele>46.45</ele>
        <time>2019-05-27T15:10:42.000Z</time>
      </trkpt>
      <trkpt lat="44.40908" lon="4.6614">
        <ele>50.11</ele>
        <time>2019-05-27T15:10:47.000Z</time>
      </trkpt>
      <trkpt lat="44.40892" lon="4.66117">
        <ele>48.19</ele>
        <time>2019-05-27T15:10:52.000Z</time>
      </trkpt>
      <trkpt lat="44.40874" lon="4.66102">
        <ele>49.48</ele>
        <time>2019-05-27T15:10:57.000Z</time>
      </trkpt>
      <trkpt lat="44.4085" lon="4.66098">
        <ele>49.31</ele>
        <time>2019-05-27T15:11:02.000Z</time>
      </trkpt>
      <trkpt lat="44.40824" lon="4.66108">
        <ele>48.5</ele>
        <time>2019-05-27T15:11:07.000Z</time>
      </trkpt>
      <trkpt lat="44.40794" lon="4.6612">
        <ele>48.95</ele>
        <time>2019-05-27T15:11:12.000Z</time>
      </trkpt>
      <trkpt lat="44.40764" lon="4.66131">
        <ele>50.42</ele>
        <time>2019-05-27T15:11:17.000Z</time>
      </trkpt>
      <trkpt lat="44.40734" lon="4.66142">
        <ele>51.12</ele>
        <time>2019-05-27T15:11:22.000Z</time>
      </trkpt>
      <trkpt lat="44.40701" lon="4.66154">
        <ele>53.37</ele>
        <time>2019-05-27T15:11:27.000Z</time>
      </trkpt>
      <trkpt lat="44.4067" lon="4.66164">
        <ele>52.44</ele>
        <time>2019-05-27T15:11:32.000Z</time>
      </trkpt>
      <trkpt lat="44.4064" lon="4.66172">
        <ele>51.19</ele>
        <time>2019-05-27T15:11:37.000Z</time>
      </trkpt>
      <trkpt lat="44.40612" lon="4.66178">
        <ele>50.19</ele>
        <time>2019-05-27T15:11:42.000Z</time>
      </trkpt>
      <trkpt lat="44.40585" lon="4.66185">
        <ele>52.11</ele>
        <time>2019-05-27T15:11:47.000Z</time>
      </trkpt>
      <trkpt lat="44.40551" lon="4.66189">
        <ele>50.27</ele>
        <time>2019-05-27T15:11:52.000Z</time>
      </trkpt>
      <trkpt lat="44.40521" lon="4.66195">
        <ele>47.24</ele>
        <time>2019-05-27T15:11:57.000Z</time>
      </trkpt>
      <trkpt lat="44.40498" lon="4.6619">
        <ele>48.23</ele>
        <time>2019-05-27T15:12:02.000Z</time>
      </trkpt>
      <trkpt lat="44.40483" lon="4.66153">
        <ele>50.12</ele>
        <time>2019-05-27T15:12:07.000Z</time>
      </trkpt>
      <trkpt lat="44.4048" lon="4.66111">
        <ele>50.24</ele>
        <time>2019-05-27T15:12:12.000Z</time>
      </trkpt>
      <trkpt lat="44.40459" lon="4.66093">
        <ele>49.28</ele>
        <time>2019-05-27T15:12:17.000Z</time>
      </trkpt>
      <trkpt lat="44.40441" lon="4.6608">
        <ele>48.74</ele>
        <time>2019-05-27T15:12:22.000Z</time>
      </trkpt>
      <trkpt lat="44.40428" lon="4.6606">
        <ele>48.44</ele>
        <time>2019-05-27T15:12:27.000Z</time>
      </trkpt>
      <trkpt lat="44.40418" lon="4.66034">
        <ele>51.67</ele>
        <time>2019-05-27T15:12:32.000Z</time>
      </trkpt>
      <trkpt lat="44.404" lon="4.65995">
        <ele>49.35</ele>
        <time>2019-05-27T15:12:37.000Z</time>
      </trkpt>
      <trkpt lat="44.40385" lon="4.65964">
        <ele>48.7</ele>
        <time>2019-05-27T15:12:42.000Z</time>
      </trkpt>
      <trkpt lat="44.40369" lon="4.65964">
        <ele>51.92</ele>
        <time>2019-05-27T15:12:47.000Z</time>
      </trkpt>
      <trkpt lat="44.40355" lon="4.65969">
        <ele>53.45</ele>
        <time>2019-05-27T15:12:52.000Z</time>
      </trkpt>
      <trkpt lat="44.40341" lon="4.65974">
        <ele>55.11</ele>
        <time>2019-05-27T15:12:57.000Z</time>
      </trkpt>
      <trkpt lat="44.40338" lon="4.65954">
        <ele>56.19</ele>
        <time>2019-05-27T15:13:02.000Z</time>
      </trkpt>
      <trkpt lat="44.40327" lon="4.65922">
        <ele>56.18</ele>
        <time>2019-05-27T15:13:07.000Z</time>
      </trkpt>
      <trkpt lat="44.40313" lon="4.6589">
        <ele>57.19</ele>
        <time>2019-05-27T15:13:12.000Z</time>
      </trkpt>
      <trkpt lat="44.40299" lon="4.6586">
        <ele>57.21</ele>
        <time>2019-05-27T15:13:17.000Z</time>
      </trkpt>
      <trkpt lat="44.40283" lon="4.6583">
        <ele>55.5</ele>
        <time>2019-05-27T15:13:22.000Z</time>
      </trkpt>
      <trkpt lat="44.40269" lon="4.65793">
        <ele>56.19</ele>
        <time>2019-05-27T15:13:27.000Z</time>
      </trkpt>
      <trkpt lat="44.40252" lon="4.65767">
        <ele>56.24</ele>
        <time>2019-05-27T15:13:32.000Z</time>
      </trkpt>
      <trkpt lat="44.40229" lon="4.65785">
        <ele>54.2</ele>
        <time>2019-05-27T15:13:37.000Z</time>
      </trkpt>
      <trkpt lat="44.40217" lon="4.65816">
        <ele>56.13</ele>
        <time>2019-05-27T15:13:42.000Z</time>
      </trkpt>
      <trkpt lat="44.40209" lon="4.65854">
        <ele>54.2</ele>
        <time>2019-05-27T15:13:47.000Z</time>
      </trkpt>
      <trkpt lat="44.40201" lon="4.65893">
        <ele>54.19</ele>
        <time>2019-05-27T15:13:52.000Z</time>
      </trkpt>
      <trkpt lat="44.40193" lon="4.65933">
        <ele>54.19</ele>
        <time>2019-05-27T15:13:57.000Z</time>
      </trkpt>
      <trkpt lat="44.40184" lon="4.65973">
        <ele>54.19</ele>
        <time>2019-05-27T15:14:02.000Z</time>
      </trkpt>
      <trkpt lat="44.40157" lon="4.65981">
        <ele>54.44</ele>
        <time>2019-05-27T15:14:07.000Z</time>
      </trkpt>
      <trkpt lat="44.40127" lon="4.65976">
        <ele>54.18</ele>
        <time>2019-05-27T15:14:12.000Z</time>
      </trkpt>
      <trkpt lat="44.40097" lon="4.65971">
        <ele>53.95</ele>
        <time>2019-05-27T15:14:17.000Z</time>
      </trkpt>
      <trkpt lat="44.40067" lon="4.65967">
        <ele>54.18</ele>
        <time>2019-05-27T15:14:22.000Z</time>
      </trkpt>
      <trkpt lat="44.40041" lon="4.6598">
        <ele>52.46</ele>
        <time>2019-05-27T15:14:27.000Z</time>
      </trkpt>
      <trkpt lat="44.40018" lon="4.65995">
        <ele>52.2</ele>
        <time>2019-05-27T15:14:32.000Z</time>
      </trkpt>
      <trkpt lat="44.39988" lon="4.65991">
        <ele>50.45</ele>
        <time>2019-05-27T15:14:37.000Z</time>
      </trkpt>
      <trkpt lat="44.39958" lon="4.65979">
        <ele>51.19</ele>
        <time>2019-05-27T15:14:42.000Z</time>
      </trkpt>
      <trkpt lat="44.39926" lon="4.65967">
        <ele>51.2</ele>
        <time>2019-05-27T15:14:47.000Z</time>
      </trkpt>
      <trkpt lat="44.39895" lon="4.65956">
        <ele>52.19</ele>
        <time>2019-05-27T15:14:52.000Z</time>
      </trkpt>
      <trkpt lat="44.39867" lon="4.65941">
        <ele>51.26</ele>
        <time>2019-05-27T15:14:57.000Z</time>
      </trkpt>
      <trkpt lat="44.39839" lon="4.65927">
        <ele>51.2</ele>
        <time>2019-05-27T15:15:02.000Z</time>
      </trkpt>
      <trkpt lat="44.39809" lon="4.65918">
        <ele>51.2</ele>
        <time>2019-05-27T15:15:07.000Z</time>
      </trkpt>
      <trkpt lat="44.39782" lon="4.659">
        <ele>49.27</ele>
        <time>2019-05-27T15:15:12.000Z</time>
      </trkpt>
      <trkpt lat="44.39755" lon="4.65875">
        <ele>50.39</ele>
        <time>2019-05-27T15:15:17.000Z</time>
      </trkpt>
      <trkpt lat="44.3973" lon="4.6585">
        <ele>50.18</ele>
        <time>2019-05-27T15:15:22.000Z</time>
      </trkpt>
      <trkpt lat="44.397" lon="4.6583">
        <ele>51.25</ele>
        <time>2019-05-27T15:15:27.000Z</time>
      </trkpt>
      <trkpt lat="44.39671" lon="4.65809">
        <ele>53.14</ele>
        <time>2019-05-27T15:15:32.000Z</time>
      </trkpt>
      <trkpt lat="44.39642" lon="4.6579">
        <ele>52.64</ele>
        <time>2019-05-27T15:15:37.000Z</time>
      </trkpt>
      <trkpt lat="44.39616" lon="4.65773">
        <ele>51.45</ele>
        <time>2019-05-27T15:15:42.000Z</time>
      </trkpt>
      <trkpt lat="44.39585" lon="4.65752">
        <ele>50.2</ele>
        <time>2019-05-27T15:15:47.000Z</time>
      </trkpt>
      <trkpt lat="44.39557" lon="4.65734">
        <ele>49.22</ele>
        <time>2019-05-27T15:15:52.000Z</time>
      </trkpt>
      <trkpt lat="44.39532" lon="4.65708">
        <ele>50.15</ele>
        <time>2019-05-27T15:15:57.000Z</time>
      </trkpt>
      <trkpt lat="44.3953" lon="4.65666">
        <ele>51.2</ele>
        <time>2019-05-27T15:16:02.000Z</time>
      </trkpt>
      <trkpt lat="44.39536" lon="4.65626">
        <ele>51.45</ele>
        <time>2019-05-27T15:16:07.000Z</time>
      </trkpt>
      <trkpt lat="44.39542" lon="4.65585">
        <ele>51.95</ele>
        <time>2019-05-27T15:16:12.000Z</time>
      </trkpt>
      <trkpt lat="44.39548" lon="4.65547">
        <ele>51.2</ele>
        <time>2019-05-27T15:16:17.000Z</time>
      </trkpt>
      <trkpt lat="44.39555" lon="4.65508">
        <ele>52.14</ele>
        <time>2019-05-27T15:16:22.000Z</time>
      </trkpt>
      <trkpt lat="44.39562" lon="4.65469">
        <ele>53.14</ele>
        <time>2019-05-27T15:16:27.000Z</time>
      </trkpt>
      <trkpt lat="44.39566" lon="4.65432">
        <ele>52.25</ele>
        <time>2019-05-27T15:16:32.000Z</time>
      </trkpt>
      <trkpt lat="44.39572" lon="4.65395">
        <ele>52.14</ele>
        <time>2019-05-27T15:16:37.000Z</time>
      </trkpt>
      <trkpt lat="44.39576" lon="4.65358">
        <ele>51.95</ele>
        <time>2019-05-27T15:16:42.000Z</time>
      </trkpt>
      <trkpt lat="44.39582" lon="4.65326">
        <ele>52.2</ele>
        <time>2019-05-27T15:16:47.000Z</time>
      </trkpt>
      <trkpt lat="44.39585" lon="4.65293">
        <ele>51.95</ele>
        <time>2019-05-27T15:16:52.000Z</time>
      </trkpt>
      <trkpt lat="44.3959" lon="4.6526">
        <ele>51.39</ele>
        <time>2019-05-27T15:16:57.000Z</time>
      </trkpt>
      <trkpt lat="44.39596" lon="4.65227">
        <ele>52.15</ele>
        <time>2019-05-27T15:17:02.000Z</time>
      </trkpt>
      <trkpt lat="44.396" lon="4.65195">
        <ele>52.2</ele>
        <time>2019-05-27T15:17:07.000Z</time>
      </trkpt>
      <trkpt lat="44.39605" lon="4.65165">
        <ele>51.21</ele>
        <time>2019-05-27T15:17:12.000Z</time>
      </trkpt>
      <trkpt lat="44.39609" lon="4.65135">
        <ele>51.2</ele>
        <time>2019-05-27T15:17:17.000Z</time>
      </trkpt>
      <trkpt lat="44.39614" lon="4.65103">
        <ele>51.2</ele>
        <time>2019-05-27T15:17:22.000Z</time>
      </trkpt>
      <trkpt lat="44.39618" lon="4.65072">
        <ele>51.21</ele>
        <time>2019-05-27T15:17:27.000Z</time>
      </trkpt>
      <trkpt lat="44.39623" lon="4.65041">
        <ele>51.2</ele>
        <time>2019-05-27T15:17:32.000Z</time>
      </trkpt>
      <trkpt lat="44.39622" lon="4.65013">
        <ele>51.2</ele>
        <time>2019-05-27T15:17:37.000Z</time>
      </trkpt>
      <trkpt lat="44.3961" lon="4.64979">
        <ele>51.95</ele>
        <time>2019-05-27T15:17:42.000Z</time>
      </trkpt>
      <trkpt lat="44.39598" lon="4.64942">
        <ele>52.2</ele>
        <time>2019-05-27T15:17:47.000Z</time>
      </trkpt>
      <trkpt lat="44.39597" lon="4.64911">
        <ele>53.99</ele>
        <time>2019-05-27T15:17:52.000Z</time>
      </trkpt>
      <trkpt lat="44.39585" lon="4.64901">
        <ele>54.95</ele>
        <time>2019-05-27T15:17:57.000Z</time>
      </trkpt>
      <trkpt lat="44.39566" lon="4.64919">
        <ele>53.26</ele>
        <time>2019-05-27T15:18:02.000Z</time>
      </trkpt>
      <trkpt lat="44.3955" lon="4.64944">
        <ele>52.2</ele>
        <time>2019-05-27T15:18:07.000Z</time>
      </trkpt>
      <trkpt lat="44.39546" lon="4.64977">
        <ele>53.2</ele>
        <time>2019-05-27T15:18:12.000Z</time>
      </trkpt>
      <trkpt lat="44.39532" lon="4.6501">
        <ele>52.51</ele>
        <time>2019-05-27T15:18:17.000Z</time>
      </trkpt>
      <trkpt lat="44.39517" lon="4.65039">
        <ele>50.28</ele>
        <time>2019-05-27T15:18:22.000Z</time>
      </trkpt>
      <trkpt lat="44.39497" lon="4.65062">
        <ele>50.2</ele>
        <time>2019-05-27T15:18:27.000Z</time>
      </trkpt>
      <trkpt lat="44.39492" lon="4.65099">
        <ele>50.44</ele>
        <time>2019-05-27T15:18:32.000Z</time>
      </trkpt>
      <trkpt lat="44.39478" lon="4.65125">
        <ele>47.51</ele>
        <time>2019-05-27T15:18:37.000Z</time>
      </trkpt>
      <trkpt lat="44.3946" lon="4.65151">
        <ele>47.95</ele>
        <time>2019-05-27T15:18:42.000Z</time>
      </trkpt>
      <trkpt lat="44.39442" lon="4.65179">
        <ele>48.2</ele>
        <time>2019-05-27T15:18:47.000Z</time>
      </trkpt>
      <trkpt lat="44.3942" lon="4.65199">
        <ele>49.01</ele>
        <time>2019-05-27T15:18:52.000Z</time>
      </trkpt>
      <trkpt lat="44.39395" lon="4.65215">
        <ele>48.45</ele>
        <time>2019-05-27T15:18:57.000Z</time>
      </trkpt>
      <trkpt lat="44.3937" lon="4.65229">
        <ele>49.2</ele>
        <time>2019-05-27T15:19:02.000Z</time>
      </trkpt>
      <trkpt lat="44.39345" lon="4.65242">
        <ele>49.95</ele>
        <time>2019-05-27T15:19:07.000Z</time>
      </trkpt>
      <trkpt lat="44.39318" lon="4.65254">
        <ele>48.45</ele>
        <time>2019-05-27T15:19:12.000Z</time>
      </trkpt>
      <trkpt lat="44.39294" lon="4.65267">
        <ele>48.2</ele>
        <time>2019-05-27T15:19:17.000Z</time>
      </trkpt>
      <trkpt lat="44.39271" lon="4.65283">
        <ele>48.2</ele>
        <time>2019-05-27T15:19:22.000Z</time>
      </trkpt>
      <trkpt lat="44.39248" lon="4.653">
        <ele>50.43</ele>
        <time>2019-05-27T15:19:27.000Z</time>
      </trkpt>
      <trkpt lat="44.39224" lon="4.65314">
        <ele>50.21</ele>
        <time>2019-05-27T15:19:32.000Z</time>
      </trkpt>
      <trkpt lat="44.39199" lon="4.65328">
        <ele>50.22</ele>
        <time>2019-05-27T15:19:37.000Z</time>
      </trkpt>
      <trkpt lat="44.39175" lon="4.65341">
        <ele>49.2</ele>
        <time>2019-05-27T15:19:42.000Z</time>
      </trkpt>
      <trkpt lat="44.39152" lon="4.65349">
        <ele>50.02</ele>
        <time>2019-05-27T15:19:47.000Z</time>
      </trkpt>
      <trkpt lat="44.39141" lon="4.6535">
        <ele>50.25</ele>
        <time>2019-05-27T15:20:32.000Z</time>
      </trkpt>
      <trkpt lat="44.39137" lon="4.65337">
        <ele>52.14</ele>
        <time>2019-05-27T15:20:37.000Z</time>
      </trkpt>
      <trkpt lat="44.39118" lon="4.65335">
        <ele>51.22</ele>
        <time>2019-05-27T15:20:42.000Z</time>
      </trkpt>
      <trkpt lat="44.39094" lon="4.65332">
        <ele>50.21</ele>
        <time>2019-05-27T15:20:47.000Z</time>
      </trkpt>
      <trkpt lat="44.39069" lon="4.65326">
        <ele>50.2</ele>
        <time>2019-05-27T15:20:52.000Z</time>
      </trkpt>
      <trkpt lat="44.39044" lon="4.65327">
        <ele>50.21</ele>
        <time>2019-05-27T15:20:57.000Z</time>
      </trkpt>
      <trkpt lat="44.39018" lon="4.65327">
        <ele>49.22</ele>
        <time>2019-05-27T15:21:02.000Z</time>
      </trkpt>
      <trkpt lat="44.38993" lon="4.65328">
        <ele>49.02</ele>
        <time>2019-05-27T15:21:07.000Z</time>
      </trkpt>
      <trkpt lat="44.38967" lon="4.65329">
        <ele>50.14</ele>
        <time>2019-05-27T15:21:12.000Z</time>
      </trkpt>
      <trkpt lat="44.3894" lon="4.65325">
        <ele>51.95</ele>
        <time>2019-05-27T15:21:17.000Z</time>
      </trkpt>
      <trkpt lat="44.38913" lon="4.65318">
        <ele>51.21</ele>
        <time>2019-05-27T15:21:22.000Z</time>
      </trkpt>
      <trkpt lat="44.38885" lon="4.65314">
        <ele>50.46</ele>
        <time>2019-05-27T15:21:27.000Z</time>
      </trkpt>
      <trkpt lat="44.38858" lon="4.65309">
        <ele>51.9</ele>
        <time>2019-05-27T15:21:32.000Z</time>
      </trkpt>
      <trkpt lat="44.38836" lon="4.6529">
        <ele>53.2</ele>
        <time>2019-05-27T15:21:37.000Z</time>
      </trkpt>
      <trkpt lat="44.38814" lon="4.65266">
        <ele>52.46</ele>
        <time>2019-05-27T15:21:42.000Z</time>
      </trkpt>
      <trkpt lat="44.38792" lon="4.65242">
        <ele>53.25</ele>
        <time>2019-05-27T15:21:47.000Z</time>
      </trkpt>
      <trkpt lat="44.38771" lon="4.65216">
        <ele>54.15</ele>
        <time>2019-05-27T15:21:52.000Z</time>
      </trkpt>
      <trkpt lat="44.3875" lon="4.65191">
        <ele>53.26</ele>
        <time>2019-05-27T15:21:57.000Z</time>
      </trkpt>
      <trkpt lat="44.38728" lon="4.65165">
        <ele>53.4</ele>
        <time>2019-05-27T15:22:02.000Z</time>
      </trkpt>
      <trkpt lat="44.38706" lon="4.65138">
        <ele>52.41</ele>
        <time>2019-05-27T15:22:07.000Z</time>
      </trkpt>
      <trkpt lat="44.38683" lon="4.65115">
        <ele>52.21</ele>
        <time>2019-05-27T15:22:12.000Z</time>
      </trkpt>
      <trkpt lat="44.38657" lon="4.65095">
        <ele>53.21</ele>
        <time>2019-05-27T15:22:17.000Z</time>
      </trkpt>
      <trkpt lat="44.38632" lon="4.65073">
        <ele>53.21</ele>
        <time>2019-05-27T15:22:22.000Z</time>
      </trkpt>
      <trkpt lat="44.38605" lon="4.65054">
        <ele>53.21</ele>
        <time>2019-05-27T15:22:27.000Z</time>
      </trkpt>
      <trkpt lat="44.38578" lon="4.65034">
        <ele>52.23</ele>
        <time>2019-05-27T15:22:32.000Z</time>
      </trkpt>
      <trkpt lat="44.3855" lon="4.65017">
        <ele>53.9</ele>
        <time>2019-05-27T15:22:37.000Z</time>
      </trkpt>
      <trkpt lat="44.38522" lon="4.64997">
        <ele>53.27</ele>
        <time>2019-05-27T15:22:42.000Z</time>
      </trkpt>
      <trkpt lat="44.38494" lon="4.64976">
        <ele>52.21</ele>
        <time>2019-05-27T15:22:47.000Z</time>
      </trkpt>
      <trkpt lat="44.38468" lon="4.64955">
        <ele>52.21</ele>
        <time>2019-05-27T15:22:52.000Z</time>
      </trkpt>
      <trkpt lat="44.38443" lon="4.64931">
        <ele>52.97</ele>
        <time>2019-05-27T15:22:57.000Z</time>
      </trkpt>
      <trkpt lat="44.38415" lon="4.64921">
        <ele>53.96</ele>
        <time>2019-05-27T15:23:02.000Z</time>
      </trkpt>
      <trkpt lat="44.38386" lon="4.64925">
        <ele>54.21</ele>
        <time>2019-05-27T15:23:07.000Z</time>
      </trkpt>
      <trkpt lat="44.38356" lon="4.6492">
        <ele>54.96</ele>
        <time>2019-05-27T15:23:12.000Z</time>
      </trkpt>
      <trkpt lat="44.38326" lon="4.6491">
        <ele>54.22</ele>
        <time>2019-05-27T15:23:17.000Z</time>
      </trkpt>
      <trkpt lat="44.38297" lon="4.64897">
        <ele>54.21</ele>
        <time>2019-05-27T15:23:22.000Z</time>
      </trkpt>
      <trkpt lat="44.38268" lon="4.64885">
        <ele>52.98</ele>
        <time>2019-05-27T15:23:27.000Z</time>
      </trkpt>
      <trkpt lat="44.3824" lon="4.64866">
        <ele>52.23</ele>
        <time>2019-05-27T15:23:32.000Z</time>
      </trkpt>
      <trkpt lat="44.38216" lon="4.6484">
        <ele>52.15</ele>
        <time>2019-05-27T15:23:37.000Z</time>
      </trkpt>
      <trkpt lat="44.38193" lon="4.64811">
        <ele>51.23</ele>
        <time>2019-05-27T15:23:42.000Z</time>
      </trkpt>
      <trkpt lat="44.3817" lon="4.64787">
        <ele>49</ele>
        <time>2019-05-27T15:23:47.000Z</time>
      </trkpt>
      <trkpt lat="44.38152" lon="4.64761">
        <ele>53.18</ele>
        <time>2019-05-27T15:23:52.000Z</time>
      </trkpt>
      <trkpt lat="44.38139" lon="4.64769">
        <ele>50.98</ele>
        <time>2019-05-27T15:23:57.000Z</time>
      </trkpt>
      <trkpt lat="44.38135" lon="4.64793">
        <ele>49.22</ele>
        <time>2019-05-27T15:24:02.000Z</time>
      </trkpt>
      <trkpt lat="44.38128" lon="4.64816">
        <ele>48.28</ele>
        <time>2019-05-27T15:24:07.000Z</time>
      </trkpt>
      <trkpt lat="44.38125" lon="4.6484">
        <ele>46.23</ele>
        <time>2019-05-27T15:24:13.000Z</time>
      </trkpt>
      <trkpt lat="44.38126" lon="4.64852">
        <ele>49.94</ele>
        <time>2019-05-27T15:24:38.000Z</time>
      </trkpt>
      <trkpt lat="44.38137" lon="4.64853">
        <ele>57.19</ele>
        <time>2019-05-27T15:24:43.000Z</time>
      </trkpt>
      <trkpt lat="44.38147" lon="4.64861">
        <ele>57.21</ele>
        <time>2019-05-27T15:25:30.000Z</time>
      </trkpt>
      <trkpt lat="44.38153" lon="4.6485">
        <ele>48.28</ele>
        <time>2019-05-27T15:30:51.000Z</time>
      </trkpt>
      <trkpt lat="44.38158" lon="4.64861">
        <ele>49.08</ele>
        <time>2019-05-27T15:30:58.000Z</time>
      </trkpt>
      <trkpt lat="44.38153" lon="4.64873">
        <ele>50.42</ele>
        <time>2019-05-27T15:31:05.000Z</time>
      </trkpt>
      <trkpt lat="44.38145" lon="4.64882">
        <ele>49.2</ele>
        <time>2019-05-27T15:31:11.000Z</time>
      </trkpt>
      <trkpt lat="44.38139" lon="4.64892">
        <ele>50.21</ele>
        <time>2019-05-27T15:31:18.000Z</time>
      </trkpt>
      <trkpt lat="44.38135" lon="4.64905">
        <ele>50.46</ele>
        <time>2019-05-27T15:31:24.000Z</time>
      </trkpt>
      <trkpt lat="44.38134" lon="4.64919">
        <ele>50.27</ele>
        <time>2019-05-27T15:31:30.000Z</time>
      </trkpt>
      <trkpt lat="44.38129" lon="4.64932">
        <ele>51.2</ele>
        <time>2019-05-27T15:31:36.000Z</time>
      </trkpt>
      <trkpt lat="44.38128" lon="4.64945">
        <ele>50.28</ele>
        <time>2019-05-27T15:31:43.000Z</time>
      </trkpt>
      <trkpt lat="44.38126" lon="4.64958">
        <ele>50.22</ele>
        <time>2019-05-27T15:31:50.000Z</time>
      </trkpt>
      <trkpt lat="44.38117" lon="4.64957">
        <ele>48.2</ele>
        <time>2019-05-27T15:31:56.000Z</time>
      </trkpt>
      <trkpt lat="44.38108" lon="4.64955">
        <ele>47.97</ele>
        <time>2019-05-27T15:32:02.000Z</time>
      </trkpt>
      <trkpt lat="44.38098" lon="4.64952">
        <ele>53.13</ele>
        <time>2019-05-27T15:32:09.000Z</time>
      </trkpt>
      <trkpt lat="44.38089" lon="4.64945">
        <ele>54.03</ele>
        <time>2019-05-27T15:32:16.000Z</time>
      </trkpt>
      <trkpt lat="44.3808" lon="4.64941">
        <ele>57.96</ele>
        <time>2019-05-27T15:34:02.000Z</time>
      </trkpt>
      <trkpt lat="44.38082" lon="4.64954">
        <ele>58.71</ele>
        <time>2019-05-27T15:34:18.000Z</time>
      </trkpt>
      <trkpt lat="44.38081" lon="4.64951">
        <ele>61.22</ele>
      </trkpt>
    </trkseg>
  </trk>
  <trk>
    <name><![CDATA[2019-05-28 10:47:34]]></name>
    <trkseg>
      <trkpt lat="44.38061" lon="4.64731">
        <ele>46.21</ele>
        <time>2019-05-28T08:47:34.000Z</time>
      </trkpt>
      <trkpt lat="44.38046" lon="4.64736">
        <ele>46.97</ele>
        <time>2019-05-28T08:47:39.000Z</time>
      </trkpt>
      <trkpt lat="44.38036" lon="4.64738">
        <ele>46.46</ele>
        <time>2019-05-28T08:47:44.000Z</time>
      </trkpt>
      <trkpt lat="44.38025" lon="4.64741">
        <ele>49.46</ele>
        <time>2019-05-28T08:48:52.000Z</time>
      </trkpt>
      <trkpt lat="44.38008" lon="4.64741">
        <ele>49.22</ele>
        <time>2019-05-28T08:48:57.000Z</time>
      </trkpt>
      <trkpt lat="44.37991" lon="4.64729">
        <ele>49.22</ele>
        <time>2019-05-28T08:49:02.000Z</time>
      </trkpt>
      <trkpt lat="44.37975" lon="4.64717">
        <ele>48.28</ele>
        <time>2019-05-28T08:49:07.000Z</time>
      </trkpt>
      <trkpt lat="44.37959" lon="4.647">
        <ele>50.21</ele>
        <time>2019-05-28T08:49:12.000Z</time>
      </trkpt>
      <trkpt lat="44.37941" lon="4.64693">
        <ele>51.4</ele>
        <time>2019-05-28T08:49:17.000Z</time>
      </trkpt>
      <trkpt lat="44.37926" lon="4.64697">
        <ele>51.47</ele>
        <time>2019-05-28T08:49:22.000Z</time>
      </trkpt>
      <trkpt lat="44.37913" lon="4.64703">
        <ele>53.15</ele>
        <time>2019-05-28T08:49:27.000Z</time>
      </trkpt>
      <trkpt lat="44.37903" lon="4.64717">
        <ele>51.47</ele>
        <time>2019-05-28T08:49:32.000Z</time>
      </trkpt>
      <trkpt lat="44.37887" lon="4.6472">
        <ele>52.22</ele>
        <time>2019-05-28T08:49:37.000Z</time>
      </trkpt>
      <trkpt lat="44.3786" lon="4.64725">
        <ele>52.23</ele>
        <time>2019-05-28T08:49:42.000Z</time>
      </trkpt>
      <trkpt lat="44.37827" lon="4.64735">
        <ele>51.22</ele>
        <time>2019-05-28T08:49:47.000Z</time>
      </trkpt>
      <trkpt lat="44.3779" lon="4.64741">
        <ele>51.28</ele>
        <time>2019-05-28T08:49:52.000Z</time>
      </trkpt>
      <trkpt lat="44.37754" lon="4.64747">
        <ele>51.27</ele>
        <time>2019-05-28T08:49:57.000Z</time>
      </trkpt>
      <trkpt lat="44.37719" lon="4.6475">
        <ele>50.22</ele>
        <time>2019-05-28T08:50:02.000Z</time>
      </trkpt>
      <trkpt lat="44.37692" lon="4.64766">
        <ele>51.97</ele>
        <time>2019-05-28T08:50:07.000Z</time>
      </trkpt>
      <trkpt lat="44.37665" lon="4.64771">
        <ele>52.17</ele>
        <time>2019-05-28T08:50:12.000Z</time>
      </trkpt>
      <trkpt lat="44.37636" lon="4.64772">
        <ele>52.22</ele>
        <time>2019-05-28T08:50:17.000Z</time>
      </trkpt>
      <trkpt lat="44.37604" lon="4.64772">
        <ele>52.22</ele>
        <time>2019-05-28T08:50:22.000Z</time>
      </trkpt>
      <trkpt lat="44.37572" lon="4.64769">
        <ele>52.22</ele>
        <time>2019-05-28T08:50:27.000Z</time>
      </trkpt>
      <trkpt lat="44.37541" lon="4.64766">
        <ele>53.02</ele>
        <time>2019-05-28T08:50:32.000Z</time>
      </trkpt>
      <trkpt lat="44.3751" lon="4.64763">
        <ele>50.49</ele>
        <time>2019-05-28T08:50:37.000Z</time>
      </trkpt>
      <trkpt lat="44.37477" lon="4.6476">
        <ele>51.22</ele>
        <time>2019-05-28T08:50:42.000Z</time>
      </trkpt>
      <trkpt lat="44.37445" lon="4.64759">
        <ele>50.29</ele>
        <time>2019-05-28T08:50:47.000Z</time>
      </trkpt>
      <trkpt lat="44.37415" lon="4.6476">
        <ele>50.02</ele>
        <time>2019-05-28T08:50:52.000Z</time>
      </trkpt>
      <trkpt lat="44.37381" lon="4.64761">
        <ele>50.27</ele>
        <time>2019-05-28T08:50:57.000Z</time>
      </trkpt>
      <trkpt lat="44.37344" lon="4.64768">
        <ele>50.18</ele>
        <time>2019-05-28T08:51:02.000Z</time>
      </trkpt>
      <trkpt lat="44.37313" lon="4.64772">
        <ele>52.23</ele>
        <time>2019-05-28T08:51:07.000Z</time>
      </trkpt>
      <trkpt lat="44.37277" lon="4.64774">
        <ele>49.48</ele>
        <time>2019-05-28T08:51:12.000Z</time>
      </trkpt>
      <trkpt lat="44.37244" lon="4.64779">
        <ele>51.91</ele>
        <time>2019-05-28T08:51:17.000Z</time>
      </trkpt>
      <trkpt lat="44.37213" lon="4.64773">
        <ele>51.48</ele>
        <time>2019-05-28T08:51:22.000Z</time>
      </trkpt>
      <trkpt lat="44.37184" lon="4.64781">
        <ele>51.21</ele>
        <time>2019-05-28T08:51:27.000Z</time>
      </trkpt>
      <trkpt lat="44.37155" lon="4.64784">
        <ele>50.48</ele>
        <time>2019-05-28T08:51:32.000Z</time>
      </trkpt>
      <trkpt lat="44.37125" lon="4.64784">
        <ele>50.23</ele>
        <time>2019-05-28T08:51:37.000Z</time>
      </trkpt>
      <trkpt lat="44.37094" lon="4.64778">
        <ele>51.29</ele>
        <time>2019-05-28T08:51:42.000Z</time>
      </trkpt>
      <trkpt lat="44.37063" lon="4.64771">
        <ele>49.54</ele>
        <time>2019-05-28T08:51:47.000Z</time>
      </trkpt>
      <trkpt lat="44.37034" lon="4.64765">
        <ele>49.23</ele>
        <time>2019-05-28T08:51:52.000Z</time>
      </trkpt>
      <trkpt lat="44.37005" lon="4.64762">
        <ele>48.29</ele>
        <time>2019-05-28T08:51:57.000Z</time>
      </trkpt>
      <trkpt lat="44.36976" lon="4.64755">
        <ele>49.24</ele>
        <time>2019-05-28T08:52:02.000Z</time>
      </trkpt>
      <trkpt lat="44.36948" lon="4.64749">
        <ele>50.23</ele>
        <time>2019-05-28T08:52:07.000Z</time>
      </trkpt>
      <trkpt lat="44.3692" lon="4.64742">
        <ele>49.29</ele>
        <time>2019-05-28T08:52:12.000Z</time>
      </trkpt>
      <trkpt lat="44.36895" lon="4.64733">
        <ele>47.24</ele>
        <time>2019-05-28T08:52:17.000Z</time>
      </trkpt>
      <trkpt lat="44.36888" lon="4.64725">
        <ele>48.92</ele>
        <time>2019-05-28T08:52:22.000Z</time>
      </trkpt>
      <trkpt lat="44.36895" lon="4.64732">
        <ele>50.23</ele>
        <time>2019-05-28T08:52:32.000Z</time>
      </trkpt>
      <trkpt lat="44.36889" lon="4.64722">
        <ele>49.48</ele>
        <time>2019-05-28T08:56:36.000Z</time>
      </trkpt>
      <trkpt lat="44.36896" lon="4.64731">
        <ele>50.8</ele>
        <time>2019-05-28T08:56:54.000Z</time>
      </trkpt>
      <trkpt lat="44.36888" lon="4.64726">
        <ele>52.29</ele>
        <time>2019-05-28T09:00:35.000Z</time>
      </trkpt>
      <trkpt lat="44.36876" lon="4.64733">
        <ele>52.28</ele>
        <time>2019-05-28T09:00:40.000Z</time>
      </trkpt>
      <trkpt lat="44.36859" lon="4.64738">
        <ele>52.23</ele>
        <time>2019-05-28T09:00:45.000Z</time>
      </trkpt>
      <trkpt lat="44.36844" lon="4.6473">
        <ele>53.36</ele>
        <time>2019-05-28T09:00:50.000Z</time>
      </trkpt>
      <trkpt lat="44.36834" lon="4.64715">
        <ele>50.02</ele>
        <time>2019-05-28T09:00:55.000Z</time>
      </trkpt>
      <trkpt lat="44.36829" lon="4.64702">
        <ele>50.57</ele>
        <time>2019-05-28T09:01:00.000Z</time>
      </trkpt>
      <trkpt lat="44.36842" lon="4.64703">
        <ele>49.03</ele>
        <time>2019-05-28T09:01:05.000Z</time>
      </trkpt>
      <trkpt lat="44.36852" lon="4.6471">
        <ele>56.16</ele>
        <time>2019-05-28T09:01:19.000Z</time>
      </trkpt>
      <trkpt lat="44.36855" lon="4.64726">
        <ele>57.17</ele>
        <time>2019-05-28T09:01:24.000Z</time>
      </trkpt>
      <trkpt lat="44.36857" lon="4.64741">
        <ele>57.22</ele>
        <time>2019-05-28T09:02:12.000Z</time>
      </trkpt>
      <trkpt lat="44.36853" lon="4.64769">
        <ele>57.42</ele>
        <time>2019-05-28T09:02:17.000Z</time>
      </trkpt>
      <trkpt lat="44.36852" lon="4.64798">
        <ele>57.98</ele>
        <time>2019-05-28T09:02:22.000Z</time>
      </trkpt>
      <trkpt lat="44.3685" lon="4.64826">
        <ele>58.22</ele>
        <time>2019-05-28T09:02:27.000Z</time>
      </trkpt>
      <trkpt lat="44.36847" lon="4.64853">
        <ele>59.22</ele>
        <time>2019-05-28T09:02:32.000Z</time>
      </trkpt>
      <trkpt lat="44.36843" lon="4.64881">
        <ele>61.03</ele>
        <time>2019-05-28T09:02:37.000Z</time>
      </trkpt>
      <trkpt lat="44.36841" lon="4.64911">
        <ele>61.23</ele>
        <time>2019-05-28T09:02:42.000Z</time>
      </trkpt>
      <trkpt lat="44.36839" lon="4.64934">
        <ele>60.3</ele>
        <time>2019-05-28T09:02:47.000Z</time>
      </trkpt>
      <trkpt lat="44.36838" lon="4.64948">
        <ele>60.47</ele>
        <time>2019-05-28T09:03:21.000Z</time>
      </trkpt>
      <trkpt lat="44.36836" lon="4.64978">
        <ele>60.23</ele>
        <time>2019-05-28T09:03:26.000Z</time>
      </trkpt>
      <trkpt lat="44.36833" lon="4.65013">
        <ele>59.48</ele>
        <time>2019-05-28T09:03:31.000Z</time>
      </trkpt>
      <trkpt lat="44.3683" lon="4.6505">
        <ele>59.23</ele>
        <time>2019-05-28T09:03:36.000Z</time>
      </trkpt>
      <trkpt lat="44.36826" lon="4.65094">
        <ele>57.48</ele>
        <time>2019-05-28T09:03:41.000Z</time>
      </trkpt>
      <trkpt lat="44.3682" lon="4.65139">
        <ele>56.5</ele>
        <time>2019-05-28T09:03:46.000Z</time>
      </trkpt>
      <trkpt lat="44.36817" lon="4.65178">
        <ele>56.05</ele>
        <time>2019-05-28T09:03:51.000Z</time>
      </trkpt>
      <trkpt lat="44.36811" lon="4.65195">
        <ele>55.29</ele>
        <time>2019-05-28T09:03:56.000Z</time>
      </trkpt>
      <trkpt lat="44.36812" lon="4.65213">
        <ele>54.48</ele>
        <time>2019-05-28T09:04:01.000Z</time>
      </trkpt>
      <trkpt lat="44.36808" lon="4.65248">
        <ele>54.25</ele>
        <time>2019-05-28T09:04:06.000Z</time>
      </trkpt>
      <trkpt lat="44.36805" lon="4.65288">
        <ele>54.04</ele>
        <time>2019-05-28T09:04:11.000Z</time>
      </trkpt>
      <trkpt lat="44.36801" lon="4.65329">
        <ele>54.98</ele>
        <time>2019-05-28T09:04:16.000Z</time>
      </trkpt>
      <trkpt lat="44.36797" lon="4.65373">
        <ele>55.99</ele>
        <time>2019-05-28T09:04:21.000Z</time>
      </trkpt>
      <trkpt lat="44.36793" lon="4.65417">
        <ele>55.25</ele>
        <time>2019-05-28T09:04:26.000Z</time>
      </trkpt>
      <trkpt lat="44.3679" lon="4.65457">
        <ele>56.98</ele>
        <time>2019-05-28T09:04:31.000Z</time>
      </trkpt>
      <trkpt lat="44.36786" lon="4.65503">
        <ele>57</ele>
        <time>2019-05-28T09:04:36.000Z</time>
      </trkpt>
      <trkpt lat="44.36783" lon="4.65546">
        <ele>57.24</ele>
        <time>2019-05-28T09:04:41.000Z</time>
      </trkpt>
      <trkpt lat="44.36778" lon="4.65589">
        <ele>55.26</ele>
        <time>2019-05-28T09:04:46.000Z</time>
      </trkpt>
      <trkpt lat="44.36774" lon="4.65627">
        <ele>55.24</ele>
        <time>2019-05-28T09:04:51.000Z</time>
      </trkpt>
      <trkpt lat="44.36759" lon="4.65642">
        <ele>53.49</ele>
        <time>2019-05-28T09:04:56.000Z</time>
      </trkpt>
      <trkpt lat="44.36745" lon="4.65639">
        <ele>53.24</ele>
        <time>2019-05-28T09:05:01.000Z</time>
      </trkpt>
      <trkpt lat="44.36736" lon="4.65635">
        <ele>51.24</ele>
        <time>2019-05-28T09:05:25.000Z</time>
      </trkpt>
      <trkpt lat="44.36718" lon="4.65631">
        <ele>51.24</ele>
        <time>2019-05-28T09:05:30.000Z</time>
      </trkpt>
      <trkpt lat="44.36693" lon="4.65624">
        <ele>50.24</ele>
        <time>2019-05-28T09:05:35.000Z</time>
      </trkpt>
      <trkpt lat="44.36665" lon="4.65617">
        <ele>50.24</ele>
        <time>2019-05-28T09:05:40.000Z</time>
      </trkpt>
      <trkpt lat="44.36634" lon="4.65614">
        <ele>50.24</ele>
        <time>2019-05-28T09:05:45.000Z</time>
      </trkpt>
      <trkpt lat="44.36598" lon="4.65612">
        <ele>49.24</ele>
        <time>2019-05-28T09:05:50.000Z</time>
      </trkpt>
      <trkpt lat="44.36561" lon="4.65608">
        <ele>48.49</ele>
        <time>2019-05-28T09:05:55.000Z</time>
      </trkpt>
      <trkpt lat="44.36526" lon="4.65603">
        <ele>47.49</ele>
        <time>2019-05-28T09:06:00.000Z</time>
      </trkpt>
      <trkpt lat="44.36492" lon="4.656">
        <ele>48.24</ele>
        <time>2019-05-28T09:06:05.000Z</time>
      </trkpt>
      <trkpt lat="44.36458" lon="4.65596">
        <ele>47.12</ele>
        <time>2019-05-28T09:06:10.000Z</time>
      </trkpt>
      <trkpt lat="44.36427" lon="4.65596">
        <ele>48.94</ele>
        <time>2019-05-28T09:06:15.000Z</time>
      </trkpt>
      <trkpt lat="44.36394" lon="4.65592">
        <ele>49.24</ele>
        <time>2019-05-28T09:06:20.000Z</time>
      </trkpt>
      <trkpt lat="44.36358" lon="4.65588">
        <ele>50.23</ele>
        <time>2019-05-28T09:06:25.000Z</time>
      </trkpt>
      <trkpt lat="44.36321" lon="4.65584">
        <ele>50.04</ele>
        <time>2019-05-28T09:06:30.000Z</time>
      </trkpt>
      <trkpt lat="44.36284" lon="4.65577">
        <ele>51.18</ele>
        <time>2019-05-28T09:06:35.000Z</time>
      </trkpt>
      <trkpt lat="44.36247" lon="4.65567">
        <ele>50.29</ele>
        <time>2019-05-28T09:06:40.000Z</time>
      </trkpt>
      <trkpt lat="44.36213" lon="4.65557">
        <ele>50.24</ele>
        <time>2019-05-28T09:06:45.000Z</time>
      </trkpt>
      <trkpt lat="44.36177" lon="4.65548">
        <ele>49.26</ele>
        <time>2019-05-28T09:06:50.000Z</time>
      </trkpt>
      <trkpt lat="44.36141" lon="4.65545">
        <ele>49.25</ele>
        <time>2019-05-28T09:06:55.000Z</time>
      </trkpt>
      <trkpt lat="44.36104" lon="4.6555">
        <ele>49.24</ele>
        <time>2019-05-28T09:07:00.000Z</time>
      </trkpt>
      <trkpt lat="44.36066" lon="4.65556">
        <ele>49.2</ele>
        <time>2019-05-28T09:07:05.000Z</time>
      </trkpt>
      <trkpt lat="44.36025" lon="4.65561">
        <ele>48.26</ele>
        <time>2019-05-28T09:07:10.000Z</time>
      </trkpt>
      <trkpt lat="44.35987" lon="4.65563">
        <ele>49.25</ele>
        <time>2019-05-28T09:07:15.000Z</time>
      </trkpt>
      <trkpt lat="44.35949" lon="4.6557">
        <ele>49.26</ele>
        <time>2019-05-28T09:07:20.000Z</time>
      </trkpt>
      <trkpt lat="44.35911" lon="4.65581">
        <ele>48.5</ele>
        <time>2019-05-28T09:07:25.000Z</time>
      </trkpt>
      <trkpt lat="44.35873" lon="4.65596">
        <ele>47.25</ele>
        <time>2019-05-28T09:07:30.000Z</time>
      </trkpt>
      <trkpt lat="44.35836" lon="4.65611">
        <ele>49</ele>
        <time>2019-05-28T09:07:35.000Z</time>
      </trkpt>
      <trkpt lat="44.35798" lon="4.65625">
        <ele>49.25</ele>
        <time>2019-05-28T09:07:40.000Z</time>
      </trkpt>
      <trkpt lat="44.35765" lon="4.65645">
        <ele>48.26</ele>
        <time>2019-05-28T09:07:45.000Z</time>
      </trkpt>
      <trkpt lat="44.35734" lon="4.65671">
        <ele>49.19</ele>
        <time>2019-05-28T09:07:50.000Z</time>
      </trkpt>
      <trkpt lat="44.357" lon="4.65671">
        <ele>51.17</ele>
        <time>2019-05-28T09:07:55.000Z</time>
      </trkpt>
      <trkpt lat="44.35666" lon="4.65668">
        <ele>51.25</ele>
        <time>2019-05-28T09:08:00.000Z</time>
      </trkpt>
      <trkpt lat="44.35631" lon="4.65664">
        <ele>49.52</ele>
        <time>2019-05-28T09:08:05.000Z</time>
      </trkpt>
      <trkpt lat="44.35597" lon="4.65663">
        <ele>51.24</ele>
        <time>2019-05-28T09:08:10.000Z</time>
      </trkpt>
      <trkpt lat="44.35564" lon="4.65664">
        <ele>52.06</ele>
        <time>2019-05-28T09:08:15.000Z</time>
      </trkpt>
      <trkpt lat="44.35529" lon="4.65664">
        <ele>51.31</ele>
        <time>2019-05-28T09:08:20.000Z</time>
      </trkpt>
      <trkpt lat="44.35496" lon="4.65655">
        <ele>50.5</ele>
        <time>2019-05-28T09:08:25.000Z</time>
      </trkpt>
      <trkpt lat="44.35464" lon="4.65637">
        <ele>49.5</ele>
        <time>2019-05-28T09:08:30.000Z</time>
      </trkpt>
      <trkpt lat="44.35432" lon="4.65618">
        <ele>48.51</ele>
        <time>2019-05-28T09:08:35.000Z</time>
      </trkpt>
      <trkpt lat="44.354" lon="4.65598">
        <ele>48.26</ele>
        <time>2019-05-28T09:08:40.000Z</time>
      </trkpt>
      <trkpt lat="44.35367" lon="4.65581">
        <ele>47.27</ele>
        <time>2019-05-28T09:08:45.000Z</time>
      </trkpt>
      <trkpt lat="44.35335" lon="4.65592">
        <ele>46.32</ele>
        <time>2019-05-28T09:08:50.000Z</time>
      </trkpt>
      <trkpt lat="44.35304" lon="4.65615">
        <ele>48.19</ele>
        <time>2019-05-28T09:08:55.000Z</time>
      </trkpt>
      <trkpt lat="44.35272" lon="4.65636">
        <ele>48.26</ele>
        <time>2019-05-28T09:09:00.000Z</time>
      </trkpt>
      <trkpt lat="44.35242" lon="4.65659">
        <ele>47.32</ele>
        <time>2019-05-28T09:09:05.000Z</time>
      </trkpt>
      <trkpt lat="44.35211" lon="4.65683">
        <ele>47.26</ele>
        <time>2019-05-28T09:09:10.000Z</time>
      </trkpt>
      <trkpt lat="44.3519" lon="4.65697">
        <ele>48.49</ele>
        <time>2019-05-28T09:09:15.000Z</time>
      </trkpt>
      <trkpt lat="44.3518" lon="4.65704">
        <ele>52.19</ele>
        <time>2019-05-28T09:09:28.000Z</time>
      </trkpt>
      <trkpt lat="44.35165" lon="4.65717">
        <ele>51.27</ele>
        <time>2019-05-28T09:09:33.000Z</time>
      </trkpt>
      <trkpt lat="44.35142" lon="4.65735">
        <ele>49.56</ele>
        <time>2019-05-28T09:09:38.000Z</time>
      </trkpt>
      <trkpt lat="44.35117" lon="4.65756">
        <ele>50.24</ele>
        <time>2019-05-28T09:09:43.000Z</time>
      </trkpt>
      <trkpt lat="44.35088" lon="4.65775">
        <ele>50.26</ele>
        <time>2019-05-28T09:09:48.000Z</time>
      </trkpt>
      <trkpt lat="44.35059" lon="4.65796">
        <ele>49.51</ele>
        <time>2019-05-28T09:09:53.000Z</time>
      </trkpt>
      <trkpt lat="44.35028" lon="4.6582">
        <ele>49.51</ele>
        <time>2019-05-28T09:09:58.000Z</time>
      </trkpt>
      <trkpt lat="44.34997" lon="4.65845">
        <ele>49.46</ele>
        <time>2019-05-28T09:10:03.000Z</time>
      </trkpt>
      <trkpt lat="44.34962" lon="4.65871">
        <ele>49.26</ele>
        <time>2019-05-28T09:10:08.000Z</time>
      </trkpt>
      <trkpt lat="44.3493" lon="4.65893">
        <ele>49.27</ele>
        <time>2019-05-28T09:10:13.000Z</time>
      </trkpt>
      <trkpt lat="44.34891" lon="4.65911">
        <ele>47.76</ele>
        <time>2019-05-28T09:10:18.000Z</time>
      </trkpt>
      <trkpt lat="44.34854" lon="4.65917">
        <ele>49</ele>
        <time>2019-05-28T09:10:23.000Z</time>
      </trkpt>
      <trkpt lat="44.3482" lon="4.65918">
        <ele>45.26</ele>
        <time>2019-05-28T09:10:28.000Z</time>
      </trkpt>
      <trkpt lat="44.34787" lon="4.65914">
        <ele>46.27</ele>
        <time>2019-05-28T09:10:33.000Z</time>
      </trkpt>
      <trkpt lat="44.34755" lon="4.65901">
        <ele>46.51</ele>
        <time>2019-05-28T09:10:38.000Z</time>
      </trkpt>
      <trkpt lat="44.34728" lon="4.65882">
        <ele>46.51</ele>
        <time>2019-05-28T09:10:43.000Z</time>
      </trkpt>
      <trkpt lat="44.34699" lon="4.65862">
        <ele>47.22</ele>
        <time>2019-05-28T09:10:48.000Z</time>
      </trkpt>
      <trkpt lat="44.34671" lon="4.65836">
        <ele>46.08</ele>
        <time>2019-05-28T09:10:53.000Z</time>
      </trkpt>
      <trkpt lat="44.34643" lon="4.65818">
        <ele>48.2</ele>
        <time>2019-05-28T09:10:58.000Z</time>
      </trkpt>
      <trkpt lat="44.34615" lon="4.65821">
        <ele>48.27</ele>
        <time>2019-05-28T09:11:03.000Z</time>
      </trkpt>
      <trkpt lat="44.34587" lon="4.65841">
        <ele>47.53</ele>
        <time>2019-05-28T09:11:08.000Z</time>
      </trkpt>
      <trkpt lat="44.34556" lon="4.6586">
        <ele>47.26</ele>
        <time>2019-05-28T09:11:13.000Z</time>
      </trkpt>
      <trkpt lat="44.34523" lon="4.6588">
        <ele>48.02</ele>
        <time>2019-05-28T09:11:18.000Z</time>
      </trkpt>
      <trkpt lat="44.34491" lon="4.659">
        <ele>47.52</ele>
        <time>2019-05-28T09:11:23.000Z</time>
      </trkpt>
      <trkpt lat="44.34461" lon="4.65918">
        <ele>47.27</ele>
        <time>2019-05-28T09:11:28.000Z</time>
      </trkpt>
      <trkpt lat="44.3443" lon="4.65936">
        <ele>48.02</ele>
        <time>2019-05-28T09:11:33.000Z</time>
      </trkpt>
      <trkpt lat="44.34397" lon="4.65956">
        <ele>49.02</ele>
        <time>2019-05-28T09:11:38.000Z</time>
      </trkpt>
      <trkpt lat="44.34364" lon="4.65975">
        <ele>48.27</ele>
        <time>2019-05-28T09:11:43.000Z</time>
      </trkpt>
      <trkpt lat="44.34332" lon="4.65996">
        <ele>48.51</ele>
        <time>2019-05-28T09:11:48.000Z</time>
      </trkpt>
      <trkpt lat="44.34299" lon="4.66014">
        <ele>49.07</ele>
        <time>2019-05-28T09:11:53.000Z</time>
      </trkpt>
      <trkpt lat="44.34265" lon="4.66036">
        <ele>48.27</ele>
        <time>2019-05-28T09:11:58.000Z</time>
      </trkpt>
      <trkpt lat="44.34231" lon="4.66054">
        <ele>48.28</ele>
        <time>2019-05-28T09:12:03.000Z</time>
      </trkpt>
      <trkpt lat="44.34196" lon="4.66067">
        <ele>47.33</ele>
        <time>2019-05-28T09:12:08.000Z</time>
      </trkpt>
      <trkpt lat="44.34162" lon="4.66082">
        <ele>46.29</ele>
        <time>2019-05-28T09:12:13.000Z</time>
      </trkpt>
      <trkpt lat="44.34126" lon="4.66093">
        <ele>46.46</ele>
        <time>2019-05-28T09:12:18.000Z</time>
      </trkpt>
      <trkpt lat="44.34091" lon="4.66105">
        <ele>47.27</ele>
        <time>2019-05-28T09:12:23.000Z</time>
      </trkpt>
      <trkpt lat="44.34057" lon="4.66118">
        <ele>47.27</ele>
        <time>2019-05-28T09:12:28.000Z</time>
      </trkpt>
      <trkpt lat="44.34024" lon="4.66128">
        <ele>47.28</ele>
        <time>2019-05-28T09:12:33.000Z</time>
      </trkpt>
      <trkpt lat="44.33989" lon="4.66141">
        <ele>47.28</ele>
        <time>2019-05-28T09:12:38.000Z</time>
      </trkpt>
      <trkpt lat="44.33954" lon="4.66149">
        <ele>48.03</ele>
        <time>2019-05-28T09:12:43.000Z</time>
      </trkpt>
      <trkpt lat="44.33918" lon="4.66131">
        <ele>49.26</ele>
        <time>2019-05-28T09:12:48.000Z</time>
      </trkpt>
      <trkpt lat="44.33885" lon="4.66112">
        <ele>48.28</ele>
        <time>2019-05-28T09:12:53.000Z</time>
      </trkpt>
      <trkpt lat="44.3385" lon="4.66092">
        <ele>47.09</ele>
        <time>2019-05-28T09:12:58.000Z</time>
      </trkpt>
      <trkpt lat="44.33815" lon="4.6607">
        <ele>47.23</ele>
        <time>2019-05-28T09:13:03.000Z</time>
      </trkpt>
      <trkpt lat="44.3378" lon="4.66059">
        <ele>46.28</ele>
        <time>2019-05-28T09:13:08.000Z</time>
      </trkpt>
      <trkpt lat="44.33745" lon="4.66048">
        <ele>49.21</ele>
        <time>2019-05-28T09:13:13.000Z</time>
      </trkpt>
      <trkpt lat="44.33711" lon="4.66037">
        <ele>48.5</ele>
        <time>2019-05-28T09:13:18.000Z</time>
      </trkpt>
      <trkpt lat="44.33676" lon="4.66026">
        <ele>49.28</ele>
        <time>2019-05-28T09:13:23.000Z</time>
      </trkpt>
      <trkpt lat="44.33643" lon="4.66007">
        <ele>48.34</ele>
        <time>2019-05-28T09:13:28.000Z</time>
      </trkpt>
      <trkpt lat="44.33609" lon="4.65989">
        <ele>47.34</ele>
        <time>2019-05-28T09:13:33.000Z</time>
      </trkpt>
      <trkpt lat="44.33575" lon="4.65971">
        <ele>47.28</ele>
        <time>2019-05-28T09:13:38.000Z</time>
      </trkpt>
      <trkpt lat="44.33542" lon="4.65956">
        <ele>47.28</ele>
        <time>2019-05-28T09:13:43.000Z</time>
      </trkpt>
      <trkpt lat="44.33513" lon="4.65945">
        <ele>50.2</ele>
        <time>2019-05-28T09:13:48.000Z</time>
      </trkpt>
      <trkpt lat="44.33491" lon="4.65943">
        <ele>51.27</ele>
        <time>2019-05-28T09:13:53.000Z</time>
      </trkpt>
      <trkpt lat="44.33463" lon="4.65937">
        <ele>48.61</ele>
        <time>2019-05-28T09:13:58.000Z</time>
      </trkpt>
      <trkpt lat="44.33426" lon="4.65921">
        <ele>45.55</ele>
        <time>2019-05-28T09:14:03.000Z</time>
      </trkpt>
      <trkpt lat="44.33386" lon="4.65911">
        <ele>47.08</ele>
        <time>2019-05-28T09:14:08.000Z</time>
      </trkpt>
      <trkpt lat="44.33349" lon="4.65916">
        <ele>45.35</ele>
        <time>2019-05-28T09:14:13.000Z</time>
      </trkpt>
      <trkpt lat="44.33315" lon="4.65925">
        <ele>45.28</ele>
        <time>2019-05-28T09:14:18.000Z</time>
      </trkpt>
      <trkpt lat="44.33284" lon="4.65936">
        <ele>46.22</ele>
        <time>2019-05-28T09:14:23.000Z</time>
      </trkpt>
      <trkpt lat="44.33248" lon="4.65943">
        <ele>45.39</ele>
        <time>2019-05-28T09:14:28.000Z</time>
      </trkpt>
      <trkpt lat="44.33212" lon="4.65957">
        <ele>45.32</ele>
        <time>2019-05-28T09:14:33.000Z</time>
      </trkpt>
      <trkpt lat="44.33176" lon="4.65967">
        <ele>47.34</ele>
        <time>2019-05-28T09:14:38.000Z</time>
      </trkpt>
      <trkpt lat="44.33139" lon="4.65977">
        <ele>46.32</ele>
        <time>2019-05-28T09:14:43.000Z</time>
      </trkpt>
      <trkpt lat="44.33104" lon="4.65977">
        <ele>43.31</ele>
        <time>2019-05-28T09:14:48.000Z</time>
      </trkpt>
      <trkpt lat="44.33072" lon="4.65974">
        <ele>45.22</ele>
        <time>2019-05-28T09:14:53.000Z</time>
      </trkpt>
      <trkpt lat="44.33042" lon="4.65966">
        <ele>45.27</ele>
        <time>2019-05-28T09:14:58.000Z</time>
      </trkpt>
      <trkpt lat="44.33011" lon="4.65965">
        <ele>46.04</ele>
        <time>2019-05-28T09:15:03.000Z</time>
      </trkpt>
      <trkpt lat="44.32981" lon="4.65966">
        <ele>46.29</ele>
        <time>2019-05-28T09:15:08.000Z</time>
      </trkpt>
      <trkpt lat="44.3295" lon="4.65969">
        <ele>46.23</ele>
        <time>2019-05-28T09:15:13.000Z</time>
      </trkpt>
      <trkpt lat="44.32918" lon="4.65966">
        <ele>50.47</ele>
        <time>2019-05-28T09:15:18.000Z</time>
      </trkpt>
      <trkpt lat="44.32884" lon="4.65956">
        <ele>49.35</ele>
        <time>2019-05-28T09:15:23.000Z</time>
      </trkpt>
      <trkpt lat="44.32849" lon="4.6595">
        <ele>49.22</ele>
        <time>2019-05-28T09:15:28.000Z</time>
      </trkpt>
      <trkpt lat="44.3281" lon="4.65943">
        <ele>48.54</ele>
        <time>2019-05-28T09:15:33.000Z</time>
      </trkpt>
      <trkpt lat="44.32778" lon="4.65935">
        <ele>48.29</ele>
        <time>2019-05-28T09:15:38.000Z</time>
      </trkpt>
      <trkpt lat="44.32745" lon="4.65924">
        <ele>48.1</ele>
        <time>2019-05-28T09:15:43.000Z</time>
      </trkpt>
      <trkpt lat="44.32713" lon="4.65917">
        <ele>48.29</ele>
        <time>2019-05-28T09:15:48.000Z</time>
      </trkpt>
      <trkpt lat="44.32682" lon="4.65908">
        <ele>46.36</ele>
        <time>2019-05-28T09:15:53.000Z</time>
      </trkpt>
      <trkpt lat="44.3265" lon="4.65909">
        <ele>46.34</ele>
        <time>2019-05-28T09:15:58.000Z</time>
      </trkpt>
      <trkpt lat="44.32616" lon="4.65916">
        <ele>45.34</ele>
        <time>2019-05-28T09:16:03.000Z</time>
      </trkpt>
      <trkpt lat="44.32582" lon="4.65923">
        <ele>44.8</ele>
        <time>2019-05-28T09:16:08.000Z</time>
      </trkpt>
      <trkpt lat="44.3255" lon="4.65941">
        <ele>46.25</ele>
        <time>2019-05-28T09:16:13.000Z</time>
      </trkpt>
      <trkpt lat="44.32524" lon="4.65972">
        <ele>48.26</ele>
        <time>2019-05-28T09:16:18.000Z</time>
      </trkpt>
      <trkpt lat="44.32501" lon="4.66008">
        <ele>46.07</ele>
        <time>2019-05-28T09:16:23.000Z</time>
      </trkpt>
      <trkpt lat="44.32476" lon="4.66041">
        <ele>46.54</ele>
        <time>2019-05-28T09:16:28.000Z</time>
      </trkpt>
      <trkpt lat="44.32452" lon="4.66075">
        <ele>47.28</ele>
        <time>2019-05-28T09:16:33.000Z</time>
      </trkpt>
      <trkpt lat="44.32426" lon="4.66109">
        <ele>46.31</ele>
        <time>2019-05-28T09:16:38.000Z</time>
      </trkpt>
      <trkpt lat="44.32402" lon="4.66145">
        <ele>47.3</ele>
        <time>2019-05-28T09:16:43.000Z</time>
      </trkpt>
      <trkpt lat="44.32378" lon="4.66179">
        <ele>48.05</ele>
        <time>2019-05-28T09:16:48.000Z</time>
      </trkpt>
      <trkpt lat="44.32354" lon="4.66216">
        <ele>48.35</ele>
        <time>2019-05-28T09:16:53.000Z</time>
      </trkpt>
      <trkpt lat="44.32331" lon="4.66253">
        <ele>49.05</ele>
        <time>2019-05-28T09:16:58.000Z</time>
      </trkpt>
      <trkpt lat="44.3231" lon="4.66287">
        <ele>50.06</ele>
        <time>2019-05-28T09:17:03.000Z</time>
      </trkpt>
      <trkpt lat="44.32286" lon="4.6632">
        <ele>50.3</ele>
        <time>2019-05-28T09:17:08.000Z</time>
      </trkpt>
      <trkpt lat="44.32261" lon="4.66357">
        <ele>50.3</ele>
        <time>2019-05-28T09:17:13.000Z</time>
      </trkpt>
      <trkpt lat="44.32234" lon="4.66391">
        <ele>48.8</ele>
        <time>2019-05-28T09:17:18.000Z</time>
      </trkpt>
      <trkpt lat="44.32207" lon="4.66425">
        <ele>48.29</ele>
        <time>2019-05-28T09:17:23.000Z</time>
      </trkpt>
      <trkpt lat="44.32184" lon="4.66456">
        <ele>46.61</ele>
        <time>2019-05-28T09:17:28.000Z</time>
      </trkpt>
      <trkpt lat="44.32161" lon="4.66489">
        <ele>45.32</ele>
        <time>2019-05-28T09:17:33.000Z</time>
      </trkpt>
      <trkpt lat="44.32142" lon="4.66526">
        <ele>45.05</ele>
        <time>2019-05-28T09:17:38.000Z</time>
      </trkpt>
      <trkpt lat="44.32126" lon="4.66571">
        <ele>46.29</ele>
        <time>2019-05-28T09:17:43.000Z</time>
      </trkpt>
      <trkpt lat="44.32116" lon="4.66613">
        <ele>51.05</ele>
        <time>2019-05-28T09:17:48.000Z</time>
      </trkpt>
      <trkpt lat="44.32106" lon="4.66655">
        <ele>51.29</ele>
        <time>2019-05-28T09:17:53.000Z</time>
      </trkpt>
      <trkpt lat="44.32095" lon="4.66696">
        <ele>51.12</ele>
        <time>2019-05-28T09:17:58.000Z</time>
      </trkpt>
      <trkpt lat="44.32078" lon="4.66736">
        <ele>50.31</ele>
        <time>2019-05-28T09:18:03.000Z</time>
      </trkpt>
      <trkpt lat="44.32057" lon="4.66769">
        <ele>49.55</ele>
        <time>2019-05-28T09:18:08.000Z</time>
      </trkpt>
      <trkpt lat="44.32032" lon="4.66798">
        <ele>48.56</ele>
        <time>2019-05-28T09:18:13.000Z</time>
      </trkpt>
      <trkpt lat="44.32006" lon="4.66823">
        <ele>48.49</ele>
        <time>2019-05-28T09:18:18.000Z</time>
      </trkpt>
      <trkpt lat="44.31979" lon="4.66847">
        <ele>49.06</ele>
        <time>2019-05-28T09:18:23.000Z</time>
      </trkpt>
      <trkpt lat="44.3195" lon="4.66868">
        <ele>48.31</ele>
        <time>2019-05-28T09:18:28.000Z</time>
      </trkpt>
      <trkpt lat="44.31922" lon="4.66888">
        <ele>47.51</ele>
        <time>2019-05-28T09:18:33.000Z</time>
      </trkpt>
      <trkpt lat="44.31892" lon="4.66911">
        <ele>48.25</ele>
        <time>2019-05-28T09:18:38.000Z</time>
      </trkpt>
      <trkpt lat="44.31859" lon="4.66913">
        <ele>46.31</ele>
        <time>2019-05-28T09:18:43.000Z</time>
      </trkpt>
      <trkpt lat="44.31834" lon="4.66924">
        <ele>48.29</ele>
        <time>2019-05-28T09:18:48.000Z</time>
      </trkpt>
      <trkpt lat="44.3182" lon="4.66961">
        <ele>48.31</ele>
        <time>2019-05-28T09:18:53.000Z</time>
      </trkpt>
      <trkpt lat="44.31809" lon="4.67004">
        <ele>49.07</ele>
        <time>2019-05-28T09:18:58.000Z</time>
      </trkpt>
      <trkpt lat="44.31798" lon="4.67043">
        <ele>49.31</ele>
        <time>2019-05-28T09:19:03.000Z</time>
      </trkpt>
      <trkpt lat="44.31788" lon="4.67081">
        <ele>48.31</ele>
        <time>2019-05-28T09:19:08.000Z</time>
      </trkpt>
      <trkpt lat="44.31776" lon="4.6712">
        <ele>48.06</ele>
        <time>2019-05-28T09:19:13.000Z</time>
      </trkpt>
      <trkpt lat="44.31764" lon="4.67161">
        <ele>47.31</ele>
        <time>2019-05-28T09:19:18.000Z</time>
      </trkpt>
      <trkpt lat="44.31752" lon="4.67202">
        <ele>46.37</ele>
        <time>2019-05-28T09:19:23.000Z</time>
      </trkpt>
      <trkpt lat="44.31742" lon="4.67242">
        <ele>45.37</ele>
        <time>2019-05-28T09:19:28.000Z</time>
      </trkpt>
      <trkpt lat="44.31733" lon="4.67284">
        <ele>46.31</ele>
        <time>2019-05-28T09:19:33.000Z</time>
      </trkpt>
      <trkpt lat="44.31722" lon="4.67323">
        <ele>47.25</ele>
        <time>2019-05-28T09:19:38.000Z</time>
      </trkpt>
      <trkpt lat="44.31711" lon="4.67366">
        <ele>47.25</ele>
        <time>2019-05-28T09:19:43.000Z</time>
      </trkpt>
      <trkpt lat="44.31699" lon="4.67411">
        <ele>47.31</ele>
        <time>2019-05-28T09:19:48.000Z</time>
      </trkpt>
      <trkpt lat="44.31686" lon="4.67453">
        <ele>46.31</ele>
        <time>2019-05-28T09:19:53.000Z</time>
      </trkpt>
      <trkpt lat="44.3166" lon="4.67482">
        <ele>46.31</ele>
        <time>2019-05-28T09:19:58.000Z</time>
      </trkpt>
      <trkpt lat="44.3163" lon="4.67508">
        <ele>46.37</ele>
        <time>2019-05-28T09:20:03.000Z</time>
      </trkpt>
      <trkpt lat="44.31601" lon="4.67531">
        <ele>47.31</ele>
        <time>2019-05-28T09:20:08.000Z</time>
      </trkpt>
      <trkpt lat="44.3157" lon="4.67557">
        <ele>48.25</ele>
        <time>2019-05-28T09:20:13.000Z</time>
      </trkpt>
      <trkpt lat="44.31541" lon="4.67581">
        <ele>49.02</ele>
        <time>2019-05-28T09:20:18.000Z</time>
      </trkpt>
      <trkpt lat="44.31509" lon="4.67603">
        <ele>48.33</ele>
        <time>2019-05-28T09:20:23.000Z</time>
      </trkpt>
      <trkpt lat="44.31482" lon="4.67626">
        <ele>48.32</ele>
        <time>2019-05-28T09:20:28.000Z</time>
      </trkpt>
      <trkpt lat="44.31454" lon="4.67649">
        <ele>46.63</ele>
        <time>2019-05-28T09:20:33.000Z</time>
      </trkpt>
      <trkpt lat="44.31424" lon="4.67672">
        <ele>46.26</ele>
        <time>2019-05-28T09:20:38.000Z</time>
      </trkpt>
      <trkpt lat="44.31396" lon="4.67698">
        <ele>48.08</ele>
        <time>2019-05-28T09:20:43.000Z</time>
      </trkpt>
      <trkpt lat="44.31365" lon="4.6772">
        <ele>47.81</ele>
        <time>2019-05-28T09:20:48.000Z</time>
      </trkpt>
      <trkpt lat="44.31338" lon="4.67746">
        <ele>46.57</ele>
        <time>2019-05-28T09:20:53.000Z</time>
      </trkpt>
      <trkpt lat="44.3131" lon="4.67767">
        <ele>47.3</ele>
        <time>2019-05-28T09:20:58.000Z</time>
      </trkpt>
      <trkpt lat="44.31282" lon="4.67788">
        <ele>45.4</ele>
        <time>2019-05-28T09:21:03.000Z</time>
      </trkpt>
      <trkpt lat="44.31253" lon="4.67809">
        <ele>44.51</ele>
        <time>2019-05-28T09:21:08.000Z</time>
      </trkpt>
      <trkpt lat="44.31225" lon="4.67833">
        <ele>45.3</ele>
        <time>2019-05-28T09:21:13.000Z</time>
      </trkpt>
      <trkpt lat="44.31196" lon="4.67858">
        <ele>46.32</ele>
        <time>2019-05-28T09:21:18.000Z</time>
      </trkpt>
      <trkpt lat="44.31168" lon="4.67882">
        <ele>46.32</ele>
        <time>2019-05-28T09:21:23.000Z</time>
      </trkpt>
      <trkpt lat="44.31139" lon="4.67904">
        <ele>46.32</ele>
        <time>2019-05-28T09:21:28.000Z</time>
      </trkpt>
      <trkpt lat="44.3111" lon="4.67928">
        <ele>46.32</ele>
        <time>2019-05-28T09:21:33.000Z</time>
      </trkpt>
      <trkpt lat="44.31081" lon="4.67954">
        <ele>47.27</ele>
        <time>2019-05-28T09:21:38.000Z</time>
      </trkpt>
      <trkpt lat="44.31053" lon="4.67976">
        <ele>46.34</ele>
        <time>2019-05-28T09:21:43.000Z</time>
      </trkpt>
      <trkpt lat="44.31022" lon="4.68">
        <ele>46.32</ele>
        <time>2019-05-28T09:21:48.000Z</time>
      </trkpt>
      <trkpt lat="44.3099" lon="4.68025">
        <ele>46.32</ele>
        <time>2019-05-28T09:21:53.000Z</time>
      </trkpt>
      <trkpt lat="44.30959" lon="4.68052">
        <ele>46.33</ele>
        <time>2019-05-28T09:21:58.000Z</time>
      </trkpt>
      <trkpt lat="44.30931" lon="4.68082">
        <ele>47.26</ele>
        <time>2019-05-28T09:22:03.000Z</time>
      </trkpt>
      <trkpt lat="44.30906" lon="4.68114">
        <ele>47.33</ele>
        <time>2019-05-28T09:22:08.000Z</time>
      </trkpt>
      <trkpt lat="44.30882" lon="4.68149">
        <ele>48.32</ele>
        <time>2019-05-28T09:22:13.000Z</time>
      </trkpt>
      <trkpt lat="44.30857" lon="4.68177">
        <ele>47.58</ele>
        <time>2019-05-28T09:22:18.000Z</time>
      </trkpt>
      <trkpt lat="44.30829" lon="4.68205">
        <ele>46.58</ele>
        <time>2019-05-28T09:22:23.000Z</time>
      </trkpt>
      <trkpt lat="44.30798" lon="4.68229">
        <ele>46.33</ele>
        <time>2019-05-28T09:22:28.000Z</time>
      </trkpt>
      <trkpt lat="44.30765" lon="4.68244">
        <ele>44.58</ele>
        <time>2019-05-28T09:22:33.000Z</time>
      </trkpt>
      <trkpt lat="44.30733" lon="4.68264">
        <ele>43.58</ele>
        <time>2019-05-28T09:22:38.000Z</time>
      </trkpt>
      <trkpt lat="44.30709" lon="4.68298">
        <ele>45.31</ele>
        <time>2019-05-28T09:22:43.000Z</time>
      </trkpt>
      <trkpt lat="44.30696" lon="4.68323">
        <ele>44.34</ele>
        <time>2019-05-28T09:22:48.000Z</time>
      </trkpt>
      <trkpt lat="44.30686" lon="4.68314">
        <ele>44.56</ele>
        <time>2019-05-28T09:22:53.000Z</time>
      </trkpt>
      <trkpt lat="44.30679" lon="4.68295">
        <ele>46.32</ele>
        <time>2019-05-28T09:22:58.000Z</time>
      </trkpt>
      <trkpt lat="44.30668" lon="4.68275">
        <ele>47.14</ele>
        <time>2019-05-28T09:23:03.000Z</time>
      </trkpt>
      <trkpt lat="44.30652" lon="4.68258">
        <ele>45.33</ele>
        <time>2019-05-28T09:23:08.000Z</time>
      </trkpt>
      <trkpt lat="44.30631" lon="4.68249">
        <ele>45.33</ele>
        <time>2019-05-28T09:23:13.000Z</time>
      </trkpt>
      <trkpt lat="44.30612" lon="4.68244">
        <ele>46.33</ele>
        <time>2019-05-28T09:23:18.000Z</time>
      </trkpt>
      <trkpt lat="44.30589" lon="4.68234">
        <ele>44.53</ele>
        <time>2019-05-28T09:23:23.000Z</time>
      </trkpt>
      <trkpt lat="44.30567" lon="4.68224">
        <ele>45.33</ele>
        <time>2019-05-28T09:23:28.000Z</time>
      </trkpt>
      <trkpt lat="44.30543" lon="4.68216">
        <ele>46.27</ele>
        <time>2019-05-28T09:23:33.000Z</time>
      </trkpt>
      <trkpt lat="44.3052" lon="4.68205">
        <ele>46.33</ele>
        <time>2019-05-28T09:23:38.000Z</time>
      </trkpt>
      <trkpt lat="44.30494" lon="4.68197">
        <ele>46.33</ele>
        <time>2019-05-28T09:23:43.000Z</time>
      </trkpt>
      <trkpt lat="44.30466" lon="4.68194">
        <ele>48.08</ele>
        <time>2019-05-28T09:23:48.000Z</time>
      </trkpt>
      <trkpt lat="44.30438" lon="4.68193">
        <ele>47.34</ele>
        <time>2019-05-28T09:23:53.000Z</time>
      </trkpt>
      <trkpt lat="44.30409" lon="4.68196">
        <ele>48.33</ele>
        <time>2019-05-28T09:23:58.000Z</time>
      </trkpt>
      <trkpt lat="44.3038" lon="4.68201">
        <ele>48.13</ele>
        <time>2019-05-28T09:24:03.000Z</time>
      </trkpt>
      <trkpt lat="44.3035" lon="4.68207">
        <ele>48.33</ele>
        <time>2019-05-28T09:24:08.000Z</time>
      </trkpt>
      <trkpt lat="44.30319" lon="4.68216">
        <ele>48.32</ele>
        <time>2019-05-28T09:24:13.000Z</time>
      </trkpt>
      <trkpt lat="44.30289" lon="4.68227">
        <ele>49.07</ele>
        <time>2019-05-28T09:24:18.000Z</time>
      </trkpt>
      <trkpt lat="44.30256" lon="4.68232">
        <ele>47.35</ele>
        <time>2019-05-28T09:24:23.000Z</time>
      </trkpt>
      <trkpt lat="44.30223" lon="4.6823">
        <ele>45.35</ele>
        <time>2019-05-28T09:24:28.000Z</time>
      </trkpt>
      <trkpt lat="44.30191" lon="4.68224">
        <ele>44.35</ele>
        <time>2019-05-28T09:24:33.000Z</time>
      </trkpt>
      <trkpt lat="44.30158" lon="4.68223">
        <ele>44.52</ele>
        <time>2019-05-28T09:24:38.000Z</time>
      </trkpt>
      <trkpt lat="44.30124" lon="4.68228">
        <ele>44.58</ele>
        <time>2019-05-28T09:24:43.000Z</time>
      </trkpt>
      <trkpt lat="44.3009" lon="4.68238">
        <ele>46.08</ele>
        <time>2019-05-28T09:24:48.000Z</time>
      </trkpt>
      <trkpt lat="44.30059" lon="4.68253">
        <ele>47.07</ele>
        <time>2019-05-28T09:24:53.000Z</time>
      </trkpt>
      <trkpt lat="44.3003" lon="4.68269">
        <ele>48.32</ele>
        <time>2019-05-28T09:24:58.000Z</time>
      </trkpt>
      <trkpt lat="44.29997" lon="4.68284">
        <ele>47.35</ele>
        <time>2019-05-28T09:25:03.000Z</time>
      </trkpt>
      <trkpt lat="44.29965" lon="4.68287">
        <ele>44.61</ele>
        <time>2019-05-28T09:25:08.000Z</time>
      </trkpt>
      <trkpt lat="44.29934" lon="4.68273">
        <ele>43.58</ele>
        <time>2019-05-28T09:25:13.000Z</time>
      </trkpt>
      <trkpt lat="44.29906" lon="4.68257">
        <ele>43.35</ele>
        <time>2019-05-28T09:25:18.000Z</time>
      </trkpt>
      <trkpt lat="44.29879" lon="4.68235">
        <ele>44.14</ele>
        <time>2019-05-28T09:25:23.000Z</time>
      </trkpt>
      <trkpt lat="44.29852" lon="4.68211">
        <ele>44.4</ele>
        <time>2019-05-28T09:25:28.000Z</time>
      </trkpt>
      <trkpt lat="44.29824" lon="4.68191">
        <ele>44.34</ele>
        <time>2019-05-28T09:25:33.000Z</time>
      </trkpt>
      <trkpt lat="44.29798" lon="4.68172">
        <ele>43.59</ele>
        <time>2019-05-28T09:25:38.000Z</time>
      </trkpt>
      <trkpt lat="44.2977" lon="4.68153">
        <ele>42.34</ele>
        <time>2019-05-28T09:25:43.000Z</time>
      </trkpt>
      <trkpt lat="44.29741" lon="4.68134">
        <ele>43.28</ele>
        <time>2019-05-28T09:25:48.000Z</time>
      </trkpt>
      <trkpt lat="44.29715" lon="4.68112">
        <ele>43.59</ele>
        <time>2019-05-28T09:25:53.000Z</time>
      </trkpt>
      <trkpt lat="44.29691" lon="4.68085">
        <ele>42.59</ele>
        <time>2019-05-28T09:25:58.000Z</time>
      </trkpt>
      <trkpt lat="44.29669" lon="4.68058">
        <ele>44.08</ele>
        <time>2019-05-28T09:26:03.000Z</time>
      </trkpt>
      <trkpt lat="44.29647" lon="4.68025">
        <ele>45.35</ele>
        <time>2019-05-28T09:26:08.000Z</time>
      </trkpt>
      <trkpt lat="44.29628" lon="4.67994">
        <ele>45.34</ele>
        <time>2019-05-28T09:26:13.000Z</time>
      </trkpt>
      <trkpt lat="44.29608" lon="4.67961">
        <ele>47.09</ele>
        <time>2019-05-28T09:26:18.000Z</time>
      </trkpt>
      <trkpt lat="44.29592" lon="4.67926">
        <ele>46.1</ele>
        <time>2019-05-28T09:26:23.000Z</time>
      </trkpt>
      <trkpt lat="44.29591" lon="4.67885">
        <ele>46.4</ele>
        <time>2019-05-28T09:26:28.000Z</time>
      </trkpt>
      <trkpt lat="44.29591" lon="4.67845">
        <ele>45.35</ele>
        <time>2019-05-28T09:26:33.000Z</time>
      </trkpt>
      <trkpt lat="44.29586" lon="4.67806">
        <ele>46.28</ele>
        <time>2019-05-28T09:26:38.000Z</time>
      </trkpt>
      <trkpt lat="44.29587" lon="4.67767">
        <ele>46.34</ele>
        <time>2019-05-28T09:26:43.000Z</time>
      </trkpt>
      <trkpt lat="44.2959" lon="4.67728">
        <ele>45.34</ele>
        <time>2019-05-28T09:26:48.000Z</time>
      </trkpt>
      <trkpt lat="44.29595" lon="4.67691">
        <ele>44.4</ele>
        <time>2019-05-28T09:26:53.000Z</time>
      </trkpt>
      <trkpt lat="44.29597" lon="4.67654">
        <ele>44.35</ele>
        <time>2019-05-28T09:26:58.000Z</time>
      </trkpt>
      <trkpt lat="44.29599" lon="4.67619">
        <ele>44.34</ele>
        <time>2019-05-28T09:27:03.000Z</time>
      </trkpt>
      <trkpt lat="44.29597" lon="4.67585">
        <ele>44.34</ele>
        <time>2019-05-28T09:27:08.000Z</time>
      </trkpt>
      <trkpt lat="44.29591" lon="4.6755">
        <ele>45.34</ele>
        <time>2019-05-28T09:27:13.000Z</time>
      </trkpt>
      <trkpt lat="44.29585" lon="4.67517">
        <ele>45.34</ele>
        <time>2019-05-28T09:27:18.000Z</time>
      </trkpt>
      <trkpt lat="44.2957" lon="4.6749">
        <ele>44.36</ele>
        <time>2019-05-28T09:27:23.000Z</time>
      </trkpt>
      <trkpt lat="44.29544" lon="4.67486">
        <ele>43.59</ele>
        <time>2019-05-28T09:27:28.000Z</time>
      </trkpt>
      <trkpt lat="44.29516" lon="4.67487">
        <ele>45.09</ele>
        <time>2019-05-28T09:27:33.000Z</time>
      </trkpt>
      <trkpt lat="44.29484" lon="4.67489">
        <ele>44.34</ele>
        <time>2019-05-28T09:27:38.000Z</time>
      </trkpt>
      <trkpt lat="44.29449" lon="4.67488">
        <ele>42.65</ele>
        <time>2019-05-28T09:27:43.000Z</time>
      </trkpt>
      <trkpt lat="44.29415" lon="4.67481">
        <ele>43.09</ele>
        <time>2019-05-28T09:27:48.000Z</time>
      </trkpt>
      <trkpt lat="44.29384" lon="4.67465">
        <ele>43.34</ele>
        <time>2019-05-28T09:27:53.000Z</time>
      </trkpt>
      <trkpt lat="44.29353" lon="4.67451">
        <ele>44.34</ele>
        <time>2019-05-28T09:27:58.000Z</time>
      </trkpt>
      <trkpt lat="44.29321" lon="4.67439">
        <ele>43.59</ele>
        <time>2019-05-28T09:28:03.000Z</time>
      </trkpt>
      <trkpt lat="44.29288" lon="4.67428">
        <ele>43.53</ele>
        <time>2019-05-28T09:28:08.000Z</time>
      </trkpt>
      <trkpt lat="44.29255" lon="4.6742">
        <ele>43.35</ele>
        <time>2019-05-28T09:28:13.000Z</time>
      </trkpt>
      <trkpt lat="44.2922" lon="4.67413">
        <ele>42.37</ele>
        <time>2019-05-28T09:28:18.000Z</time>
      </trkpt>
      <trkpt lat="44.29186" lon="4.67402">
        <ele>40.42</ele>
        <time>2019-05-28T09:28:23.000Z</time>
      </trkpt>
      <trkpt lat="44.29152" lon="4.67394">
        <ele>42.33</ele>
        <time>2019-05-28T09:28:28.000Z</time>
      </trkpt>
      <trkpt lat="44.29118" lon="4.67382">
        <ele>43.28</ele>
        <time>2019-05-28T09:28:33.000Z</time>
      </trkpt>
      <trkpt lat="44.29082" lon="4.6737">
        <ele>41.6</ele>
        <time>2019-05-28T09:28:38.000Z</time>
      </trkpt>
      <trkpt lat="44.29047" lon="4.67359">
        <ele>42.3</ele>
        <time>2019-05-28T09:28:43.000Z</time>
      </trkpt>
      <trkpt lat="44.2901" lon="4.67348">
        <ele>43.09</ele>
        <time>2019-05-28T09:28:48.000Z</time>
      </trkpt>
      <trkpt lat="44.28974" lon="4.6734">
        <ele>43.29</ele>
        <time>2019-05-28T09:28:53.000Z</time>
      </trkpt>
      <trkpt lat="44.28935" lon="4.67335">
        <ele>42.41</ele>
        <time>2019-05-28T09:28:58.000Z</time>
      </trkpt>
      <trkpt lat="44.28896" lon="4.6733">
        <ele>42.1</ele>
        <time>2019-05-28T09:29:03.000Z</time>
      </trkpt>
      <trkpt lat="44.28857" lon="4.67322">
        <ele>42.35</ele>
        <time>2019-05-28T09:29:08.000Z</time>
      </trkpt>
      <trkpt lat="44.28819" lon="4.67314">
        <ele>43.33</ele>
        <time>2019-05-28T09:29:13.000Z</time>
      </trkpt>
      <trkpt lat="44.28781" lon="4.67305">
        <ele>42.16</ele>
        <time>2019-05-28T09:29:18.000Z</time>
      </trkpt>
      <trkpt lat="44.28746" lon="4.67302">
        <ele>43.1</ele>
        <time>2019-05-28T09:29:23.000Z</time>
      </trkpt>
      <trkpt lat="44.28709" lon="4.67297">
        <ele>45.04</ele>
        <time>2019-05-28T09:29:28.000Z</time>
      </trkpt>
      <trkpt lat="44.28675" lon="4.67292">
        <ele>45.29</ele>
        <time>2019-05-28T09:29:33.000Z</time>
      </trkpt>
      <trkpt lat="44.28642" lon="4.67287">
        <ele>45.35</ele>
        <time>2019-05-28T09:29:38.000Z</time>
      </trkpt>
      <trkpt lat="44.28608" lon="4.67284">
        <ele>43.61</ele>
        <time>2019-05-28T09:29:43.000Z</time>
      </trkpt>
      <trkpt lat="44.28592" lon="4.67255">
        <ele>43.35</ele>
        <time>2019-05-28T09:29:48.000Z</time>
      </trkpt>
      <trkpt lat="44.28582" lon="4.67216">
        <ele>42.41</ele>
        <time>2019-05-28T09:29:53.000Z</time>
      </trkpt>
      <trkpt lat="44.28569" lon="4.67175">
        <ele>42.35</ele>
        <time>2019-05-28T09:29:58.000Z</time>
      </trkpt>
      <trkpt lat="44.28545" lon="4.67158">
        <ele>41.36</ele>
        <time>2019-05-28T09:30:03.000Z</time>
      </trkpt>
      <trkpt lat="44.28512" lon="4.67168">
        <ele>43.09</ele>
        <time>2019-05-28T09:30:08.000Z</time>
      </trkpt>
      <trkpt lat="44.28481" lon="4.67174">
        <ele>41.42</ele>
        <time>2019-05-28T09:30:13.000Z</time>
      </trkpt>
      <trkpt lat="44.28449" lon="4.67174">
        <ele>42.1</ele>
        <time>2019-05-28T09:30:18.000Z</time>
      </trkpt>
      <trkpt lat="44.28415" lon="4.67171">
        <ele>42.1</ele>
        <time>2019-05-28T09:30:23.000Z</time>
      </trkpt>
      <trkpt lat="44.28383" lon="4.67173">
        <ele>41.6</ele>
        <time>2019-05-28T09:30:28.000Z</time>
      </trkpt>
      <trkpt lat="44.28349" lon="4.67168">
        <ele>41.59</ele>
        <time>2019-05-28T09:30:33.000Z</time>
      </trkpt>
      <trkpt lat="44.28323" lon="4.67138">
        <ele>43.3</ele>
        <time>2019-05-28T09:30:38.000Z</time>
      </trkpt>
      <trkpt lat="44.28294" lon="4.6715">
        <ele>44.3</ele>
        <time>2019-05-28T09:30:43.000Z</time>
      </trkpt>
      <trkpt lat="44.28267" lon="4.67175">
        <ele>43.17</ele>
        <time>2019-05-28T09:30:48.000Z</time>
      </trkpt>
      <trkpt lat="44.28239" lon="4.67201">
        <ele>43.36</ele>
        <time>2019-05-28T09:30:53.000Z</time>
      </trkpt>
      <trkpt lat="44.28213" lon="4.67223">
        <ele>43.36</ele>
        <time>2019-05-28T09:30:58.000Z</time>
      </trkpt>
      <trkpt lat="44.28184" lon="4.67235">
        <ele>43.36</ele>
        <time>2019-05-28T09:31:03.000Z</time>
      </trkpt>
      <trkpt lat="44.28158" lon="4.67212">
        <ele>43.54</ele>
        <time>2019-05-28T09:31:08.000Z</time>
      </trkpt>
      <trkpt lat="44.28132" lon="4.67186">
        <ele>43.55</ele>
        <time>2019-05-28T09:31:13.000Z</time>
      </trkpt>
      <trkpt lat="44.2812" lon="4.67172">
        <ele>43.36</ele>
        <time>2019-05-28T09:31:18.000Z</time>
      </trkpt>
      <trkpt lat="44.2811" lon="4.67172">
        <ele>42.36</ele>
        <time>2019-05-28T09:31:39.000Z</time>
      </trkpt>
      <trkpt lat="44.28095" lon="4.67165">
        <ele>42.36</ele>
        <time>2019-05-28T09:31:44.000Z</time>
      </trkpt>
      <trkpt lat="44.28074" lon="4.67159">
        <ele>43.11</ele>
        <time>2019-05-28T09:31:49.000Z</time>
      </trkpt>
      <trkpt lat="44.28048" lon="4.67153">
        <ele>43.36</ele>
        <time>2019-05-28T09:31:54.000Z</time>
      </trkpt>
      <trkpt lat="44.2802" lon="4.67147">
        <ele>44.36</ele>
        <time>2019-05-28T09:31:59.000Z</time>
      </trkpt>
      <trkpt lat="44.27989" lon="4.67138">
        <ele>43.36</ele>
        <time>2019-05-28T09:32:04.000Z</time>
      </trkpt>
      <trkpt lat="44.27959" lon="4.67129">
        <ele>43.36</ele>
        <time>2019-05-28T09:32:09.000Z</time>
      </trkpt>
      <trkpt lat="44.2793" lon="4.67119">
        <ele>44.36</ele>
        <time>2019-05-28T09:32:14.000Z</time>
      </trkpt>
      <trkpt lat="44.27904" lon="4.67105">
        <ele>45.3</ele>
        <time>2019-05-28T09:32:19.000Z</time>
      </trkpt>
      <trkpt lat="44.27881" lon="4.67089">
        <ele>44.37</ele>
        <time>2019-05-28T09:32:24.000Z</time>
      </trkpt>
      <trkpt lat="44.27856" lon="4.67072">
        <ele>44.35</ele>
        <time>2019-05-28T09:32:29.000Z</time>
      </trkpt>
      <trkpt lat="44.2783" lon="4.67057">
        <ele>44.35</ele>
        <time>2019-05-28T09:32:34.000Z</time>
      </trkpt>
      <trkpt lat="44.27802" lon="4.67042">
        <ele>43.36</ele>
        <time>2019-05-28T09:32:39.000Z</time>
      </trkpt>
      <trkpt lat="44.27775" lon="4.67032">
        <ele>45.35</ele>
        <time>2019-05-28T09:32:44.000Z</time>
      </trkpt>
      <trkpt lat="44.27746" lon="4.67019">
        <ele>45.36</ele>
        <time>2019-05-28T09:32:49.000Z</time>
      </trkpt>
      <trkpt lat="44.27718" lon="4.67006">
        <ele>44.38</ele>
        <time>2019-05-28T09:32:54.000Z</time>
      </trkpt>
      <trkpt lat="44.27695" lon="4.66983">
        <ele>45.36</ele>
        <time>2019-05-28T09:32:59.000Z</time>
      </trkpt>
      <trkpt lat="44.27675" lon="4.66952">
        <ele>45.36</ele>
        <time>2019-05-28T09:33:04.000Z</time>
      </trkpt>
      <trkpt lat="44.27654" lon="4.66922">
        <ele>44.36</ele>
        <time>2019-05-28T09:33:09.000Z</time>
      </trkpt>
      <trkpt lat="44.27633" lon="4.66891">
        <ele>43.37</ele>
        <time>2019-05-28T09:33:14.000Z</time>
      </trkpt>
      <trkpt lat="44.27613" lon="4.66863">
        <ele>43.35</ele>
        <time>2019-05-28T09:33:19.000Z</time>
      </trkpt>
      <trkpt lat="44.27593" lon="4.66835">
        <ele>44.12</ele>
        <time>2019-05-28T09:33:24.000Z</time>
      </trkpt>
      <trkpt lat="44.27572" lon="4.66809">
        <ele>43.36</ele>
        <time>2019-05-28T09:33:29.000Z</time>
      </trkpt>
      <trkpt lat="44.2755" lon="4.66785">
        <ele>43.41</ele>
        <time>2019-05-28T09:33:34.000Z</time>
      </trkpt>
      <trkpt lat="44.27527" lon="4.66763">
        <ele>43.13</ele>
        <time>2019-05-28T09:33:39.000Z</time>
      </trkpt>
      <trkpt lat="44.27505" lon="4.6674">
        <ele>42.61</ele>
        <time>2019-05-28T09:33:44.000Z</time>
      </trkpt>
      <trkpt lat="44.27482" lon="4.66716">
        <ele>42.41</ele>
        <time>2019-05-28T09:33:49.000Z</time>
      </trkpt>
      <trkpt lat="44.27459" lon="4.66694">
        <ele>42.36</ele>
        <time>2019-05-28T09:33:54.000Z</time>
      </trkpt>
      <trkpt lat="44.27437" lon="4.66673">
        <ele>42.35</ele>
        <time>2019-05-28T09:33:59.000Z</time>
      </trkpt>
      <trkpt lat="44.27414" lon="4.66654">
        <ele>44.11</ele>
        <time>2019-05-28T09:34:04.000Z</time>
      </trkpt>
      <trkpt lat="44.27388" lon="4.6664">
        <ele>43.62</ele>
        <time>2019-05-28T09:34:09.000Z</time>
      </trkpt>
      <trkpt lat="44.27358" lon="4.66639">
        <ele>43.37</ele>
        <time>2019-05-28T09:34:14.000Z</time>
      </trkpt>
      <trkpt lat="44.27328" lon="4.66638">
        <ele>42.37</ele>
        <time>2019-05-28T09:34:19.000Z</time>
      </trkpt>
      <trkpt lat="44.27296" lon="4.66642">
        <ele>43.35</ele>
        <time>2019-05-28T09:34:24.000Z</time>
      </trkpt>
      <trkpt lat="44.27264" lon="4.66654">
        <ele>43.37</ele>
        <time>2019-05-28T09:34:29.000Z</time>
      </trkpt>
      <trkpt lat="44.27232" lon="4.66668">
        <ele>42.43</ele>
        <time>2019-05-28T09:34:34.000Z</time>
      </trkpt>
      <trkpt lat="44.27199" lon="4.66669">
        <ele>42.31</ele>
        <time>2019-05-28T09:34:39.000Z</time>
      </trkpt>
      <trkpt lat="44.27165" lon="4.6666">
        <ele>42.13</ele>
        <time>2019-05-28T09:34:44.000Z</time>
      </trkpt>
      <trkpt lat="44.27132" lon="4.66651">
        <ele>42.31</ele>
        <time>2019-05-28T09:34:49.000Z</time>
      </trkpt>
      <trkpt lat="44.271" lon="4.66641">
        <ele>42.37</ele>
        <time>2019-05-28T09:34:54.000Z</time>
      </trkpt>
      <trkpt lat="44.27067" lon="4.66633">
        <ele>42.12</ele>
        <time>2019-05-28T09:34:59.000Z</time>
      </trkpt>
      <trkpt lat="44.27034" lon="4.66641">
        <ele>43.31</ele>
        <time>2019-05-28T09:35:04.000Z</time>
      </trkpt>
      <trkpt lat="44.27005" lon="4.66665">
        <ele>43.37</ele>
        <time>2019-05-28T09:35:09.000Z</time>
      </trkpt>
      <trkpt lat="44.26982" lon="4.66651">
        <ele>43.12</ele>
        <time>2019-05-28T09:35:14.000Z</time>
      </trkpt>
      <trkpt lat="44.26964" lon="4.66634">
        <ele>44.37</ele>
        <time>2019-05-28T09:35:19.000Z</time>
      </trkpt>
      <trkpt lat="44.26949" lon="4.66609">
        <ele>44.19</ele>
        <time>2019-05-28T09:35:24.000Z</time>
      </trkpt>
      <trkpt lat="44.26928" lon="4.66579">
        <ele>41.7</ele>
        <time>2019-05-28T09:35:29.000Z</time>
      </trkpt>
      <trkpt lat="44.26905" lon="4.66545">
        <ele>42.37</ele>
        <time>2019-05-28T09:35:34.000Z</time>
      </trkpt>
      <trkpt lat="44.26881" lon="4.66517">
        <ele>42.37</ele>
        <time>2019-05-28T09:35:39.000Z</time>
      </trkpt>
      <trkpt lat="44.26853" lon="4.66495">
        <ele>41.37</ele>
        <time>2019-05-28T09:35:44.000Z</time>
      </trkpt>
      <trkpt lat="44.26824" lon="4.66478">
        <ele>42.37</ele>
        <time>2019-05-28T09:35:49.000Z</time>
      </trkpt>
      <trkpt lat="44.26795" lon="4.66458">
        <ele>41.62</ele>
        <time>2019-05-28T09:35:54.000Z</time>
      </trkpt>
      <trkpt lat="44.26768" lon="4.66437">
        <ele>41.37</ele>
        <time>2019-05-28T09:35:59.000Z</time>
      </trkpt>
      <trkpt lat="44.26743" lon="4.66415">
        <ele>41.37</ele>
        <time>2019-05-28T09:36:04.000Z</time>
      </trkpt>
      <trkpt lat="44.26714" lon="4.66404">
        <ele>40.44</ele>
        <time>2019-05-28T09:36:09.000Z</time>
      </trkpt>
      <trkpt lat="44.26682" lon="4.66401">
        <ele>41.37</ele>
        <time>2019-05-28T09:36:14.000Z</time>
      </trkpt>
      <trkpt lat="44.26651" lon="4.66402">
        <ele>42.37</ele>
        <time>2019-05-28T09:36:19.000Z</time>
      </trkpt>
      <trkpt lat="44.26621" lon="4.66406">
        <ele>41.44</ele>
        <time>2019-05-28T09:36:24.000Z</time>
      </trkpt>
      <trkpt lat="44.2659" lon="4.66409">
        <ele>41.38</ele>
        <time>2019-05-28T09:36:29.000Z</time>
      </trkpt>
      <trkpt lat="44.26559" lon="4.66413">
        <ele>40.38</ele>
        <time>2019-05-28T09:36:34.000Z</time>
      </trkpt>
      <trkpt lat="44.26527" lon="4.66414">
        <ele>40.61</ele>
        <time>2019-05-28T09:36:39.000Z</time>
      </trkpt>
      <trkpt lat="44.26495" lon="4.66417">
        <ele>42.13</ele>
        <time>2019-05-28T09:36:44.000Z</time>
      </trkpt>
      <trkpt lat="44.26462" lon="4.66417">
        <ele>41.39</ele>
        <time>2019-05-28T09:36:49.000Z</time>
      </trkpt>
      <trkpt lat="44.2643" lon="4.66417">
        <ele>41.38</ele>
        <time>2019-05-28T09:36:54.000Z</time>
      </trkpt>
      <trkpt lat="44.26398" lon="4.6642">
        <ele>41.39</ele>
        <time>2019-05-28T09:36:59.000Z</time>
      </trkpt>
      <trkpt lat="44.26367" lon="4.66427">
        <ele>41.44</ele>
        <time>2019-05-28T09:37:04.000Z</time>
      </trkpt>
      <trkpt lat="44.26339" lon="4.66436">
        <ele>39.46</ele>
        <time>2019-05-28T09:37:09.000Z</time>
      </trkpt>
      <trkpt lat="44.26311" lon="4.6642">
        <ele>41.36</ele>
        <time>2019-05-28T09:37:14.000Z</time>
      </trkpt>
      <trkpt lat="44.26283" lon="4.66403">
        <ele>41.38</ele>
        <time>2019-05-28T09:37:19.000Z</time>
      </trkpt>
      <trkpt lat="44.26255" lon="4.66384">
        <ele>40.44</ele>
        <time>2019-05-28T09:37:24.000Z</time>
      </trkpt>
      <trkpt lat="44.26229" lon="4.66361">
        <ele>41.38</ele>
        <time>2019-05-28T09:37:29.000Z</time>
      </trkpt>
      <trkpt lat="44.26207" lon="4.66333">
        <ele>41.44</ele>
        <time>2019-05-28T09:37:34.000Z</time>
      </trkpt>
      <trkpt lat="44.26188" lon="4.66303">
        <ele>42.32</ele>
        <time>2019-05-28T09:37:39.000Z</time>
      </trkpt>
      <trkpt lat="44.26167" lon="4.66282">
        <ele>44.11</ele>
        <time>2019-05-28T09:37:44.000Z</time>
      </trkpt>
      <trkpt lat="44.26144" lon="4.66277">
        <ele>44.38</ele>
        <time>2019-05-28T09:37:49.000Z</time>
      </trkpt>
      <trkpt lat="44.26128" lon="4.66269">
        <ele>44.19</ele>
        <time>2019-05-28T09:37:54.000Z</time>
      </trkpt>
      <trkpt lat="44.26123" lon="4.66243">
        <ele>43.63</ele>
        <time>2019-05-28T09:37:59.000Z</time>
      </trkpt>
      <trkpt lat="44.26117" lon="4.66214">
        <ele>41.44</ele>
        <time>2019-05-28T09:38:04.000Z</time>
      </trkpt>
      <trkpt lat="44.26112" lon="4.66183">
        <ele>41.15</ele>
        <time>2019-05-28T09:38:09.000Z</time>
      </trkpt>
      <trkpt lat="44.26107" lon="4.66153">
        <ele>41.38</ele>
        <time>2019-05-28T09:38:14.000Z</time>
      </trkpt>
      <trkpt lat="44.26101" lon="4.66125">
        <ele>41.69</ele>
        <time>2019-05-28T09:38:19.000Z</time>
      </trkpt>
      <trkpt lat="44.26096" lon="4.66097">
        <ele>42.37</ele>
        <time>2019-05-28T09:38:24.000Z</time>
      </trkpt>
      <trkpt lat="44.26091" lon="4.66073">
        <ele>40.63</ele>
        <time>2019-05-28T09:38:29.000Z</time>
      </trkpt>
      <trkpt lat="44.26098" lon="4.66041">
        <ele>42.35</ele>
        <time>2019-05-28T09:38:34.000Z</time>
      </trkpt>
      <trkpt lat="44.261" lon="4.66004">
        <ele>41.38</ele>
        <time>2019-05-28T09:38:39.000Z</time>
      </trkpt>
      <trkpt lat="44.26098" lon="4.65976">
        <ele>44.06</ele>
        <time>2019-05-28T09:38:44.000Z</time>
      </trkpt>
      <trkpt lat="44.26101" lon="4.65957">
        <ele>45.39</ele>
        <time>2019-05-28T09:38:49.000Z</time>
      </trkpt>
      <trkpt lat="44.26104" lon="4.65931">
        <ele>45.38</ele>
        <time>2019-05-28T09:38:54.000Z</time>
      </trkpt>
      <trkpt lat="44.26076" lon="4.65943">
        <ele>43.44</ele>
        <time>2019-05-28T09:38:59.000Z</time>
      </trkpt>
      <trkpt lat="44.26052" lon="4.65957">
        <ele>42.87</ele>
        <time>2019-05-28T09:39:04.000Z</time>
      </trkpt>
      <trkpt lat="44.26028" lon="4.65972">
        <ele>42.4</ele>
        <time>2019-05-28T09:39:09.000Z</time>
      </trkpt>
      <trkpt lat="44.26001" lon="4.65974">
        <ele>42.38</ele>
        <time>2019-05-28T09:39:14.000Z</time>
      </trkpt>
      <trkpt lat="44.25972" lon="4.6598">
        <ele>43.37</ele>
        <time>2019-05-28T09:39:19.000Z</time>
      </trkpt>
      <trkpt lat="44.25949" lon="4.65983">
        <ele>44.13</ele>
        <time>2019-05-28T09:39:24.000Z</time>
      </trkpt>
      <trkpt lat="44.25925" lon="4.65966">
        <ele>45.43</ele>
        <time>2019-05-28T09:39:29.000Z</time>
      </trkpt>
      <trkpt lat="44.25903" lon="4.65949">
        <ele>45.38</ele>
        <time>2019-05-28T09:39:34.000Z</time>
      </trkpt>
      <trkpt lat="44.25875" lon="4.65957">
        <ele>48.05</ele>
        <time>2019-05-28T09:39:39.000Z</time>
      </trkpt>
      <trkpt lat="44.25845" lon="4.65963">
        <ele>46.45</ele>
        <time>2019-05-28T09:39:44.000Z</time>
      </trkpt>
      <trkpt lat="44.25814" lon="4.65967">
        <ele>45.39</ele>
        <time>2019-05-28T09:39:49.000Z</time>
      </trkpt>
      <trkpt lat="44.25788" lon="4.65987">
        <ele>44.58</ele>
        <time>2019-05-28T09:39:54.000Z</time>
      </trkpt>
      <trkpt lat="44.25766" lon="4.66017">
        <ele>43.45</ele>
        <time>2019-05-28T09:39:59.000Z</time>
      </trkpt>
      <trkpt lat="44.25742" lon="4.66046">
        <ele>42.37</ele>
        <time>2019-05-28T09:40:04.000Z</time>
      </trkpt>
      <trkpt lat="44.25717" lon="4.66067">
        <ele>40.59</ele>
        <time>2019-05-28T09:40:09.000Z</time>
      </trkpt>
      <trkpt lat="44.25689" lon="4.6608">
        <ele>40.39</ele>
        <time>2019-05-28T09:40:14.000Z</time>
      </trkpt>
      <trkpt lat="44.25658" lon="4.66088">
        <ele>40.62</ele>
        <time>2019-05-28T09:40:19.000Z</time>
      </trkpt>
      <trkpt lat="44.25626" lon="4.66097">
        <ele>40.39</ele>
        <time>2019-05-28T09:40:24.000Z</time>
      </trkpt>
      <trkpt lat="44.25593" lon="4.66095">
        <ele>39.45</ele>
        <time>2019-05-28T09:40:29.000Z</time>
      </trkpt>
      <trkpt lat="44.25564" lon="4.66078">
        <ele>41.32</ele>
        <time>2019-05-28T09:40:34.000Z</time>
      </trkpt>
      <trkpt lat="44.25547" lon="4.66086">
        <ele>43.13</ele>
        <time>2019-05-28T09:40:39.000Z</time>
      </trkpt>
      <trkpt lat="44.25551" lon="4.66117">
        <ele>42.39</ele>
        <time>2019-05-28T09:40:44.000Z</time>
      </trkpt>
      <trkpt lat="44.25558" lon="4.66151">
        <ele>41.39</ele>
        <time>2019-05-28T09:40:49.000Z</time>
      </trkpt>
      <trkpt lat="44.25564" lon="4.66189">
        <ele>41.39</ele>
        <time>2019-05-28T09:40:54.000Z</time>
      </trkpt>
      <trkpt lat="44.25569" lon="4.66214">
        <ele>43.31</ele>
        <time>2019-05-28T09:40:59.000Z</time>
      </trkpt>
      <trkpt lat="44.25572" lon="4.6623">
        <ele>43.22</ele>
        <time>2019-05-28T09:41:05.000Z</time>
      </trkpt>
      <trkpt lat="44.25577" lon="4.66264">
        <ele>42.45</ele>
        <time>2019-05-28T09:41:10.000Z</time>
      </trkpt>
      <trkpt lat="44.2558" lon="4.66305">
        <ele>40.65</ele>
        <time>2019-05-28T09:41:15.000Z</time>
      </trkpt>
      <trkpt lat="44.25583" lon="4.66345">
        <ele>40.39</ele>
        <time>2019-05-28T09:41:20.000Z</time>
      </trkpt>
      <trkpt lat="44.25587" lon="4.66381">
        <ele>42.37</ele>
        <time>2019-05-28T09:41:25.000Z</time>
      </trkpt>
      <trkpt lat="44.2559" lon="4.66415">
        <ele>41.39</ele>
        <time>2019-05-28T09:41:30.000Z</time>
      </trkpt>
      <trkpt lat="44.25592" lon="4.66447">
        <ele>40.44</ele>
        <time>2019-05-28T09:41:35.000Z</time>
      </trkpt>
      <trkpt lat="44.25589" lon="4.66464">
        <ele>39.4</ele>
        <time>2019-05-28T09:41:40.000Z</time>
      </trkpt>
      <trkpt lat="44.25573" lon="4.66471">
        <ele>39.37</ele>
        <time>2019-05-28T09:41:45.000Z</time>
      </trkpt>
      <trkpt lat="44.25554" lon="4.66479">
        <ele>39.39</ele>
        <time>2019-05-28T09:41:50.000Z</time>
      </trkpt>
      <trkpt lat="44.25532" lon="4.66489">
        <ele>38.58</ele>
        <time>2019-05-28T09:41:55.000Z</time>
      </trkpt>
      <trkpt lat="44.25509" lon="4.665">
        <ele>39.2</ele>
        <time>2019-05-28T09:42:00.000Z</time>
      </trkpt>
      <trkpt lat="44.25484" lon="4.66512">
        <ele>38.59</ele>
        <time>2019-05-28T09:42:05.000Z</time>
      </trkpt>
      <trkpt lat="44.25457" lon="4.66525">
        <ele>38.14</ele>
        <time>2019-05-28T09:42:10.000Z</time>
      </trkpt>
      <trkpt lat="44.25429" lon="4.6654">
        <ele>39.19</ele>
        <time>2019-05-28T09:42:15.000Z</time>
      </trkpt>
      <trkpt lat="44.25399" lon="4.66553">
        <ele>40.14</ele>
        <time>2019-05-28T09:42:20.000Z</time>
      </trkpt>
      <trkpt lat="44.25369" lon="4.66568">
        <ele>39.4</ele>
        <time>2019-05-28T09:42:25.000Z</time>
      </trkpt>
      <trkpt lat="44.25338" lon="4.66584">
        <ele>39.39</ele>
        <time>2019-05-28T09:42:30.000Z</time>
      </trkpt>
      <trkpt lat="44.25307" lon="4.666">
        <ele>39.38</ele>
        <time>2019-05-28T09:42:35.000Z</time>
      </trkpt>
      <trkpt lat="44.25274" lon="4.66617">
        <ele>39.36</ele>
        <time>2019-05-28T09:42:40.000Z</time>
      </trkpt>
      <trkpt lat="44.25242" lon="4.66633">
        <ele>39.57</ele>
        <time>2019-05-28T09:42:45.000Z</time>
      </trkpt>
      <trkpt lat="44.25212" lon="4.66657">
        <ele>40.63</ele>
        <time>2019-05-28T09:42:50.000Z</time>
      </trkpt>
      <trkpt lat="44.25196" lon="4.66697">
        <ele>42.33</ele>
        <time>2019-05-28T09:42:55.000Z</time>
      </trkpt>
      <trkpt lat="44.25182" lon="4.6674">
        <ele>42.39</ele>
        <time>2019-05-28T09:43:00.000Z</time>
      </trkpt>
      <trkpt lat="44.25168" lon="4.66783">
        <ele>42.39</ele>
        <time>2019-05-28T09:43:05.000Z</time>
      </trkpt>
      <trkpt lat="44.25154" lon="4.66826">
        <ele>43.33</ele>
        <time>2019-05-28T09:43:10.000Z</time>
      </trkpt>
      <trkpt lat="44.2514" lon="4.6687">
        <ele>43.4</ele>
        <time>2019-05-28T09:43:15.000Z</time>
      </trkpt>
      <trkpt lat="44.25128" lon="4.66914">
        <ele>43.4</ele>
        <time>2019-05-28T09:43:20.000Z</time>
      </trkpt>
      <trkpt lat="44.25115" lon="4.66957">
        <ele>43.4</ele>
        <time>2019-05-28T09:43:25.000Z</time>
      </trkpt>
      <trkpt lat="44.25101" lon="4.67">
        <ele>43.44</ele>
        <time>2019-05-28T09:43:30.000Z</time>
      </trkpt>
      <trkpt lat="44.25086" lon="4.67043">
        <ele>43.4</ele>
        <time>2019-05-28T09:43:35.000Z</time>
      </trkpt>
      <trkpt lat="44.25068" lon="4.67082">
        <ele>43.4</ele>
        <time>2019-05-28T09:43:40.000Z</time>
      </trkpt>
      <trkpt lat="44.25039" lon="4.67111">
        <ele>43.2</ele>
        <time>2019-05-28T09:43:45.000Z</time>
      </trkpt>
      <trkpt lat="44.25025" lon="4.67152">
        <ele>41.46</ele>
        <time>2019-05-28T09:43:50.000Z</time>
      </trkpt>
      <trkpt lat="44.25012" lon="4.67196">
        <ele>40.21</ele>
        <time>2019-05-28T09:43:55.000Z</time>
      </trkpt>
      <trkpt lat="44.24998" lon="4.67238">
        <ele>42.13</ele>
        <time>2019-05-28T09:44:00.000Z</time>
      </trkpt>
      <trkpt lat="44.24988" lon="4.6728">
        <ele>41.29</ele>
        <time>2019-05-28T09:44:05.000Z</time>
      </trkpt>
      <trkpt lat="44.24975" lon="4.67318">
        <ele>41.4</ele>
        <time>2019-05-28T09:44:10.000Z</time>
      </trkpt>
      <trkpt lat="44.24956" lon="4.6735">
        <ele>41.21</ele>
        <time>2019-05-28T09:44:15.000Z</time>
      </trkpt>
      <trkpt lat="44.24935" lon="4.67381">
        <ele>41.63</ele>
        <time>2019-05-28T09:44:20.000Z</time>
      </trkpt>
      <trkpt lat="44.24909" lon="4.67405">
        <ele>39.71</ele>
        <time>2019-05-28T09:44:25.000Z</time>
      </trkpt>
      <trkpt lat="44.24881" lon="4.67425">
        <ele>39.4</ele>
        <time>2019-05-28T09:44:30.000Z</time>
      </trkpt>
      <trkpt lat="44.2485" lon="4.6744">
        <ele>39.46</ele>
        <time>2019-05-28T09:44:35.000Z</time>
      </trkpt>
      <trkpt lat="44.2482" lon="4.67456">
        <ele>39.21</ele>
        <time>2019-05-28T09:44:40.000Z</time>
      </trkpt>
      <trkpt lat="44.24791" lon="4.67475">
        <ele>39.4</ele>
        <time>2019-05-28T09:44:45.000Z</time>
      </trkpt>
      <trkpt lat="44.24766" lon="4.67498">
        <ele>39.45</ele>
        <time>2019-05-28T09:44:50.000Z</time>
      </trkpt>
      <trkpt lat="44.24739" lon="4.67521">
        <ele>38.66</ele>
        <time>2019-05-28T09:44:55.000Z</time>
      </trkpt>
      <trkpt lat="44.24712" lon="4.67544">
        <ele>38.4</ele>
        <time>2019-05-28T09:45:00.000Z</time>
      </trkpt>
      <trkpt lat="44.2468" lon="4.6755">
        <ele>38.4</ele>
        <time>2019-05-28T09:45:05.000Z</time>
      </trkpt>
      <trkpt lat="44.24652" lon="4.67571">
        <ele>37.84</ele>
        <time>2019-05-28T09:45:10.000Z</time>
      </trkpt>
      <trkpt lat="44.2465" lon="4.67616">
        <ele>39.15</ele>
        <time>2019-05-28T09:45:15.000Z</time>
      </trkpt>
      <trkpt lat="44.24651" lon="4.67654">
        <ele>39.6</ele>
        <time>2019-05-28T09:45:20.000Z</time>
      </trkpt>
      <trkpt lat="44.24653" lon="4.67691">
        <ele>39.46</ele>
        <time>2019-05-28T09:45:25.000Z</time>
      </trkpt>
      <trkpt lat="44.24647" lon="4.67729">
        <ele>40.35</ele>
        <time>2019-05-28T09:45:30.000Z</time>
      </trkpt>
      <trkpt lat="44.24639" lon="4.67767">
        <ele>41.15</ele>
        <time>2019-05-28T09:45:35.000Z</time>
      </trkpt>
      <trkpt lat="44.24629" lon="4.67808">
        <ele>41.39</ele>
        <time>2019-05-28T09:45:40.000Z</time>
      </trkpt>
      <trkpt lat="44.24617" lon="4.67848">
        <ele>42.15</ele>
        <time>2019-05-28T09:45:45.000Z</time>
      </trkpt>
      <trkpt lat="44.24605" lon="4.67886">
        <ele>42.4</ele>
        <time>2019-05-28T09:45:50.000Z</time>
      </trkpt>
      <trkpt lat="44.24594" lon="4.6793">
        <ele>41.61</ele>
        <time>2019-05-28T09:45:55.000Z</time>
      </trkpt>
      <trkpt lat="44.24589" lon="4.6797">
        <ele>40.61</ele>
        <time>2019-05-28T09:46:00.000Z</time>
      </trkpt>
      <trkpt lat="44.24591" lon="4.68012">
        <ele>40.46</ele>
        <time>2019-05-28T09:46:05.000Z</time>
      </trkpt>
      <trkpt lat="44.24597" lon="4.68049">
        <ele>41.2</ele>
        <time>2019-05-28T09:46:10.000Z</time>
      </trkpt>
      <trkpt lat="44.24605" lon="4.68083">
        <ele>40.42</ele>
        <time>2019-05-28T09:46:15.000Z</time>
      </trkpt>
      <trkpt lat="44.24615" lon="4.68116">
        <ele>40.41</ele>
        <time>2019-05-28T09:46:20.000Z</time>
      </trkpt>
      <trkpt lat="44.2462" lon="4.68148">
        <ele>39.47</ele>
        <time>2019-05-28T09:46:25.000Z</time>
      </trkpt>
      <trkpt lat="44.24616" lon="4.6818">
        <ele>41.15</ele>
        <time>2019-05-28T09:46:30.000Z</time>
      </trkpt>
      <trkpt lat="44.24605" lon="4.68214">
        <ele>40.41</ele>
        <time>2019-05-28T09:46:35.000Z</time>
      </trkpt>
      <trkpt lat="44.24602" lon="4.6825">
        <ele>41.21</ele>
        <time>2019-05-28T09:46:40.000Z</time>
      </trkpt>
      <trkpt lat="44.24607" lon="4.68286">
        <ele>40.41</ele>
        <time>2019-05-28T09:46:45.000Z</time>
      </trkpt>
      <trkpt lat="44.24614" lon="4.6832">
        <ele>40.65</ele>
        <time>2019-05-28T09:46:50.000Z</time>
      </trkpt>
      <trkpt lat="44.24622" lon="4.68353">
        <ele>41.41</ele>
        <time>2019-05-28T09:46:55.000Z</time>
      </trkpt>
      <trkpt lat="44.24632" lon="4.68382">
        <ele>41.16</ele>
        <time>2019-05-28T09:47:00.000Z</time>
      </trkpt>
      <trkpt lat="44.24641" lon="4.68411">
        <ele>39.47</ele>
        <time>2019-05-28T09:47:05.000Z</time>
      </trkpt>
      <trkpt lat="44.24649" lon="4.68439">
        <ele>39.42</ele>
        <time>2019-05-28T09:47:10.000Z</time>
      </trkpt>
      <trkpt lat="44.24657" lon="4.68465">
        <ele>40.21</ele>
        <time>2019-05-28T09:47:15.000Z</time>
      </trkpt>
      <trkpt lat="44.24665" lon="4.68493">
        <ele>40.4</ele>
        <time>2019-05-28T09:47:20.000Z</time>
      </trkpt>
      <trkpt lat="44.24672" lon="4.68521">
        <ele>40.59</ele>
        <time>2019-05-28T09:47:25.000Z</time>
      </trkpt>
      <trkpt lat="44.24679" lon="4.68549">
        <ele>41.14</ele>
        <time>2019-05-28T09:47:30.000Z</time>
      </trkpt>
      <trkpt lat="44.24686" lon="4.68578">
        <ele>41.16</ele>
        <time>2019-05-28T09:47:35.000Z</time>
      </trkpt>
      <trkpt lat="44.24693" lon="4.68607">
        <ele>40.47</ele>
        <time>2019-05-28T09:47:40.000Z</time>
      </trkpt>
      <trkpt lat="44.24701" lon="4.68635">
        <ele>42.15</ele>
        <time>2019-05-28T09:47:45.000Z</time>
      </trkpt>
      <trkpt lat="44.24704" lon="4.68667">
        <ele>42.7</ele>
        <time>2019-05-28T09:47:50.000Z</time>
      </trkpt>
      <trkpt lat="44.24704" lon="4.68698">
        <ele>42.41</ele>
        <time>2019-05-28T09:47:55.000Z</time>
      </trkpt>
      <trkpt lat="44.24699" lon="4.68728">
        <ele>43.34</ele>
        <time>2019-05-28T09:48:00.000Z</time>
      </trkpt>
      <trkpt lat="44.24693" lon="4.68763">
        <ele>41.41</ele>
        <time>2019-05-28T09:48:05.000Z</time>
      </trkpt>
      <trkpt lat="44.24687" lon="4.68798">
        <ele>41.39</ele>
        <time>2019-05-28T09:48:10.000Z</time>
      </trkpt>
      <trkpt lat="44.24682" lon="4.68835">
        <ele>40.36</ele>
        <time>2019-05-28T09:48:15.000Z</time>
      </trkpt>
      <trkpt lat="44.24676" lon="4.68873">
        <ele>41.39</ele>
        <time>2019-05-28T09:48:20.000Z</time>
      </trkpt>
      <trkpt lat="44.24673" lon="4.68911">
        <ele>40.66</ele>
        <time>2019-05-28T09:48:25.000Z</time>
      </trkpt>
      <trkpt lat="44.24673" lon="4.68948">
        <ele>41.41</ele>
        <time>2019-05-28T09:48:30.000Z</time>
      </trkpt>
      <trkpt lat="44.24675" lon="4.68986">
        <ele>41.22</ele>
        <time>2019-05-28T09:48:35.000Z</time>
      </trkpt>
      <trkpt lat="44.24675" lon="4.69023">
        <ele>41.41</ele>
        <time>2019-05-28T09:48:40.000Z</time>
      </trkpt>
      <trkpt lat="44.24674" lon="4.6906">
        <ele>41.41</ele>
        <time>2019-05-28T09:48:45.000Z</time>
      </trkpt>
      <trkpt lat="44.24672" lon="4.69099">
        <ele>40.42</ele>
        <time>2019-05-28T09:48:50.000Z</time>
      </trkpt>
      <trkpt lat="44.24669" lon="4.69129">
        <ele>41.39</ele>
        <time>2019-05-28T09:48:55.000Z</time>
      </trkpt>
      <trkpt lat="44.24666" lon="4.6916">
        <ele>39.49</ele>
        <time>2019-05-28T09:49:00.000Z</time>
      </trkpt>
      <trkpt lat="44.24662" lon="4.69197">
        <ele>39.41</ele>
        <time>2019-05-28T09:49:05.000Z</time>
      </trkpt>
      <trkpt lat="44.24659" lon="4.69234">
        <ele>41.15</ele>
        <time>2019-05-28T09:49:10.000Z</time>
      </trkpt>
      <trkpt lat="44.24655" lon="4.69273">
        <ele>41.41</ele>
        <time>2019-05-28T09:49:15.000Z</time>
      </trkpt>
      <trkpt lat="44.24651" lon="4.6931">
        <ele>41.41</ele>
        <time>2019-05-28T09:49:20.000Z</time>
      </trkpt>
      <trkpt lat="44.24646" lon="4.69345">
        <ele>42.35</ele>
        <time>2019-05-28T09:49:25.000Z</time>
      </trkpt>
      <trkpt lat="44.24642" lon="4.69379">
        <ele>43.39</ele>
        <time>2019-05-28T09:49:30.000Z</time>
      </trkpt>
      <trkpt lat="44.24639" lon="4.69419">
        <ele>43.22</ele>
        <time>2019-05-28T09:49:35.000Z</time>
      </trkpt>
      <trkpt lat="44.24638" lon="4.69457">
        <ele>43.35</ele>
        <time>2019-05-28T09:49:40.000Z</time>
      </trkpt>
      <trkpt lat="44.24636" lon="4.69493">
        <ele>43.64</ele>
        <time>2019-05-28T09:49:45.000Z</time>
      </trkpt>
      <trkpt lat="44.24634" lon="4.69528">
        <ele>42.64</ele>
        <time>2019-05-28T09:49:50.000Z</time>
      </trkpt>
      <trkpt lat="44.24632" lon="4.69563">
        <ele>42.41</ele>
        <time>2019-05-28T09:49:55.000Z</time>
      </trkpt>
      <trkpt lat="44.24629" lon="4.69597">
        <ele>42.41</ele>
        <time>2019-05-28T09:50:00.000Z</time>
      </trkpt>
      <trkpt lat="44.24626" lon="4.69631">
        <ele>41.47</ele>
        <time>2019-05-28T09:50:05.000Z</time>
      </trkpt>
      <trkpt lat="44.24623" lon="4.69665">
        <ele>42.36</ele>
        <time>2019-05-28T09:50:10.000Z</time>
      </trkpt>
      <trkpt lat="44.2462" lon="4.697">
        <ele>42.41</ele>
        <time>2019-05-28T09:50:15.000Z</time>
      </trkpt>
      <trkpt lat="44.24618" lon="4.69734">
        <ele>41.66</ele>
        <time>2019-05-28T09:50:20.000Z</time>
      </trkpt>
      <trkpt lat="44.24615" lon="4.69768">
        <ele>41.18</ele>
        <time>2019-05-28T09:50:25.000Z</time>
      </trkpt>
      <trkpt lat="44.24612" lon="4.69801">
        <ele>42.41</ele>
        <time>2019-05-28T09:50:30.000Z</time>
      </trkpt>
      <trkpt lat="44.24609" lon="4.69831">
        <ele>42.47</ele>
        <time>2019-05-28T09:50:35.000Z</time>
      </trkpt>
      <trkpt lat="44.24606" lon="4.69855">
        <ele>42.41</ele>
        <time>2019-05-28T09:50:40.000Z</time>
      </trkpt>
      <trkpt lat="44.24602" lon="4.69868">
        <ele>42.47</ele>
        <time>2019-05-28T09:50:45.000Z</time>
      </trkpt>
      <trkpt lat="44.24597" lon="4.69887">
        <ele>43.41</ele>
        <time>2019-05-28T09:50:50.000Z</time>
      </trkpt>
      <trkpt lat="44.24606" lon="4.6991">
        <ele>42.43</ele>
        <time>2019-05-28T09:50:55.000Z</time>
      </trkpt>
      <trkpt lat="44.24604" lon="4.69934">
        <ele>39.68</ele>
        <time>2019-05-28T09:51:00.000Z</time>
      </trkpt>
      <trkpt lat="44.24585" lon="4.69952">
        <ele>39.41</ele>
        <time>2019-05-28T09:51:05.000Z</time>
      </trkpt>
      <trkpt lat="44.24571" lon="4.69981">
        <ele>39.42</ele>
        <time>2019-05-28T09:51:10.000Z</time>
      </trkpt>
      <trkpt lat="44.24561" lon="4.70009">
        <ele>39.16</ele>
        <time>2019-05-28T09:51:15.000Z</time>
      </trkpt>
      <trkpt lat="44.24552" lon="4.7003">
        <ele>41.34</ele>
        <time>2019-05-28T09:51:20.000Z</time>
      </trkpt>
      <trkpt lat="44.24545" lon="4.70046">
        <ele>41.4</ele>
        <time>2019-05-28T09:51:25.000Z</time>
      </trkpt>
      <trkpt lat="44.24535" lon="4.70057">
        <ele>44.11</ele>
        <time>2019-05-28T09:51:30.000Z</time>
      </trkpt>
      <trkpt lat="44.24535" lon="4.70072">
        <ele>45.64</ele>
        <time>2019-05-28T09:51:35.000Z</time>
      </trkpt>
      <trkpt lat="44.24547" lon="4.70078">
        <ele>46.41</ele>
        <time>2019-05-28T09:51:40.000Z</time>
      </trkpt>
      <trkpt lat="44.24543" lon="4.70096">
        <ele>46.41</ele>
        <time>2019-05-28T09:51:45.000Z</time>
      </trkpt>
      <trkpt lat="44.24534" lon="4.70118">
        <ele>44.43</ele>
        <time>2019-05-28T09:51:50.000Z</time>
      </trkpt>
      <trkpt lat="44.24524" lon="4.70141">
        <ele>46.4</ele>
        <time>2019-05-28T09:51:55.000Z</time>
      </trkpt>
      <trkpt lat="44.24512" lon="4.70164">
        <ele>46.65</ele>
        <time>2019-05-28T09:52:00.000Z</time>
      </trkpt>
      <trkpt lat="44.24502" lon="4.70194">
        <ele>47.47</ele>
        <time>2019-05-28T09:52:05.000Z</time>
      </trkpt>
      <trkpt lat="44.24492" lon="4.70226">
        <ele>44.43</ele>
        <time>2019-05-28T09:52:10.000Z</time>
      </trkpt>
      <trkpt lat="44.24481" lon="4.70256">
        <ele>44.6</ele>
        <time>2019-05-28T09:52:15.000Z</time>
      </trkpt>
      <trkpt lat="44.2447" lon="4.70285">
        <ele>45.22</ele>
        <time>2019-05-28T09:52:20.000Z</time>
      </trkpt>
      <trkpt lat="44.24457" lon="4.7032">
        <ele>45.16</ele>
        <time>2019-05-28T09:52:25.000Z</time>
      </trkpt>
      <trkpt lat="44.24444" lon="4.70334">
        <ele>43.42</ele>
        <time>2019-05-28T09:52:30.000Z</time>
      </trkpt>
      <trkpt lat="44.24441" lon="4.70315">
        <ele>43.61</ele>
        <time>2019-05-28T09:52:35.000Z</time>
      </trkpt>
      <trkpt lat="44.24443" lon="4.70299">
        <ele>44.41</ele>
        <time>2019-05-28T09:52:40.000Z</time>
      </trkpt>
      <trkpt lat="44.24443" lon="4.70313">
        <ele>49.48</ele>
        <time>2019-05-28T09:58:43.000Z</time>
      </trkpt>
      <trkpt lat="44.24443" lon="4.70332">
        <ele>48.4</ele>
        <time>2019-05-28T09:58:48.000Z</time>
      </trkpt>
      <trkpt lat="44.24448" lon="4.7035">
        <ele>47.48</ele>
        <time>2019-05-28T09:58:53.000Z</time>
      </trkpt>
      <trkpt lat="44.24441" lon="4.70374">
        <ele>46.41</ele>
        <time>2019-05-28T09:58:58.000Z</time>
      </trkpt>
      <trkpt lat="44.24429" lon="4.70401">
        <ele>46.48</ele>
        <time>2019-05-28T09:59:03.000Z</time>
      </trkpt>
      <trkpt lat="44.24417" lon="4.70436">
        <ele>45.48</ele>
        <time>2019-05-28T09:59:08.000Z</time>
      </trkpt>
      <trkpt lat="44.24403" lon="4.70473">
        <ele>44.48</ele>
        <time>2019-05-28T09:59:13.000Z</time>
      </trkpt>
      <trkpt lat="44.24383" lon="4.70505">
        <ele>42.67</ele>
        <time>2019-05-28T09:59:18.000Z</time>
      </trkpt>
      <trkpt lat="44.24356" lon="4.70527">
        <ele>41.43</ele>
        <time>2019-05-28T09:59:23.000Z</time>
      </trkpt>
      <trkpt lat="44.24326" lon="4.70535">
        <ele>40.43</ele>
        <time>2019-05-28T09:59:28.000Z</time>
      </trkpt>
      <trkpt lat="44.24294" lon="4.70532">
        <ele>41.41</ele>
        <time>2019-05-28T09:59:33.000Z</time>
      </trkpt>
      <trkpt lat="44.24262" lon="4.70529">
        <ele>41.42</ele>
        <time>2019-05-28T09:59:38.000Z</time>
      </trkpt>
      <trkpt lat="44.24229" lon="4.70526">
        <ele>40.65</ele>
        <time>2019-05-28T09:59:43.000Z</time>
      </trkpt>
      <trkpt lat="44.24201" lon="4.70521">
        <ele>43.1</ele>
        <time>2019-05-28T09:59:48.000Z</time>
      </trkpt>
      <trkpt lat="44.24181" lon="4.70522">
        <ele>43.42</ele>
        <time>2019-05-28T09:59:53.000Z</time>
      </trkpt>
      <trkpt lat="44.24171" lon="4.70518">
        <ele>41.18</ele>
        <time>2019-05-28T10:00:09.000Z</time>
      </trkpt>
      <trkpt lat="44.24157" lon="4.70523">
        <ele>43.4</ele>
        <time>2019-05-28T10:00:14.000Z</time>
      </trkpt>
      <trkpt lat="44.24142" lon="4.70526">
        <ele>44.41</ele>
        <time>2019-05-28T10:00:19.000Z</time>
      </trkpt>
      <trkpt lat="44.24127" lon="4.70529">
        <ele>45.41</ele>
        <time>2019-05-28T10:00:24.000Z</time>
      </trkpt>
      <trkpt lat="44.24112" lon="4.70532">
        <ele>47.35</ele>
        <time>2019-05-28T10:00:29.000Z</time>
      </trkpt>
      <trkpt lat="44.24095" lon="4.70533">
        <ele>47.17</ele>
        <time>2019-05-28T10:00:34.000Z</time>
      </trkpt>
      <trkpt lat="44.24073" lon="4.70537">
        <ele>46.42</ele>
        <time>2019-05-28T10:00:39.000Z</time>
      </trkpt>
      <trkpt lat="44.24048" lon="4.7054">
        <ele>46.42</ele>
        <time>2019-05-28T10:00:44.000Z</time>
      </trkpt>
      <trkpt lat="44.24021" lon="4.70542">
        <ele>46.42</ele>
        <time>2019-05-28T10:00:49.000Z</time>
      </trkpt>
      <trkpt lat="44.23994" lon="4.70543">
        <ele>44.48</ele>
        <time>2019-05-28T10:00:54.000Z</time>
      </trkpt>
      <trkpt lat="44.23967" lon="4.70546">
        <ele>44.37</ele>
        <time>2019-05-28T10:00:59.000Z</time>
      </trkpt>
      <trkpt lat="44.23939" lon="4.7055">
        <ele>45.17</ele>
        <time>2019-05-28T10:01:04.000Z</time>
      </trkpt>
      <trkpt lat="44.2391" lon="4.70553">
        <ele>44.48</ele>
        <time>2019-05-28T10:01:09.000Z</time>
      </trkpt>
      <trkpt lat="44.23881" lon="4.70556">
        <ele>44.43</ele>
        <time>2019-05-28T10:01:14.000Z</time>
      </trkpt>
      <trkpt lat="44.23851" lon="4.70558">
        <ele>44.18</ele>
        <time>2019-05-28T10:01:19.000Z</time>
      </trkpt>
      <trkpt lat="44.23824" lon="4.7056">
        <ele>43.61</ele>
        <time>2019-05-28T10:01:24.000Z</time>
      </trkpt>
      <trkpt lat="44.23797" lon="4.70564">
        <ele>42.47</ele>
        <time>2019-05-28T10:01:29.000Z</time>
      </trkpt>
      <trkpt lat="44.2378" lon="4.7057">
        <ele>42.47</ele>
        <time>2019-05-28T10:01:34.000Z</time>
      </trkpt>
      <trkpt lat="44.23784" lon="4.70586">
        <ele>44.69</ele>
        <time>2019-05-28T10:02:23.000Z</time>
      </trkpt>
      <trkpt lat="44.23794" lon="4.70611">
        <ele>43.68</ele>
        <time>2019-05-28T10:02:28.000Z</time>
      </trkpt>
      <trkpt lat="44.23799" lon="4.70643">
        <ele>42.48</ele>
        <time>2019-05-28T10:02:33.000Z</time>
      </trkpt>
      <trkpt lat="44.23781" lon="4.70654">
        <ele>41.42</ele>
        <time>2019-05-28T10:02:38.000Z</time>
      </trkpt>
      <trkpt lat="44.23757" lon="4.70651">
        <ele>41.66</ele>
        <time>2019-05-28T10:02:43.000Z</time>
      </trkpt>
      <trkpt lat="44.2373" lon="4.70652">
        <ele>42.37</ele>
        <time>2019-05-28T10:02:48.000Z</time>
      </trkpt>
      <trkpt lat="44.23701" lon="4.70653">
        <ele>41.67</ele>
        <time>2019-05-28T10:02:53.000Z</time>
      </trkpt>
      <trkpt lat="44.23672" lon="4.70652">
        <ele>43.17</ele>
        <time>2019-05-28T10:02:58.000Z</time>
      </trkpt>
      <trkpt lat="44.23642" lon="4.70655">
        <ele>44.36</ele>
        <time>2019-05-28T10:03:03.000Z</time>
      </trkpt>
      <trkpt lat="44.2361" lon="4.70658">
        <ele>44.42</ele>
        <time>2019-05-28T10:03:08.000Z</time>
      </trkpt>
      <trkpt lat="44.2358" lon="4.70662">
        <ele>44.44</ele>
        <time>2019-05-28T10:03:13.000Z</time>
      </trkpt>
      <trkpt lat="44.2355" lon="4.70667">
        <ele>46.18</ele>
        <time>2019-05-28T10:03:18.000Z</time>
      </trkpt>
      <trkpt lat="44.23519" lon="4.70672">
        <ele>43.45</ele>
        <time>2019-05-28T10:03:23.000Z</time>
      </trkpt>
      <trkpt lat="44.23487" lon="4.70682">
        <ele>44.66</ele>
        <time>2019-05-28T10:03:28.000Z</time>
      </trkpt>
      <trkpt lat="44.23456" lon="4.70689">
        <ele>43.43</ele>
        <time>2019-05-28T10:03:33.000Z</time>
      </trkpt>
      <trkpt lat="44.23426" lon="4.70697">
        <ele>44.61</ele>
        <time>2019-05-28T10:03:38.000Z</time>
      </trkpt>
      <trkpt lat="44.23393" lon="4.70705">
        <ele>45.12</ele>
        <time>2019-05-28T10:03:43.000Z</time>
      </trkpt>
      <trkpt lat="44.23364" lon="4.70717">
        <ele>44.69</ele>
        <time>2019-05-28T10:03:48.000Z</time>
      </trkpt>
      <trkpt lat="44.23333" lon="4.70729">
        <ele>44.67</ele>
        <time>2019-05-28T10:03:53.000Z</time>
      </trkpt>
      <trkpt lat="44.23302" lon="4.70745">
        <ele>43.44</ele>
        <time>2019-05-28T10:03:58.000Z</time>
      </trkpt>
      <trkpt lat="44.23273" lon="4.70759">
        <ele>43.38</ele>
        <time>2019-05-28T10:04:03.000Z</time>
      </trkpt>
      <trkpt lat="44.23245" lon="4.70773">
        <ele>44.37</ele>
        <time>2019-05-28T10:04:08.000Z</time>
      </trkpt>
      <trkpt lat="44.23217" lon="4.70787">
        <ele>43.43</ele>
        <time>2019-05-28T10:04:13.000Z</time>
      </trkpt>
      <trkpt lat="44.23189" lon="4.70801">
        <ele>41.45</ele>
        <time>2019-05-28T10:04:18.000Z</time>
      </trkpt>
      <trkpt lat="44.23159" lon="4.70811">
        <ele>40.68</ele>
        <time>2019-05-28T10:04:23.000Z</time>
      </trkpt>
      <trkpt lat="44.23133" lon="4.7079">
        <ele>41.18</ele>
        <time>2019-05-28T10:04:28.000Z</time>
      </trkpt>
      <trkpt lat="44.23112" lon="4.70798">
        <ele>42.41</ele>
        <time>2019-05-28T10:04:33.000Z</time>
      </trkpt>
      <trkpt lat="44.23098" lon="4.70818">
        <ele>42.66</ele>
        <time>2019-05-28T10:04:38.000Z</time>
      </trkpt>
      <trkpt lat="44.23076" lon="4.70826">
        <ele>40.45</ele>
        <time>2019-05-28T10:04:43.000Z</time>
      </trkpt>
      <trkpt lat="44.23054" lon="4.70841">
        <ele>40.49</ele>
        <time>2019-05-28T10:04:48.000Z</time>
      </trkpt>
      <trkpt lat="44.23053" lon="4.70866">
        <ele>40.43</ele>
        <time>2019-05-28T10:04:53.000Z</time>
      </trkpt>
      <trkpt lat="44.23066" lon="4.70879">
        <ele>39.49</ele>
        <time>2019-05-28T10:04:58.000Z</time>
      </trkpt>
      <trkpt lat="44.23078" lon="4.70897">
        <ele>39.43</ele>
        <time>2019-05-28T10:05:03.000Z</time>
      </trkpt>
      <trkpt lat="44.23091" lon="4.70928">
        <ele>37.74</ele>
        <time>2019-05-28T10:05:08.000Z</time>
      </trkpt>
      <trkpt lat="44.23084" lon="4.70947">
        <ele>39.43</ele>
        <time>2019-05-28T10:05:13.000Z</time>
      </trkpt>
      <trkpt lat="44.23071" lon="4.7096">
        <ele>39.49</ele>
        <time>2019-05-28T10:05:18.000Z</time>
      </trkpt>
      <trkpt lat="44.23061" lon="4.70982">
        <ele>39.43</ele>
        <time>2019-05-28T10:05:23.000Z</time>
      </trkpt>
      <trkpt lat="44.23063" lon="4.71013">
        <ele>39.37</ele>
        <time>2019-05-28T10:05:28.000Z</time>
      </trkpt>
      <trkpt lat="44.23063" lon="4.71045">
        <ele>41.18</ele>
        <time>2019-05-28T10:05:33.000Z</time>
      </trkpt>
      <trkpt lat="44.23064" lon="4.71079">
        <ele>41.43</ele>
        <time>2019-05-28T10:05:38.000Z</time>
      </trkpt>
      <trkpt lat="44.23064" lon="4.71116">
        <ele>40.39</ele>
        <time>2019-05-28T10:05:43.000Z</time>
      </trkpt>
      <trkpt lat="44.2307" lon="4.71148">
        <ele>41.43</ele>
        <time>2019-05-28T10:05:48.000Z</time>
      </trkpt>
      <trkpt lat="44.23085" lon="4.71174">
        <ele>39.49</ele>
        <time>2019-05-28T10:05:53.000Z</time>
      </trkpt>
      <trkpt lat="44.23099" lon="4.712">
        <ele>40.18</ele>
        <time>2019-05-28T10:05:58.000Z</time>
      </trkpt>
      <trkpt lat="44.23112" lon="4.71221">
        <ele>41.42</ele>
        <time>2019-05-28T10:06:03.000Z</time>
      </trkpt>
      <trkpt lat="44.23106" lon="4.71205">
        <ele>41.24</ele>
        <time>2019-05-28T10:06:20.000Z</time>
      </trkpt>
      <trkpt lat="44.2309" lon="4.7118">
        <ele>42.43</ele>
        <time>2019-05-28T10:06:25.000Z</time>
      </trkpt>
      <trkpt lat="44.23078" lon="4.71155">
        <ele>42.24</ele>
        <time>2019-05-28T10:06:30.000Z</time>
      </trkpt>
      <trkpt lat="44.23068" lon="4.71127">
        <ele>42.37</ele>
        <time>2019-05-28T10:06:35.000Z</time>
      </trkpt>
      <trkpt lat="44.23067" lon="4.71092">
        <ele>42.68</ele>
        <time>2019-05-28T10:06:40.000Z</time>
      </trkpt>
      <trkpt lat="44.23067" lon="4.71058">
        <ele>42.2</ele>
        <time>2019-05-28T10:06:45.000Z</time>
      </trkpt>
      <trkpt lat="44.23067" lon="4.71023">
        <ele>41.68</ele>
        <time>2019-05-28T10:06:50.000Z</time>
      </trkpt>
      <trkpt lat="44.23066" lon="4.70987">
        <ele>41.24</ele>
        <time>2019-05-28T10:06:55.000Z</time>
      </trkpt>
      <trkpt lat="44.23074" lon="4.70949">
        <ele>41.37</ele>
        <time>2019-05-28T10:07:00.000Z</time>
      </trkpt>
      <trkpt lat="44.23101" lon="4.70939">
        <ele>42.38</ele>
        <time>2019-05-28T10:07:05.000Z</time>
      </trkpt>
      <trkpt lat="44.23127" lon="4.70934">
        <ele>40.45</ele>
        <time>2019-05-28T10:07:10.000Z</time>
      </trkpt>
      <trkpt lat="44.2315" lon="4.70953">
        <ele>41.48</ele>
        <time>2019-05-28T10:07:15.000Z</time>
      </trkpt>
      <trkpt lat="44.23174" lon="4.70971">
        <ele>39.68</ele>
        <time>2019-05-28T10:07:20.000Z</time>
      </trkpt>
      <trkpt lat="44.23199" lon="4.70991">
        <ele>40.38</ele>
        <time>2019-05-28T10:07:25.000Z</time>
      </trkpt>
      <trkpt lat="44.23221" lon="4.71011">
        <ele>41.37</ele>
        <time>2019-05-28T10:07:30.000Z</time>
      </trkpt>
      <trkpt lat="44.23244" lon="4.71022">
        <ele>41.24</ele>
        <time>2019-05-28T10:07:35.000Z</time>
      </trkpt>
      <trkpt lat="44.23258" lon="4.71037">
        <ele>41.67</ele>
        <time>2019-05-28T10:07:40.000Z</time>
      </trkpt>
      <trkpt lat="44.23274" lon="4.71052">
        <ele>40.68</ele>
        <time>2019-05-28T10:07:45.000Z</time>
      </trkpt>
      <trkpt lat="44.23293" lon="4.71073">
        <ele>40.44</ele>
        <time>2019-05-28T10:07:50.000Z</time>
      </trkpt>
      <trkpt lat="44.23313" lon="4.71094">
        <ele>40.62</ele>
        <time>2019-05-28T10:07:55.000Z</time>
      </trkpt>
      <trkpt lat="44.23331" lon="4.71116">
        <ele>42.36</ele>
        <time>2019-05-28T10:08:00.000Z</time>
      </trkpt>
      <trkpt lat="44.23348" lon="4.71135">
        <ele>42.43</ele>
        <time>2019-05-28T10:08:05.000Z</time>
      </trkpt>
      <trkpt lat="44.2336" lon="4.71158">
        <ele>41.49</ele>
        <time>2019-05-28T10:08:10.000Z</time>
      </trkpt>
      <trkpt lat="44.23364" lon="4.7117">
        <ele>43.18</ele>
        <time>2019-05-28T10:08:15.000Z</time>
      </trkpt>
      <trkpt lat="44.23371" lon="4.71184">
        <ele>42.48</ele>
        <time>2019-05-28T10:08:36.000Z</time>
      </trkpt>
      <trkpt lat="44.23385" lon="4.7119">
        <ele>42.43</ele>
        <time>2019-05-28T10:08:41.000Z</time>
      </trkpt>
      <trkpt lat="44.23376" lon="4.71187">
        <ele>41.43</ele>
        <time>2019-05-28T10:09:27.000Z</time>
      </trkpt>
      <trkpt lat="44.23364" lon="4.71196">
        <ele>39.69</ele>
        <time>2019-05-28T10:09:32.000Z</time>
      </trkpt>
      <trkpt lat="44.23369" lon="4.71227">
        <ele>41.18</ele>
        <time>2019-05-28T10:09:37.000Z</time>
      </trkpt>
      <trkpt lat="44.23383" lon="4.71245">
        <ele>41.62</ele>
        <time>2019-05-28T10:09:42.000Z</time>
      </trkpt>
      <trkpt lat="44.23395" lon="4.71256">
        <ele>42.37</ele>
        <time>2019-05-28T10:09:47.000Z</time>
      </trkpt>
      <trkpt lat="44.23404" lon="4.71263">
        <ele>43.43</ele>
        <time>2019-05-28T10:09:52.000Z</time>
      </trkpt>
      <trkpt lat="44.23412" lon="4.71272">
        <ele>45.36</ele>
        <time>2019-05-28T10:09:58.000Z</time>
      </trkpt>
      <trkpt lat="44.23419" lon="4.71284">
        <ele>46.42</ele>
        <time>2019-05-28T10:10:04.000Z</time>
      </trkpt>
      <trkpt lat="44.2342" lon="4.71296">
        <ele>46.24</ele>
        <time>2019-05-28T10:10:09.000Z</time>
      </trkpt>
      <trkpt lat="44.2343" lon="4.71302">
        <ele>48.41</ele>
        <time>2019-05-28T10:10:24.000Z</time>
      </trkpt>
      <trkpt lat="44.23443" lon="4.7129">
        <ele>49.18</ele>
        <time>2019-05-28T10:10:29.000Z</time>
      </trkpt>
      <trkpt lat="44.23462" lon="4.71281">
        <ele>47.48</ele>
        <time>2019-05-28T10:10:34.000Z</time>
      </trkpt>
      <trkpt lat="44.23483" lon="4.71281">
        <ele>49.36</ele>
        <time>2019-05-28T10:10:39.000Z</time>
      </trkpt>
      <trkpt lat="44.23504" lon="4.71284">
        <ele>48.43</ele>
        <time>2019-05-28T10:10:44.000Z</time>
      </trkpt>
      <trkpt lat="44.23522" lon="4.71291">
        <ele>48.43</ele>
        <time>2019-05-28T10:10:49.000Z</time>
      </trkpt>
      <trkpt lat="44.23545" lon="4.71304">
        <ele>46.49</ele>
        <time>2019-05-28T10:10:54.000Z</time>
      </trkpt>
      <trkpt lat="44.23567" lon="4.71318">
        <ele>45.44</ele>
        <time>2019-05-28T10:10:59.000Z</time>
      </trkpt>
      <trkpt lat="44.23588" lon="4.71331">
        <ele>45.43</ele>
        <time>2019-05-28T10:11:04.000Z</time>
      </trkpt>
      <trkpt lat="44.23608" lon="4.71344">
        <ele>46.18</ele>
        <time>2019-05-28T10:11:09.000Z</time>
      </trkpt>
      <trkpt lat="44.2363" lon="4.71355">
        <ele>46.42</ele>
        <time>2019-05-28T10:11:14.000Z</time>
      </trkpt>
      <trkpt lat="44.23647" lon="4.71358">
        <ele>45.72</ele>
        <time>2019-05-28T10:11:19.000Z</time>
      </trkpt>
      <trkpt lat="44.23655" lon="4.71374">
        <ele>44.49</ele>
        <time>2019-05-28T10:11:24.000Z</time>
      </trkpt>
      <trkpt lat="44.23672" lon="4.7138">
        <ele>45.41</ele>
        <time>2019-05-28T10:11:29.000Z</time>
      </trkpt>
      <trkpt lat="44.23692" lon="4.7139">
        <ele>44.43</ele>
        <time>2019-05-28T10:11:34.000Z</time>
      </trkpt>
      <trkpt lat="44.23713" lon="4.71405">
        <ele>43.43</ele>
        <time>2019-05-28T10:11:39.000Z</time>
      </trkpt>
      <trkpt lat="44.23726" lon="4.71419">
        <ele>45.24</ele>
        <time>2019-05-28T10:11:44.000Z</time>
      </trkpt>
      <trkpt lat="44.23742" lon="4.71425">
        <ele>45.61</ele>
        <time>2019-05-28T10:11:49.000Z</time>
      </trkpt>
      <trkpt lat="44.2376" lon="4.71434">
        <ele>44.44</ele>
        <time>2019-05-28T10:11:54.000Z</time>
      </trkpt>
      <trkpt lat="44.23782" lon="4.71441">
        <ele>45.48</ele>
        <time>2019-05-28T10:11:59.000Z</time>
      </trkpt>
      <trkpt lat="44.23803" lon="4.71443">
        <ele>45.42</ele>
        <time>2019-05-28T10:12:04.000Z</time>
      </trkpt>
      <trkpt lat="44.23822" lon="4.71441">
        <ele>46.42</ele>
        <time>2019-05-28T10:12:09.000Z</time>
      </trkpt>
      <trkpt lat="44.23842" lon="4.71439">
        <ele>50.09</ele>
        <time>2019-05-28T10:12:14.000Z</time>
      </trkpt>
      <trkpt lat="44.23856" lon="4.71436">
        <ele>51.41</ele>
        <time>2019-05-28T10:12:19.000Z</time>
      </trkpt>
      <trkpt lat="44.2387" lon="4.71432">
        <ele>49.74</ele>
        <time>2019-05-28T10:12:24.000Z</time>
      </trkpt>
      <trkpt lat="44.23888" lon="4.71421">
        <ele>48.91</ele>
        <time>2019-05-28T10:12:29.000Z</time>
      </trkpt>
      <trkpt lat="44.23908" lon="4.71419">
        <ele>45.64</ele>
        <time>2019-05-28T10:12:34.000Z</time>
      </trkpt>
      <trkpt lat="44.23928" lon="4.71423">
        <ele>48.09</ele>
        <time>2019-05-28T10:12:39.000Z</time>
      </trkpt>
      <trkpt lat="44.23948" lon="4.71429">
        <ele>48.35</ele>
        <time>2019-05-28T10:12:44.000Z</time>
      </trkpt>
      <trkpt lat="44.23962" lon="4.7143">
        <ele>53.21</ele>
        <time>2019-05-28T10:12:49.000Z</time>
      </trkpt>
      <trkpt lat="44.2396" lon="4.71443">
        <ele>50.42</ele>
        <time>2019-05-28T10:12:58.000Z</time>
      </trkpt>
      <trkpt lat="44.23957" lon="4.71456">
        <ele>48.68</ele>
        <time>2019-05-28T10:13:03.000Z</time>
      </trkpt>
      <trkpt lat="44.23951" lon="4.71468">
        <ele>50.17</ele>
        <time>2019-05-28T10:13:08.000Z</time>
      </trkpt>
      <trkpt lat="44.23944" lon="4.71483">
        <ele>50.42</ele>
        <time>2019-05-28T10:13:13.000Z</time>
      </trkpt>
      <trkpt lat="44.23936" lon="4.71498">
        <ele>51.42</ele>
        <time>2019-05-28T10:13:18.000Z</time>
      </trkpt>
      <trkpt lat="44.23928" lon="4.71507">
        <ele>52.42</ele>
        <time>2019-05-28T10:13:23.000Z</time>
      </trkpt>
      <trkpt lat="44.23935" lon="4.71498">
        <ele>52.43</ele>
        <time>2019-05-28T10:13:30.000Z</time>
      </trkpt>
      <trkpt lat="44.23946" lon="4.71472">
        <ele>49.49</ele>
        <time>2019-05-28T10:13:35.000Z</time>
      </trkpt>
      <trkpt lat="44.23958" lon="4.71453">
        <ele>51.17</ele>
        <time>2019-05-28T10:13:40.000Z</time>
      </trkpt>
      <trkpt lat="44.23965" lon="4.71442">
        <ele>48.49</ele>
        <time>2019-05-28T10:13:46.000Z</time>
      </trkpt>
      <trkpt lat="44.23963" lon="4.71426">
        <ele>49.36</ele>
        <time>2019-05-28T10:13:51.000Z</time>
      </trkpt>
      <trkpt lat="44.23945" lon="4.71424">
        <ele>50.34</ele>
        <time>2019-05-28T10:13:56.000Z</time>
      </trkpt>
      <trkpt lat="44.23921" lon="4.71421">
        <ele>48.73</ele>
        <time>2019-05-28T10:14:01.000Z</time>
      </trkpt>
      <trkpt lat="44.23905" lon="4.71442">
        <ele>47.13</ele>
        <time>2019-05-28T10:14:06.000Z</time>
      </trkpt>
      <trkpt lat="44.23894" lon="4.71457">
        <ele>47.17</ele>
        <time>2019-05-28T10:14:11.000Z</time>
      </trkpt>
      <trkpt lat="44.23885" lon="4.71475">
        <ele>49.22</ele>
        <time>2019-05-28T10:14:16.000Z</time>
      </trkpt>
      <trkpt lat="44.23875" lon="4.71484">
        <ele>53.1</ele>
        <time>2019-05-28T10:14:21.000Z</time>
      </trkpt>
      <trkpt lat="44.23865" lon="4.71479">
        <ele>53.47</ele>
        <time>2019-05-28T10:14:26.000Z</time>
      </trkpt>
      <trkpt lat="44.23858" lon="4.71467">
        <ele>53.47</ele>
        <time>2019-05-28T10:14:31.000Z</time>
      </trkpt>
      <trkpt lat="44.23855" lon="4.71454">
        <ele>54.36</ele>
        <time>2019-05-28T10:14:36.000Z</time>
      </trkpt>
      <trkpt lat="44.23845" lon="4.71449">
        <ele>53.21</ele>
        <time>2019-05-28T10:14:44.000Z</time>
      </trkpt>
      <trkpt lat="44.23833" lon="4.71444">
        <ele>51.69</ele>
        <time>2019-05-28T10:14:49.000Z</time>
      </trkpt>
      <trkpt lat="44.23834" lon="4.71429">
        <ele>52.67</ele>
        <time>2019-05-28T10:15:00.000Z</time>
      </trkpt>
      <trkpt lat="44.23833" lon="4.71406">
        <ele>53.17</ele>
        <time>2019-05-28T10:15:05.000Z</time>
      </trkpt>
      <trkpt lat="44.23831" lon="4.7139">
        <ele>49.83</ele>
        <time>2019-05-28T10:15:11.000Z</time>
      </trkpt>
      <trkpt lat="44.23828" lon="4.71369">
        <ele>47.5</ele>
        <time>2019-05-28T10:15:16.000Z</time>
      </trkpt>
      <trkpt lat="44.23816" lon="4.7136">
        <ele>46.67</ele>
        <time>2019-05-28T10:15:21.000Z</time>
      </trkpt>
      <trkpt lat="44.23807" lon="4.7136">
        <ele>44.38</ele>
        <time>2019-05-28T10:15:26.000Z</time>
      </trkpt>
      <trkpt lat="44.23807" lon="4.71341">
        <ele>45.17</ele>
        <time>2019-05-28T10:15:31.000Z</time>
      </trkpt>
      <trkpt lat="44.23802" lon="4.71329">
        <ele>45.42</ele>
        <time>2019-05-28T10:15:36.000Z</time>
      </trkpt>
      <trkpt lat="44.23792" lon="4.71337">
        <ele>44.38</ele>
        <time>2019-05-28T10:15:41.000Z</time>
      </trkpt>
      <trkpt lat="44.2378" lon="4.71338">
        <ele>45.42</ele>
        <time>2019-05-28T10:15:46.000Z</time>
      </trkpt>
      <trkpt lat="44.23779" lon="4.7132">
        <ele>44.23</ele>
        <time>2019-05-28T10:15:51.000Z</time>
      </trkpt>
      <trkpt lat="44.23774" lon="4.71305">
        <ele>45.41</ele>
        <time>2019-05-28T10:15:56.000Z</time>
      </trkpt>
      <trkpt lat="44.23756" lon="4.71302">
        <ele>46.36</ele>
        <time>2019-05-28T10:16:01.000Z</time>
      </trkpt>
      <trkpt lat="44.23735" lon="4.713">
        <ele>45.43</ele>
        <time>2019-05-28T10:16:06.000Z</time>
      </trkpt>
      <trkpt lat="44.23713" lon="4.71303">
        <ele>45.42</ele>
        <time>2019-05-28T10:16:11.000Z</time>
      </trkpt>
      <trkpt lat="44.2371" lon="4.71288">
        <ele>44.17</ele>
        <time>2019-05-28T10:16:27.000Z</time>
      </trkpt>
      <trkpt lat="44.23709" lon="4.71275">
        <ele>46.42</ele>
        <time>2019-05-28T10:16:32.000Z</time>
      </trkpt>
      <trkpt lat="44.23701" lon="4.7127">
        <ele>45.43</ele>
        <time>2019-05-28T10:16:39.000Z</time>
      </trkpt>
      <trkpt lat="44.23683" lon="4.71279">
        <ele>45.47</ele>
        <time>2019-05-28T10:16:44.000Z</time>
      </trkpt>
      <trkpt lat="44.23666" lon="4.71299">
        <ele>43.69</ele>
        <time>2019-05-28T10:16:49.000Z</time>
      </trkpt>
      <trkpt lat="44.23654" lon="4.71323">
        <ele>44.41</ele>
        <time>2019-05-28T10:16:54.000Z</time>
      </trkpt>
      <trkpt lat="44.2364" lon="4.71344">
        <ele>45.35</ele>
        <time>2019-05-28T10:16:59.000Z</time>
      </trkpt>
      <trkpt lat="44.23618" lon="4.7134">
        <ele>45.43</ele>
        <time>2019-05-28T10:17:04.000Z</time>
      </trkpt>
      <trkpt lat="44.23599" lon="4.71327">
        <ele>44.66</ele>
        <time>2019-05-28T10:17:09.000Z</time>
      </trkpt>
      <trkpt lat="44.23577" lon="4.71314">
        <ele>45.93</ele>
        <time>2019-05-28T10:17:14.000Z</time>
      </trkpt>
      <trkpt lat="44.23553" lon="4.71299">
        <ele>44.46</ele>
        <time>2019-05-28T10:17:19.000Z</time>
      </trkpt>
      <trkpt lat="44.2353" lon="4.71286">
        <ele>44.43</ele>
        <time>2019-05-28T10:17:24.000Z</time>
      </trkpt>
      <trkpt lat="44.23505" lon="4.71276">
        <ele>45.6</ele>
        <time>2019-05-28T10:17:29.000Z</time>
      </trkpt>
      <trkpt lat="44.23476" lon="4.71272">
        <ele>45.67</ele>
        <time>2019-05-28T10:17:34.000Z</time>
      </trkpt>
      <trkpt lat="44.23449" lon="4.71274">
        <ele>43.68</ele>
        <time>2019-05-28T10:17:39.000Z</time>
      </trkpt>
      <trkpt lat="44.23422" lon="4.7127">
        <ele>42.43</ele>
        <time>2019-05-28T10:17:44.000Z</time>
      </trkpt>
      <trkpt lat="44.23397" lon="4.71252">
        <ele>43.63</ele>
        <time>2019-05-28T10:17:49.000Z</time>
      </trkpt>
      <trkpt lat="44.23372" lon="4.7122">
        <ele>45.77</ele>
        <time>2019-05-28T10:17:54.000Z</time>
      </trkpt>
      <trkpt lat="44.23369" lon="4.71187">
        <ele>43.63</ele>
        <time>2019-05-28T10:17:59.000Z</time>
      </trkpt>
      <trkpt lat="44.2337" lon="4.71173">
        <ele>45.44</ele>
        <time>2019-05-28T10:18:23.000Z</time>
      </trkpt>
      <trkpt lat="44.23364" lon="4.71149">
        <ele>44.62</ele>
        <time>2019-05-28T10:18:28.000Z</time>
      </trkpt>
      <trkpt lat="44.23347" lon="4.71126">
        <ele>45.42</ele>
        <time>2019-05-28T10:18:33.000Z</time>
      </trkpt>
      <trkpt lat="44.23329" lon="4.71105">
        <ele>45.43</ele>
        <time>2019-05-28T10:18:38.000Z</time>
      </trkpt>
      <trkpt lat="44.23309" lon="4.71084">
        <ele>46.66</ele>
        <time>2019-05-28T10:18:43.000Z</time>
      </trkpt>
      <trkpt lat="44.23288" lon="4.71061">
        <ele>46.43</ele>
        <time>2019-05-28T10:18:48.000Z</time>
      </trkpt>
      <trkpt lat="44.23267" lon="4.71041">
        <ele>44.68</ele>
        <time>2019-05-28T10:18:53.000Z</time>
      </trkpt>
      <trkpt lat="44.23244" lon="4.7102">
        <ele>41.24</ele>
        <time>2019-05-28T10:18:58.000Z</time>
      </trkpt>
      <trkpt lat="44.23216" lon="4.70998">
        <ele>41.18</ele>
        <time>2019-05-28T10:19:03.000Z</time>
      </trkpt>
      <trkpt lat="44.23187" lon="4.70977">
        <ele>42.18</ele>
        <time>2019-05-28T10:19:08.000Z</time>
      </trkpt>
      <trkpt lat="44.23161" lon="4.70957">
        <ele>43.41</ele>
        <time>2019-05-28T10:19:13.000Z</time>
      </trkpt>
      <trkpt lat="44.23136" lon="4.70935">
        <ele>42.43</ele>
        <time>2019-05-28T10:19:18.000Z</time>
      </trkpt>
      <trkpt lat="44.23105" lon="4.70933">
        <ele>39.5</ele>
        <time>2019-05-28T10:19:23.000Z</time>
      </trkpt>
      <trkpt lat="44.23084" lon="4.70923">
        <ele>40.43</ele>
        <time>2019-05-28T10:19:28.000Z</time>
      </trkpt>
      <trkpt lat="44.23074" lon="4.70897">
        <ele>40.43</ele>
        <time>2019-05-28T10:19:33.000Z</time>
      </trkpt>
      <trkpt lat="44.23065" lon="4.70866">
        <ele>41.12</ele>
        <time>2019-05-28T10:19:38.000Z</time>
      </trkpt>
      <trkpt lat="44.23051" lon="4.70874">
        <ele>41.49</ele>
        <time>2019-05-28T10:19:43.000Z</time>
      </trkpt>
      <trkpt lat="44.23033" lon="4.70885">
        <ele>37.77</ele>
        <time>2019-05-28T10:19:48.000Z</time>
      </trkpt>
      <trkpt lat="44.23007" lon="4.70897">
        <ele>38.18</ele>
        <time>2019-05-28T10:19:53.000Z</time>
      </trkpt>
      <trkpt lat="44.22979" lon="4.70917">
        <ele>41.43</ele>
        <time>2019-05-28T10:19:58.000Z</time>
      </trkpt>
      <trkpt lat="44.22948" lon="4.70931">
        <ele>40.37</ele>
        <time>2019-05-28T10:20:03.000Z</time>
      </trkpt>
      <trkpt lat="44.22918" lon="4.70947">
        <ele>41.6</ele>
        <time>2019-05-28T10:20:08.000Z</time>
      </trkpt>
      <trkpt lat="44.22887" lon="4.70964">
        <ele>40.5</ele>
        <time>2019-05-28T10:20:13.000Z</time>
      </trkpt>
      <trkpt lat="44.22856" lon="4.70981">
        <ele>41.43</ele>
        <time>2019-05-28T10:20:18.000Z</time>
      </trkpt>
      <trkpt lat="44.22826" lon="4.70997">
        <ele>41.43</ele>
        <time>2019-05-28T10:20:23.000Z</time>
      </trkpt>
      <trkpt lat="44.22796" lon="4.71011">
        <ele>39.44</ele>
        <time>2019-05-28T10:20:28.000Z</time>
      </trkpt>
      <trkpt lat="44.22762" lon="4.71005">
        <ele>40.42</ele>
        <time>2019-05-28T10:20:33.000Z</time>
      </trkpt>
      <trkpt lat="44.22728" lon="4.70999">
        <ele>40.42</ele>
        <time>2019-05-28T10:20:38.000Z</time>
      </trkpt>
      <trkpt lat="44.22694" lon="4.70996">
        <ele>39.63</ele>
        <time>2019-05-28T10:20:43.000Z</time>
      </trkpt>
      <trkpt lat="44.22659" lon="4.70991">
        <ele>39.44</ele>
        <time>2019-05-28T10:20:48.000Z</time>
      </trkpt>
      <trkpt lat="44.22626" lon="4.70987">
        <ele>40.19</ele>
        <time>2019-05-28T10:20:53.000Z</time>
      </trkpt>
      <trkpt lat="44.22591" lon="4.70982">
        <ele>38.5</ele>
        <time>2019-05-28T10:20:58.000Z</time>
      </trkpt>
      <trkpt lat="44.22556" lon="4.70978">
        <ele>39.43</ele>
        <time>2019-05-28T10:21:03.000Z</time>
      </trkpt>
      <trkpt lat="44.22528" lon="4.70986">
        <ele>39.44</ele>
        <time>2019-05-28T10:21:08.000Z</time>
      </trkpt>
      <trkpt lat="44.22517" lon="4.71024">
        <ele>39.45</ele>
        <time>2019-05-28T10:21:13.000Z</time>
      </trkpt>
      <trkpt lat="44.22506" lon="4.71065">
        <ele>38.44</ele>
        <time>2019-05-28T10:21:18.000Z</time>
      </trkpt>
      <trkpt lat="44.22494" lon="4.71106">
        <ele>39.42</ele>
        <time>2019-05-28T10:21:23.000Z</time>
      </trkpt>
      <trkpt lat="44.22482" lon="4.71148">
        <ele>41.37</ele>
        <time>2019-05-28T10:21:28.000Z</time>
      </trkpt>
      <trkpt lat="44.22471" lon="4.7119">
        <ele>40.21</ele>
        <time>2019-05-28T10:21:33.000Z</time>
      </trkpt>
      <trkpt lat="44.22459" lon="4.71232">
        <ele>39.45</ele>
        <time>2019-05-28T10:21:38.000Z</time>
      </trkpt>
      <trkpt lat="44.22435" lon="4.71263">
        <ele>39.43</ele>
        <time>2019-05-28T10:21:43.000Z</time>
      </trkpt>
      <trkpt lat="44.22406" lon="4.71287">
        <ele>38.44</ele>
        <time>2019-05-28T10:21:48.000Z</time>
      </trkpt>
      <trkpt lat="44.22379" lon="4.71312">
        <ele>39.44</ele>
        <time>2019-05-28T10:21:53.000Z</time>
      </trkpt>
      <trkpt lat="44.2235" lon="4.71338">
        <ele>38.46</ele>
        <time>2019-05-28T10:21:58.000Z</time>
      </trkpt>
      <trkpt lat="44.22321" lon="4.71365">
        <ele>39.42</ele>
        <time>2019-05-28T10:22:03.000Z</time>
      </trkpt>
      <trkpt lat="44.22292" lon="4.71394">
        <ele>40.19</ele>
        <time>2019-05-28T10:22:08.000Z</time>
      </trkpt>
      <trkpt lat="44.22264" lon="4.71421">
        <ele>40.44</ele>
        <time>2019-05-28T10:22:13.000Z</time>
      </trkpt>
      <trkpt lat="44.22237" lon="4.71452">
        <ele>40.44</ele>
        <time>2019-05-28T10:22:18.000Z</time>
      </trkpt>
      <trkpt lat="44.22208" lon="4.71481">
        <ele>41.38</ele>
        <time>2019-05-28T10:22:23.000Z</time>
      </trkpt>
      <trkpt lat="44.2218" lon="4.71511">
        <ele>41.4</ele>
        <time>2019-05-28T10:22:28.000Z</time>
      </trkpt>
      <trkpt lat="44.22151" lon="4.71544">
        <ele>41.44</ele>
        <time>2019-05-28T10:22:33.000Z</time>
      </trkpt>
      <trkpt lat="44.22122" lon="4.71575">
        <ele>40.44</ele>
        <time>2019-05-28T10:22:38.000Z</time>
      </trkpt>
      <trkpt lat="44.22093" lon="4.71607">
        <ele>40.26</ele>
        <time>2019-05-28T10:22:43.000Z</time>
      </trkpt>
      <trkpt lat="44.22067" lon="4.71639">
        <ele>39.49</ele>
        <time>2019-05-28T10:22:48.000Z</time>
      </trkpt>
      <trkpt lat="44.22043" lon="4.71668">
        <ele>40.44</ele>
        <time>2019-05-28T10:22:53.000Z</time>
      </trkpt>
      <trkpt lat="44.2202" lon="4.71692">
        <ele>40.4</ele>
        <time>2019-05-28T10:22:58.000Z</time>
      </trkpt>
      <trkpt lat="44.21998" lon="4.71716">
        <ele>42.38</ele>
        <time>2019-05-28T10:23:03.000Z</time>
      </trkpt>
      <trkpt lat="44.21977" lon="4.71735">
        <ele>44.19</ele>
        <time>2019-05-28T10:23:08.000Z</time>
      </trkpt>
      <trkpt lat="44.21958" lon="4.71747">
        <ele>45.38</ele>
        <time>2019-05-28T10:23:13.000Z</time>
      </trkpt>
      <trkpt lat="44.21937" lon="4.71758">
        <ele>46.2</ele>
        <time>2019-05-28T10:23:18.000Z</time>
      </trkpt>
      <trkpt lat="44.21917" lon="4.71769">
        <ele>46.45</ele>
        <time>2019-05-28T10:23:23.000Z</time>
      </trkpt>
      <trkpt lat="44.21901" lon="4.71785">
        <ele>47.4</ele>
        <time>2019-05-28T10:23:28.000Z</time>
      </trkpt>
      <trkpt lat="44.21886" lon="4.71812">
        <ele>45.52</ele>
        <time>2019-05-28T10:23:33.000Z</time>
      </trkpt>
      <trkpt lat="44.21867" lon="4.7185">
        <ele>44.46</ele>
        <time>2019-05-28T10:23:38.000Z</time>
      </trkpt>
      <trkpt lat="44.21843" lon="4.71889">
        <ele>42.51</ele>
        <time>2019-05-28T10:23:43.000Z</time>
      </trkpt>
      <trkpt lat="44.21812" lon="4.71925">
        <ele>41.7</ele>
        <time>2019-05-28T10:23:48.000Z</time>
      </trkpt>
      <trkpt lat="44.21776" lon="4.71961">
        <ele>40.51</ele>
        <time>2019-05-28T10:23:53.000Z</time>
      </trkpt>
      <trkpt lat="44.21739" lon="4.71997">
        <ele>39.51</ele>
        <time>2019-05-28T10:23:58.000Z</time>
      </trkpt>
      <trkpt lat="44.21702" lon="4.7203">
        <ele>39.45</ele>
        <time>2019-05-28T10:24:03.000Z</time>
      </trkpt>
      <trkpt lat="44.21666" lon="4.72062">
        <ele>40.39</ele>
        <time>2019-05-28T10:24:08.000Z</time>
      </trkpt>
      <trkpt lat="44.21632" lon="4.72091">
        <ele>39.45</ele>
        <time>2019-05-28T10:24:13.000Z</time>
      </trkpt>
      <trkpt lat="44.216" lon="4.72121">
        <ele>39.45</ele>
        <time>2019-05-28T10:24:18.000Z</time>
      </trkpt>
      <trkpt lat="44.21565" lon="4.72144">
        <ele>40.45</ele>
        <time>2019-05-28T10:24:23.000Z</time>
      </trkpt>
      <trkpt lat="44.21534" lon="4.72169">
        <ele>39.7</ele>
        <time>2019-05-28T10:24:28.000Z</time>
      </trkpt>
      <trkpt lat="44.215" lon="4.72192">
        <ele>41.39</ele>
        <time>2019-05-28T10:24:33.000Z</time>
      </trkpt>
      <trkpt lat="44.21467" lon="4.72216">
        <ele>41.46</ele>
        <time>2019-05-28T10:24:38.000Z</time>
      </trkpt>
      <trkpt lat="44.21436" lon="4.72234">
        <ele>41.45</ele>
        <time>2019-05-28T10:24:43.000Z</time>
      </trkpt>
      <trkpt lat="44.21405" lon="4.72252">
        <ele>41.45</ele>
        <time>2019-05-28T10:24:48.000Z</time>
      </trkpt>
      <trkpt lat="44.21371" lon="4.72271">
        <ele>40.46</ele>
        <time>2019-05-28T10:24:53.000Z</time>
      </trkpt>
      <trkpt lat="44.21339" lon="4.72288">
        <ele>39.52</ele>
        <time>2019-05-28T10:24:58.000Z</time>
      </trkpt>
      <trkpt lat="44.21307" lon="4.72301">
        <ele>38.72</ele>
        <time>2019-05-28T10:25:03.000Z</time>
      </trkpt>
      <trkpt lat="44.21275" lon="4.72314">
        <ele>39.21</ele>
        <time>2019-05-28T10:25:08.000Z</time>
      </trkpt>
      <trkpt lat="44.21244" lon="4.72328">
        <ele>39.69</ele>
        <time>2019-05-28T10:25:13.000Z</time>
      </trkpt>
      <trkpt lat="44.21216" lon="4.72338">
        <ele>41.39</ele>
        <time>2019-05-28T10:25:18.000Z</time>
      </trkpt>
      <trkpt lat="44.21189" lon="4.72346">
        <ele>43.39</ele>
        <time>2019-05-28T10:25:23.000Z</time>
      </trkpt>
      <trkpt lat="44.21168" lon="4.72347">
        <ele>45.39</ele>
        <time>2019-05-28T10:25:28.000Z</time>
      </trkpt>
      <trkpt lat="44.21148" lon="4.72345">
        <ele>45.46</ele>
        <time>2019-05-28T10:25:33.000Z</time>
      </trkpt>
      <trkpt lat="44.21132" lon="4.7234">
        <ele>48.08</ele>
        <time>2019-05-28T10:25:38.000Z</time>
      </trkpt>
      <trkpt lat="44.21113" lon="4.72338">
        <ele>48.4</ele>
        <time>2019-05-28T10:25:43.000Z</time>
      </trkpt>
      <trkpt lat="44.21097" lon="4.72336">
        <ele>46.72</ele>
        <time>2019-05-28T10:25:48.000Z</time>
      </trkpt>
      <trkpt lat="44.21082" lon="4.72339">
        <ele>46.14</ele>
        <time>2019-05-28T10:25:53.000Z</time>
      </trkpt>
      <trkpt lat="44.2108" lon="4.72361">
        <ele>47.45</ele>
        <time>2019-05-28T10:25:58.000Z</time>
      </trkpt>
      <trkpt lat="44.21083" lon="4.7238">
        <ele>48.39</ele>
        <time>2019-05-28T10:26:03.000Z</time>
      </trkpt>
      <trkpt lat="44.2109" lon="4.7237">
        <ele>47.39</ele>
        <time>2019-05-28T10:26:48.000Z</time>
      </trkpt>
      <trkpt lat="44.21084" lon="4.72347">
        <ele>47.46</ele>
        <time>2019-05-28T10:26:53.000Z</time>
      </trkpt>
      <trkpt lat="44.21063" lon="4.72345">
        <ele>47.46</ele>
        <time>2019-05-28T10:26:58.000Z</time>
      </trkpt>
      <trkpt lat="44.21035" lon="4.72359">
        <ele>46.46</ele>
        <time>2019-05-28T10:27:03.000Z</time>
      </trkpt>
      <trkpt lat="44.21002" lon="4.72376">
        <ele>45.46</ele>
        <time>2019-05-28T10:27:08.000Z</time>
      </trkpt>
      <trkpt lat="44.20963" lon="4.7238">
        <ele>42.71</ele>
        <time>2019-05-28T10:27:13.000Z</time>
      </trkpt>
      <trkpt lat="44.20918" lon="4.72379">
        <ele>39.79</ele>
        <time>2019-05-28T10:27:18.000Z</time>
      </trkpt>
      <trkpt lat="44.20875" lon="4.72378">
        <ele>39.4</ele>
        <time>2019-05-28T10:27:23.000Z</time>
      </trkpt>
      <trkpt lat="44.20833" lon="4.72377">
        <ele>38.48</ele>
        <time>2019-05-28T10:27:28.000Z</time>
      </trkpt>
      <trkpt lat="44.20795" lon="4.72375">
        <ele>38.46</ele>
        <time>2019-05-28T10:27:33.000Z</time>
      </trkpt>
      <trkpt lat="44.20755" lon="4.72373">
        <ele>38.46</ele>
        <time>2019-05-28T10:27:38.000Z</time>
      </trkpt>
      <trkpt lat="44.20714" lon="4.72373">
        <ele>37.46</ele>
        <time>2019-05-28T10:27:43.000Z</time>
      </trkpt>
      <trkpt lat="44.20674" lon="4.72371">
        <ele>38.4</ele>
        <time>2019-05-28T10:27:48.000Z</time>
      </trkpt>
      <trkpt lat="44.20633" lon="4.7237">
        <ele>37.47</ele>
        <time>2019-05-28T10:27:53.000Z</time>
      </trkpt>
      <trkpt lat="44.20591" lon="4.72371">
        <ele>37.46</ele>
        <time>2019-05-28T10:27:58.000Z</time>
      </trkpt>
      <trkpt lat="44.20551" lon="4.72373">
        <ele>37.46</ele>
        <time>2019-05-28T10:28:03.000Z</time>
      </trkpt>
      <trkpt lat="44.2051" lon="4.72379">
        <ele>37.46</ele>
        <time>2019-05-28T10:28:08.000Z</time>
      </trkpt>
      <trkpt lat="44.20469" lon="4.72389">
        <ele>36.71</ele>
        <time>2019-05-28T10:28:13.000Z</time>
      </trkpt>
      <trkpt lat="44.20428" lon="4.72401">
        <ele>37.45</ele>
        <time>2019-05-28T10:28:18.000Z</time>
      </trkpt>
      <trkpt lat="44.20388" lon="4.72414">
        <ele>37.47</ele>
        <time>2019-05-28T10:28:23.000Z</time>
      </trkpt>
      <trkpt lat="44.20349" lon="4.72429">
        <ele>39.21</ele>
        <time>2019-05-28T10:28:28.000Z</time>
      </trkpt>
      <trkpt lat="44.2031" lon="4.72444">
        <ele>38.53</ele>
        <time>2019-05-28T10:28:33.000Z</time>
      </trkpt>
      <trkpt lat="44.20272" lon="4.72459">
        <ele>37.73</ele>
        <time>2019-05-28T10:28:38.000Z</time>
      </trkpt>
      <trkpt lat="44.20231" lon="4.72451">
        <ele>38.28</ele>
        <time>2019-05-28T10:28:43.000Z</time>
      </trkpt>
      <trkpt lat="44.20195" lon="4.72435">
        <ele>38.47</ele>
        <time>2019-05-28T10:28:48.000Z</time>
      </trkpt>
      <trkpt lat="44.20159" lon="4.72419">
        <ele>38.47</ele>
        <time>2019-05-28T10:28:53.000Z</time>
      </trkpt>
      <trkpt lat="44.20123" lon="4.72404">
        <ele>37.53</ele>
        <time>2019-05-28T10:28:58.000Z</time>
      </trkpt>
      <trkpt lat="44.20088" lon="4.72389">
        <ele>38.45</ele>
        <time>2019-05-28T10:29:03.000Z</time>
      </trkpt>
      <trkpt lat="44.20055" lon="4.72374">
        <ele>38.66</ele>
        <time>2019-05-28T10:29:08.000Z</time>
      </trkpt>
      <trkpt lat="44.20043" lon="4.72407">
        <ele>39.22</ele>
        <time>2019-05-28T10:29:13.000Z</time>
      </trkpt>
      <trkpt lat="44.20049" lon="4.72449">
        <ele>38.53</ele>
        <time>2019-05-28T10:29:18.000Z</time>
      </trkpt>
      <trkpt lat="44.20055" lon="4.72487">
        <ele>40.41</ele>
        <time>2019-05-28T10:29:23.000Z</time>
      </trkpt>
      <trkpt lat="44.20059" lon="4.72519">
        <ele>42.41</ele>
        <time>2019-05-28T10:29:28.000Z</time>
      </trkpt>
      <trkpt lat="44.20061" lon="4.72545">
        <ele>43.22</ele>
        <time>2019-05-28T10:29:33.000Z</time>
      </trkpt>
      <trkpt lat="44.2006" lon="4.7257">
        <ele>43.15</ele>
        <time>2019-05-28T10:29:38.000Z</time>
      </trkpt>
      <trkpt lat="44.20056" lon="4.72595">
        <ele>42.47</ele>
        <time>2019-05-28T10:29:43.000Z</time>
      </trkpt>
      <trkpt lat="44.20043" lon="4.72624">
        <ele>40.72</ele>
        <time>2019-05-28T10:29:48.000Z</time>
      </trkpt>
      <trkpt lat="44.20024" lon="4.72658">
        <ele>39.49</ele>
        <time>2019-05-28T10:29:53.000Z</time>
      </trkpt>
      <trkpt lat="44.19999" lon="4.72681">
        <ele>36.49</ele>
        <time>2019-05-28T10:29:58.000Z</time>
      </trkpt>
      <trkpt lat="44.1997" lon="4.72699">
        <ele>36.47</ele>
        <time>2019-05-28T10:30:03.000Z</time>
      </trkpt>
      <trkpt lat="44.19936" lon="4.72713">
        <ele>38.45</ele>
        <time>2019-05-28T10:30:08.000Z</time>
      </trkpt>
      <trkpt lat="44.19903" lon="4.72704">
        <ele>37.25</ele>
        <time>2019-05-28T10:30:13.000Z</time>
      </trkpt>
      <trkpt lat="44.19869" lon="4.72698">
        <ele>37.47</ele>
        <time>2019-05-28T10:30:18.000Z</time>
      </trkpt>
      <trkpt lat="44.19837" lon="4.72692">
        <ele>36.49</ele>
        <time>2019-05-28T10:30:23.000Z</time>
      </trkpt>
      <trkpt lat="44.19802" lon="4.72698">
        <ele>35.29</ele>
        <time>2019-05-28T10:30:28.000Z</time>
      </trkpt>
      <trkpt lat="44.1977" lon="4.72719">
        <ele>36.46</ele>
        <time>2019-05-28T10:30:33.000Z</time>
      </trkpt>
      <trkpt lat="44.19746" lon="4.72738">
        <ele>36.71</ele>
        <time>2019-05-28T10:30:38.000Z</time>
      </trkpt>
      <trkpt lat="44.19718" lon="4.72746">
        <ele>37.46</ele>
        <time>2019-05-28T10:30:43.000Z</time>
      </trkpt>
      <trkpt lat="44.19696" lon="4.72737">
        <ele>36.66</ele>
        <time>2019-05-28T10:30:48.000Z</time>
      </trkpt>
      <trkpt lat="44.19694" lon="4.72719">
        <ele>37.47</ele>
        <time>2019-05-28T10:30:53.000Z</time>
      </trkpt>
      <trkpt lat="44.19691" lon="4.72731">
        <ele>40.16</ele>
        <time>2019-05-28T10:31:02.000Z</time>
      </trkpt>
      <trkpt lat="44.19693" lon="4.72744">
        <ele>39.52</ele>
        <time>2019-05-28T10:31:34.000Z</time>
      </trkpt>
      <trkpt lat="44.19698" lon="4.7276">
        <ele>39.47</ele>
        <time>2019-05-28T10:31:39.000Z</time>
      </trkpt>
      <trkpt lat="44.19718" lon="4.72753">
        <ele>39.41</ele>
        <time>2019-05-28T10:31:44.000Z</time>
      </trkpt>
      <trkpt lat="44.1973" lon="4.7275">
        <ele>39.66</ele>
        <time>2019-05-28T10:31:49.000Z</time>
      </trkpt>
      <trkpt lat="44.19738" lon="4.72743">
        <ele>38.41</ele>
        <time>2019-05-28T10:32:13.000Z</time>
      </trkpt>
      <trkpt lat="44.19752" lon="4.72741">
        <ele>38.47</ele>
        <time>2019-05-28T10:32:18.000Z</time>
      </trkpt>
      <trkpt lat="44.19764" lon="4.72739">
        <ele>38.47</ele>
        <time>2019-05-28T10:32:23.000Z</time>
      </trkpt>
      <trkpt lat="44.19778" lon="4.72736">
        <ele>37.54</ele>
        <time>2019-05-28T10:32:28.000Z</time>
      </trkpt>
      <trkpt lat="44.19794" lon="4.72733">
        <ele>37.53</ele>
        <time>2019-05-28T10:32:33.000Z</time>
      </trkpt>
      <trkpt lat="44.19808" lon="4.7273">
        <ele>39.41</ele>
        <time>2019-05-28T10:32:38.000Z</time>
      </trkpt>
      <trkpt lat="44.19823" lon="4.72727">
        <ele>40.46</ele>
        <time>2019-05-28T10:32:43.000Z</time>
      </trkpt>
      <trkpt lat="44.19839" lon="4.72729">
        <ele>42.41</ele>
        <time>2019-05-28T10:32:48.000Z</time>
      </trkpt>
      <trkpt lat="44.19855" lon="4.72734">
        <ele>43.46</ele>
        <time>2019-05-28T10:32:53.000Z</time>
      </trkpt>
      <trkpt lat="44.1987" lon="4.72743">
        <ele>45.46</ele>
        <time>2019-05-28T10:32:58.000Z</time>
      </trkpt>
      <trkpt lat="44.19883" lon="4.72757">
        <ele>45.47</ele>
        <time>2019-05-28T10:33:03.000Z</time>
      </trkpt>
      <trkpt lat="44.19895" lon="4.72774">
        <ele>45.47</ele>
        <time>2019-05-28T10:33:08.000Z</time>
      </trkpt>
      <trkpt lat="44.19905" lon="4.72793">
        <ele>45.41</ele>
        <time>2019-05-28T10:33:13.000Z</time>
      </trkpt>
      <trkpt lat="44.19916" lon="4.72816">
        <ele>46.47</ele>
        <time>2019-05-28T10:33:18.000Z</time>
      </trkpt>
      <trkpt lat="44.19927" lon="4.72838">
        <ele>47.46</ele>
        <time>2019-05-28T10:33:23.000Z</time>
      </trkpt>
      <trkpt lat="44.19938" lon="4.72862">
        <ele>46.47</ele>
        <time>2019-05-28T10:33:28.000Z</time>
      </trkpt>
      <trkpt lat="44.1995" lon="4.72887">
        <ele>45.16</ele>
        <time>2019-05-28T10:33:33.000Z</time>
      </trkpt>
      <trkpt lat="44.19959" lon="4.7292">
        <ele>45.23</ele>
        <time>2019-05-28T10:33:38.000Z</time>
      </trkpt>
      <trkpt lat="44.19962" lon="4.72961">
        <ele>44.48</ele>
        <time>2019-05-28T10:33:43.000Z</time>
      </trkpt>
      <trkpt lat="44.19963" lon="4.73011">
        <ele>41.78</ele>
        <time>2019-05-28T10:33:48.000Z</time>
      </trkpt>
      <trkpt lat="44.19976" lon="4.7306">
        <ele>40.49</ele>
        <time>2019-05-28T10:33:53.000Z</time>
      </trkpt>
      <trkpt lat="44.19993" lon="4.73091">
        <ele>38.73</ele>
        <time>2019-05-28T10:33:58.000Z</time>
      </trkpt>
      <trkpt lat="44.20009" lon="4.73072">
        <ele>38.23</ele>
        <time>2019-05-28T10:34:03.000Z</time>
      </trkpt>
      <trkpt lat="44.20025" lon="4.73048">
        <ele>37.29</ele>
        <time>2019-05-28T10:34:08.000Z</time>
      </trkpt>
      <trkpt lat="44.2004" lon="4.73034">
        <ele>37.72</ele>
        <time>2019-05-28T10:34:13.000Z</time>
      </trkpt>
      <trkpt lat="44.20053" lon="4.73017">
        <ele>38.41</ele>
        <time>2019-05-28T10:34:18.000Z</time>
      </trkpt>
      <trkpt lat="44.20064" lon="4.72996">
        <ele>37.72</ele>
        <time>2019-05-28T10:34:23.000Z</time>
      </trkpt>
      <trkpt lat="44.2006" lon="4.72962">
        <ele>38.22</ele>
        <time>2019-05-28T10:34:28.000Z</time>
      </trkpt>
      <trkpt lat="44.20057" lon="4.72932">
        <ele>37.47</ele>
        <time>2019-05-28T10:34:33.000Z</time>
      </trkpt>
      <trkpt lat="44.20052" lon="4.729">
        <ele>36.91</ele>
        <time>2019-05-28T10:34:38.000Z</time>
      </trkpt>
      <trkpt lat="44.20049" lon="4.72868">
        <ele>37.45</ele>
        <time>2019-05-28T10:34:43.000Z</time>
      </trkpt>
      <trkpt lat="44.20045" lon="4.72837">
        <ele>39.17</ele>
        <time>2019-05-28T10:34:48.000Z</time>
      </trkpt>
      <trkpt lat="44.20041" lon="4.72806">
        <ele>38.72</ele>
        <time>2019-05-28T10:34:53.000Z</time>
      </trkpt>
      <trkpt lat="44.2004" lon="4.72775">
        <ele>36.54</ele>
        <time>2019-05-28T10:34:58.000Z</time>
      </trkpt>
      <trkpt lat="44.20055" lon="4.72749">
        <ele>38.22</ele>
        <time>2019-05-28T10:35:03.000Z</time>
      </trkpt>
      <trkpt lat="44.20076" lon="4.72738">
        <ele>39.41</ele>
        <time>2019-05-28T10:35:08.000Z</time>
      </trkpt>
      <trkpt lat="44.20096" lon="4.72726">
        <ele>40.47</ele>
        <time>2019-05-28T10:35:13.000Z</time>
      </trkpt>
      <trkpt lat="44.20119" lon="4.72717">
        <ele>40.4</ele>
        <time>2019-05-28T10:35:18.000Z</time>
      </trkpt>
      <trkpt lat="44.2014" lon="4.72718">
        <ele>42.45</ele>
        <time>2019-05-28T10:35:23.000Z</time>
      </trkpt>
      <trkpt lat="44.20159" lon="4.72714">
        <ele>41.48</ele>
        <time>2019-05-28T10:35:28.000Z</time>
      </trkpt>
      <trkpt lat="44.20166" lon="4.72732">
        <ele>42.28</ele>
        <time>2019-05-28T10:35:33.000Z</time>
      </trkpt>
      <trkpt lat="44.20174" lon="4.72756">
        <ele>43.45</ele>
        <time>2019-05-28T10:35:38.000Z</time>
      </trkpt>
      <trkpt lat="44.2018" lon="4.7278">
        <ele>41.53</ele>
        <time>2019-05-28T10:35:43.000Z</time>
      </trkpt>
      <trkpt lat="44.20188" lon="4.72804">
        <ele>40.53</ele>
        <time>2019-05-28T10:35:48.000Z</time>
      </trkpt>
      <trkpt lat="44.20195" lon="4.72826">
        <ele>39.47</ele>
        <time>2019-05-28T10:35:53.000Z</time>
      </trkpt>
      <trkpt lat="44.20202" lon="4.72848">
        <ele>39.47</ele>
        <time>2019-05-28T10:35:58.000Z</time>
      </trkpt>
      <trkpt lat="44.2021" lon="4.72858">
        <ele>39.47</ele>
        <time>2019-05-28T10:36:03.000Z</time>
      </trkpt>
      <trkpt lat="44.20218" lon="4.72848">
        <ele>38.47</ele>
        <time>2019-05-28T10:36:08.000Z</time>
      </trkpt>
      <trkpt lat="44.20238" lon="4.72839">
        <ele>38.47</ele>
        <time>2019-05-28T10:36:13.000Z</time>
      </trkpt>
      <trkpt lat="44.20258" lon="4.72834">
        <ele>38.47</ele>
        <time>2019-05-28T10:36:18.000Z</time>
      </trkpt>
      <trkpt lat="44.20278" lon="4.7282">
        <ele>39.22</ele>
        <time>2019-05-28T10:36:23.000Z</time>
      </trkpt>
      <trkpt lat="44.20297" lon="4.72806">
        <ele>42.2</ele>
        <time>2019-05-28T10:36:28.000Z</time>
      </trkpt>
      <trkpt lat="44.20314" lon="4.72798">
        <ele>41.4</ele>
        <time>2019-05-28T10:36:33.000Z</time>
      </trkpt>
      <trkpt lat="44.20329" lon="4.7279">
        <ele>44.21</ele>
        <time>2019-05-28T10:36:38.000Z</time>
      </trkpt>
      <trkpt lat="44.20347" lon="4.72786">
        <ele>45.08</ele>
        <time>2019-05-28T10:36:43.000Z</time>
      </trkpt>
      <trkpt lat="44.20349" lon="4.72767">
        <ele>48.21</ele>
        <time>2019-05-28T10:36:48.000Z</time>
      </trkpt>
      <trkpt lat="44.20346" lon="4.72741">
        <ele>45.66</ele>
        <time>2019-05-28T10:36:53.000Z</time>
      </trkpt>
      <trkpt lat="44.20342" lon="4.7272">
        <ele>39.35</ele>
        <time>2019-05-28T10:36:58.000Z</time>
      </trkpt>
      <trkpt lat="44.2035" lon="4.72712">
        <ele>40.69</ele>
        <time>2019-05-28T10:37:04.000Z</time>
      </trkpt>
      <trkpt lat="44.20365" lon="4.72718">
        <ele>40.65</ele>
        <time>2019-05-28T10:37:09.000Z</time>
      </trkpt>
      <trkpt lat="44.20384" lon="4.72722">
        <ele>39.29</ele>
        <time>2019-05-28T10:37:14.000Z</time>
      </trkpt>
      <trkpt lat="44.20407" lon="4.72719">
        <ele>41.96</ele>
        <time>2019-05-28T10:37:19.000Z</time>
      </trkpt>
      <trkpt lat="44.20428" lon="4.72718">
        <ele>40.28</ele>
        <time>2019-05-28T10:37:24.000Z</time>
      </trkpt>
      <trkpt lat="44.2045" lon="4.72716">
        <ele>41.46</ele>
        <time>2019-05-28T10:37:29.000Z</time>
      </trkpt>
      <trkpt lat="44.2047" lon="4.72713">
        <ele>41.28</ele>
        <time>2019-05-28T10:37:34.000Z</time>
      </trkpt>
      <trkpt lat="44.2049" lon="4.72716">
        <ele>39.74</ele>
        <time>2019-05-28T10:37:39.000Z</time>
      </trkpt>
      <trkpt lat="44.20511" lon="4.72716">
        <ele>37.74</ele>
        <time>2019-05-28T10:37:44.000Z</time>
      </trkpt>
      <trkpt lat="44.20532" lon="4.72718">
        <ele>38.22</ele>
        <time>2019-05-28T10:37:49.000Z</time>
      </trkpt>
      <trkpt lat="44.20553" lon="4.72718">
        <ele>38.46</ele>
        <time>2019-05-28T10:37:54.000Z</time>
      </trkpt>
      <trkpt lat="44.20578" lon="4.72724">
        <ele>39.21</ele>
        <time>2019-05-28T10:37:59.000Z</time>
      </trkpt>
      <trkpt lat="44.20598" lon="4.72721">
        <ele>39.91</ele>
        <time>2019-05-28T10:38:04.000Z</time>
      </trkpt>
      <trkpt lat="44.20619" lon="4.72718">
        <ele>43.2</ele>
        <time>2019-05-28T10:38:09.000Z</time>
      </trkpt>
      <trkpt lat="44.2064" lon="4.72716">
        <ele>42.53</ele>
        <time>2019-05-28T10:38:14.000Z</time>
      </trkpt>
      <trkpt lat="44.2066" lon="4.72716">
        <ele>41.53</ele>
        <time>2019-05-28T10:38:19.000Z</time>
      </trkpt>
      <trkpt lat="44.20678" lon="4.72721">
        <ele>41.4</ele>
        <time>2019-05-28T10:38:24.000Z</time>
      </trkpt>
      <trkpt lat="44.20698" lon="4.72729">
        <ele>41.46</ele>
        <time>2019-05-28T10:38:29.000Z</time>
      </trkpt>
      <trkpt lat="44.20716" lon="4.72743">
        <ele>41.66</ele>
        <time>2019-05-28T10:38:34.000Z</time>
      </trkpt>
      <trkpt lat="44.20714" lon="4.7277">
        <ele>43.4</ele>
        <time>2019-05-28T10:38:39.000Z</time>
      </trkpt>
      <trkpt lat="44.20691" lon="4.72778">
        <ele>43.28</ele>
        <time>2019-05-28T10:38:44.000Z</time>
      </trkpt>
      <trkpt lat="44.20671" lon="4.72778">
        <ele>44.21</ele>
        <time>2019-05-28T10:38:49.000Z</time>
      </trkpt>
      <trkpt lat="44.20652" lon="4.7277">
        <ele>42.74</ele>
        <time>2019-05-28T10:38:54.000Z</time>
      </trkpt>
      <trkpt lat="44.20628" lon="4.72766">
        <ele>43.46</ele>
        <time>2019-05-28T10:38:59.000Z</time>
      </trkpt>
      <trkpt lat="44.206" lon="4.7276">
        <ele>39.84</ele>
        <time>2019-05-28T10:39:04.000Z</time>
      </trkpt>
      <trkpt lat="44.2058" lon="4.72756">
        <ele>40.45</ele>
        <time>2019-05-28T10:39:09.000Z</time>
      </trkpt>
      <trkpt lat="44.2056" lon="4.72752">
        <ele>41.45</ele>
        <time>2019-05-28T10:39:14.000Z</time>
      </trkpt>
      <trkpt lat="44.20541" lon="4.7275">
        <ele>41.46</ele>
        <time>2019-05-28T10:39:19.000Z</time>
      </trkpt>
      <trkpt lat="44.20521" lon="4.72756">
        <ele>39.02</ele>
        <time>2019-05-28T10:39:24.000Z</time>
      </trkpt>
      <trkpt lat="44.20501" lon="4.72752">
        <ele>40.21</ele>
        <time>2019-05-28T10:39:29.000Z</time>
      </trkpt>
      <trkpt lat="44.20483" lon="4.72751">
        <ele>38.47</ele>
        <time>2019-05-28T10:39:34.000Z</time>
      </trkpt>
      <trkpt lat="44.20467" lon="4.72758">
        <ele>43.08</ele>
        <time>2019-05-28T10:39:39.000Z</time>
      </trkpt>
      <trkpt lat="44.20453" lon="4.72757">
        <ele>44.41</ele>
        <time>2019-05-28T10:39:44.000Z</time>
      </trkpt>
      <trkpt lat="44.20437" lon="4.72762">
        <ele>44.51</ele>
        <time>2019-05-28T10:39:49.000Z</time>
      </trkpt>
      <trkpt lat="44.20419" lon="4.72764">
        <ele>45.65</ele>
        <time>2019-05-28T10:39:54.000Z</time>
      </trkpt>
      <trkpt lat="44.20399" lon="4.72768">
        <ele>48.2</ele>
        <time>2019-05-28T10:39:59.000Z</time>
      </trkpt>
      <trkpt lat="44.2039" lon="4.7277">
        <ele>42.28</ele>
        <time>2019-05-28T10:40:04.000Z</time>
      </trkpt>
      <trkpt lat="44.20381" lon="4.72774">
        <ele>43.18</ele>
        <time>2019-05-28T10:40:09.000Z</time>
      </trkpt>
      <trkpt lat="44.20363" lon="4.72776">
        <ele>42.47</ele>
        <time>2019-05-28T10:40:14.000Z</time>
      </trkpt>
      <trkpt lat="44.20344" lon="4.72776">
        <ele>40.59</ele>
        <time>2019-05-28T10:40:19.000Z</time>
      </trkpt>
      <trkpt lat="44.20327" lon="4.7278">
        <ele>39.46</ele>
        <time>2019-05-28T10:40:24.000Z</time>
      </trkpt>
      <trkpt lat="44.20314" lon="4.7279">
        <ele>39.38</ele>
        <time>2019-05-28T10:40:29.000Z</time>
      </trkpt>
      <trkpt lat="44.203" lon="4.72796">
        <ele>42.59</ele>
        <time>2019-05-28T10:40:34.000Z</time>
      </trkpt>
      <trkpt lat="44.20284" lon="4.72799">
        <ele>43.16</ele>
        <time>2019-05-28T10:40:39.000Z</time>
      </trkpt>
      <trkpt lat="44.20261" lon="4.72828">
        <ele>41.43</ele>
        <time>2019-05-28T10:40:44.000Z</time>
      </trkpt>
      <trkpt lat="44.20244" lon="4.72833">
        <ele>39.61</ele>
        <time>2019-05-28T10:40:49.000Z</time>
      </trkpt>
      <trkpt lat="44.20227" lon="4.72845">
        <ele>39.66</ele>
        <time>2019-05-28T10:40:54.000Z</time>
      </trkpt>
      <trkpt lat="44.2021" lon="4.72847">
        <ele>38.52</ele>
        <time>2019-05-28T10:40:59.000Z</time>
      </trkpt>
      <trkpt lat="44.20201" lon="4.72845">
        <ele>42.28</ele>
        <time>2019-05-28T10:42:37.000Z</time>
      </trkpt>
      <trkpt lat="44.20207" lon="4.72835">
        <ele>42.67</ele>
        <time>2019-05-28T10:42:42.000Z</time>
      </trkpt>
      <trkpt lat="44.20205" lon="4.72822">
        <ele>43.48</ele>
        <time>2019-05-28T10:42:47.000Z</time>
      </trkpt>
      <trkpt lat="44.20197" lon="4.72815">
        <ele>47.21</ele>
        <time>2019-05-28T10:44:13.000Z</time>
      </trkpt>
      <trkpt lat="44.20188" lon="4.72812">
        <ele>41.46</ele>
        <time>2019-05-28T10:45:51.000Z</time>
      </trkpt>
      <trkpt lat="44.20196" lon="4.72809">
        <ele>43.47</ele>
        <time>2019-05-28T10:52:28.000Z</time>
      </trkpt>
      <trkpt lat="44.20195" lon="4.72823">
        <ele>38.22</ele>
        <time>2019-05-28T11:46:12.000Z</time>
      </trkpt>
      <trkpt lat="44.20198" lon="4.72837">
        <ele>39.48</ele>
        <time>2019-05-28T11:46:22.000Z</time>
      </trkpt>
      <trkpt lat="44.20203" lon="4.72854">
        <ele>40.23</ele>
        <time>2019-05-28T11:46:27.000Z</time>
      </trkpt>
      <trkpt lat="44.20212" lon="4.72868">
        <ele>42.16</ele>
        <time>2019-05-28T11:46:32.000Z</time>
      </trkpt>
      <trkpt lat="44.20218" lon="4.72882">
        <ele>42.51</ele>
        <time>2019-05-28T11:46:37.000Z</time>
      </trkpt>
      <trkpt lat="44.20227" lon="4.72893">
        <ele>43.47</ele>
        <time>2019-05-28T11:46:42.000Z</time>
      </trkpt>
      <trkpt lat="44.20237" lon="4.72898">
        <ele>43.72</ele>
        <time>2019-05-28T11:46:47.000Z</time>
      </trkpt>
      <trkpt lat="44.20249" lon="4.72902">
        <ele>43.22</ele>
        <time>2019-05-28T11:46:52.000Z</time>
      </trkpt>
      <trkpt lat="44.20257" lon="4.72911">
        <ele>46.44</ele>
        <time>2019-05-28T11:46:57.000Z</time>
      </trkpt>
      <trkpt lat="44.20266" lon="4.72923">
        <ele>47.23</ele>
        <time>2019-05-28T11:47:02.000Z</time>
      </trkpt>
      <trkpt lat="44.20272" lon="4.72936">
        <ele>47.41</ele>
        <time>2019-05-28T11:47:07.000Z</time>
      </trkpt>
      <trkpt lat="44.20278" lon="4.72945">
        <ele>46.47</ele>
        <time>2019-05-28T11:47:12.000Z</time>
      </trkpt>
      <trkpt lat="44.20287" lon="4.72954">
        <ele>47.69</ele>
        <time>2019-05-28T11:47:17.000Z</time>
      </trkpt>
      <trkpt lat="44.20294" lon="4.72962">
        <ele>50.4</ele>
        <time>2019-05-28T11:47:22.000Z</time>
      </trkpt>
      <trkpt lat="44.20287" lon="4.7297">
        <ele>52.96</ele>
        <time>2019-05-28T11:47:27.000Z</time>
      </trkpt>
      <trkpt lat="44.20282" lon="4.72982">
        <ele>52.49</ele>
        <time>2019-05-28T11:47:33.000Z</time>
      </trkpt>
      <trkpt lat="44.20286" lon="4.72969">
        <ele>54.23</ele>
        <time>2019-05-28T11:47:48.000Z</time>
      </trkpt>
      <trkpt lat="44.203" lon="4.72972">
        <ele>56.2</ele>
        <time>2019-05-28T11:47:53.000Z</time>
      </trkpt>
      <trkpt lat="44.20309" lon="4.72979">
        <ele>58.2</ele>
        <time>2019-05-28T11:47:58.000Z</time>
      </trkpt>
      <trkpt lat="44.20318" lon="4.72975">
        <ele>58.42</ele>
        <time>2019-05-28T11:48:03.000Z</time>
      </trkpt>
      <trkpt lat="44.20327" lon="4.72979">
        <ele>56.55</ele>
        <time>2019-05-28T11:48:08.000Z</time>
      </trkpt>
      <trkpt lat="44.20337" lon="4.72979">
        <ele>54.66</ele>
        <time>2019-05-28T11:48:14.000Z</time>
      </trkpt>
      <trkpt lat="44.20348" lon="4.72982">
        <ele>53.28</ele>
        <time>2019-05-28T11:48:20.000Z</time>
      </trkpt>
      <trkpt lat="44.20356" lon="4.72987">
        <ele>53.7</ele>
        <time>2019-05-28T11:48:27.000Z</time>
      </trkpt>
      <trkpt lat="44.20365" lon="4.7299">
        <ele>51.47</ele>
        <time>2019-05-28T11:48:34.000Z</time>
      </trkpt>
      <trkpt lat="44.20373" lon="4.72996">
        <ele>53.26</ele>
        <time>2019-05-28T11:48:42.000Z</time>
      </trkpt>
      <trkpt lat="44.20361" lon="4.72986">
        <ele>60.84</ele>
        <time>2019-05-28T11:50:28.000Z</time>
      </trkpt>
      <trkpt lat="44.2037" lon="4.72981">
        <ele>72</ele>
        <time>2019-05-28T11:50:35.000Z</time>
      </trkpt>
      <trkpt lat="44.20381" lon="4.72988">
        <ele>72.48</ele>
        <time>2019-05-28T11:50:40.000Z</time>
      </trkpt>
      <trkpt lat="44.20388" lon="4.72998">
        <ele>77.93</ele>
        <time>2019-05-28T11:50:45.000Z</time>
      </trkpt>
      <trkpt lat="44.20394" lon="4.73008">
        <ele>73.7</ele>
        <time>2019-05-28T11:50:51.000Z</time>
      </trkpt>
      <trkpt lat="44.20401" lon="4.73017">
        <ele>74.28</ele>
        <time>2019-05-28T11:50:56.000Z</time>
      </trkpt>
      <trkpt lat="44.20408" lon="4.73008">
        <ele>66.87</ele>
        <time>2019-05-28T11:51:03.000Z</time>
      </trkpt>
      <trkpt lat="44.20406" lon="4.72994">
        <ele>65.17</ele>
        <time>2019-05-28T11:51:08.000Z</time>
      </trkpt>
      <trkpt lat="44.20398" lon="4.73">
        <ele>71.69</ele>
        <time>2019-05-28T11:51:16.000Z</time>
      </trkpt>
      <trkpt lat="44.20403" lon="4.73012">
        <ele>80.48</ele>
        <time>2019-05-28T11:53:53.000Z</time>
      </trkpt>
      <trkpt lat="44.2041" lon="4.73021">
        <ele>81.71</ele>
        <time>2019-05-28T11:54:00.000Z</time>
      </trkpt>
      <trkpt lat="44.20418" lon="4.73026">
        <ele>81.19</ele>
        <time>2019-05-28T11:54:09.000Z</time>
      </trkpt>
      <trkpt lat="44.20426" lon="4.73035">
        <ele>85.67</ele>
        <time>2019-05-28T11:54:19.000Z</time>
      </trkpt>
      <trkpt lat="44.20435" lon="4.73042">
        <ele>87.45</ele>
        <time>2019-05-28T11:54:27.000Z</time>
      </trkpt>
      <trkpt lat="44.20443" lon="4.73046">
        <ele>85.63</ele>
        <time>2019-05-28T11:54:36.000Z</time>
      </trkpt>
      <trkpt lat="44.20453" lon="4.7305">
        <ele>85.47</ele>
        <time>2019-05-28T11:54:41.000Z</time>
      </trkpt>
      <trkpt lat="44.20462" lon="4.73045">
        <ele>88.22</ele>
        <time>2019-05-28T11:54:50.000Z</time>
      </trkpt>
      <trkpt lat="44.20472" lon="4.73041">
        <ele>87.7</ele>
        <time>2019-05-28T11:54:58.000Z</time>
      </trkpt>
      <trkpt lat="44.20481" lon="4.73044">
        <ele>89.72</ele>
        <time>2019-05-28T11:55:08.000Z</time>
      </trkpt>
      <trkpt lat="44.2049" lon="4.7305">
        <ele>94.63</ele>
        <time>2019-05-28T11:55:15.000Z</time>
      </trkpt>
      <trkpt lat="44.20496" lon="4.7306">
        <ele>98.5</ele>
        <time>2019-05-28T11:55:22.000Z</time>
      </trkpt>
      <trkpt lat="44.20505" lon="4.73061">
        <ele>100.46</ele>
        <time>2019-05-28T11:55:29.000Z</time>
      </trkpt>
      <trkpt lat="44.20514" lon="4.73056">
        <ele>102.22</ele>
        <time>2019-05-28T11:55:37.000Z</time>
      </trkpt>
      <trkpt lat="44.20522" lon="4.73048">
        <ele>103.71</ele>
        <time>2019-05-28T11:55:45.000Z</time>
      </trkpt>
      <trkpt lat="44.2053" lon="4.73042">
        <ele>105.43</ele>
        <time>2019-05-28T11:55:55.000Z</time>
      </trkpt>
      <trkpt lat="44.20537" lon="4.73033">
        <ele>105.42</ele>
        <time>2019-05-28T11:56:00.000Z</time>
      </trkpt>
      <trkpt lat="44.20544" lon="4.73025">
        <ele>108.45</ele>
        <time>2019-05-28T11:56:10.000Z</time>
      </trkpt>
      <trkpt lat="44.20552" lon="4.73018">
        <ele>109.16</ele>
        <time>2019-05-28T11:56:21.000Z</time>
      </trkpt>
      <trkpt lat="44.20558" lon="4.73008">
        <ele>111.45</ele>
        <time>2019-05-28T11:56:40.000Z</time>
      </trkpt>
      <trkpt lat="44.20566" lon="4.72998">
        <ele>114.26</ele>
        <time>2019-05-28T11:56:49.000Z</time>
      </trkpt>
      <trkpt lat="44.20576" lon="4.72996">
        <ele>118.37</ele>
        <time>2019-05-28T11:56:58.000Z</time>
      </trkpt>
      <trkpt lat="44.20586" lon="4.72997">
        <ele>122.16</ele>
        <time>2019-05-28T11:57:08.000Z</time>
      </trkpt>
      <trkpt lat="44.20594" lon="4.72992">
        <ele>124.4</ele>
        <time>2019-05-28T11:57:16.000Z</time>
      </trkpt>
      <trkpt lat="44.20598" lon="4.7298">
        <ele>126.77</ele>
        <time>2019-05-28T11:57:30.000Z</time>
      </trkpt>
      <trkpt lat="44.20608" lon="4.72978">
        <ele>129.4</ele>
        <time>2019-05-28T11:57:42.000Z</time>
      </trkpt>
      <trkpt lat="44.20615" lon="4.72988">
        <ele>131.76</ele>
        <time>2019-05-28T11:57:51.000Z</time>
      </trkpt>
      <trkpt lat="44.20624" lon="4.72991">
        <ele>129.73</ele>
        <time>2019-05-28T11:57:56.000Z</time>
      </trkpt>
      <trkpt lat="44.20624" lon="4.72978">
        <ele>132.2</ele>
        <time>2019-05-28T11:58:02.000Z</time>
      </trkpt>
      <trkpt lat="44.20619" lon="4.72966">
        <ele>133.4</ele>
        <time>2019-05-28T11:58:09.000Z</time>
      </trkpt>
      <trkpt lat="44.20615" lon="4.72955">
        <ele>133.53</ele>
        <time>2019-05-28T11:58:16.000Z</time>
      </trkpt>
      <trkpt lat="44.20607" lon="4.72947">
        <ele>139.13</ele>
        <time>2019-05-28T11:58:26.000Z</time>
      </trkpt>
      <trkpt lat="44.20601" lon="4.72939">
        <ele>141.4</ele>
        <time>2019-05-28T11:58:38.000Z</time>
      </trkpt>
      <trkpt lat="44.20592" lon="4.72933">
        <ele>140.46</ele>
        <time>2019-05-28T11:58:49.000Z</time>
      </trkpt>
      <trkpt lat="44.20583" lon="4.72929">
        <ele>156.33</ele>
        <time>2019-05-28T12:00:32.000Z</time>
      </trkpt>
      <trkpt lat="44.20574" lon="4.72934">
        <ele>162.56</ele>
        <time>2019-05-28T12:01:11.000Z</time>
      </trkpt>
      <trkpt lat="44.20576" lon="4.72921">
        <ele>160.5</ele>
        <time>2019-05-28T12:01:21.000Z</time>
      </trkpt>
      <trkpt lat="44.20586" lon="4.72922">
        <ele>160.94</ele>
        <time>2019-05-28T12:01:26.000Z</time>
      </trkpt>
      <trkpt lat="44.20578" lon="4.72931">
        <ele>164.34</ele>
        <time>2019-05-28T12:01:36.000Z</time>
      </trkpt>
      <trkpt lat="44.20576" lon="4.72917">
        <ele>163.17</ele>
        <time>2019-05-28T12:01:42.000Z</time>
      </trkpt>
      <trkpt lat="44.20583" lon="4.72908">
        <ele>162.96</ele>
        <time>2019-05-28T12:01:47.000Z</time>
      </trkpt>
      <trkpt lat="44.20587" lon="4.72925">
        <ele>161.71</ele>
        <time>2019-05-28T12:02:01.000Z</time>
      </trkpt>
      <trkpt lat="44.20578" lon="4.72929">
        <ele>160.64</ele>
        <time>2019-05-28T12:02:19.000Z</time>
      </trkpt>
      <trkpt lat="44.20569" lon="4.72937">
        <ele>166.38</ele>
        <time>2019-05-28T12:02:27.000Z</time>
      </trkpt>
      <trkpt lat="44.20574" lon="4.72926">
        <ele>159.34</ele>
        <time>2019-05-28T12:02:42.000Z</time>
      </trkpt>
      <trkpt lat="44.20566" lon="4.72921">
        <ele>152.54</ele>
        <time>2019-05-28T12:02:55.000Z</time>
      </trkpt>
      <trkpt lat="44.20569" lon="4.72907">
        <ele>147.39</ele>
        <time>2019-05-28T12:03:18.000Z</time>
      </trkpt>
      <trkpt lat="44.20577" lon="4.72899">
        <ele>152.18</ele>
        <time>2019-05-28T12:04:09.000Z</time>
      </trkpt>
      <trkpt lat="44.20587" lon="4.729">
        <ele>154.71</ele>
        <time>2019-05-28T12:04:22.000Z</time>
      </trkpt>
      <trkpt lat="44.20596" lon="4.72901">
        <ele>153.45</ele>
        <time>2019-05-28T12:04:42.000Z</time>
      </trkpt>
      <trkpt lat="44.20605" lon="4.72905">
        <ele>154.4</ele>
        <time>2019-05-28T12:05:00.000Z</time>
      </trkpt>
      <trkpt lat="44.20613" lon="4.72908">
        <ele>156.45</ele>
        <time>2019-05-28T12:05:08.000Z</time>
      </trkpt>
      <trkpt lat="44.20604" lon="4.72906">
        <ele>155.45</ele>
        <time>2019-05-28T12:06:09.000Z</time>
      </trkpt>
      <trkpt lat="44.20597" lon="4.72899">
        <ele>151.72</ele>
        <time>2019-05-28T12:06:38.000Z</time>
      </trkpt>
      <trkpt lat="44.20589" lon="4.7289">
        <ele>152.46</ele>
        <time>2019-05-28T12:06:46.000Z</time>
      </trkpt>
      <trkpt lat="44.20578" lon="4.72889">
        <ele>158.47</ele>
        <time>2019-05-28T12:07:18.000Z</time>
      </trkpt>
      <trkpt lat="44.2057" lon="4.72883">
        <ele>154.22</ele>
        <time>2019-05-28T12:07:40.000Z</time>
      </trkpt>
      <trkpt lat="44.20562" lon="4.72927">
        <ele>149.46</ele>
        <time>2019-05-28T12:10:18.000Z</time>
      </trkpt>
      <trkpt lat="44.20554" lon="4.72918">
        <ele>152.87</ele>
        <time>2019-05-28T12:10:26.000Z</time>
      </trkpt>
      <trkpt lat="44.20558" lon="4.72902">
        <ele>159.54</ele>
        <time>2019-05-28T12:10:31.000Z</time>
      </trkpt>
      <trkpt lat="44.20565" lon="4.72894">
        <ele>158.39</ele>
        <time>2019-05-28T12:10:51.000Z</time>
      </trkpt>
      <trkpt lat="44.20573" lon="4.72901">
        <ele>145.99</ele>
        <time>2019-05-28T12:16:42.000Z</time>
      </trkpt>
      <trkpt lat="44.2058" lon="4.72914">
        <ele>145.4</ele>
        <time>2019-05-28T12:17:01.000Z</time>
      </trkpt>
      <trkpt lat="44.20589" lon="4.72913">
        <ele>147.71</ele>
        <time>2019-05-28T12:17:09.000Z</time>
      </trkpt>
      <trkpt lat="44.20596" lon="4.72923">
        <ele>148.96</ele>
        <time>2019-05-28T12:17:14.000Z</time>
      </trkpt>
      <trkpt lat="44.20604" lon="4.72936">
        <ele>149.46</ele>
        <time>2019-05-28T12:17:19.000Z</time>
      </trkpt>
      <trkpt lat="44.20606" lon="4.72951">
        <ele>148.47</ele>
        <time>2019-05-28T12:17:33.000Z</time>
      </trkpt>
      <trkpt lat="44.20587" lon="4.72919">
        <ele>149.45</ele>
        <time>2019-05-28T12:17:38.000Z</time>
      </trkpt>
      <trkpt lat="44.20578" lon="4.72912">
        <ele>147.4</ele>
        <time>2019-05-28T12:17:46.000Z</time>
      </trkpt>
      <trkpt lat="44.20577" lon="4.72925">
        <ele>148.46</ele>
        <time>2019-05-28T12:17:54.000Z</time>
      </trkpt>
      <trkpt lat="44.20569" lon="4.72918">
        <ele>144.72</ele>
        <time>2019-05-28T12:18:11.000Z</time>
      </trkpt>
      <trkpt lat="44.20567" lon="4.72905">
        <ele>142.73</ele>
        <time>2019-05-28T12:18:18.000Z</time>
      </trkpt>
      <trkpt lat="44.20563" lon="4.72917">
        <ele>143.46</ele>
        <time>2019-05-28T12:18:33.000Z</time>
      </trkpt>
      <trkpt lat="44.20559" lon="4.72929">
        <ele>142.45</ele>
        <time>2019-05-28T12:18:48.000Z</time>
      </trkpt>
      <trkpt lat="44.2055" lon="4.72934">
        <ele>145.39</ele>
        <time>2019-05-28T12:18:54.000Z</time>
      </trkpt>
      <trkpt lat="44.2056" lon="4.72936">
        <ele>145.46</ele>
        <time>2019-05-28T12:19:01.000Z</time>
      </trkpt>
      <trkpt lat="44.20562" lon="4.72923">
        <ele>144.71</ele>
        <time>2019-05-28T12:19:13.000Z</time>
      </trkpt>
      <trkpt lat="44.20571" lon="4.7293">
        <ele>150.53</ele>
        <time>2019-05-28T12:20:08.000Z</time>
      </trkpt>
      <trkpt lat="44.20554" lon="4.72957">
        <ele>145.71</ele>
        <time>2019-05-28T12:21:30.000Z</time>
      </trkpt>
      <trkpt lat="44.2055" lon="4.72945">
        <ele>140.47</ele>
        <time>2019-05-28T12:21:45.000Z</time>
      </trkpt>
      <trkpt lat="44.20541" lon="4.72941">
        <ele>139.78</ele>
        <time>2019-05-28T12:21:54.000Z</time>
      </trkpt>
      <trkpt lat="44.20532" lon="4.7294">
        <ele>135.53</ele>
        <time>2019-05-28T12:22:13.000Z</time>
      </trkpt>
      <trkpt lat="44.2053" lon="4.72953">
        <ele>134.71</ele>
        <time>2019-05-28T12:23:04.000Z</time>
      </trkpt>
      <trkpt lat="44.20522" lon="4.72961">
        <ele>132.73</ele>
        <time>2019-05-28T12:23:11.000Z</time>
      </trkpt>
      <trkpt lat="44.20514" lon="4.72968">
        <ele>131.7</ele>
        <time>2019-05-28T12:23:18.000Z</time>
      </trkpt>
      <trkpt lat="44.20504" lon="4.72973">
        <ele>126.53</ele>
        <time>2019-05-28T12:23:26.000Z</time>
      </trkpt>
      <trkpt lat="44.20514" lon="4.72967">
        <ele>128.48</ele>
        <time>2019-05-28T12:23:56.000Z</time>
      </trkpt>
      <trkpt lat="44.20523" lon="4.72963">
        <ele>130.71</ele>
        <time>2019-05-28T12:24:05.000Z</time>
      </trkpt>
      <trkpt lat="44.2053" lon="4.72954">
        <ele>131.65</ele>
        <time>2019-05-28T12:24:13.000Z</time>
      </trkpt>
      <trkpt lat="44.20532" lon="4.72942">
        <ele>135.39</ele>
        <time>2019-05-28T12:24:24.000Z</time>
      </trkpt>
      <trkpt lat="44.20526" lon="4.72931">
        <ele>139.46</ele>
        <time>2019-05-28T12:24:32.000Z</time>
      </trkpt>
      <trkpt lat="44.20533" lon="4.72941">
        <ele>138.23</ele>
        <time>2019-05-28T12:24:45.000Z</time>
      </trkpt>
      <trkpt lat="44.20542" lon="4.72937">
        <ele>141.25</ele>
        <time>2019-05-28T12:24:56.000Z</time>
      </trkpt>
      <trkpt lat="44.20546" lon="4.72926">
        <ele>141.2</ele>
        <time>2019-05-28T12:25:03.000Z</time>
      </trkpt>
      <trkpt lat="44.20553" lon="4.72918">
        <ele>141.46</ele>
        <time>2019-05-28T12:25:11.000Z</time>
      </trkpt>
      <trkpt lat="44.20558" lon="4.7293">
        <ele>136.9</ele>
        <time>2019-05-28T12:26:58.000Z</time>
      </trkpt>
      <trkpt lat="44.20566" lon="4.72925">
        <ele>136.77</ele>
        <time>2019-05-28T12:27:13.000Z</time>
      </trkpt>
      <trkpt lat="44.20576" lon="4.72926">
        <ele>140.17</ele>
        <time>2019-05-28T12:27:24.000Z</time>
      </trkpt>
      <trkpt lat="44.20585" lon="4.72928">
        <ele>141.46</ele>
        <time>2019-05-28T12:27:41.000Z</time>
      </trkpt>
      <trkpt lat="44.20594" lon="4.72932">
        <ele>147.13</ele>
        <time>2019-05-28T12:27:54.000Z</time>
      </trkpt>
      <trkpt lat="44.20602" lon="4.72938">
        <ele>138.71</ele>
        <time>2019-05-28T12:28:09.000Z</time>
      </trkpt>
      <trkpt lat="44.20607" lon="4.72949">
        <ele>133.78</ele>
        <time>2019-05-28T12:28:17.000Z</time>
      </trkpt>
      <trkpt lat="44.20614" lon="4.7296">
        <ele>128.46</ele>
        <time>2019-05-28T12:28:38.000Z</time>
      </trkpt>
      <trkpt lat="44.2062" lon="4.72971">
        <ele>125.42</ele>
        <time>2019-05-28T12:28:46.000Z</time>
      </trkpt>
      <trkpt lat="44.20619" lon="4.72985">
        <ele>124.48</ele>
        <time>2019-05-28T12:28:54.000Z</time>
      </trkpt>
      <trkpt lat="44.20611" lon="4.72978">
        <ele>122.45</ele>
        <time>2019-05-28T12:29:06.000Z</time>
      </trkpt>
      <trkpt lat="44.20601" lon="4.72976">
        <ele>118.79</ele>
        <time>2019-05-28T12:29:13.000Z</time>
      </trkpt>
      <trkpt lat="44.20593" lon="4.72983">
        <ele>115.72</ele>
        <time>2019-05-28T12:29:20.000Z</time>
      </trkpt>
      <trkpt lat="44.20589" lon="4.72996">
        <ele>114.53</ele>
        <time>2019-05-28T12:29:29.000Z</time>
      </trkpt>
      <trkpt lat="44.20578" lon="4.72999">
        <ele>113.47</ele>
        <time>2019-05-28T12:29:35.000Z</time>
      </trkpt>
      <trkpt lat="44.20567" lon="4.72996">
        <ele>110.53</ele>
        <time>2019-05-28T12:29:40.000Z</time>
      </trkpt>
      <trkpt lat="44.20559" lon="4.73004">
        <ele>105.53</ele>
        <time>2019-05-28T12:29:47.000Z</time>
      </trkpt>
      <trkpt lat="44.20551" lon="4.73014">
        <ele>99.48</ele>
        <time>2019-05-28T12:29:57.000Z</time>
      </trkpt>
      <trkpt lat="44.20543" lon="4.73024">
        <ele>97.47</ele>
        <time>2019-05-28T12:30:02.000Z</time>
      </trkpt>
      <trkpt lat="44.20535" lon="4.73033">
        <ele>96.28</ele>
        <time>2019-05-28T12:30:08.000Z</time>
      </trkpt>
      <trkpt lat="44.20526" lon="4.73036">
        <ele>96.39</ele>
        <time>2019-05-28T12:30:14.000Z</time>
      </trkpt>
      <trkpt lat="44.20519" lon="4.73045">
        <ele>90.12</ele>
        <time>2019-05-28T12:30:19.000Z</time>
      </trkpt>
      <trkpt lat="44.2051" lon="4.73054">
        <ele>90.22</ele>
        <time>2019-05-28T12:30:27.000Z</time>
      </trkpt>
      <trkpt lat="44.20501" lon="4.7306">
        <ele>86.78</ele>
        <time>2019-05-28T12:30:34.000Z</time>
      </trkpt>
      <trkpt lat="44.20491" lon="4.73058">
        <ele>86.65</ele>
        <time>2019-05-28T12:30:39.000Z</time>
      </trkpt>
      <trkpt lat="44.20482" lon="4.73052">
        <ele>85.52</ele>
        <time>2019-05-28T12:30:48.000Z</time>
      </trkpt>
      <trkpt lat="44.20474" lon="4.73042">
        <ele>82.03</ele>
        <time>2019-05-28T12:30:54.000Z</time>
      </trkpt>
      <trkpt lat="44.20465" lon="4.73039">
        <ele>79.72</ele>
        <time>2019-05-28T12:30:59.000Z</time>
      </trkpt>
      <trkpt lat="44.20456" lon="4.73043">
        <ele>76.73</ele>
        <time>2019-05-28T12:31:06.000Z</time>
      </trkpt>
      <trkpt lat="44.20446" lon="4.73045">
        <ele>75.47</ele>
        <time>2019-05-28T12:31:13.000Z</time>
      </trkpt>
      <trkpt lat="44.20436" lon="4.73038">
        <ele>71.7</ele>
        <time>2019-05-28T12:31:20.000Z</time>
      </trkpt>
      <trkpt lat="44.20427" lon="4.73033">
        <ele>71.28</ele>
        <time>2019-05-28T12:31:27.000Z</time>
      </trkpt>
      <trkpt lat="44.20419" lon="4.73026">
        <ele>74.22</ele>
        <time>2019-05-28T12:31:35.000Z</time>
      </trkpt>
      <trkpt lat="44.20412" lon="4.73018">
        <ele>70.52</ele>
        <time>2019-05-28T12:31:40.000Z</time>
      </trkpt>
      <trkpt lat="44.20404" lon="4.7301">
        <ele>68.98</ele>
        <time>2019-05-28T12:31:48.000Z</time>
      </trkpt>
      <trkpt lat="44.20397" lon="4.73">
        <ele>67.76</ele>
        <time>2019-05-28T12:31:56.000Z</time>
      </trkpt>
      <trkpt lat="44.20398" lon="4.72986">
        <ele>67.51</ele>
        <time>2019-05-28T12:32:04.000Z</time>
      </trkpt>
      <trkpt lat="44.20393" lon="4.72975">
        <ele>66.53</ele>
        <time>2019-05-28T12:32:11.000Z</time>
      </trkpt>
      <trkpt lat="44.20396" lon="4.72988">
        <ele>65.55</ele>
        <time>2019-05-28T12:32:53.000Z</time>
      </trkpt>
      <trkpt lat="44.20399" lon="4.73">
        <ele>64.71</ele>
        <time>2019-05-28T12:33:01.000Z</time>
      </trkpt>
      <trkpt lat="44.20388" lon="4.72997">
        <ele>67.97</ele>
        <time>2019-05-28T12:35:21.000Z</time>
      </trkpt>
      <trkpt lat="44.20376" lon="4.72983">
        <ele>65.47</ele>
        <time>2019-05-28T12:35:26.000Z</time>
      </trkpt>
      <trkpt lat="44.20362" lon="4.72984">
        <ele>62.6</ele>
        <time>2019-05-28T12:35:31.000Z</time>
      </trkpt>
      <trkpt lat="44.20346" lon="4.72981">
        <ele>59.55</ele>
        <time>2019-05-28T12:35:36.000Z</time>
      </trkpt>
      <trkpt lat="44.20329" lon="4.72976">
        <ele>59.23</ele>
        <time>2019-05-28T12:35:41.000Z</time>
      </trkpt>
      <trkpt lat="44.20312" lon="4.72974">
        <ele>55.8</ele>
        <time>2019-05-28T12:35:46.000Z</time>
      </trkpt>
      <trkpt lat="44.20297" lon="4.72972">
        <ele>54.48</ele>
        <time>2019-05-28T12:35:51.000Z</time>
      </trkpt>
      <trkpt lat="44.20284" lon="4.7296">
        <ele>53.47</ele>
        <time>2019-05-28T12:35:56.000Z</time>
      </trkpt>
      <trkpt lat="44.20273" lon="4.72939">
        <ele>50.72</ele>
        <time>2019-05-28T12:36:01.000Z</time>
      </trkpt>
      <trkpt lat="44.20262" lon="4.72918">
        <ele>47.55</ele>
        <time>2019-05-28T12:36:06.000Z</time>
      </trkpt>
      <trkpt lat="44.20251" lon="4.72903">
        <ele>45.78</ele>
        <time>2019-05-28T12:36:11.000Z</time>
      </trkpt>
      <trkpt lat="44.20239" lon="4.729">
        <ele>41.8</ele>
        <time>2019-05-28T12:36:16.000Z</time>
      </trkpt>
      <trkpt lat="44.2022" lon="4.72879">
        <ele>43.45</ele>
        <time>2019-05-28T12:36:21.000Z</time>
      </trkpt>
      <trkpt lat="44.20208" lon="4.7286">
        <ele>39.68</ele>
        <time>2019-05-28T12:36:26.000Z</time>
      </trkpt>
      <trkpt lat="44.20196" lon="4.72863">
        <ele>38.47</ele>
        <time>2019-05-28T12:36:31.000Z</time>
      </trkpt>
      <trkpt lat="44.20188" lon="4.72871">
        <ele>35.97</ele>
        <time>2019-05-28T12:36:36.000Z</time>
      </trkpt>
      <trkpt lat="44.20177" lon="4.7288">
        <ele>33.72</ele>
        <time>2019-05-28T12:36:41.000Z</time>
      </trkpt>
      <trkpt lat="44.20163" lon="4.72892">
        <ele>32.24</ele>
        <time>2019-05-28T12:36:46.000Z</time>
      </trkpt>
      <trkpt lat="44.20142" lon="4.72903">
        <ele>31.53</ele>
        <time>2019-05-28T12:36:51.000Z</time>
      </trkpt>
      <trkpt lat="44.20124" lon="4.72927">
        <ele>31.53</ele>
        <time>2019-05-28T12:36:56.000Z</time>
      </trkpt>
      <trkpt lat="44.20106" lon="4.72947">
        <ele>30.66</ele>
        <time>2019-05-28T12:37:01.000Z</time>
      </trkpt>
      <trkpt lat="44.20086" lon="4.72969">
        <ele>28.49</ele>
        <time>2019-05-28T12:37:06.000Z</time>
      </trkpt>
      <trkpt lat="44.20069" lon="4.72989">
        <ele>28.53</ele>
        <time>2019-05-28T12:37:11.000Z</time>
      </trkpt>
      <trkpt lat="44.2006" lon="4.72994">
        <ele>29.16</ele>
        <time>2019-05-28T12:37:16.000Z</time>
      </trkpt>
      <trkpt lat="44.20054" lon="4.73004">
        <ele>30.47</ele>
        <time>2019-05-28T12:37:24.000Z</time>
      </trkpt>
      <trkpt lat="44.20039" lon="4.73021">
        <ele>30.47</ele>
        <time>2019-05-28T12:37:29.000Z</time>
      </trkpt>
      <trkpt lat="44.20021" lon="4.73041">
        <ele>28.55</ele>
        <time>2019-05-28T12:37:34.000Z</time>
      </trkpt>
      <trkpt lat="44.20005" lon="4.73064">
        <ele>28.47</ele>
        <time>2019-05-28T12:37:39.000Z</time>
      </trkpt>
      <trkpt lat="44.19983" lon="4.73064">
        <ele>27.77</ele>
        <time>2019-05-28T12:37:44.000Z</time>
      </trkpt>
      <trkpt lat="44.19967" lon="4.73036">
        <ele>27.53</ele>
        <time>2019-05-28T12:37:49.000Z</time>
      </trkpt>
      <trkpt lat="44.19963" lon="4.73004">
        <ele>29.21</ele>
        <time>2019-05-28T12:37:54.000Z</time>
      </trkpt>
      <trkpt lat="44.19962" lon="4.72975">
        <ele>29.72</ele>
        <time>2019-05-28T12:37:59.000Z</time>
      </trkpt>
      <trkpt lat="44.19961" lon="4.7295">
        <ele>31.41</ele>
        <time>2019-05-28T12:38:04.000Z</time>
      </trkpt>
      <trkpt lat="44.19961" lon="4.72927">
        <ele>32.47</ele>
        <time>2019-05-28T12:38:09.000Z</time>
      </trkpt>
      <trkpt lat="44.19959" lon="4.72904">
        <ele>32.52</ele>
        <time>2019-05-28T12:38:14.000Z</time>
      </trkpt>
      <trkpt lat="44.19951" lon="4.7288">
        <ele>33.41</ele>
        <time>2019-05-28T12:38:19.000Z</time>
      </trkpt>
      <trkpt lat="44.19942" lon="4.72859">
        <ele>33.71</ele>
        <time>2019-05-28T12:38:24.000Z</time>
      </trkpt>
      <trkpt lat="44.19931" lon="4.72836">
        <ele>33.47</ele>
        <time>2019-05-28T12:38:29.000Z</time>
      </trkpt>
      <trkpt lat="44.19918" lon="4.72811">
        <ele>32.71</ele>
        <time>2019-05-28T12:38:34.000Z</time>
      </trkpt>
      <trkpt lat="44.19905" lon="4.72782">
        <ele>33.41</ele>
        <time>2019-05-28T12:38:39.000Z</time>
      </trkpt>
      <trkpt lat="44.19887" lon="4.72753">
        <ele>33.47</ele>
        <time>2019-05-28T12:38:44.000Z</time>
      </trkpt>
      <trkpt lat="44.19862" lon="4.72729">
        <ele>31.52</ele>
        <time>2019-05-28T12:38:49.000Z</time>
      </trkpt>
      <trkpt lat="44.1983" lon="4.72717">
        <ele>30.47</ele>
        <time>2019-05-28T12:38:54.000Z</time>
      </trkpt>
      <trkpt lat="44.19793" lon="4.72723">
        <ele>29.53</ele>
        <time>2019-05-28T12:38:59.000Z</time>
      </trkpt>
      <trkpt lat="44.19763" lon="4.72732">
        <ele>28.29</ele>
        <time>2019-05-28T12:39:04.000Z</time>
      </trkpt>
      <trkpt lat="44.1977" lon="4.72717">
        <ele>28.41</ele>
        <time>2019-05-28T12:39:09.000Z</time>
      </trkpt>
      <trkpt lat="44.19793" lon="4.72703">
        <ele>29.47</ele>
        <time>2019-05-28T12:39:14.000Z</time>
      </trkpt>
      <trkpt lat="44.19816" lon="4.72696">
        <ele>27.48</ele>
        <time>2019-05-28T12:39:19.000Z</time>
      </trkpt>
      <trkpt lat="44.1984" lon="4.72696">
        <ele>27.72</ele>
        <time>2019-05-28T12:39:24.000Z</time>
      </trkpt>
      <trkpt lat="44.19865" lon="4.72701">
        <ele>25.55</ele>
        <time>2019-05-28T12:39:29.000Z</time>
      </trkpt>
      <trkpt lat="44.19892" lon="4.72706">
        <ele>26.47</ele>
        <time>2019-05-28T12:39:34.000Z</time>
      </trkpt>
      <trkpt lat="44.19916" lon="4.72712">
        <ele>24.49</ele>
        <time>2019-05-28T12:39:39.000Z</time>
      </trkpt>
      <trkpt lat="44.19941" lon="4.72716">
        <ele>26.22</ele>
        <time>2019-05-28T12:39:44.000Z</time>
      </trkpt>
      <trkpt lat="44.19964" lon="4.72708">
        <ele>28.4</ele>
        <time>2019-05-28T12:39:49.000Z</time>
      </trkpt>
      <trkpt lat="44.19987" lon="4.72693">
        <ele>28.52</ele>
        <time>2019-05-28T12:39:54.000Z</time>
      </trkpt>
      <trkpt lat="44.20005" lon="4.72678">
        <ele>27.55</ele>
        <time>2019-05-28T12:39:59.000Z</time>
      </trkpt>
      <trkpt lat="44.20003" lon="4.7266">
        <ele>27.66</ele>
        <time>2019-05-28T12:40:04.000Z</time>
      </trkpt>
      <trkpt lat="44.19983" lon="4.72641">
        <ele>27.7</ele>
        <time>2019-05-28T12:40:09.000Z</time>
      </trkpt>
      <trkpt lat="44.19961" lon="4.72634">
        <ele>28.66</ele>
        <time>2019-05-28T12:40:14.000Z</time>
      </trkpt>
      <trkpt lat="44.19939" lon="4.72627">
        <ele>29.47</ele>
        <time>2019-05-28T12:40:19.000Z</time>
      </trkpt>
      <trkpt lat="44.19916" lon="4.72622">
        <ele>29.46</ele>
        <time>2019-05-28T12:40:24.000Z</time>
      </trkpt>
      <trkpt lat="44.19891" lon="4.72615">
        <ele>29.47</ele>
        <time>2019-05-28T12:40:29.000Z</time>
      </trkpt>
      <trkpt lat="44.19866" lon="4.72609">
        <ele>29.47</ele>
        <time>2019-05-28T12:40:34.000Z</time>
      </trkpt>
      <trkpt lat="44.19844" lon="4.72603">
        <ele>30.48</ele>
        <time>2019-05-28T12:40:39.000Z</time>
      </trkpt>
      <trkpt lat="44.19821" lon="4.72597">
        <ele>30.28</ele>
        <time>2019-05-28T12:40:44.000Z</time>
      </trkpt>
      <trkpt lat="44.19798" lon="4.72594">
        <ele>30.41</ele>
        <time>2019-05-28T12:40:49.000Z</time>
      </trkpt>
      <trkpt lat="44.19776" lon="4.72594">
        <ele>30.41</ele>
        <time>2019-05-28T12:40:54.000Z</time>
      </trkpt>
      <trkpt lat="44.19753" lon="4.72594">
        <ele>29.49</ele>
        <time>2019-05-28T12:40:59.000Z</time>
      </trkpt>
      <trkpt lat="44.1973" lon="4.72603">
        <ele>30.64</ele>
        <time>2019-05-28T12:41:04.000Z</time>
      </trkpt>
      <trkpt lat="44.19707" lon="4.72613">
        <ele>30.29</ele>
        <time>2019-05-28T12:41:09.000Z</time>
      </trkpt>
      <trkpt lat="44.19687" lon="4.72623">
        <ele>29.72</ele>
        <time>2019-05-28T12:41:14.000Z</time>
      </trkpt>
      <trkpt lat="44.19671" lon="4.72621">
        <ele>29.72</ele>
        <time>2019-05-28T12:41:19.000Z</time>
      </trkpt>
      <trkpt lat="44.19661" lon="4.72592">
        <ele>28.71</ele>
        <time>2019-05-28T12:41:24.000Z</time>
      </trkpt>
      <trkpt lat="44.19636" lon="4.72584">
        <ele>27.72</ele>
        <time>2019-05-28T12:41:29.000Z</time>
      </trkpt>
      <trkpt lat="44.19609" lon="4.72583">
        <ele>27.49</ele>
        <time>2019-05-28T12:41:34.000Z</time>
      </trkpt>
      <trkpt lat="44.19584" lon="4.72582">
        <ele>27.47</ele>
        <time>2019-05-28T12:41:39.000Z</time>
      </trkpt>
      <trkpt lat="44.19559" lon="4.72579">
        <ele>26.68</ele>
        <time>2019-05-28T12:41:44.000Z</time>
      </trkpt>
      <trkpt lat="44.19534" lon="4.72578">
        <ele>26.53</ele>
        <time>2019-05-28T12:41:49.000Z</time>
      </trkpt>
      <trkpt lat="44.19506" lon="4.7258">
        <ele>26.48</ele>
        <time>2019-05-28T12:41:54.000Z</time>
      </trkpt>
      <trkpt lat="44.19475" lon="4.72583">
        <ele>26.47</ele>
        <time>2019-05-28T12:41:59.000Z</time>
      </trkpt>
      <trkpt lat="44.19443" lon="4.72583">
        <ele>26.48</ele>
        <time>2019-05-28T12:42:04.000Z</time>
      </trkpt>
      <trkpt lat="44.19413" lon="4.72572">
        <ele>27.47</ele>
        <time>2019-05-28T12:42:09.000Z</time>
      </trkpt>
      <trkpt lat="44.19383" lon="4.72562">
        <ele>27.66</ele>
        <time>2019-05-28T12:42:14.000Z</time>
      </trkpt>
      <trkpt lat="44.1936" lon="4.72551">
        <ele>28.48</ele>
        <time>2019-05-28T12:42:19.000Z</time>
      </trkpt>
      <trkpt lat="44.1935" lon="4.72555">
        <ele>26.78</ele>
        <time>2019-05-28T12:42:30.000Z</time>
      </trkpt>
      <trkpt lat="44.19347" lon="4.72566">
        <ele>27.42</ele>
        <time>2019-05-28T12:42:35.000Z</time>
      </trkpt>
      <trkpt lat="44.1934" lon="4.72594">
        <ele>29.66</ele>
        <time>2019-05-28T12:42:40.000Z</time>
      </trkpt>
      <trkpt lat="44.19332" lon="4.72629">
        <ele>27.79</ele>
        <time>2019-05-28T12:42:45.000Z</time>
      </trkpt>
      <trkpt lat="44.19324" lon="4.72663">
        <ele>27.47</ele>
        <time>2019-05-28T12:42:50.000Z</time>
      </trkpt>
      <trkpt lat="44.19317" lon="4.72699">
        <ele>27.43</ele>
        <time>2019-05-28T12:42:55.000Z</time>
      </trkpt>
      <trkpt lat="44.1931" lon="4.7273">
        <ele>25.3</ele>
        <time>2019-05-28T12:43:00.000Z</time>
      </trkpt>
      <trkpt lat="44.19304" lon="4.72744">
        <ele>25.48</ele>
        <time>2019-05-28T12:43:05.000Z</time>
      </trkpt>
      <trkpt lat="44.19296" lon="4.72774">
        <ele>24.73</ele>
        <time>2019-05-28T12:43:10.000Z</time>
      </trkpt>
      <trkpt lat="44.19281" lon="4.72804">
        <ele>24.49</ele>
        <time>2019-05-28T12:43:15.000Z</time>
      </trkpt>
      <trkpt lat="44.19264" lon="4.72832">
        <ele>23.53</ele>
        <time>2019-05-28T12:43:20.000Z</time>
      </trkpt>
      <trkpt lat="44.19248" lon="4.72861">
        <ele>25.23</ele>
        <time>2019-05-28T12:43:25.000Z</time>
      </trkpt>
      <trkpt lat="44.19231" lon="4.72891">
        <ele>24.25</ele>
        <time>2019-05-28T12:43:30.000Z</time>
      </trkpt>
      <trkpt lat="44.19214" lon="4.7292">
        <ele>24.48</ele>
        <time>2019-05-28T12:43:35.000Z</time>
      </trkpt>
      <trkpt lat="44.19195" lon="4.7295">
        <ele>26.41</ele>
        <time>2019-05-28T12:43:40.000Z</time>
      </trkpt>
      <trkpt lat="44.19177" lon="4.72979">
        <ele>26.49</ele>
        <time>2019-05-28T12:43:45.000Z</time>
      </trkpt>
      <trkpt lat="44.19159" lon="4.73011">
        <ele>26.29</ele>
        <time>2019-05-28T12:43:50.000Z</time>
      </trkpt>
      <trkpt lat="44.19143" lon="4.7304">
        <ele>26.48</ele>
        <time>2019-05-28T12:43:55.000Z</time>
      </trkpt>
      <trkpt lat="44.19126" lon="4.73064">
        <ele>26.54</ele>
        <time>2019-05-28T12:44:00.000Z</time>
      </trkpt>
      <trkpt lat="44.19106" lon="4.73085">
        <ele>26.48</ele>
        <time>2019-05-28T12:44:05.000Z</time>
      </trkpt>
      <trkpt lat="44.19083" lon="4.73105">
        <ele>25.5</ele>
        <time>2019-05-28T12:44:10.000Z</time>
      </trkpt>
      <trkpt lat="44.19056" lon="4.73121">
        <ele>24.56</ele>
        <time>2019-05-28T12:44:15.000Z</time>
      </trkpt>
      <trkpt lat="44.1903" lon="4.73129">
        <ele>23.5</ele>
        <time>2019-05-28T12:44:20.000Z</time>
      </trkpt>
      <trkpt lat="44.19003" lon="4.73143">
        <ele>25.22</ele>
        <time>2019-05-28T12:44:25.000Z</time>
      </trkpt>
      <trkpt lat="44.18976" lon="4.73162">
        <ele>26.23</ele>
        <time>2019-05-28T12:44:30.000Z</time>
      </trkpt>
      <trkpt lat="44.18952" lon="4.73184">
        <ele>26.48</ele>
        <time>2019-05-28T12:44:35.000Z</time>
      </trkpt>
      <trkpt lat="44.18933" lon="4.7321">
        <ele>26.5</ele>
        <time>2019-05-28T12:44:40.000Z</time>
      </trkpt>
      <trkpt lat="44.1891" lon="4.73235">
        <ele>26.78</ele>
        <time>2019-05-28T12:44:45.000Z</time>
      </trkpt>
      <trkpt lat="44.18888" lon="4.73254">
        <ele>24.74</ele>
        <time>2019-05-28T12:44:50.000Z</time>
      </trkpt>
      <trkpt lat="44.18861" lon="4.73274">
        <ele>24.48</ele>
        <time>2019-05-28T12:44:55.000Z</time>
      </trkpt>
      <trkpt lat="44.18834" lon="4.73292">
        <ele>25.66</ele>
        <time>2019-05-28T12:45:00.000Z</time>
      </trkpt>
      <trkpt lat="44.18806" lon="4.73309">
        <ele>24.55</ele>
        <time>2019-05-28T12:45:05.000Z</time>
      </trkpt>
      <trkpt lat="44.18781" lon="4.7332">
        <ele>25.42</ele>
        <time>2019-05-28T12:45:10.000Z</time>
      </trkpt>
      <trkpt lat="44.18751" lon="4.73331">
        <ele>24.49</ele>
        <time>2019-05-28T12:45:15.000Z</time>
      </trkpt>
      <trkpt lat="44.18721" lon="4.73343">
        <ele>24.49</ele>
        <time>2019-05-28T12:45:20.000Z</time>
      </trkpt>
      <trkpt lat="44.18689" lon="4.73353">
        <ele>24.49</ele>
        <time>2019-05-28T12:45:25.000Z</time>
      </trkpt>
      <trkpt lat="44.18656" lon="4.73362">
        <ele>23.49</ele>
        <time>2019-05-28T12:45:30.000Z</time>
      </trkpt>
      <trkpt lat="44.18621" lon="4.73372">
        <ele>23.49</ele>
        <time>2019-05-28T12:45:35.000Z</time>
      </trkpt>
      <trkpt lat="44.18585" lon="4.73381">
        <ele>23.3</ele>
        <time>2019-05-28T12:45:40.000Z</time>
      </trkpt>
      <trkpt lat="44.18547" lon="4.73386">
        <ele>23.48</ele>
        <time>2019-05-28T12:45:45.000Z</time>
      </trkpt>
      <trkpt lat="44.18508" lon="4.73391">
        <ele>23.25</ele>
        <time>2019-05-28T12:45:50.000Z</time>
      </trkpt>
      <trkpt lat="44.18471" lon="4.73396">
        <ele>23.3</ele>
        <time>2019-05-28T12:45:55.000Z</time>
      </trkpt>
      <trkpt lat="44.18433" lon="4.73402">
        <ele>24.24</ele>
        <time>2019-05-28T12:46:00.000Z</time>
      </trkpt>
      <trkpt lat="44.18395" lon="4.73409">
        <ele>24.44</ele>
        <time>2019-05-28T12:46:05.000Z</time>
      </trkpt>
      <trkpt lat="44.18358" lon="4.73414">
        <ele>23.49</ele>
        <time>2019-05-28T12:46:10.000Z</time>
      </trkpt>
      <trkpt lat="44.18322" lon="4.7342">
        <ele>25.47</ele>
        <time>2019-05-28T12:46:15.000Z</time>
      </trkpt>
      <trkpt lat="44.18287" lon="4.73427">
        <ele>24.5</ele>
        <time>2019-05-28T12:46:20.000Z</time>
      </trkpt>
      <trkpt lat="44.18252" lon="4.7344">
        <ele>24.49</ele>
        <time>2019-05-28T12:46:25.000Z</time>
      </trkpt>
      <trkpt lat="44.18218" lon="4.73456">
        <ele>25.24</ele>
        <time>2019-05-28T12:46:30.000Z</time>
      </trkpt>
      <trkpt lat="44.18185" lon="4.73477">
        <ele>26.43</ele>
        <time>2019-05-28T12:46:35.000Z</time>
      </trkpt>
      <trkpt lat="44.18152" lon="4.73495">
        <ele>25.51</ele>
        <time>2019-05-28T12:46:40.000Z</time>
      </trkpt>
      <trkpt lat="44.18117" lon="4.73516">
        <ele>25.49</ele>
        <time>2019-05-28T12:46:45.000Z</time>
      </trkpt>
      <trkpt lat="44.18082" lon="4.73533">
        <ele>26.49</ele>
        <time>2019-05-28T12:46:50.000Z</time>
      </trkpt>
      <trkpt lat="44.18045" lon="4.7354">
        <ele>26.49</ele>
        <time>2019-05-28T12:46:55.000Z</time>
      </trkpt>
      <trkpt lat="44.18008" lon="4.73543">
        <ele>26.48</ele>
        <time>2019-05-28T12:47:00.000Z</time>
      </trkpt>
      <trkpt lat="44.17971" lon="4.73541">
        <ele>25.5</ele>
        <time>2019-05-28T12:47:05.000Z</time>
      </trkpt>
      <trkpt lat="44.17936" lon="4.73536">
        <ele>26.48</ele>
        <time>2019-05-28T12:47:10.000Z</time>
      </trkpt>
      <trkpt lat="44.17901" lon="4.73528">
        <ele>25.56</ele>
        <time>2019-05-28T12:47:15.000Z</time>
      </trkpt>
      <trkpt lat="44.17867" lon="4.73519">
        <ele>27.24</ele>
        <time>2019-05-28T12:47:20.000Z</time>
      </trkpt>
      <trkpt lat="44.17833" lon="4.73511">
        <ele>26.51</ele>
        <time>2019-05-28T12:47:25.000Z</time>
      </trkpt>
      <trkpt lat="44.17799" lon="4.73501">
        <ele>27.5</ele>
        <time>2019-05-28T12:47:30.000Z</time>
      </trkpt>
      <trkpt lat="44.17764" lon="4.73492">
        <ele>28.25</ele>
        <time>2019-05-28T12:47:35.000Z</time>
      </trkpt>
      <trkpt lat="44.17728" lon="4.73498">
        <ele>26.81</ele>
        <time>2019-05-28T12:47:40.000Z</time>
      </trkpt>
      <trkpt lat="44.17694" lon="4.73514">
        <ele>27.25</ele>
        <time>2019-05-28T12:47:45.000Z</time>
      </trkpt>
      <trkpt lat="44.1766" lon="4.73532">
        <ele>27.5</ele>
        <time>2019-05-28T12:47:50.000Z</time>
      </trkpt>
      <trkpt lat="44.17625" lon="4.73546">
        <ele>28.5</ele>
        <time>2019-05-28T12:47:55.000Z</time>
      </trkpt>
      <trkpt lat="44.17591" lon="4.73563">
        <ele>27.5</ele>
        <time>2019-05-28T12:48:00.000Z</time>
      </trkpt>
      <trkpt lat="44.17556" lon="4.73576">
        <ele>26.75</ele>
        <time>2019-05-28T12:48:05.000Z</time>
      </trkpt>
      <trkpt lat="44.17522" lon="4.73588">
        <ele>26.56</ele>
        <time>2019-05-28T12:48:10.000Z</time>
      </trkpt>
      <trkpt lat="44.17487" lon="4.73602">
        <ele>24.51</ele>
        <time>2019-05-28T12:48:15.000Z</time>
      </trkpt>
      <trkpt lat="44.17453" lon="4.73614">
        <ele>24.55</ele>
        <time>2019-05-28T12:48:20.000Z</time>
      </trkpt>
      <trkpt lat="44.17419" lon="4.73619">
        <ele>24.5</ele>
        <time>2019-05-28T12:48:25.000Z</time>
      </trkpt>
      <trkpt lat="44.17384" lon="4.73619">
        <ele>24.5</ele>
        <time>2019-05-28T12:48:30.000Z</time>
      </trkpt>
      <trkpt lat="44.17349" lon="4.73618">
        <ele>24.74</ele>
        <time>2019-05-28T12:48:35.000Z</time>
      </trkpt>
      <trkpt lat="44.17317" lon="4.73615">
        <ele>24.5</ele>
        <time>2019-05-28T12:48:40.000Z</time>
      </trkpt>
      <trkpt lat="44.17288" lon="4.7361">
        <ele>24.75</ele>
        <time>2019-05-28T12:48:45.000Z</time>
      </trkpt>
      <trkpt lat="44.17261" lon="4.73607">
        <ele>25.19</ele>
        <time>2019-05-28T12:48:50.000Z</time>
      </trkpt>
      <trkpt lat="44.17231" lon="4.73608">
        <ele>24.5</ele>
        <time>2019-05-28T12:48:55.000Z</time>
      </trkpt>
      <trkpt lat="44.17199" lon="4.73609">
        <ele>24.74</ele>
        <time>2019-05-28T12:49:00.000Z</time>
      </trkpt>
      <trkpt lat="44.17167" lon="4.73615">
        <ele>24.5</ele>
        <time>2019-05-28T12:49:05.000Z</time>
      </trkpt>
      <trkpt lat="44.17136" lon="4.73621">
        <ele>24.51</ele>
        <time>2019-05-28T12:49:10.000Z</time>
      </trkpt>
      <trkpt lat="44.17106" lon="4.73629">
        <ele>25.5</ele>
        <time>2019-05-28T12:49:15.000Z</time>
      </trkpt>
      <trkpt lat="44.17075" lon="4.7364">
        <ele>25.57</ele>
        <time>2019-05-28T12:49:20.000Z</time>
      </trkpt>
      <trkpt lat="44.17046" lon="4.73649">
        <ele>25.44</ele>
        <time>2019-05-28T12:49:25.000Z</time>
      </trkpt>
      <trkpt lat="44.17015" lon="4.73659">
        <ele>25.69</ele>
        <time>2019-05-28T12:49:30.000Z</time>
      </trkpt>
      <trkpt lat="44.16984" lon="4.7367">
        <ele>25.51</ele>
        <time>2019-05-28T12:49:35.000Z</time>
      </trkpt>
      <trkpt lat="44.1695" lon="4.73683">
        <ele>25.51</ele>
        <time>2019-05-28T12:49:40.000Z</time>
      </trkpt>
      <trkpt lat="44.16916" lon="4.73692">
        <ele>25.46</ele>
        <time>2019-05-28T12:49:45.000Z</time>
      </trkpt>
      <trkpt lat="44.1688" lon="4.73699">
        <ele>24.52</ele>
        <time>2019-05-28T12:49:50.000Z</time>
      </trkpt>
      <trkpt lat="44.16846" lon="4.73696">
        <ele>23.76</ele>
        <time>2019-05-28T12:49:55.000Z</time>
      </trkpt>
      <trkpt lat="44.16812" lon="4.73696">
        <ele>26.44</ele>
        <time>2019-05-28T12:50:00.000Z</time>
      </trkpt>
      <trkpt lat="44.1678" lon="4.73694">
        <ele>25.53</ele>
        <time>2019-05-28T12:50:05.000Z</time>
      </trkpt>
      <trkpt lat="44.16747" lon="4.73688">
        <ele>26.51</ele>
        <time>2019-05-28T12:50:10.000Z</time>
      </trkpt>
      <trkpt lat="44.16713" lon="4.73686">
        <ele>25.51</ele>
        <time>2019-05-28T12:50:15.000Z</time>
      </trkpt>
      <trkpt lat="44.1668" lon="4.73701">
        <ele>25.5</ele>
        <time>2019-05-28T12:50:20.000Z</time>
      </trkpt>
      <trkpt lat="44.16651" lon="4.73729">
        <ele>25.51</ele>
        <time>2019-05-28T12:50:25.000Z</time>
      </trkpt>
      <trkpt lat="44.16622" lon="4.73736">
        <ele>24.78</ele>
        <time>2019-05-28T12:50:30.000Z</time>
      </trkpt>
      <trkpt lat="44.16586" lon="4.73738">
        <ele>25.45</ele>
        <time>2019-05-28T12:50:35.000Z</time>
      </trkpt>
      <trkpt lat="44.16552" lon="4.73745">
        <ele>25.51</ele>
        <time>2019-05-28T12:50:40.000Z</time>
      </trkpt>
      <trkpt lat="44.16538" lon="4.73732">
        <ele>26.26</ele>
        <time>2019-05-28T12:50:45.000Z</time>
      </trkpt>
      <trkpt lat="44.16534" lon="4.73702">
        <ele>27.45</ele>
        <time>2019-05-28T12:50:50.000Z</time>
      </trkpt>
      <trkpt lat="44.16528" lon="4.73686">
        <ele>25.53</ele>
        <time>2019-05-28T12:50:55.000Z</time>
      </trkpt>
      <trkpt lat="44.1653" lon="4.73671">
        <ele>27.46</ele>
        <time>2019-05-28T12:52:54.000Z</time>
      </trkpt>
      <trkpt lat="44.16528" lon="4.7364">
        <ele>26.76</ele>
        <time>2019-05-28T12:52:59.000Z</time>
      </trkpt>
      <trkpt lat="44.1653" lon="4.73605">
        <ele>28.26</ele>
        <time>2019-05-28T12:53:04.000Z</time>
      </trkpt>
      <trkpt lat="44.16523" lon="4.73564">
        <ele>27.7</ele>
        <time>2019-05-28T12:53:09.000Z</time>
      </trkpt>
      <trkpt lat="44.16519" lon="4.73528">
        <ele>26.57</ele>
        <time>2019-05-28T12:53:14.000Z</time>
      </trkpt>
      <trkpt lat="44.16514" lon="4.73492">
        <ele>25.57</ele>
        <time>2019-05-28T12:53:19.000Z</time>
      </trkpt>
      <trkpt lat="44.16504" lon="4.73451">
        <ele>27.25</ele>
        <time>2019-05-28T12:53:24.000Z</time>
      </trkpt>
      <trkpt lat="44.16499" lon="4.73412">
        <ele>26.57</ele>
        <time>2019-05-28T12:53:29.000Z</time>
      </trkpt>
      <trkpt lat="44.16491" lon="4.73371">
        <ele>25.76</ele>
        <time>2019-05-28T12:53:34.000Z</time>
      </trkpt>
      <trkpt lat="44.16486" lon="4.73332">
        <ele>26.51</ele>
        <time>2019-05-28T12:53:39.000Z</time>
      </trkpt>
      <trkpt lat="44.16482" lon="4.73294">
        <ele>28.25</ele>
        <time>2019-05-28T12:53:44.000Z</time>
      </trkpt>
      <trkpt lat="44.16476" lon="4.73259">
        <ele>27.7</ele>
        <time>2019-05-28T12:53:49.000Z</time>
      </trkpt>
      <trkpt lat="44.1647" lon="4.73221">
        <ele>27.51</ele>
        <time>2019-05-28T12:53:54.000Z</time>
      </trkpt>
      <trkpt lat="44.16458" lon="4.73182">
        <ele>26.76</ele>
        <time>2019-05-28T12:53:59.000Z</time>
      </trkpt>
      <trkpt lat="44.16445" lon="4.73145">
        <ele>27.46</ele>
        <time>2019-05-28T12:54:04.000Z</time>
      </trkpt>
      <trkpt lat="44.16432" lon="4.73107">
        <ele>27.27</ele>
        <time>2019-05-28T12:54:09.000Z</time>
      </trkpt>
      <trkpt lat="44.16419" lon="4.7307">
        <ele>27.71</ele>
        <time>2019-05-28T12:54:14.000Z</time>
      </trkpt>
      <trkpt lat="44.16407" lon="4.73033">
        <ele>27.51</ele>
        <time>2019-05-28T12:54:19.000Z</time>
      </trkpt>
      <trkpt lat="44.16395" lon="4.72995">
        <ele>27.51</ele>
        <time>2019-05-28T12:54:24.000Z</time>
      </trkpt>
      <trkpt lat="44.16383" lon="4.72958">
        <ele>27.51</ele>
        <time>2019-05-28T12:54:29.000Z</time>
      </trkpt>
      <trkpt lat="44.16366" lon="4.72926">
        <ele>26.76</ele>
        <time>2019-05-28T12:54:34.000Z</time>
      </trkpt>
      <trkpt lat="44.16354" lon="4.72889">
        <ele>27.26</ele>
        <time>2019-05-28T12:54:39.000Z</time>
      </trkpt>
      <trkpt lat="44.16341" lon="4.72853">
        <ele>28.26</ele>
        <time>2019-05-28T12:54:44.000Z</time>
      </trkpt>
      <trkpt lat="44.16328" lon="4.72814">
        <ele>28.51</ele>
        <time>2019-05-28T12:54:49.000Z</time>
      </trkpt>
      <trkpt lat="44.16316" lon="4.72775">
        <ele>29.51</ele>
        <time>2019-05-28T12:54:54.000Z</time>
      </trkpt>
      <trkpt lat="44.16303" lon="4.72736">
        <ele>29.51</ele>
        <time>2019-05-28T12:54:59.000Z</time>
      </trkpt>
      <trkpt lat="44.1629" lon="4.72698">
        <ele>28.51</ele>
        <time>2019-05-28T12:55:04.000Z</time>
      </trkpt>
      <trkpt lat="44.16277" lon="4.72661">
        <ele>28.5</ele>
        <time>2019-05-28T12:55:09.000Z</time>
      </trkpt>
      <trkpt lat="44.16265" lon="4.72624">
        <ele>28.57</ele>
        <time>2019-05-28T12:55:14.000Z</time>
      </trkpt>
      <trkpt lat="44.16261" lon="4.72585">
        <ele>27.52</ele>
        <time>2019-05-28T12:55:19.000Z</time>
      </trkpt>
      <trkpt lat="44.16261" lon="4.72553">
        <ele>26.72</ele>
        <time>2019-05-28T12:55:24.000Z</time>
      </trkpt>
      <trkpt lat="44.16269" lon="4.72527">
        <ele>27.7</ele>
        <time>2019-05-28T12:55:29.000Z</time>
      </trkpt>
      <trkpt lat="44.16271" lon="4.72514">
        <ele>29.51</ele>
        <time>2019-05-28T12:55:44.000Z</time>
      </trkpt>
      <trkpt lat="44.16275" lon="4.72493">
        <ele>27.76</ele>
        <time>2019-05-28T12:55:49.000Z</time>
      </trkpt>
      <trkpt lat="44.16281" lon="4.72465">
        <ele>27.51</ele>
        <time>2019-05-28T12:55:54.000Z</time>
      </trkpt>
      <trkpt lat="44.16292" lon="4.72436">
        <ele>27.26</ele>
        <time>2019-05-28T12:55:59.000Z</time>
      </trkpt>
      <trkpt lat="44.16309" lon="4.72415">
        <ele>28.45</ele>
        <time>2019-05-28T12:56:04.000Z</time>
      </trkpt>
      <trkpt lat="44.16322" lon="4.72384">
        <ele>27.75</ele>
        <time>2019-05-28T12:56:09.000Z</time>
      </trkpt>
      <trkpt lat="44.16337" lon="4.7236">
        <ele>28.45</ele>
        <time>2019-05-28T12:56:14.000Z</time>
      </trkpt>
      <trkpt lat="44.16329" lon="4.72328">
        <ele>28.51</ele>
        <time>2019-05-28T12:56:19.000Z</time>
      </trkpt>
      <trkpt lat="44.16305" lon="4.72319">
        <ele>28.51</ele>
        <time>2019-05-28T12:56:24.000Z</time>
      </trkpt>
      <trkpt lat="44.16278" lon="4.72322">
        <ele>29.51</ele>
        <time>2019-05-28T12:56:29.000Z</time>
      </trkpt>
      <trkpt lat="44.16248" lon="4.72326">
        <ele>28.76</ele>
        <time>2019-05-28T12:56:34.000Z</time>
      </trkpt>
      <trkpt lat="44.16219" lon="4.72331">
        <ele>29.5</ele>
        <time>2019-05-28T12:56:39.000Z</time>
      </trkpt>
      <trkpt lat="44.16191" lon="4.7233">
        <ele>28.76</ele>
        <time>2019-05-28T12:56:44.000Z</time>
      </trkpt>
      <trkpt lat="44.16167" lon="4.72304">
        <ele>29.5</ele>
        <time>2019-05-28T12:56:49.000Z</time>
      </trkpt>
      <trkpt lat="44.16144" lon="4.72274">
        <ele>29.51</ele>
        <time>2019-05-28T12:56:54.000Z</time>
      </trkpt>
      <trkpt lat="44.16121" lon="4.72241">
        <ele>28.76</ele>
        <time>2019-05-28T12:56:59.000Z</time>
      </trkpt>
      <trkpt lat="44.16097" lon="4.72211">
        <ele>28.75</ele>
        <time>2019-05-28T12:57:04.000Z</time>
      </trkpt>
      <trkpt lat="44.16073" lon="4.7218">
        <ele>28.51</ele>
        <time>2019-05-28T12:57:09.000Z</time>
      </trkpt>
      <trkpt lat="44.16053" lon="4.72144">
        <ele>28.53</ele>
        <time>2019-05-28T12:57:14.000Z</time>
      </trkpt>
      <trkpt lat="44.16044" lon="4.72104">
        <ele>28.53</ele>
        <time>2019-05-28T12:57:19.000Z</time>
      </trkpt>
      <trkpt lat="44.1604" lon="4.72074">
        <ele>28.53</ele>
        <time>2019-05-28T12:57:24.000Z</time>
      </trkpt>
      <trkpt lat="44.1603" lon="4.72066">
        <ele>29.45</ele>
        <time>2019-05-28T12:57:29.000Z</time>
      </trkpt>
      <trkpt lat="44.16009" lon="4.72067">
        <ele>27.52</ele>
        <time>2019-05-28T12:57:34.000Z</time>
      </trkpt>
      <trkpt lat="44.15981" lon="4.72068">
        <ele>27.51</ele>
        <time>2019-05-28T12:57:39.000Z</time>
      </trkpt>
      <trkpt lat="44.15951" lon="4.7207">
        <ele>28.51</ele>
        <time>2019-05-28T12:57:44.000Z</time>
      </trkpt>
      <trkpt lat="44.15919" lon="4.72073">
        <ele>28.52</ele>
        <time>2019-05-28T12:57:49.000Z</time>
      </trkpt>
      <trkpt lat="44.15885" lon="4.72076">
        <ele>27.52</ele>
        <time>2019-05-28T12:57:54.000Z</time>
      </trkpt>
      <trkpt lat="44.1585" lon="4.72082">
        <ele>26.58</ele>
        <time>2019-05-28T12:57:59.000Z</time>
      </trkpt>
      <trkpt lat="44.15814" lon="4.72088">
        <ele>26.56</ele>
        <time>2019-05-28T12:58:04.000Z</time>
      </trkpt>
      <trkpt lat="44.15777" lon="4.72092">
        <ele>26.52</ele>
        <time>2019-05-28T12:58:09.000Z</time>
      </trkpt>
      <trkpt lat="44.15741" lon="4.72096">
        <ele>26.52</ele>
        <time>2019-05-28T12:58:14.000Z</time>
      </trkpt>
      <trkpt lat="44.15706" lon="4.72101">
        <ele>27.5</ele>
        <time>2019-05-28T12:58:19.000Z</time>
      </trkpt>
      <trkpt lat="44.15692" lon="4.72071">
        <ele>28.46</ele>
        <time>2019-05-28T12:58:24.000Z</time>
      </trkpt>
      <trkpt lat="44.15699" lon="4.72042">
        <ele>28.53</ele>
        <time>2019-05-28T12:58:29.000Z</time>
      </trkpt>
      <trkpt lat="44.15713" lon="4.72026">
        <ele>30.44</ele>
        <time>2019-05-28T12:58:34.000Z</time>
      </trkpt>
      <trkpt lat="44.15726" lon="4.72017">
        <ele>32.5</ele>
        <time>2019-05-28T12:58:39.000Z</time>
      </trkpt>
      <trkpt lat="44.15732" lon="4.72001">
        <ele>32.52</ele>
        <time>2019-05-28T12:58:44.000Z</time>
      </trkpt>
      <trkpt lat="44.15712" lon="4.72">
        <ele>31.53</ele>
        <time>2019-05-28T12:58:49.000Z</time>
      </trkpt>
      <trkpt lat="44.15686" lon="4.72009">
        <ele>30.52</ele>
        <time>2019-05-28T12:58:54.000Z</time>
      </trkpt>
      <trkpt lat="44.15661" lon="4.72015">
        <ele>31.5</ele>
        <time>2019-05-28T12:58:59.000Z</time>
      </trkpt>
      <trkpt lat="44.15634" lon="4.72021">
        <ele>31.52</ele>
        <time>2019-05-28T12:59:04.000Z</time>
      </trkpt>
      <trkpt lat="44.15606" lon="4.72032">
        <ele>31.75</ele>
        <time>2019-05-28T12:59:09.000Z</time>
      </trkpt>
      <trkpt lat="44.15575" lon="4.72042">
        <ele>32.52</ele>
        <time>2019-05-28T12:59:14.000Z</time>
      </trkpt>
      <trkpt lat="44.15542" lon="4.72054">
        <ele>32.27</ele>
        <time>2019-05-28T12:59:19.000Z</time>
      </trkpt>
      <trkpt lat="44.15508" lon="4.72064">
        <ele>32.52</ele>
        <time>2019-05-28T12:59:24.000Z</time>
      </trkpt>
      <trkpt lat="44.15472" lon="4.72073">
        <ele>32.51</ele>
        <time>2019-05-28T12:59:29.000Z</time>
      </trkpt>
      <trkpt lat="44.15436" lon="4.72086">
        <ele>31.58</ele>
        <time>2019-05-28T12:59:34.000Z</time>
      </trkpt>
      <trkpt lat="44.15401" lon="4.72098">
        <ele>31.52</ele>
        <time>2019-05-28T12:59:39.000Z</time>
      </trkpt>
      <trkpt lat="44.15366" lon="4.72108">
        <ele>31.52</ele>
        <time>2019-05-28T12:59:44.000Z</time>
      </trkpt>
      <trkpt lat="44.15331" lon="4.72119">
        <ele>31.52</ele>
        <time>2019-05-28T12:59:49.000Z</time>
      </trkpt>
      <trkpt lat="44.15295" lon="4.72131">
        <ele>32.51</ele>
        <time>2019-05-28T12:59:54.000Z</time>
      </trkpt>
      <trkpt lat="44.1526" lon="4.72141">
        <ele>31.53</ele>
        <time>2019-05-28T12:59:59.000Z</time>
      </trkpt>
      <trkpt lat="44.15225" lon="4.72152">
        <ele>32.33</ele>
        <time>2019-05-28T13:00:04.000Z</time>
      </trkpt>
      <trkpt lat="44.15189" lon="4.72161">
        <ele>32.34</ele>
        <time>2019-05-28T13:00:09.000Z</time>
      </trkpt>
      <trkpt lat="44.15154" lon="4.7217">
        <ele>33.27</ele>
        <time>2019-05-28T13:00:14.000Z</time>
      </trkpt>
      <trkpt lat="44.15121" lon="4.7218">
        <ele>33.52</ele>
        <time>2019-05-28T13:00:19.000Z</time>
      </trkpt>
      <trkpt lat="44.15086" lon="4.72193">
        <ele>34.27</ele>
        <time>2019-05-28T13:00:24.000Z</time>
      </trkpt>
      <trkpt lat="44.15053" lon="4.72203">
        <ele>34.53</ele>
        <time>2019-05-28T13:00:29.000Z</time>
      </trkpt>
      <trkpt lat="44.15024" lon="4.72201">
        <ele>36.46</ele>
        <time>2019-05-28T13:00:34.000Z</time>
      </trkpt>
      <trkpt lat="44.15" lon="4.72206">
        <ele>35.59</ele>
        <time>2019-05-28T13:00:39.000Z</time>
      </trkpt>
      <trkpt lat="44.14963" lon="4.72221">
        <ele>33.53</ele>
        <time>2019-05-28T13:00:44.000Z</time>
      </trkpt>
      <trkpt lat="44.14923" lon="4.72238">
        <ele>32.59</ele>
        <time>2019-05-28T13:00:49.000Z</time>
      </trkpt>
      <trkpt lat="44.14881" lon="4.7225">
        <ele>32.28</ele>
        <time>2019-05-28T13:00:54.000Z</time>
      </trkpt>
      <trkpt lat="44.14838" lon="4.72263">
        <ele>32.52</ele>
        <time>2019-05-28T13:00:59.000Z</time>
      </trkpt>
      <trkpt lat="44.14795" lon="4.72273">
        <ele>32.53</ele>
        <time>2019-05-28T13:01:04.000Z</time>
      </trkpt>
      <trkpt lat="44.14752" lon="4.72281">
        <ele>32.53</ele>
        <time>2019-05-28T13:01:09.000Z</time>
      </trkpt>
      <trkpt lat="44.14708" lon="4.72288">
        <ele>33.28</ele>
        <time>2019-05-28T13:01:14.000Z</time>
      </trkpt>
      <trkpt lat="44.14665" lon="4.72293">
        <ele>33.53</ele>
        <time>2019-05-28T13:01:19.000Z</time>
      </trkpt>
      <trkpt lat="44.14623" lon="4.72297">
        <ele>34.51</ele>
        <time>2019-05-28T13:01:24.000Z</time>
      </trkpt>
      <trkpt lat="44.1458" lon="4.72301">
        <ele>34.53</ele>
        <time>2019-05-28T13:01:29.000Z</time>
      </trkpt>
      <trkpt lat="44.14538" lon="4.72305">
        <ele>33.54</ele>
        <time>2019-05-28T13:01:34.000Z</time>
      </trkpt>
      <trkpt lat="44.14496" lon="4.72307">
        <ele>34.28</ele>
        <time>2019-05-28T13:01:39.000Z</time>
      </trkpt>
      <trkpt lat="44.14452" lon="4.72309">
        <ele>32.79</ele>
        <time>2019-05-28T13:01:44.000Z</time>
      </trkpt>
      <trkpt lat="44.14409" lon="4.72309">
        <ele>32.53</ele>
        <time>2019-05-28T13:01:49.000Z</time>
      </trkpt>
      <trkpt lat="44.14367" lon="4.72309">
        <ele>31.53</ele>
        <time>2019-05-28T13:01:54.000Z</time>
      </trkpt>
      <trkpt lat="44.14325" lon="4.72305">
        <ele>31.52</ele>
        <time>2019-05-28T13:01:59.000Z</time>
      </trkpt>
      <trkpt lat="44.14285" lon="4.72301">
        <ele>31.53</ele>
        <time>2019-05-28T13:02:04.000Z</time>
      </trkpt>
      <trkpt lat="44.14244" lon="4.72296">
        <ele>32.29</ele>
        <time>2019-05-28T13:02:09.000Z</time>
      </trkpt>
      <trkpt lat="44.14205" lon="4.72288">
        <ele>32.53</ele>
        <time>2019-05-28T13:02:14.000Z</time>
      </trkpt>
      <trkpt lat="44.14165" lon="4.72281">
        <ele>32.52</ele>
        <time>2019-05-28T13:02:19.000Z</time>
      </trkpt>
      <trkpt lat="44.14125" lon="4.72274">
        <ele>31.58</ele>
        <time>2019-05-28T13:02:24.000Z</time>
      </trkpt>
      <trkpt lat="44.14086" lon="4.72263">
        <ele>31.54</ele>
        <time>2019-05-28T13:02:29.000Z</time>
      </trkpt>
      <trkpt lat="44.14049" lon="4.72251">
        <ele>32.47</ele>
        <time>2019-05-28T13:02:34.000Z</time>
      </trkpt>
      <trkpt lat="44.14011" lon="4.7224">
        <ele>33.47</ele>
        <time>2019-05-28T13:02:39.000Z</time>
      </trkpt>
      <trkpt lat="44.13975" lon="4.72227">
        <ele>34.53</ele>
        <time>2019-05-28T13:02:44.000Z</time>
      </trkpt>
      <trkpt lat="44.13938" lon="4.72213">
        <ele>33.54</ele>
        <time>2019-05-28T13:02:49.000Z</time>
      </trkpt>
      <trkpt lat="44.13902" lon="4.72197">
        <ele>32.54</ele>
        <time>2019-05-28T13:02:54.000Z</time>
      </trkpt>
      <trkpt lat="44.13867" lon="4.72181">
        <ele>32.35</ele>
        <time>2019-05-28T13:02:59.000Z</time>
      </trkpt>
      <trkpt lat="44.13833" lon="4.72165">
        <ele>31.55</ele>
        <time>2019-05-28T13:03:04.000Z</time>
      </trkpt>
      <trkpt lat="44.13797" lon="4.72147">
        <ele>31.54</ele>
        <time>2019-05-28T13:03:09.000Z</time>
      </trkpt>
      <trkpt lat="44.13762" lon="4.72127">
        <ele>32.48</ele>
        <time>2019-05-28T13:03:14.000Z</time>
      </trkpt>
      <trkpt lat="44.13727" lon="4.72109">
        <ele>31.54</ele>
        <time>2019-05-28T13:03:19.000Z</time>
      </trkpt>
      <trkpt lat="44.13694" lon="4.72092">
        <ele>31.54</ele>
        <time>2019-05-28T13:03:24.000Z</time>
      </trkpt>
      <trkpt lat="44.13662" lon="4.72072">
        <ele>32.54</ele>
        <time>2019-05-28T13:03:29.000Z</time>
      </trkpt>
      <trkpt lat="44.13629" lon="4.72051">
        <ele>32.54</ele>
        <time>2019-05-28T13:03:34.000Z</time>
      </trkpt>
      <trkpt lat="44.13596" lon="4.72033">
        <ele>31.36</ele>
        <time>2019-05-28T13:03:39.000Z</time>
      </trkpt>
      <trkpt lat="44.13563" lon="4.72014">
        <ele>30.54</ele>
        <time>2019-05-28T13:03:44.000Z</time>
      </trkpt>
      <trkpt lat="44.13529" lon="4.71994">
        <ele>30.54</ele>
        <time>2019-05-28T13:03:49.000Z</time>
      </trkpt>
      <trkpt lat="44.13494" lon="4.71975">
        <ele>31.35</ele>
        <time>2019-05-28T13:03:54.000Z</time>
      </trkpt>
      <trkpt lat="44.1346" lon="4.71955">
        <ele>31.54</ele>
        <time>2019-05-28T13:03:59.000Z</time>
      </trkpt>
      <trkpt lat="44.13425" lon="4.71937">
        <ele>31.54</ele>
        <time>2019-05-28T13:04:04.000Z</time>
      </trkpt>
      <trkpt lat="44.13391" lon="4.71916">
        <ele>31.54</ele>
        <time>2019-05-28T13:04:09.000Z</time>
      </trkpt>
      <trkpt lat="44.13357" lon="4.71896">
        <ele>30.56</ele>
        <time>2019-05-28T13:04:14.000Z</time>
      </trkpt>
      <trkpt lat="44.13322" lon="4.71876">
        <ele>29.5</ele>
        <time>2019-05-28T13:04:19.000Z</time>
      </trkpt>
      <trkpt lat="44.13289" lon="4.71859">
        <ele>31.53</ele>
        <time>2019-05-28T13:04:24.000Z</time>
      </trkpt>
      <trkpt lat="44.13256" lon="4.71839">
        <ele>30.62</ele>
        <time>2019-05-28T13:04:29.000Z</time>
      </trkpt>
      <trkpt lat="44.13222" lon="4.7182">
        <ele>31.48</ele>
        <time>2019-05-28T13:04:34.000Z</time>
      </trkpt>
      <trkpt lat="44.13189" lon="4.71799">
        <ele>32.34</ele>
        <time>2019-05-28T13:04:39.000Z</time>
      </trkpt>
      <trkpt lat="44.13158" lon="4.7178">
        <ele>32.55</ele>
        <time>2019-05-28T13:04:44.000Z</time>
      </trkpt>
      <trkpt lat="44.13125" lon="4.71761">
        <ele>31.56</ele>
        <time>2019-05-28T13:04:49.000Z</time>
      </trkpt>
      <trkpt lat="44.13093" lon="4.71742">
        <ele>31.55</ele>
        <time>2019-05-28T13:04:54.000Z</time>
      </trkpt>
      <trkpt lat="44.13061" lon="4.71722">
        <ele>31.55</ele>
        <time>2019-05-28T13:04:59.000Z</time>
      </trkpt>
      <trkpt lat="44.13028" lon="4.71704">
        <ele>32.54</ele>
        <time>2019-05-28T13:05:04.000Z</time>
      </trkpt>
      <trkpt lat="44.12994" lon="4.71687">
        <ele>32.36</ele>
        <time>2019-05-28T13:05:09.000Z</time>
      </trkpt>
      <trkpt lat="44.1296" lon="4.71673">
        <ele>31.55</ele>
        <time>2019-05-28T13:05:14.000Z</time>
      </trkpt>
      <trkpt lat="44.12924" lon="4.71662">
        <ele>31.55</ele>
        <time>2019-05-28T13:05:19.000Z</time>
      </trkpt>
      <trkpt lat="44.1289" lon="4.71651">
        <ele>31.55</ele>
        <time>2019-05-28T13:05:24.000Z</time>
      </trkpt>
      <trkpt lat="44.12855" lon="4.7164">
        <ele>31.55</ele>
        <time>2019-05-28T13:05:29.000Z</time>
      </trkpt>
      <trkpt lat="44.12831" lon="4.71616">
        <ele>30.81</ele>
        <time>2019-05-28T13:05:34.000Z</time>
      </trkpt>
      <trkpt lat="44.1283" lon="4.71575">
        <ele>31.55</ele>
        <time>2019-05-28T13:05:39.000Z</time>
      </trkpt>
      <trkpt lat="44.12805" lon="4.7156">
        <ele>31.49</ele>
        <time>2019-05-28T13:05:44.000Z</time>
      </trkpt>
      <trkpt lat="44.12789" lon="4.71593">
        <ele>32.53</ele>
        <time>2019-05-28T13:05:49.000Z</time>
      </trkpt>
      <trkpt lat="44.12775" lon="4.71628">
        <ele>31.8</ele>
        <time>2019-05-28T13:05:54.000Z</time>
      </trkpt>
      <trkpt lat="44.12743" lon="4.71625">
        <ele>30.61</ele>
        <time>2019-05-28T13:05:59.000Z</time>
      </trkpt>
      <trkpt lat="44.12709" lon="4.71624">
        <ele>30.55</ele>
        <time>2019-05-28T13:06:04.000Z</time>
      </trkpt>
      <trkpt lat="44.12673" lon="4.71625">
        <ele>30.36</ele>
        <time>2019-05-28T13:06:09.000Z</time>
      </trkpt>
      <trkpt lat="44.12636" lon="4.71626">
        <ele>30.55</ele>
        <time>2019-05-28T13:06:14.000Z</time>
      </trkpt>
      <trkpt lat="44.12599" lon="4.71626">
        <ele>30.55</ele>
        <time>2019-05-28T13:06:19.000Z</time>
      </trkpt>
      <trkpt lat="44.12563" lon="4.71624">
        <ele>29.57</ele>
        <time>2019-05-28T13:06:24.000Z</time>
      </trkpt>
      <trkpt lat="44.12527" lon="4.71625">
        <ele>28.62</ele>
        <time>2019-05-28T13:06:29.000Z</time>
      </trkpt>
      <trkpt lat="44.12491" lon="4.71626">
        <ele>29.36</ele>
        <time>2019-05-28T13:06:34.000Z</time>
      </trkpt>
      <trkpt lat="44.12455" lon="4.71627">
        <ele>29.49</ele>
        <time>2019-05-28T13:06:39.000Z</time>
      </trkpt>
      <trkpt lat="44.12418" lon="4.71628">
        <ele>30.35</ele>
        <time>2019-05-28T13:06:44.000Z</time>
      </trkpt>
      <trkpt lat="44.12382" lon="4.71628">
        <ele>29.61</ele>
        <time>2019-05-28T13:06:49.000Z</time>
      </trkpt>
      <trkpt lat="44.12347" lon="4.7163">
        <ele>29.31</ele>
        <time>2019-05-28T13:06:54.000Z</time>
      </trkpt>
      <trkpt lat="44.12312" lon="4.71634">
        <ele>29.31</ele>
        <time>2019-05-28T13:06:59.000Z</time>
      </trkpt>
      <trkpt lat="44.12278" lon="4.7164">
        <ele>28.57</ele>
        <time>2019-05-28T13:07:04.000Z</time>
      </trkpt>
      <trkpt lat="44.12242" lon="4.71649">
        <ele>27.57</ele>
        <time>2019-05-28T13:07:09.000Z</time>
      </trkpt>
      <trkpt lat="44.12208" lon="4.71664">
        <ele>26.56</ele>
        <time>2019-05-28T13:07:14.000Z</time>
      </trkpt>
      <trkpt lat="44.12175" lon="4.71677">
        <ele>28.49</ele>
        <time>2019-05-28T13:07:19.000Z</time>
      </trkpt>
      <trkpt lat="44.1214" lon="4.71691">
        <ele>29.74</ele>
        <time>2019-05-28T13:07:24.000Z</time>
      </trkpt>
      <trkpt lat="44.12104" lon="4.71705">
        <ele>28.56</ele>
        <time>2019-05-28T13:07:29.000Z</time>
      </trkpt>
      <trkpt lat="44.12069" lon="4.71718">
        <ele>29.31</ele>
        <time>2019-05-28T13:07:34.000Z</time>
      </trkpt>
      <trkpt lat="44.12036" lon="4.7173">
        <ele>30.5</ele>
        <time>2019-05-28T13:07:39.000Z</time>
      </trkpt>
      <trkpt lat="44.12003" lon="4.71743">
        <ele>31.54</ele>
        <time>2019-05-28T13:07:44.000Z</time>
      </trkpt>
      <trkpt lat="44.11969" lon="4.71757">
        <ele>30.56</ele>
        <time>2019-05-28T13:07:49.000Z</time>
      </trkpt>
      <trkpt lat="44.11935" lon="4.71769">
        <ele>30.56</ele>
        <time>2019-05-28T13:07:54.000Z</time>
      </trkpt>
      <trkpt lat="44.11903" lon="4.71774">
        <ele>31.54</ele>
        <time>2019-05-28T13:07:59.000Z</time>
      </trkpt>
      <trkpt lat="44.11877" lon="4.71782">
        <ele>31.81</ele>
        <time>2019-05-28T13:08:04.000Z</time>
      </trkpt>
      <trkpt lat="44.11849" lon="4.71791">
        <ele>31.81</ele>
        <time>2019-05-28T13:08:09.000Z</time>
      </trkpt>
      <trkpt lat="44.11819" lon="4.71801">
        <ele>32.31</ele>
        <time>2019-05-28T13:08:14.000Z</time>
      </trkpt>
      <trkpt lat="44.11789" lon="4.71812">
        <ele>32.56</ele>
        <time>2019-05-28T13:08:19.000Z</time>
      </trkpt>
      <trkpt lat="44.11758" lon="4.71825">
        <ele>33.55</ele>
        <time>2019-05-28T13:08:24.000Z</time>
      </trkpt>
      <trkpt lat="44.11726" lon="4.71838">
        <ele>33.56</ele>
        <time>2019-05-28T13:08:29.000Z</time>
      </trkpt>
      <trkpt lat="44.11694" lon="4.7185">
        <ele>33.56</ele>
        <time>2019-05-28T13:08:34.000Z</time>
      </trkpt>
      <trkpt lat="44.11662" lon="4.71862">
        <ele>34.31</ele>
        <time>2019-05-28T13:08:39.000Z</time>
      </trkpt>
      <trkpt lat="44.11629" lon="4.71873">
        <ele>33.63</ele>
        <time>2019-05-28T13:08:44.000Z</time>
      </trkpt>
      <trkpt lat="44.11595" lon="4.71886">
        <ele>32.58</ele>
        <time>2019-05-28T13:08:49.000Z</time>
      </trkpt>
      <trkpt lat="44.1156" lon="4.71898">
        <ele>32.56</ele>
        <time>2019-05-28T13:08:54.000Z</time>
      </trkpt>
      <trkpt lat="44.11525" lon="4.7191">
        <ele>33.56</ele>
        <time>2019-05-28T13:08:59.000Z</time>
      </trkpt>
      <trkpt lat="44.11492" lon="4.71921">
        <ele>32.77</ele>
        <time>2019-05-28T13:09:04.000Z</time>
      </trkpt>
      <trkpt lat="44.1146" lon="4.71931">
        <ele>33.56</ele>
        <time>2019-05-28T13:09:09.000Z</time>
      </trkpt>
      <trkpt lat="44.11426" lon="4.71942">
        <ele>33.57</ele>
        <time>2019-05-28T13:09:14.000Z</time>
      </trkpt>
      <trkpt lat="44.11392" lon="4.71957">
        <ele>33.57</ele>
        <time>2019-05-28T13:09:19.000Z</time>
      </trkpt>
      <trkpt lat="44.11357" lon="4.71971">
        <ele>34.32</ele>
        <time>2019-05-28T13:09:24.000Z</time>
      </trkpt>
      <trkpt lat="44.11322" lon="4.71986">
        <ele>32.82</ele>
        <time>2019-05-28T13:09:29.000Z</time>
      </trkpt>
      <trkpt lat="44.11283" lon="4.72002">
        <ele>31.63</ele>
        <time>2019-05-28T13:09:34.000Z</time>
      </trkpt>
      <trkpt lat="44.11241" lon="4.72018">
        <ele>30.52</ele>
        <time>2019-05-28T13:09:39.000Z</time>
      </trkpt>
      <trkpt lat="44.11209" lon="4.72031">
        <ele>29.57</ele>
        <time>2019-05-28T13:09:44.000Z</time>
      </trkpt>
      <trkpt lat="44.11205" lon="4.72054">
        <ele>28.57</ele>
        <time>2019-05-28T13:09:49.000Z</time>
      </trkpt>
      <trkpt lat="44.11184" lon="4.72058">
        <ele>28.57</ele>
        <time>2019-05-28T13:09:54.000Z</time>
      </trkpt>
      <trkpt lat="44.11157" lon="4.72063">
        <ele>28.57</ele>
        <time>2019-05-28T13:09:59.000Z</time>
      </trkpt>
      <trkpt lat="44.11123" lon="4.72074">
        <ele>27.38</ele>
        <time>2019-05-28T13:10:04.000Z</time>
      </trkpt>
      <trkpt lat="44.11089" lon="4.7209">
        <ele>26.57</ele>
        <time>2019-05-28T13:10:09.000Z</time>
      </trkpt>
      <trkpt lat="44.11055" lon="4.72106">
        <ele>27.33</ele>
        <time>2019-05-28T13:10:14.000Z</time>
      </trkpt>
      <trkpt lat="44.11022" lon="4.72124">
        <ele>26.77</ele>
        <time>2019-05-28T13:10:19.000Z</time>
      </trkpt>
      <trkpt lat="44.10989" lon="4.72146">
        <ele>26.51</ele>
        <time>2019-05-28T13:10:24.000Z</time>
      </trkpt>
      <trkpt lat="44.10959" lon="4.72171">
        <ele>26.82</ele>
        <time>2019-05-28T13:10:29.000Z</time>
      </trkpt>
      <trkpt lat="44.1093" lon="4.72201">
        <ele>27.57</ele>
        <time>2019-05-28T13:10:34.000Z</time>
      </trkpt>
      <trkpt lat="44.10903" lon="4.72234">
        <ele>27.57</ele>
        <time>2019-05-28T13:10:39.000Z</time>
      </trkpt>
      <trkpt lat="44.10878" lon="4.72266">
        <ele>29.2</ele>
        <time>2019-05-28T13:10:44.000Z</time>
      </trkpt>
      <trkpt lat="44.10853" lon="4.72298">
        <ele>26.59</ele>
        <time>2019-05-28T13:10:49.000Z</time>
      </trkpt>
      <trkpt lat="44.1083" lon="4.72328">
        <ele>24.59</ele>
        <time>2019-05-28T13:10:54.000Z</time>
      </trkpt>
      <trkpt lat="44.10804" lon="4.72361">
        <ele>23.78</ele>
        <time>2019-05-28T13:10:59.000Z</time>
      </trkpt>
      <trkpt lat="44.10777" lon="4.72394">
        <ele>23.68</ele>
        <time>2019-05-28T13:11:04.000Z</time>
      </trkpt>
      <trkpt lat="44.10754" lon="4.72427">
        <ele>24.39</ele>
        <time>2019-05-28T13:11:09.000Z</time>
      </trkpt>
      <trkpt lat="44.10728" lon="4.72465">
        <ele>22.65</ele>
        <time>2019-05-28T13:11:14.000Z</time>
      </trkpt>
      <trkpt lat="44.107" lon="4.72499">
        <ele>22.58</ele>
        <time>2019-05-28T13:11:19.000Z</time>
      </trkpt>
      <trkpt lat="44.10672" lon="4.72535">
        <ele>24.32</ele>
        <time>2019-05-28T13:11:24.000Z</time>
      </trkpt>
      <trkpt lat="44.10645" lon="4.72571">
        <ele>23.83</ele>
        <time>2019-05-28T13:11:29.000Z</time>
      </trkpt>
      <trkpt lat="44.10619" lon="4.72605">
        <ele>24.33</ele>
        <time>2019-05-28T13:11:34.000Z</time>
      </trkpt>
      <trkpt lat="44.10594" lon="4.72638">
        <ele>23.52</ele>
        <time>2019-05-28T13:11:39.000Z</time>
      </trkpt>
      <trkpt lat="44.10566" lon="4.72671">
        <ele>24.56</ele>
        <time>2019-05-28T13:11:44.000Z</time>
      </trkpt>
      <trkpt lat="44.10537" lon="4.72699">
        <ele>25.33</ele>
        <time>2019-05-28T13:11:49.000Z</time>
      </trkpt>
      <trkpt lat="44.10505" lon="4.72722">
        <ele>27.56</ele>
        <time>2019-05-28T13:11:54.000Z</time>
      </trkpt>
      <trkpt lat="44.10473" lon="4.72742">
        <ele>28.33</ele>
        <time>2019-05-28T13:11:59.000Z</time>
      </trkpt>
      <trkpt lat="44.1044" lon="4.72757">
        <ele>26.64</ele>
        <time>2019-05-28T13:12:04.000Z</time>
      </trkpt>
      <trkpt lat="44.10405" lon="4.72765">
        <ele>27.59</ele>
        <time>2019-05-28T13:12:09.000Z</time>
      </trkpt>
      <trkpt lat="44.10371" lon="4.7277">
        <ele>26.58</ele>
        <time>2019-05-28T13:12:14.000Z</time>
      </trkpt>
      <trkpt lat="44.10337" lon="4.72772">
        <ele>24.66</ele>
        <time>2019-05-28T13:12:19.000Z</time>
      </trkpt>
      <trkpt lat="44.10303" lon="4.72767">
        <ele>25.33</ele>
        <time>2019-05-28T13:12:24.000Z</time>
      </trkpt>
      <trkpt lat="44.10267" lon="4.72758">
        <ele>24.58</ele>
        <time>2019-05-28T13:12:29.000Z</time>
      </trkpt>
      <trkpt lat="44.10234" lon="4.72746">
        <ele>23.54</ele>
        <time>2019-05-28T13:12:34.000Z</time>
      </trkpt>
      <trkpt lat="44.10201" lon="4.72729">
        <ele>23.58</ele>
        <time>2019-05-28T13:12:39.000Z</time>
      </trkpt>
      <trkpt lat="44.10169" lon="4.72709">
        <ele>24.39</ele>
        <time>2019-05-28T13:12:44.000Z</time>
      </trkpt>
      <trkpt lat="44.10135" lon="4.7269">
        <ele>25.58</ele>
        <time>2019-05-28T13:12:49.000Z</time>
      </trkpt>
      <trkpt lat="44.10103" lon="4.7267">
        <ele>25.4</ele>
        <time>2019-05-28T13:12:54.000Z</time>
      </trkpt>
      <trkpt lat="44.1007" lon="4.72649">
        <ele>27.7</ele>
        <time>2019-05-28T13:12:59.000Z</time>
      </trkpt>
      <trkpt lat="44.10036" lon="4.72633">
        <ele>28.33</ele>
        <time>2019-05-28T13:13:04.000Z</time>
      </trkpt>
      <trkpt lat="44.10005" lon="4.72622">
        <ele>27.34</ele>
        <time>2019-05-28T13:13:09.000Z</time>
      </trkpt>
      <trkpt lat="44.09976" lon="4.72632">
        <ele>27.58</ele>
        <time>2019-05-28T13:13:14.000Z</time>
      </trkpt>
      <trkpt lat="44.09946" lon="4.72623">
        <ele>28.58</ele>
        <time>2019-05-28T13:13:19.000Z</time>
      </trkpt>
      <trkpt lat="44.09915" lon="4.72614">
        <ele>28.57</ele>
        <time>2019-05-28T13:13:24.000Z</time>
      </trkpt>
      <trkpt lat="44.09882" lon="4.72609">
        <ele>28.77</ele>
        <time>2019-05-28T13:13:29.000Z</time>
      </trkpt>
      <trkpt lat="44.0985" lon="4.72605">
        <ele>29.58</ele>
        <time>2019-05-28T13:13:34.000Z</time>
      </trkpt>
      <trkpt lat="44.09817" lon="4.72604">
        <ele>29.57</ele>
        <time>2019-05-28T13:13:39.000Z</time>
      </trkpt>
      <trkpt lat="44.09783" lon="4.72606">
        <ele>30.52</ele>
        <time>2019-05-28T13:13:44.000Z</time>
      </trkpt>
      <trkpt lat="44.09752" lon="4.72608">
        <ele>29.65</ele>
        <time>2019-05-28T13:13:49.000Z</time>
      </trkpt>
      <trkpt lat="44.09721" lon="4.72608">
        <ele>28.65</ele>
        <time>2019-05-28T13:13:54.000Z</time>
      </trkpt>
      <trkpt lat="44.09696" lon="4.72607">
        <ele>29.57</ele>
        <time>2019-05-28T13:13:59.000Z</time>
      </trkpt>
      <trkpt lat="44.09686" lon="4.72604">
        <ele>28.6</ele>
        <time>2019-05-28T13:14:05.000Z</time>
      </trkpt>
      <trkpt lat="44.09678" lon="4.72613">
        <ele>29.34</ele>
        <time>2019-05-28T13:14:14.000Z</time>
      </trkpt>
      <trkpt lat="44.09679" lon="4.7264">
        <ele>29.59</ele>
        <time>2019-05-28T13:14:19.000Z</time>
      </trkpt>
      <trkpt lat="44.09679" lon="4.72675">
        <ele>29.53</ele>
        <time>2019-05-28T13:14:24.000Z</time>
      </trkpt>
      <trkpt lat="44.09681" lon="4.72713">
        <ele>29.59</ele>
        <time>2019-05-28T13:14:29.000Z</time>
      </trkpt>
      <trkpt lat="44.09681" lon="4.72748">
        <ele>28.59</ele>
        <time>2019-05-28T13:14:34.000Z</time>
      </trkpt>
      <trkpt lat="44.09682" lon="4.72788">
        <ele>30.45</ele>
        <time>2019-05-28T13:14:39.000Z</time>
      </trkpt>
      <trkpt lat="44.09684" lon="4.7283">
        <ele>30.71</ele>
        <time>2019-05-28T13:14:44.000Z</time>
      </trkpt>
      <trkpt lat="44.09686" lon="4.72871">
        <ele>29.59</ele>
        <time>2019-05-28T13:14:49.000Z</time>
      </trkpt>
      <trkpt lat="44.09687" lon="4.72912">
        <ele>31.65</ele>
        <time>2019-05-28T13:14:54.000Z</time>
      </trkpt>
      <trkpt lat="44.09689" lon="4.72953">
        <ele>30.59</ele>
        <time>2019-05-28T13:14:59.000Z</time>
      </trkpt>
      <trkpt lat="44.0969" lon="4.72995">
        <ele>30.59</ele>
        <time>2019-05-28T13:15:04.000Z</time>
      </trkpt>
      <trkpt lat="44.0969" lon="4.73037">
        <ele>29.6</ele>
        <time>2019-05-28T13:15:09.000Z</time>
      </trkpt>
      <trkpt lat="44.09694" lon="4.73073">
        <ele>29.59</ele>
        <time>2019-05-28T13:15:14.000Z</time>
      </trkpt>
      <trkpt lat="44.09699" lon="4.73086">
        <ele>30.59</ele>
        <time>2019-05-28T13:15:26.000Z</time>
      </trkpt>
      <trkpt lat="44.09703" lon="4.73099">
        <ele>29.65</ele>
        <time>2019-05-28T13:15:31.000Z</time>
      </trkpt>
      <trkpt lat="44.09693" lon="4.73101">
        <ele>33.59</ele>
        <time>2019-05-28T13:17:08.000Z</time>
      </trkpt>
      <trkpt lat="44.09676" lon="4.73108">
        <ele>31.15</ele>
        <time>2019-05-28T13:17:13.000Z</time>
      </trkpt>
      <trkpt lat="44.09649" lon="4.73107">
        <ele>32.5</ele>
        <time>2019-05-28T13:17:18.000Z</time>
      </trkpt>
      <trkpt lat="44.09627" lon="4.7311">
        <ele>30.62</ele>
        <time>2019-05-28T13:17:23.000Z</time>
      </trkpt>
      <trkpt lat="44.09602" lon="4.73107">
        <ele>29.09</ele>
        <time>2019-05-28T13:17:28.000Z</time>
      </trkpt>
      <trkpt lat="44.09575" lon="4.73103">
        <ele>29.6</ele>
        <time>2019-05-28T13:17:33.000Z</time>
      </trkpt>
      <trkpt lat="44.09546" lon="4.73094">
        <ele>29.59</ele>
        <time>2019-05-28T13:17:38.000Z</time>
      </trkpt>
      <trkpt lat="44.09519" lon="4.73076">
        <ele>28.59</ele>
        <time>2019-05-28T13:17:43.000Z</time>
      </trkpt>
      <trkpt lat="44.09488" lon="4.73061">
        <ele>28.78</ele>
        <time>2019-05-28T13:17:48.000Z</time>
      </trkpt>
      <trkpt lat="44.09455" lon="4.73052">
        <ele>28.41</ele>
        <time>2019-05-28T13:17:53.000Z</time>
      </trkpt>
      <trkpt lat="44.09424" lon="4.7305">
        <ele>27.84</ele>
        <time>2019-05-28T13:17:58.000Z</time>
      </trkpt>
      <trkpt lat="44.09392" lon="4.73065">
        <ele>28.59</ele>
        <time>2019-05-28T13:18:03.000Z</time>
      </trkpt>
      <trkpt lat="44.09356" lon="4.73085">
        <ele>29.59</ele>
        <time>2019-05-28T13:18:08.000Z</time>
      </trkpt>
      <trkpt lat="44.09335" lon="4.73129">
        <ele>22.98</ele>
        <time>2019-05-28T13:18:13.000Z</time>
      </trkpt>
      <trkpt lat="44.09314" lon="4.73166">
        <ele>19.61</ele>
        <time>2019-05-28T13:18:18.000Z</time>
      </trkpt>
      <trkpt lat="44.09297" lon="4.73207">
        <ele>22.53</ele>
        <time>2019-05-28T13:18:23.000Z</time>
      </trkpt>
      <trkpt lat="44.09277" lon="4.73246">
        <ele>25.34</ele>
        <time>2019-05-28T13:18:28.000Z</time>
      </trkpt>
      <trkpt lat="44.09251" lon="4.73286">
        <ele>25.72</ele>
        <time>2019-05-28T13:18:33.000Z</time>
      </trkpt>
      <trkpt lat="44.09232" lon="4.73333">
        <ele>26.58</ele>
        <time>2019-05-28T13:18:38.000Z</time>
      </trkpt>
      <trkpt lat="44.09222" lon="4.73376">
        <ele>25.6</ele>
        <time>2019-05-28T13:18:43.000Z</time>
      </trkpt>
      <trkpt lat="44.0922" lon="4.73425">
        <ele>23.66</ele>
        <time>2019-05-28T13:18:48.000Z</time>
      </trkpt>
      <trkpt lat="44.09218" lon="4.73471">
        <ele>22.84</ele>
        <time>2019-05-28T13:18:53.000Z</time>
      </trkpt>
      <trkpt lat="44.09219" lon="4.7352">
        <ele>24.22</ele>
        <time>2019-05-28T13:18:58.000Z</time>
      </trkpt>
      <trkpt lat="44.09223" lon="4.73568">
        <ele>24.66</ele>
        <time>2019-05-28T13:19:03.000Z</time>
      </trkpt>
      <trkpt lat="44.0923" lon="4.73616">
        <ele>22.91</ele>
        <time>2019-05-28T13:19:08.000Z</time>
      </trkpt>
      <trkpt lat="44.09235" lon="4.73665">
        <ele>24.57</ele>
        <time>2019-05-28T13:19:13.000Z</time>
      </trkpt>
      <trkpt lat="44.0924" lon="4.73712">
        <ele>22.61</ele>
        <time>2019-05-28T13:19:18.000Z</time>
      </trkpt>
      <trkpt lat="44.09244" lon="4.73761">
        <ele>23.58</ele>
        <time>2019-05-28T13:19:23.000Z</time>
      </trkpt>
      <trkpt lat="44.09247" lon="4.7381">
        <ele>23.53</ele>
        <time>2019-05-28T13:19:28.000Z</time>
      </trkpt>
      <trkpt lat="44.09253" lon="4.73857">
        <ele>25.39</ele>
        <time>2019-05-28T13:19:33.000Z</time>
      </trkpt>
      <trkpt lat="44.09261" lon="4.739">
        <ele>27.53</ele>
        <time>2019-05-28T13:19:38.000Z</time>
      </trkpt>
      <trkpt lat="44.09262" lon="4.73947">
        <ele>25.8</ele>
        <time>2019-05-28T13:19:43.000Z</time>
      </trkpt>
      <trkpt lat="44.09265" lon="4.73992">
        <ele>25.84</ele>
        <time>2019-05-28T13:19:48.000Z</time>
      </trkpt>
      <trkpt lat="44.09272" lon="4.74035">
        <ele>26.55</ele>
        <time>2019-05-28T13:19:53.000Z</time>
      </trkpt>
      <trkpt lat="44.09285" lon="4.74077">
        <ele>24.85</ele>
        <time>2019-05-28T13:19:58.000Z</time>
      </trkpt>
      <trkpt lat="44.09306" lon="4.74117">
        <ele>23.6</ele>
        <time>2019-05-28T13:20:03.000Z</time>
      </trkpt>
      <trkpt lat="44.09327" lon="4.74153">
        <ele>22.84</ele>
        <time>2019-05-28T13:20:08.000Z</time>
      </trkpt>
      <trkpt lat="44.0935" lon="4.74188">
        <ele>23.34</ele>
        <time>2019-05-28T13:20:13.000Z</time>
      </trkpt>
      <trkpt lat="44.09367" lon="4.74223">
        <ele>22.59</ele>
        <time>2019-05-28T13:20:18.000Z</time>
      </trkpt>
      <trkpt lat="44.09388" lon="4.74257">
        <ele>21.8</ele>
        <time>2019-05-28T13:20:23.000Z</time>
      </trkpt>
      <trkpt lat="44.09409" lon="4.74293">
        <ele>23.33</ele>
        <time>2019-05-28T13:20:28.000Z</time>
      </trkpt>
      <trkpt lat="44.0943" lon="4.74324">
        <ele>22.9</ele>
        <time>2019-05-28T13:20:33.000Z</time>
      </trkpt>
      <trkpt lat="44.09453" lon="4.74353">
        <ele>23.77</ele>
        <time>2019-05-28T13:20:38.000Z</time>
      </trkpt>
      <trkpt lat="44.09477" lon="4.74381">
        <ele>23.41</ele>
        <time>2019-05-28T13:20:43.000Z</time>
      </trkpt>
      <trkpt lat="44.09501" lon="4.74409">
        <ele>25.33</ele>
        <time>2019-05-28T13:20:48.000Z</time>
      </trkpt>
      <trkpt lat="44.09525" lon="4.74436">
        <ele>24.84</ele>
        <time>2019-05-28T13:20:53.000Z</time>
      </trkpt>
      <trkpt lat="44.0955" lon="4.74462">
        <ele>25.78</ele>
        <time>2019-05-28T13:20:58.000Z</time>
      </trkpt>
      <trkpt lat="44.09574" lon="4.74488">
        <ele>25.59</ele>
        <time>2019-05-28T13:21:03.000Z</time>
      </trkpt>
      <trkpt lat="44.09598" lon="4.74513">
        <ele>24.64</ele>
        <time>2019-05-28T13:21:08.000Z</time>
      </trkpt>
      <trkpt lat="44.09619" lon="4.74536">
        <ele>24.59</ele>
        <time>2019-05-28T13:21:13.000Z</time>
      </trkpt>
      <trkpt lat="44.09641" lon="4.7456">
        <ele>23.84</ele>
        <time>2019-05-28T13:21:18.000Z</time>
      </trkpt>
      <trkpt lat="44.09663" lon="4.74584">
        <ele>24.59</ele>
        <time>2019-05-28T13:21:23.000Z</time>
      </trkpt>
      <trkpt lat="44.09683" lon="4.74606">
        <ele>24.53</ele>
        <time>2019-05-28T13:21:28.000Z</time>
      </trkpt>
      <trkpt lat="44.09703" lon="4.74629">
        <ele>24.59</ele>
        <time>2019-05-28T13:21:33.000Z</time>
      </trkpt>
      <trkpt lat="44.09722" lon="4.74649">
        <ele>24.4</ele>
        <time>2019-05-28T13:21:38.000Z</time>
      </trkpt>
      <trkpt lat="44.09742" lon="4.74672">
        <ele>23.61</ele>
        <time>2019-05-28T13:21:43.000Z</time>
      </trkpt>
      <trkpt lat="44.09758" lon="4.74699">
        <ele>23.59</ele>
        <time>2019-05-28T13:21:48.000Z</time>
      </trkpt>
      <trkpt lat="44.09773" lon="4.74727">
        <ele>24.78</ele>
        <time>2019-05-28T13:21:53.000Z</time>
      </trkpt>
      <trkpt lat="44.09787" lon="4.74756">
        <ele>24.59</ele>
        <time>2019-05-28T13:21:58.000Z</time>
      </trkpt>
      <trkpt lat="44.09804" lon="4.74786">
        <ele>24.34</ele>
        <time>2019-05-28T13:22:03.000Z</time>
      </trkpt>
      <trkpt lat="44.0982" lon="4.74817">
        <ele>24.59</ele>
        <time>2019-05-28T13:22:08.000Z</time>
      </trkpt>
      <trkpt lat="44.09844" lon="4.74839">
        <ele>25.59</ele>
        <time>2019-05-28T13:22:13.000Z</time>
      </trkpt>
      <trkpt lat="44.0987" lon="4.74861">
        <ele>25.59</ele>
        <time>2019-05-28T13:22:18.000Z</time>
      </trkpt>
      <trkpt lat="44.09894" lon="4.74885">
        <ele>26.35</ele>
        <time>2019-05-28T13:22:23.000Z</time>
      </trkpt>
      <trkpt lat="44.09914" lon="4.7491">
        <ele>26.57</ele>
        <time>2019-05-28T13:22:28.000Z</time>
      </trkpt>
      <trkpt lat="44.09938" lon="4.74934">
        <ele>25.59</ele>
        <time>2019-05-28T13:22:33.000Z</time>
      </trkpt>
      <trkpt lat="44.09962" lon="4.7496">
        <ele>24.84</ele>
        <time>2019-05-28T13:22:38.000Z</time>
      </trkpt>
      <trkpt lat="44.09986" lon="4.74986">
        <ele>24.82</ele>
        <time>2019-05-28T13:22:43.000Z</time>
      </trkpt>
      <trkpt lat="44.10005" lon="4.75016">
        <ele>24.65</ele>
        <time>2019-05-28T13:22:48.000Z</time>
      </trkpt>
      <trkpt lat="44.10024" lon="4.7505">
        <ele>24.59</ele>
        <time>2019-05-28T13:22:53.000Z</time>
      </trkpt>
      <trkpt lat="44.10042" lon="4.75083">
        <ele>24.59</ele>
        <time>2019-05-28T13:22:58.000Z</time>
      </trkpt>
      <trkpt lat="44.10048" lon="4.75121">
        <ele>23.85</ele>
        <time>2019-05-28T13:23:03.000Z</time>
      </trkpt>
      <trkpt lat="44.10039" lon="4.75158">
        <ele>26.52</ele>
        <time>2019-05-28T13:23:08.000Z</time>
      </trkpt>
      <trkpt lat="44.10025" lon="4.75194">
        <ele>27.57</ele>
        <time>2019-05-28T13:23:13.000Z</time>
      </trkpt>
      <trkpt lat="44.1002" lon="4.75235">
        <ele>26.6</ele>
        <time>2019-05-28T13:23:18.000Z</time>
      </trkpt>
      <trkpt lat="44.10015" lon="4.75276">
        <ele>26.54</ele>
        <time>2019-05-28T13:23:23.000Z</time>
      </trkpt>
      <trkpt lat="44.10011" lon="4.75315">
        <ele>25.84</ele>
        <time>2019-05-28T13:23:28.000Z</time>
      </trkpt>
      <trkpt lat="44.10006" lon="4.75356">
        <ele>25.57</ele>
        <time>2019-05-28T13:23:33.000Z</time>
      </trkpt>
      <trkpt lat="44.09999" lon="4.75399">
        <ele>26.52</ele>
        <time>2019-05-28T13:23:38.000Z</time>
      </trkpt>
      <trkpt lat="44.09995" lon="4.75436">
        <ele>26.64</ele>
        <time>2019-05-28T13:23:43.000Z</time>
      </trkpt>
      <trkpt lat="44.09998" lon="4.75457">
        <ele>27.52</ele>
        <time>2019-05-28T13:23:48.000Z</time>
      </trkpt>
      <trkpt lat="44.10009" lon="4.75461">
        <ele>28.52</ele>
        <time>2019-05-28T13:23:54.000Z</time>
      </trkpt>
      <trkpt lat="44.10032" lon="4.75445">
        <ele>26.64</ele>
        <time>2019-05-28T13:23:59.000Z</time>
      </trkpt>
      <trkpt lat="44.10057" lon="4.75437">
        <ele>26.59</ele>
        <time>2019-05-28T13:24:04.000Z</time>
      </trkpt>
      <trkpt lat="44.10082" lon="4.75427">
        <ele>25.6</ele>
        <time>2019-05-28T13:24:09.000Z</time>
      </trkpt>
      <trkpt lat="44.10104" lon="4.75404">
        <ele>25.63</ele>
        <time>2019-05-28T13:24:14.000Z</time>
      </trkpt>
      <trkpt lat="44.10122" lon="4.75382">
        <ele>26.52</ele>
        <time>2019-05-28T13:24:19.000Z</time>
      </trkpt>
      <trkpt lat="44.10145" lon="4.75369">
        <ele>26.34</ele>
        <time>2019-05-28T13:24:24.000Z</time>
      </trkpt>
      <trkpt lat="44.10171" lon="4.75373">
        <ele>23.85</ele>
        <time>2019-05-28T13:24:29.000Z</time>
      </trkpt>
      <trkpt lat="44.10197" lon="4.7538">
        <ele>24.57</ele>
        <time>2019-05-28T13:24:34.000Z</time>
      </trkpt>
      <trkpt lat="44.10223" lon="4.75384">
        <ele>24.33</ele>
        <time>2019-05-28T13:24:39.000Z</time>
      </trkpt>
      <trkpt lat="44.10248" lon="4.75392">
        <ele>22.84</ele>
        <time>2019-05-28T13:24:44.000Z</time>
      </trkpt>
      <trkpt lat="44.10273" lon="4.75397">
        <ele>22.59</ele>
        <time>2019-05-28T13:24:49.000Z</time>
      </trkpt>
      <trkpt lat="44.10299" lon="4.75403">
        <ele>22.58</ele>
        <time>2019-05-28T13:24:54.000Z</time>
      </trkpt>
      <trkpt lat="44.10322" lon="4.7541">
        <ele>23.58</ele>
        <time>2019-05-28T13:24:59.000Z</time>
      </trkpt>
      <trkpt lat="44.10349" lon="4.75417">
        <ele>23.58</ele>
        <time>2019-05-28T13:25:04.000Z</time>
      </trkpt>
      <trkpt lat="44.10374" lon="4.75426">
        <ele>23.58</ele>
        <time>2019-05-28T13:25:09.000Z</time>
      </trkpt>
      <trkpt lat="44.104" lon="4.75434">
        <ele>24.57</ele>
        <time>2019-05-28T13:25:14.000Z</time>
      </trkpt>
      <trkpt lat="44.10425" lon="4.75444">
        <ele>24.52</ele>
        <time>2019-05-28T13:25:19.000Z</time>
      </trkpt>
      <trkpt lat="44.10443" lon="4.75465">
        <ele>25.58</ele>
        <time>2019-05-28T13:25:24.000Z</time>
      </trkpt>
      <trkpt lat="44.1045" lon="4.75498">
        <ele>25.58</ele>
        <time>2019-05-28T13:25:29.000Z</time>
      </trkpt>
      <trkpt lat="44.10455" lon="4.75534">
        <ele>23.83</ele>
        <time>2019-05-28T13:25:34.000Z</time>
      </trkpt>
      <trkpt lat="44.10457" lon="4.75561">
        <ele>25.56</ele>
        <time>2019-05-28T13:25:39.000Z</time>
      </trkpt>
      <trkpt lat="44.10441" lon="4.75566">
        <ele>24.83</ele>
        <time>2019-05-28T13:25:44.000Z</time>
      </trkpt>
      <trkpt lat="44.10424" lon="4.75563">
        <ele>23.83</ele>
        <time>2019-05-28T13:25:49.000Z</time>
      </trkpt>
      <trkpt lat="44.10426" lon="4.7553">
        <ele>23.58</ele>
        <time>2019-05-28T13:25:54.000Z</time>
      </trkpt>
      <trkpt lat="44.10421" lon="4.75494">
        <ele>22.58</ele>
        <time>2019-05-28T13:25:59.000Z</time>
      </trkpt>
      <trkpt lat="44.10401" lon="4.75472">
        <ele>22.52</ele>
        <time>2019-05-28T13:26:04.000Z</time>
      </trkpt>
      <trkpt lat="44.10377" lon="4.75461">
        <ele>22.58</ele>
        <time>2019-05-28T13:26:09.000Z</time>
      </trkpt>
      <trkpt lat="44.10351" lon="4.75452">
        <ele>23.53</ele>
        <time>2019-05-28T13:26:14.000Z</time>
      </trkpt>
      <trkpt lat="44.10324" lon="4.75443">
        <ele>23.58</ele>
        <time>2019-05-28T13:26:19.000Z</time>
      </trkpt>
      <trkpt lat="44.10296" lon="4.75435">
        <ele>22.58</ele>
        <time>2019-05-28T13:26:24.000Z</time>
      </trkpt>
      <trkpt lat="44.10267" lon="4.7543">
        <ele>23.6</ele>
        <time>2019-05-28T13:26:29.000Z</time>
      </trkpt>
      <trkpt lat="44.10236" lon="4.75424">
        <ele>25.32</ele>
        <time>2019-05-28T13:26:34.000Z</time>
      </trkpt>
      <trkpt lat="44.10207" lon="4.75417">
        <ele>24.83</ele>
        <time>2019-05-28T13:26:39.000Z</time>
      </trkpt>
      <trkpt lat="44.10177" lon="4.75412">
        <ele>24.54</ele>
        <time>2019-05-28T13:26:44.000Z</time>
      </trkpt>
      <trkpt lat="44.1015" lon="4.75414">
        <ele>25.81</ele>
        <time>2019-05-28T13:26:49.000Z</time>
      </trkpt>
      <trkpt lat="44.1013" lon="4.75432">
        <ele>25.88</ele>
        <time>2019-05-28T13:26:54.000Z</time>
      </trkpt>
      <trkpt lat="44.10109" lon="4.75459">
        <ele>24.9</ele>
        <time>2019-05-28T13:26:59.000Z</time>
      </trkpt>
      <trkpt lat="44.10085" lon="4.75468">
        <ele>24.59</ele>
        <time>2019-05-28T13:27:04.000Z</time>
      </trkpt>
      <trkpt lat="44.1006" lon="4.7547">
        <ele>25.63</ele>
        <time>2019-05-28T13:27:09.000Z</time>
      </trkpt>
      <trkpt lat="44.10034" lon="4.75482">
        <ele>24.65</ele>
        <time>2019-05-28T13:27:14.000Z</time>
      </trkpt>
      <trkpt lat="44.1001" lon="4.75508">
        <ele>23.65</ele>
        <time>2019-05-28T13:27:19.000Z</time>
      </trkpt>
      <trkpt lat="44.09987" lon="4.75536">
        <ele>23.54</ele>
        <time>2019-05-28T13:27:24.000Z</time>
      </trkpt>
      <trkpt lat="44.09972" lon="4.75568">
        <ele>24.58</ele>
        <time>2019-05-28T13:27:29.000Z</time>
      </trkpt>
      <trkpt lat="44.09964" lon="4.75603">
        <ele>24.82</ele>
        <time>2019-05-28T13:27:34.000Z</time>
      </trkpt>
      <trkpt lat="44.0996" lon="4.75641">
        <ele>25.58</ele>
        <time>2019-05-28T13:27:39.000Z</time>
      </trkpt>
      <trkpt lat="44.09958" lon="4.75679">
        <ele>26.34</ele>
        <time>2019-05-28T13:27:44.000Z</time>
      </trkpt>
      <trkpt lat="44.09977" lon="4.75705">
        <ele>24.84</ele>
        <time>2019-05-28T13:27:49.000Z</time>
      </trkpt>
      <trkpt lat="44.10001" lon="4.75723">
        <ele>23.65</ele>
        <time>2019-05-28T13:27:54.000Z</time>
      </trkpt>
      <trkpt lat="44.10025" lon="4.7574">
        <ele>23.58</ele>
        <time>2019-05-28T13:27:59.000Z</time>
      </trkpt>
      <trkpt lat="44.10047" lon="4.75755">
        <ele>25.57</ele>
        <time>2019-05-28T13:28:04.000Z</time>
      </trkpt>
      <trkpt lat="44.1007" lon="4.75765">
        <ele>25.57</ele>
        <time>2019-05-28T13:28:09.000Z</time>
      </trkpt>
      <trkpt lat="44.10092" lon="4.75773">
        <ele>25.52</ele>
        <time>2019-05-28T13:28:14.000Z</time>
      </trkpt>
      <trkpt lat="44.10111" lon="4.75777">
        <ele>24.6</ele>
        <time>2019-05-28T13:28:19.000Z</time>
      </trkpt>
      <trkpt lat="44.10131" lon="4.75787">
        <ele>26.57</ele>
        <time>2019-05-28T13:28:24.000Z</time>
      </trkpt>
      <trkpt lat="44.10152" lon="4.75797">
        <ele>24.79</ele>
        <time>2019-05-28T13:28:29.000Z</time>
      </trkpt>
      <trkpt lat="44.10176" lon="4.75802">
        <ele>24.58</ele>
        <time>2019-05-28T13:28:34.000Z</time>
      </trkpt>
      <trkpt lat="44.10199" lon="4.75805">
        <ele>23.71</ele>
        <time>2019-05-28T13:28:39.000Z</time>
      </trkpt>
      <trkpt lat="44.10224" lon="4.75811">
        <ele>24.33</ele>
        <time>2019-05-28T13:28:44.000Z</time>
      </trkpt>
      <trkpt lat="44.10247" lon="4.75815">
        <ele>24.71</ele>
        <time>2019-05-28T13:28:49.000Z</time>
      </trkpt>
      <trkpt lat="44.10258" lon="4.75817">
        <ele>24.38</ele>
        <time>2019-05-28T13:28:54.000Z</time>
      </trkpt>
      <trkpt lat="44.10257" lon="4.75831">
        <ele>26.81</ele>
        <time>2019-05-28T13:29:20.000Z</time>
      </trkpt>
      <trkpt lat="44.1025" lon="4.75842">
        <ele>27.63</ele>
        <time>2019-05-28T13:29:52.000Z</time>
      </trkpt>
      <trkpt lat="44.10243" lon="4.75864">
        <ele>26.85</ele>
        <time>2019-05-28T13:29:57.000Z</time>
      </trkpt>
      <trkpt lat="44.10251" lon="4.75881">
        <ele>26.58</ele>
        <time>2019-05-28T13:30:02.000Z</time>
      </trkpt>
      <trkpt lat="44.10263" lon="4.75884">
        <ele>27.08</ele>
        <time>2019-05-28T13:32:28.000Z</time>
      </trkpt>
      <trkpt lat="44.10269" lon="4.75919">
        <ele>24.65</ele>
        <time>2019-05-28T13:32:33.000Z</time>
      </trkpt>
      <trkpt lat="44.10275" lon="4.75955">
        <ele>24.89</ele>
        <time>2019-05-28T13:32:38.000Z</time>
      </trkpt>
      <trkpt lat="44.10283" lon="4.75994">
        <ele>23.78</ele>
        <time>2019-05-28T13:32:43.000Z</time>
      </trkpt>
      <trkpt lat="44.1029" lon="4.76033">
        <ele>24.58</ele>
        <time>2019-05-28T13:32:48.000Z</time>
      </trkpt>
      <trkpt lat="44.10299" lon="4.76082">
        <ele>21.84</ele>
        <time>2019-05-28T13:32:53.000Z</time>
      </trkpt>
      <trkpt lat="44.10306" lon="4.76129">
        <ele>21.41</ele>
        <time>2019-05-28T13:32:58.000Z</time>
      </trkpt>
      <trkpt lat="44.10313" lon="4.76174">
        <ele>21.58</ele>
        <time>2019-05-28T13:33:03.000Z</time>
      </trkpt>
      <trkpt lat="44.10321" lon="4.76217">
        <ele>22.52</ele>
        <time>2019-05-28T13:33:08.000Z</time>
      </trkpt>
      <trkpt lat="44.10349" lon="4.76235">
        <ele>21.64</ele>
        <time>2019-05-28T13:33:13.000Z</time>
      </trkpt>
      <trkpt lat="44.1038" lon="4.76252">
        <ele>22.31</ele>
        <time>2019-05-28T13:33:18.000Z</time>
      </trkpt>
      <trkpt lat="44.10407" lon="4.76269">
        <ele>21.14</ele>
        <time>2019-05-28T13:33:23.000Z</time>
      </trkpt>
      <trkpt lat="44.10428" lon="4.76282">
        <ele>22.63</ele>
        <time>2019-05-28T13:33:28.000Z</time>
      </trkpt>
      <trkpt lat="44.10449" lon="4.76294">
        <ele>23.58</ele>
        <time>2019-05-28T13:33:33.000Z</time>
      </trkpt>
      <trkpt lat="44.10472" lon="4.7631">
        <ele>23.58</ele>
        <time>2019-05-28T13:33:38.000Z</time>
      </trkpt>
      <trkpt lat="44.10495" lon="4.76329">
        <ele>24.58</ele>
        <time>2019-05-28T13:33:43.000Z</time>
      </trkpt>
      <trkpt lat="44.10513" lon="4.76361">
        <ele>22.64</ele>
        <time>2019-05-28T13:33:48.000Z</time>
      </trkpt>
      <trkpt lat="44.1052" lon="4.764">
        <ele>24.08</ele>
        <time>2019-05-28T13:33:53.000Z</time>
      </trkpt>
      <trkpt lat="44.10527" lon="4.76445">
        <ele>24.58</ele>
        <time>2019-05-28T13:33:58.000Z</time>
      </trkpt>
      <trkpt lat="44.10531" lon="4.76486">
        <ele>24.28</ele>
        <time>2019-05-28T13:34:03.000Z</time>
      </trkpt>
      <trkpt lat="44.10534" lon="4.76529">
        <ele>22.64</ele>
        <time>2019-05-28T13:34:08.000Z</time>
      </trkpt>
      <trkpt lat="44.10539" lon="4.76573">
        <ele>22.33</ele>
        <time>2019-05-28T13:34:13.000Z</time>
      </trkpt>
      <trkpt lat="44.10559" lon="4.76606">
        <ele>22.57</ele>
        <time>2019-05-28T13:34:18.000Z</time>
      </trkpt>
      <trkpt lat="44.10584" lon="4.7663">
        <ele>24.5</ele>
        <time>2019-05-28T13:34:23.000Z</time>
      </trkpt>
      <trkpt lat="44.10603" lon="4.76663">
        <ele>26.26</ele>
        <time>2019-05-28T13:34:28.000Z</time>
      </trkpt>
      <trkpt lat="44.10623" lon="4.76688">
        <ele>29.31</ele>
        <time>2019-05-28T13:34:33.000Z</time>
      </trkpt>
      <trkpt lat="44.10636" lon="4.76721">
        <ele>25.09</ele>
        <time>2019-05-28T13:34:38.000Z</time>
      </trkpt>
      <trkpt lat="44.10646" lon="4.76758">
        <ele>23.4</ele>
        <time>2019-05-28T13:34:43.000Z</time>
      </trkpt>
      <trkpt lat="44.10663" lon="4.76792">
        <ele>23.57</ele>
        <time>2019-05-28T13:34:48.000Z</time>
      </trkpt>
      <trkpt lat="44.10669" lon="4.76833">
        <ele>23.58</ele>
        <time>2019-05-28T13:34:53.000Z</time>
      </trkpt>
      <trkpt lat="44.10673" lon="4.7688">
        <ele>22.34</ele>
        <time>2019-05-28T13:34:58.000Z</time>
      </trkpt>
      <trkpt lat="44.10676" lon="4.76927">
        <ele>22.57</ele>
        <time>2019-05-28T13:35:03.000Z</time>
      </trkpt>
      <trkpt lat="44.10678" lon="4.76974">
        <ele>21.62</ele>
        <time>2019-05-28T13:35:08.000Z</time>
      </trkpt>
      <trkpt lat="44.10681" lon="4.77021">
        <ele>22.57</ele>
        <time>2019-05-28T13:35:13.000Z</time>
      </trkpt>
      <trkpt lat="44.10685" lon="4.77068">
        <ele>23.8</ele>
        <time>2019-05-28T13:35:18.000Z</time>
      </trkpt>
      <trkpt lat="44.10689" lon="4.7711">
        <ele>23.56</ele>
        <time>2019-05-28T13:35:23.000Z</time>
      </trkpt>
      <trkpt lat="44.10714" lon="4.77134">
        <ele>23.87</ele>
        <time>2019-05-28T13:35:28.000Z</time>
      </trkpt>
      <trkpt lat="44.10743" lon="4.7715">
        <ele>25.32</ele>
        <time>2019-05-28T13:35:33.000Z</time>
      </trkpt>
      <trkpt lat="44.10767" lon="4.77173">
        <ele>26.55</ele>
        <time>2019-05-28T13:35:38.000Z</time>
      </trkpt>
      <trkpt lat="44.10793" lon="4.77197">
        <ele>25.63</ele>
        <time>2019-05-28T13:35:43.000Z</time>
      </trkpt>
      <trkpt lat="44.10817" lon="4.77224">
        <ele>25.57</ele>
        <time>2019-05-28T13:35:48.000Z</time>
      </trkpt>
      <trkpt lat="44.10834" lon="4.77258">
        <ele>25.57</ele>
        <time>2019-05-28T13:35:53.000Z</time>
      </trkpt>
      <trkpt lat="44.10846" lon="4.77294">
        <ele>25.58</ele>
        <time>2019-05-28T13:35:58.000Z</time>
      </trkpt>
      <trkpt lat="44.10859" lon="4.77333">
        <ele>25.57</ele>
        <time>2019-05-28T13:36:03.000Z</time>
      </trkpt>
      <trkpt lat="44.10872" lon="4.77367">
        <ele>25.57</ele>
        <time>2019-05-28T13:36:08.000Z</time>
      </trkpt>
      <trkpt lat="44.10883" lon="4.77402">
        <ele>25.57</ele>
        <time>2019-05-28T13:36:13.000Z</time>
      </trkpt>
      <trkpt lat="44.10892" lon="4.77441">
        <ele>25.57</ele>
        <time>2019-05-28T13:36:18.000Z</time>
      </trkpt>
      <trkpt lat="44.10905" lon="4.77478">
        <ele>24.57</ele>
        <time>2019-05-28T13:36:23.000Z</time>
      </trkpt>
      <trkpt lat="44.10917" lon="4.77517">
        <ele>24.32</ele>
        <time>2019-05-28T13:36:28.000Z</time>
      </trkpt>
      <trkpt lat="44.10928" lon="4.77552">
        <ele>24.57</ele>
        <time>2019-05-28T13:36:33.000Z</time>
      </trkpt>
      <trkpt lat="44.10941" lon="4.77586">
        <ele>25.32</ele>
        <time>2019-05-28T13:36:38.000Z</time>
      </trkpt>
      <trkpt lat="44.10955" lon="4.77619">
        <ele>25.57</ele>
        <time>2019-05-28T13:36:43.000Z</time>
      </trkpt>
      <trkpt lat="44.1097" lon="4.77648">
        <ele>25.77</ele>
        <time>2019-05-28T13:36:48.000Z</time>
      </trkpt>
      <trkpt lat="44.10987" lon="4.77677">
        <ele>26.56</ele>
        <time>2019-05-28T13:36:53.000Z</time>
      </trkpt>
      <trkpt lat="44.11004" lon="4.77706">
        <ele>27.56</ele>
        <time>2019-05-28T13:36:58.000Z</time>
      </trkpt>
      <trkpt lat="44.11021" lon="4.77735">
        <ele>27.56</ele>
        <time>2019-05-28T13:37:03.000Z</time>
      </trkpt>
      <trkpt lat="44.1104" lon="4.77763">
        <ele>28.62</ele>
        <time>2019-05-28T13:37:08.000Z</time>
      </trkpt>
      <trkpt lat="44.11057" lon="4.7779">
        <ele>27.8</ele>
        <time>2019-05-28T13:37:13.000Z</time>
      </trkpt>
      <trkpt lat="44.11074" lon="4.77814">
        <ele>26.58</ele>
        <time>2019-05-28T13:37:18.000Z</time>
      </trkpt>
      <trkpt lat="44.11092" lon="4.77836">
        <ele>26.38</ele>
        <time>2019-05-28T13:37:23.000Z</time>
      </trkpt>
      <trkpt lat="44.11104" lon="4.77865">
        <ele>25.81</ele>
        <time>2019-05-28T13:37:28.000Z</time>
      </trkpt>
      <trkpt lat="44.11118" lon="4.77902">
        <ele>24.56</ele>
        <time>2019-05-28T13:37:33.000Z</time>
      </trkpt>
      <trkpt lat="44.11145" lon="4.7792">
        <ele>25.56</ele>
        <time>2019-05-28T13:37:38.000Z</time>
      </trkpt>
      <trkpt lat="44.11165" lon="4.77948">
        <ele>24.57</ele>
        <time>2019-05-28T13:37:43.000Z</time>
      </trkpt>
      <trkpt lat="44.11169" lon="4.77987">
        <ele>24.56</ele>
        <time>2019-05-28T13:37:48.000Z</time>
      </trkpt>
      <trkpt lat="44.11173" lon="4.78027">
        <ele>24.58</ele>
        <time>2019-05-28T13:37:53.000Z</time>
      </trkpt>
      <trkpt lat="44.11177" lon="4.78065">
        <ele>23.58</ele>
        <time>2019-05-28T13:37:58.000Z</time>
      </trkpt>
      <trkpt lat="44.11175" lon="4.78104">
        <ele>23.56</ele>
        <time>2019-05-28T13:38:03.000Z</time>
      </trkpt>
      <trkpt lat="44.1117" lon="4.78144">
        <ele>24.55</ele>
        <time>2019-05-28T13:38:08.000Z</time>
      </trkpt>
      <trkpt lat="44.11166" lon="4.78184">
        <ele>25.5</ele>
        <time>2019-05-28T13:38:13.000Z</time>
      </trkpt>
      <trkpt lat="44.11163" lon="4.78226">
        <ele>25.55</ele>
        <time>2019-05-28T13:38:18.000Z</time>
      </trkpt>
      <trkpt lat="44.11157" lon="4.78266">
        <ele>26.56</ele>
        <time>2019-05-28T13:38:23.000Z</time>
      </trkpt>
      <trkpt lat="44.1115" lon="4.78307">
        <ele>26.56</ele>
        <time>2019-05-28T13:38:28.000Z</time>
      </trkpt>
      <trkpt lat="44.11143" lon="4.78344">
        <ele>26.56</ele>
        <time>2019-05-28T13:38:33.000Z</time>
      </trkpt>
      <trkpt lat="44.11136" lon="4.78387">
        <ele>26.56</ele>
        <time>2019-05-28T13:38:38.000Z</time>
      </trkpt>
      <trkpt lat="44.11124" lon="4.78423">
        <ele>27.56</ele>
        <time>2019-05-28T13:38:43.000Z</time>
      </trkpt>
      <trkpt lat="44.11116" lon="4.78454">
        <ele>28.5</ele>
        <time>2019-05-28T13:38:48.000Z</time>
      </trkpt>
      <trkpt lat="44.11113" lon="4.7848">
        <ele>27.58</ele>
        <time>2019-05-28T13:38:53.000Z</time>
      </trkpt>
      <trkpt lat="44.11112" lon="4.78493">
        <ele>29.5</ele>
        <time>2019-05-28T13:39:17.000Z</time>
      </trkpt>
      <trkpt lat="44.11114" lon="4.78519">
        <ele>28.62</ele>
        <time>2019-05-28T13:39:22.000Z</time>
      </trkpt>
      <trkpt lat="44.1111" lon="4.78556">
        <ele>28.56</ele>
        <time>2019-05-28T13:39:27.000Z</time>
      </trkpt>
      <trkpt lat="44.11107" lon="4.7859">
        <ele>29.5</ele>
        <time>2019-05-28T13:39:32.000Z</time>
      </trkpt>
      <trkpt lat="44.11101" lon="4.78627">
        <ele>31.1</ele>
        <time>2019-05-28T13:39:37.000Z</time>
      </trkpt>
      <trkpt lat="44.111" lon="4.78663">
        <ele>31.56</ele>
        <time>2019-05-28T13:39:42.000Z</time>
      </trkpt>
      <trkpt lat="44.11102" lon="4.78692">
        <ele>32.54</ele>
        <time>2019-05-28T13:39:47.000Z</time>
      </trkpt>
      <trkpt lat="44.11105" lon="4.78716">
        <ele>33.54</ele>
        <time>2019-05-28T13:39:52.000Z</time>
      </trkpt>
      <trkpt lat="44.11109" lon="4.78738">
        <ele>35.49</ele>
        <time>2019-05-28T13:39:57.000Z</time>
      </trkpt>
      <trkpt lat="44.11112" lon="4.78758">
        <ele>36.55</ele>
        <time>2019-05-28T13:40:02.000Z</time>
      </trkpt>
      <trkpt lat="44.11116" lon="4.78778">
        <ele>37.31</ele>
        <time>2019-05-28T13:40:07.000Z</time>
      </trkpt>
      <trkpt lat="44.11121" lon="4.78801">
        <ele>37.56</ele>
        <time>2019-05-28T13:40:12.000Z</time>
      </trkpt>
      <trkpt lat="44.11125" lon="4.78824">
        <ele>36.56</ele>
        <time>2019-05-28T13:40:17.000Z</time>
      </trkpt>
      <trkpt lat="44.11129" lon="4.78851">
        <ele>37.56</ele>
        <time>2019-05-28T13:40:22.000Z</time>
      </trkpt>
      <trkpt lat="44.11134" lon="4.78884">
        <ele>37.56</ele>
        <time>2019-05-28T13:40:27.000Z</time>
      </trkpt>
      <trkpt lat="44.11137" lon="4.78924">
        <ele>36.62</ele>
        <time>2019-05-28T13:40:32.000Z</time>
      </trkpt>
      <trkpt lat="44.11133" lon="4.78971">
        <ele>34.62</ele>
        <time>2019-05-28T13:40:37.000Z</time>
      </trkpt>
      <trkpt lat="44.11122" lon="4.79025">
        <ele>32.62</ele>
        <time>2019-05-28T13:40:42.000Z</time>
      </trkpt>
      <trkpt lat="44.1111" lon="4.79083">
        <ele>31.51</ele>
        <time>2019-05-28T13:40:47.000Z</time>
      </trkpt>
      <trkpt lat="44.11102" lon="4.79137">
        <ele>30.8</ele>
        <time>2019-05-28T13:40:52.000Z</time>
      </trkpt>
      <trkpt lat="44.11095" lon="4.79189">
        <ele>29.56</ele>
        <time>2019-05-28T13:40:57.000Z</time>
      </trkpt>
      <trkpt lat="44.11092" lon="4.7924">
        <ele>28.56</ele>
        <time>2019-05-28T13:41:02.000Z</time>
      </trkpt>
      <trkpt lat="44.11087" lon="4.79271">
        <ele>28.56</ele>
        <time>2019-05-28T13:41:07.000Z</time>
      </trkpt>
      <trkpt lat="44.11087" lon="4.79284">
        <ele>28.81</ele>
        <time>2019-05-28T13:41:15.000Z</time>
      </trkpt>
      <trkpt lat="44.11086" lon="4.79297">
        <ele>29.74</ele>
        <time>2019-05-28T13:41:20.000Z</time>
      </trkpt>
      <trkpt lat="44.11109" lon="4.79307">
        <ele>29.8</ele>
        <time>2019-05-28T13:41:25.000Z</time>
      </trkpt>
      <trkpt lat="44.11134" lon="4.79323">
        <ele>28.81</ele>
        <time>2019-05-28T13:41:30.000Z</time>
      </trkpt>
      <trkpt lat="44.11159" lon="4.79337">
        <ele>26.8</ele>
        <time>2019-05-28T13:41:35.000Z</time>
      </trkpt>
      <trkpt lat="44.11185" lon="4.79349">
        <ele>26.5</ele>
        <time>2019-05-28T13:41:40.000Z</time>
      </trkpt>
      <trkpt lat="44.11208" lon="4.79362">
        <ele>26.73</ele>
        <time>2019-05-28T13:41:45.000Z</time>
      </trkpt>
      <trkpt lat="44.11221" lon="4.79376">
        <ele>26.57</ele>
        <time>2019-05-28T13:41:50.000Z</time>
      </trkpt>
      <trkpt lat="44.11226" lon="4.79405">
        <ele>27.49</ele>
        <time>2019-05-28T13:41:55.000Z</time>
      </trkpt>
      <trkpt lat="44.11231" lon="4.79438">
        <ele>28.55</ele>
        <time>2019-05-28T13:42:00.000Z</time>
      </trkpt>
      <trkpt lat="44.1123" lon="4.79475">
        <ele>28.55</ele>
        <time>2019-05-28T13:42:05.000Z</time>
      </trkpt>
      <trkpt lat="44.11224" lon="4.79511">
        <ele>29.49</ele>
        <time>2019-05-28T13:42:10.000Z</time>
      </trkpt>
      <trkpt lat="44.1122" lon="4.79552">
        <ele>29.6</ele>
        <time>2019-05-28T13:42:15.000Z</time>
      </trkpt>
      <trkpt lat="44.11213" lon="4.79596">
        <ele>28.79</ele>
        <time>2019-05-28T13:42:20.000Z</time>
      </trkpt>
      <trkpt lat="44.11213" lon="4.79639">
        <ele>29.49</ele>
        <time>2019-05-28T13:42:25.000Z</time>
      </trkpt>
      <trkpt lat="44.11208" lon="4.79683">
        <ele>29.55</ele>
        <time>2019-05-28T13:42:30.000Z</time>
      </trkpt>
      <trkpt lat="44.11197" lon="4.79726">
        <ele>29.74</ele>
        <time>2019-05-28T13:42:35.000Z</time>
      </trkpt>
      <trkpt lat="44.11182" lon="4.7977">
        <ele>30.54</ele>
        <time>2019-05-28T13:42:40.000Z</time>
      </trkpt>
      <trkpt lat="44.11168" lon="4.79814">
        <ele>30.55</ele>
        <time>2019-05-28T13:42:45.000Z</time>
      </trkpt>
      <trkpt lat="44.1116" lon="4.79857">
        <ele>30.55</ele>
        <time>2019-05-28T13:42:50.000Z</time>
      </trkpt>
      <trkpt lat="44.11155" lon="4.79899">
        <ele>30.61</ele>
        <time>2019-05-28T13:42:55.000Z</time>
      </trkpt>
      <trkpt lat="44.11146" lon="4.79937">
        <ele>30.55</ele>
        <time>2019-05-28T13:43:00.000Z</time>
      </trkpt>
      <trkpt lat="44.11134" lon="4.79967">
        <ele>30.57</ele>
        <time>2019-05-28T13:43:05.000Z</time>
      </trkpt>
      <trkpt lat="44.11122" lon="4.80002">
        <ele>30.55</ele>
        <time>2019-05-28T13:43:10.000Z</time>
      </trkpt>
      <trkpt lat="44.11102" lon="4.80038">
        <ele>30.55</ele>
        <time>2019-05-28T13:43:15.000Z</time>
      </trkpt>
      <trkpt lat="44.11081" lon="4.80073">
        <ele>28.82</ele>
        <time>2019-05-28T13:43:20.000Z</time>
      </trkpt>
      <trkpt lat="44.11067" lon="4.80111">
        <ele>31.24</ele>
        <time>2019-05-28T13:43:25.000Z</time>
      </trkpt>
      <trkpt lat="44.1106" lon="4.80156">
        <ele>32.54</ele>
        <time>2019-05-28T13:43:30.000Z</time>
      </trkpt>
      <trkpt lat="44.11056" lon="4.80198">
        <ele>32.36</ele>
        <time>2019-05-28T13:43:35.000Z</time>
      </trkpt>
      <trkpt lat="44.11049" lon="4.80239">
        <ele>31.86</ele>
        <time>2019-05-28T13:43:40.000Z</time>
      </trkpt>
      <trkpt lat="44.11042" lon="4.80265">
        <ele>31.56</ele>
        <time>2019-05-28T13:43:45.000Z</time>
      </trkpt>
      <trkpt lat="44.1102" lon="4.80262">
        <ele>31.31</ele>
        <time>2019-05-28T13:43:50.000Z</time>
      </trkpt>
      <trkpt lat="44.10992" lon="4.80259">
        <ele>30.56</ele>
        <time>2019-05-28T13:43:55.000Z</time>
      </trkpt>
      <trkpt lat="44.10962" lon="4.80256">
        <ele>29.8</ele>
        <time>2019-05-28T13:44:00.000Z</time>
      </trkpt>
      <trkpt lat="44.10929" lon="4.80256">
        <ele>29.51</ele>
        <time>2019-05-28T13:44:05.000Z</time>
      </trkpt>
      <trkpt lat="44.10895" lon="4.80257">
        <ele>29.55</ele>
        <time>2019-05-28T13:44:10.000Z</time>
      </trkpt>
      <trkpt lat="44.10862" lon="4.80258">
        <ele>29.79</ele>
        <time>2019-05-28T13:44:15.000Z</time>
      </trkpt>
      <trkpt lat="44.10828" lon="4.80262">
        <ele>28.8</ele>
        <time>2019-05-28T13:44:20.000Z</time>
      </trkpt>
      <trkpt lat="44.10794" lon="4.80274">
        <ele>28.56</ele>
        <time>2019-05-28T13:44:25.000Z</time>
      </trkpt>
      <trkpt lat="44.10763" lon="4.80294">
        <ele>29.49</ele>
        <time>2019-05-28T13:44:30.000Z</time>
      </trkpt>
      <trkpt lat="44.10731" lon="4.80314">
        <ele>26.88</ele>
        <time>2019-05-28T13:44:35.000Z</time>
      </trkpt>
      <trkpt lat="44.10701" lon="4.80334">
        <ele>27.56</ele>
        <time>2019-05-28T13:44:40.000Z</time>
      </trkpt>
      <trkpt lat="44.10669" lon="4.80352">
        <ele>27.8</ele>
        <time>2019-05-28T13:44:45.000Z</time>
      </trkpt>
      <trkpt lat="44.10634" lon="4.80363">
        <ele>28.54</ele>
        <time>2019-05-28T13:44:50.000Z</time>
      </trkpt>
      <trkpt lat="44.10602" lon="4.80376">
        <ele>30.48</ele>
        <time>2019-05-28T13:44:55.000Z</time>
      </trkpt>
      <trkpt lat="44.10573" lon="4.80397">
        <ele>27.81</ele>
        <time>2019-05-28T13:45:00.000Z</time>
      </trkpt>
      <trkpt lat="44.10547" lon="4.80422">
        <ele>27.32</ele>
        <time>2019-05-28T13:45:05.000Z</time>
      </trkpt>
      <trkpt lat="44.10521" lon="4.80454">
        <ele>26.56</ele>
        <time>2019-05-28T13:45:10.000Z</time>
      </trkpt>
      <trkpt lat="44.10493" lon="4.80481">
        <ele>26.56</ele>
        <time>2019-05-28T13:45:15.000Z</time>
      </trkpt>
      <trkpt lat="44.10462" lon="4.80503">
        <ele>27.48</ele>
        <time>2019-05-28T13:45:20.000Z</time>
      </trkpt>
      <trkpt lat="44.10431" lon="4.80519">
        <ele>27.8</ele>
        <time>2019-05-28T13:45:25.000Z</time>
      </trkpt>
      <trkpt lat="44.10399" lon="4.80534">
        <ele>29.31</ele>
        <time>2019-05-28T13:45:30.000Z</time>
      </trkpt>
      <trkpt lat="44.10369" lon="4.80546">
        <ele>29.56</ele>
        <time>2019-05-28T13:45:35.000Z</time>
      </trkpt>
      <trkpt lat="44.10253" lon="4.80595">
        <ele>33</ele>
      </trkpt>
      <trkpt lat="44.10068" lon="4.80595">
        <ele>34.1</ele>
      </trkpt>
      <trkpt lat="44.09875" lon="4.80535">
        <ele>32.7</ele>
      </trkpt>
      <trkpt lat="44.09692" lon="4.8052">
        <ele>37.4</ele>
      </trkpt>
      <trkpt lat="44.09579" lon="4.8052">
        <ele>42.6</ele>
      </trkpt>
      <trkpt lat="44.09421" lon="4.80554">
        <ele>48.5</ele>
      </trkpt>
      <trkpt lat="44.0918" lon="4.80539">
        <ele>60.9</ele>
      </trkpt>
      <trkpt lat="44.08965" lon="4.80464">
        <ele>65.5</ele>
      </trkpt>
      <trkpt lat="44.08791" lon="4.8043">
        <ele>76.8</ele>
      </trkpt>
      <trkpt lat="44.08463" lon="4.80639">
        <ele>92</ele>
      </trkpt>
      <trkpt lat="44.08442" lon="4.80789">
        <ele>106.1</ele>
      </trkpt>
      <trkpt lat="44.08299" lon="4.80882">
        <ele>106.1</ele>
      </trkpt>
      <trkpt lat="44.08278" lon="4.81092">
        <ele>107.2</ele>
      </trkpt>
      <trkpt lat="44.08181" lon="4.8117">
        <ele>112.4</ele>
      </trkpt>
      <trkpt lat="44.07959" lon="4.81129">
        <ele>109.4</ele>
      </trkpt>
      <trkpt lat="44.07924" lon="4.81065">
        <ele>104.1</ele>
      </trkpt>
      <trkpt lat="44.07943" lon="4.80841">
        <ele>91.6</ele>
      </trkpt>
      <trkpt lat="44.07831" lon="4.80821">
        <ele>93.4</ele>
      </trkpt>
      <trkpt lat="44.0775" lon="4.80789">
        <ele>94.7</ele>
      </trkpt>
      <trkpt lat="44.07661" lon="4.80746">
        <ele>93.5</ele>
      </trkpt>
      <trkpt lat="44.07576" lon="4.80688">
        <ele>89.8</ele>
      </trkpt>
      <trkpt lat="44.07439" lon="4.8066">
        <ele>85.9</ele>
      </trkpt>
      <trkpt lat="44.07362" lon="4.80648">
        <ele>85.1</ele>
      </trkpt>
      <trkpt lat="44.07274" lon="4.80635">
        <ele>83.2</ele>
      </trkpt>
      <trkpt lat="44.0706" lon="4.80633">
        <ele>80.2</ele>
      </trkpt>
      <trkpt lat="44.06957" lon="4.80641">
        <ele>79</ele>
      </trkpt>
      <trkpt lat="44.06893" lon="4.8066">
        <ele>77.3</ele>
      </trkpt>
      <trkpt lat="44.06842" lon="4.80744">
        <ele>76.3</ele>
      </trkpt>
      <trkpt lat="44.06748" lon="4.80858">
        <ele>75.4</ele>
      </trkpt>
      <trkpt lat="44.06727" lon="4.80869">
        <ele>75.8</ele>
      </trkpt>
      <trkpt lat="44.06713" lon="4.80905">
        <ele>76.7</ele>
      </trkpt>
      <trkpt lat="44.06627" lon="4.80995">
        <ele>79.8</ele>
      </trkpt>
      <trkpt lat="44.06582" lon="4.8103">
        <ele>81.6</ele>
      </trkpt>
      <trkpt lat="44.06519" lon="4.81034">
        <ele>80.3</ele>
      </trkpt>
      <trkpt lat="44.06354" lon="4.8112">
        <ele>77</ele>
      </trkpt>
      <trkpt lat="44.06294" lon="4.81145">
        <ele>73.5</ele>
      </trkpt>
      <trkpt lat="44.06233" lon="4.81199">
        <ele>72.5</ele>
      </trkpt>
      <trkpt lat="44.06153" lon="4.81313">
        <ele>71.7</ele>
      </trkpt>
      <trkpt lat="44.0611" lon="4.81399">
        <ele>71.1</ele>
      </trkpt>
      <trkpt lat="44.06087" lon="4.81399">
        <ele>70.7</ele>
      </trkpt>
      <trkpt lat="44.06041" lon="4.81339">
        <ele>64.2</ele>
      </trkpt>
      <trkpt lat="44.06021" lon="4.81347">
        <ele>62.4</ele>
      </trkpt>
      <trkpt lat="44.05996" lon="4.81412">
        <ele>60.7</ele>
      </trkpt>
      <trkpt lat="44.05974" lon="4.81448">
        <ele>59.6</ele>
      </trkpt>
      <trkpt lat="44.05908" lon="4.81484">
        <ele>52.7</ele>
      </trkpt>
      <trkpt lat="44.05851" lon="4.81497">
        <ele>51.6</ele>
      </trkpt>
      <trkpt lat="44.05797" lon="4.81648">
        <ele>47.1</ele>
      </trkpt>
      <trkpt lat="44.05742" lon="4.81628">
        <ele>45.2</ele>
      </trkpt>
      <trkpt lat="44.05669" lon="4.81605">
        <ele>44.2</ele>
      </trkpt>
      <trkpt lat="44.05615" lon="4.81592">
        <ele>45.1</ele>
      </trkpt>
      <trkpt lat="44.05536" lon="4.81484">
        <ele>42.2</ele>
      </trkpt>
      <trkpt lat="44.05515" lon="4.81648">
        <ele>46</ele>
      </trkpt>
      <trkpt lat="44.0551" lon="4.81864">
        <ele>51.5</ele>
      </trkpt>
      <trkpt lat="44.05415" lon="4.8201">
        <ele>51.5</ele>
      </trkpt>
      <trkpt lat="44.05407" lon="4.82094">
        <ele>53.5</ele>
      </trkpt>
      <trkpt lat="44.05408" lon="4.82296">
        <ele>57</ele>
      </trkpt>
      <trkpt lat="44.05407" lon="4.82493">
        <ele>56.2</ele>
      </trkpt>
      <trkpt lat="44.0541" lon="4.82607">
        <ele>52.3</ele>
      </trkpt>
      <trkpt lat="44.05399" lon="4.82669">
        <ele>50.7</ele>
      </trkpt>
      <trkpt lat="44.05351" lon="4.82682">
        <ele>48.6</ele>
      </trkpt>
      <trkpt lat="44.05305" lon="4.82641">
        <ele>45.3</ele>
      </trkpt>
      <trkpt lat="44.05245" lon="4.82626">
        <ele>41.4</ele>
      </trkpt>
      <trkpt lat="44.05177" lon="4.82587">
        <ele>40.3</ele>
      </trkpt>
      <trkpt lat="44.05125" lon="4.82581">
        <ele>39</ele>
      </trkpt>
      <trkpt lat="44.0506" lon="4.82557">
        <ele>36.3</ele>
      </trkpt>
      <trkpt lat="44.04977" lon="4.82551">
        <ele>34</ele>
      </trkpt>
      <trkpt lat="44.04944" lon="4.82532">
        <ele>34</ele>
      </trkpt>
      <trkpt lat="44.04898" lon="4.82472">
        <ele>32.9</ele>
      </trkpt>
      <trkpt lat="44.04883" lon="4.82497">
        <ele>32.7</ele>
      </trkpt>
      <trkpt lat="44.04859" lon="4.82622">
        <ele>32.9</ele>
      </trkpt>
      <trkpt lat="44.04824" lon="4.82852">
        <ele>30.5</ele>
      </trkpt>
      <trkpt lat="44.04828" lon="4.83019">
        <ele>31.4</ele>
      </trkpt>
      <trkpt lat="44.04843" lon="4.83053">
        <ele>33.1</ele>
      </trkpt>
      <trkpt lat="44.04843" lon="4.83062">
        <ele>33.1</ele>
      </trkpt>
      <trkpt lat="44.04712" lon="4.82984">
        <ele>27.9</ele>
      </trkpt>
      <trkpt lat="44.0463" lon="4.82946">
        <ele>28.7</ele>
      </trkpt>
      <trkpt lat="44.04479" lon="4.82797">
        <ele>29.9</ele>
      </trkpt>
      <trkpt lat="44.04404" lon="4.82723">
        <ele>27.6</ele>
      </trkpt>
      <trkpt lat="44.0436" lon="4.82678">
        <ele>27.9</ele>
      </trkpt>
      <trkpt lat="44.04336" lon="4.82615">
        <ele>27.1</ele>
      </trkpt>
      <trkpt lat="44.04197" lon="4.82546">
        <ele>28</ele>
      </trkpt>
      <trkpt lat="44.04184" lon="4.82486">
        <ele>31.4</ele>
      </trkpt>
      <trkpt lat="44.04149" lon="4.82471">
        <ele>33.2</ele>
      </trkpt>
      <trkpt lat="44.04136" lon="4.82417">
        <ele>33.3</ele>
      </trkpt>
      <trkpt lat="44.04155" lon="4.82378">
        <ele>31.5</ele>
      </trkpt>
    </trkseg>
  </trk>
  <trk>
    <name><![CDATA[2019-05-29 10:16:03]]></name>
    <trkseg>
      <trkpt lat="44.04164" lon="4.82354">
        <ele>29.64</ele>
        <time>2019-05-29T08:16:03.000Z</time>
      </trkpt>
      <trkpt lat="44.04159" lon="4.82367">
        <ele>26.61</ele>
        <time>2019-05-29T08:16:52.000Z</time>
      </trkpt>
      <trkpt lat="44.04146" lon="4.8238">
        <ele>28.36</ele>
        <time>2019-05-29T08:16:57.000Z</time>
      </trkpt>
      <trkpt lat="44.04139" lon="4.82393">
        <ele>27.63</ele>
        <time>2019-05-29T08:17:02.000Z</time>
      </trkpt>
      <trkpt lat="44.04139" lon="4.82409">
        <ele>27.63</ele>
        <time>2019-05-29T08:17:07.000Z</time>
      </trkpt>
      <trkpt lat="44.04147" lon="4.82398">
        <ele>27.38</ele>
        <time>2019-05-29T08:17:12.000Z</time>
      </trkpt>
      <trkpt lat="44.04137" lon="4.82395">
        <ele>29.64</ele>
        <time>2019-05-29T08:17:46.000Z</time>
      </trkpt>
      <trkpt lat="44.04134" lon="4.82416">
        <ele>27.13</ele>
        <time>2019-05-29T08:17:51.000Z</time>
      </trkpt>
      <trkpt lat="44.04142" lon="4.82441">
        <ele>25.38</ele>
        <time>2019-05-29T08:17:56.000Z</time>
      </trkpt>
      <trkpt lat="44.04153" lon="4.82469">
        <ele>26.37</ele>
        <time>2019-05-29T08:18:01.000Z</time>
      </trkpt>
      <trkpt lat="44.0417" lon="4.82484">
        <ele>25.63</ele>
        <time>2019-05-29T08:18:06.000Z</time>
      </trkpt>
      <trkpt lat="44.04189" lon="4.82498">
        <ele>26.38</ele>
        <time>2019-05-29T08:18:11.000Z</time>
      </trkpt>
      <trkpt lat="44.04196" lon="4.82528">
        <ele>27.12</ele>
        <time>2019-05-29T08:18:16.000Z</time>
      </trkpt>
      <trkpt lat="44.04212" lon="4.82551">
        <ele>24.89</ele>
        <time>2019-05-29T08:18:21.000Z</time>
      </trkpt>
      <trkpt lat="44.04233" lon="4.82566">
        <ele>25.37</ele>
        <time>2019-05-29T08:18:26.000Z</time>
      </trkpt>
      <trkpt lat="44.04256" lon="4.82577">
        <ele>24.87</ele>
        <time>2019-05-29T08:18:31.000Z</time>
      </trkpt>
      <trkpt lat="44.04277" lon="4.82588">
        <ele>25.62</ele>
        <time>2019-05-29T08:18:36.000Z</time>
      </trkpt>
      <trkpt lat="44.04299" lon="4.82597">
        <ele>26.62</ele>
        <time>2019-05-29T08:18:41.000Z</time>
      </trkpt>
      <trkpt lat="44.04317" lon="4.82609">
        <ele>28.37</ele>
        <time>2019-05-29T08:18:46.000Z</time>
      </trkpt>
      <trkpt lat="44.04332" lon="4.82617">
        <ele>29.62</ele>
        <time>2019-05-29T08:18:51.000Z</time>
      </trkpt>
      <trkpt lat="44.0434" lon="4.82628">
        <ele>29.62</ele>
        <time>2019-05-29T08:18:56.000Z</time>
      </trkpt>
      <trkpt lat="44.04346" lon="4.82639">
        <ele>29.62</ele>
        <time>2019-05-29T08:19:03.000Z</time>
      </trkpt>
      <trkpt lat="44.04351" lon="4.82651">
        <ele>28.87</ele>
        <time>2019-05-29T08:19:08.000Z</time>
      </trkpt>
      <trkpt lat="44.04358" lon="4.82662">
        <ele>29.62</ele>
        <time>2019-05-29T08:19:13.000Z</time>
      </trkpt>
      <trkpt lat="44.04363" lon="4.82673">
        <ele>30.87</ele>
        <time>2019-05-29T08:19:52.000Z</time>
      </trkpt>
      <trkpt lat="44.04374" lon="4.82687">
        <ele>32.37</ele>
        <time>2019-05-29T08:19:57.000Z</time>
      </trkpt>
      <trkpt lat="44.04385" lon="4.827">
        <ele>32.62</ele>
        <time>2019-05-29T08:20:02.000Z</time>
      </trkpt>
      <trkpt lat="44.04398" lon="4.82714">
        <ele>32.62</ele>
        <time>2019-05-29T08:20:07.000Z</time>
      </trkpt>
      <trkpt lat="44.04413" lon="4.82729">
        <ele>33.62</ele>
        <time>2019-05-29T08:20:12.000Z</time>
      </trkpt>
      <trkpt lat="44.04426" lon="4.82744">
        <ele>33.62</ele>
        <time>2019-05-29T08:20:17.000Z</time>
      </trkpt>
      <trkpt lat="44.04439" lon="4.82757">
        <ele>32.64</ele>
        <time>2019-05-29T08:20:22.000Z</time>
      </trkpt>
      <trkpt lat="44.04453" lon="4.82772">
        <ele>32.64</ele>
        <time>2019-05-29T08:20:27.000Z</time>
      </trkpt>
      <trkpt lat="44.04466" lon="4.82786">
        <ele>33.62</ele>
        <time>2019-05-29T08:20:32.000Z</time>
      </trkpt>
      <trkpt lat="44.04478" lon="4.828">
        <ele>34.6</ele>
        <time>2019-05-29T08:20:37.000Z</time>
      </trkpt>
      <trkpt lat="44.04492" lon="4.82814">
        <ele>33.62</ele>
        <time>2019-05-29T08:20:42.000Z</time>
      </trkpt>
      <trkpt lat="44.04508" lon="4.82829">
        <ele>33.62</ele>
        <time>2019-05-29T08:20:47.000Z</time>
      </trkpt>
      <trkpt lat="44.04524" lon="4.82844">
        <ele>34.6</ele>
        <time>2019-05-29T08:20:52.000Z</time>
      </trkpt>
      <trkpt lat="44.04541" lon="4.82862">
        <ele>32.87</ele>
        <time>2019-05-29T08:20:57.000Z</time>
      </trkpt>
      <trkpt lat="44.04557" lon="4.8288">
        <ele>33.62</ele>
        <time>2019-05-29T08:21:02.000Z</time>
      </trkpt>
      <trkpt lat="44.04574" lon="4.82896">
        <ele>33.37</ele>
        <time>2019-05-29T08:21:07.000Z</time>
      </trkpt>
      <trkpt lat="44.0459" lon="4.82913">
        <ele>32.62</ele>
        <time>2019-05-29T08:21:12.000Z</time>
      </trkpt>
      <trkpt lat="44.04606" lon="4.8293">
        <ele>32.62</ele>
        <time>2019-05-29T08:21:17.000Z</time>
      </trkpt>
      <trkpt lat="44.04623" lon="4.82946">
        <ele>31.63</ele>
        <time>2019-05-29T08:21:22.000Z</time>
      </trkpt>
      <trkpt lat="44.04642" lon="4.82958">
        <ele>32.62</ele>
        <time>2019-05-29T08:21:27.000Z</time>
      </trkpt>
      <trkpt lat="44.04661" lon="4.82967">
        <ele>33.62</ele>
        <time>2019-05-29T08:21:32.000Z</time>
      </trkpt>
      <trkpt lat="44.04681" lon="4.82977">
        <ele>33.62</ele>
        <time>2019-05-29T08:21:37.000Z</time>
      </trkpt>
      <trkpt lat="44.047" lon="4.82986">
        <ele>32.62</ele>
        <time>2019-05-29T08:21:42.000Z</time>
      </trkpt>
      <trkpt lat="44.04714" lon="4.82992">
        <ele>32.62</ele>
        <time>2019-05-29T08:21:47.000Z</time>
      </trkpt>
      <trkpt lat="44.04727" lon="4.83003">
        <ele>31.62</ele>
        <time>2019-05-29T08:21:52.000Z</time>
      </trkpt>
      <trkpt lat="44.04742" lon="4.83013">
        <ele>32.6</ele>
        <time>2019-05-29T08:21:57.000Z</time>
      </trkpt>
      <trkpt lat="44.04757" lon="4.83024">
        <ele>33.62</ele>
        <time>2019-05-29T08:22:02.000Z</time>
      </trkpt>
      <trkpt lat="44.0477" lon="4.83032">
        <ele>34.38</ele>
        <time>2019-05-29T08:22:07.000Z</time>
      </trkpt>
      <trkpt lat="44.04785" lon="4.83041">
        <ele>34.62</ele>
        <time>2019-05-29T08:22:12.000Z</time>
      </trkpt>
      <trkpt lat="44.04802" lon="4.8305">
        <ele>34.62</ele>
        <time>2019-05-29T08:22:17.000Z</time>
      </trkpt>
      <trkpt lat="44.0482" lon="4.83059">
        <ele>34.62</ele>
        <time>2019-05-29T08:22:22.000Z</time>
      </trkpt>
      <trkpt lat="44.04836" lon="4.83067">
        <ele>35.61</ele>
        <time>2019-05-29T08:22:27.000Z</time>
      </trkpt>
      <trkpt lat="44.04845" lon="4.83071">
        <ele>35.61</ele>
        <time>2019-05-29T08:22:32.000Z</time>
      </trkpt>
      <trkpt lat="44.04854" lon="4.83087">
        <ele>36.61</ele>
        <time>2019-05-29T08:22:37.000Z</time>
      </trkpt>
      <trkpt lat="44.0486" lon="4.83108">
        <ele>37.37</ele>
        <time>2019-05-29T08:22:42.000Z</time>
      </trkpt>
      <trkpt lat="44.04865" lon="4.83128">
        <ele>37.61</ele>
        <time>2019-05-29T08:22:47.000Z</time>
      </trkpt>
      <trkpt lat="44.04869" lon="4.83149">
        <ele>39.36</ele>
        <time>2019-05-29T08:22:52.000Z</time>
      </trkpt>
      <trkpt lat="44.04872" lon="4.8317">
        <ele>40.86</ele>
        <time>2019-05-29T08:22:57.000Z</time>
      </trkpt>
      <trkpt lat="44.04872" lon="4.83193">
        <ele>40.86</ele>
        <time>2019-05-29T08:23:02.000Z</time>
      </trkpt>
      <trkpt lat="44.04873" lon="4.83219">
        <ele>41.61</ele>
        <time>2019-05-29T08:23:07.000Z</time>
      </trkpt>
      <trkpt lat="44.04878" lon="4.83248">
        <ele>41.63</ele>
        <time>2019-05-29T08:23:12.000Z</time>
      </trkpt>
      <trkpt lat="44.0489" lon="4.83275">
        <ele>42.6</ele>
        <time>2019-05-29T08:23:17.000Z</time>
      </trkpt>
      <trkpt lat="44.04902" lon="4.83297">
        <ele>44.36</ele>
        <time>2019-05-29T08:23:22.000Z</time>
      </trkpt>
      <trkpt lat="44.04911" lon="4.83313">
        <ele>45.6</ele>
        <time>2019-05-29T08:23:27.000Z</time>
      </trkpt>
      <trkpt lat="44.0492" lon="4.83326">
        <ele>43.86</ele>
        <time>2019-05-29T08:23:32.000Z</time>
      </trkpt>
      <trkpt lat="44.04929" lon="4.83344">
        <ele>43.61</ele>
        <time>2019-05-29T08:23:37.000Z</time>
      </trkpt>
      <trkpt lat="44.0494" lon="4.83359">
        <ele>43.61</ele>
        <time>2019-05-29T08:23:42.000Z</time>
      </trkpt>
      <trkpt lat="44.0495" lon="4.83375">
        <ele>43.63</ele>
        <time>2019-05-29T08:23:47.000Z</time>
      </trkpt>
      <trkpt lat="44.04961" lon="4.83393">
        <ele>43.61</ele>
        <time>2019-05-29T08:23:52.000Z</time>
      </trkpt>
      <trkpt lat="44.04972" lon="4.83411">
        <ele>43.61</ele>
        <time>2019-05-29T08:23:57.000Z</time>
      </trkpt>
      <trkpt lat="44.04984" lon="4.83429">
        <ele>43.61</ele>
        <time>2019-05-29T08:24:02.000Z</time>
      </trkpt>
      <trkpt lat="44.04995" lon="4.83447">
        <ele>44.36</ele>
        <time>2019-05-29T08:24:07.000Z</time>
      </trkpt>
      <trkpt lat="44.05009" lon="4.83461">
        <ele>45.36</ele>
        <time>2019-05-29T08:24:12.000Z</time>
      </trkpt>
      <trkpt lat="44.05022" lon="4.83475">
        <ele>46.85</ele>
        <time>2019-05-29T08:24:17.000Z</time>
      </trkpt>
      <trkpt lat="44.05036" lon="4.83487">
        <ele>47.36</ele>
        <time>2019-05-29T08:24:22.000Z</time>
      </trkpt>
      <trkpt lat="44.0505" lon="4.83501">
        <ele>48.61</ele>
        <time>2019-05-29T08:24:27.000Z</time>
      </trkpt>
      <trkpt lat="44.05065" lon="4.8351">
        <ele>50.61</ele>
        <time>2019-05-29T08:24:32.000Z</time>
      </trkpt>
      <trkpt lat="44.05052" lon="4.83525">
        <ele>49.61</ele>
        <time>2019-05-29T08:24:37.000Z</time>
      </trkpt>
      <trkpt lat="44.05029" lon="4.83535">
        <ele>48.86</ele>
        <time>2019-05-29T08:24:42.000Z</time>
      </trkpt>
      <trkpt lat="44.05001" lon="4.83545">
        <ele>46.86</ele>
        <time>2019-05-29T08:24:47.000Z</time>
      </trkpt>
      <trkpt lat="44.04971" lon="4.83552">
        <ele>44.86</ele>
        <time>2019-05-29T08:24:52.000Z</time>
      </trkpt>
      <trkpt lat="44.04941" lon="4.83562">
        <ele>44.61</ele>
        <time>2019-05-29T08:24:57.000Z</time>
      </trkpt>
      <trkpt lat="44.04911" lon="4.83562">
        <ele>43.63</ele>
        <time>2019-05-29T08:25:02.000Z</time>
      </trkpt>
      <trkpt lat="44.04882" lon="4.83565">
        <ele>43.86</ele>
        <time>2019-05-29T08:25:07.000Z</time>
      </trkpt>
      <trkpt lat="44.04844" lon="4.83578">
        <ele>40.63</ele>
        <time>2019-05-29T08:25:12.000Z</time>
      </trkpt>
      <trkpt lat="44.04801" lon="4.83586">
        <ele>39.63</ele>
        <time>2019-05-29T08:25:17.000Z</time>
      </trkpt>
      <trkpt lat="44.04757" lon="4.83586">
        <ele>39.63</ele>
        <time>2019-05-29T08:25:22.000Z</time>
      </trkpt>
      <trkpt lat="44.04714" lon="4.83591">
        <ele>36.87</ele>
        <time>2019-05-29T08:25:27.000Z</time>
      </trkpt>
      <trkpt lat="44.04671" lon="4.836">
        <ele>36.61</ele>
        <time>2019-05-29T08:25:32.000Z</time>
      </trkpt>
      <trkpt lat="44.04629" lon="4.83612">
        <ele>34.63</ele>
        <time>2019-05-29T08:25:37.000Z</time>
      </trkpt>
      <trkpt lat="44.04586" lon="4.83613">
        <ele>32.87</ele>
        <time>2019-05-29T08:25:42.000Z</time>
      </trkpt>
      <trkpt lat="44.04546" lon="4.83594">
        <ele>31.62</ele>
        <time>2019-05-29T08:25:47.000Z</time>
      </trkpt>
      <trkpt lat="44.04505" lon="4.83577">
        <ele>30.62</ele>
        <time>2019-05-29T08:25:52.000Z</time>
      </trkpt>
      <trkpt lat="44.04461" lon="4.83576">
        <ele>30.37</ele>
        <time>2019-05-29T08:25:57.000Z</time>
      </trkpt>
      <trkpt lat="44.04417" lon="4.83581">
        <ele>30.62</ele>
        <time>2019-05-29T08:26:02.000Z</time>
      </trkpt>
      <trkpt lat="44.04375" lon="4.83591">
        <ele>30.62</ele>
        <time>2019-05-29T08:26:07.000Z</time>
      </trkpt>
      <trkpt lat="44.04332" lon="4.83603">
        <ele>30.62</ele>
        <time>2019-05-29T08:26:12.000Z</time>
      </trkpt>
      <trkpt lat="44.0429" lon="4.83613">
        <ele>31.62</ele>
        <time>2019-05-29T08:26:17.000Z</time>
      </trkpt>
      <trkpt lat="44.04248" lon="4.83619">
        <ele>31.62</ele>
        <time>2019-05-29T08:26:22.000Z</time>
      </trkpt>
      <trkpt lat="44.04206" lon="4.83622">
        <ele>31.62</ele>
        <time>2019-05-29T08:26:27.000Z</time>
      </trkpt>
      <trkpt lat="44.04165" lon="4.83622">
        <ele>31.62</ele>
        <time>2019-05-29T08:26:32.000Z</time>
      </trkpt>
      <trkpt lat="44.04126" lon="4.83623">
        <ele>31.62</ele>
        <time>2019-05-29T08:26:37.000Z</time>
      </trkpt>
      <trkpt lat="44.04089" lon="4.83626">
        <ele>31.62</ele>
        <time>2019-05-29T08:26:42.000Z</time>
      </trkpt>
      <trkpt lat="44.04052" lon="4.83634">
        <ele>31.62</ele>
        <time>2019-05-29T08:26:47.000Z</time>
      </trkpt>
      <trkpt lat="44.04015" lon="4.83644">
        <ele>31.62</ele>
        <time>2019-05-29T08:26:52.000Z</time>
      </trkpt>
      <trkpt lat="44.03978" lon="4.83656">
        <ele>32.62</ele>
        <time>2019-05-29T08:26:57.000Z</time>
      </trkpt>
      <trkpt lat="44.0394" lon="4.83664">
        <ele>33.61</ele>
        <time>2019-05-29T08:27:02.000Z</time>
      </trkpt>
      <trkpt lat="44.03901" lon="4.83673">
        <ele>33.61</ele>
        <time>2019-05-29T08:27:07.000Z</time>
      </trkpt>
      <trkpt lat="44.03861" lon="4.8368">
        <ele>32.86</ele>
        <time>2019-05-29T08:27:12.000Z</time>
      </trkpt>
      <trkpt lat="44.0382" lon="4.83688">
        <ele>33.38</ele>
        <time>2019-05-29T08:27:17.000Z</time>
      </trkpt>
      <trkpt lat="44.03779" lon="4.83695">
        <ele>33.63</ele>
        <time>2019-05-29T08:27:22.000Z</time>
      </trkpt>
      <trkpt lat="44.03739" lon="4.83703">
        <ele>33.63</ele>
        <time>2019-05-29T08:27:27.000Z</time>
      </trkpt>
      <trkpt lat="44.03699" lon="4.83711">
        <ele>33.63</ele>
        <time>2019-05-29T08:27:32.000Z</time>
      </trkpt>
      <trkpt lat="44.03659" lon="4.83721">
        <ele>33.63</ele>
        <time>2019-05-29T08:27:37.000Z</time>
      </trkpt>
      <trkpt lat="44.0362" lon="4.83727">
        <ele>33.63</ele>
        <time>2019-05-29T08:27:42.000Z</time>
      </trkpt>
      <trkpt lat="44.03579" lon="4.83733">
        <ele>32.88</ele>
        <time>2019-05-29T08:27:47.000Z</time>
      </trkpt>
      <trkpt lat="44.03539" lon="4.83741">
        <ele>34.38</ele>
        <time>2019-05-29T08:27:52.000Z</time>
      </trkpt>
      <trkpt lat="44.03499" lon="4.83752">
        <ele>34.38</ele>
        <time>2019-05-29T08:27:57.000Z</time>
      </trkpt>
      <trkpt lat="44.03457" lon="4.83766">
        <ele>34.63</ele>
        <time>2019-05-29T08:28:02.000Z</time>
      </trkpt>
      <trkpt lat="44.03416" lon="4.83779">
        <ele>33.65</ele>
        <time>2019-05-29T08:28:07.000Z</time>
      </trkpt>
      <trkpt lat="44.03373" lon="4.8379">
        <ele>33.63</ele>
        <time>2019-05-29T08:28:12.000Z</time>
      </trkpt>
      <trkpt lat="44.03328" lon="4.83802">
        <ele>33.63</ele>
        <time>2019-05-29T08:28:17.000Z</time>
      </trkpt>
      <trkpt lat="44.03279" lon="4.83815">
        <ele>31.65</ele>
        <time>2019-05-29T08:28:22.000Z</time>
      </trkpt>
      <trkpt lat="44.03228" lon="4.83842">
        <ele>29.63</ele>
        <time>2019-05-29T08:28:27.000Z</time>
      </trkpt>
      <trkpt lat="44.03187" lon="4.8388">
        <ele>27.88</ele>
        <time>2019-05-29T08:28:32.000Z</time>
      </trkpt>
      <trkpt lat="44.03151" lon="4.83913">
        <ele>27.63</ele>
        <time>2019-05-29T08:28:37.000Z</time>
      </trkpt>
      <trkpt lat="44.03116" lon="4.83937">
        <ele>26.65</ele>
        <time>2019-05-29T08:28:42.000Z</time>
      </trkpt>
      <trkpt lat="44.03082" lon="4.83963">
        <ele>29.62</ele>
        <time>2019-05-29T08:28:47.000Z</time>
      </trkpt>
      <trkpt lat="44.03052" lon="4.83992">
        <ele>28.65</ele>
        <time>2019-05-29T08:28:52.000Z</time>
      </trkpt>
      <trkpt lat="44.0302" lon="4.8402">
        <ele>27.88</ele>
        <time>2019-05-29T08:28:57.000Z</time>
      </trkpt>
      <trkpt lat="44.02991" lon="4.84049">
        <ele>26.89</ele>
        <time>2019-05-29T08:29:02.000Z</time>
      </trkpt>
      <trkpt lat="44.0296" lon="4.84079">
        <ele>26.88</ele>
        <time>2019-05-29T08:29:07.000Z</time>
      </trkpt>
      <trkpt lat="44.0293" lon="4.84114">
        <ele>28.62</ele>
        <time>2019-05-29T08:29:12.000Z</time>
      </trkpt>
      <trkpt lat="44.02903" lon="4.84146">
        <ele>28.87</ele>
        <time>2019-05-29T08:29:17.000Z</time>
      </trkpt>
      <trkpt lat="44.02876" lon="4.84181">
        <ele>27.65</ele>
        <time>2019-05-29T08:29:22.000Z</time>
      </trkpt>
      <trkpt lat="44.02847" lon="4.84212">
        <ele>29.14</ele>
        <time>2019-05-29T08:29:27.000Z</time>
      </trkpt>
      <trkpt lat="44.02819" lon="4.8424">
        <ele>30.38</ele>
        <time>2019-05-29T08:29:32.000Z</time>
      </trkpt>
      <trkpt lat="44.02791" lon="4.84267">
        <ele>29.65</ele>
        <time>2019-05-29T08:29:37.000Z</time>
      </trkpt>
      <trkpt lat="44.0276" lon="4.84297">
        <ele>28.89</ele>
        <time>2019-05-29T08:29:42.000Z</time>
      </trkpt>
      <trkpt lat="44.02729" lon="4.84321">
        <ele>27.64</ele>
        <time>2019-05-29T08:29:47.000Z</time>
      </trkpt>
      <trkpt lat="44.02697" lon="4.84334">
        <ele>28.64</ele>
        <time>2019-05-29T08:29:52.000Z</time>
      </trkpt>
      <trkpt lat="44.02661" lon="4.84351">
        <ele>26.62</ele>
        <time>2019-05-29T08:29:57.000Z</time>
      </trkpt>
      <trkpt lat="44.02625" lon="4.84365">
        <ele>28.39</ele>
        <time>2019-05-29T08:30:02.000Z</time>
      </trkpt>
      <trkpt lat="44.02592" lon="4.8438">
        <ele>28.61</ele>
        <time>2019-05-29T08:30:07.000Z</time>
      </trkpt>
      <trkpt lat="44.02557" lon="4.84385">
        <ele>26.65</ele>
        <time>2019-05-29T08:30:12.000Z</time>
      </trkpt>
      <trkpt lat="44.02526" lon="4.84396">
        <ele>26.62</ele>
        <time>2019-05-29T08:30:17.000Z</time>
      </trkpt>
      <trkpt lat="44.02494" lon="4.84408">
        <ele>27.39</ele>
        <time>2019-05-29T08:30:22.000Z</time>
      </trkpt>
      <trkpt lat="44.02462" lon="4.84422">
        <ele>26.65</ele>
        <time>2019-05-29T08:30:27.000Z</time>
      </trkpt>
      <trkpt lat="44.02432" lon="4.84434">
        <ele>28.64</ele>
        <time>2019-05-29T08:30:32.000Z</time>
      </trkpt>
      <trkpt lat="44.02407" lon="4.84459">
        <ele>31.37</ele>
        <time>2019-05-29T08:30:37.000Z</time>
      </trkpt>
      <trkpt lat="44.02401" lon="4.84497">
        <ele>31.87</ele>
        <time>2019-05-29T08:30:42.000Z</time>
      </trkpt>
      <trkpt lat="44.0238" lon="4.84526">
        <ele>29.89</ele>
        <time>2019-05-29T08:30:47.000Z</time>
      </trkpt>
      <trkpt lat="44.02347" lon="4.84544">
        <ele>30.39</ele>
        <time>2019-05-29T08:30:52.000Z</time>
      </trkpt>
      <trkpt lat="44.02313" lon="4.84562">
        <ele>27.89</ele>
        <time>2019-05-29T08:30:57.000Z</time>
      </trkpt>
      <trkpt lat="44.02284" lon="4.84581">
        <ele>27.64</ele>
        <time>2019-05-29T08:31:02.000Z</time>
      </trkpt>
      <trkpt lat="44.02257" lon="4.84605">
        <ele>28.39</ele>
        <time>2019-05-29T08:31:07.000Z</time>
      </trkpt>
      <trkpt lat="44.02226" lon="4.84624">
        <ele>26.89</ele>
        <time>2019-05-29T08:31:12.000Z</time>
      </trkpt>
      <trkpt lat="44.02193" lon="4.84647">
        <ele>27.63</ele>
        <time>2019-05-29T08:31:17.000Z</time>
      </trkpt>
      <trkpt lat="44.02158" lon="4.8467">
        <ele>25.64</ele>
        <time>2019-05-29T08:31:22.000Z</time>
      </trkpt>
      <trkpt lat="44.02124" lon="4.84695">
        <ele>26.64</ele>
        <time>2019-05-29T08:31:27.000Z</time>
      </trkpt>
      <trkpt lat="44.02088" lon="4.84719">
        <ele>26.64</ele>
        <time>2019-05-29T08:31:32.000Z</time>
      </trkpt>
      <trkpt lat="44.02051" lon="4.84743">
        <ele>27.64</ele>
        <time>2019-05-29T08:31:37.000Z</time>
      </trkpt>
      <trkpt lat="44.02016" lon="4.8477">
        <ele>27.64</ele>
        <time>2019-05-29T08:31:42.000Z</time>
      </trkpt>
      <trkpt lat="44.01982" lon="4.84799">
        <ele>25.89</ele>
        <time>2019-05-29T08:31:47.000Z</time>
      </trkpt>
      <trkpt lat="44.01947" lon="4.84827">
        <ele>26.41</ele>
        <time>2019-05-29T08:31:52.000Z</time>
      </trkpt>
      <trkpt lat="44.0191" lon="4.8486">
        <ele>26.89</ele>
        <time>2019-05-29T08:31:57.000Z</time>
      </trkpt>
      <trkpt lat="44.01875" lon="4.84892">
        <ele>25.88</ele>
        <time>2019-05-29T08:32:02.000Z</time>
      </trkpt>
      <trkpt lat="44.01841" lon="4.84928">
        <ele>24.9</ele>
        <time>2019-05-29T08:32:07.000Z</time>
      </trkpt>
      <trkpt lat="44.01808" lon="4.84961">
        <ele>25.65</ele>
        <time>2019-05-29T08:32:12.000Z</time>
      </trkpt>
      <trkpt lat="44.01772" lon="4.84997">
        <ele>24.65</ele>
        <time>2019-05-29T08:32:17.000Z</time>
      </trkpt>
      <trkpt lat="44.01737" lon="4.8503">
        <ele>23.65</ele>
        <time>2019-05-29T08:32:22.000Z</time>
      </trkpt>
      <trkpt lat="44.01703" lon="4.85063">
        <ele>21.91</ele>
        <time>2019-05-29T08:32:27.000Z</time>
      </trkpt>
      <trkpt lat="44.0167" lon="4.85098">
        <ele>21.9</ele>
        <time>2019-05-29T08:32:32.000Z</time>
      </trkpt>
      <trkpt lat="44.01637" lon="4.85129">
        <ele>24.38</ele>
        <time>2019-05-29T08:32:37.000Z</time>
      </trkpt>
      <trkpt lat="44.01606" lon="4.8516">
        <ele>25.65</ele>
        <time>2019-05-29T08:32:42.000Z</time>
      </trkpt>
      <trkpt lat="44.01577" lon="4.85191">
        <ele>26.65</ele>
        <time>2019-05-29T08:32:47.000Z</time>
      </trkpt>
      <trkpt lat="44.01549" lon="4.85218">
        <ele>27.65</ele>
        <time>2019-05-29T08:32:52.000Z</time>
      </trkpt>
      <trkpt lat="44.01522" lon="4.85246">
        <ele>28.63</ele>
        <time>2019-05-29T08:32:57.000Z</time>
      </trkpt>
      <trkpt lat="44.01499" lon="4.85281">
        <ele>28.65</ele>
        <time>2019-05-29T08:33:02.000Z</time>
      </trkpt>
      <trkpt lat="44.01481" lon="4.85323">
        <ele>27.67</ele>
        <time>2019-05-29T08:33:07.000Z</time>
      </trkpt>
      <trkpt lat="44.01469" lon="4.85366">
        <ele>26.66</ele>
        <time>2019-05-29T08:33:12.000Z</time>
      </trkpt>
      <trkpt lat="44.01462" lon="4.85413">
        <ele>27.65</ele>
        <time>2019-05-29T08:33:17.000Z</time>
      </trkpt>
      <trkpt lat="44.01463" lon="4.85465">
        <ele>26.9</ele>
        <time>2019-05-29T08:33:22.000Z</time>
      </trkpt>
      <trkpt lat="44.01468" lon="4.85515">
        <ele>27.4</ele>
        <time>2019-05-29T08:33:27.000Z</time>
      </trkpt>
      <trkpt lat="44.01473" lon="4.85565">
        <ele>29.63</ele>
        <time>2019-05-29T08:33:32.000Z</time>
      </trkpt>
      <trkpt lat="44.01479" lon="4.8561">
        <ele>28.65</ele>
        <time>2019-05-29T08:33:37.000Z</time>
      </trkpt>
      <trkpt lat="44.01482" lon="4.85653">
        <ele>27.66</ele>
        <time>2019-05-29T08:33:42.000Z</time>
      </trkpt>
      <trkpt lat="44.01486" lon="4.85695">
        <ele>26.65</ele>
        <time>2019-05-29T08:33:47.000Z</time>
      </trkpt>
      <trkpt lat="44.01489" lon="4.85734">
        <ele>28.4</ele>
        <time>2019-05-29T08:33:52.000Z</time>
      </trkpt>
      <trkpt lat="44.01494" lon="4.85773">
        <ele>28.41</ele>
        <time>2019-05-29T08:33:57.000Z</time>
      </trkpt>
      <trkpt lat="44.01497" lon="4.85813">
        <ele>29.65</ele>
        <time>2019-05-29T08:34:02.000Z</time>
      </trkpt>
      <trkpt lat="44.01503" lon="4.85855">
        <ele>29.41</ele>
        <time>2019-05-29T08:34:07.000Z</time>
      </trkpt>
      <trkpt lat="44.01509" lon="4.85896">
        <ele>27.65</ele>
        <time>2019-05-29T08:34:12.000Z</time>
      </trkpt>
      <trkpt lat="44.01515" lon="4.85937">
        <ele>26.63</ele>
        <time>2019-05-29T08:34:17.000Z</time>
      </trkpt>
      <trkpt lat="44.01518" lon="4.85976">
        <ele>26.65</ele>
        <time>2019-05-29T08:34:22.000Z</time>
      </trkpt>
      <trkpt lat="44.01513" lon="4.86009">
        <ele>28.4</ele>
        <time>2019-05-29T08:34:27.000Z</time>
      </trkpt>
      <trkpt lat="44.015" lon="4.86036">
        <ele>27.9</ele>
        <time>2019-05-29T08:34:32.000Z</time>
      </trkpt>
      <trkpt lat="44.01488" lon="4.86064">
        <ele>28.86</ele>
        <time>2019-05-29T08:34:37.000Z</time>
      </trkpt>
      <trkpt lat="44.01479" lon="4.86096">
        <ele>29.4</ele>
        <time>2019-05-29T08:34:42.000Z</time>
      </trkpt>
      <trkpt lat="44.01473" lon="4.86128">
        <ele>27.9</ele>
        <time>2019-05-29T08:34:47.000Z</time>
      </trkpt>
      <trkpt lat="44.01471" lon="4.86165">
        <ele>27.41</ele>
        <time>2019-05-29T08:34:52.000Z</time>
      </trkpt>
      <trkpt lat="44.01471" lon="4.862">
        <ele>29.63</ele>
        <time>2019-05-29T08:34:57.000Z</time>
      </trkpt>
      <trkpt lat="44.01469" lon="4.86239">
        <ele>28.9</ele>
        <time>2019-05-29T08:35:02.000Z</time>
      </trkpt>
      <trkpt lat="44.01469" lon="4.86275">
        <ele>30.63</ele>
        <time>2019-05-29T08:35:07.000Z</time>
      </trkpt>
      <trkpt lat="44.0147" lon="4.86306">
        <ele>30.65</ele>
        <time>2019-05-29T08:35:12.000Z</time>
      </trkpt>
      <trkpt lat="44.0147" lon="4.86338">
        <ele>29.66</ele>
        <time>2019-05-29T08:35:17.000Z</time>
      </trkpt>
      <trkpt lat="44.01467" lon="4.86369">
        <ele>28.65</ele>
        <time>2019-05-29T08:35:22.000Z</time>
      </trkpt>
      <trkpt lat="44.01464" lon="4.86405">
        <ele>29.64</ele>
        <time>2019-05-29T08:35:27.000Z</time>
      </trkpt>
      <trkpt lat="44.0146" lon="4.86444">
        <ele>28.64</ele>
        <time>2019-05-29T08:35:32.000Z</time>
      </trkpt>
      <trkpt lat="44.01457" lon="4.86489">
        <ele>28.64</ele>
        <time>2019-05-29T08:35:37.000Z</time>
      </trkpt>
      <trkpt lat="44.01459" lon="4.86531">
        <ele>27.88</ele>
        <time>2019-05-29T08:35:42.000Z</time>
      </trkpt>
      <trkpt lat="44.01463" lon="4.86574">
        <ele>26.91</ele>
        <time>2019-05-29T08:35:47.000Z</time>
      </trkpt>
      <trkpt lat="44.01464" lon="4.86616">
        <ele>25.89</ele>
        <time>2019-05-29T08:35:52.000Z</time>
      </trkpt>
      <trkpt lat="44.01462" lon="4.86663">
        <ele>26.63</ele>
        <time>2019-05-29T08:35:57.000Z</time>
      </trkpt>
      <trkpt lat="44.01454" lon="4.86706">
        <ele>26.64</ele>
        <time>2019-05-29T08:36:02.000Z</time>
      </trkpt>
      <trkpt lat="44.01444" lon="4.86755">
        <ele>27.14</ele>
        <time>2019-05-29T08:36:07.000Z</time>
      </trkpt>
      <trkpt lat="44.01434" lon="4.86801">
        <ele>28.64</ele>
        <time>2019-05-29T08:36:12.000Z</time>
      </trkpt>
      <trkpt lat="44.01421" lon="4.86847">
        <ele>28.64</ele>
        <time>2019-05-29T08:36:17.000Z</time>
      </trkpt>
      <trkpt lat="44.01409" lon="4.86893">
        <ele>27.64</ele>
        <time>2019-05-29T08:36:22.000Z</time>
      </trkpt>
      <trkpt lat="44.01396" lon="4.86938">
        <ele>26.66</ele>
        <time>2019-05-29T08:36:27.000Z</time>
      </trkpt>
      <trkpt lat="44.01381" lon="4.86982">
        <ele>26.64</ele>
        <time>2019-05-29T08:36:32.000Z</time>
      </trkpt>
      <trkpt lat="44.01369" lon="4.87017">
        <ele>26.64</ele>
        <time>2019-05-29T08:36:37.000Z</time>
      </trkpt>
      <trkpt lat="44.01365" lon="4.87043">
        <ele>25.64</ele>
        <time>2019-05-29T08:36:42.000Z</time>
      </trkpt>
      <trkpt lat="44.01367" lon="4.87071">
        <ele>24.64</ele>
        <time>2019-05-29T08:36:47.000Z</time>
      </trkpt>
      <trkpt lat="44.01369" lon="4.87086">
        <ele>26.63</ele>
        <time>2019-05-29T08:36:52.000Z</time>
      </trkpt>
      <trkpt lat="44.01373" lon="4.87102">
        <ele>27.64</ele>
        <time>2019-05-29T08:37:12.000Z</time>
      </trkpt>
      <trkpt lat="44.01379" lon="4.87123">
        <ele>27.63</ele>
        <time>2019-05-29T08:37:17.000Z</time>
      </trkpt>
      <trkpt lat="44.01384" lon="4.87136">
        <ele>27.64</ele>
        <time>2019-05-29T08:37:22.000Z</time>
      </trkpt>
      <trkpt lat="44.01375" lon="4.87151">
        <ele>29.39</ele>
        <time>2019-05-29T08:37:27.000Z</time>
      </trkpt>
      <trkpt lat="44.01353" lon="4.87169">
        <ele>29.64</ele>
        <time>2019-05-29T08:37:32.000Z</time>
      </trkpt>
      <trkpt lat="44.0133" lon="4.87186">
        <ele>29.66</ele>
        <time>2019-05-29T08:37:37.000Z</time>
      </trkpt>
      <trkpt lat="44.01315" lon="4.8721">
        <ele>28.64</ele>
        <time>2019-05-29T08:37:42.000Z</time>
      </trkpt>
      <trkpt lat="44.01309" lon="4.8723">
        <ele>28.89</ele>
        <time>2019-05-29T08:37:47.000Z</time>
      </trkpt>
      <trkpt lat="44.01308" lon="4.87256">
        <ele>27.66</ele>
        <time>2019-05-29T08:37:52.000Z</time>
      </trkpt>
      <trkpt lat="44.01301" lon="4.87279">
        <ele>27.64</ele>
        <time>2019-05-29T08:37:57.000Z</time>
      </trkpt>
      <trkpt lat="44.01273" lon="4.87272">
        <ele>25.39</ele>
        <time>2019-05-29T08:38:02.000Z</time>
      </trkpt>
      <trkpt lat="44.01251" lon="4.87268">
        <ele>25.65</ele>
        <time>2019-05-29T08:38:07.000Z</time>
      </trkpt>
      <trkpt lat="44.01226" lon="4.87264">
        <ele>23.65</ele>
        <time>2019-05-29T08:38:12.000Z</time>
      </trkpt>
      <trkpt lat="44.01212" lon="4.87278">
        <ele>25.63</ele>
        <time>2019-05-29T08:38:17.000Z</time>
      </trkpt>
      <trkpt lat="44.01211" lon="4.87312">
        <ele>26.89</ele>
        <time>2019-05-29T08:38:22.000Z</time>
      </trkpt>
      <trkpt lat="44.01205" lon="4.87328">
        <ele>26.64</ele>
        <time>2019-05-29T08:38:27.000Z</time>
      </trkpt>
      <trkpt lat="44.01179" lon="4.87321">
        <ele>26.65</ele>
        <time>2019-05-29T08:38:32.000Z</time>
      </trkpt>
      <trkpt lat="44.01153" lon="4.87317">
        <ele>25.65</ele>
        <time>2019-05-29T08:38:37.000Z</time>
      </trkpt>
      <trkpt lat="44.01124" lon="4.87309">
        <ele>27.61</ele>
        <time>2019-05-29T08:38:42.000Z</time>
      </trkpt>
      <trkpt lat="44.01101" lon="4.87302">
        <ele>26.65</ele>
        <time>2019-05-29T08:38:47.000Z</time>
      </trkpt>
      <trkpt lat="44.01076" lon="4.87286">
        <ele>25.65</ele>
        <time>2019-05-29T08:38:52.000Z</time>
      </trkpt>
      <trkpt lat="44.01052" lon="4.87268">
        <ele>25.9</ele>
        <time>2019-05-29T08:38:57.000Z</time>
      </trkpt>
      <trkpt lat="44.01033" lon="4.8726">
        <ele>28.37</ele>
        <time>2019-05-29T08:39:02.000Z</time>
      </trkpt>
      <trkpt lat="44.01009" lon="4.87238">
        <ele>29.4</ele>
        <time>2019-05-29T08:39:07.000Z</time>
      </trkpt>
      <trkpt lat="44.01002" lon="4.87227">
        <ele>29.62</ele>
        <time>2019-05-29T08:39:12.000Z</time>
      </trkpt>
      <trkpt lat="44.00993" lon="4.87231">
        <ele>33.88</ele>
        <time>2019-05-29T08:39:18.000Z</time>
      </trkpt>
      <trkpt lat="44.00987" lon="4.8725">
        <ele>30.38</ele>
        <time>2019-05-29T08:39:23.000Z</time>
      </trkpt>
      <trkpt lat="44.00981" lon="4.87263">
        <ele>30.66</ele>
        <time>2019-05-29T08:39:28.000Z</time>
      </trkpt>
      <trkpt lat="44.00968" lon="4.87276">
        <ele>27.65</ele>
        <time>2019-05-29T08:39:33.000Z</time>
      </trkpt>
      <trkpt lat="44.00952" lon="4.87291">
        <ele>27.66</ele>
        <time>2019-05-29T08:39:38.000Z</time>
      </trkpt>
      <trkpt lat="44.00938" lon="4.87305">
        <ele>26.65</ele>
        <time>2019-05-29T08:39:43.000Z</time>
      </trkpt>
      <trkpt lat="44.00919" lon="4.87315">
        <ele>27.65</ele>
        <time>2019-05-29T08:39:48.000Z</time>
      </trkpt>
      <trkpt lat="44.00902" lon="4.87297">
        <ele>28.38</ele>
        <time>2019-05-29T08:39:53.000Z</time>
      </trkpt>
      <trkpt lat="44.00887" lon="4.87274">
        <ele>30.65</ele>
        <time>2019-05-29T08:39:58.000Z</time>
      </trkpt>
      <trkpt lat="44.00874" lon="4.87259">
        <ele>29.66</ele>
        <time>2019-05-29T08:40:03.000Z</time>
      </trkpt>
      <trkpt lat="44.00857" lon="4.87272">
        <ele>30.4</ele>
        <time>2019-05-29T08:40:08.000Z</time>
      </trkpt>
      <trkpt lat="44.00841" lon="4.87275">
        <ele>32.37</ele>
        <time>2019-05-29T08:40:13.000Z</time>
      </trkpt>
      <trkpt lat="44.00828" lon="4.87299">
        <ele>33.9</ele>
        <time>2019-05-29T08:40:18.000Z</time>
      </trkpt>
      <trkpt lat="44.00816" lon="4.87329">
        <ele>31.64</ele>
        <time>2019-05-29T08:40:23.000Z</time>
      </trkpt>
      <trkpt lat="44.00804" lon="4.87356">
        <ele>32.9</ele>
        <time>2019-05-29T08:40:28.000Z</time>
      </trkpt>
      <trkpt lat="44.00791" lon="4.87385">
        <ele>31.67</ele>
        <time>2019-05-29T08:40:33.000Z</time>
      </trkpt>
      <trkpt lat="44.00777" lon="4.87411">
        <ele>32.63</ele>
        <time>2019-05-29T08:40:38.000Z</time>
      </trkpt>
      <trkpt lat="44.00781" lon="4.87441">
        <ele>32.43</ele>
        <time>2019-05-29T08:40:43.000Z</time>
      </trkpt>
      <trkpt lat="44.00767" lon="4.87467">
        <ele>35.4</ele>
        <time>2019-05-29T08:40:48.000Z</time>
      </trkpt>
      <trkpt lat="44.00746" lon="4.8749">
        <ele>34.42</ele>
        <time>2019-05-29T08:40:53.000Z</time>
      </trkpt>
      <trkpt lat="44.0072" lon="4.87511">
        <ele>34.9</ele>
        <time>2019-05-29T08:40:58.000Z</time>
      </trkpt>
      <trkpt lat="44.00692" lon="4.87538">
        <ele>33.65</ele>
        <time>2019-05-29T08:41:03.000Z</time>
      </trkpt>
      <trkpt lat="44.00665" lon="4.87561">
        <ele>34.65</ele>
        <time>2019-05-29T08:41:08.000Z</time>
      </trkpt>
      <trkpt lat="44.00638" lon="4.87591">
        <ele>33.65</ele>
        <time>2019-05-29T08:41:13.000Z</time>
      </trkpt>
      <trkpt lat="44.00609" lon="4.87621">
        <ele>32.67</ele>
        <time>2019-05-29T08:41:18.000Z</time>
      </trkpt>
      <trkpt lat="44.00574" lon="4.87637">
        <ele>32.9</ele>
        <time>2019-05-29T08:41:23.000Z</time>
      </trkpt>
      <trkpt lat="44.00557" lon="4.87646">
        <ele>37.62</ele>
        <time>2019-05-29T08:41:28.000Z</time>
      </trkpt>
      <trkpt lat="44.00545" lon="4.87651">
        <ele>35.15</ele>
        <time>2019-05-29T08:41:34.000Z</time>
      </trkpt>
      <trkpt lat="44.00524" lon="4.87661">
        <ele>33.89</ele>
        <time>2019-05-29T08:41:39.000Z</time>
      </trkpt>
      <trkpt lat="44.005" lon="4.87672">
        <ele>33.65</ele>
        <time>2019-05-29T08:41:44.000Z</time>
      </trkpt>
      <trkpt lat="44.00474" lon="4.87686">
        <ele>32.65</ele>
        <time>2019-05-29T08:41:49.000Z</time>
      </trkpt>
      <trkpt lat="44.00444" lon="4.87697">
        <ele>33.89</ele>
        <time>2019-05-29T08:41:54.000Z</time>
      </trkpt>
      <trkpt lat="44.00414" lon="4.87709">
        <ele>33.64</ele>
        <time>2019-05-29T08:41:59.000Z</time>
      </trkpt>
      <trkpt lat="44.00379" lon="4.87721">
        <ele>32.64</ele>
        <time>2019-05-29T08:42:04.000Z</time>
      </trkpt>
      <trkpt lat="44.00348" lon="4.87729">
        <ele>33.4</ele>
        <time>2019-05-29T08:42:09.000Z</time>
      </trkpt>
      <trkpt lat="44.00314" lon="4.87739">
        <ele>33.9</ele>
        <time>2019-05-29T08:42:14.000Z</time>
      </trkpt>
      <trkpt lat="44.00281" lon="4.87746">
        <ele>33.66</ele>
        <time>2019-05-29T08:42:19.000Z</time>
      </trkpt>
      <trkpt lat="44.00263" lon="4.87749">
        <ele>33.64</ele>
        <time>2019-05-29T08:42:24.000Z</time>
      </trkpt>
      <trkpt lat="44.00254" lon="4.87745">
        <ele>32.66</ele>
        <time>2019-05-29T08:42:33.000Z</time>
      </trkpt>
      <trkpt lat="44.00237" lon="4.87735">
        <ele>31.89</ele>
        <time>2019-05-29T08:42:38.000Z</time>
      </trkpt>
      <trkpt lat="44.00215" lon="4.87716">
        <ele>31.67</ele>
        <time>2019-05-29T08:42:43.000Z</time>
      </trkpt>
      <trkpt lat="44.00199" lon="4.87685">
        <ele>32.66</ele>
        <time>2019-05-29T08:42:48.000Z</time>
      </trkpt>
      <trkpt lat="44.00181" lon="4.87651">
        <ele>32.66</ele>
        <time>2019-05-29T08:42:53.000Z</time>
      </trkpt>
      <trkpt lat="44.00161" lon="4.87615">
        <ele>31.91</ele>
        <time>2019-05-29T08:42:58.000Z</time>
      </trkpt>
      <trkpt lat="44.0014" lon="4.87577">
        <ele>31.67</ele>
        <time>2019-05-29T08:43:03.000Z</time>
      </trkpt>
      <trkpt lat="44.00122" lon="4.87539">
        <ele>30.66</ele>
        <time>2019-05-29T08:43:08.000Z</time>
      </trkpt>
      <trkpt lat="44.001" lon="4.87502">
        <ele>30.66</ele>
        <time>2019-05-29T08:43:13.000Z</time>
      </trkpt>
      <trkpt lat="44.00078" lon="4.87465">
        <ele>29.66</ele>
        <time>2019-05-29T08:43:18.000Z</time>
      </trkpt>
      <trkpt lat="44.00055" lon="4.87431">
        <ele>29.66</ele>
        <time>2019-05-29T08:43:23.000Z</time>
      </trkpt>
      <trkpt lat="44.00022" lon="4.87413">
        <ele>30.66</ele>
        <time>2019-05-29T08:43:28.000Z</time>
      </trkpt>
      <trkpt lat="43.99989" lon="4.87422">
        <ele>29.66</ele>
        <time>2019-05-29T08:43:33.000Z</time>
      </trkpt>
      <trkpt lat="43.99955" lon="4.87435">
        <ele>30.66</ele>
        <time>2019-05-29T08:43:38.000Z</time>
      </trkpt>
      <trkpt lat="43.99919" lon="4.87439">
        <ele>31.66</ele>
        <time>2019-05-29T08:43:43.000Z</time>
      </trkpt>
      <trkpt lat="43.99883" lon="4.87434">
        <ele>30.91</ele>
        <time>2019-05-29T08:43:48.000Z</time>
      </trkpt>
      <trkpt lat="43.99848" lon="4.87422">
        <ele>31.41</ele>
        <time>2019-05-29T08:43:53.000Z</time>
      </trkpt>
      <trkpt lat="43.99813" lon="4.87413">
        <ele>30.68</ele>
        <time>2019-05-29T08:43:58.000Z</time>
      </trkpt>
      <trkpt lat="43.99778" lon="4.87404">
        <ele>30.66</ele>
        <time>2019-05-29T08:44:03.000Z</time>
      </trkpt>
      <trkpt lat="43.99744" lon="4.87393">
        <ele>30.66</ele>
        <time>2019-05-29T08:44:08.000Z</time>
      </trkpt>
      <trkpt lat="43.9971" lon="4.87385">
        <ele>31.66</ele>
        <time>2019-05-29T08:44:13.000Z</time>
      </trkpt>
      <trkpt lat="43.99684" lon="4.87353">
        <ele>31.66</ele>
        <time>2019-05-29T08:44:18.000Z</time>
      </trkpt>
      <trkpt lat="43.99667" lon="4.87314">
        <ele>30.91</ele>
        <time>2019-05-29T08:44:23.000Z</time>
      </trkpt>
      <trkpt lat="43.99647" lon="4.87275">
        <ele>31.66</ele>
        <time>2019-05-29T08:44:28.000Z</time>
      </trkpt>
      <trkpt lat="43.9962" lon="4.87247">
        <ele>30.91</ele>
        <time>2019-05-29T08:44:33.000Z</time>
      </trkpt>
      <trkpt lat="43.99589" lon="4.87229">
        <ele>31.66</ele>
        <time>2019-05-29T08:44:38.000Z</time>
      </trkpt>
      <trkpt lat="43.99555" lon="4.87214">
        <ele>31.43</ele>
        <time>2019-05-29T08:44:43.000Z</time>
      </trkpt>
      <trkpt lat="43.99522" lon="4.872">
        <ele>30.66</ele>
        <time>2019-05-29T08:44:48.000Z</time>
      </trkpt>
      <trkpt lat="43.9949" lon="4.87184">
        <ele>30.67</ele>
        <time>2019-05-29T08:44:53.000Z</time>
      </trkpt>
      <trkpt lat="43.99456" lon="4.87168">
        <ele>31.67</ele>
        <time>2019-05-29T08:44:58.000Z</time>
      </trkpt>
      <trkpt lat="43.99423" lon="4.87155">
        <ele>30.67</ele>
        <time>2019-05-29T08:45:03.000Z</time>
      </trkpt>
      <trkpt lat="43.99389" lon="4.87139">
        <ele>29.92</ele>
        <time>2019-05-29T08:45:08.000Z</time>
      </trkpt>
      <trkpt lat="43.99353" lon="4.87123">
        <ele>30.42</ele>
        <time>2019-05-29T08:45:13.000Z</time>
      </trkpt>
      <trkpt lat="43.9932" lon="4.87106">
        <ele>33.4</ele>
        <time>2019-05-29T08:45:18.000Z</time>
      </trkpt>
      <trkpt lat="43.99297" lon="4.87087">
        <ele>34.67</ele>
        <time>2019-05-29T08:45:23.000Z</time>
      </trkpt>
      <trkpt lat="43.99281" lon="4.87066">
        <ele>33.93</ele>
        <time>2019-05-29T08:45:28.000Z</time>
      </trkpt>
      <trkpt lat="43.99271" lon="4.87046">
        <ele>35.65</ele>
        <time>2019-05-29T08:45:33.000Z</time>
      </trkpt>
      <trkpt lat="43.99263" lon="4.87022">
        <ele>36.67</ele>
        <time>2019-05-29T08:45:38.000Z</time>
      </trkpt>
      <trkpt lat="43.99255" lon="4.86993">
        <ele>37.42</ele>
        <time>2019-05-29T08:45:43.000Z</time>
      </trkpt>
      <trkpt lat="43.99248" lon="4.86962">
        <ele>36.68</ele>
        <time>2019-05-29T08:45:48.000Z</time>
      </trkpt>
      <trkpt lat="43.99238" lon="4.86923">
        <ele>35.67</ele>
        <time>2019-05-29T08:45:53.000Z</time>
      </trkpt>
      <trkpt lat="43.99228" lon="4.86875">
        <ele>33.92</ele>
        <time>2019-05-29T08:45:58.000Z</time>
      </trkpt>
      <trkpt lat="43.99216" lon="4.8682">
        <ele>32.67</ele>
        <time>2019-05-29T08:46:03.000Z</time>
      </trkpt>
      <trkpt lat="43.99206" lon="4.86767">
        <ele>30.68</ele>
        <time>2019-05-29T08:46:08.000Z</time>
      </trkpt>
      <trkpt lat="43.99198" lon="4.86719">
        <ele>29.92</ele>
        <time>2019-05-29T08:46:13.000Z</time>
      </trkpt>
      <trkpt lat="43.99194" lon="4.86675">
        <ele>29.67</ele>
        <time>2019-05-29T08:46:18.000Z</time>
      </trkpt>
      <trkpt lat="43.99187" lon="4.86632">
        <ele>28.67</ele>
        <time>2019-05-29T08:46:23.000Z</time>
      </trkpt>
      <trkpt lat="43.99191" lon="4.86592">
        <ele>27.69</ele>
        <time>2019-05-29T08:46:28.000Z</time>
      </trkpt>
      <trkpt lat="43.99203" lon="4.86562">
        <ele>29.65</ele>
        <time>2019-05-29T08:46:33.000Z</time>
      </trkpt>
      <trkpt lat="43.99213" lon="4.86528">
        <ele>29.69</ele>
        <time>2019-05-29T08:46:38.000Z</time>
      </trkpt>
      <trkpt lat="43.99224" lon="4.86492">
        <ele>31.42</ele>
        <time>2019-05-29T08:46:43.000Z</time>
      </trkpt>
      <trkpt lat="43.99233" lon="4.86462">
        <ele>29.69</ele>
        <time>2019-05-29T08:46:48.000Z</time>
      </trkpt>
      <trkpt lat="43.9924" lon="4.86454">
        <ele>27.67</ele>
        <time>2019-05-29T08:47:02.000Z</time>
      </trkpt>
      <trkpt lat="43.99231" lon="4.86461">
        <ele>28.67</ele>
        <time>2019-05-29T08:47:20.000Z</time>
      </trkpt>
      <trkpt lat="43.99224" lon="4.86483">
        <ele>28.9</ele>
        <time>2019-05-29T08:47:25.000Z</time>
      </trkpt>
      <trkpt lat="43.99221" lon="4.865">
        <ele>28.68</ele>
        <time>2019-05-29T08:47:42.000Z</time>
      </trkpt>
      <trkpt lat="43.9921" lon="4.86525">
        <ele>29.67</ele>
        <time>2019-05-29T08:47:47.000Z</time>
      </trkpt>
      <trkpt lat="43.99201" lon="4.86555">
        <ele>28.67</ele>
        <time>2019-05-29T08:47:52.000Z</time>
      </trkpt>
      <trkpt lat="43.9919" lon="4.86588">
        <ele>27.66</ele>
        <time>2019-05-29T08:47:57.000Z</time>
      </trkpt>
      <trkpt lat="43.99182" lon="4.86617">
        <ele>28.67</ele>
        <time>2019-05-29T08:48:02.000Z</time>
      </trkpt>
      <trkpt lat="43.99184" lon="4.86655">
        <ele>27.67</ele>
        <time>2019-05-29T08:48:07.000Z</time>
      </trkpt>
      <trkpt lat="43.99189" lon="4.86692">
        <ele>27.67</ele>
        <time>2019-05-29T08:48:12.000Z</time>
      </trkpt>
      <trkpt lat="43.99194" lon="4.86729">
        <ele>26.92</ele>
        <time>2019-05-29T08:48:17.000Z</time>
      </trkpt>
      <trkpt lat="43.99197" lon="4.86766">
        <ele>26.92</ele>
        <time>2019-05-29T08:48:22.000Z</time>
      </trkpt>
      <trkpt lat="43.99204" lon="4.868">
        <ele>27.67</ele>
        <time>2019-05-29T08:48:27.000Z</time>
      </trkpt>
      <trkpt lat="43.99211" lon="4.86834">
        <ele>28.67</ele>
        <time>2019-05-29T08:48:32.000Z</time>
      </trkpt>
      <trkpt lat="43.99218" lon="4.86863">
        <ele>30.42</ele>
        <time>2019-05-29T08:48:37.000Z</time>
      </trkpt>
      <trkpt lat="43.99221" lon="4.86885">
        <ele>31.65</ele>
        <time>2019-05-29T08:48:42.000Z</time>
      </trkpt>
      <trkpt lat="43.99226" lon="4.86906">
        <ele>32.43</ele>
        <time>2019-05-29T08:48:47.000Z</time>
      </trkpt>
      <trkpt lat="43.9923" lon="4.86927">
        <ele>33.65</ele>
        <time>2019-05-29T08:48:52.000Z</time>
      </trkpt>
      <trkpt lat="43.99234" lon="4.86948">
        <ele>34.65</ele>
        <time>2019-05-29T08:48:57.000Z</time>
      </trkpt>
      <trkpt lat="43.99239" lon="4.8697">
        <ele>34.67</ele>
        <time>2019-05-29T08:49:02.000Z</time>
      </trkpt>
      <trkpt lat="43.99245" lon="4.86993">
        <ele>35.42</ele>
        <time>2019-05-29T08:49:07.000Z</time>
      </trkpt>
      <trkpt lat="43.99252" lon="4.87018">
        <ele>35.67</ele>
        <time>2019-05-29T08:49:12.000Z</time>
      </trkpt>
      <trkpt lat="43.99262" lon="4.87048">
        <ele>34.67</ele>
        <time>2019-05-29T08:49:17.000Z</time>
      </trkpt>
      <trkpt lat="43.99276" lon="4.87074">
        <ele>33.67</ele>
        <time>2019-05-29T08:49:22.000Z</time>
      </trkpt>
      <trkpt lat="43.99285" lon="4.87093">
        <ele>32.67</ele>
        <time>2019-05-29T08:49:27.000Z</time>
      </trkpt>
      <trkpt lat="43.99277" lon="4.87101">
        <ele>32.65</ele>
        <time>2019-05-29T08:52:25.000Z</time>
      </trkpt>
      <trkpt lat="43.99268" lon="4.87108">
        <ele>32.67</ele>
        <time>2019-05-29T08:52:30.000Z</time>
      </trkpt>
      <trkpt lat="43.99252" lon="4.87095">
        <ele>31.92</ele>
        <time>2019-05-29T08:52:35.000Z</time>
      </trkpt>
      <trkpt lat="43.99228" lon="4.87072">
        <ele>30.67</ele>
        <time>2019-05-29T08:52:40.000Z</time>
      </trkpt>
      <trkpt lat="43.99199" lon="4.87058">
        <ele>28.92</ele>
        <time>2019-05-29T08:52:45.000Z</time>
      </trkpt>
      <trkpt lat="43.99168" lon="4.87046">
        <ele>29.67</ele>
        <time>2019-05-29T08:52:50.000Z</time>
      </trkpt>
      <trkpt lat="43.99137" lon="4.87035">
        <ele>29.42</ele>
        <time>2019-05-29T08:52:55.000Z</time>
      </trkpt>
      <trkpt lat="43.99108" lon="4.87024">
        <ele>28.43</ele>
        <time>2019-05-29T08:53:00.000Z</time>
      </trkpt>
      <trkpt lat="43.9908" lon="4.87015">
        <ele>29.65</ele>
        <time>2019-05-29T08:53:05.000Z</time>
      </trkpt>
      <trkpt lat="43.99052" lon="4.87008">
        <ele>29.67</ele>
        <time>2019-05-29T08:53:10.000Z</time>
      </trkpt>
      <trkpt lat="43.99023" lon="4.86999">
        <ele>29.67</ele>
        <time>2019-05-29T08:53:15.000Z</time>
      </trkpt>
      <trkpt lat="43.98995" lon="4.8699">
        <ele>29.66</ele>
        <time>2019-05-29T08:53:20.000Z</time>
      </trkpt>
      <trkpt lat="43.98969" lon="4.86978">
        <ele>28.67</ele>
        <time>2019-05-29T08:53:25.000Z</time>
      </trkpt>
      <trkpt lat="43.98943" lon="4.86965">
        <ele>29.67</ele>
        <time>2019-05-29T08:53:30.000Z</time>
      </trkpt>
      <trkpt lat="43.98917" lon="4.86953">
        <ele>29.67</ele>
        <time>2019-05-29T08:53:35.000Z</time>
      </trkpt>
      <trkpt lat="43.98891" lon="4.86939">
        <ele>28.69</ele>
        <time>2019-05-29T08:53:40.000Z</time>
      </trkpt>
      <trkpt lat="43.98864" lon="4.86926">
        <ele>29.67</ele>
        <time>2019-05-29T08:53:45.000Z</time>
      </trkpt>
      <trkpt lat="43.98839" lon="4.86913">
        <ele>29.67</ele>
        <time>2019-05-29T08:53:50.000Z</time>
      </trkpt>
      <trkpt lat="43.98821" lon="4.86902">
        <ele>28.69</ele>
        <time>2019-05-29T08:53:55.000Z</time>
      </trkpt>
      <trkpt lat="43.98799" lon="4.8689">
        <ele>23.94</ele>
        <time>2019-05-29T08:54:00.000Z</time>
      </trkpt>
      <trkpt lat="43.98775" lon="4.86873">
        <ele>25.66</ele>
        <time>2019-05-29T08:54:05.000Z</time>
      </trkpt>
      <trkpt lat="43.98753" lon="4.86858">
        <ele>25.67</ele>
        <time>2019-05-29T08:54:10.000Z</time>
      </trkpt>
      <trkpt lat="43.98731" lon="4.86841">
        <ele>25.92</ele>
        <time>2019-05-29T08:54:15.000Z</time>
      </trkpt>
      <trkpt lat="43.98709" lon="4.86826">
        <ele>25.66</ele>
        <time>2019-05-29T08:54:20.000Z</time>
      </trkpt>
      <trkpt lat="43.98688" lon="4.8681">
        <ele>25.67</ele>
        <time>2019-05-29T08:54:25.000Z</time>
      </trkpt>
      <trkpt lat="43.98673" lon="4.86799">
        <ele>26.67</ele>
        <time>2019-05-29T08:54:30.000Z</time>
      </trkpt>
      <trkpt lat="43.9868" lon="4.86811">
        <ele>27.67</ele>
        <time>2019-05-29T08:54:43.000Z</time>
      </trkpt>
      <trkpt lat="43.98695" lon="4.86821">
        <ele>29.42</ele>
        <time>2019-05-29T08:54:48.000Z</time>
      </trkpt>
      <trkpt lat="43.9871" lon="4.86832">
        <ele>29.42</ele>
        <time>2019-05-29T08:54:53.000Z</time>
      </trkpt>
      <trkpt lat="43.98714" lon="4.86855">
        <ele>29.67</ele>
        <time>2019-05-29T08:54:58.000Z</time>
      </trkpt>
      <trkpt lat="43.98705" lon="4.8688">
        <ele>31.42</ele>
        <time>2019-05-29T08:55:03.000Z</time>
      </trkpt>
      <trkpt lat="43.98696" lon="4.86904">
        <ele>30.67</ele>
        <time>2019-05-29T08:55:08.000Z</time>
      </trkpt>
      <trkpt lat="43.98688" lon="4.8693">
        <ele>31.67</ele>
        <time>2019-05-29T08:55:13.000Z</time>
      </trkpt>
      <trkpt lat="43.9868" lon="4.86956">
        <ele>33.42</ele>
        <time>2019-05-29T08:55:18.000Z</time>
      </trkpt>
      <trkpt lat="43.9867" lon="4.86985">
        <ele>32.67</ele>
        <time>2019-05-29T08:55:23.000Z</time>
      </trkpt>
      <trkpt lat="43.98661" lon="4.87016">
        <ele>31.67</ele>
        <time>2019-05-29T08:55:28.000Z</time>
      </trkpt>
      <trkpt lat="43.98651" lon="4.87047">
        <ele>31.67</ele>
        <time>2019-05-29T08:55:33.000Z</time>
      </trkpt>
      <trkpt lat="43.98638" lon="4.87079">
        <ele>32.67</ele>
        <time>2019-05-29T08:55:38.000Z</time>
      </trkpt>
      <trkpt lat="43.98624" lon="4.87107">
        <ele>34.42</ele>
        <time>2019-05-29T08:55:43.000Z</time>
      </trkpt>
      <trkpt lat="43.98614" lon="4.87137">
        <ele>32.69</ele>
        <time>2019-05-29T08:55:48.000Z</time>
      </trkpt>
      <trkpt lat="43.98603" lon="4.87166">
        <ele>31.92</ele>
        <time>2019-05-29T08:55:53.000Z</time>
      </trkpt>
      <trkpt lat="43.98592" lon="4.87196">
        <ele>32.67</ele>
        <time>2019-05-29T08:55:58.000Z</time>
      </trkpt>
      <trkpt lat="43.98581" lon="4.87225">
        <ele>31.69</ele>
        <time>2019-05-29T08:56:03.000Z</time>
      </trkpt>
      <trkpt lat="43.9857" lon="4.87255">
        <ele>31.67</ele>
        <time>2019-05-29T08:56:08.000Z</time>
      </trkpt>
      <trkpt lat="43.98558" lon="4.87285">
        <ele>31.67</ele>
        <time>2019-05-29T08:56:13.000Z</time>
      </trkpt>
      <trkpt lat="43.98547" lon="4.87316">
        <ele>31.67</ele>
        <time>2019-05-29T08:56:18.000Z</time>
      </trkpt>
      <trkpt lat="43.98541" lon="4.87335">
        <ele>31.67</ele>
        <time>2019-05-29T08:56:23.000Z</time>
      </trkpt>
      <trkpt lat="43.98532" lon="4.8733">
        <ele>30.92</ele>
        <time>2019-05-29T08:56:29.000Z</time>
      </trkpt>
      <trkpt lat="43.98522" lon="4.87321">
        <ele>31.42</ele>
        <time>2019-05-29T08:56:34.000Z</time>
      </trkpt>
      <trkpt lat="43.98528" lon="4.87331">
        <ele>30.67</ele>
        <time>2019-05-29T08:56:44.000Z</time>
      </trkpt>
      <trkpt lat="43.98543" lon="4.87345">
        <ele>31.66</ele>
        <time>2019-05-29T08:56:49.000Z</time>
      </trkpt>
      <trkpt lat="43.98557" lon="4.87359">
        <ele>30.92</ele>
        <time>2019-05-29T08:56:54.000Z</time>
      </trkpt>
      <trkpt lat="43.98571" lon="4.87373">
        <ele>29.67</ele>
        <time>2019-05-29T08:56:59.000Z</time>
      </trkpt>
      <trkpt lat="43.98581" lon="4.87389">
        <ele>31.42</ele>
        <time>2019-05-29T08:57:04.000Z</time>
      </trkpt>
      <trkpt lat="43.9859" lon="4.87404">
        <ele>31.67</ele>
        <time>2019-05-29T08:57:09.000Z</time>
      </trkpt>
      <trkpt lat="43.98598" lon="4.87419">
        <ele>31.67</ele>
        <time>2019-05-29T08:57:14.000Z</time>
      </trkpt>
      <trkpt lat="43.98606" lon="4.87435">
        <ele>31.69</ele>
        <time>2019-05-29T08:57:19.000Z</time>
      </trkpt>
      <trkpt lat="43.98618" lon="4.87454">
        <ele>31.67</ele>
        <time>2019-05-29T08:57:24.000Z</time>
      </trkpt>
      <trkpt lat="43.98629" lon="4.87474">
        <ele>29.69</ele>
        <time>2019-05-29T08:57:29.000Z</time>
      </trkpt>
      <trkpt lat="43.98624" lon="4.87492">
        <ele>31.67</ele>
        <time>2019-05-29T08:57:34.000Z</time>
      </trkpt>
      <trkpt lat="43.98615" lon="4.87514">
        <ele>32.66</ele>
        <time>2019-05-29T08:57:39.000Z</time>
      </trkpt>
      <trkpt lat="43.986" lon="4.87538">
        <ele>34.41</ele>
        <time>2019-05-29T08:57:44.000Z</time>
      </trkpt>
      <trkpt lat="43.98587" lon="4.87563">
        <ele>34.66</ele>
        <time>2019-05-29T08:57:49.000Z</time>
      </trkpt>
      <trkpt lat="43.98575" lon="4.87591">
        <ele>34.67</ele>
        <time>2019-05-29T08:57:54.000Z</time>
      </trkpt>
      <trkpt lat="43.9856" lon="4.87618">
        <ele>34.67</ele>
        <time>2019-05-29T08:57:59.000Z</time>
      </trkpt>
      <trkpt lat="43.98545" lon="4.87645">
        <ele>34.67</ele>
        <time>2019-05-29T08:58:04.000Z</time>
      </trkpt>
      <trkpt lat="43.98532" lon="4.87675">
        <ele>35.42</ele>
        <time>2019-05-29T08:58:09.000Z</time>
      </trkpt>
      <trkpt lat="43.98517" lon="4.87706">
        <ele>36.42</ele>
        <time>2019-05-29T08:58:14.000Z</time>
      </trkpt>
      <trkpt lat="43.98501" lon="4.87732">
        <ele>36.67</ele>
        <time>2019-05-29T08:58:19.000Z</time>
      </trkpt>
      <trkpt lat="43.98488" lon="4.87756">
        <ele>38.66</ele>
        <time>2019-05-29T08:58:24.000Z</time>
      </trkpt>
      <trkpt lat="43.98477" lon="4.8778">
        <ele>40.64</ele>
        <time>2019-05-29T08:58:29.000Z</time>
      </trkpt>
      <trkpt lat="43.98464" lon="4.87805">
        <ele>41.67</ele>
        <time>2019-05-29T08:58:34.000Z</time>
      </trkpt>
      <trkpt lat="43.98451" lon="4.87832">
        <ele>41.69</ele>
        <time>2019-05-29T08:58:39.000Z</time>
      </trkpt>
      <trkpt lat="43.98439" lon="4.87858">
        <ele>40.66</ele>
        <time>2019-05-29T08:58:44.000Z</time>
      </trkpt>
      <trkpt lat="43.98426" lon="4.87884">
        <ele>41.66</ele>
        <time>2019-05-29T08:58:49.000Z</time>
      </trkpt>
      <trkpt lat="43.98431" lon="4.87912">
        <ele>39.67</ele>
        <time>2019-05-29T08:58:54.000Z</time>
      </trkpt>
      <trkpt lat="43.98436" lon="4.87937">
        <ele>38.67</ele>
        <time>2019-05-29T08:58:59.000Z</time>
      </trkpt>
      <trkpt lat="43.98436" lon="4.8796">
        <ele>36.66</ele>
        <time>2019-05-29T08:59:04.000Z</time>
      </trkpt>
      <trkpt lat="43.98428" lon="4.8797">
        <ele>34.92</ele>
        <time>2019-05-29T08:59:58.000Z</time>
      </trkpt>
      <trkpt lat="43.98414" lon="4.87968">
        <ele>35.66</ele>
        <time>2019-05-29T09:00:03.000Z</time>
      </trkpt>
      <trkpt lat="43.98404" lon="4.87937">
        <ele>35.67</ele>
        <time>2019-05-29T09:00:08.000Z</time>
      </trkpt>
      <trkpt lat="43.98393" lon="4.87907">
        <ele>34.67</ele>
        <time>2019-05-29T09:00:13.000Z</time>
      </trkpt>
      <trkpt lat="43.98382" lon="4.87876">
        <ele>34.67</ele>
        <time>2019-05-29T09:00:18.000Z</time>
      </trkpt>
      <trkpt lat="43.9837" lon="4.87842">
        <ele>34.67</ele>
        <time>2019-05-29T09:00:23.000Z</time>
      </trkpt>
      <trkpt lat="43.98358" lon="4.87806">
        <ele>34.67</ele>
        <time>2019-05-29T09:00:28.000Z</time>
      </trkpt>
      <trkpt lat="43.98347" lon="4.8777">
        <ele>32.47</ele>
        <time>2019-05-29T09:00:33.000Z</time>
      </trkpt>
      <trkpt lat="43.98347" lon="4.87733">
        <ele>33.66</ele>
        <time>2019-05-29T09:00:38.000Z</time>
      </trkpt>
      <trkpt lat="43.98328" lon="4.87707">
        <ele>32.47</ele>
        <time>2019-05-29T09:00:43.000Z</time>
      </trkpt>
      <trkpt lat="43.98303" lon="4.87725">
        <ele>34.42</ele>
        <time>2019-05-29T09:00:48.000Z</time>
      </trkpt>
      <trkpt lat="43.9828" lon="4.87756">
        <ele>32.47</ele>
        <time>2019-05-29T09:00:53.000Z</time>
      </trkpt>
      <trkpt lat="43.98249" lon="4.87778">
        <ele>33.67</ele>
        <time>2019-05-29T09:00:58.000Z</time>
      </trkpt>
      <trkpt lat="43.98219" lon="4.878">
        <ele>33.67</ele>
        <time>2019-05-29T09:01:03.000Z</time>
      </trkpt>
      <trkpt lat="43.98189" lon="4.87821">
        <ele>34.67</ele>
        <time>2019-05-29T09:01:08.000Z</time>
      </trkpt>
      <trkpt lat="43.98159" lon="4.87825">
        <ele>33.69</ele>
        <time>2019-05-29T09:01:13.000Z</time>
      </trkpt>
      <trkpt lat="43.98136" lon="4.87804">
        <ele>32.93</ele>
        <time>2019-05-29T09:01:18.000Z</time>
      </trkpt>
      <trkpt lat="43.98114" lon="4.8778">
        <ele>32.43</ele>
        <time>2019-05-29T09:01:23.000Z</time>
      </trkpt>
      <trkpt lat="43.9809" lon="4.87807">
        <ele>33.44</ele>
        <time>2019-05-29T09:01:28.000Z</time>
      </trkpt>
      <trkpt lat="43.98062" lon="4.87827">
        <ele>32.91</ele>
        <time>2019-05-29T09:01:33.000Z</time>
      </trkpt>
      <trkpt lat="43.98052" lon="4.87833">
        <ele>34.67</ele>
        <time>2019-05-29T09:01:39.000Z</time>
      </trkpt>
      <trkpt lat="43.98038" lon="4.87843">
        <ele>35.68</ele>
        <time>2019-05-29T09:01:44.000Z</time>
      </trkpt>
      <trkpt lat="43.98017" lon="4.87858">
        <ele>36.43</ele>
        <time>2019-05-29T09:01:49.000Z</time>
      </trkpt>
      <trkpt lat="43.97993" lon="4.87872">
        <ele>36.68</ele>
        <time>2019-05-29T09:01:54.000Z</time>
      </trkpt>
      <trkpt lat="43.97966" lon="4.87873">
        <ele>34.66</ele>
        <time>2019-05-29T09:01:59.000Z</time>
      </trkpt>
      <trkpt lat="43.9795" lon="4.87899">
        <ele>34.93</ele>
        <time>2019-05-29T09:02:04.000Z</time>
      </trkpt>
      <trkpt lat="43.97968" lon="4.87927">
        <ele>34.41</ele>
        <time>2019-05-29T09:02:09.000Z</time>
      </trkpt>
      <trkpt lat="43.97982" lon="4.87962">
        <ele>34.68</ele>
        <time>2019-05-29T09:02:14.000Z</time>
      </trkpt>
      <trkpt lat="43.97997" lon="4.87994">
        <ele>34.41</ele>
        <time>2019-05-29T09:02:19.000Z</time>
      </trkpt>
      <trkpt lat="43.98014" lon="4.88024">
        <ele>33.66</ele>
        <time>2019-05-29T09:02:24.000Z</time>
      </trkpt>
      <trkpt lat="43.98029" lon="4.88052">
        <ele>33.68</ele>
        <time>2019-05-29T09:02:29.000Z</time>
      </trkpt>
      <trkpt lat="43.98046" lon="4.88082">
        <ele>33.43</ele>
        <time>2019-05-29T09:02:34.000Z</time>
      </trkpt>
      <trkpt lat="43.98064" lon="4.88111">
        <ele>34.67</ele>
        <time>2019-05-29T09:02:39.000Z</time>
      </trkpt>
      <trkpt lat="43.98081" lon="4.88142">
        <ele>33.66</ele>
        <time>2019-05-29T09:02:44.000Z</time>
      </trkpt>
      <trkpt lat="43.98096" lon="4.8817">
        <ele>34.67</ele>
        <time>2019-05-29T09:02:49.000Z</time>
      </trkpt>
      <trkpt lat="43.98113" lon="4.882">
        <ele>34.41</ele>
        <time>2019-05-29T09:02:54.000Z</time>
      </trkpt>
      <trkpt lat="43.98127" lon="4.88227">
        <ele>35.67</ele>
        <time>2019-05-29T09:02:59.000Z</time>
      </trkpt>
      <trkpt lat="43.98138" lon="4.8825">
        <ele>36.42</ele>
        <time>2019-05-29T09:03:04.000Z</time>
      </trkpt>
      <trkpt lat="43.98148" lon="4.88274">
        <ele>34.41</ele>
        <time>2019-05-29T09:03:09.000Z</time>
      </trkpt>
      <trkpt lat="43.98153" lon="4.88289">
        <ele>33.69</ele>
        <time>2019-05-29T09:03:44.000Z</time>
      </trkpt>
      <trkpt lat="43.98164" lon="4.8831">
        <ele>33.92</ele>
        <time>2019-05-29T09:03:49.000Z</time>
      </trkpt>
      <trkpt lat="43.98178" lon="4.88341">
        <ele>32.41</ele>
        <time>2019-05-29T09:03:54.000Z</time>
      </trkpt>
      <trkpt lat="43.98187" lon="4.88376">
        <ele>35.41</ele>
        <time>2019-05-29T09:03:59.000Z</time>
      </trkpt>
      <trkpt lat="43.98199" lon="4.88401">
        <ele>36.16</ele>
        <time>2019-05-29T09:04:04.000Z</time>
      </trkpt>
      <trkpt lat="43.98219" lon="4.88397">
        <ele>35.67</ele>
        <time>2019-05-29T09:04:09.000Z</time>
      </trkpt>
      <trkpt lat="43.98236" lon="4.88388">
        <ele>35.67</ele>
        <time>2019-05-29T09:04:14.000Z</time>
      </trkpt>
      <trkpt lat="43.98255" lon="4.88378">
        <ele>34.67</ele>
        <time>2019-05-29T09:04:19.000Z</time>
      </trkpt>
      <trkpt lat="43.98276" lon="4.88378">
        <ele>35.44</ele>
        <time>2019-05-29T09:04:24.000Z</time>
      </trkpt>
      <trkpt lat="43.98283" lon="4.88405">
        <ele>33.7</ele>
        <time>2019-05-29T09:04:29.000Z</time>
      </trkpt>
      <trkpt lat="43.98284" lon="4.8843">
        <ele>36.42</ele>
        <time>2019-05-29T09:04:34.000Z</time>
      </trkpt>
      <trkpt lat="43.98278" lon="4.88451">
        <ele>36.47</ele>
        <time>2019-05-29T09:04:39.000Z</time>
      </trkpt>
      <trkpt lat="43.98261" lon="4.88466">
        <ele>39.67</ele>
        <time>2019-05-29T09:04:44.000Z</time>
      </trkpt>
      <trkpt lat="43.98244" lon="4.88476">
        <ele>38.47</ele>
        <time>2019-05-29T09:04:49.000Z</time>
      </trkpt>
      <trkpt lat="43.98227" lon="4.88484">
        <ele>41.66</ele>
        <time>2019-05-29T09:04:54.000Z</time>
      </trkpt>
      <trkpt lat="43.98211" lon="4.88492">
        <ele>40.02</ele>
        <time>2019-05-29T09:04:59.000Z</time>
      </trkpt>
      <trkpt lat="43.98195" lon="4.885">
        <ele>44.66</ele>
        <time>2019-05-29T09:05:04.000Z</time>
      </trkpt>
      <trkpt lat="43.98178" lon="4.88509">
        <ele>44.67</ele>
        <time>2019-05-29T09:05:09.000Z</time>
      </trkpt>
      <trkpt lat="43.98156" lon="4.8852">
        <ele>44.67</ele>
        <time>2019-05-29T09:05:14.000Z</time>
      </trkpt>
      <trkpt lat="43.98127" lon="4.88534">
        <ele>43.67</ele>
        <time>2019-05-29T09:05:19.000Z</time>
      </trkpt>
      <trkpt lat="43.9809" lon="4.88554">
        <ele>40.69</ele>
        <time>2019-05-29T09:05:24.000Z</time>
      </trkpt>
      <trkpt lat="43.98044" lon="4.8858">
        <ele>37.69</ele>
        <time>2019-05-29T09:05:29.000Z</time>
      </trkpt>
      <trkpt lat="43.98014" lon="4.88617">
        <ele>35.67</ele>
        <time>2019-05-29T09:05:34.000Z</time>
      </trkpt>
      <trkpt lat="43.98007" lon="4.88662">
        <ele>33.92</ele>
        <time>2019-05-29T09:05:39.000Z</time>
      </trkpt>
      <trkpt lat="43.97992" lon="4.8868">
        <ele>35.94</ele>
        <time>2019-05-29T09:05:44.000Z</time>
      </trkpt>
      <trkpt lat="43.97983" lon="4.88688">
        <ele>37.67</ele>
        <time>2019-05-29T09:06:08.000Z</time>
      </trkpt>
      <trkpt lat="43.97964" lon="4.88697">
        <ele>36.68</ele>
        <time>2019-05-29T09:06:13.000Z</time>
      </trkpt>
      <trkpt lat="43.97938" lon="4.88699">
        <ele>34.69</ele>
        <time>2019-05-29T09:06:18.000Z</time>
      </trkpt>
      <trkpt lat="43.97908" lon="4.887">
        <ele>36.66</ele>
        <time>2019-05-29T09:06:23.000Z</time>
      </trkpt>
      <trkpt lat="43.97876" lon="4.88701">
        <ele>38.66</ele>
        <time>2019-05-29T09:06:28.000Z</time>
      </trkpt>
      <trkpt lat="43.97845" lon="4.887">
        <ele>36.93</ele>
        <time>2019-05-29T09:06:33.000Z</time>
      </trkpt>
      <trkpt lat="43.9781" lon="4.88697">
        <ele>34.69</ele>
        <time>2019-05-29T09:06:38.000Z</time>
      </trkpt>
      <trkpt lat="43.97781" lon="4.88679">
        <ele>34.68</ele>
        <time>2019-05-29T09:06:43.000Z</time>
      </trkpt>
      <trkpt lat="43.97754" lon="4.88661">
        <ele>33.69</ele>
        <time>2019-05-29T09:06:48.000Z</time>
      </trkpt>
      <trkpt lat="43.97727" lon="4.88687">
        <ele>33.66</ele>
        <time>2019-05-29T09:06:53.000Z</time>
      </trkpt>
      <trkpt lat="43.97708" lon="4.8872">
        <ele>33.68</ele>
        <time>2019-05-29T09:06:58.000Z</time>
      </trkpt>
      <trkpt lat="43.97677" lon="4.88746">
        <ele>32.69</ele>
        <time>2019-05-29T09:07:03.000Z</time>
      </trkpt>
      <trkpt lat="43.97646" lon="4.8877">
        <ele>32.68</ele>
        <time>2019-05-29T09:07:08.000Z</time>
      </trkpt>
      <trkpt lat="43.9762" lon="4.88791">
        <ele>31.69</ele>
        <time>2019-05-29T09:07:13.000Z</time>
      </trkpt>
      <trkpt lat="43.97591" lon="4.88812">
        <ele>31.93</ele>
        <time>2019-05-29T09:07:18.000Z</time>
      </trkpt>
      <trkpt lat="43.97563" lon="4.88835">
        <ele>30.69</ele>
        <time>2019-05-29T09:07:23.000Z</time>
      </trkpt>
      <trkpt lat="43.97532" lon="4.88858">
        <ele>30.44</ele>
        <time>2019-05-29T09:07:28.000Z</time>
      </trkpt>
      <trkpt lat="43.97499" lon="4.88872">
        <ele>29.93</ele>
        <time>2019-05-29T09:07:33.000Z</time>
      </trkpt>
      <trkpt lat="43.97464" lon="4.88876">
        <ele>28.68</ele>
        <time>2019-05-29T09:07:38.000Z</time>
      </trkpt>
      <trkpt lat="43.97426" lon="4.88871">
        <ele>29.69</ele>
        <time>2019-05-29T09:07:43.000Z</time>
      </trkpt>
      <trkpt lat="43.97389" lon="4.88859">
        <ele>29.68</ele>
        <time>2019-05-29T09:07:48.000Z</time>
      </trkpt>
      <trkpt lat="43.97353" lon="4.88847">
        <ele>28.68</ele>
        <time>2019-05-29T09:07:53.000Z</time>
      </trkpt>
      <trkpt lat="43.97315" lon="4.88836">
        <ele>30.43</ele>
        <time>2019-05-29T09:07:58.000Z</time>
      </trkpt>
      <trkpt lat="43.97277" lon="4.88824">
        <ele>32.68</ele>
        <time>2019-05-29T09:08:03.000Z</time>
      </trkpt>
      <trkpt lat="43.97238" lon="4.88809">
        <ele>32.68</ele>
        <time>2019-05-29T09:08:08.000Z</time>
      </trkpt>
      <trkpt lat="43.97199" lon="4.88801">
        <ele>32.91</ele>
        <time>2019-05-29T09:08:13.000Z</time>
      </trkpt>
      <trkpt lat="43.97164" lon="4.88808">
        <ele>32.67</ele>
        <time>2019-05-29T09:08:18.000Z</time>
      </trkpt>
      <trkpt lat="43.97147" lon="4.88818">
        <ele>32.68</ele>
        <time>2019-05-29T09:08:23.000Z</time>
      </trkpt>
      <trkpt lat="43.97136" lon="4.88824">
        <ele>30.7</ele>
        <time>2019-05-29T09:08:28.000Z</time>
      </trkpt>
      <trkpt lat="43.97118" lon="4.88832">
        <ele>31.68</ele>
        <time>2019-05-29T09:08:33.000Z</time>
      </trkpt>
      <trkpt lat="43.97101" lon="4.8882">
        <ele>32.68</ele>
        <time>2019-05-29T09:08:38.000Z</time>
      </trkpt>
      <trkpt lat="43.9709" lon="4.88788">
        <ele>32.68</ele>
        <time>2019-05-29T09:08:43.000Z</time>
      </trkpt>
      <trkpt lat="43.97084" lon="4.88777">
        <ele>32.68</ele>
        <time>2019-05-29T09:09:04.000Z</time>
      </trkpt>
      <trkpt lat="43.97073" lon="4.88754">
        <ele>31.68</ele>
        <time>2019-05-29T09:09:09.000Z</time>
      </trkpt>
      <trkpt lat="43.97055" lon="4.88722">
        <ele>31.68</ele>
        <time>2019-05-29T09:09:14.000Z</time>
      </trkpt>
      <trkpt lat="43.97036" lon="4.88688">
        <ele>30.68</ele>
        <time>2019-05-29T09:09:19.000Z</time>
      </trkpt>
      <trkpt lat="43.97018" lon="4.88649">
        <ele>29.7</ele>
        <time>2019-05-29T09:09:24.000Z</time>
      </trkpt>
      <trkpt lat="43.96997" lon="4.88611">
        <ele>30.68</ele>
        <time>2019-05-29T09:09:29.000Z</time>
      </trkpt>
      <trkpt lat="43.96976" lon="4.88573">
        <ele>30.68</ele>
        <time>2019-05-29T09:09:34.000Z</time>
      </trkpt>
      <trkpt lat="43.96957" lon="4.88535">
        <ele>30.68</ele>
        <time>2019-05-29T09:09:39.000Z</time>
      </trkpt>
      <trkpt lat="43.9694" lon="4.885">
        <ele>31.43</ele>
        <time>2019-05-29T09:09:44.000Z</time>
      </trkpt>
      <trkpt lat="43.96927" lon="4.88462">
        <ele>31.43</ele>
        <time>2019-05-29T09:09:49.000Z</time>
      </trkpt>
      <trkpt lat="43.9692" lon="4.88441">
        <ele>32.68</ele>
        <time>2019-05-29T09:09:54.000Z</time>
      </trkpt>
      <trkpt lat="43.96915" lon="4.88428">
        <ele>29.69</ele>
        <time>2019-05-29T09:10:09.000Z</time>
      </trkpt>
      <trkpt lat="43.96905" lon="4.88402">
        <ele>30.67</ele>
        <time>2019-05-29T09:10:14.000Z</time>
      </trkpt>
      <trkpt lat="43.96894" lon="4.88371">
        <ele>31.68</ele>
        <time>2019-05-29T09:10:19.000Z</time>
      </trkpt>
      <trkpt lat="43.96882" lon="4.88337">
        <ele>32.67</ele>
        <time>2019-05-29T09:10:24.000Z</time>
      </trkpt>
      <trkpt lat="43.96869" lon="4.883">
        <ele>31.93</ele>
        <time>2019-05-29T09:10:29.000Z</time>
      </trkpt>
      <trkpt lat="43.96855" lon="4.88265">
        <ele>32.68</ele>
        <time>2019-05-29T09:10:34.000Z</time>
      </trkpt>
      <trkpt lat="43.96838" lon="4.88229">
        <ele>32.45</ele>
        <time>2019-05-29T09:10:39.000Z</time>
      </trkpt>
      <trkpt lat="43.96815" lon="4.88219">
        <ele>30.72</ele>
        <time>2019-05-29T09:10:44.000Z</time>
      </trkpt>
      <trkpt lat="43.96782" lon="4.88231">
        <ele>30.45</ele>
        <time>2019-05-29T09:10:49.000Z</time>
      </trkpt>
      <trkpt lat="43.96747" lon="4.88233">
        <ele>30.67</ele>
        <time>2019-05-29T09:10:54.000Z</time>
      </trkpt>
      <trkpt lat="43.9671" lon="4.88238">
        <ele>31.69</ele>
        <time>2019-05-29T09:10:59.000Z</time>
      </trkpt>
      <trkpt lat="43.96672" lon="4.88243">
        <ele>29.94</ele>
        <time>2019-05-29T09:11:04.000Z</time>
      </trkpt>
      <trkpt lat="43.96635" lon="4.88246">
        <ele>32.67</ele>
        <time>2019-05-29T09:11:09.000Z</time>
      </trkpt>
      <trkpt lat="43.96598" lon="4.88249">
        <ele>32.69</ele>
        <time>2019-05-29T09:11:14.000Z</time>
      </trkpt>
      <trkpt lat="43.96561" lon="4.88254">
        <ele>30.69</ele>
        <time>2019-05-29T09:11:19.000Z</time>
      </trkpt>
      <trkpt lat="43.96547" lon="4.8825">
        <ele>30.69</ele>
        <time>2019-05-29T09:11:24.000Z</time>
      </trkpt>
      <trkpt lat="43.9654" lon="4.88241">
        <ele>31.94</ele>
        <time>2019-05-29T09:11:47.000Z</time>
      </trkpt>
      <trkpt lat="43.96538" lon="4.8822">
        <ele>30.7</ele>
        <time>2019-05-29T09:11:52.000Z</time>
      </trkpt>
      <trkpt lat="43.96537" lon="4.88191">
        <ele>30.69</ele>
        <time>2019-05-29T09:11:57.000Z</time>
      </trkpt>
      <trkpt lat="43.96536" lon="4.88159">
        <ele>30.69</ele>
        <time>2019-05-29T09:12:02.000Z</time>
      </trkpt>
      <trkpt lat="43.96534" lon="4.88127">
        <ele>30.69</ele>
        <time>2019-05-29T09:12:07.000Z</time>
      </trkpt>
      <trkpt lat="43.96532" lon="4.88094">
        <ele>30.44</ele>
        <time>2019-05-29T09:12:12.000Z</time>
      </trkpt>
      <trkpt lat="43.96529" lon="4.88062">
        <ele>31.44</ele>
        <time>2019-05-29T09:12:17.000Z</time>
      </trkpt>
      <trkpt lat="43.96528" lon="4.88029">
        <ele>31.69</ele>
        <time>2019-05-29T09:12:22.000Z</time>
      </trkpt>
      <trkpt lat="43.96524" lon="4.87996">
        <ele>31.69</ele>
        <time>2019-05-29T09:12:27.000Z</time>
      </trkpt>
      <trkpt lat="43.965" lon="4.87993">
        <ele>30.69</ele>
        <time>2019-05-29T09:12:32.000Z</time>
      </trkpt>
      <trkpt lat="43.96475" lon="4.87998">
        <ele>31.44</ele>
        <time>2019-05-29T09:12:37.000Z</time>
      </trkpt>
      <trkpt lat="43.96448" lon="4.87999">
        <ele>31.69</ele>
        <time>2019-05-29T09:12:42.000Z</time>
      </trkpt>
      <trkpt lat="43.96422" lon="4.88001">
        <ele>33.44</ele>
        <time>2019-05-29T09:12:47.000Z</time>
      </trkpt>
      <trkpt lat="43.96398" lon="4.88004">
        <ele>31.96</ele>
        <time>2019-05-29T09:12:52.000Z</time>
      </trkpt>
      <trkpt lat="43.96374" lon="4.88007">
        <ele>33.67</ele>
        <time>2019-05-29T09:12:57.000Z</time>
      </trkpt>
      <trkpt lat="43.96348" lon="4.8801">
        <ele>33.69</ele>
        <time>2019-05-29T09:13:02.000Z</time>
      </trkpt>
      <trkpt lat="43.9632" lon="4.88011">
        <ele>32.92</ele>
        <time>2019-05-29T09:13:07.000Z</time>
      </trkpt>
      <trkpt lat="43.96289" lon="4.88014">
        <ele>33.69</ele>
        <time>2019-05-29T09:13:12.000Z</time>
      </trkpt>
      <trkpt lat="43.96258" lon="4.88018">
        <ele>33.43</ele>
        <time>2019-05-29T09:13:17.000Z</time>
      </trkpt>
      <trkpt lat="43.96227" lon="4.88022">
        <ele>34.68</ele>
        <time>2019-05-29T09:13:22.000Z</time>
      </trkpt>
      <trkpt lat="43.96195" lon="4.88024">
        <ele>33.69</ele>
        <time>2019-05-29T09:13:27.000Z</time>
      </trkpt>
      <trkpt lat="43.96166" lon="4.88025">
        <ele>32.19</ele>
        <time>2019-05-29T09:13:32.000Z</time>
      </trkpt>
      <trkpt lat="43.96145" lon="4.88027">
        <ele>33.69</ele>
        <time>2019-05-29T09:13:37.000Z</time>
      </trkpt>
      <trkpt lat="43.96143" lon="4.88011">
        <ele>32.69</ele>
        <time>2019-05-29T09:13:44.000Z</time>
      </trkpt>
      <trkpt lat="43.96141" lon="4.87981">
        <ele>33.68</ele>
        <time>2019-05-29T09:13:49.000Z</time>
      </trkpt>
      <trkpt lat="43.96144" lon="4.8795">
        <ele>31.68</ele>
        <time>2019-05-29T09:13:54.000Z</time>
      </trkpt>
      <trkpt lat="43.96163" lon="4.87946">
        <ele>32.46</ele>
        <time>2019-05-29T09:13:59.000Z</time>
      </trkpt>
      <trkpt lat="43.96175" lon="4.87927">
        <ele>31.44</ele>
        <time>2019-05-29T09:14:04.000Z</time>
      </trkpt>
      <trkpt lat="43.96173" lon="4.87892">
        <ele>29.71</ele>
        <time>2019-05-29T09:14:09.000Z</time>
      </trkpt>
      <trkpt lat="43.96172" lon="4.87854">
        <ele>29.69</ele>
        <time>2019-05-29T09:14:14.000Z</time>
      </trkpt>
      <trkpt lat="43.9617" lon="4.87817">
        <ele>30.46</ele>
        <time>2019-05-29T09:14:19.000Z</time>
      </trkpt>
      <trkpt lat="43.96168" lon="4.87778">
        <ele>28.93</ele>
        <time>2019-05-29T09:14:24.000Z</time>
      </trkpt>
      <trkpt lat="43.96166" lon="4.87739">
        <ele>30.18</ele>
        <time>2019-05-29T09:14:29.000Z</time>
      </trkpt>
      <trkpt lat="43.96164" lon="4.877">
        <ele>28.68</ele>
        <time>2019-05-29T09:14:34.000Z</time>
      </trkpt>
      <trkpt lat="43.9616" lon="4.87662">
        <ele>30.44</ele>
        <time>2019-05-29T09:14:39.000Z</time>
      </trkpt>
      <trkpt lat="43.96159" lon="4.87622">
        <ele>28.69</ele>
        <time>2019-05-29T09:14:44.000Z</time>
      </trkpt>
      <trkpt lat="43.96158" lon="4.87585">
        <ele>29.71</ele>
        <time>2019-05-29T09:14:49.000Z</time>
      </trkpt>
      <trkpt lat="43.96164" lon="4.87548">
        <ele>27.69</ele>
        <time>2019-05-29T09:14:54.000Z</time>
      </trkpt>
      <trkpt lat="43.96175" lon="4.87517">
        <ele>28.68</ele>
        <time>2019-05-29T09:14:59.000Z</time>
      </trkpt>
      <trkpt lat="43.96188" lon="4.87504">
        <ele>29.71</ele>
        <time>2019-05-29T09:15:04.000Z</time>
      </trkpt>
      <trkpt lat="43.96198" lon="4.87485">
        <ele>30.71</ele>
        <time>2019-05-29T09:15:09.000Z</time>
      </trkpt>
      <trkpt lat="43.96208" lon="4.87458">
        <ele>30.68</ele>
        <time>2019-05-29T09:15:14.000Z</time>
      </trkpt>
      <trkpt lat="43.96217" lon="4.87432">
        <ele>31.44</ele>
        <time>2019-05-29T09:15:19.000Z</time>
      </trkpt>
      <trkpt lat="43.96226" lon="4.87401">
        <ele>30.71</ele>
        <time>2019-05-29T09:15:24.000Z</time>
      </trkpt>
      <trkpt lat="43.96238" lon="4.87375">
        <ele>29.69</ele>
        <time>2019-05-29T09:15:29.000Z</time>
      </trkpt>
      <trkpt lat="43.96247" lon="4.87348">
        <ele>28.69</ele>
        <time>2019-05-29T09:15:34.000Z</time>
      </trkpt>
      <trkpt lat="43.96256" lon="4.87321">
        <ele>28.69</ele>
        <time>2019-05-29T09:15:39.000Z</time>
      </trkpt>
      <trkpt lat="43.96264" lon="4.87302">
        <ele>28.69</ele>
        <time>2019-05-29T09:15:44.000Z</time>
      </trkpt>
      <trkpt lat="43.96271" lon="4.87294">
        <ele>29.69</ele>
        <time>2019-05-29T09:16:01.000Z</time>
      </trkpt>
      <trkpt lat="43.96272" lon="4.87273">
        <ele>29.44</ele>
        <time>2019-05-29T09:16:06.000Z</time>
      </trkpt>
      <trkpt lat="43.96273" lon="4.87252">
        <ele>27.94</ele>
        <time>2019-05-29T09:16:11.000Z</time>
      </trkpt>
      <trkpt lat="43.96281" lon="4.87234">
        <ele>27.68</ele>
        <time>2019-05-29T09:16:16.000Z</time>
      </trkpt>
      <trkpt lat="43.96291" lon="4.87202">
        <ele>28.68</ele>
        <time>2019-05-29T09:16:21.000Z</time>
      </trkpt>
      <trkpt lat="43.963" lon="4.87173">
        <ele>30.69</ele>
        <time>2019-05-29T09:16:26.000Z</time>
      </trkpt>
      <trkpt lat="43.96317" lon="4.87167">
        <ele>32.68</ele>
        <time>2019-05-29T09:16:31.000Z</time>
      </trkpt>
      <trkpt lat="43.96332" lon="4.87165">
        <ele>33.44</ele>
        <time>2019-05-29T09:16:36.000Z</time>
      </trkpt>
      <trkpt lat="43.96346" lon="4.87159">
        <ele>34.68</ele>
        <time>2019-05-29T09:16:41.000Z</time>
      </trkpt>
      <trkpt lat="43.96356" lon="4.8715">
        <ele>33.69</ele>
        <time>2019-05-29T09:16:46.000Z</time>
      </trkpt>
      <trkpt lat="43.9636" lon="4.87131">
        <ele>32.71</ele>
        <time>2019-05-29T09:16:51.000Z</time>
      </trkpt>
      <trkpt lat="43.96347" lon="4.87104">
        <ele>31.93</ele>
        <time>2019-05-29T09:16:56.000Z</time>
      </trkpt>
      <trkpt lat="43.96336" lon="4.87075">
        <ele>31.69</ele>
        <time>2019-05-29T09:17:01.000Z</time>
      </trkpt>
      <trkpt lat="43.96329" lon="4.87037">
        <ele>29.69</ele>
        <time>2019-05-29T09:17:06.000Z</time>
      </trkpt>
      <trkpt lat="43.96322" lon="4.86997">
        <ele>27.94</ele>
        <time>2019-05-29T09:17:11.000Z</time>
      </trkpt>
      <trkpt lat="43.96315" lon="4.86957">
        <ele>28.69</ele>
        <time>2019-05-29T09:17:16.000Z</time>
      </trkpt>
      <trkpt lat="43.96308" lon="4.86917">
        <ele>27.69</ele>
        <time>2019-05-29T09:17:21.000Z</time>
      </trkpt>
      <trkpt lat="43.96301" lon="4.86877">
        <ele>27.69</ele>
        <time>2019-05-29T09:17:26.000Z</time>
      </trkpt>
      <trkpt lat="43.96295" lon="4.86837">
        <ele>28.71</ele>
        <time>2019-05-29T09:17:31.000Z</time>
      </trkpt>
      <trkpt lat="43.96289" lon="4.86799">
        <ele>26.96</ele>
        <time>2019-05-29T09:17:36.000Z</time>
      </trkpt>
      <trkpt lat="43.96285" lon="4.86764">
        <ele>25.71</ele>
        <time>2019-05-29T09:17:41.000Z</time>
      </trkpt>
      <trkpt lat="43.96283" lon="4.86727">
        <ele>25.69</ele>
        <time>2019-05-29T09:17:46.000Z</time>
      </trkpt>
      <trkpt lat="43.96281" lon="4.86689">
        <ele>27.68</ele>
        <time>2019-05-29T09:17:51.000Z</time>
      </trkpt>
      <trkpt lat="43.9628" lon="4.86653">
        <ele>26.69</ele>
        <time>2019-05-29T09:17:56.000Z</time>
      </trkpt>
      <trkpt lat="43.96278" lon="4.86615">
        <ele>27.45</ele>
        <time>2019-05-29T09:18:01.000Z</time>
      </trkpt>
      <trkpt lat="43.96277" lon="4.86577">
        <ele>26.71</ele>
        <time>2019-05-29T09:18:06.000Z</time>
      </trkpt>
      <trkpt lat="43.96275" lon="4.86539">
        <ele>26.69</ele>
        <time>2019-05-29T09:18:11.000Z</time>
      </trkpt>
      <trkpt lat="43.96273" lon="4.865">
        <ele>26.69</ele>
        <time>2019-05-29T09:18:16.000Z</time>
      </trkpt>
      <trkpt lat="43.96272" lon="4.86461">
        <ele>26.69</ele>
        <time>2019-05-29T09:18:21.000Z</time>
      </trkpt>
      <trkpt lat="43.96268" lon="4.86419">
        <ele>25.7</ele>
        <time>2019-05-29T09:18:26.000Z</time>
      </trkpt>
      <trkpt lat="43.96263" lon="4.86376">
        <ele>26.69</ele>
        <time>2019-05-29T09:18:31.000Z</time>
      </trkpt>
      <trkpt lat="43.96259" lon="4.86337">
        <ele>26.7</ele>
        <time>2019-05-29T09:18:36.000Z</time>
      </trkpt>
      <trkpt lat="43.96254" lon="4.86302">
        <ele>26.94</ele>
        <time>2019-05-29T09:18:41.000Z</time>
      </trkpt>
      <trkpt lat="43.96251" lon="4.86272">
        <ele>26.7</ele>
        <time>2019-05-29T09:18:46.000Z</time>
      </trkpt>
      <trkpt lat="43.96249" lon="4.86258">
        <ele>25.45</ele>
        <time>2019-05-29T09:19:04.000Z</time>
      </trkpt>
      <trkpt lat="43.96246" lon="4.86236">
        <ele>25.71</ele>
        <time>2019-05-29T09:19:09.000Z</time>
      </trkpt>
      <trkpt lat="43.96241" lon="4.86209">
        <ele>26.46</ele>
        <time>2019-05-29T09:19:14.000Z</time>
      </trkpt>
      <trkpt lat="43.96232" lon="4.86178">
        <ele>25.93</ele>
        <time>2019-05-29T09:19:19.000Z</time>
      </trkpt>
      <trkpt lat="43.96224" lon="4.86148">
        <ele>25.68</ele>
        <time>2019-05-29T09:19:24.000Z</time>
      </trkpt>
      <trkpt lat="43.96215" lon="4.86115">
        <ele>25.91</ele>
        <time>2019-05-29T09:19:29.000Z</time>
      </trkpt>
      <trkpt lat="43.96201" lon="4.86082">
        <ele>25.68</ele>
        <time>2019-05-29T09:19:34.000Z</time>
      </trkpt>
      <trkpt lat="43.96191" lon="4.86052">
        <ele>25.7</ele>
        <time>2019-05-29T09:19:39.000Z</time>
      </trkpt>
      <trkpt lat="43.96184" lon="4.86024">
        <ele>25.7</ele>
        <time>2019-05-29T09:19:44.000Z</time>
      </trkpt>
      <trkpt lat="43.96176" lon="4.86003">
        <ele>25.7</ele>
        <time>2019-05-29T09:19:49.000Z</time>
      </trkpt>
      <trkpt lat="43.96184" lon="4.85994">
        <ele>28.68</ele>
        <time>2019-05-29T09:19:54.000Z</time>
      </trkpt>
      <trkpt lat="43.96174" lon="4.85995">
        <ele>30.68</ele>
        <time>2019-05-29T09:20:20.000Z</time>
      </trkpt>
      <trkpt lat="43.96163" lon="4.86001">
        <ele>28.68</ele>
        <time>2019-05-29T09:20:26.000Z</time>
      </trkpt>
      <trkpt lat="43.96144" lon="4.86014">
        <ele>30.7</ele>
        <time>2019-05-29T09:20:31.000Z</time>
      </trkpt>
      <trkpt lat="43.96123" lon="4.86021">
        <ele>29.7</ele>
        <time>2019-05-29T09:20:36.000Z</time>
      </trkpt>
      <trkpt lat="43.96098" lon="4.86027">
        <ele>29.7</ele>
        <time>2019-05-29T09:20:41.000Z</time>
      </trkpt>
      <trkpt lat="43.96076" lon="4.86044">
        <ele>28.45</ele>
        <time>2019-05-29T09:20:46.000Z</time>
      </trkpt>
      <trkpt lat="43.96059" lon="4.8607">
        <ele>28.7</ele>
        <time>2019-05-29T09:20:51.000Z</time>
      </trkpt>
      <trkpt lat="43.96051" lon="4.861">
        <ele>26.7</ele>
        <time>2019-05-29T09:20:56.000Z</time>
      </trkpt>
      <trkpt lat="43.96042" lon="4.86102">
        <ele>25.45</ele>
        <time>2019-05-29T09:21:11.000Z</time>
      </trkpt>
      <trkpt lat="43.96037" lon="4.86114">
        <ele>24.95</ele>
        <time>2019-05-29T09:21:24.000Z</time>
      </trkpt>
      <trkpt lat="43.96018" lon="4.86122">
        <ele>24.95</ele>
        <time>2019-05-29T09:21:29.000Z</time>
      </trkpt>
      <trkpt lat="43.95991" lon="4.8613">
        <ele>24.68</ele>
        <time>2019-05-29T09:21:34.000Z</time>
      </trkpt>
      <trkpt lat="43.95967" lon="4.86141">
        <ele>24.45</ele>
        <time>2019-05-29T09:21:39.000Z</time>
      </trkpt>
      <trkpt lat="43.95943" lon="4.86151">
        <ele>24.7</ele>
        <time>2019-05-29T09:21:44.000Z</time>
      </trkpt>
      <trkpt lat="43.95918" lon="4.86147">
        <ele>24.7</ele>
        <time>2019-05-29T09:21:49.000Z</time>
      </trkpt>
      <trkpt lat="43.95912" lon="4.86112">
        <ele>22.93</ele>
        <time>2019-05-29T09:21:54.000Z</time>
      </trkpt>
      <trkpt lat="43.95905" lon="4.86076">
        <ele>21.7</ele>
        <time>2019-05-29T09:21:59.000Z</time>
      </trkpt>
      <trkpt lat="43.95886" lon="4.86054">
        <ele>22.7</ele>
        <time>2019-05-29T09:22:04.000Z</time>
      </trkpt>
      <trkpt lat="43.95857" lon="4.8606">
        <ele>23.68</ele>
        <time>2019-05-29T09:22:09.000Z</time>
      </trkpt>
      <trkpt lat="43.95827" lon="4.86064">
        <ele>26.43</ele>
        <time>2019-05-29T09:22:14.000Z</time>
      </trkpt>
      <trkpt lat="43.958" lon="4.86047">
        <ele>27.7</ele>
        <time>2019-05-29T09:22:19.000Z</time>
      </trkpt>
      <trkpt lat="43.95775" lon="4.86018">
        <ele>25.7</ele>
        <time>2019-05-29T09:22:24.000Z</time>
      </trkpt>
      <trkpt lat="43.95753" lon="4.85995">
        <ele>25.7</ele>
        <time>2019-05-29T09:22:29.000Z</time>
      </trkpt>
      <trkpt lat="43.95743" lon="4.85962">
        <ele>26.7</ele>
        <time>2019-05-29T09:22:34.000Z</time>
      </trkpt>
      <trkpt lat="43.95742" lon="4.8593">
        <ele>26.95</ele>
        <time>2019-05-29T09:22:39.000Z</time>
      </trkpt>
      <trkpt lat="43.95737" lon="4.85902">
        <ele>25.95</ele>
        <time>2019-05-29T09:22:44.000Z</time>
      </trkpt>
      <trkpt lat="43.95731" lon="4.85883">
        <ele>26.7</ele>
        <time>2019-05-29T09:22:49.000Z</time>
      </trkpt>
      <trkpt lat="43.9573" lon="4.85868">
        <ele>27.25</ele>
        <time>2019-05-29T09:23:52.000Z</time>
      </trkpt>
      <trkpt lat="43.95726" lon="4.85843">
        <ele>27.47</ele>
        <time>2019-05-29T09:23:57.000Z</time>
      </trkpt>
      <trkpt lat="43.95718" lon="4.85813">
        <ele>27.7</ele>
        <time>2019-05-29T09:24:02.000Z</time>
      </trkpt>
      <trkpt lat="43.95718" lon="4.85782">
        <ele>26.7</ele>
        <time>2019-05-29T09:24:07.000Z</time>
      </trkpt>
      <trkpt lat="43.95721" lon="4.85751">
        <ele>26.45</ele>
        <time>2019-05-29T09:24:12.000Z</time>
      </trkpt>
      <trkpt lat="43.95725" lon="4.85723">
        <ele>26.7</ele>
        <time>2019-05-29T09:24:17.000Z</time>
      </trkpt>
      <trkpt lat="43.95728" lon="4.85701">
        <ele>26.95</ele>
        <time>2019-05-29T09:24:22.000Z</time>
      </trkpt>
      <trkpt lat="43.95736" lon="4.85684">
        <ele>28.7</ele>
        <time>2019-05-29T09:24:27.000Z</time>
      </trkpt>
      <trkpt lat="43.95739" lon="4.85659">
        <ele>26.7</ele>
        <time>2019-05-29T09:24:32.000Z</time>
      </trkpt>
      <trkpt lat="43.95742" lon="4.85633">
        <ele>26.95</ele>
        <time>2019-05-29T09:24:37.000Z</time>
      </trkpt>
      <trkpt lat="43.95744" lon="4.85608">
        <ele>27.69</ele>
        <time>2019-05-29T09:24:42.000Z</time>
      </trkpt>
      <trkpt lat="43.95746" lon="4.85583">
        <ele>26.7</ele>
        <time>2019-05-29T09:24:47.000Z</time>
      </trkpt>
      <trkpt lat="43.95751" lon="4.85556">
        <ele>27.7</ele>
        <time>2019-05-29T09:24:52.000Z</time>
      </trkpt>
      <trkpt lat="43.95753" lon="4.8553">
        <ele>28.45</ele>
        <time>2019-05-29T09:24:57.000Z</time>
      </trkpt>
      <trkpt lat="43.9575" lon="4.85513">
        <ele>29.45</ele>
        <time>2019-05-29T09:25:02.000Z</time>
      </trkpt>
      <trkpt lat="43.95747" lon="4.85501">
        <ele>29.69</ele>
        <time>2019-05-29T09:25:11.000Z</time>
      </trkpt>
      <trkpt lat="43.95747" lon="4.85478">
        <ele>29.7</ele>
        <time>2019-05-29T09:25:16.000Z</time>
      </trkpt>
      <trkpt lat="43.95748" lon="4.85451">
        <ele>28.69</ele>
        <time>2019-05-29T09:25:21.000Z</time>
      </trkpt>
      <trkpt lat="43.95747" lon="4.85426">
        <ele>29.7</ele>
        <time>2019-05-29T09:25:26.000Z</time>
      </trkpt>
      <trkpt lat="43.95728" lon="4.8543">
        <ele>27.69</ele>
        <time>2019-05-29T09:25:31.000Z</time>
      </trkpt>
      <trkpt lat="43.95707" lon="4.85458">
        <ele>28.67</ele>
        <time>2019-05-29T09:25:36.000Z</time>
      </trkpt>
      <trkpt lat="43.95685" lon="4.8548">
        <ele>28.69</ele>
        <time>2019-05-29T09:25:41.000Z</time>
      </trkpt>
      <trkpt lat="43.95665" lon="4.85501">
        <ele>27.72</ele>
        <time>2019-05-29T09:25:46.000Z</time>
      </trkpt>
      <trkpt lat="43.95652" lon="4.85523">
        <ele>27.2</ele>
        <time>2019-05-29T09:25:51.000Z</time>
      </trkpt>
      <trkpt lat="43.95636" lon="4.8554">
        <ele>26.47</ele>
        <time>2019-05-29T09:25:56.000Z</time>
      </trkpt>
      <trkpt lat="43.95615" lon="4.85562">
        <ele>24.97</ele>
        <time>2019-05-29T09:26:01.000Z</time>
      </trkpt>
      <trkpt lat="43.9559" lon="4.85588">
        <ele>23.72</ele>
        <time>2019-05-29T09:26:06.000Z</time>
      </trkpt>
      <trkpt lat="43.95557" lon="4.85593">
        <ele>22.7</ele>
        <time>2019-05-29T09:26:11.000Z</time>
      </trkpt>
      <trkpt lat="43.95523" lon="4.85592">
        <ele>22.7</ele>
        <time>2019-05-29T09:26:16.000Z</time>
      </trkpt>
      <trkpt lat="43.9549" lon="4.8559">
        <ele>23.47</ele>
        <time>2019-05-29T09:26:21.000Z</time>
      </trkpt>
      <trkpt lat="43.95458" lon="4.85591">
        <ele>23.7</ele>
        <time>2019-05-29T09:26:26.000Z</time>
      </trkpt>
      <trkpt lat="43.95428" lon="4.85592">
        <ele>22.72</ele>
        <time>2019-05-29T09:26:31.000Z</time>
      </trkpt>
      <trkpt lat="43.95405" lon="4.856">
        <ele>23.7</ele>
        <time>2019-05-29T09:26:36.000Z</time>
      </trkpt>
      <trkpt lat="43.95396" lon="4.85594">
        <ele>25.45</ele>
        <time>2019-05-29T09:26:46.000Z</time>
      </trkpt>
      <trkpt lat="43.95385" lon="4.85592">
        <ele>25.7</ele>
        <time>2019-05-29T09:26:52.000Z</time>
      </trkpt>
      <trkpt lat="43.95361" lon="4.85593">
        <ele>24.71</ele>
        <time>2019-05-29T09:26:57.000Z</time>
      </trkpt>
      <trkpt lat="43.95332" lon="4.85593">
        <ele>24.71</ele>
        <time>2019-05-29T09:27:02.000Z</time>
      </trkpt>
      <trkpt lat="43.95305" lon="4.85589">
        <ele>23.7</ele>
        <time>2019-05-29T09:27:07.000Z</time>
      </trkpt>
      <trkpt lat="43.95273" lon="4.8559">
        <ele>23.69</ele>
        <time>2019-05-29T09:27:12.000Z</time>
      </trkpt>
      <trkpt lat="43.95243" lon="4.85592">
        <ele>23.7</ele>
        <time>2019-05-29T09:27:17.000Z</time>
      </trkpt>
      <trkpt lat="43.95214" lon="4.85592">
        <ele>24.46</ele>
        <time>2019-05-29T09:27:22.000Z</time>
      </trkpt>
      <trkpt lat="43.95185" lon="4.85577">
        <ele>23.96</ele>
        <time>2019-05-29T09:27:27.000Z</time>
      </trkpt>
      <trkpt lat="43.95157" lon="4.85558">
        <ele>23.96</ele>
        <time>2019-05-29T09:27:32.000Z</time>
      </trkpt>
      <trkpt lat="43.95128" lon="4.85548">
        <ele>24.71</ele>
        <time>2019-05-29T09:27:37.000Z</time>
      </trkpt>
      <trkpt lat="43.95101" lon="4.85541">
        <ele>23.71</ele>
        <time>2019-05-29T09:27:42.000Z</time>
      </trkpt>
      <trkpt lat="43.9508" lon="4.85535">
        <ele>24.71</ele>
        <time>2019-05-29T09:27:47.000Z</time>
      </trkpt>
      <trkpt lat="43.95082" lon="4.85522">
        <ele>27.94</ele>
        <time>2019-05-29T09:29:30.000Z</time>
      </trkpt>
      <trkpt lat="43.95072" lon="4.8552">
        <ele>26.71</ele>
        <time>2019-05-29T09:29:36.000Z</time>
      </trkpt>
      <trkpt lat="43.9507" lon="4.85535">
        <ele>25.71</ele>
        <time>2019-05-29T09:29:48.000Z</time>
      </trkpt>
      <trkpt lat="43.95065" lon="4.85561">
        <ele>25.69</ele>
        <time>2019-05-29T09:29:53.000Z</time>
      </trkpt>
      <trkpt lat="43.95053" lon="4.85591">
        <ele>25.69</ele>
        <time>2019-05-29T09:29:58.000Z</time>
      </trkpt>
      <trkpt lat="43.95037" lon="4.85616">
        <ele>27.44</ele>
        <time>2019-05-29T09:30:03.000Z</time>
      </trkpt>
      <trkpt lat="43.95019" lon="4.85638">
        <ele>26.71</ele>
        <time>2019-05-29T09:30:08.000Z</time>
      </trkpt>
      <trkpt lat="43.95" lon="4.8566">
        <ele>29.69</ele>
        <time>2019-05-29T09:30:13.000Z</time>
      </trkpt>
      <trkpt lat="43.94984" lon="4.85678">
        <ele>28.97</ele>
        <time>2019-05-29T09:30:18.000Z</time>
      </trkpt>
      <trkpt lat="43.94975" lon="4.85666">
        <ele>27.71</ele>
        <time>2019-05-29T09:30:23.000Z</time>
      </trkpt>
      <trkpt lat="43.94965" lon="4.85639">
        <ele>26.21</ele>
        <time>2019-05-29T09:30:28.000Z</time>
      </trkpt>
      <trkpt lat="43.94949" lon="4.85607">
        <ele>21.74</ele>
        <time>2019-05-29T09:30:33.000Z</time>
      </trkpt>
      <trkpt lat="43.9494" lon="4.85589">
        <ele>22.71</ele>
        <time>2019-05-29T09:30:38.000Z</time>
      </trkpt>
      <trkpt lat="43.94933" lon="4.85563">
        <ele>22.71</ele>
        <time>2019-05-29T09:30:43.000Z</time>
      </trkpt>
      <trkpt lat="43.94928" lon="4.85535">
        <ele>23.71</ele>
        <time>2019-05-29T09:30:48.000Z</time>
      </trkpt>
      <trkpt lat="43.94921" lon="4.8551">
        <ele>26.71</ele>
        <time>2019-05-29T09:30:53.000Z</time>
      </trkpt>
      <trkpt lat="43.94916" lon="4.85476">
        <ele>23.97</ele>
        <time>2019-05-29T09:30:58.000Z</time>
      </trkpt>
      <trkpt lat="43.94912" lon="4.85442">
        <ele>21.72</ele>
        <time>2019-05-29T09:31:03.000Z</time>
      </trkpt>
      <trkpt lat="43.94903" lon="4.8541">
        <ele>21.71</ele>
        <time>2019-05-29T09:31:08.000Z</time>
      </trkpt>
      <trkpt lat="43.94897" lon="4.85379">
        <ele>22.46</ele>
        <time>2019-05-29T09:31:13.000Z</time>
      </trkpt>
      <trkpt lat="43.9489" lon="4.85345">
        <ele>22.46</ele>
        <time>2019-05-29T09:31:18.000Z</time>
      </trkpt>
      <trkpt lat="43.94884" lon="4.8531">
        <ele>21.72</ele>
        <time>2019-05-29T09:31:23.000Z</time>
      </trkpt>
      <trkpt lat="43.94874" lon="4.8528">
        <ele>22.69</ele>
        <time>2019-05-29T09:31:28.000Z</time>
      </trkpt>
      <trkpt lat="43.94868" lon="4.85251">
        <ele>22.71</ele>
        <time>2019-05-29T09:31:33.000Z</time>
      </trkpt>
      <trkpt lat="43.94862" lon="4.85223">
        <ele>22.71</ele>
        <time>2019-05-29T09:31:38.000Z</time>
      </trkpt>
      <trkpt lat="43.94857" lon="4.85204">
        <ele>22.73</ele>
        <time>2019-05-29T09:31:43.000Z</time>
      </trkpt>
      <trkpt lat="43.9485" lon="4.85189">
        <ele>23.71</ele>
        <time>2019-05-29T09:31:48.000Z</time>
      </trkpt>
      <trkpt lat="43.94846" lon="4.85174">
        <ele>23.73</ele>
        <time>2019-05-29T09:31:54.000Z</time>
      </trkpt>
      <trkpt lat="43.94844" lon="4.85158">
        <ele>24.46</ele>
        <time>2019-05-29T09:31:59.000Z</time>
      </trkpt>
      <trkpt lat="43.94838" lon="4.85145">
        <ele>23.48</ele>
        <time>2019-05-29T09:32:04.000Z</time>
      </trkpt>
      <trkpt lat="43.94826" lon="4.85116">
        <ele>22.94</ele>
        <time>2019-05-29T09:32:09.000Z</time>
      </trkpt>
      <trkpt lat="43.94818" lon="4.85083">
        <ele>22.95</ele>
        <time>2019-05-29T09:32:14.000Z</time>
      </trkpt>
      <trkpt lat="43.94814" lon="4.8505">
        <ele>22.7</ele>
        <time>2019-05-29T09:32:19.000Z</time>
      </trkpt>
      <trkpt lat="43.94809" lon="4.85018">
        <ele>22.94</ele>
        <time>2019-05-29T09:32:24.000Z</time>
      </trkpt>
      <trkpt lat="43.94805" lon="4.84984">
        <ele>23.96</ele>
        <time>2019-05-29T09:32:29.000Z</time>
      </trkpt>
      <trkpt lat="43.94794" lon="4.84953">
        <ele>22.73</ele>
        <time>2019-05-29T09:32:34.000Z</time>
      </trkpt>
      <trkpt lat="43.94777" lon="4.84926">
        <ele>22.95</ele>
        <time>2019-05-29T09:32:39.000Z</time>
      </trkpt>
      <trkpt lat="43.94761" lon="4.849">
        <ele>23.71</ele>
        <time>2019-05-29T09:32:44.000Z</time>
      </trkpt>
      <trkpt lat="43.94744" lon="4.84874">
        <ele>24.46</ele>
        <time>2019-05-29T09:32:49.000Z</time>
      </trkpt>
      <trkpt lat="43.94729" lon="4.84848">
        <ele>24.71</ele>
        <time>2019-05-29T09:32:54.000Z</time>
      </trkpt>
      <trkpt lat="43.94712" lon="4.84823">
        <ele>24.46</ele>
        <time>2019-05-29T09:32:59.000Z</time>
      </trkpt>
      <trkpt lat="43.94699" lon="4.84811">
        <ele>25.7</ele>
        <time>2019-05-29T09:33:04.000Z</time>
      </trkpt>
      <trkpt lat="43.94699" lon="4.84797">
        <ele>24.96</ele>
        <time>2019-05-29T09:33:10.000Z</time>
      </trkpt>
      <trkpt lat="43.9469" lon="4.84776">
        <ele>25.45</ele>
        <time>2019-05-29T09:33:15.000Z</time>
      </trkpt>
      <trkpt lat="43.94674" lon="4.84753">
        <ele>26.71</ele>
        <time>2019-05-29T09:33:20.000Z</time>
      </trkpt>
      <trkpt lat="43.94659" lon="4.84731">
        <ele>24.73</ele>
        <time>2019-05-29T09:33:25.000Z</time>
      </trkpt>
      <trkpt lat="43.94649" lon="4.84729">
        <ele>24.71</ele>
        <time>2019-05-29T09:33:30.000Z</time>
      </trkpt>
      <trkpt lat="43.94637" lon="4.84739">
        <ele>24.71</ele>
        <time>2019-05-29T09:33:35.000Z</time>
      </trkpt>
      <trkpt lat="43.94623" lon="4.8475">
        <ele>25.71</ele>
        <time>2019-05-29T09:33:40.000Z</time>
      </trkpt>
      <trkpt lat="43.94609" lon="4.84731">
        <ele>25.73</ele>
        <time>2019-05-29T09:33:45.000Z</time>
      </trkpt>
      <trkpt lat="43.94595" lon="4.84703">
        <ele>25.71</ele>
        <time>2019-05-29T09:33:50.000Z</time>
      </trkpt>
      <trkpt lat="43.94581" lon="4.84678">
        <ele>25.95</ele>
        <time>2019-05-29T09:33:55.000Z</time>
      </trkpt>
      <trkpt lat="43.94568" lon="4.84655">
        <ele>26.71</ele>
        <time>2019-05-29T09:34:00.000Z</time>
      </trkpt>
      <trkpt lat="43.94561" lon="4.84641">
        <ele>27.71</ele>
        <time>2019-05-29T09:34:05.000Z</time>
      </trkpt>
      <trkpt lat="43.94563" lon="4.84628">
        <ele>28.71</ele>
        <time>2019-05-29T09:34:14.000Z</time>
      </trkpt>
      <trkpt lat="43.9457" lon="4.84609">
        <ele>29.46</ele>
        <time>2019-05-29T09:34:19.000Z</time>
      </trkpt>
      <trkpt lat="43.94577" lon="4.84594">
        <ele>29.71</ele>
        <time>2019-05-29T09:34:24.000Z</time>
      </trkpt>
      <trkpt lat="43.94577" lon="4.8458">
        <ele>27.73</ele>
        <time>2019-05-29T09:34:36.000Z</time>
      </trkpt>
      <trkpt lat="43.9457" lon="4.84566">
        <ele>28.71</ele>
        <time>2019-05-29T09:34:41.000Z</time>
      </trkpt>
      <trkpt lat="43.94573" lon="4.84542">
        <ele>28.46</ele>
        <time>2019-05-29T09:34:46.000Z</time>
      </trkpt>
      <trkpt lat="43.94579" lon="4.8451">
        <ele>27.73</ele>
        <time>2019-05-29T09:34:51.000Z</time>
      </trkpt>
      <trkpt lat="43.94581" lon="4.84477">
        <ele>26.73</ele>
        <time>2019-05-29T09:34:56.000Z</time>
      </trkpt>
      <trkpt lat="43.94581" lon="4.84455">
        <ele>25.96</ele>
        <time>2019-05-29T09:35:01.000Z</time>
      </trkpt>
      <trkpt lat="43.94583" lon="4.84432">
        <ele>22.97</ele>
        <time>2019-05-29T09:35:06.000Z</time>
      </trkpt>
      <trkpt lat="43.94582" lon="4.84409">
        <ele>22.93</ele>
        <time>2019-05-29T09:35:11.000Z</time>
      </trkpt>
      <trkpt lat="43.94585" lon="4.84387">
        <ele>23.93</ele>
        <time>2019-05-29T09:35:16.000Z</time>
      </trkpt>
      <trkpt lat="43.94584" lon="4.84362">
        <ele>22.71</ele>
        <time>2019-05-29T09:35:21.000Z</time>
      </trkpt>
      <trkpt lat="43.94569" lon="4.84341">
        <ele>22.71</ele>
        <time>2019-05-29T09:35:26.000Z</time>
      </trkpt>
      <trkpt lat="43.94559" lon="4.84317">
        <ele>23.71</ele>
        <time>2019-05-29T09:35:31.000Z</time>
      </trkpt>
      <trkpt lat="43.94569" lon="4.84301">
        <ele>24.71</ele>
        <time>2019-05-29T09:35:36.000Z</time>
      </trkpt>
      <trkpt lat="43.94589" lon="4.84293">
        <ele>24.96</ele>
        <time>2019-05-29T09:35:41.000Z</time>
      </trkpt>
      <trkpt lat="43.94596" lon="4.84264">
        <ele>25.48</ele>
        <time>2019-05-29T09:35:46.000Z</time>
      </trkpt>
      <trkpt lat="43.94595" lon="4.84232">
        <ele>25.71</ele>
        <time>2019-05-29T09:35:51.000Z</time>
      </trkpt>
      <trkpt lat="43.94594" lon="4.84203">
        <ele>26.71</ele>
        <time>2019-05-29T09:35:56.000Z</time>
      </trkpt>
      <trkpt lat="43.94584" lon="4.84191">
        <ele>24.96</ele>
        <time>2019-05-29T09:36:01.000Z</time>
      </trkpt>
      <trkpt lat="43.94579" lon="4.84178">
        <ele>23.72</ele>
        <time>2019-05-29T09:36:07.000Z</time>
      </trkpt>
      <trkpt lat="43.94583" lon="4.84157">
        <ele>24.96</ele>
        <time>2019-05-29T09:36:12.000Z</time>
      </trkpt>
      <trkpt lat="43.94598" lon="4.84137">
        <ele>26.48</ele>
        <time>2019-05-29T09:36:17.000Z</time>
      </trkpt>
      <trkpt lat="43.94601" lon="4.84106">
        <ele>26.71</ele>
        <time>2019-05-29T09:36:22.000Z</time>
      </trkpt>
      <trkpt lat="43.94599" lon="4.84077">
        <ele>28.7</ele>
        <time>2019-05-29T09:36:27.000Z</time>
      </trkpt>
      <trkpt lat="43.94603" lon="4.84049">
        <ele>26.73</ele>
        <time>2019-05-29T09:36:32.000Z</time>
      </trkpt>
      <trkpt lat="43.94604" lon="4.84014">
        <ele>25.71</ele>
        <time>2019-05-29T09:36:37.000Z</time>
      </trkpt>
      <trkpt lat="43.946" lon="4.83975">
        <ele>24.72</ele>
        <time>2019-05-29T09:36:42.000Z</time>
      </trkpt>
      <trkpt lat="43.94589" lon="4.83941">
        <ele>23.71</ele>
        <time>2019-05-29T09:36:47.000Z</time>
      </trkpt>
      <trkpt lat="43.94574" lon="4.83905">
        <ele>23.21</ele>
        <time>2019-05-29T09:36:52.000Z</time>
      </trkpt>
      <trkpt lat="43.94555" lon="4.83872">
        <ele>22.48</ele>
        <time>2019-05-29T09:36:57.000Z</time>
      </trkpt>
      <trkpt lat="43.94543" lon="4.83846">
        <ele>21.72</ele>
        <time>2019-05-29T09:37:02.000Z</time>
      </trkpt>
      <trkpt lat="43.9453" lon="4.8385">
        <ele>23.7</ele>
        <time>2019-05-29T09:37:07.000Z</time>
      </trkpt>
      <trkpt lat="43.94525" lon="4.83831">
        <ele>21.48</ele>
        <time>2019-05-29T09:37:12.000Z</time>
      </trkpt>
      <trkpt lat="43.94521" lon="4.83796">
        <ele>21.96</ele>
        <time>2019-05-29T09:37:17.000Z</time>
      </trkpt>
      <trkpt lat="43.94517" lon="4.83762">
        <ele>22.47</ele>
        <time>2019-05-29T09:37:22.000Z</time>
      </trkpt>
      <trkpt lat="43.94503" lon="4.8373">
        <ele>22.95</ele>
        <time>2019-05-29T09:37:27.000Z</time>
      </trkpt>
      <trkpt lat="43.94493" lon="4.83695">
        <ele>21.97</ele>
        <time>2019-05-29T09:37:32.000Z</time>
      </trkpt>
      <trkpt lat="43.94486" lon="4.83656">
        <ele>20.97</ele>
        <time>2019-05-29T09:37:37.000Z</time>
      </trkpt>
      <trkpt lat="43.9448" lon="4.83616">
        <ele>20.95</ele>
        <time>2019-05-29T09:37:42.000Z</time>
      </trkpt>
      <trkpt lat="43.94473" lon="4.83583">
        <ele>20.72</ele>
        <time>2019-05-29T09:37:47.000Z</time>
      </trkpt>
      <trkpt lat="43.9447" lon="4.83548">
        <ele>19.98</ele>
        <time>2019-05-29T09:37:52.000Z</time>
      </trkpt>
      <trkpt lat="43.94463" lon="4.83518">
        <ele>21.48</ele>
        <time>2019-05-29T09:37:57.000Z</time>
      </trkpt>
      <trkpt lat="43.94449" lon="4.83496">
        <ele>21.47</ele>
        <time>2019-05-29T09:38:02.000Z</time>
      </trkpt>
      <trkpt lat="43.94439" lon="4.83482">
        <ele>22.7</ele>
        <time>2019-05-29T09:38:07.000Z</time>
      </trkpt>
      <trkpt lat="43.94427" lon="4.8346">
        <ele>19.73</ele>
        <time>2019-05-29T09:38:12.000Z</time>
      </trkpt>
      <trkpt lat="43.94444" lon="4.83438">
        <ele>20.47</ele>
        <time>2019-05-29T09:38:17.000Z</time>
      </trkpt>
      <trkpt lat="43.94456" lon="4.83423">
        <ele>20.72</ele>
        <time>2019-05-29T09:38:22.000Z</time>
      </trkpt>
      <trkpt lat="43.94458" lon="4.83406">
        <ele>22.47</ele>
        <time>2019-05-29T09:38:27.000Z</time>
      </trkpt>
      <trkpt lat="43.94456" lon="4.8339">
        <ele>24.7</ele>
        <time>2019-05-29T09:38:40.000Z</time>
      </trkpt>
      <trkpt lat="43.94457" lon="4.8336">
        <ele>24.48</ele>
        <time>2019-05-29T09:38:45.000Z</time>
      </trkpt>
      <trkpt lat="43.94451" lon="4.83327">
        <ele>21.97</ele>
        <time>2019-05-29T09:38:50.000Z</time>
      </trkpt>
      <trkpt lat="43.94444" lon="4.83297">
        <ele>21.72</ele>
        <time>2019-05-29T09:38:55.000Z</time>
      </trkpt>
      <trkpt lat="43.94435" lon="4.83274">
        <ele>20.72</ele>
        <time>2019-05-29T09:39:00.000Z</time>
      </trkpt>
      <trkpt lat="43.94438" lon="4.8326">
        <ele>22.72</ele>
        <time>2019-05-29T09:39:05.000Z</time>
      </trkpt>
      <trkpt lat="43.94436" lon="4.83235">
        <ele>25.47</ele>
        <time>2019-05-29T09:39:10.000Z</time>
      </trkpt>
      <trkpt lat="43.94434" lon="4.83207">
        <ele>25.72</ele>
        <time>2019-05-29T09:39:15.000Z</time>
      </trkpt>
      <trkpt lat="43.94436" lon="4.83173">
        <ele>25.7</ele>
        <time>2019-05-29T09:39:20.000Z</time>
      </trkpt>
      <trkpt lat="43.94434" lon="4.8314">
        <ele>25.72</ele>
        <time>2019-05-29T09:39:25.000Z</time>
      </trkpt>
      <trkpt lat="43.94432" lon="4.83109">
        <ele>24.72</ele>
        <time>2019-05-29T09:39:30.000Z</time>
      </trkpt>
      <trkpt lat="43.94427" lon="4.83075">
        <ele>24.7</ele>
        <time>2019-05-29T09:39:35.000Z</time>
      </trkpt>
      <trkpt lat="43.94424" lon="4.8304">
        <ele>28.59</ele>
        <time>2019-05-29T09:39:40.000Z</time>
      </trkpt>
      <trkpt lat="43.94425" lon="4.83">
        <ele>22.97</ele>
        <time>2019-05-29T09:39:45.000Z</time>
      </trkpt>
      <trkpt lat="43.94423" lon="4.82964">
        <ele>23.47</ele>
        <time>2019-05-29T09:39:50.000Z</time>
      </trkpt>
      <trkpt lat="43.94419" lon="4.82929">
        <ele>22.72</ele>
        <time>2019-05-29T09:39:55.000Z</time>
      </trkpt>
      <trkpt lat="43.94413" lon="4.82894">
        <ele>23.73</ele>
        <time>2019-05-29T09:40:00.000Z</time>
      </trkpt>
      <trkpt lat="43.9441" lon="4.8286">
        <ele>23.72</ele>
        <time>2019-05-29T09:40:05.000Z</time>
      </trkpt>
      <trkpt lat="43.94407" lon="4.82839">
        <ele>22.73</ele>
        <time>2019-05-29T09:40:10.000Z</time>
      </trkpt>
      <trkpt lat="43.94406" lon="4.82824">
        <ele>23.72</ele>
        <time>2019-05-29T09:40:20.000Z</time>
      </trkpt>
      <trkpt lat="43.94408" lon="4.82807">
        <ele>25.72</ele>
        <time>2019-05-29T09:40:25.000Z</time>
      </trkpt>
      <trkpt lat="43.94409" lon="4.82786">
        <ele>25.97</ele>
        <time>2019-05-29T09:40:30.000Z</time>
      </trkpt>
      <trkpt lat="43.94411" lon="4.82773">
        <ele>27.72</ele>
        <time>2019-05-29T09:40:40.000Z</time>
      </trkpt>
      <trkpt lat="43.94411" lon="4.82756">
        <ele>26.97</ele>
        <time>2019-05-29T09:40:45.000Z</time>
      </trkpt>
      <trkpt lat="43.94408" lon="4.82743">
        <ele>24.72</ele>
        <time>2019-05-29T09:42:29.000Z</time>
      </trkpt>
      <trkpt lat="43.94407" lon="4.82727">
        <ele>23.72</ele>
        <time>2019-05-29T09:42:34.000Z</time>
      </trkpt>
      <trkpt lat="43.94406" lon="4.82711">
        <ele>22.72</ele>
        <time>2019-05-29T09:42:39.000Z</time>
      </trkpt>
      <trkpt lat="43.94405" lon="4.82691">
        <ele>20.97</ele>
        <time>2019-05-29T09:42:44.000Z</time>
      </trkpt>
      <trkpt lat="43.94403" lon="4.82666">
        <ele>21.72</ele>
        <time>2019-05-29T09:42:49.000Z</time>
      </trkpt>
      <trkpt lat="43.94402" lon="4.82637">
        <ele>21.72</ele>
        <time>2019-05-29T09:42:54.000Z</time>
      </trkpt>
      <trkpt lat="43.94398" lon="4.82603">
        <ele>21.72</ele>
        <time>2019-05-29T09:42:59.000Z</time>
      </trkpt>
      <trkpt lat="43.94396" lon="4.82571">
        <ele>23.7</ele>
        <time>2019-05-29T09:43:04.000Z</time>
      </trkpt>
      <trkpt lat="43.94391" lon="4.82539">
        <ele>22.23</ele>
        <time>2019-05-29T09:43:09.000Z</time>
      </trkpt>
      <trkpt lat="43.94383" lon="4.82505">
        <ele>23.7</ele>
        <time>2019-05-29T09:43:14.000Z</time>
      </trkpt>
      <trkpt lat="43.94382" lon="4.8247">
        <ele>26.7</ele>
        <time>2019-05-29T09:43:19.000Z</time>
      </trkpt>
      <trkpt lat="43.94385" lon="4.82439">
        <ele>26.97</ele>
        <time>2019-05-29T09:43:24.000Z</time>
      </trkpt>
      <trkpt lat="43.94391" lon="4.82412">
        <ele>25.73</ele>
        <time>2019-05-29T09:43:29.000Z</time>
      </trkpt>
      <trkpt lat="43.94399" lon="4.82383">
        <ele>26.47</ele>
        <time>2019-05-29T09:43:34.000Z</time>
      </trkpt>
      <trkpt lat="43.9441" lon="4.82356">
        <ele>25.72</ele>
        <time>2019-05-29T09:43:39.000Z</time>
      </trkpt>
      <trkpt lat="43.9442" lon="4.8233">
        <ele>26.72</ele>
        <time>2019-05-29T09:43:44.000Z</time>
      </trkpt>
      <trkpt lat="43.94427" lon="4.82314">
        <ele>27.72</ele>
        <time>2019-05-29T09:43:49.000Z</time>
      </trkpt>
      <trkpt lat="43.9443" lon="4.82301">
        <ele>24.72</ele>
        <time>2019-05-29T09:43:59.000Z</time>
      </trkpt>
      <trkpt lat="43.94433" lon="4.82274">
        <ele>22.97</ele>
        <time>2019-05-29T09:44:04.000Z</time>
      </trkpt>
      <trkpt lat="43.94443" lon="4.82244">
        <ele>20.74</ele>
        <time>2019-05-29T09:44:09.000Z</time>
      </trkpt>
      <trkpt lat="43.94453" lon="4.82213">
        <ele>20.95</ele>
        <time>2019-05-29T09:44:14.000Z</time>
      </trkpt>
      <trkpt lat="43.9446" lon="4.82186">
        <ele>23.45</ele>
        <time>2019-05-29T09:44:19.000Z</time>
      </trkpt>
      <trkpt lat="43.94469" lon="4.82156">
        <ele>21.7</ele>
        <time>2019-05-29T09:44:24.000Z</time>
      </trkpt>
      <trkpt lat="43.94475" lon="4.82132">
        <ele>25.2</ele>
        <time>2019-05-29T09:44:29.000Z</time>
      </trkpt>
      <trkpt lat="43.94481" lon="4.82109">
        <ele>22.7</ele>
        <time>2019-05-29T09:44:34.000Z</time>
      </trkpt>
      <trkpt lat="43.94493" lon="4.82087">
        <ele>23.72</ele>
        <time>2019-05-29T09:44:39.000Z</time>
      </trkpt>
      <trkpt lat="43.94503" lon="4.82066">
        <ele>24.72</ele>
        <time>2019-05-29T09:44:44.000Z</time>
      </trkpt>
      <trkpt lat="43.9451" lon="4.82053">
        <ele>26.72</ele>
        <time>2019-05-29T09:44:49.000Z</time>
      </trkpt>
      <trkpt lat="43.94524" lon="4.82049">
        <ele>25.72</ele>
        <time>2019-05-29T09:44:54.000Z</time>
      </trkpt>
      <trkpt lat="43.94528" lon="4.82035">
        <ele>20.72</ele>
        <time>2019-05-29T09:45:24.000Z</time>
      </trkpt>
      <trkpt lat="43.94536" lon="4.82011">
        <ele>22.47</ele>
        <time>2019-05-29T09:45:29.000Z</time>
      </trkpt>
      <trkpt lat="43.94548" lon="4.81985">
        <ele>21.47</ele>
        <time>2019-05-29T09:45:34.000Z</time>
      </trkpt>
      <trkpt lat="43.94558" lon="4.81956">
        <ele>21.72</ele>
        <time>2019-05-29T09:45:39.000Z</time>
      </trkpt>
      <trkpt lat="43.9457" lon="4.81929">
        <ele>22.72</ele>
        <time>2019-05-29T09:45:44.000Z</time>
      </trkpt>
      <trkpt lat="43.94579" lon="4.81902">
        <ele>21.95</ele>
        <time>2019-05-29T09:45:49.000Z</time>
      </trkpt>
      <trkpt lat="43.9459" lon="4.81883">
        <ele>22.47</ele>
        <time>2019-05-29T09:45:54.000Z</time>
      </trkpt>
      <trkpt lat="43.946" lon="4.81862">
        <ele>22.48</ele>
        <time>2019-05-29T09:45:59.000Z</time>
      </trkpt>
      <trkpt lat="43.94611" lon="4.81844">
        <ele>24.45</ele>
        <time>2019-05-29T09:46:04.000Z</time>
      </trkpt>
      <trkpt lat="43.9462" lon="4.81832">
        <ele>25.7</ele>
        <time>2019-05-29T09:46:09.000Z</time>
      </trkpt>
      <trkpt lat="43.94631" lon="4.81817">
        <ele>26.73</ele>
        <time>2019-05-29T09:46:14.000Z</time>
      </trkpt>
      <trkpt lat="43.94641" lon="4.81798">
        <ele>27.72</ele>
        <time>2019-05-29T09:46:19.000Z</time>
      </trkpt>
      <trkpt lat="43.94653" lon="4.81781">
        <ele>28.97</ele>
        <time>2019-05-29T09:46:24.000Z</time>
      </trkpt>
      <trkpt lat="43.94663" lon="4.81766">
        <ele>28.98</ele>
        <time>2019-05-29T09:46:29.000Z</time>
      </trkpt>
      <trkpt lat="43.94659" lon="4.8175">
        <ele>28.73</ele>
        <time>2019-05-29T09:46:34.000Z</time>
      </trkpt>
      <trkpt lat="43.94644" lon="4.81738">
        <ele>27.72</ele>
        <time>2019-05-29T09:46:39.000Z</time>
      </trkpt>
      <trkpt lat="43.9464" lon="4.81722">
        <ele>27.73</ele>
        <time>2019-05-29T09:46:44.000Z</time>
      </trkpt>
      <trkpt lat="43.94648" lon="4.81717">
        <ele>30.7</ele>
        <time>2019-05-29T09:46:54.000Z</time>
      </trkpt>
      <trkpt lat="43.94639" lon="4.81707">
        <ele>25.7</ele>
        <time>2019-05-29T09:47:32.000Z</time>
      </trkpt>
      <trkpt lat="43.94629" lon="4.81693">
        <ele>24.71</ele>
        <time>2019-05-29T09:47:37.000Z</time>
      </trkpt>
      <trkpt lat="43.94611" lon="4.81681">
        <ele>24.72</ele>
        <time>2019-05-29T09:47:42.000Z</time>
      </trkpt>
      <trkpt lat="43.94592" lon="4.81668">
        <ele>25.7</ele>
        <time>2019-05-29T09:47:47.000Z</time>
      </trkpt>
      <trkpt lat="43.94573" lon="4.81651">
        <ele>23.96</ele>
        <time>2019-05-29T09:47:52.000Z</time>
      </trkpt>
      <trkpt lat="43.94553" lon="4.81635">
        <ele>21.72</ele>
        <time>2019-05-29T09:47:57.000Z</time>
      </trkpt>
      <trkpt lat="43.94532" lon="4.8162">
        <ele>23.72</ele>
        <time>2019-05-29T09:48:02.000Z</time>
      </trkpt>
      <trkpt lat="43.9451" lon="4.81602">
        <ele>22.69</ele>
        <time>2019-05-29T09:48:07.000Z</time>
      </trkpt>
      <trkpt lat="43.94491" lon="4.81592">
        <ele>22.74</ele>
        <time>2019-05-29T09:48:12.000Z</time>
      </trkpt>
      <trkpt lat="43.94482" lon="4.81578">
        <ele>22.72</ele>
        <time>2019-05-29T09:48:17.000Z</time>
      </trkpt>
      <trkpt lat="43.94468" lon="4.81564">
        <ele>21.71</ele>
        <time>2019-05-29T09:48:22.000Z</time>
      </trkpt>
      <trkpt lat="43.94445" lon="4.81546">
        <ele>24.47</ele>
        <time>2019-05-29T09:48:27.000Z</time>
      </trkpt>
      <trkpt lat="43.94429" lon="4.81524">
        <ele>22.22</ele>
        <time>2019-05-29T09:48:32.000Z</time>
      </trkpt>
      <trkpt lat="43.94409" lon="4.8151">
        <ele>23.69</ele>
        <time>2019-05-29T09:48:37.000Z</time>
      </trkpt>
      <trkpt lat="43.94403" lon="4.815">
        <ele>22.72</ele>
        <time>2019-05-29T09:48:56.000Z</time>
      </trkpt>
      <trkpt lat="43.94403" lon="4.81486">
        <ele>23.75</ele>
        <time>2019-05-29T09:49:23.000Z</time>
      </trkpt>
      <trkpt lat="43.94396" lon="4.81479">
        <ele>25.71</ele>
        <time>2019-05-29T09:49:29.000Z</time>
      </trkpt>
      <trkpt lat="43.94389" lon="4.81466">
        <ele>24.71</ele>
        <time>2019-05-29T09:49:36.000Z</time>
      </trkpt>
      <trkpt lat="43.94382" lon="4.81443">
        <ele>25.47</ele>
        <time>2019-05-29T09:49:41.000Z</time>
      </trkpt>
      <trkpt lat="43.94375" lon="4.81414">
        <ele>21.99</ele>
        <time>2019-05-29T09:49:46.000Z</time>
      </trkpt>
      <trkpt lat="43.9437" lon="4.81385">
        <ele>19.72</ele>
        <time>2019-05-29T09:49:51.000Z</time>
      </trkpt>
      <trkpt lat="43.94365" lon="4.81354">
        <ele>19.72</ele>
        <time>2019-05-29T09:49:56.000Z</time>
      </trkpt>
      <trkpt lat="43.94357" lon="4.81325">
        <ele>19.74</ele>
        <time>2019-05-29T09:50:01.000Z</time>
      </trkpt>
      <trkpt lat="43.9435" lon="4.81295">
        <ele>19.72</ele>
        <time>2019-05-29T09:50:06.000Z</time>
      </trkpt>
      <trkpt lat="43.94345" lon="4.81265">
        <ele>18.97</ele>
        <time>2019-05-29T09:50:11.000Z</time>
      </trkpt>
      <trkpt lat="43.94341" lon="4.81242">
        <ele>18.72</ele>
        <time>2019-05-29T09:50:16.000Z</time>
      </trkpt>
      <trkpt lat="43.94331" lon="4.81227">
        <ele>20.22</ele>
        <time>2019-05-29T09:50:21.000Z</time>
      </trkpt>
      <trkpt lat="43.94329" lon="4.8121">
        <ele>21.47</ele>
        <time>2019-05-29T09:50:26.000Z</time>
      </trkpt>
      <trkpt lat="43.94328" lon="4.81185">
        <ele>23.93</ele>
        <time>2019-05-29T09:50:31.000Z</time>
      </trkpt>
      <trkpt lat="43.94323" lon="4.81158">
        <ele>21.72</ele>
        <time>2019-05-29T09:50:36.000Z</time>
      </trkpt>
      <trkpt lat="43.94319" lon="4.81129">
        <ele>21.47</ele>
        <time>2019-05-29T09:50:41.000Z</time>
      </trkpt>
      <trkpt lat="43.94312" lon="4.81101">
        <ele>20.72</ele>
        <time>2019-05-29T09:50:46.000Z</time>
      </trkpt>
      <trkpt lat="43.94304" lon="4.81072">
        <ele>20.71</ele>
        <time>2019-05-29T09:50:51.000Z</time>
      </trkpt>
      <trkpt lat="43.943" lon="4.81045">
        <ele>18.74</ele>
        <time>2019-05-29T09:50:56.000Z</time>
      </trkpt>
      <trkpt lat="43.94293" lon="4.81014">
        <ele>18.96</ele>
        <time>2019-05-29T09:51:01.000Z</time>
      </trkpt>
      <trkpt lat="43.94286" lon="4.80983">
        <ele>18.72</ele>
        <time>2019-05-29T09:51:06.000Z</time>
      </trkpt>
      <trkpt lat="43.94278" lon="4.80954">
        <ele>18.72</ele>
        <time>2019-05-29T09:51:11.000Z</time>
      </trkpt>
      <trkpt lat="43.9427" lon="4.80924">
        <ele>19.47</ele>
        <time>2019-05-29T09:51:16.000Z</time>
      </trkpt>
      <trkpt lat="43.94265" lon="4.80898">
        <ele>19.72</ele>
        <time>2019-05-29T09:51:21.000Z</time>
      </trkpt>
      <trkpt lat="43.94261" lon="4.80875">
        <ele>20.72</ele>
        <time>2019-05-29T09:51:26.000Z</time>
      </trkpt>
      <trkpt lat="43.94263" lon="4.80862">
        <ele>21.21</ele>
        <time>2019-05-29T09:51:32.000Z</time>
      </trkpt>
      <trkpt lat="43.94276" lon="4.8086">
        <ele>22.71</ele>
        <time>2019-05-29T09:51:37.000Z</time>
      </trkpt>
      <trkpt lat="43.94285" lon="4.80853">
        <ele>24.47</ele>
        <time>2019-05-29T09:51:42.000Z</time>
      </trkpt>
      <trkpt lat="43.94302" lon="4.80851">
        <ele>25.71</ele>
        <time>2019-05-29T09:51:47.000Z</time>
      </trkpt>
      <trkpt lat="43.94321" lon="4.80843">
        <ele>24.71</ele>
        <time>2019-05-29T09:51:52.000Z</time>
      </trkpt>
      <trkpt lat="43.94343" lon="4.80837">
        <ele>26.49</ele>
        <time>2019-05-29T09:51:57.000Z</time>
      </trkpt>
      <trkpt lat="43.94363" lon="4.80827">
        <ele>26.22</ele>
        <time>2019-05-29T09:52:02.000Z</time>
      </trkpt>
      <trkpt lat="43.94384" lon="4.80816">
        <ele>26.96</ele>
        <time>2019-05-29T09:52:07.000Z</time>
      </trkpt>
      <trkpt lat="43.94403" lon="4.80806">
        <ele>25.47</ele>
        <time>2019-05-29T09:52:12.000Z</time>
      </trkpt>
      <trkpt lat="43.94427" lon="4.80796">
        <ele>27.47</ele>
        <time>2019-05-29T09:52:17.000Z</time>
      </trkpt>
      <trkpt lat="43.94438" lon="4.80794">
        <ele>30.47</ele>
        <time>2019-05-29T09:52:22.000Z</time>
      </trkpt>
      <trkpt lat="43.94448" lon="4.80784">
        <ele>27.46</ele>
        <time>2019-05-29T09:52:27.000Z</time>
      </trkpt>
      <trkpt lat="43.94462" lon="4.80772">
        <ele>26.72</ele>
        <time>2019-05-29T09:52:32.000Z</time>
      </trkpt>
      <trkpt lat="43.94475" lon="4.80759">
        <ele>26.44</ele>
        <time>2019-05-29T09:52:37.000Z</time>
      </trkpt>
      <trkpt lat="43.94488" lon="4.80753">
        <ele>30.46</ele>
        <time>2019-05-29T09:52:42.000Z</time>
      </trkpt>
      <trkpt lat="43.94502" lon="4.8075">
        <ele>31.28</ele>
        <time>2019-05-29T09:52:47.000Z</time>
      </trkpt>
      <trkpt lat="43.94512" lon="4.80753">
        <ele>35.99</ele>
        <time>2019-05-29T09:53:05.000Z</time>
      </trkpt>
      <trkpt lat="43.94521" lon="4.80748">
        <ele>34.72</ele>
        <time>2019-05-29T09:53:10.000Z</time>
      </trkpt>
      <trkpt lat="43.94533" lon="4.80746">
        <ele>32.49</ele>
        <time>2019-05-29T09:53:15.000Z</time>
      </trkpt>
      <trkpt lat="43.94544" lon="4.80748">
        <ele>32.49</ele>
        <time>2019-05-29T09:53:20.000Z</time>
      </trkpt>
      <trkpt lat="43.94554" lon="4.80754">
        <ele>29.72</ele>
        <time>2019-05-29T09:53:26.000Z</time>
      </trkpt>
      <trkpt lat="43.94563" lon="4.80757">
        <ele>33.47</ele>
        <time>2019-05-29T09:53:31.000Z</time>
      </trkpt>
      <trkpt lat="43.94575" lon="4.80763">
        <ele>26.74</ele>
        <time>2019-05-29T09:53:36.000Z</time>
      </trkpt>
      <trkpt lat="43.94588" lon="4.80759">
        <ele>33.7</ele>
        <time>2019-05-29T09:53:41.000Z</time>
      </trkpt>
      <trkpt lat="43.94598" lon="4.80757">
        <ele>29.46</ele>
        <time>2019-05-29T09:53:46.000Z</time>
      </trkpt>
      <trkpt lat="43.94609" lon="4.80756">
        <ele>34.44</ele>
        <time>2019-05-29T09:53:51.000Z</time>
      </trkpt>
      <trkpt lat="43.94619" lon="4.80753">
        <ele>30.97</ele>
        <time>2019-05-29T09:53:56.000Z</time>
      </trkpt>
      <trkpt lat="43.94628" lon="4.80748">
        <ele>32.72</ele>
        <time>2019-05-29T09:54:02.000Z</time>
      </trkpt>
      <trkpt lat="43.94638" lon="4.80749">
        <ele>26.82</ele>
        <time>2019-05-29T09:54:07.000Z</time>
      </trkpt>
      <trkpt lat="43.94652" lon="4.80741">
        <ele>29.47</ele>
        <time>2019-05-29T09:54:12.000Z</time>
      </trkpt>
      <trkpt lat="43.94662" lon="4.80738">
        <ele>27.1</ele>
        <time>2019-05-29T09:54:17.000Z</time>
      </trkpt>
      <trkpt lat="43.94669" lon="4.80747">
        <ele>32.74</ele>
        <time>2019-05-29T09:54:38.000Z</time>
      </trkpt>
      <trkpt lat="43.94679" lon="4.80751">
        <ele>27.55</ele>
        <time>2019-05-29T09:54:43.000Z</time>
      </trkpt>
      <trkpt lat="43.94691" lon="4.80759">
        <ele>31.46</ele>
        <time>2019-05-29T09:54:48.000Z</time>
      </trkpt>
      <trkpt lat="43.94701" lon="4.80761">
        <ele>29.19</ele>
        <time>2019-05-29T09:54:55.000Z</time>
      </trkpt>
      <trkpt lat="43.94711" lon="4.8076">
        <ele>33.71</ele>
        <time>2019-05-29T09:55:01.000Z</time>
      </trkpt>
      <trkpt lat="43.94722" lon="4.80755">
        <ele>28.49</ele>
        <time>2019-05-29T09:55:06.000Z</time>
      </trkpt>
      <trkpt lat="43.94732" lon="4.80757">
        <ele>27.45</ele>
        <time>2019-05-29T09:55:14.000Z</time>
      </trkpt>
      <trkpt lat="43.94741" lon="4.80756">
        <ele>34.45</ele>
        <time>2019-05-29T09:55:19.000Z</time>
      </trkpt>
      <trkpt lat="43.94752" lon="4.80756">
        <ele>32.19</ele>
        <time>2019-05-29T09:55:25.000Z</time>
      </trkpt>
      <trkpt lat="43.94763" lon="4.80754">
        <ele>38.98</ele>
        <time>2019-05-29T09:55:39.000Z</time>
      </trkpt>
      <trkpt lat="43.94776" lon="4.8075">
        <ele>45.42</ele>
        <time>2019-05-29T09:55:44.000Z</time>
      </trkpt>
      <trkpt lat="43.94786" lon="4.80747">
        <ele>40.18</ele>
        <time>2019-05-29T09:55:50.000Z</time>
      </trkpt>
      <trkpt lat="43.94795" lon="4.80746">
        <ele>46.73</ele>
        <time>2019-05-29T09:56:01.000Z</time>
      </trkpt>
      <trkpt lat="43.94797" lon="4.80758">
        <ele>31.97</ele>
        <time>2019-05-29T09:56:08.000Z</time>
      </trkpt>
      <trkpt lat="43.94806" lon="4.80754">
        <ele>32.46</ele>
        <time>2019-05-29T09:57:01.000Z</time>
      </trkpt>
      <trkpt lat="43.94813" lon="4.80763">
        <ele>31.44</ele>
        <time>2019-05-29T09:57:11.000Z</time>
      </trkpt>
      <trkpt lat="43.94822" lon="4.80767">
        <ele>28.52</ele>
        <time>2019-05-29T09:57:20.000Z</time>
      </trkpt>
      <trkpt lat="43.94822" lon="4.8078">
        <ele>36.2</ele>
        <time>2019-05-29T09:57:27.000Z</time>
      </trkpt>
      <trkpt lat="43.94826" lon="4.80793">
        <ele>32.75</ele>
        <time>2019-05-29T09:57:34.000Z</time>
      </trkpt>
      <trkpt lat="43.94825" lon="4.80806">
        <ele>22.7</ele>
        <time>2019-05-29T09:58:40.000Z</time>
      </trkpt>
      <trkpt lat="43.94825" lon="4.8082">
        <ele>23.7</ele>
        <time>2019-05-29T09:58:46.000Z</time>
      </trkpt>
      <trkpt lat="43.94824" lon="4.80834">
        <ele>25.46</ele>
        <time>2019-05-29T09:58:51.000Z</time>
      </trkpt>
      <trkpt lat="43.94822" lon="4.80849">
        <ele>26.47</ele>
        <time>2019-05-29T09:58:56.000Z</time>
      </trkpt>
      <trkpt lat="43.94823" lon="4.80863">
        <ele>22.52</ele>
        <time>2019-05-29T09:59:02.000Z</time>
      </trkpt>
      <trkpt lat="43.94823" lon="4.80876">
        <ele>22.73</ele>
        <time>2019-05-29T09:59:11.000Z</time>
      </trkpt>
      <trkpt lat="43.9482" lon="4.8089">
        <ele>23.72</ele>
        <time>2019-05-29T09:59:18.000Z</time>
      </trkpt>
      <trkpt lat="43.94818" lon="4.80903">
        <ele>25.72</ele>
        <time>2019-05-29T09:59:23.000Z</time>
      </trkpt>
      <trkpt lat="43.94816" lon="4.80917">
        <ele>25.7</ele>
        <time>2019-05-29T09:59:28.000Z</time>
      </trkpt>
      <trkpt lat="43.94814" lon="4.80932">
        <ele>24.97</ele>
        <time>2019-05-29T09:59:33.000Z</time>
      </trkpt>
      <trkpt lat="43.94812" lon="4.80945">
        <ele>24.45</ele>
        <time>2019-05-29T09:59:38.000Z</time>
      </trkpt>
      <trkpt lat="43.94808" lon="4.80956">
        <ele>24.72</ele>
        <time>2019-05-29T09:59:44.000Z</time>
      </trkpt>
      <trkpt lat="43.94806" lon="4.80972">
        <ele>25.7</ele>
        <time>2019-05-29T09:59:49.000Z</time>
      </trkpt>
      <trkpt lat="43.94803" lon="4.80986">
        <ele>25.72</ele>
        <time>2019-05-29T09:59:54.000Z</time>
      </trkpt>
      <trkpt lat="43.94799" lon="4.80999">
        <ele>23.49</ele>
        <time>2019-05-29T10:00:06.000Z</time>
      </trkpt>
      <trkpt lat="43.94797" lon="4.81013">
        <ele>30.2</ele>
        <time>2019-05-29T10:00:13.000Z</time>
      </trkpt>
      <trkpt lat="43.94796" lon="4.81025">
        <ele>32.2</ele>
        <time>2019-05-29T10:00:19.000Z</time>
      </trkpt>
      <trkpt lat="43.94794" lon="4.81039">
        <ele>35.72</ele>
        <time>2019-05-29T10:00:28.000Z</time>
      </trkpt>
      <trkpt lat="43.94787" lon="4.8105">
        <ele>35.72</ele>
        <time>2019-05-29T10:00:34.000Z</time>
      </trkpt>
      <trkpt lat="43.94795" lon="4.81044">
        <ele>31.7</ele>
        <time>2019-05-29T10:00:55.000Z</time>
      </trkpt>
      <trkpt lat="43.94805" lon="4.81041">
        <ele>40.2</ele>
        <time>2019-05-29T10:01:02.000Z</time>
      </trkpt>
      <trkpt lat="43.94811" lon="4.81031">
        <ele>35.2</ele>
        <time>2019-05-29T10:01:07.000Z</time>
      </trkpt>
      <trkpt lat="43.94821" lon="4.81026">
        <ele>44.69</ele>
        <time>2019-05-29T10:01:12.000Z</time>
      </trkpt>
      <trkpt lat="43.94828" lon="4.81015">
        <ele>35.74</ele>
        <time>2019-05-29T10:01:17.000Z</time>
      </trkpt>
      <trkpt lat="43.94834" lon="4.81001">
        <ele>38.69</ele>
        <time>2019-05-29T10:01:22.000Z</time>
      </trkpt>
      <trkpt lat="43.94837" lon="4.80989">
        <ele>34.22</ele>
        <time>2019-05-29T10:01:27.000Z</time>
      </trkpt>
      <trkpt lat="43.94847" lon="4.80979">
        <ele>32.95</ele>
        <time>2019-05-29T10:03:48.000Z</time>
      </trkpt>
      <trkpt lat="43.94833" lon="4.80988">
        <ele>28.7</ele>
        <time>2019-05-29T10:05:14.000Z</time>
      </trkpt>
      <trkpt lat="43.94833" lon="4.81001">
        <ele>27.47</ele>
        <time>2019-05-29T10:07:08.000Z</time>
      </trkpt>
      <trkpt lat="43.94832" lon="4.81014">
        <ele>19.75</ele>
        <time>2019-05-29T10:07:23.000Z</time>
      </trkpt>
      <trkpt lat="43.94827" lon="4.81026">
        <ele>23.47</ele>
        <time>2019-05-29T10:07:33.000Z</time>
      </trkpt>
      <trkpt lat="43.94818" lon="4.81028">
        <ele>22.72</ele>
        <time>2019-05-29T10:07:40.000Z</time>
      </trkpt>
      <trkpt lat="43.94808" lon="4.8103">
        <ele>21.47</ele>
        <time>2019-05-29T10:07:49.000Z</time>
      </trkpt>
      <trkpt lat="43.94799" lon="4.81027">
        <ele>20.72</ele>
        <time>2019-05-29T10:07:57.000Z</time>
      </trkpt>
      <trkpt lat="43.94789" lon="4.8103">
        <ele>19.25</ele>
        <time>2019-05-29T10:08:08.000Z</time>
      </trkpt>
      <trkpt lat="43.94789" lon="4.81032">
        <ele>21.95</ele>
        <time>2019-05-29T10:10:46.000Z</time>
      </trkpt>
      <trkpt lat="43.94834" lon="4.80974">
        <ele>14.98</ele>
        <time>2019-05-29T10:54:12.000Z</time>
      </trkpt>
      <trkpt lat="43.94836" lon="4.80961">
        <ele>15.74</ele>
        <time>2019-05-29T10:54:18.000Z</time>
      </trkpt>
      <trkpt lat="43.94844" lon="4.80953">
        <ele>17.47</ele>
        <time>2019-05-29T10:54:27.000Z</time>
      </trkpt>
      <trkpt lat="43.94842" lon="4.80939">
        <ele>18.72</ele>
        <time>2019-05-29T10:54:33.000Z</time>
      </trkpt>
      <trkpt lat="43.94845" lon="4.80919">
        <ele>16.24</ele>
        <time>2019-05-29T10:54:38.000Z</time>
      </trkpt>
      <trkpt lat="43.94852" lon="4.80904">
        <ele>14.22</ele>
        <time>2019-05-29T10:54:43.000Z</time>
      </trkpt>
      <trkpt lat="43.94858" lon="4.80891">
        <ele>15.47</ele>
        <time>2019-05-29T10:54:48.000Z</time>
      </trkpt>
      <trkpt lat="43.94866" lon="4.80879">
        <ele>13.74</ele>
        <time>2019-05-29T10:54:53.000Z</time>
      </trkpt>
      <trkpt lat="43.94873" lon="4.80871">
        <ele>9.99</ele>
        <time>2019-05-29T10:54:58.000Z</time>
      </trkpt>
      <trkpt lat="43.9488" lon="4.80862">
        <ele>13.77</ele>
        <time>2019-05-29T10:55:13.000Z</time>
      </trkpt>
      <trkpt lat="43.94887" lon="4.80854">
        <ele>15.94</ele>
        <time>2019-05-29T10:55:18.000Z</time>
      </trkpt>
      <trkpt lat="43.94892" lon="4.80843">
        <ele>19.72</ele>
        <time>2019-05-29T10:55:30.000Z</time>
      </trkpt>
      <trkpt lat="43.94883" lon="4.80836">
        <ele>23.45</ele>
        <time>2019-05-29T10:55:39.000Z</time>
      </trkpt>
      <trkpt lat="43.94876" lon="4.80826">
        <ele>23.45</ele>
        <time>2019-05-29T10:55:46.000Z</time>
      </trkpt>
      <trkpt lat="43.94875" lon="4.80811">
        <ele>20.74</ele>
        <time>2019-05-29T10:55:52.000Z</time>
      </trkpt>
      <trkpt lat="43.94876" lon="4.80798">
        <ele>21.72</ele>
        <time>2019-05-29T10:55:57.000Z</time>
      </trkpt>
      <trkpt lat="43.9487" lon="4.80785">
        <ele>25.72</ele>
        <time>2019-05-29T10:56:06.000Z</time>
      </trkpt>
      <trkpt lat="43.94869" lon="4.80771">
        <ele>26.72</ele>
        <time>2019-05-29T10:56:13.000Z</time>
      </trkpt>
      <trkpt lat="43.9487" lon="4.80759">
        <ele>25.72</ele>
        <time>2019-05-29T10:56:18.000Z</time>
      </trkpt>
      <trkpt lat="43.94866" lon="4.80747">
        <ele>25.73</ele>
        <time>2019-05-29T10:56:41.000Z</time>
      </trkpt>
      <trkpt lat="43.94868" lon="4.80734">
        <ele>26.72</ele>
        <time>2019-05-29T10:56:46.000Z</time>
      </trkpt>
      <trkpt lat="43.94869" lon="4.8072">
        <ele>28.47</ele>
        <time>2019-05-29T10:56:52.000Z</time>
      </trkpt>
      <trkpt lat="43.94868" lon="4.80707">
        <ele>27.72</ele>
        <time>2019-05-29T10:56:58.000Z</time>
      </trkpt>
      <trkpt lat="43.94877" lon="4.80702">
        <ele>28.71</ele>
        <time>2019-05-29T10:57:05.000Z</time>
      </trkpt>
      <trkpt lat="43.94886" lon="4.80701">
        <ele>29.7</ele>
        <time>2019-05-29T10:57:10.000Z</time>
      </trkpt>
      <trkpt lat="43.94896" lon="4.80696">
        <ele>27.24</ele>
        <time>2019-05-29T10:57:17.000Z</time>
      </trkpt>
      <trkpt lat="43.94893" lon="4.80678">
        <ele>25.72</ele>
        <time>2019-05-29T10:57:22.000Z</time>
      </trkpt>
      <trkpt lat="43.94888" lon="4.80661">
        <ele>27.72</ele>
        <time>2019-05-29T10:57:27.000Z</time>
      </trkpt>
      <trkpt lat="43.94888" lon="4.80642">
        <ele>27.73</ele>
        <time>2019-05-29T10:57:32.000Z</time>
      </trkpt>
      <trkpt lat="43.94886" lon="4.80625">
        <ele>26.72</ele>
        <time>2019-05-29T10:57:37.000Z</time>
      </trkpt>
      <trkpt lat="43.94886" lon="4.8061">
        <ele>24.97</ele>
        <time>2019-05-29T10:57:43.000Z</time>
      </trkpt>
      <trkpt lat="43.94882" lon="4.80599">
        <ele>27.47</ele>
        <time>2019-05-29T10:57:56.000Z</time>
      </trkpt>
      <trkpt lat="43.94891" lon="4.80596">
        <ele>31.47</ele>
        <time>2019-05-29T10:58:11.000Z</time>
      </trkpt>
      <trkpt lat="43.94902" lon="4.80589">
        <ele>26.99</ele>
        <time>2019-05-29T10:58:16.000Z</time>
      </trkpt>
      <trkpt lat="43.94915" lon="4.80588">
        <ele>26.47</ele>
        <time>2019-05-29T10:58:21.000Z</time>
      </trkpt>
      <trkpt lat="43.94927" lon="4.8059">
        <ele>27.45</ele>
        <time>2019-05-29T10:58:26.000Z</time>
      </trkpt>
      <trkpt lat="43.94937" lon="4.80592">
        <ele>27.7</ele>
        <time>2019-05-29T10:58:32.000Z</time>
      </trkpt>
      <trkpt lat="43.94947" lon="4.80598">
        <ele>30.47</ele>
        <time>2019-05-29T10:58:37.000Z</time>
      </trkpt>
      <trkpt lat="43.94958" lon="4.80599">
        <ele>31.72</ele>
        <time>2019-05-29T10:58:44.000Z</time>
      </trkpt>
      <trkpt lat="43.94967" lon="4.80595">
        <ele>33.72</ele>
        <time>2019-05-29T10:58:54.000Z</time>
      </trkpt>
      <trkpt lat="43.94977" lon="4.80598">
        <ele>31.73</ele>
        <time>2019-05-29T10:59:00.000Z</time>
      </trkpt>
      <trkpt lat="43.94985" lon="4.80607">
        <ele>33.7</ele>
        <time>2019-05-29T10:59:07.000Z</time>
      </trkpt>
      <trkpt lat="43.94989" lon="4.80622">
        <ele>31.72</ele>
        <time>2019-05-29T10:59:12.000Z</time>
      </trkpt>
      <trkpt lat="43.94992" lon="4.80638">
        <ele>30.95</ele>
        <time>2019-05-29T10:59:17.000Z</time>
      </trkpt>
      <trkpt lat="43.95001" lon="4.80647">
        <ele>30.72</ele>
        <time>2019-05-29T10:59:22.000Z</time>
      </trkpt>
      <trkpt lat="43.95009" lon="4.80657">
        <ele>30.97</ele>
        <time>2019-05-29T10:59:27.000Z</time>
      </trkpt>
      <trkpt lat="43.95018" lon="4.80668">
        <ele>30.47</ele>
        <time>2019-05-29T10:59:32.000Z</time>
      </trkpt>
      <trkpt lat="43.95032" lon="4.80669">
        <ele>27.23</ele>
        <time>2019-05-29T10:59:37.000Z</time>
      </trkpt>
      <trkpt lat="43.95041" lon="4.80664">
        <ele>26.47</ele>
        <time>2019-05-29T10:59:42.000Z</time>
      </trkpt>
      <trkpt lat="43.95041" lon="4.8065">
        <ele>28.47</ele>
        <time>2019-05-29T10:59:47.000Z</time>
      </trkpt>
      <trkpt lat="43.95041" lon="4.80634">
        <ele>26.72</ele>
        <time>2019-05-29T10:59:53.000Z</time>
      </trkpt>
      <trkpt lat="43.95051" lon="4.80631">
        <ele>30.45</ele>
        <time>2019-05-29T11:00:09.000Z</time>
      </trkpt>
      <trkpt lat="43.95062" lon="4.80634">
        <ele>31.7</ele>
        <time>2019-05-29T11:00:17.000Z</time>
      </trkpt>
      <trkpt lat="43.95069" lon="4.80643">
        <ele>32.72</ele>
        <time>2019-05-29T11:00:22.000Z</time>
      </trkpt>
      <trkpt lat="43.9507" lon="4.80659">
        <ele>31.22</ele>
        <time>2019-05-29T11:00:27.000Z</time>
      </trkpt>
      <trkpt lat="43.95073" lon="4.80672">
        <ele>28.49</ele>
        <time>2019-05-29T11:00:32.000Z</time>
      </trkpt>
      <trkpt lat="43.95082" lon="4.80672">
        <ele>26.47</ele>
        <time>2019-05-29T11:01:26.000Z</time>
      </trkpt>
      <trkpt lat="43.9509" lon="4.80662">
        <ele>25.95</ele>
        <time>2019-05-29T11:01:32.000Z</time>
      </trkpt>
      <trkpt lat="43.95088" lon="4.80644">
        <ele>29.47</ele>
        <time>2019-05-29T11:01:37.000Z</time>
      </trkpt>
      <trkpt lat="43.95094" lon="4.80632">
        <ele>28.72</ele>
        <time>2019-05-29T11:01:42.000Z</time>
      </trkpt>
      <trkpt lat="43.95104" lon="4.80638">
        <ele>29.7</ele>
        <time>2019-05-29T11:01:47.000Z</time>
      </trkpt>
      <trkpt lat="43.95106" lon="4.8065">
        <ele>28</ele>
        <time>2019-05-29T11:01:52.000Z</time>
      </trkpt>
      <trkpt lat="43.95104" lon="4.80662">
        <ele>31.47</ele>
        <time>2019-05-29T11:01:58.000Z</time>
      </trkpt>
      <trkpt lat="43.95106" lon="4.80676">
        <ele>30.72</ele>
        <time>2019-05-29T11:02:34.000Z</time>
      </trkpt>
      <trkpt lat="43.95115" lon="4.8068">
        <ele>31.47</ele>
        <time>2019-05-29T11:02:54.000Z</time>
      </trkpt>
      <trkpt lat="43.95106" lon="4.80677">
        <ele>34.73</ele>
        <time>2019-05-29T11:03:24.000Z</time>
      </trkpt>
      <trkpt lat="43.951" lon="4.80689">
        <ele>36.47</ele>
        <time>2019-05-29T11:03:30.000Z</time>
      </trkpt>
      <trkpt lat="43.95112" lon="4.80696">
        <ele>36.47</ele>
        <time>2019-05-29T11:03:35.000Z</time>
      </trkpt>
      <trkpt lat="43.95123" lon="4.80696">
        <ele>36.7</ele>
        <time>2019-05-29T11:03:40.000Z</time>
      </trkpt>
      <trkpt lat="43.95135" lon="4.80693">
        <ele>36.22</ele>
        <time>2019-05-29T11:03:45.000Z</time>
      </trkpt>
      <trkpt lat="43.95148" lon="4.8069">
        <ele>38.72</ele>
        <time>2019-05-29T11:03:50.000Z</time>
      </trkpt>
      <trkpt lat="43.95162" lon="4.80688">
        <ele>36.45</ele>
        <time>2019-05-29T11:03:55.000Z</time>
      </trkpt>
      <trkpt lat="43.95172" lon="4.8069">
        <ele>37.72</ele>
        <time>2019-05-29T11:04:00.000Z</time>
      </trkpt>
      <trkpt lat="43.95183" lon="4.8069">
        <ele>39.69</ele>
        <time>2019-05-29T11:04:05.000Z</time>
      </trkpt>
      <trkpt lat="43.95196" lon="4.80686">
        <ele>39.7</ele>
        <time>2019-05-29T11:04:10.000Z</time>
      </trkpt>
      <trkpt lat="43.95207" lon="4.80684">
        <ele>40.97</ele>
        <time>2019-05-29T11:04:15.000Z</time>
      </trkpt>
      <trkpt lat="43.95218" lon="4.80682">
        <ele>42.48</ele>
        <time>2019-05-29T11:04:20.000Z</time>
      </trkpt>
      <trkpt lat="43.95228" lon="4.80686">
        <ele>42.72</ele>
        <time>2019-05-29T11:04:25.000Z</time>
      </trkpt>
      <trkpt lat="43.95224" lon="4.80702">
        <ele>41.72</ele>
        <time>2019-05-29T11:04:30.000Z</time>
      </trkpt>
      <trkpt lat="43.95211" lon="4.80706">
        <ele>42.47</ele>
        <time>2019-05-29T11:04:35.000Z</time>
      </trkpt>
      <trkpt lat="43.95199" lon="4.8071">
        <ele>42.72</ele>
        <time>2019-05-29T11:04:40.000Z</time>
      </trkpt>
      <trkpt lat="43.95187" lon="4.80715">
        <ele>43.47</ele>
        <time>2019-05-29T11:04:45.000Z</time>
      </trkpt>
      <trkpt lat="43.95176" lon="4.80717">
        <ele>43.72</ele>
        <time>2019-05-29T11:04:50.000Z</time>
      </trkpt>
      <trkpt lat="43.95165" lon="4.80719">
        <ele>44.72</ele>
        <time>2019-05-29T11:04:55.000Z</time>
      </trkpt>
      <trkpt lat="43.95164" lon="4.80704">
        <ele>45.73</ele>
        <time>2019-05-29T11:05:02.000Z</time>
      </trkpt>
      <trkpt lat="43.95157" lon="4.80697">
        <ele>43.44</ele>
        <time>2019-05-29T11:05:42.000Z</time>
      </trkpt>
      <trkpt lat="43.95148" lon="4.80704">
        <ele>42.97</ele>
        <time>2019-05-29T11:09:05.000Z</time>
      </trkpt>
      <trkpt lat="43.95152" lon="4.80715">
        <ele>43.72</ele>
        <time>2019-05-29T11:09:15.000Z</time>
      </trkpt>
      <trkpt lat="43.95162" lon="4.80716">
        <ele>44.72</ele>
        <time>2019-05-29T11:09:24.000Z</time>
      </trkpt>
      <trkpt lat="43.95172" lon="4.80716">
        <ele>44.72</ele>
        <time>2019-05-29T11:09:31.000Z</time>
      </trkpt>
      <trkpt lat="43.9518" lon="4.80725">
        <ele>45.7</ele>
        <time>2019-05-29T11:09:36.000Z</time>
      </trkpt>
      <trkpt lat="43.9518" lon="4.80743">
        <ele>46.47</ele>
        <time>2019-05-29T11:09:41.000Z</time>
      </trkpt>
      <trkpt lat="43.95181" lon="4.80761">
        <ele>46.72</ele>
        <time>2019-05-29T11:09:46.000Z</time>
      </trkpt>
      <trkpt lat="43.95182" lon="4.80781">
        <ele>46.72</ele>
        <time>2019-05-29T11:09:51.000Z</time>
      </trkpt>
      <trkpt lat="43.95182" lon="4.808">
        <ele>47.72</ele>
        <time>2019-05-29T11:09:56.000Z</time>
      </trkpt>
      <trkpt lat="43.95183" lon="4.80817">
        <ele>48.72</ele>
        <time>2019-05-29T11:10:01.000Z</time>
      </trkpt>
      <trkpt lat="43.95186" lon="4.8083">
        <ele>48.72</ele>
        <time>2019-05-29T11:10:06.000Z</time>
      </trkpt>
      <trkpt lat="43.95194" lon="4.8084">
        <ele>48.72</ele>
        <time>2019-05-29T11:10:12.000Z</time>
      </trkpt>
      <trkpt lat="43.95204" lon="4.80839">
        <ele>45.7</ele>
        <time>2019-05-29T11:10:32.000Z</time>
      </trkpt>
      <trkpt lat="43.95216" lon="4.8084">
        <ele>45.72</ele>
        <time>2019-05-29T11:10:37.000Z</time>
      </trkpt>
      <trkpt lat="43.95226" lon="4.8084">
        <ele>45.7</ele>
        <time>2019-05-29T11:10:42.000Z</time>
      </trkpt>
      <trkpt lat="43.95236" lon="4.80829">
        <ele>46.72</ele>
        <time>2019-05-29T11:10:47.000Z</time>
      </trkpt>
      <trkpt lat="43.95243" lon="4.80817">
        <ele>49.47</ele>
        <time>2019-05-29T11:10:52.000Z</time>
      </trkpt>
      <trkpt lat="43.95252" lon="4.80808">
        <ele>52.47</ele>
        <time>2019-05-29T11:10:58.000Z</time>
      </trkpt>
      <trkpt lat="43.9526" lon="4.80804">
        <ele>51.5</ele>
        <time>2019-05-29T11:11:03.000Z</time>
      </trkpt>
      <trkpt lat="43.95272" lon="4.80799">
        <ele>54.7</ele>
        <time>2019-05-29T11:11:08.000Z</time>
      </trkpt>
      <trkpt lat="43.95283" lon="4.80793">
        <ele>54.47</ele>
        <time>2019-05-29T11:11:13.000Z</time>
      </trkpt>
      <trkpt lat="43.95294" lon="4.80786">
        <ele>54.7</ele>
        <time>2019-05-29T11:11:18.000Z</time>
      </trkpt>
      <trkpt lat="43.95307" lon="4.80792">
        <ele>53.73</ele>
        <time>2019-05-29T11:11:23.000Z</time>
      </trkpt>
      <trkpt lat="43.95315" lon="4.80798">
        <ele>53.72</ele>
        <time>2019-05-29T11:11:28.000Z</time>
      </trkpt>
      <trkpt lat="43.95325" lon="4.80797">
        <ele>53.47</ele>
        <time>2019-05-29T11:11:33.000Z</time>
      </trkpt>
      <trkpt lat="43.95333" lon="4.80802">
        <ele>52.97</ele>
        <time>2019-05-29T11:12:17.000Z</time>
      </trkpt>
      <trkpt lat="43.9533" lon="4.80791">
        <ele>50.97</ele>
        <time>2019-05-29T11:12:38.000Z</time>
      </trkpt>
      <trkpt lat="43.95339" lon="4.80783">
        <ele>51.72</ele>
        <time>2019-05-29T11:12:44.000Z</time>
      </trkpt>
      <trkpt lat="43.95344" lon="4.80771">
        <ele>52.72</ele>
        <time>2019-05-29T11:12:50.000Z</time>
      </trkpt>
      <trkpt lat="43.95352" lon="4.80761">
        <ele>53.72</ele>
        <time>2019-05-29T11:12:55.000Z</time>
      </trkpt>
      <trkpt lat="43.95343" lon="4.80761">
        <ele>52.48</ele>
        <time>2019-05-29T11:13:18.000Z</time>
      </trkpt>
      <trkpt lat="43.95335" lon="4.80751">
        <ele>53.72</ele>
        <time>2019-05-29T11:13:23.000Z</time>
      </trkpt>
      <trkpt lat="43.9533" lon="4.80739">
        <ele>53.47</ele>
        <time>2019-05-29T11:13:29.000Z</time>
      </trkpt>
      <trkpt lat="43.9532" lon="4.80742">
        <ele>52.41</ele>
        <time>2019-05-29T11:14:16.000Z</time>
      </trkpt>
      <trkpt lat="43.9531" lon="4.80746">
        <ele>55.7</ele>
        <time>2019-05-29T11:14:21.000Z</time>
      </trkpt>
      <trkpt lat="43.95296" lon="4.8075">
        <ele>54.75</ele>
        <time>2019-05-29T11:14:26.000Z</time>
      </trkpt>
      <trkpt lat="43.95282" lon="4.80748">
        <ele>55.72</ele>
        <time>2019-05-29T11:14:31.000Z</time>
      </trkpt>
      <trkpt lat="43.95273" lon="4.80755">
        <ele>54.7</ele>
        <time>2019-05-29T11:14:36.000Z</time>
      </trkpt>
      <trkpt lat="43.95279" lon="4.80743">
        <ele>53.22</ele>
        <time>2019-05-29T11:15:14.000Z</time>
      </trkpt>
      <trkpt lat="43.95284" lon="4.8073">
        <ele>55.7</ele>
        <time>2019-05-29T11:15:19.000Z</time>
      </trkpt>
      <trkpt lat="43.95275" lon="4.80724">
        <ele>52.72</ele>
        <time>2019-05-29T11:15:44.000Z</time>
      </trkpt>
      <trkpt lat="43.9525" lon="4.80725">
        <ele>52.72</ele>
        <time>2019-05-29T11:15:49.000Z</time>
      </trkpt>
      <trkpt lat="43.9522" lon="4.80729">
        <ele>50.73</ele>
        <time>2019-05-29T11:15:54.000Z</time>
      </trkpt>
      <trkpt lat="43.95196" lon="4.80727">
        <ele>47.97</ele>
        <time>2019-05-29T11:15:59.000Z</time>
      </trkpt>
      <trkpt lat="43.95184" lon="4.80741">
        <ele>45.73</ele>
        <time>2019-05-29T11:16:04.000Z</time>
      </trkpt>
      <trkpt lat="43.95183" lon="4.80758">
        <ele>46.47</ele>
        <time>2019-05-29T11:16:09.000Z</time>
      </trkpt>
      <trkpt lat="43.95179" lon="4.80746">
        <ele>46.72</ele>
        <time>2019-05-29T11:16:17.000Z</time>
      </trkpt>
      <trkpt lat="43.95181" lon="4.80722">
        <ele>46.97</ele>
        <time>2019-05-29T11:16:22.000Z</time>
      </trkpt>
      <trkpt lat="43.95193" lon="4.80707">
        <ele>44.72</ele>
        <time>2019-05-29T11:16:27.000Z</time>
      </trkpt>
      <trkpt lat="43.95206" lon="4.80704">
        <ele>44.7</ele>
        <time>2019-05-29T11:16:32.000Z</time>
      </trkpt>
      <trkpt lat="43.95211" lon="4.80714">
        <ele>38.72</ele>
        <time>2019-05-29T11:16:59.000Z</time>
      </trkpt>
      <trkpt lat="43.95212" lon="4.8071">
        <ele>39.72</ele>
        <time>2019-05-29T11:20:14.000Z</time>
      </trkpt>
      <trkpt lat="43.95201" lon="4.80675">
        <ele>43.72</ele>
        <time>2019-05-29T12:00:27.000Z</time>
      </trkpt>
      <trkpt lat="43.95191" lon="4.80682">
        <ele>41.21</ele>
        <time>2019-05-29T12:00:35.000Z</time>
      </trkpt>
      <trkpt lat="43.95169" lon="4.80687">
        <ele>41.72</ele>
        <time>2019-05-29T12:00:40.000Z</time>
      </trkpt>
      <trkpt lat="43.95148" lon="4.80689">
        <ele>41.97</ele>
        <time>2019-05-29T12:00:45.000Z</time>
      </trkpt>
      <trkpt lat="43.95128" lon="4.80687">
        <ele>41.72</ele>
        <time>2019-05-29T12:00:50.000Z</time>
      </trkpt>
      <trkpt lat="43.95111" lon="4.80693">
        <ele>39.72</ele>
        <time>2019-05-29T12:00:55.000Z</time>
      </trkpt>
      <trkpt lat="43.95099" lon="4.80697">
        <ele>37.73</ele>
        <time>2019-05-29T12:01:00.000Z</time>
      </trkpt>
      <trkpt lat="43.951" lon="4.80684">
        <ele>39.7</ele>
        <time>2019-05-29T12:01:45.000Z</time>
      </trkpt>
      <trkpt lat="43.95099" lon="4.80665">
        <ele>37.72</ele>
        <time>2019-05-29T12:01:50.000Z</time>
      </trkpt>
      <trkpt lat="43.951" lon="4.80648">
        <ele>37.97</ele>
        <time>2019-05-29T12:01:55.000Z</time>
      </trkpt>
      <trkpt lat="43.95095" lon="4.80635">
        <ele>38.7</ele>
        <time>2019-05-29T12:02:02.000Z</time>
      </trkpt>
      <trkpt lat="43.95086" lon="4.80631">
        <ele>38.72</ele>
        <time>2019-05-29T12:02:07.000Z</time>
      </trkpt>
      <trkpt lat="43.9508" lon="4.80621">
        <ele>38.7</ele>
        <time>2019-05-29T12:02:23.000Z</time>
      </trkpt>
      <trkpt lat="43.95075" lon="4.80608">
        <ele>41.47</ele>
        <time>2019-05-29T12:02:28.000Z</time>
      </trkpt>
      <trkpt lat="43.95082" lon="4.8059">
        <ele>34.2</ele>
        <time>2019-05-29T12:02:33.000Z</time>
      </trkpt>
      <trkpt lat="43.95081" lon="4.80574">
        <ele>31.42</ele>
        <time>2019-05-29T12:02:41.000Z</time>
      </trkpt>
      <trkpt lat="43.95079" lon="4.80562">
        <ele>37.45</ele>
        <time>2019-05-29T12:02:56.000Z</time>
      </trkpt>
      <trkpt lat="43.95088" lon="4.80557">
        <ele>41.7</ele>
        <time>2019-05-29T12:03:15.000Z</time>
      </trkpt>
      <trkpt lat="43.95102" lon="4.80558">
        <ele>42.7</ele>
        <time>2019-05-29T12:03:20.000Z</time>
      </trkpt>
      <trkpt lat="43.95116" lon="4.80563">
        <ele>42.72</ele>
        <time>2019-05-29T12:03:25.000Z</time>
      </trkpt>
      <trkpt lat="43.95132" lon="4.80569">
        <ele>35.22</ele>
        <time>2019-05-29T12:03:30.000Z</time>
      </trkpt>
      <trkpt lat="43.95149" lon="4.80569">
        <ele>37.47</ele>
        <time>2019-05-29T12:03:35.000Z</time>
      </trkpt>
      <trkpt lat="43.95161" lon="4.80569">
        <ele>39.47</ele>
        <time>2019-05-29T12:03:40.000Z</time>
      </trkpt>
      <trkpt lat="43.95172" lon="4.8057">
        <ele>39.72</ele>
        <time>2019-05-29T12:03:45.000Z</time>
      </trkpt>
      <trkpt lat="43.95181" lon="4.80568">
        <ele>41.46</ele>
        <time>2019-05-29T12:03:53.000Z</time>
      </trkpt>
      <trkpt lat="43.95188" lon="4.80559">
        <ele>39.23</ele>
        <time>2019-05-29T12:04:01.000Z</time>
      </trkpt>
      <trkpt lat="43.95194" lon="4.80543">
        <ele>27.22</ele>
        <time>2019-05-29T12:04:06.000Z</time>
      </trkpt>
      <trkpt lat="43.95196" lon="4.80529">
        <ele>30.45</ele>
        <time>2019-05-29T12:04:12.000Z</time>
      </trkpt>
      <trkpt lat="43.95188" lon="4.80511">
        <ele>23.58</ele>
        <time>2019-05-29T12:04:17.000Z</time>
      </trkpt>
      <trkpt lat="43.95169" lon="4.80496">
        <ele>30.24</ele>
        <time>2019-05-29T12:04:22.000Z</time>
      </trkpt>
      <trkpt lat="43.95152" lon="4.80479">
        <ele>22.48</ele>
        <time>2019-05-29T12:04:27.000Z</time>
      </trkpt>
      <trkpt lat="43.95137" lon="4.80458">
        <ele>21.47</ele>
        <time>2019-05-29T12:04:32.000Z</time>
      </trkpt>
      <trkpt lat="43.95121" lon="4.80438">
        <ele>19.72</ele>
        <time>2019-05-29T12:04:37.000Z</time>
      </trkpt>
      <trkpt lat="43.95106" lon="4.80424">
        <ele>19.72</ele>
        <time>2019-05-29T12:04:42.000Z</time>
      </trkpt>
      <trkpt lat="43.95092" lon="4.8041">
        <ele>19.7</ele>
        <time>2019-05-29T12:04:47.000Z</time>
      </trkpt>
      <trkpt lat="43.95076" lon="4.80395">
        <ele>19.72</ele>
        <time>2019-05-29T12:04:52.000Z</time>
      </trkpt>
      <trkpt lat="43.95063" lon="4.8038">
        <ele>20.47</ele>
        <time>2019-05-29T12:04:57.000Z</time>
      </trkpt>
      <trkpt lat="43.95064" lon="4.80367">
        <ele>20.73</ele>
        <time>2019-05-29T12:05:04.000Z</time>
      </trkpt>
      <trkpt lat="43.95074" lon="4.80349">
        <ele>21.47</ele>
        <time>2019-05-29T12:05:09.000Z</time>
      </trkpt>
      <trkpt lat="43.95085" lon="4.80327">
        <ele>24.47</ele>
        <time>2019-05-29T12:05:14.000Z</time>
      </trkpt>
      <trkpt lat="43.95095" lon="4.80306">
        <ele>22.72</ele>
        <time>2019-05-29T12:05:19.000Z</time>
      </trkpt>
      <trkpt lat="43.95094" lon="4.80287">
        <ele>25.7</ele>
        <time>2019-05-29T12:05:24.000Z</time>
      </trkpt>
      <trkpt lat="43.95076" lon="4.80277">
        <ele>26.44</ele>
        <time>2019-05-29T12:05:29.000Z</time>
      </trkpt>
      <trkpt lat="43.95059" lon="4.80267">
        <ele>26.7</ele>
        <time>2019-05-29T12:05:34.000Z</time>
      </trkpt>
      <trkpt lat="43.95044" lon="4.80258">
        <ele>27.49</ele>
        <time>2019-05-29T12:05:39.000Z</time>
      </trkpt>
      <trkpt lat="43.95035" lon="4.80254">
        <ele>31.72</ele>
        <time>2019-05-29T12:05:58.000Z</time>
      </trkpt>
      <trkpt lat="43.95032" lon="4.80241">
        <ele>26.77</ele>
        <time>2019-05-29T12:06:04.000Z</time>
      </trkpt>
      <trkpt lat="43.95042" lon="4.80239">
        <ele>27.49</ele>
        <time>2019-05-29T12:06:11.000Z</time>
      </trkpt>
      <trkpt lat="43.95052" lon="4.8024">
        <ele>27.45</ele>
        <time>2019-05-29T12:06:16.000Z</time>
      </trkpt>
      <trkpt lat="43.95063" lon="4.80247">
        <ele>26.7</ele>
        <time>2019-05-29T12:06:21.000Z</time>
      </trkpt>
      <trkpt lat="43.95072" lon="4.80245">
        <ele>28.97</ele>
        <time>2019-05-29T12:06:26.000Z</time>
      </trkpt>
      <trkpt lat="43.95084" lon="4.80232">
        <ele>28.7</ele>
        <time>2019-05-29T12:06:31.000Z</time>
      </trkpt>
      <trkpt lat="43.95091" lon="4.80215">
        <ele>27.72</ele>
        <time>2019-05-29T12:06:36.000Z</time>
      </trkpt>
      <trkpt lat="43.95094" lon="4.80193">
        <ele>25.97</ele>
        <time>2019-05-29T12:06:41.000Z</time>
      </trkpt>
      <trkpt lat="43.951" lon="4.80173">
        <ele>25.72</ele>
        <time>2019-05-29T12:06:46.000Z</time>
      </trkpt>
      <trkpt lat="43.95106" lon="4.80153">
        <ele>25.72</ele>
        <time>2019-05-29T12:06:51.000Z</time>
      </trkpt>
      <trkpt lat="43.95112" lon="4.80135">
        <ele>27.7</ele>
        <time>2019-05-29T12:06:56.000Z</time>
      </trkpt>
      <trkpt lat="43.95118" lon="4.80117">
        <ele>27.47</ele>
        <time>2019-05-29T12:07:01.000Z</time>
      </trkpt>
      <trkpt lat="43.95121" lon="4.80103">
        <ele>27.47</ele>
        <time>2019-05-29T12:07:40.000Z</time>
      </trkpt>
      <trkpt lat="43.95126" lon="4.80087">
        <ele>27.72</ele>
        <time>2019-05-29T12:07:45.000Z</time>
      </trkpt>
      <trkpt lat="43.9513" lon="4.80071">
        <ele>28.72</ele>
        <time>2019-05-29T12:07:50.000Z</time>
      </trkpt>
      <trkpt lat="43.95135" lon="4.80057">
        <ele>27.7</ele>
        <time>2019-05-29T12:07:55.000Z</time>
      </trkpt>
      <trkpt lat="43.9514" lon="4.80042">
        <ele>28.72</ele>
        <time>2019-05-29T12:08:00.000Z</time>
      </trkpt>
      <trkpt lat="43.95144" lon="4.80028">
        <ele>29.47</ele>
        <time>2019-05-29T12:08:05.000Z</time>
      </trkpt>
      <trkpt lat="43.95148" lon="4.80014">
        <ele>30.47</ele>
        <time>2019-05-29T12:08:26.000Z</time>
      </trkpt>
      <trkpt lat="43.95153" lon="4.79995">
        <ele>30.72</ele>
        <time>2019-05-29T12:08:31.000Z</time>
      </trkpt>
      <trkpt lat="43.95159" lon="4.79974">
        <ele>28.44</ele>
        <time>2019-05-29T12:08:36.000Z</time>
      </trkpt>
      <trkpt lat="43.95165" lon="4.79952">
        <ele>28.95</ele>
        <time>2019-05-29T12:08:41.000Z</time>
      </trkpt>
      <trkpt lat="43.95172" lon="4.79928">
        <ele>27.46</ele>
        <time>2019-05-29T12:08:46.000Z</time>
      </trkpt>
      <trkpt lat="43.95181" lon="4.79902">
        <ele>28.72</ele>
        <time>2019-05-29T12:08:51.000Z</time>
      </trkpt>
      <trkpt lat="43.95189" lon="4.79873">
        <ele>28.72</ele>
        <time>2019-05-29T12:08:56.000Z</time>
      </trkpt>
      <trkpt lat="43.95197" lon="4.79845">
        <ele>28.46</ele>
        <time>2019-05-29T12:09:01.000Z</time>
      </trkpt>
      <trkpt lat="43.95205" lon="4.79818">
        <ele>28.97</ele>
        <time>2019-05-29T12:09:06.000Z</time>
      </trkpt>
      <trkpt lat="43.95213" lon="4.7979">
        <ele>26.69</ele>
        <time>2019-05-29T12:09:11.000Z</time>
      </trkpt>
      <trkpt lat="43.95223" lon="4.79758">
        <ele>26.72</ele>
        <time>2019-05-29T12:09:16.000Z</time>
      </trkpt>
      <trkpt lat="43.95234" lon="4.79725">
        <ele>23.97</ele>
        <time>2019-05-29T12:09:21.000Z</time>
      </trkpt>
      <trkpt lat="43.95245" lon="4.79697">
        <ele>23.73</ele>
        <time>2019-05-29T12:09:26.000Z</time>
      </trkpt>
      <trkpt lat="43.95257" lon="4.79673">
        <ele>22.71</ele>
        <time>2019-05-29T12:09:31.000Z</time>
      </trkpt>
      <trkpt lat="43.95265" lon="4.79647">
        <ele>24.47</ele>
        <time>2019-05-29T12:09:36.000Z</time>
      </trkpt>
      <trkpt lat="43.95269" lon="4.79619">
        <ele>25.7</ele>
        <time>2019-05-29T12:09:41.000Z</time>
      </trkpt>
      <trkpt lat="43.95275" lon="4.79589">
        <ele>25.73</ele>
        <time>2019-05-29T12:09:46.000Z</time>
      </trkpt>
      <trkpt lat="43.95285" lon="4.79558">
        <ele>26.7</ele>
        <time>2019-05-29T12:09:51.000Z</time>
      </trkpt>
      <trkpt lat="43.95296" lon="4.79527">
        <ele>28.72</ele>
        <time>2019-05-29T12:09:56.000Z</time>
      </trkpt>
      <trkpt lat="43.95306" lon="4.79503">
        <ele>29.47</ele>
        <time>2019-05-29T12:10:01.000Z</time>
      </trkpt>
      <trkpt lat="43.95314" lon="4.7948">
        <ele>28.72</ele>
        <time>2019-05-29T12:10:06.000Z</time>
      </trkpt>
      <trkpt lat="43.95323" lon="4.79459">
        <ele>27.49</ele>
        <time>2019-05-29T12:10:11.000Z</time>
      </trkpt>
      <trkpt lat="43.95331" lon="4.79436">
        <ele>28.7</ele>
        <time>2019-05-29T12:10:16.000Z</time>
      </trkpt>
      <trkpt lat="43.95339" lon="4.79413">
        <ele>28.72</ele>
        <time>2019-05-29T12:10:21.000Z</time>
      </trkpt>
      <trkpt lat="43.95347" lon="4.79391">
        <ele>28.72</ele>
        <time>2019-05-29T12:10:26.000Z</time>
      </trkpt>
      <trkpt lat="43.95355" lon="4.79369">
        <ele>28.72</ele>
        <time>2019-05-29T12:10:31.000Z</time>
      </trkpt>
      <trkpt lat="43.95364" lon="4.79346">
        <ele>27.97</ele>
        <time>2019-05-29T12:10:36.000Z</time>
      </trkpt>
      <trkpt lat="43.95372" lon="4.79327">
        <ele>28.7</ele>
        <time>2019-05-29T12:10:41.000Z</time>
      </trkpt>
      <trkpt lat="43.9538" lon="4.79308">
        <ele>28.72</ele>
        <time>2019-05-29T12:10:46.000Z</time>
      </trkpt>
      <trkpt lat="43.95388" lon="4.79287">
        <ele>28.72</ele>
        <time>2019-05-29T12:10:51.000Z</time>
      </trkpt>
      <trkpt lat="43.95398" lon="4.79264">
        <ele>28.73</ele>
        <time>2019-05-29T12:10:56.000Z</time>
      </trkpt>
      <trkpt lat="43.95409" lon="4.79234">
        <ele>27.73</ele>
        <time>2019-05-29T12:11:01.000Z</time>
      </trkpt>
      <trkpt lat="43.95421" lon="4.79205">
        <ele>26.47</ele>
        <time>2019-05-29T12:11:06.000Z</time>
      </trkpt>
      <trkpt lat="43.95431" lon="4.792">
        <ele>25.72</ele>
        <time>2019-05-29T12:11:11.000Z</time>
      </trkpt>
      <trkpt lat="43.95447" lon="4.79187">
        <ele>23.95</ele>
        <time>2019-05-29T12:11:16.000Z</time>
      </trkpt>
      <trkpt lat="43.95453" lon="4.79169">
        <ele>23.72</ele>
        <time>2019-05-29T12:11:21.000Z</time>
      </trkpt>
      <trkpt lat="43.9545" lon="4.79147">
        <ele>24.45</ele>
        <time>2019-05-29T12:11:26.000Z</time>
      </trkpt>
      <trkpt lat="43.95456" lon="4.79127">
        <ele>26.47</ele>
        <time>2019-05-29T12:11:31.000Z</time>
      </trkpt>
      <trkpt lat="43.95463" lon="4.79119">
        <ele>26.24</ele>
        <time>2019-05-29T12:12:30.000Z</time>
      </trkpt>
      <trkpt lat="43.95472" lon="4.79098">
        <ele>28.22</ele>
        <time>2019-05-29T12:12:35.000Z</time>
      </trkpt>
      <trkpt lat="43.95481" lon="4.79074">
        <ele>30.45</ele>
        <time>2019-05-29T12:12:40.000Z</time>
      </trkpt>
      <trkpt lat="43.95486" lon="4.79051">
        <ele>33.47</ele>
        <time>2019-05-29T12:12:45.000Z</time>
      </trkpt>
      <trkpt lat="43.95488" lon="4.79028">
        <ele>34.72</ele>
        <time>2019-05-29T12:12:50.000Z</time>
      </trkpt>
      <trkpt lat="43.95485" lon="4.79004">
        <ele>34.2</ele>
        <time>2019-05-29T12:12:55.000Z</time>
      </trkpt>
      <trkpt lat="43.95479" lon="4.78982">
        <ele>32.98</ele>
        <time>2019-05-29T12:13:00.000Z</time>
      </trkpt>
      <trkpt lat="43.95478" lon="4.7896">
        <ele>31.97</ele>
        <time>2019-05-29T12:13:05.000Z</time>
      </trkpt>
      <trkpt lat="43.95475" lon="4.78943">
        <ele>32.7</ele>
        <time>2019-05-29T12:13:10.000Z</time>
      </trkpt>
      <trkpt lat="43.95471" lon="4.78928">
        <ele>32.72</ele>
        <time>2019-05-29T12:13:15.000Z</time>
      </trkpt>
      <trkpt lat="43.95463" lon="4.78914">
        <ele>35.66</ele>
        <time>2019-05-29T12:13:20.000Z</time>
      </trkpt>
      <trkpt lat="43.95458" lon="4.78897">
        <ele>35.72</ele>
        <time>2019-05-29T12:13:25.000Z</time>
      </trkpt>
      <trkpt lat="43.95454" lon="4.78876">
        <ele>36.95</ele>
        <time>2019-05-29T12:13:30.000Z</time>
      </trkpt>
      <trkpt lat="43.9545" lon="4.78856">
        <ele>38.71</ele>
        <time>2019-05-29T12:13:35.000Z</time>
      </trkpt>
      <trkpt lat="43.95446" lon="4.78835">
        <ele>37.47</ele>
        <time>2019-05-29T12:13:40.000Z</time>
      </trkpt>
      <trkpt lat="43.95441" lon="4.78814">
        <ele>38.48</ele>
        <time>2019-05-29T12:13:45.000Z</time>
      </trkpt>
      <trkpt lat="43.95435" lon="4.78791">
        <ele>39.47</ele>
        <time>2019-05-29T12:13:50.000Z</time>
      </trkpt>
      <trkpt lat="43.9543" lon="4.78767">
        <ele>40.47</ele>
        <time>2019-05-29T12:13:55.000Z</time>
      </trkpt>
      <trkpt lat="43.95426" lon="4.78743">
        <ele>43.72</ele>
        <time>2019-05-29T12:14:00.000Z</time>
      </trkpt>
      <trkpt lat="43.95421" lon="4.78721">
        <ele>44.73</ele>
        <time>2019-05-29T12:14:05.000Z</time>
      </trkpt>
      <trkpt lat="43.95416" lon="4.78698">
        <ele>46.72</ele>
        <time>2019-05-29T12:14:10.000Z</time>
      </trkpt>
      <trkpt lat="43.95409" lon="4.78677">
        <ele>45.72</ele>
        <time>2019-05-29T12:14:15.000Z</time>
      </trkpt>
      <trkpt lat="43.95401" lon="4.78658">
        <ele>46.71</ele>
        <time>2019-05-29T12:14:20.000Z</time>
      </trkpt>
      <trkpt lat="43.95393" lon="4.78639">
        <ele>45.49</ele>
        <time>2019-05-29T12:14:25.000Z</time>
      </trkpt>
      <trkpt lat="43.95386" lon="4.78621">
        <ele>46.72</ele>
        <time>2019-05-29T12:14:30.000Z</time>
      </trkpt>
      <trkpt lat="43.95378" lon="4.78603">
        <ele>46.71</ele>
        <time>2019-05-29T12:14:35.000Z</time>
      </trkpt>
      <trkpt lat="43.9537" lon="4.78585">
        <ele>44.75</ele>
        <time>2019-05-29T12:14:40.000Z</time>
      </trkpt>
      <trkpt lat="43.95363" lon="4.78566">
        <ele>45.72</ele>
        <time>2019-05-29T12:14:45.000Z</time>
      </trkpt>
      <trkpt lat="43.95357" lon="4.78549">
        <ele>46.71</ele>
        <time>2019-05-29T12:14:50.000Z</time>
      </trkpt>
      <trkpt lat="43.9535" lon="4.78532">
        <ele>47.47</ele>
        <time>2019-05-29T12:14:55.000Z</time>
      </trkpt>
      <trkpt lat="43.95346" lon="4.78511">
        <ele>48.47</ele>
        <time>2019-05-29T12:15:00.000Z</time>
      </trkpt>
      <trkpt lat="43.95345" lon="4.7849">
        <ele>51.72</ele>
        <time>2019-05-29T12:15:05.000Z</time>
      </trkpt>
      <trkpt lat="43.95344" lon="4.78466">
        <ele>51.72</ele>
        <time>2019-05-29T12:15:10.000Z</time>
      </trkpt>
      <trkpt lat="43.95344" lon="4.78441">
        <ele>51.72</ele>
        <time>2019-05-29T12:15:15.000Z</time>
      </trkpt>
      <trkpt lat="43.95346" lon="4.78418">
        <ele>53.71</ele>
        <time>2019-05-29T12:15:20.000Z</time>
      </trkpt>
      <trkpt lat="43.9535" lon="4.78394">
        <ele>54.72</ele>
        <time>2019-05-29T12:15:25.000Z</time>
      </trkpt>
      <trkpt lat="43.95358" lon="4.78372">
        <ele>54.72</ele>
        <time>2019-05-29T12:15:30.000Z</time>
      </trkpt>
      <trkpt lat="43.95367" lon="4.78352">
        <ele>54.72</ele>
        <time>2019-05-29T12:15:35.000Z</time>
      </trkpt>
      <trkpt lat="43.95379" lon="4.78333">
        <ele>56.72</ele>
        <time>2019-05-29T12:15:40.000Z</time>
      </trkpt>
      <trkpt lat="43.95388" lon="4.78322">
        <ele>57.72</ele>
        <time>2019-05-29T12:15:45.000Z</time>
      </trkpt>
      <trkpt lat="43.95397" lon="4.78317">
        <ele>59.72</ele>
        <time>2019-05-29T12:17:24.000Z</time>
      </trkpt>
      <trkpt lat="43.95408" lon="4.7831">
        <ele>59.72</ele>
        <time>2019-05-29T12:17:29.000Z</time>
      </trkpt>
      <trkpt lat="43.9542" lon="4.78307">
        <ele>59.72</ele>
        <time>2019-05-29T12:17:34.000Z</time>
      </trkpt>
      <trkpt lat="43.95434" lon="4.78302">
        <ele>60.47</ele>
        <time>2019-05-29T12:17:39.000Z</time>
      </trkpt>
      <trkpt lat="43.9545" lon="4.78299">
        <ele>62.46</ele>
        <time>2019-05-29T12:17:44.000Z</time>
      </trkpt>
      <trkpt lat="43.95466" lon="4.78302">
        <ele>63.7</ele>
        <time>2019-05-29T12:17:49.000Z</time>
      </trkpt>
      <trkpt lat="43.95481" lon="4.78312">
        <ele>62.72</ele>
        <time>2019-05-29T12:17:54.000Z</time>
      </trkpt>
      <trkpt lat="43.95495" lon="4.78325">
        <ele>63.72</ele>
        <time>2019-05-29T12:17:59.000Z</time>
      </trkpt>
      <trkpt lat="43.95508" lon="4.78336">
        <ele>64.49</ele>
        <time>2019-05-29T12:18:04.000Z</time>
      </trkpt>
      <trkpt lat="43.95516" lon="4.78344">
        <ele>64.74</ele>
        <time>2019-05-29T12:18:09.000Z</time>
      </trkpt>
      <trkpt lat="43.95516" lon="4.78328">
        <ele>65.72</ele>
        <time>2019-05-29T12:18:33.000Z</time>
      </trkpt>
      <trkpt lat="43.9549" lon="4.78309">
        <ele>65.7</ele>
        <time>2019-05-29T12:18:38.000Z</time>
      </trkpt>
      <trkpt lat="43.95462" lon="4.78292">
        <ele>63.74</ele>
        <time>2019-05-29T12:18:43.000Z</time>
      </trkpt>
      <trkpt lat="43.95425" lon="4.7829">
        <ele>61.74</ele>
        <time>2019-05-29T12:18:48.000Z</time>
      </trkpt>
      <trkpt lat="43.95387" lon="4.78313">
        <ele>60.71</ele>
        <time>2019-05-29T12:18:53.000Z</time>
      </trkpt>
      <trkpt lat="43.95357" lon="4.78358">
        <ele>58.99</ele>
        <time>2019-05-29T12:18:58.000Z</time>
      </trkpt>
      <trkpt lat="43.9534" lon="4.78416">
        <ele>56.74</ele>
        <time>2019-05-29T12:19:03.000Z</time>
      </trkpt>
      <trkpt lat="43.95337" lon="4.78475">
        <ele>53.74</ele>
        <time>2019-05-29T12:19:08.000Z</time>
      </trkpt>
      <trkpt lat="43.95337" lon="4.78515">
        <ele>51.72</ele>
        <time>2019-05-29T12:19:13.000Z</time>
      </trkpt>
      <trkpt lat="43.95338" lon="4.78528">
        <ele>52.71</ele>
        <time>2019-05-29T12:19:32.000Z</time>
      </trkpt>
      <trkpt lat="43.95344" lon="4.78539">
        <ele>49.97</ele>
        <time>2019-05-29T12:19:39.000Z</time>
      </trkpt>
      <trkpt lat="43.95356" lon="4.7857">
        <ele>48.72</ele>
        <time>2019-05-29T12:19:44.000Z</time>
      </trkpt>
      <trkpt lat="43.95373" lon="4.78605">
        <ele>46.72</ele>
        <time>2019-05-29T12:19:49.000Z</time>
      </trkpt>
      <trkpt lat="43.9539" lon="4.78649">
        <ele>45.72</ele>
        <time>2019-05-29T12:19:54.000Z</time>
      </trkpt>
      <trkpt lat="43.95408" lon="4.78698">
        <ele>42.74</ele>
        <time>2019-05-29T12:19:59.000Z</time>
      </trkpt>
      <trkpt lat="43.95419" lon="4.78745">
        <ele>41.72</ele>
        <time>2019-05-29T12:20:04.000Z</time>
      </trkpt>
      <trkpt lat="43.95432" lon="4.78793">
        <ele>39.97</ele>
        <time>2019-05-29T12:20:09.000Z</time>
      </trkpt>
      <trkpt lat="43.95442" lon="4.78842">
        <ele>36.97</ele>
        <time>2019-05-29T12:20:14.000Z</time>
      </trkpt>
      <trkpt lat="43.95453" lon="4.78892">
        <ele>34.97</ele>
        <time>2019-05-29T12:20:19.000Z</time>
      </trkpt>
      <trkpt lat="43.95456" lon="4.78925">
        <ele>34.47</ele>
        <time>2019-05-29T12:20:24.000Z</time>
      </trkpt>
      <trkpt lat="43.95446" lon="4.78929">
        <ele>39.49</ele>
        <time>2019-05-29T12:21:13.000Z</time>
      </trkpt>
      <trkpt lat="43.95439" lon="4.7892">
        <ele>40.49</ele>
        <time>2019-05-29T12:21:18.000Z</time>
      </trkpt>
      <trkpt lat="43.95429" lon="4.78913">
        <ele>39.96</ele>
        <time>2019-05-29T12:21:23.000Z</time>
      </trkpt>
      <trkpt lat="43.95417" lon="4.78904">
        <ele>38.97</ele>
        <time>2019-05-29T12:21:28.000Z</time>
      </trkpt>
      <trkpt lat="43.95405" lon="4.78898">
        <ele>40.45</ele>
        <time>2019-05-29T12:21:33.000Z</time>
      </trkpt>
      <trkpt lat="43.95393" lon="4.78891">
        <ele>42.7</ele>
        <time>2019-05-29T12:21:38.000Z</time>
      </trkpt>
      <trkpt lat="43.95383" lon="4.78884">
        <ele>42.72</ele>
        <time>2019-05-29T12:21:43.000Z</time>
      </trkpt>
      <trkpt lat="43.95371" lon="4.78879">
        <ele>43.7</ele>
        <time>2019-05-29T12:21:48.000Z</time>
      </trkpt>
      <trkpt lat="43.95359" lon="4.78874">
        <ele>43.72</ele>
        <time>2019-05-29T12:21:53.000Z</time>
      </trkpt>
      <trkpt lat="43.95348" lon="4.78873">
        <ele>43.72</ele>
        <time>2019-05-29T12:21:58.000Z</time>
      </trkpt>
      <trkpt lat="43.95338" lon="4.78879">
        <ele>42.74</ele>
        <time>2019-05-29T12:22:03.000Z</time>
      </trkpt>
      <trkpt lat="43.95329" lon="4.78895">
        <ele>42.72</ele>
        <time>2019-05-29T12:22:08.000Z</time>
      </trkpt>
      <trkpt lat="43.95321" lon="4.78917">
        <ele>43.71</ele>
        <time>2019-05-29T12:22:13.000Z</time>
      </trkpt>
      <trkpt lat="43.95315" lon="4.7894">
        <ele>46.45</ele>
        <time>2019-05-29T12:22:18.000Z</time>
      </trkpt>
      <trkpt lat="43.95308" lon="4.7895">
        <ele>45.94</ele>
        <time>2019-05-29T12:22:30.000Z</time>
      </trkpt>
      <trkpt lat="43.95301" lon="4.78967">
        <ele>44.74</ele>
        <time>2019-05-29T12:22:35.000Z</time>
      </trkpt>
      <trkpt lat="43.95284" lon="4.78981">
        <ele>45.96</ele>
        <time>2019-05-29T12:22:40.000Z</time>
      </trkpt>
      <trkpt lat="43.95269" lon="4.78971">
        <ele>43.72</ele>
        <time>2019-05-29T12:22:45.000Z</time>
      </trkpt>
      <trkpt lat="43.95255" lon="4.78959">
        <ele>44.49</ele>
        <time>2019-05-29T12:22:50.000Z</time>
      </trkpt>
      <trkpt lat="43.95247" lon="4.78945">
        <ele>44.47</ele>
        <time>2019-05-29T12:22:55.000Z</time>
      </trkpt>
      <trkpt lat="43.95254" lon="4.78933">
        <ele>45.47</ele>
        <time>2019-05-29T12:23:33.000Z</time>
      </trkpt>
      <trkpt lat="43.95254" lon="4.78903">
        <ele>45.96</ele>
        <time>2019-05-29T12:23:38.000Z</time>
      </trkpt>
      <trkpt lat="43.95236" lon="4.78878">
        <ele>44.97</ele>
        <time>2019-05-29T12:23:43.000Z</time>
      </trkpt>
      <trkpt lat="43.95215" lon="4.78844">
        <ele>42.97</ele>
        <time>2019-05-29T12:23:48.000Z</time>
      </trkpt>
      <trkpt lat="43.95196" lon="4.78811">
        <ele>40.72</ele>
        <time>2019-05-29T12:23:53.000Z</time>
      </trkpt>
      <trkpt lat="43.9518" lon="4.78775">
        <ele>39.96</ele>
        <time>2019-05-29T12:23:58.000Z</time>
      </trkpt>
      <trkpt lat="43.95161" lon="4.78736">
        <ele>38.21</ele>
        <time>2019-05-29T12:24:03.000Z</time>
      </trkpt>
      <trkpt lat="43.95142" lon="4.78698">
        <ele>38.49</ele>
        <time>2019-05-29T12:24:08.000Z</time>
      </trkpt>
      <trkpt lat="43.95127" lon="4.78656">
        <ele>37.97</ele>
        <time>2019-05-29T12:24:13.000Z</time>
      </trkpt>
      <trkpt lat="43.95111" lon="4.78614">
        <ele>35.99</ele>
        <time>2019-05-29T12:24:18.000Z</time>
      </trkpt>
      <trkpt lat="43.95094" lon="4.78574">
        <ele>37.93</ele>
        <time>2019-05-29T12:24:23.000Z</time>
      </trkpt>
      <trkpt lat="43.95078" lon="4.78534">
        <ele>35.74</ele>
        <time>2019-05-29T12:24:28.000Z</time>
      </trkpt>
      <trkpt lat="43.95062" lon="4.78495">
        <ele>34.74</ele>
        <time>2019-05-29T12:24:33.000Z</time>
      </trkpt>
      <trkpt lat="43.95041" lon="4.78455">
        <ele>31.74</ele>
        <time>2019-05-29T12:24:38.000Z</time>
      </trkpt>
      <trkpt lat="43.95021" lon="4.78407">
        <ele>28.72</ele>
        <time>2019-05-29T12:24:43.000Z</time>
      </trkpt>
      <trkpt lat="43.9501" lon="4.78363">
        <ele>25.74</ele>
        <time>2019-05-29T12:24:48.000Z</time>
      </trkpt>
      <trkpt lat="43.95006" lon="4.78349">
        <ele>24.72</ele>
        <time>2019-05-29T12:24:54.000Z</time>
      </trkpt>
      <trkpt lat="43.94991" lon="4.78353">
        <ele>22.74</ele>
        <time>2019-05-29T12:24:59.000Z</time>
      </trkpt>
      <trkpt lat="43.94976" lon="4.78364">
        <ele>23.71</ele>
        <time>2019-05-29T12:25:04.000Z</time>
      </trkpt>
      <trkpt lat="43.94984" lon="4.78358">
        <ele>24.72</ele>
        <time>2019-05-29T12:25:14.000Z</time>
      </trkpt>
      <trkpt lat="43.94997" lon="4.78351">
        <ele>24.72</ele>
        <time>2019-05-29T12:25:19.000Z</time>
      </trkpt>
      <trkpt lat="43.9501" lon="4.78338">
        <ele>24.72</ele>
        <time>2019-05-29T12:25:24.000Z</time>
      </trkpt>
      <trkpt lat="43.95" lon="4.78303">
        <ele>22.72</ele>
        <time>2019-05-29T12:25:29.000Z</time>
      </trkpt>
      <trkpt lat="43.9499" lon="4.78263">
        <ele>21.74</ele>
        <time>2019-05-29T12:25:34.000Z</time>
      </trkpt>
      <trkpt lat="43.94985" lon="4.78224">
        <ele>20.73</ele>
        <time>2019-05-29T12:25:39.000Z</time>
      </trkpt>
      <trkpt lat="43.94979" lon="4.78187">
        <ele>20.73</ele>
        <time>2019-05-29T12:25:44.000Z</time>
      </trkpt>
      <trkpt lat="43.94975" lon="4.78158">
        <ele>20.47</ele>
        <time>2019-05-29T12:25:49.000Z</time>
      </trkpt>
      <trkpt lat="43.94969" lon="4.78131">
        <ele>21.47</ele>
        <time>2019-05-29T12:25:54.000Z</time>
      </trkpt>
      <trkpt lat="43.94962" lon="4.78109">
        <ele>21.73</ele>
        <time>2019-05-29T12:25:59.000Z</time>
      </trkpt>
      <trkpt lat="43.94956" lon="4.78087">
        <ele>21.73</ele>
        <time>2019-05-29T12:26:04.000Z</time>
      </trkpt>
      <trkpt lat="43.94948" lon="4.78066">
        <ele>21.73</ele>
        <time>2019-05-29T12:26:09.000Z</time>
      </trkpt>
      <trkpt lat="43.94941" lon="4.78045">
        <ele>23.72</ele>
        <time>2019-05-29T12:26:14.000Z</time>
      </trkpt>
      <trkpt lat="43.94933" lon="4.78024">
        <ele>23.74</ele>
        <time>2019-05-29T12:26:19.000Z</time>
      </trkpt>
      <trkpt lat="43.94923" lon="4.78004">
        <ele>24.48</ele>
        <time>2019-05-29T12:26:24.000Z</time>
      </trkpt>
      <trkpt lat="43.94913" lon="4.77986">
        <ele>23.73</ele>
        <time>2019-05-29T12:26:29.000Z</time>
      </trkpt>
      <trkpt lat="43.94895" lon="4.77962">
        <ele>22.73</ele>
        <time>2019-05-29T12:26:34.000Z</time>
      </trkpt>
      <trkpt lat="43.94876" lon="4.77925">
        <ele>22.73</ele>
        <time>2019-05-29T12:26:39.000Z</time>
      </trkpt>
      <trkpt lat="43.94859" lon="4.77885">
        <ele>20.73</ele>
        <time>2019-05-29T12:26:44.000Z</time>
      </trkpt>
      <trkpt lat="43.94851" lon="4.77848">
        <ele>19.73</ele>
        <time>2019-05-29T12:26:49.000Z</time>
      </trkpt>
      <trkpt lat="43.94849" lon="4.77806">
        <ele>18.48</ele>
        <time>2019-05-29T12:26:54.000Z</time>
      </trkpt>
      <trkpt lat="43.94849" lon="4.77766">
        <ele>20.71</ele>
        <time>2019-05-29T12:26:59.000Z</time>
      </trkpt>
      <trkpt lat="43.94848" lon="4.77724">
        <ele>20.46</ele>
        <time>2019-05-29T12:27:04.000Z</time>
      </trkpt>
      <trkpt lat="43.94854" lon="4.77684">
        <ele>21.48</ele>
        <time>2019-05-29T12:27:09.000Z</time>
      </trkpt>
      <trkpt lat="43.94872" lon="4.7765">
        <ele>24.72</ele>
        <time>2019-05-29T12:27:14.000Z</time>
      </trkpt>
      <trkpt lat="43.94882" lon="4.77609">
        <ele>23.98</ele>
        <time>2019-05-29T12:27:19.000Z</time>
      </trkpt>
      <trkpt lat="43.94883" lon="4.77564">
        <ele>22.73</ele>
        <time>2019-05-29T12:27:24.000Z</time>
      </trkpt>
      <trkpt lat="43.94886" lon="4.7752">
        <ele>23.73</ele>
        <time>2019-05-29T12:27:29.000Z</time>
      </trkpt>
      <trkpt lat="43.94892" lon="4.77477">
        <ele>23.71</ele>
        <time>2019-05-29T12:27:34.000Z</time>
      </trkpt>
      <trkpt lat="43.94897" lon="4.77439">
        <ele>23.49</ele>
        <time>2019-05-29T12:27:39.000Z</time>
      </trkpt>
      <trkpt lat="43.94901" lon="4.77402">
        <ele>22.96</ele>
        <time>2019-05-29T12:27:44.000Z</time>
      </trkpt>
      <trkpt lat="43.94905" lon="4.77377">
        <ele>22.73</ele>
        <time>2019-05-29T12:27:49.000Z</time>
      </trkpt>
      <trkpt lat="43.9489" lon="4.77375">
        <ele>21.96</ele>
        <time>2019-05-29T12:27:54.000Z</time>
      </trkpt>
      <trkpt lat="43.9487" lon="4.7738">
        <ele>20.49</ele>
        <time>2019-05-29T12:27:59.000Z</time>
      </trkpt>
      <trkpt lat="43.94844" lon="4.77383">
        <ele>17.74</ele>
        <time>2019-05-29T12:28:04.000Z</time>
      </trkpt>
      <trkpt lat="43.94819" lon="4.77378">
        <ele>16.98</ele>
        <time>2019-05-29T12:28:09.000Z</time>
      </trkpt>
      <trkpt lat="43.94806" lon="4.77379">
        <ele>18.96</ele>
        <time>2019-05-29T12:28:14.000Z</time>
      </trkpt>
      <trkpt lat="43.94816" lon="4.77373">
        <ele>16.71</ele>
        <time>2019-05-29T12:28:28.000Z</time>
      </trkpt>
      <trkpt lat="43.94829" lon="4.77353">
        <ele>16.73</ele>
        <time>2019-05-29T12:28:33.000Z</time>
      </trkpt>
      <trkpt lat="43.94837" lon="4.77329">
        <ele>16.73</ele>
        <time>2019-05-29T12:28:38.000Z</time>
      </trkpt>
      <trkpt lat="43.94843" lon="4.77306">
        <ele>17.73</ele>
        <time>2019-05-29T12:28:43.000Z</time>
      </trkpt>
      <trkpt lat="43.94851" lon="4.77282">
        <ele>18.73</ele>
        <time>2019-05-29T12:28:48.000Z</time>
      </trkpt>
      <trkpt lat="43.94857" lon="4.77256">
        <ele>18.48</ele>
        <time>2019-05-29T12:28:53.000Z</time>
      </trkpt>
      <trkpt lat="43.94865" lon="4.77229">
        <ele>18.73</ele>
        <time>2019-05-29T12:28:58.000Z</time>
      </trkpt>
      <trkpt lat="43.94874" lon="4.77199">
        <ele>19.48</ele>
        <time>2019-05-29T12:29:03.000Z</time>
      </trkpt>
      <trkpt lat="43.94883" lon="4.7717">
        <ele>18.73</ele>
        <time>2019-05-29T12:29:08.000Z</time>
      </trkpt>
      <trkpt lat="43.9489" lon="4.77139">
        <ele>19.73</ele>
        <time>2019-05-29T12:29:13.000Z</time>
      </trkpt>
      <trkpt lat="43.94892" lon="4.77111">
        <ele>20.71</ele>
        <time>2019-05-29T12:29:18.000Z</time>
      </trkpt>
      <trkpt lat="43.94903" lon="4.77087">
        <ele>17.98</ele>
        <time>2019-05-29T12:29:23.000Z</time>
      </trkpt>
      <trkpt lat="43.94938" lon="4.77074">
        <ele>17.73</ele>
        <time>2019-05-29T12:29:28.000Z</time>
      </trkpt>
      <trkpt lat="43.94959" lon="4.77065">
        <ele>17.74</ele>
        <time>2019-05-29T12:29:33.000Z</time>
      </trkpt>
      <trkpt lat="43.94973" lon="4.77063">
        <ele>20.71</ele>
        <time>2019-05-29T12:29:38.000Z</time>
      </trkpt>
      <trkpt lat="43.94986" lon="4.77056">
        <ele>22.71</ele>
        <time>2019-05-29T12:29:43.000Z</time>
      </trkpt>
      <trkpt lat="43.94998" lon="4.77041">
        <ele>22.98</ele>
        <time>2019-05-29T12:29:48.000Z</time>
      </trkpt>
      <trkpt lat="43.95009" lon="4.77019">
        <ele>23.73</ele>
        <time>2019-05-29T12:29:53.000Z</time>
      </trkpt>
      <trkpt lat="43.9502" lon="4.76995">
        <ele>22.76</ele>
        <time>2019-05-29T12:29:58.000Z</time>
      </trkpt>
      <trkpt lat="43.95031" lon="4.76971">
        <ele>22.71</ele>
        <time>2019-05-29T12:30:03.000Z</time>
      </trkpt>
      <trkpt lat="43.95041" lon="4.76945">
        <ele>24.48</ele>
        <time>2019-05-29T12:30:08.000Z</time>
      </trkpt>
      <trkpt lat="43.95047" lon="4.76916">
        <ele>25.73</ele>
        <time>2019-05-29T12:30:13.000Z</time>
      </trkpt>
      <trkpt lat="43.95055" lon="4.76887">
        <ele>28.73</ele>
        <time>2019-05-29T12:30:18.000Z</time>
      </trkpt>
      <trkpt lat="43.95062" lon="4.76857">
        <ele>29.73</ele>
        <time>2019-05-29T12:30:23.000Z</time>
      </trkpt>
      <trkpt lat="43.95071" lon="4.76835">
        <ele>31.73</ele>
        <time>2019-05-29T12:30:28.000Z</time>
      </trkpt>
      <trkpt lat="43.95081" lon="4.76818">
        <ele>31.74</ele>
        <time>2019-05-29T12:30:33.000Z</time>
      </trkpt>
      <trkpt lat="43.95094" lon="4.76799">
        <ele>30.48</ele>
        <time>2019-05-29T12:30:38.000Z</time>
      </trkpt>
      <trkpt lat="43.95104" lon="4.76771">
        <ele>35.28</ele>
        <time>2019-05-29T12:30:43.000Z</time>
      </trkpt>
      <trkpt lat="43.95114" lon="4.76754">
        <ele>31.48</ele>
        <time>2019-05-29T12:30:48.000Z</time>
      </trkpt>
      <trkpt lat="43.95127" lon="4.7674">
        <ele>27.21</ele>
        <time>2019-05-29T12:30:53.000Z</time>
      </trkpt>
      <trkpt lat="43.95135" lon="4.76719">
        <ele>28.48</ele>
        <time>2019-05-29T12:30:58.000Z</time>
      </trkpt>
      <trkpt lat="43.95145" lon="4.76697">
        <ele>25.96</ele>
        <time>2019-05-29T12:31:03.000Z</time>
      </trkpt>
      <trkpt lat="43.95152" lon="4.76671">
        <ele>27.74</ele>
        <time>2019-05-29T12:31:08.000Z</time>
      </trkpt>
      <trkpt lat="43.9516" lon="4.76645">
        <ele>28.71</ele>
        <time>2019-05-29T12:31:13.000Z</time>
      </trkpt>
      <trkpt lat="43.95168" lon="4.76623">
        <ele>29.71</ele>
        <time>2019-05-29T12:31:18.000Z</time>
      </trkpt>
      <trkpt lat="43.95174" lon="4.766">
        <ele>29.48</ele>
        <time>2019-05-29T12:31:23.000Z</time>
      </trkpt>
      <trkpt lat="43.95176" lon="4.76576">
        <ele>27.74</ele>
        <time>2019-05-29T12:31:28.000Z</time>
      </trkpt>
      <trkpt lat="43.95181" lon="4.76552">
        <ele>25.99</ele>
        <time>2019-05-29T12:31:33.000Z</time>
      </trkpt>
      <trkpt lat="43.9519" lon="4.76531">
        <ele>28.48</ele>
        <time>2019-05-29T12:31:38.000Z</time>
      </trkpt>
      <trkpt lat="43.95196" lon="4.76541">
        <ele>32.48</ele>
        <time>2019-05-29T12:31:50.000Z</time>
      </trkpt>
      <trkpt lat="43.95209" lon="4.7654">
        <ele>33.48</ele>
        <time>2019-05-29T12:31:55.000Z</time>
      </trkpt>
      <trkpt lat="43.95202" lon="4.76533">
        <ele>30.48</ele>
        <time>2019-05-29T12:32:17.000Z</time>
      </trkpt>
      <trkpt lat="43.95193" lon="4.76527">
        <ele>28.98</ele>
        <time>2019-05-29T12:32:27.000Z</time>
      </trkpt>
      <trkpt lat="43.95189" lon="4.76514">
        <ele>27.73</ele>
        <time>2019-05-29T12:32:32.000Z</time>
      </trkpt>
      <trkpt lat="43.95197" lon="4.76479">
        <ele>26.49</ele>
        <time>2019-05-29T12:32:37.000Z</time>
      </trkpt>
      <trkpt lat="43.95193" lon="4.76446">
        <ele>25.98</ele>
        <time>2019-05-29T12:32:42.000Z</time>
      </trkpt>
      <trkpt lat="43.95189" lon="4.76413">
        <ele>25.98</ele>
        <time>2019-05-29T12:32:47.000Z</time>
      </trkpt>
      <trkpt lat="43.95178" lon="4.76377">
        <ele>27.46</ele>
        <time>2019-05-29T12:32:52.000Z</time>
      </trkpt>
      <trkpt lat="43.95168" lon="4.76339">
        <ele>25.54</ele>
        <time>2019-05-29T12:32:57.000Z</time>
      </trkpt>
      <trkpt lat="43.95151" lon="4.76303">
        <ele>21.98</ele>
        <time>2019-05-29T12:33:02.000Z</time>
      </trkpt>
      <trkpt lat="43.95142" lon="4.76276">
        <ele>22.23</ele>
        <time>2019-05-29T12:33:07.000Z</time>
      </trkpt>
      <trkpt lat="43.95131" lon="4.76248">
        <ele>21.71</ele>
        <time>2019-05-29T12:33:12.000Z</time>
      </trkpt>
      <trkpt lat="43.95125" lon="4.76216">
        <ele>17.96</ele>
        <time>2019-05-29T12:33:17.000Z</time>
      </trkpt>
      <trkpt lat="43.95118" lon="4.76185">
        <ele>19.73</ele>
        <time>2019-05-29T12:33:22.000Z</time>
      </trkpt>
      <trkpt lat="43.95115" lon="4.76152">
        <ele>19.49</ele>
        <time>2019-05-29T12:33:27.000Z</time>
      </trkpt>
      <trkpt lat="43.95112" lon="4.76122">
        <ele>18.98</ele>
        <time>2019-05-29T12:33:32.000Z</time>
      </trkpt>
      <trkpt lat="43.95107" lon="4.76095">
        <ele>19.48</ele>
        <time>2019-05-29T12:33:37.000Z</time>
      </trkpt>
      <trkpt lat="43.95104" lon="4.76064">
        <ele>19.73</ele>
        <time>2019-05-29T12:33:42.000Z</time>
      </trkpt>
      <trkpt lat="43.95098" lon="4.76032">
        <ele>20.48</ele>
        <time>2019-05-29T12:33:47.000Z</time>
      </trkpt>
      <trkpt lat="43.95097" lon="4.76005">
        <ele>23.48</ele>
        <time>2019-05-29T12:33:52.000Z</time>
      </trkpt>
      <trkpt lat="43.95093" lon="4.7598">
        <ele>19.76</ele>
        <time>2019-05-29T12:33:57.000Z</time>
      </trkpt>
      <trkpt lat="43.95087" lon="4.7597">
        <ele>17.98</ele>
        <time>2019-05-29T12:34:02.000Z</time>
      </trkpt>
      <trkpt lat="43.95084" lon="4.75948">
        <ele>19.7</ele>
        <time>2019-05-29T12:34:07.000Z</time>
      </trkpt>
      <trkpt lat="43.95074" lon="4.75911">
        <ele>21.95</ele>
        <time>2019-05-29T12:34:12.000Z</time>
      </trkpt>
      <trkpt lat="43.95062" lon="4.75884">
        <ele>19.98</ele>
        <time>2019-05-29T12:34:17.000Z</time>
      </trkpt>
      <trkpt lat="43.95047" lon="4.75855">
        <ele>17.98</ele>
        <time>2019-05-29T12:34:22.000Z</time>
      </trkpt>
      <trkpt lat="43.95035" lon="4.75829">
        <ele>17.97</ele>
        <time>2019-05-29T12:34:27.000Z</time>
      </trkpt>
      <trkpt lat="43.95022" lon="4.758">
        <ele>18.73</ele>
        <time>2019-05-29T12:34:32.000Z</time>
      </trkpt>
      <trkpt lat="43.95004" lon="4.7578">
        <ele>19.96</ele>
        <time>2019-05-29T12:34:37.000Z</time>
      </trkpt>
      <trkpt lat="43.94977" lon="4.75789">
        <ele>17.73</ele>
        <time>2019-05-29T12:34:42.000Z</time>
      </trkpt>
      <trkpt lat="43.94948" lon="4.75799">
        <ele>18.71</ele>
        <time>2019-05-29T12:34:47.000Z</time>
      </trkpt>
      <trkpt lat="43.94917" lon="4.75807">
        <ele>18.97</ele>
        <time>2019-05-29T12:34:52.000Z</time>
      </trkpt>
      <trkpt lat="43.94886" lon="4.75817">
        <ele>18.73</ele>
        <time>2019-05-29T12:34:57.000Z</time>
      </trkpt>
      <trkpt lat="43.94857" lon="4.75832">
        <ele>19.73</ele>
        <time>2019-05-29T12:35:02.000Z</time>
      </trkpt>
      <trkpt lat="43.94827" lon="4.75841">
        <ele>15.75</ele>
        <time>2019-05-29T12:35:07.000Z</time>
      </trkpt>
      <trkpt lat="43.94797" lon="4.75833">
        <ele>14.73</ele>
        <time>2019-05-29T12:35:12.000Z</time>
      </trkpt>
      <trkpt lat="43.94768" lon="4.75813">
        <ele>14.73</ele>
        <time>2019-05-29T12:35:17.000Z</time>
      </trkpt>
      <trkpt lat="43.94745" lon="4.75789">
        <ele>15.72</ele>
        <time>2019-05-29T12:35:22.000Z</time>
      </trkpt>
      <trkpt lat="43.94722" lon="4.75765">
        <ele>15.48</ele>
        <time>2019-05-29T12:35:27.000Z</time>
      </trkpt>
      <trkpt lat="43.94701" lon="4.75733">
        <ele>14.73</ele>
        <time>2019-05-29T12:35:32.000Z</time>
      </trkpt>
      <trkpt lat="43.94679" lon="4.75704">
        <ele>14.98</ele>
        <time>2019-05-29T12:35:37.000Z</time>
      </trkpt>
      <trkpt lat="43.94656" lon="4.7568">
        <ele>14</ele>
        <time>2019-05-29T12:35:42.000Z</time>
      </trkpt>
      <trkpt lat="43.94632" lon="4.75657">
        <ele>15.73</ele>
        <time>2019-05-29T12:35:47.000Z</time>
      </trkpt>
      <trkpt lat="43.94609" lon="4.75643">
        <ele>16.98</ele>
        <time>2019-05-29T12:35:52.000Z</time>
      </trkpt>
      <trkpt lat="43.94585" lon="4.75635">
        <ele>15.98</ele>
        <time>2019-05-29T12:35:57.000Z</time>
      </trkpt>
      <trkpt lat="43.94561" lon="4.75632">
        <ele>17.97</ele>
        <time>2019-05-29T12:36:02.000Z</time>
      </trkpt>
      <trkpt lat="43.9454" lon="4.75633">
        <ele>17.48</ele>
        <time>2019-05-29T12:36:07.000Z</time>
      </trkpt>
      <trkpt lat="43.94514" lon="4.75632">
        <ele>16.5</ele>
        <time>2019-05-29T12:36:12.000Z</time>
      </trkpt>
      <trkpt lat="43.9449" lon="4.75616">
        <ele>17.72</ele>
        <time>2019-05-29T12:36:17.000Z</time>
      </trkpt>
      <trkpt lat="43.94467" lon="4.75601">
        <ele>17.98</ele>
        <time>2019-05-29T12:36:22.000Z</time>
      </trkpt>
      <trkpt lat="43.94441" lon="4.75591">
        <ele>17.48</ele>
        <time>2019-05-29T12:36:27.000Z</time>
      </trkpt>
      <trkpt lat="43.94416" lon="4.75581">
        <ele>19.73</ele>
        <time>2019-05-29T12:36:32.000Z</time>
      </trkpt>
      <trkpt lat="43.94392" lon="4.75576">
        <ele>20.73</ele>
        <time>2019-05-29T12:36:37.000Z</time>
      </trkpt>
      <trkpt lat="43.94373" lon="4.75592">
        <ele>20.5</ele>
        <time>2019-05-29T12:36:42.000Z</time>
      </trkpt>
      <trkpt lat="43.9434" lon="4.75593">
        <ele>17.74</ele>
        <time>2019-05-29T12:36:47.000Z</time>
      </trkpt>
      <trkpt lat="43.94311" lon="4.75571">
        <ele>17.74</ele>
        <time>2019-05-29T12:36:52.000Z</time>
      </trkpt>
      <trkpt lat="43.94299" lon="4.75532">
        <ele>16.74</ele>
        <time>2019-05-29T12:36:57.000Z</time>
      </trkpt>
      <trkpt lat="43.94297" lon="4.75489">
        <ele>15.74</ele>
        <time>2019-05-29T12:37:02.000Z</time>
      </trkpt>
      <trkpt lat="43.94285" lon="4.75455">
        <ele>16.49</ele>
        <time>2019-05-29T12:37:07.000Z</time>
      </trkpt>
      <trkpt lat="43.94269" lon="4.75426">
        <ele>15.97</ele>
        <time>2019-05-29T12:37:12.000Z</time>
      </trkpt>
      <trkpt lat="43.94245" lon="4.75406">
        <ele>14.75</ele>
        <time>2019-05-29T12:37:17.000Z</time>
      </trkpt>
      <trkpt lat="43.94222" lon="4.75385">
        <ele>11.5</ele>
        <time>2019-05-29T12:37:22.000Z</time>
      </trkpt>
      <trkpt lat="43.94198" lon="4.75367">
        <ele>11.74</ele>
        <time>2019-05-29T12:37:27.000Z</time>
      </trkpt>
      <trkpt lat="43.94171" lon="4.75349">
        <ele>10.99</ele>
        <time>2019-05-29T12:37:32.000Z</time>
      </trkpt>
      <trkpt lat="43.94144" lon="4.7533">
        <ele>10.74</ele>
        <time>2019-05-29T12:37:37.000Z</time>
      </trkpt>
      <trkpt lat="43.94114" lon="4.75316">
        <ele>10.97</ele>
        <time>2019-05-29T12:37:42.000Z</time>
      </trkpt>
      <trkpt lat="43.94081" lon="4.75306">
        <ele>10.74</ele>
        <time>2019-05-29T12:37:47.000Z</time>
      </trkpt>
      <trkpt lat="43.94046" lon="4.75302">
        <ele>10.74</ele>
        <time>2019-05-29T12:37:52.000Z</time>
      </trkpt>
      <trkpt lat="43.94009" lon="4.75299">
        <ele>9.97</ele>
        <time>2019-05-29T12:37:57.000Z</time>
      </trkpt>
      <trkpt lat="43.93975" lon="4.75293">
        <ele>8.99</ele>
        <time>2019-05-29T12:38:02.000Z</time>
      </trkpt>
      <trkpt lat="43.93944" lon="4.75287">
        <ele>8.74</ele>
        <time>2019-05-29T12:38:07.000Z</time>
      </trkpt>
      <trkpt lat="43.9391" lon="4.75286">
        <ele>9.74</ele>
        <time>2019-05-29T12:38:12.000Z</time>
      </trkpt>
      <trkpt lat="43.93881" lon="4.7528">
        <ele>11.72</ele>
        <time>2019-05-29T12:38:17.000Z</time>
      </trkpt>
      <trkpt lat="43.93853" lon="4.75288">
        <ele>10.01</ele>
        <time>2019-05-29T12:38:22.000Z</time>
      </trkpt>
      <trkpt lat="43.93822" lon="4.75288">
        <ele>9.74</ele>
        <time>2019-05-29T12:38:27.000Z</time>
      </trkpt>
      <trkpt lat="43.93805" lon="4.75254">
        <ele>12.72</ele>
        <time>2019-05-29T12:38:32.000Z</time>
      </trkpt>
      <trkpt lat="43.93781" lon="4.75228">
        <ele>13.72</ele>
        <time>2019-05-29T12:38:37.000Z</time>
      </trkpt>
      <trkpt lat="43.93754" lon="4.75238">
        <ele>12.97</ele>
        <time>2019-05-29T12:38:42.000Z</time>
      </trkpt>
      <trkpt lat="43.93731" lon="4.75257">
        <ele>14.72</ele>
        <time>2019-05-29T12:38:47.000Z</time>
      </trkpt>
      <trkpt lat="43.93709" lon="4.75276">
        <ele>15.72</ele>
        <time>2019-05-29T12:38:52.000Z</time>
      </trkpt>
      <trkpt lat="43.93692" lon="4.7529">
        <ele>16.99</ele>
        <time>2019-05-29T12:38:57.000Z</time>
      </trkpt>
      <trkpt lat="43.93678" lon="4.753">
        <ele>17.74</ele>
        <time>2019-05-29T12:39:02.000Z</time>
      </trkpt>
      <trkpt lat="43.93664" lon="4.75287">
        <ele>16.01</ele>
        <time>2019-05-29T12:39:07.000Z</time>
      </trkpt>
      <trkpt lat="43.93653" lon="4.75263">
        <ele>16.75</ele>
        <time>2019-05-29T12:39:12.000Z</time>
      </trkpt>
      <trkpt lat="43.93646" lon="4.75233">
        <ele>15.74</ele>
        <time>2019-05-29T12:39:17.000Z</time>
      </trkpt>
      <trkpt lat="43.93637" lon="4.75203">
        <ele>15.74</ele>
        <time>2019-05-29T12:39:22.000Z</time>
      </trkpt>
      <trkpt lat="43.93624" lon="4.75174">
        <ele>16.74</ele>
        <time>2019-05-29T12:39:27.000Z</time>
      </trkpt>
      <trkpt lat="43.93612" lon="4.75146">
        <ele>14.73</ele>
        <time>2019-05-29T12:39:32.000Z</time>
      </trkpt>
      <trkpt lat="43.93602" lon="4.75112">
        <ele>16.72</ele>
        <time>2019-05-29T12:39:37.000Z</time>
      </trkpt>
      <trkpt lat="43.93593" lon="4.75081">
        <ele>17.74</ele>
        <time>2019-05-29T12:39:42.000Z</time>
      </trkpt>
      <trkpt lat="43.93582" lon="4.75049">
        <ele>17.73</ele>
        <time>2019-05-29T12:39:47.000Z</time>
      </trkpt>
      <trkpt lat="43.93572" lon="4.75022">
        <ele>16.98</ele>
        <time>2019-05-29T12:39:52.000Z</time>
      </trkpt>
      <trkpt lat="43.93558" lon="4.74988">
        <ele>15.76</ele>
        <time>2019-05-29T12:39:57.000Z</time>
      </trkpt>
      <trkpt lat="43.93543" lon="4.74955">
        <ele>15.73</ele>
        <time>2019-05-29T12:40:02.000Z</time>
      </trkpt>
      <trkpt lat="43.93527" lon="4.74921">
        <ele>14.99</ele>
        <time>2019-05-29T12:40:07.000Z</time>
      </trkpt>
      <trkpt lat="43.93511" lon="4.74888">
        <ele>14.99</ele>
        <time>2019-05-29T12:40:12.000Z</time>
      </trkpt>
      <trkpt lat="43.93494" lon="4.74855">
        <ele>15.76</ele>
        <time>2019-05-29T12:40:17.000Z</time>
      </trkpt>
      <trkpt lat="43.93478" lon="4.74823">
        <ele>15.99</ele>
        <time>2019-05-29T12:40:22.000Z</time>
      </trkpt>
      <trkpt lat="43.9346" lon="4.74791">
        <ele>16.49</ele>
        <time>2019-05-29T12:40:27.000Z</time>
      </trkpt>
      <trkpt lat="43.93443" lon="4.74759">
        <ele>15.74</ele>
        <time>2019-05-29T12:40:32.000Z</time>
      </trkpt>
      <trkpt lat="43.93427" lon="4.7473">
        <ele>15.51</ele>
        <time>2019-05-29T12:40:37.000Z</time>
      </trkpt>
      <trkpt lat="43.93409" lon="4.74698">
        <ele>17.99</ele>
        <time>2019-05-29T12:40:42.000Z</time>
      </trkpt>
      <trkpt lat="43.93392" lon="4.7467">
        <ele>16.99</ele>
        <time>2019-05-29T12:40:47.000Z</time>
      </trkpt>
      <trkpt lat="43.93377" lon="4.74642">
        <ele>17.74</ele>
        <time>2019-05-29T12:40:52.000Z</time>
      </trkpt>
      <trkpt lat="43.93359" lon="4.74617">
        <ele>16.76</ele>
        <time>2019-05-29T12:40:57.000Z</time>
      </trkpt>
      <trkpt lat="43.93343" lon="4.7459">
        <ele>15.51</ele>
        <time>2019-05-29T12:41:02.000Z</time>
      </trkpt>
      <trkpt lat="43.93325" lon="4.74563">
        <ele>13.74</ele>
        <time>2019-05-29T12:41:07.000Z</time>
      </trkpt>
      <trkpt lat="43.93309" lon="4.7454">
        <ele>14.49</ele>
        <time>2019-05-29T12:41:12.000Z</time>
      </trkpt>
      <trkpt lat="43.93301" lon="4.74533">
        <ele>16.51</ele>
        <time>2019-05-29T12:42:03.000Z</time>
      </trkpt>
      <trkpt lat="43.93295" lon="4.7452">
        <ele>17.98</ele>
        <time>2019-05-29T12:42:08.000Z</time>
      </trkpt>
      <trkpt lat="43.9328" lon="4.74498">
        <ele>15.74</ele>
        <time>2019-05-29T12:42:13.000Z</time>
      </trkpt>
      <trkpt lat="43.93262" lon="4.74476">
        <ele>15.76</ele>
        <time>2019-05-29T12:42:18.000Z</time>
      </trkpt>
      <trkpt lat="43.93242" lon="4.74458">
        <ele>14.74</ele>
        <time>2019-05-29T12:42:23.000Z</time>
      </trkpt>
      <trkpt lat="43.93222" lon="4.7445">
        <ele>14.74</ele>
        <time>2019-05-29T12:42:28.000Z</time>
      </trkpt>
      <trkpt lat="43.93211" lon="4.74446">
        <ele>15.74</ele>
        <time>2019-05-29T12:42:33.000Z</time>
      </trkpt>
      <trkpt lat="43.93202" lon="4.74444">
        <ele>16.49</ele>
        <time>2019-05-29T12:42:38.000Z</time>
      </trkpt>
      <trkpt lat="43.93191" lon="4.7444">
        <ele>15.74</ele>
        <time>2019-05-29T12:42:43.000Z</time>
      </trkpt>
      <trkpt lat="43.93179" lon="4.74426">
        <ele>15.73</ele>
        <time>2019-05-29T12:42:48.000Z</time>
      </trkpt>
      <trkpt lat="43.93168" lon="4.74407">
        <ele>16.73</ele>
        <time>2019-05-29T12:42:53.000Z</time>
      </trkpt>
      <trkpt lat="43.93151" lon="4.74386">
        <ele>17.51</ele>
        <time>2019-05-29T12:42:58.000Z</time>
      </trkpt>
      <trkpt lat="43.93131" lon="4.74368">
        <ele>16.74</ele>
        <time>2019-05-29T12:43:03.000Z</time>
      </trkpt>
      <trkpt lat="43.93109" lon="4.74353">
        <ele>17.49</ele>
        <time>2019-05-29T12:43:08.000Z</time>
      </trkpt>
      <trkpt lat="43.93089" lon="4.74338">
        <ele>16.74</ele>
        <time>2019-05-29T12:43:13.000Z</time>
      </trkpt>
      <trkpt lat="43.93072" lon="4.74324">
        <ele>18.73</ele>
        <time>2019-05-29T12:43:18.000Z</time>
      </trkpt>
      <trkpt lat="43.93059" lon="4.74315">
        <ele>18.74</ele>
        <time>2019-05-29T12:43:23.000Z</time>
      </trkpt>
      <trkpt lat="43.93044" lon="4.74298">
        <ele>19.74</ele>
        <time>2019-05-29T12:43:28.000Z</time>
      </trkpt>
      <trkpt lat="43.93027" lon="4.74279">
        <ele>18.74</ele>
        <time>2019-05-29T12:43:33.000Z</time>
      </trkpt>
      <trkpt lat="43.93009" lon="4.74259">
        <ele>18.74</ele>
        <time>2019-05-29T12:43:38.000Z</time>
      </trkpt>
      <trkpt lat="43.92991" lon="4.74239">
        <ele>18.74</ele>
        <time>2019-05-29T12:43:43.000Z</time>
      </trkpt>
      <trkpt lat="43.9297" lon="4.74216">
        <ele>17.74</ele>
        <time>2019-05-29T12:43:48.000Z</time>
      </trkpt>
      <trkpt lat="43.92949" lon="4.74192">
        <ele>17.74</ele>
        <time>2019-05-29T12:43:53.000Z</time>
      </trkpt>
      <trkpt lat="43.92929" lon="4.74166">
        <ele>17.49</ele>
        <time>2019-05-29T12:43:58.000Z</time>
      </trkpt>
      <trkpt lat="43.92908" lon="4.74144">
        <ele>16.74</ele>
        <time>2019-05-29T12:44:03.000Z</time>
      </trkpt>
      <trkpt lat="43.92885" lon="4.74119">
        <ele>15.76</ele>
        <time>2019-05-29T12:44:08.000Z</time>
      </trkpt>
      <trkpt lat="43.92861" lon="4.74092">
        <ele>16.74</ele>
        <time>2019-05-29T12:44:13.000Z</time>
      </trkpt>
      <trkpt lat="43.92835" lon="4.74066">
        <ele>16.74</ele>
        <time>2019-05-29T12:44:18.000Z</time>
      </trkpt>
      <trkpt lat="43.92812" lon="4.74033">
        <ele>15.74</ele>
        <time>2019-05-29T12:44:23.000Z</time>
      </trkpt>
      <trkpt lat="43.92791" lon="4.73998">
        <ele>16.73</ele>
        <time>2019-05-29T12:44:28.000Z</time>
      </trkpt>
      <trkpt lat="43.92773" lon="4.73966">
        <ele>16.74</ele>
        <time>2019-05-29T12:44:33.000Z</time>
      </trkpt>
      <trkpt lat="43.92755" lon="4.73931">
        <ele>18.74</ele>
        <time>2019-05-29T12:44:38.000Z</time>
      </trkpt>
      <trkpt lat="43.92735" lon="4.73897">
        <ele>19.49</ele>
        <time>2019-05-29T12:44:43.000Z</time>
      </trkpt>
      <trkpt lat="43.92716" lon="4.73871">
        <ele>18.73</ele>
        <time>2019-05-29T12:44:48.000Z</time>
      </trkpt>
      <trkpt lat="43.92716" lon="4.73841">
        <ele>16.75</ele>
        <time>2019-05-29T12:44:53.000Z</time>
      </trkpt>
      <trkpt lat="43.92703" lon="4.73815">
        <ele>16.74</ele>
        <time>2019-05-29T12:44:58.000Z</time>
      </trkpt>
      <trkpt lat="43.92684" lon="4.73794">
        <ele>15.51</ele>
        <time>2019-05-29T12:45:03.000Z</time>
      </trkpt>
      <trkpt lat="43.92666" lon="4.73769">
        <ele>16.48</ele>
        <time>2019-05-29T12:45:08.000Z</time>
      </trkpt>
      <trkpt lat="43.92645" lon="4.73744">
        <ele>15.76</ele>
        <time>2019-05-29T12:45:13.000Z</time>
      </trkpt>
      <trkpt lat="43.92622" lon="4.73718">
        <ele>14.75</ele>
        <time>2019-05-29T12:45:18.000Z</time>
      </trkpt>
      <trkpt lat="43.92599" lon="4.73688">
        <ele>13.01</ele>
        <time>2019-05-29T12:45:23.000Z</time>
      </trkpt>
      <trkpt lat="43.92577" lon="4.73661">
        <ele>10.76</ele>
        <time>2019-05-29T12:45:28.000Z</time>
      </trkpt>
      <trkpt lat="43.92553" lon="4.73635">
        <ele>11.98</ele>
        <time>2019-05-29T12:45:33.000Z</time>
      </trkpt>
      <trkpt lat="43.92531" lon="4.73608">
        <ele>13.99</ele>
        <time>2019-05-29T12:45:38.000Z</time>
      </trkpt>
      <trkpt lat="43.92509" lon="4.73584">
        <ele>14.98</ele>
        <time>2019-05-29T12:45:43.000Z</time>
      </trkpt>
      <trkpt lat="43.92486" lon="4.73556">
        <ele>13.75</ele>
        <time>2019-05-29T12:45:48.000Z</time>
      </trkpt>
      <trkpt lat="43.92464" lon="4.73529">
        <ele>12.75</ele>
        <time>2019-05-29T12:45:53.000Z</time>
      </trkpt>
      <trkpt lat="43.92445" lon="4.73504">
        <ele>12.75</ele>
        <time>2019-05-29T12:45:58.000Z</time>
      </trkpt>
      <trkpt lat="43.92426" lon="4.73476">
        <ele>10.51</ele>
        <time>2019-05-29T12:46:03.000Z</time>
      </trkpt>
      <trkpt lat="43.92405" lon="4.73445">
        <ele>11.75</ele>
        <time>2019-05-29T12:46:08.000Z</time>
      </trkpt>
      <trkpt lat="43.92384" lon="4.73416">
        <ele>12.75</ele>
        <time>2019-05-29T12:46:13.000Z</time>
      </trkpt>
      <trkpt lat="43.92361" lon="4.73389">
        <ele>12.75</ele>
        <time>2019-05-29T12:46:18.000Z</time>
      </trkpt>
      <trkpt lat="43.92337" lon="4.73361">
        <ele>12.75</ele>
        <time>2019-05-29T12:46:23.000Z</time>
      </trkpt>
      <trkpt lat="43.92312" lon="4.73331">
        <ele>11.75</ele>
        <time>2019-05-29T12:46:28.000Z</time>
      </trkpt>
      <trkpt lat="43.92289" lon="4.73302">
        <ele>13.5</ele>
        <time>2019-05-29T12:46:33.000Z</time>
      </trkpt>
      <trkpt lat="43.92265" lon="4.73275">
        <ele>11.75</ele>
        <time>2019-05-29T12:46:38.000Z</time>
      </trkpt>
      <trkpt lat="43.92241" lon="4.73247">
        <ele>11.75</ele>
        <time>2019-05-29T12:46:43.000Z</time>
      </trkpt>
      <trkpt lat="43.92216" lon="4.73221">
        <ele>11.98</ele>
        <time>2019-05-29T12:46:48.000Z</time>
      </trkpt>
      <trkpt lat="43.92189" lon="4.73193">
        <ele>11.75</ele>
        <time>2019-05-29T12:46:53.000Z</time>
      </trkpt>
      <trkpt lat="43.92163" lon="4.73166">
        <ele>11.75</ele>
        <time>2019-05-29T12:46:58.000Z</time>
      </trkpt>
      <trkpt lat="43.92137" lon="4.73139">
        <ele>11.75</ele>
        <time>2019-05-29T12:47:03.000Z</time>
      </trkpt>
      <trkpt lat="43.92111" lon="4.73114">
        <ele>11.75</ele>
        <time>2019-05-29T12:47:08.000Z</time>
      </trkpt>
      <trkpt lat="43.92084" lon="4.73091">
        <ele>12.76</ele>
        <time>2019-05-29T12:47:13.000Z</time>
      </trkpt>
      <trkpt lat="43.92057" lon="4.73065">
        <ele>13.73</ele>
        <time>2019-05-29T12:47:18.000Z</time>
      </trkpt>
      <trkpt lat="43.92031" lon="4.73044">
        <ele>12.75</ele>
        <time>2019-05-29T12:47:23.000Z</time>
      </trkpt>
      <trkpt lat="43.92003" lon="4.73023">
        <ele>10.76</ele>
        <time>2019-05-29T12:47:28.000Z</time>
      </trkpt>
      <trkpt lat="43.91976" lon="4.73002">
        <ele>11.75</ele>
        <time>2019-05-29T12:47:33.000Z</time>
      </trkpt>
      <trkpt lat="43.9195" lon="4.72985">
        <ele>11</ele>
        <time>2019-05-29T12:47:38.000Z</time>
      </trkpt>
      <trkpt lat="43.91925" lon="4.72966">
        <ele>11.75</ele>
        <time>2019-05-29T12:47:43.000Z</time>
      </trkpt>
      <trkpt lat="43.91898" lon="4.72948">
        <ele>12.75</ele>
        <time>2019-05-29T12:47:48.000Z</time>
      </trkpt>
      <trkpt lat="43.9187" lon="4.72931">
        <ele>12</ele>
        <time>2019-05-29T12:47:53.000Z</time>
      </trkpt>
      <trkpt lat="43.91842" lon="4.72912">
        <ele>12.75</ele>
        <time>2019-05-29T12:47:58.000Z</time>
      </trkpt>
      <trkpt lat="43.91815" lon="4.72891">
        <ele>12.75</ele>
        <time>2019-05-29T12:48:03.000Z</time>
      </trkpt>
      <trkpt lat="43.91787" lon="4.72873">
        <ele>13.76</ele>
        <time>2019-05-29T12:48:08.000Z</time>
      </trkpt>
      <trkpt lat="43.9176" lon="4.7286">
        <ele>12.75</ele>
        <time>2019-05-29T12:48:13.000Z</time>
      </trkpt>
      <trkpt lat="43.9173" lon="4.72844">
        <ele>11.75</ele>
        <time>2019-05-29T12:48:18.000Z</time>
      </trkpt>
      <trkpt lat="43.91703" lon="4.72829">
        <ele>10.98</ele>
        <time>2019-05-29T12:48:23.000Z</time>
      </trkpt>
      <trkpt lat="43.91675" lon="4.7281">
        <ele>12</ele>
        <time>2019-05-29T12:48:28.000Z</time>
      </trkpt>
      <trkpt lat="43.91648" lon="4.72794">
        <ele>11.77</ele>
        <time>2019-05-29T12:48:33.000Z</time>
      </trkpt>
      <trkpt lat="43.91621" lon="4.72775">
        <ele>12.75</ele>
        <time>2019-05-29T12:48:38.000Z</time>
      </trkpt>
      <trkpt lat="43.91595" lon="4.72757">
        <ele>12.52</ele>
        <time>2019-05-29T12:48:43.000Z</time>
      </trkpt>
      <trkpt lat="43.91568" lon="4.72739">
        <ele>13.5</ele>
        <time>2019-05-29T12:48:48.000Z</time>
      </trkpt>
      <trkpt lat="43.91542" lon="4.72723">
        <ele>13</ele>
        <time>2019-05-29T12:48:53.000Z</time>
      </trkpt>
      <trkpt lat="43.91515" lon="4.72706">
        <ele>11.78</ele>
        <time>2019-05-29T12:48:58.000Z</time>
      </trkpt>
      <trkpt lat="43.91491" lon="4.72687">
        <ele>12.75</ele>
        <time>2019-05-29T12:49:03.000Z</time>
      </trkpt>
      <trkpt lat="43.91464" lon="4.72667">
        <ele>14.75</ele>
        <time>2019-05-29T12:49:08.000Z</time>
      </trkpt>
      <trkpt lat="43.91436" lon="4.7265">
        <ele>14.75</ele>
        <time>2019-05-29T12:49:13.000Z</time>
      </trkpt>
      <trkpt lat="43.91408" lon="4.7263">
        <ele>13.75</ele>
        <time>2019-05-29T12:49:18.000Z</time>
      </trkpt>
      <trkpt lat="43.91381" lon="4.7261">
        <ele>13</ele>
        <time>2019-05-29T12:49:23.000Z</time>
      </trkpt>
      <trkpt lat="43.91354" lon="4.72592">
        <ele>13.99</ele>
        <time>2019-05-29T12:49:28.000Z</time>
      </trkpt>
      <trkpt lat="43.91326" lon="4.72573">
        <ele>14.74</ele>
        <time>2019-05-29T12:49:33.000Z</time>
      </trkpt>
      <trkpt lat="43.91299" lon="4.72554">
        <ele>14</ele>
        <time>2019-05-29T12:49:38.000Z</time>
      </trkpt>
      <trkpt lat="43.91271" lon="4.72536">
        <ele>13.75</ele>
        <time>2019-05-29T12:49:43.000Z</time>
      </trkpt>
      <trkpt lat="43.91244" lon="4.72516">
        <ele>13.75</ele>
        <time>2019-05-29T12:49:48.000Z</time>
      </trkpt>
      <trkpt lat="43.91217" lon="4.72496">
        <ele>13.75</ele>
        <time>2019-05-29T12:49:53.000Z</time>
      </trkpt>
      <trkpt lat="43.91191" lon="4.72475">
        <ele>13.75</ele>
        <time>2019-05-29T12:49:58.000Z</time>
      </trkpt>
      <trkpt lat="43.91163" lon="4.72454">
        <ele>13.75</ele>
        <time>2019-05-29T12:50:03.000Z</time>
      </trkpt>
      <trkpt lat="43.91138" lon="4.72431">
        <ele>13.75</ele>
        <time>2019-05-29T12:50:08.000Z</time>
      </trkpt>
      <trkpt lat="43.91112" lon="4.72409">
        <ele>13.99</ele>
        <time>2019-05-29T12:50:13.000Z</time>
      </trkpt>
      <trkpt lat="43.91087" lon="4.72386">
        <ele>14.75</ele>
        <time>2019-05-29T12:50:18.000Z</time>
      </trkpt>
      <trkpt lat="43.91063" lon="4.72359">
        <ele>14.75</ele>
        <time>2019-05-29T12:50:23.000Z</time>
      </trkpt>
      <trkpt lat="43.9104" lon="4.72334">
        <ele>15</ele>
        <time>2019-05-29T12:50:28.000Z</time>
      </trkpt>
      <trkpt lat="43.91018" lon="4.72306">
        <ele>14.75</ele>
        <time>2019-05-29T12:50:33.000Z</time>
      </trkpt>
      <trkpt lat="43.90994" lon="4.72279">
        <ele>14.75</ele>
        <time>2019-05-29T12:50:38.000Z</time>
      </trkpt>
      <trkpt lat="43.9097" lon="4.72253">
        <ele>14.75</ele>
        <time>2019-05-29T12:50:43.000Z</time>
      </trkpt>
      <trkpt lat="43.9095" lon="4.72223">
        <ele>15.75</ele>
        <time>2019-05-29T12:50:48.000Z</time>
      </trkpt>
      <trkpt lat="43.9093" lon="4.72192">
        <ele>16.5</ele>
        <time>2019-05-29T12:50:53.000Z</time>
      </trkpt>
      <trkpt lat="43.90912" lon="4.72163">
        <ele>16.99</ele>
        <time>2019-05-29T12:50:58.000Z</time>
      </trkpt>
      <trkpt lat="43.90893" lon="4.72131">
        <ele>16.75</ele>
        <time>2019-05-29T12:51:03.000Z</time>
      </trkpt>
      <trkpt lat="43.90874" lon="4.72101">
        <ele>18.74</ele>
        <time>2019-05-29T12:51:08.000Z</time>
      </trkpt>
      <trkpt lat="43.90856" lon="4.72069">
        <ele>17.75</ele>
        <time>2019-05-29T12:51:13.000Z</time>
      </trkpt>
      <trkpt lat="43.90838" lon="4.72037">
        <ele>19</ele>
        <time>2019-05-29T12:51:18.000Z</time>
      </trkpt>
      <trkpt lat="43.90822" lon="4.72005">
        <ele>17.51</ele>
        <time>2019-05-29T12:51:23.000Z</time>
      </trkpt>
      <trkpt lat="43.90804" lon="4.71976">
        <ele>17.76</ele>
        <time>2019-05-29T12:51:28.000Z</time>
      </trkpt>
      <trkpt lat="43.90793" lon="4.71953">
        <ele>17.75</ele>
        <time>2019-05-29T12:51:33.000Z</time>
      </trkpt>
      <trkpt lat="43.9078" lon="4.71927">
        <ele>18.5</ele>
        <time>2019-05-29T12:51:38.000Z</time>
      </trkpt>
      <trkpt lat="43.90766" lon="4.71896">
        <ele>18.51</ele>
        <time>2019-05-29T12:51:43.000Z</time>
      </trkpt>
      <trkpt lat="43.9075" lon="4.71863">
        <ele>18.76</ele>
        <time>2019-05-29T12:51:48.000Z</time>
      </trkpt>
      <trkpt lat="43.90736" lon="4.71829">
        <ele>17.77</ele>
        <time>2019-05-29T12:51:53.000Z</time>
      </trkpt>
      <trkpt lat="43.90722" lon="4.71793">
        <ele>17.75</ele>
        <time>2019-05-29T12:51:58.000Z</time>
      </trkpt>
      <trkpt lat="43.90709" lon="4.71754">
        <ele>16.77</ele>
        <time>2019-05-29T12:52:03.000Z</time>
      </trkpt>
      <trkpt lat="43.90697" lon="4.71713">
        <ele>16.76</ele>
        <time>2019-05-29T12:52:08.000Z</time>
      </trkpt>
      <trkpt lat="43.90681" lon="4.71676">
        <ele>15.77</ele>
        <time>2019-05-29T12:52:13.000Z</time>
      </trkpt>
      <trkpt lat="43.90667" lon="4.71635">
        <ele>15.76</ele>
        <time>2019-05-29T12:52:18.000Z</time>
      </trkpt>
      <trkpt lat="43.90654" lon="4.71598">
        <ele>17.5</ele>
        <time>2019-05-29T12:52:23.000Z</time>
      </trkpt>
      <trkpt lat="43.90641" lon="4.71559">
        <ele>16.49</ele>
        <time>2019-05-29T12:52:28.000Z</time>
      </trkpt>
      <trkpt lat="43.90627" lon="4.71522">
        <ele>16.75</ele>
        <time>2019-05-29T12:52:33.000Z</time>
      </trkpt>
      <trkpt lat="43.90613" lon="4.71484">
        <ele>16.51</ele>
        <time>2019-05-29T12:52:38.000Z</time>
      </trkpt>
      <trkpt lat="43.90599" lon="4.71446">
        <ele>18.74</ele>
        <time>2019-05-29T12:52:43.000Z</time>
      </trkpt>
      <trkpt lat="43.90585" lon="4.71408">
        <ele>18.75</ele>
        <time>2019-05-29T12:52:48.000Z</time>
      </trkpt>
      <trkpt lat="43.90573" lon="4.7137">
        <ele>19.74</ele>
        <time>2019-05-29T12:52:53.000Z</time>
      </trkpt>
      <trkpt lat="43.90561" lon="4.71334">
        <ele>19</ele>
        <time>2019-05-29T12:52:58.000Z</time>
      </trkpt>
      <trkpt lat="43.90549" lon="4.71298">
        <ele>17.01</ele>
        <time>2019-05-29T12:53:03.000Z</time>
      </trkpt>
      <trkpt lat="43.90538" lon="4.71262">
        <ele>16.75</ele>
        <time>2019-05-29T12:53:08.000Z</time>
      </trkpt>
      <trkpt lat="43.90525" lon="4.71226">
        <ele>16.75</ele>
        <time>2019-05-29T12:53:13.000Z</time>
      </trkpt>
      <trkpt lat="43.90512" lon="4.7119">
        <ele>16.74</ele>
        <time>2019-05-29T12:53:18.000Z</time>
      </trkpt>
      <trkpt lat="43.90499" lon="4.71155">
        <ele>16</ele>
        <time>2019-05-29T12:53:23.000Z</time>
      </trkpt>
      <trkpt lat="43.90488" lon="4.71121">
        <ele>15.52</ele>
        <time>2019-05-29T12:53:28.000Z</time>
      </trkpt>
      <trkpt lat="43.90475" lon="4.71088">
        <ele>15.51</ele>
        <time>2019-05-29T12:53:33.000Z</time>
      </trkpt>
      <trkpt lat="43.90464" lon="4.71056">
        <ele>16.74</ele>
        <time>2019-05-29T12:53:38.000Z</time>
      </trkpt>
      <trkpt lat="43.90452" lon="4.71022">
        <ele>15.77</ele>
        <time>2019-05-29T12:53:43.000Z</time>
      </trkpt>
      <trkpt lat="43.90439" lon="4.70989">
        <ele>16.76</ele>
        <time>2019-05-29T12:53:48.000Z</time>
      </trkpt>
      <trkpt lat="43.90429" lon="4.70957">
        <ele>15.01</ele>
        <time>2019-05-29T12:53:53.000Z</time>
      </trkpt>
      <trkpt lat="43.90418" lon="4.70923">
        <ele>12.77</ele>
        <time>2019-05-29T12:53:58.000Z</time>
      </trkpt>
      <trkpt lat="43.90405" lon="4.70892">
        <ele>11.76</ele>
        <time>2019-05-29T12:54:03.000Z</time>
      </trkpt>
      <trkpt lat="43.90394" lon="4.70856">
        <ele>11.75</ele>
        <time>2019-05-29T12:54:08.000Z</time>
      </trkpt>
      <trkpt lat="43.90383" lon="4.70824">
        <ele>13.51</ele>
        <time>2019-05-29T12:54:13.000Z</time>
      </trkpt>
      <trkpt lat="43.90371" lon="4.7079">
        <ele>13.99</ele>
        <time>2019-05-29T12:54:18.000Z</time>
      </trkpt>
      <trkpt lat="43.9036" lon="4.70756">
        <ele>14.52</ele>
        <time>2019-05-29T12:54:23.000Z</time>
      </trkpt>
      <trkpt lat="43.90348" lon="4.70722">
        <ele>13.77</ele>
        <time>2019-05-29T12:54:28.000Z</time>
      </trkpt>
      <trkpt lat="43.90333" lon="4.70687">
        <ele>14.74</ele>
        <time>2019-05-29T12:54:33.000Z</time>
      </trkpt>
      <trkpt lat="43.90317" lon="4.70651">
        <ele>16.51</ele>
        <time>2019-05-29T12:54:38.000Z</time>
      </trkpt>
      <trkpt lat="43.90304" lon="4.70617">
        <ele>16.76</ele>
        <time>2019-05-29T12:54:43.000Z</time>
      </trkpt>
      <trkpt lat="43.90293" lon="4.70583">
        <ele>17.74</ele>
        <time>2019-05-29T12:54:48.000Z</time>
      </trkpt>
      <trkpt lat="43.90281" lon="4.70552">
        <ele>18.74</ele>
        <time>2019-05-29T12:54:53.000Z</time>
      </trkpt>
      <trkpt lat="43.90269" lon="4.70519">
        <ele>19.76</ele>
        <time>2019-05-29T12:54:58.000Z</time>
      </trkpt>
      <trkpt lat="43.90255" lon="4.70484">
        <ele>20.76</ele>
        <time>2019-05-29T12:55:03.000Z</time>
      </trkpt>
      <trkpt lat="43.90243" lon="4.7045">
        <ele>21.74</ele>
        <time>2019-05-29T12:55:08.000Z</time>
      </trkpt>
      <trkpt lat="43.90232" lon="4.70417">
        <ele>22.75</ele>
        <time>2019-05-29T12:55:13.000Z</time>
      </trkpt>
      <trkpt lat="43.90218" lon="4.70383">
        <ele>21.76</ele>
        <time>2019-05-29T12:55:18.000Z</time>
      </trkpt>
      <trkpt lat="43.90206" lon="4.70349">
        <ele>20.76</ele>
        <time>2019-05-29T12:55:23.000Z</time>
      </trkpt>
      <trkpt lat="43.90192" lon="4.70316">
        <ele>20.77</ele>
        <time>2019-05-29T12:55:28.000Z</time>
      </trkpt>
      <trkpt lat="43.90178" lon="4.70284">
        <ele>20.74</ele>
        <time>2019-05-29T12:55:33.000Z</time>
      </trkpt>
      <trkpt lat="43.90162" lon="4.70252">
        <ele>21.52</ele>
        <time>2019-05-29T12:55:38.000Z</time>
      </trkpt>
      <trkpt lat="43.9015" lon="4.70218">
        <ele>20.77</ele>
        <time>2019-05-29T12:55:43.000Z</time>
      </trkpt>
      <trkpt lat="43.90136" lon="4.70185">
        <ele>19.99</ele>
        <time>2019-05-29T12:55:48.000Z</time>
      </trkpt>
      <trkpt lat="43.90137" lon="4.7015">
        <ele>18.77</ele>
        <time>2019-05-29T12:55:53.000Z</time>
      </trkpt>
      <trkpt lat="43.9014" lon="4.70125">
        <ele>18.74</ele>
        <time>2019-05-29T12:55:58.000Z</time>
      </trkpt>
      <trkpt lat="43.90144" lon="4.70111">
        <ele>18.51</ele>
        <time>2019-05-29T12:56:03.000Z</time>
      </trkpt>
      <trkpt lat="43.90143" lon="4.70095">
        <ele>19.5</ele>
        <time>2019-05-29T12:56:08.000Z</time>
      </trkpt>
      <trkpt lat="43.90137" lon="4.70077">
        <ele>19.74</ele>
        <time>2019-05-29T12:56:13.000Z</time>
      </trkpt>
      <trkpt lat="43.90128" lon="4.70059">
        <ele>18.76</ele>
        <time>2019-05-29T12:56:18.000Z</time>
      </trkpt>
      <trkpt lat="43.90128" lon="4.70036">
        <ele>18.76</ele>
        <time>2019-05-29T12:56:23.000Z</time>
      </trkpt>
      <trkpt lat="43.90117" lon="4.7002">
        <ele>19.75</ele>
        <time>2019-05-29T12:56:28.000Z</time>
      </trkpt>
      <trkpt lat="43.9012" lon="4.70008">
        <ele>19.76</ele>
        <time>2019-05-29T12:56:33.000Z</time>
      </trkpt>
      <trkpt lat="43.90125" lon="4.69996">
        <ele>17.76</ele>
        <time>2019-05-29T12:56:38.000Z</time>
      </trkpt>
      <trkpt lat="43.90113" lon="4.69976">
        <ele>18.76</ele>
        <time>2019-05-29T12:56:43.000Z</time>
      </trkpt>
      <trkpt lat="43.90107" lon="4.6995">
        <ele>18.76</ele>
        <time>2019-05-29T12:56:48.000Z</time>
      </trkpt>
      <trkpt lat="43.90111" lon="4.69929">
        <ele>18.76</ele>
        <time>2019-05-29T12:56:53.000Z</time>
      </trkpt>
      <trkpt lat="43.90095" lon="4.69909">
        <ele>19.51</ele>
        <time>2019-05-29T12:56:58.000Z</time>
      </trkpt>
      <trkpt lat="43.90083" lon="4.69883">
        <ele>19.01</ele>
        <time>2019-05-29T12:57:03.000Z</time>
      </trkpt>
      <trkpt lat="43.90062" lon="4.69855">
        <ele>19.76</ele>
        <time>2019-05-29T12:57:08.000Z</time>
      </trkpt>
      <trkpt lat="43.90037" lon="4.69843">
        <ele>19.76</ele>
        <time>2019-05-29T12:57:13.000Z</time>
      </trkpt>
      <trkpt lat="43.90022" lon="4.69818">
        <ele>18.01</ele>
        <time>2019-05-29T12:57:18.000Z</time>
      </trkpt>
      <trkpt lat="43.9001" lon="4.69785">
        <ele>18.76</ele>
        <time>2019-05-29T12:57:23.000Z</time>
      </trkpt>
      <trkpt lat="43.89995" lon="4.69759">
        <ele>17.77</ele>
        <time>2019-05-29T12:57:28.000Z</time>
      </trkpt>
      <trkpt lat="43.89973" lon="4.69736">
        <ele>16.76</ele>
        <time>2019-05-29T12:57:33.000Z</time>
      </trkpt>
      <trkpt lat="43.89953" lon="4.6971">
        <ele>14.77</ele>
        <time>2019-05-29T12:57:38.000Z</time>
      </trkpt>
      <trkpt lat="43.89939" lon="4.69677">
        <ele>15.76</ele>
        <time>2019-05-29T12:57:43.000Z</time>
      </trkpt>
      <trkpt lat="43.89935" lon="4.69653">
        <ele>17.01</ele>
        <time>2019-05-29T12:57:48.000Z</time>
      </trkpt>
      <trkpt lat="43.89938" lon="4.69632">
        <ele>17.76</ele>
        <time>2019-05-29T12:57:53.000Z</time>
      </trkpt>
      <trkpt lat="43.89948" lon="4.69616">
        <ele>18.26</ele>
        <time>2019-05-29T12:57:58.000Z</time>
      </trkpt>
      <trkpt lat="43.89939" lon="4.69604">
        <ele>19.51</ele>
        <time>2019-05-29T12:58:03.000Z</time>
      </trkpt>
      <trkpt lat="43.89931" lon="4.69591">
        <ele>22.74</ele>
        <time>2019-05-29T12:58:08.000Z</time>
      </trkpt>
      <trkpt lat="43.89923" lon="4.69576">
        <ele>23.51</ele>
        <time>2019-05-29T12:58:13.000Z</time>
      </trkpt>
      <trkpt lat="43.89913" lon="4.69561">
        <ele>23.76</ele>
        <time>2019-05-29T12:58:18.000Z</time>
      </trkpt>
      <trkpt lat="43.89905" lon="4.69543">
        <ele>24.76</ele>
        <time>2019-05-29T12:58:23.000Z</time>
      </trkpt>
      <trkpt lat="43.89895" lon="4.69521">
        <ele>24.76</ele>
        <time>2019-05-29T12:58:28.000Z</time>
      </trkpt>
      <trkpt lat="43.89886" lon="4.695">
        <ele>24.76</ele>
        <time>2019-05-29T12:58:33.000Z</time>
      </trkpt>
      <trkpt lat="43.89877" lon="4.69482">
        <ele>23.76</ele>
        <time>2019-05-29T12:58:38.000Z</time>
      </trkpt>
      <trkpt lat="43.89871" lon="4.69466">
        <ele>24.76</ele>
        <time>2019-05-29T12:58:43.000Z</time>
      </trkpt>
      <trkpt lat="43.89861" lon="4.69443">
        <ele>23.77</ele>
        <time>2019-05-29T12:58:48.000Z</time>
      </trkpt>
      <trkpt lat="43.89856" lon="4.6943">
        <ele>20.77</ele>
        <time>2019-05-29T13:03:58.000Z</time>
      </trkpt>
      <trkpt lat="43.89846" lon="4.69411">
        <ele>20.76</ele>
        <time>2019-05-29T13:04:03.000Z</time>
      </trkpt>
      <trkpt lat="43.89834" lon="4.69386">
        <ele>20.76</ele>
        <time>2019-05-29T13:04:08.000Z</time>
      </trkpt>
      <trkpt lat="43.89821" lon="4.69359">
        <ele>21.01</ele>
        <time>2019-05-29T13:04:13.000Z</time>
      </trkpt>
      <trkpt lat="43.89808" lon="4.69333">
        <ele>21.76</ele>
        <time>2019-05-29T13:04:18.000Z</time>
      </trkpt>
      <trkpt lat="43.89796" lon="4.69303">
        <ele>21.74</ele>
        <time>2019-05-29T13:04:23.000Z</time>
      </trkpt>
      <trkpt lat="43.89782" lon="4.69265">
        <ele>20.01</ele>
        <time>2019-05-29T13:04:28.000Z</time>
      </trkpt>
      <trkpt lat="43.89763" lon="4.69219">
        <ele>17.77</ele>
        <time>2019-05-29T13:04:33.000Z</time>
      </trkpt>
      <trkpt lat="43.89746" lon="4.69175">
        <ele>16.76</ele>
        <time>2019-05-29T13:04:38.000Z</time>
      </trkpt>
      <trkpt lat="43.89728" lon="4.69136">
        <ele>16.76</ele>
        <time>2019-05-29T13:04:43.000Z</time>
      </trkpt>
      <trkpt lat="43.89712" lon="4.69104">
        <ele>16.76</ele>
        <time>2019-05-29T13:04:48.000Z</time>
      </trkpt>
      <trkpt lat="43.89697" lon="4.69068">
        <ele>15.99</ele>
        <time>2019-05-29T13:04:53.000Z</time>
      </trkpt>
      <trkpt lat="43.89682" lon="4.69035">
        <ele>14.77</ele>
        <time>2019-05-29T13:04:58.000Z</time>
      </trkpt>
      <trkpt lat="43.89672" lon="4.69009">
        <ele>15.01</ele>
        <time>2019-05-29T13:05:03.000Z</time>
      </trkpt>
      <trkpt lat="43.89666" lon="4.68999">
        <ele>14.76</ele>
        <time>2019-05-29T13:05:08.000Z</time>
      </trkpt>
      <trkpt lat="43.89655" lon="4.69009">
        <ele>15.76</ele>
        <time>2019-05-29T13:05:13.000Z</time>
      </trkpt>
      <trkpt lat="43.89637" lon="4.69023">
        <ele>14.76</ele>
        <time>2019-05-29T13:05:18.000Z</time>
      </trkpt>
      <trkpt lat="43.89616" lon="4.69027">
        <ele>14.77</ele>
        <time>2019-05-29T13:05:23.000Z</time>
      </trkpt>
      <trkpt lat="43.89597" lon="4.69034">
        <ele>13.01</ele>
        <time>2019-05-29T13:05:28.000Z</time>
      </trkpt>
      <trkpt lat="43.89578" lon="4.69056">
        <ele>12.76</ele>
        <time>2019-05-29T13:05:33.000Z</time>
      </trkpt>
      <trkpt lat="43.89557" lon="4.6908">
        <ele>13.76</ele>
        <time>2019-05-29T13:05:38.000Z</time>
      </trkpt>
      <trkpt lat="43.89537" lon="4.691">
        <ele>14.77</ele>
        <time>2019-05-29T13:05:43.000Z</time>
      </trkpt>
      <trkpt lat="43.89515" lon="4.69121">
        <ele>14.76</ele>
        <time>2019-05-29T13:05:48.000Z</time>
      </trkpt>
      <trkpt lat="43.89492" lon="4.69115">
        <ele>13.76</ele>
        <time>2019-05-29T13:05:53.000Z</time>
      </trkpt>
      <trkpt lat="43.89469" lon="4.69093">
        <ele>11.77</ele>
        <time>2019-05-29T13:05:58.000Z</time>
      </trkpt>
      <trkpt lat="43.89444" lon="4.69067">
        <ele>10.76</ele>
        <time>2019-05-29T13:06:03.000Z</time>
      </trkpt>
      <trkpt lat="43.89419" lon="4.69041">
        <ele>11.76</ele>
        <time>2019-05-29T13:06:08.000Z</time>
      </trkpt>
      <trkpt lat="43.8939" lon="4.69017">
        <ele>12.01</ele>
        <time>2019-05-29T13:06:13.000Z</time>
      </trkpt>
      <trkpt lat="43.89361" lon="4.68992">
        <ele>12.74</ele>
        <time>2019-05-29T13:06:18.000Z</time>
      </trkpt>
      <trkpt lat="43.89333" lon="4.68967">
        <ele>11.01</ele>
        <time>2019-05-29T13:06:23.000Z</time>
      </trkpt>
      <trkpt lat="43.89312" lon="4.68946">
        <ele>10.76</ele>
        <time>2019-05-29T13:06:28.000Z</time>
      </trkpt>
      <trkpt lat="43.89292" lon="4.68931">
        <ele>9.76</ele>
        <time>2019-05-29T13:06:33.000Z</time>
      </trkpt>
      <trkpt lat="43.89269" lon="4.68913">
        <ele>10.74</ele>
        <time>2019-05-29T13:06:38.000Z</time>
      </trkpt>
      <trkpt lat="43.89243" lon="4.68893">
        <ele>11.76</ele>
        <time>2019-05-29T13:06:43.000Z</time>
      </trkpt>
      <trkpt lat="43.89218" lon="4.68871">
        <ele>11.76</ele>
        <time>2019-05-29T13:06:48.000Z</time>
      </trkpt>
      <trkpt lat="43.8919" lon="4.6885">
        <ele>10.03</ele>
        <time>2019-05-29T13:06:53.000Z</time>
      </trkpt>
      <trkpt lat="43.89163" lon="4.68829">
        <ele>10.51</ele>
        <time>2019-05-29T13:06:58.000Z</time>
      </trkpt>
      <trkpt lat="43.89136" lon="4.6881">
        <ele>9.01</ele>
        <time>2019-05-29T13:07:03.000Z</time>
      </trkpt>
      <trkpt lat="43.89109" lon="4.68789">
        <ele>8.76</ele>
        <time>2019-05-29T13:07:08.000Z</time>
      </trkpt>
      <trkpt lat="43.89082" lon="4.68771">
        <ele>8.78</ele>
        <time>2019-05-29T13:07:13.000Z</time>
      </trkpt>
      <trkpt lat="43.89056" lon="4.68751">
        <ele>8.76</ele>
        <time>2019-05-29T13:07:18.000Z</time>
      </trkpt>
      <trkpt lat="43.89031" lon="4.68731">
        <ele>8.76</ele>
        <time>2019-05-29T13:07:23.000Z</time>
      </trkpt>
      <trkpt lat="43.89007" lon="4.68712">
        <ele>9.76</ele>
        <time>2019-05-29T13:07:28.000Z</time>
      </trkpt>
      <trkpt lat="43.88985" lon="4.68696">
        <ele>9.76</ele>
        <time>2019-05-29T13:07:33.000Z</time>
      </trkpt>
      <trkpt lat="43.8897" lon="4.68683">
        <ele>10.51</ele>
        <time>2019-05-29T13:07:38.000Z</time>
      </trkpt>
      <trkpt lat="43.88951" lon="4.68669">
        <ele>11.75</ele>
        <time>2019-05-29T13:07:43.000Z</time>
      </trkpt>
      <trkpt lat="43.8893" lon="4.68652">
        <ele>10.78</ele>
        <time>2019-05-29T13:07:48.000Z</time>
      </trkpt>
      <trkpt lat="43.88913" lon="4.68633">
        <ele>11.75</ele>
        <time>2019-05-29T13:07:53.000Z</time>
      </trkpt>
      <trkpt lat="43.88897" lon="4.6862">
        <ele>12.51</ele>
        <time>2019-05-29T13:07:58.000Z</time>
      </trkpt>
      <trkpt lat="43.88877" lon="4.68602">
        <ele>11.76</ele>
        <time>2019-05-29T13:08:03.000Z</time>
      </trkpt>
      <trkpt lat="43.88856" lon="4.68585">
        <ele>12.76</ele>
        <time>2019-05-29T13:08:08.000Z</time>
      </trkpt>
      <trkpt lat="43.88838" lon="4.68561">
        <ele>13.76</ele>
        <time>2019-05-29T13:08:13.000Z</time>
      </trkpt>
      <trkpt lat="43.88819" lon="4.68538">
        <ele>13.01</ele>
        <time>2019-05-29T13:08:18.000Z</time>
      </trkpt>
      <trkpt lat="43.888" lon="4.68515">
        <ele>13.76</ele>
        <time>2019-05-29T13:08:23.000Z</time>
      </trkpt>
      <trkpt lat="43.88783" lon="4.68491">
        <ele>14.75</ele>
        <time>2019-05-29T13:08:28.000Z</time>
      </trkpt>
      <trkpt lat="43.88766" lon="4.68468">
        <ele>16.51</ele>
        <time>2019-05-29T13:08:33.000Z</time>
      </trkpt>
      <trkpt lat="43.88748" lon="4.68445">
        <ele>17.01</ele>
        <time>2019-05-29T13:08:38.000Z</time>
      </trkpt>
      <trkpt lat="43.8873" lon="4.68421">
        <ele>16.76</ele>
        <time>2019-05-29T13:08:43.000Z</time>
      </trkpt>
      <trkpt lat="43.88713" lon="4.68395">
        <ele>16.76</ele>
        <time>2019-05-29T13:08:48.000Z</time>
      </trkpt>
      <trkpt lat="43.88696" lon="4.68364">
        <ele>15.76</ele>
        <time>2019-05-29T13:08:53.000Z</time>
      </trkpt>
      <trkpt lat="43.88678" lon="4.68335">
        <ele>14.01</ele>
        <time>2019-05-29T13:08:58.000Z</time>
      </trkpt>
      <trkpt lat="43.88662" lon="4.68304">
        <ele>16.51</ele>
        <time>2019-05-29T13:09:03.000Z</time>
      </trkpt>
      <trkpt lat="43.88646" lon="4.68272">
        <ele>15.78</ele>
        <time>2019-05-29T13:09:08.000Z</time>
      </trkpt>
      <trkpt lat="43.8863" lon="4.68239">
        <ele>14.76</ele>
        <time>2019-05-29T13:09:13.000Z</time>
      </trkpt>
      <trkpt lat="43.88615" lon="4.68207">
        <ele>14.51</ele>
        <time>2019-05-29T13:09:18.000Z</time>
      </trkpt>
      <trkpt lat="43.88613" lon="4.68179">
        <ele>13.76</ele>
        <time>2019-05-29T13:09:23.000Z</time>
      </trkpt>
      <trkpt lat="43.8862" lon="4.68191">
        <ele>14.76</ele>
        <time>2019-05-29T13:09:33.000Z</time>
      </trkpt>
      <trkpt lat="43.88639" lon="4.68189">
        <ele>15.76</ele>
        <time>2019-05-29T13:09:38.000Z</time>
      </trkpt>
      <trkpt lat="43.88658" lon="4.68186">
        <ele>15.75</ele>
        <time>2019-05-29T13:09:43.000Z</time>
      </trkpt>
      <trkpt lat="43.88678" lon="4.68184">
        <ele>14.76</ele>
        <time>2019-05-29T13:09:48.000Z</time>
      </trkpt>
      <trkpt lat="43.88696" lon="4.68179">
        <ele>15.76</ele>
        <time>2019-05-29T13:09:53.000Z</time>
      </trkpt>
      <trkpt lat="43.88713" lon="4.68175">
        <ele>14.76</ele>
        <time>2019-05-29T13:09:58.000Z</time>
      </trkpt>
      <trkpt lat="43.88728" lon="4.68174">
        <ele>14.99</ele>
        <time>2019-05-29T13:10:03.000Z</time>
      </trkpt>
      <trkpt lat="43.88742" lon="4.68172">
        <ele>15.53</ele>
        <time>2019-05-29T13:10:08.000Z</time>
      </trkpt>
      <trkpt lat="43.88756" lon="4.68159">
        <ele>16.01</ele>
        <time>2019-05-29T13:10:13.000Z</time>
      </trkpt>
      <trkpt lat="43.88769" lon="4.68145">
        <ele>18.51</ele>
        <time>2019-05-29T13:10:18.000Z</time>
      </trkpt>
      <trkpt lat="43.88779" lon="4.68128">
        <ele>18</ele>
        <time>2019-05-29T13:10:23.000Z</time>
      </trkpt>
      <trkpt lat="43.88793" lon="4.68115">
        <ele>17.76</ele>
        <time>2019-05-29T13:10:28.000Z</time>
      </trkpt>
      <trkpt lat="43.8881" lon="4.68112">
        <ele>16.76</ele>
        <time>2019-05-29T13:10:33.000Z</time>
      </trkpt>
      <trkpt lat="43.88824" lon="4.68105">
        <ele>16.76</ele>
        <time>2019-05-29T13:10:38.000Z</time>
      </trkpt>
      <trkpt lat="43.88834" lon="4.68095">
        <ele>16.76</ele>
        <time>2019-05-29T13:10:43.000Z</time>
      </trkpt>
      <trkpt lat="43.88839" lon="4.68077">
        <ele>15.76</ele>
        <time>2019-05-29T13:10:48.000Z</time>
      </trkpt>
      <trkpt lat="43.8884" lon="4.68055">
        <ele>15.51</ele>
        <time>2019-05-29T13:10:53.000Z</time>
      </trkpt>
      <trkpt lat="43.8884" lon="4.68029">
        <ele>15.76</ele>
        <time>2019-05-29T13:10:58.000Z</time>
      </trkpt>
      <trkpt lat="43.88845" lon="4.68006">
        <ele>15.76</ele>
        <time>2019-05-29T13:11:03.000Z</time>
      </trkpt>
      <trkpt lat="43.88846" lon="4.67992">
        <ele>15.53</ele>
        <time>2019-05-29T13:11:08.000Z</time>
      </trkpt>
      <trkpt lat="43.88855" lon="4.67987">
        <ele>16.78</ele>
        <time>2019-05-29T13:11:25.000Z</time>
      </trkpt>
      <trkpt lat="43.8887" lon="4.67986">
        <ele>16.76</ele>
        <time>2019-05-29T13:11:30.000Z</time>
      </trkpt>
      <trkpt lat="43.88888" lon="4.67996">
        <ele>16.76</ele>
        <time>2019-05-29T13:11:35.000Z</time>
      </trkpt>
      <trkpt lat="43.88903" lon="4.68014">
        <ele>16.76</ele>
        <time>2019-05-29T13:11:40.000Z</time>
      </trkpt>
      <trkpt lat="43.88914" lon="4.68029">
        <ele>16.76</ele>
        <time>2019-05-29T13:11:45.000Z</time>
      </trkpt>
      <trkpt lat="43.88929" lon="4.68026">
        <ele>16.76</ele>
        <time>2019-05-29T13:11:50.000Z</time>
      </trkpt>
      <trkpt lat="43.88939" lon="4.6802">
        <ele>15.76</ele>
        <time>2019-05-29T13:12:00.000Z</time>
      </trkpt>
      <trkpt lat="43.88956" lon="4.68013">
        <ele>13.01</ele>
        <time>2019-05-29T13:12:05.000Z</time>
      </trkpt>
      <trkpt lat="43.88969" lon="4.68017">
        <ele>12.51</ele>
        <time>2019-05-29T13:12:10.000Z</time>
      </trkpt>
      <trkpt lat="43.88983" lon="4.6802">
        <ele>13.78</ele>
        <time>2019-05-29T13:12:15.000Z</time>
      </trkpt>
      <trkpt lat="43.88998" lon="4.68018">
        <ele>13.76</ele>
        <time>2019-05-29T13:12:20.000Z</time>
      </trkpt>
      <trkpt lat="43.89013" lon="4.68019">
        <ele>15.52</ele>
        <time>2019-05-29T13:12:25.000Z</time>
      </trkpt>
      <trkpt lat="43.89032" lon="4.68019">
        <ele>15.01</ele>
        <time>2019-05-29T13:12:30.000Z</time>
      </trkpt>
      <trkpt lat="43.89052" lon="4.68017">
        <ele>13.76</ele>
        <time>2019-05-29T13:12:35.000Z</time>
      </trkpt>
      <trkpt lat="43.89071" lon="4.68018">
        <ele>14.74</ele>
        <time>2019-05-29T13:12:40.000Z</time>
      </trkpt>
      <trkpt lat="43.89089" lon="4.68022">
        <ele>16.52</ele>
        <time>2019-05-29T13:12:45.000Z</time>
      </trkpt>
      <trkpt lat="43.89105" lon="4.6803">
        <ele>12.54</ele>
        <time>2019-05-29T13:12:50.000Z</time>
      </trkpt>
      <trkpt lat="43.89114" lon="4.68045">
        <ele>11.02</ele>
        <time>2019-05-29T13:12:55.000Z</time>
      </trkpt>
      <trkpt lat="43.89115" lon="4.68066">
        <ele>10.77</ele>
        <time>2019-05-29T13:13:00.000Z</time>
      </trkpt>
      <trkpt lat="43.89117" lon="4.68084">
        <ele>13.76</ele>
        <time>2019-05-29T13:13:05.000Z</time>
      </trkpt>
      <trkpt lat="43.89119" lon="4.68103">
        <ele>13.01</ele>
        <time>2019-05-29T13:13:10.000Z</time>
      </trkpt>
      <trkpt lat="43.8912" lon="4.68119">
        <ele>13.76</ele>
        <time>2019-05-29T13:13:15.000Z</time>
      </trkpt>
      <trkpt lat="43.89122" lon="4.68106">
        <ele>19.74</ele>
        <time>2019-05-29T13:13:44.000Z</time>
      </trkpt>
      <trkpt lat="43.89117" lon="4.68095">
        <ele>21.49</ele>
        <time>2019-05-29T13:14:25.000Z</time>
      </trkpt>
      <trkpt lat="43.89114" lon="4.68082">
        <ele>15.03</ele>
        <time>2019-05-29T13:14:31.000Z</time>
      </trkpt>
      <trkpt lat="43.89103" lon="4.68084">
        <ele>12.01</ele>
        <time>2019-05-29T13:14:36.000Z</time>
      </trkpt>
      <trkpt lat="43.89093" lon="4.68085">
        <ele>13.74</ele>
        <time>2019-05-29T13:14:44.000Z</time>
      </trkpt>
      <trkpt lat="43.89081" lon="4.68086">
        <ele>17.2</ele>
        <time>2019-05-29T13:14:49.000Z</time>
      </trkpt>
      <trkpt lat="43.8907" lon="4.68087">
        <ele>16.76</ele>
        <time>2019-05-29T13:14:54.000Z</time>
      </trkpt>
      <trkpt lat="43.89058" lon="4.68086">
        <ele>17.49</ele>
        <time>2019-05-29T13:14:59.000Z</time>
      </trkpt>
      <trkpt lat="43.89061" lon="4.68069">
        <ele>18.76</ele>
        <time>2019-05-29T13:15:06.000Z</time>
      </trkpt>
      <trkpt lat="43.89065" lon="4.68049">
        <ele>17.77</ele>
        <time>2019-05-29T13:15:11.000Z</time>
      </trkpt>
      <trkpt lat="43.89055" lon="4.68036">
        <ele>17.01</ele>
        <time>2019-05-29T13:15:16.000Z</time>
      </trkpt>
      <trkpt lat="43.89039" lon="4.68035">
        <ele>16.26</ele>
        <time>2019-05-29T13:15:21.000Z</time>
      </trkpt>
      <trkpt lat="43.89024" lon="4.68038">
        <ele>15.51</ele>
        <time>2019-05-29T13:15:26.000Z</time>
      </trkpt>
      <trkpt lat="43.89006" lon="4.68037">
        <ele>17.77</ele>
        <time>2019-05-29T13:15:31.000Z</time>
      </trkpt>
      <trkpt lat="43.88997" lon="4.68031">
        <ele>15.78</ele>
        <time>2019-05-29T13:15:36.000Z</time>
      </trkpt>
      <trkpt lat="43.88999" lon="4.68019">
        <ele>20.46</ele>
        <time>2019-05-29T13:15:43.000Z</time>
      </trkpt>
      <trkpt lat="43.89008" lon="4.68014">
        <ele>15.24</ele>
        <time>2019-05-29T13:18:58.000Z</time>
      </trkpt>
      <trkpt lat="43.8902" lon="4.68017">
        <ele>15.51</ele>
        <time>2019-05-29T13:19:03.000Z</time>
      </trkpt>
      <trkpt lat="43.89037" lon="4.68021">
        <ele>15.51</ele>
        <time>2019-05-29T13:19:08.000Z</time>
      </trkpt>
      <trkpt lat="43.89055" lon="4.68023">
        <ele>13.78</ele>
        <time>2019-05-29T13:19:13.000Z</time>
      </trkpt>
      <trkpt lat="43.89073" lon="4.68024">
        <ele>14.76</ele>
        <time>2019-05-29T13:19:18.000Z</time>
      </trkpt>
      <trkpt lat="43.89094" lon="4.68028">
        <ele>12.26</ele>
        <time>2019-05-29T13:19:23.000Z</time>
      </trkpt>
      <trkpt lat="43.89108" lon="4.68033">
        <ele>13.49</ele>
        <time>2019-05-29T13:19:28.000Z</time>
      </trkpt>
      <trkpt lat="43.89116" lon="4.68017">
        <ele>12.99</ele>
        <time>2019-05-29T13:19:33.000Z</time>
      </trkpt>
      <trkpt lat="43.89112" lon="4.67988">
        <ele>11.99</ele>
        <time>2019-05-29T13:19:38.000Z</time>
      </trkpt>
      <trkpt lat="43.89107" lon="4.67953">
        <ele>12.27</ele>
        <time>2019-05-29T13:19:43.000Z</time>
      </trkpt>
      <trkpt lat="43.89105" lon="4.67925">
        <ele>10.76</ele>
        <time>2019-05-29T13:19:48.000Z</time>
      </trkpt>
      <trkpt lat="43.89102" lon="4.67894">
        <ele>12.74</ele>
        <time>2019-05-29T13:19:53.000Z</time>
      </trkpt>
      <trkpt lat="43.891" lon="4.67866">
        <ele>13.51</ele>
        <time>2019-05-29T13:19:58.000Z</time>
      </trkpt>
      <trkpt lat="43.89096" lon="4.67835">
        <ele>13.76</ele>
        <time>2019-05-29T13:20:03.000Z</time>
      </trkpt>
      <trkpt lat="43.89085" lon="4.67805">
        <ele>13.76</ele>
        <time>2019-05-29T13:20:08.000Z</time>
      </trkpt>
      <trkpt lat="43.89071" lon="4.6778">
        <ele>13.51</ele>
        <time>2019-05-29T13:20:13.000Z</time>
      </trkpt>
      <trkpt lat="43.89055" lon="4.67756">
        <ele>13.76</ele>
        <time>2019-05-29T13:20:18.000Z</time>
      </trkpt>
      <trkpt lat="43.89038" lon="4.67732">
        <ele>13.76</ele>
        <time>2019-05-29T13:20:23.000Z</time>
      </trkpt>
      <trkpt lat="43.8902" lon="4.67708">
        <ele>12.76</ele>
        <time>2019-05-29T13:20:28.000Z</time>
      </trkpt>
      <trkpt lat="43.89002" lon="4.67683">
        <ele>12.76</ele>
        <time>2019-05-29T13:20:33.000Z</time>
      </trkpt>
      <trkpt lat="43.88985" lon="4.67657">
        <ele>13.51</ele>
        <time>2019-05-29T13:20:38.000Z</time>
      </trkpt>
      <trkpt lat="43.88976" lon="4.67635">
        <ele>14.51</ele>
        <time>2019-05-29T13:20:43.000Z</time>
      </trkpt>
      <trkpt lat="43.88982" lon="4.67608">
        <ele>13.76</ele>
        <time>2019-05-29T13:20:48.000Z</time>
      </trkpt>
      <trkpt lat="43.88987" lon="4.67577">
        <ele>13.76</ele>
        <time>2019-05-29T13:20:53.000Z</time>
      </trkpt>
      <trkpt lat="43.88988" lon="4.67544">
        <ele>13.76</ele>
        <time>2019-05-29T13:20:58.000Z</time>
      </trkpt>
      <trkpt lat="43.88988" lon="4.67508">
        <ele>14.76</ele>
        <time>2019-05-29T13:21:03.000Z</time>
      </trkpt>
      <trkpt lat="43.88987" lon="4.67474">
        <ele>13.76</ele>
        <time>2019-05-29T13:21:08.000Z</time>
      </trkpt>
      <trkpt lat="43.88986" lon="4.67436">
        <ele>13.74</ele>
        <time>2019-05-29T13:21:13.000Z</time>
      </trkpt>
      <trkpt lat="43.88987" lon="4.674">
        <ele>14.01</ele>
        <time>2019-05-29T13:21:18.000Z</time>
      </trkpt>
      <trkpt lat="43.88985" lon="4.67363">
        <ele>13.76</ele>
        <time>2019-05-29T13:21:23.000Z</time>
      </trkpt>
      <trkpt lat="43.88984" lon="4.67325">
        <ele>14.76</ele>
        <time>2019-05-29T13:21:28.000Z</time>
      </trkpt>
      <trkpt lat="43.88986" lon="4.67286">
        <ele>14.01</ele>
        <time>2019-05-29T13:21:33.000Z</time>
      </trkpt>
      <trkpt lat="43.88991" lon="4.6725">
        <ele>13.77</ele>
        <time>2019-05-29T13:21:38.000Z</time>
      </trkpt>
      <trkpt lat="43.88997" lon="4.67218">
        <ele>13.77</ele>
        <time>2019-05-29T13:21:43.000Z</time>
      </trkpt>
      <trkpt lat="43.89" lon="4.67187">
        <ele>13.51</ele>
        <time>2019-05-29T13:21:48.000Z</time>
      </trkpt>
      <trkpt lat="43.89004" lon="4.67157">
        <ele>13.76</ele>
        <time>2019-05-29T13:21:53.000Z</time>
      </trkpt>
      <trkpt lat="43.8901" lon="4.67124">
        <ele>14.76</ele>
        <time>2019-05-29T13:21:58.000Z</time>
      </trkpt>
      <trkpt lat="43.89014" lon="4.67091">
        <ele>14.76</ele>
        <time>2019-05-29T13:22:03.000Z</time>
      </trkpt>
      <trkpt lat="43.89018" lon="4.67055">
        <ele>16.74</ele>
        <time>2019-05-29T13:22:08.000Z</time>
      </trkpt>
      <trkpt lat="43.89023" lon="4.67018">
        <ele>16.76</ele>
        <time>2019-05-29T13:22:13.000Z</time>
      </trkpt>
      <trkpt lat="43.89026" lon="4.66981">
        <ele>16.51</ele>
        <time>2019-05-29T13:22:18.000Z</time>
      </trkpt>
      <trkpt lat="43.89027" lon="4.66944">
        <ele>14.77</ele>
        <time>2019-05-29T13:22:23.000Z</time>
      </trkpt>
      <trkpt lat="43.89026" lon="4.66909">
        <ele>14.76</ele>
        <time>2019-05-29T13:22:28.000Z</time>
      </trkpt>
      <trkpt lat="43.89026" lon="4.66872">
        <ele>13.99</ele>
        <time>2019-05-29T13:22:33.000Z</time>
      </trkpt>
      <trkpt lat="43.89026" lon="4.66834">
        <ele>13.76</ele>
        <time>2019-05-29T13:22:38.000Z</time>
      </trkpt>
      <trkpt lat="43.8903" lon="4.66798">
        <ele>12.76</ele>
        <time>2019-05-29T13:22:43.000Z</time>
      </trkpt>
      <trkpt lat="43.89037" lon="4.66763">
        <ele>13.76</ele>
        <time>2019-05-29T13:22:48.000Z</time>
      </trkpt>
      <trkpt lat="43.89041" lon="4.6673">
        <ele>14.76</ele>
        <time>2019-05-29T13:22:53.000Z</time>
      </trkpt>
      <trkpt lat="43.89045" lon="4.66702">
        <ele>14.76</ele>
        <time>2019-05-29T13:22:58.000Z</time>
      </trkpt>
      <trkpt lat="43.89047" lon="4.66681">
        <ele>15.76</ele>
        <time>2019-05-29T13:23:03.000Z</time>
      </trkpt>
      <trkpt lat="43.8905" lon="4.66654">
        <ele>13.76</ele>
        <time>2019-05-29T13:23:08.000Z</time>
      </trkpt>
      <trkpt lat="43.89052" lon="4.6662">
        <ele>14.74</ele>
        <time>2019-05-29T13:23:13.000Z</time>
      </trkpt>
      <trkpt lat="43.89054" lon="4.66584">
        <ele>13.77</ele>
        <time>2019-05-29T13:23:18.000Z</time>
      </trkpt>
      <trkpt lat="43.89055" lon="4.66547">
        <ele>13.74</ele>
        <time>2019-05-29T13:23:23.000Z</time>
      </trkpt>
      <trkpt lat="43.89057" lon="4.66511">
        <ele>13.76</ele>
        <time>2019-05-29T13:23:28.000Z</time>
      </trkpt>
      <trkpt lat="43.89061" lon="4.66475">
        <ele>13.76</ele>
        <time>2019-05-29T13:23:33.000Z</time>
      </trkpt>
      <trkpt lat="43.89065" lon="4.66442">
        <ele>14.76</ele>
        <time>2019-05-29T13:23:38.000Z</time>
      </trkpt>
      <trkpt lat="43.8907" lon="4.66409">
        <ele>15.01</ele>
        <time>2019-05-29T13:23:43.000Z</time>
      </trkpt>
      <trkpt lat="43.89073" lon="4.66376">
        <ele>14.76</ele>
        <time>2019-05-29T13:23:48.000Z</time>
      </trkpt>
      <trkpt lat="43.89076" lon="4.66345">
        <ele>14.76</ele>
        <time>2019-05-29T13:23:53.000Z</time>
      </trkpt>
      <trkpt lat="43.89081" lon="4.66311">
        <ele>15.52</ele>
        <time>2019-05-29T13:23:58.000Z</time>
      </trkpt>
      <trkpt lat="43.89088" lon="4.66276">
        <ele>13.77</ele>
        <time>2019-05-29T13:24:03.000Z</time>
      </trkpt>
      <trkpt lat="43.89096" lon="4.66243">
        <ele>14.76</ele>
        <time>2019-05-29T13:24:08.000Z</time>
      </trkpt>
      <trkpt lat="43.89106" lon="4.66213">
        <ele>15.01</ele>
        <time>2019-05-29T13:24:13.000Z</time>
      </trkpt>
      <trkpt lat="43.89116" lon="4.6618">
        <ele>13.76</ele>
        <time>2019-05-29T13:24:18.000Z</time>
      </trkpt>
      <trkpt lat="43.89124" lon="4.66148">
        <ele>12.77</ele>
        <time>2019-05-29T13:24:23.000Z</time>
      </trkpt>
      <trkpt lat="43.89132" lon="4.66119">
        <ele>13.75</ele>
        <time>2019-05-29T13:24:28.000Z</time>
      </trkpt>
      <trkpt lat="43.89137" lon="4.66086">
        <ele>13.74</ele>
        <time>2019-05-29T13:24:33.000Z</time>
      </trkpt>
      <trkpt lat="43.89139" lon="4.66056">
        <ele>13.76</ele>
        <time>2019-05-29T13:24:38.000Z</time>
      </trkpt>
      <trkpt lat="43.89138" lon="4.66023">
        <ele>13.75</ele>
        <time>2019-05-29T13:24:43.000Z</time>
      </trkpt>
      <trkpt lat="43.89138" lon="4.65992">
        <ele>14.76</ele>
        <time>2019-05-29T13:24:48.000Z</time>
      </trkpt>
      <trkpt lat="43.89138" lon="4.65958">
        <ele>13.77</ele>
        <time>2019-05-29T13:24:53.000Z</time>
      </trkpt>
      <trkpt lat="43.89137" lon="4.65921">
        <ele>13.76</ele>
        <time>2019-05-29T13:24:58.000Z</time>
      </trkpt>
      <trkpt lat="43.89134" lon="4.65884">
        <ele>13.76</ele>
        <time>2019-05-29T13:25:03.000Z</time>
      </trkpt>
      <trkpt lat="43.8913" lon="4.65846">
        <ele>13.76</ele>
        <time>2019-05-29T13:25:08.000Z</time>
      </trkpt>
      <trkpt lat="43.89125" lon="4.65809">
        <ele>12.77</ele>
        <time>2019-05-29T13:25:13.000Z</time>
      </trkpt>
      <trkpt lat="43.8912" lon="4.65775">
        <ele>12.01</ele>
        <time>2019-05-29T13:25:18.000Z</time>
      </trkpt>
      <trkpt lat="43.89115" lon="4.65747">
        <ele>12.74</ele>
        <time>2019-05-29T13:25:23.000Z</time>
      </trkpt>
      <trkpt lat="43.89109" lon="4.65717">
        <ele>11.76</ele>
        <time>2019-05-29T13:25:28.000Z</time>
      </trkpt>
      <trkpt lat="43.89105" lon="4.65685">
        <ele>11.76</ele>
        <time>2019-05-29T13:25:33.000Z</time>
      </trkpt>
      <trkpt lat="43.89104" lon="4.65649">
        <ele>12.76</ele>
        <time>2019-05-29T13:25:38.000Z</time>
      </trkpt>
      <trkpt lat="43.89107" lon="4.65615">
        <ele>11.77</ele>
        <time>2019-05-29T13:25:43.000Z</time>
      </trkpt>
      <trkpt lat="43.8911" lon="4.65581">
        <ele>11.76</ele>
        <time>2019-05-29T13:25:48.000Z</time>
      </trkpt>
      <trkpt lat="43.89113" lon="4.65548">
        <ele>12.51</ele>
        <time>2019-05-29T13:25:53.000Z</time>
      </trkpt>
      <trkpt lat="43.89115" lon="4.65514">
        <ele>13.75</ele>
        <time>2019-05-29T13:25:58.000Z</time>
      </trkpt>
      <trkpt lat="43.89118" lon="4.6548">
        <ele>13.75</ele>
        <time>2019-05-29T13:26:03.000Z</time>
      </trkpt>
      <trkpt lat="43.8912" lon="4.65447">
        <ele>13.75</ele>
        <time>2019-05-29T13:26:08.000Z</time>
      </trkpt>
      <trkpt lat="43.89122" lon="4.65415">
        <ele>12.77</ele>
        <time>2019-05-29T13:26:13.000Z</time>
      </trkpt>
      <trkpt lat="43.89125" lon="4.65382">
        <ele>13.75</ele>
        <time>2019-05-29T13:26:18.000Z</time>
      </trkpt>
      <trkpt lat="43.89127" lon="4.65349">
        <ele>13.74</ele>
        <time>2019-05-29T13:26:23.000Z</time>
      </trkpt>
      <trkpt lat="43.89128" lon="4.65313">
        <ele>12.76</ele>
        <time>2019-05-29T13:26:28.000Z</time>
      </trkpt>
      <trkpt lat="43.8913" lon="4.65279">
        <ele>12.75</ele>
        <time>2019-05-29T13:26:33.000Z</time>
      </trkpt>
      <trkpt lat="43.89133" lon="4.65247">
        <ele>12.75</ele>
        <time>2019-05-29T13:26:38.000Z</time>
      </trkpt>
      <trkpt lat="43.89136" lon="4.65219">
        <ele>11.77</ele>
        <time>2019-05-29T13:26:43.000Z</time>
      </trkpt>
      <trkpt lat="43.89142" lon="4.65193">
        <ele>11.77</ele>
        <time>2019-05-29T13:26:48.000Z</time>
      </trkpt>
      <trkpt lat="43.89148" lon="4.65166">
        <ele>11.75</ele>
        <time>2019-05-29T13:26:53.000Z</time>
      </trkpt>
      <trkpt lat="43.8915" lon="4.65139">
        <ele>11.75</ele>
        <time>2019-05-29T13:26:58.000Z</time>
      </trkpt>
      <trkpt lat="43.89152" lon="4.6511">
        <ele>10.77</ele>
        <time>2019-05-29T13:27:03.000Z</time>
      </trkpt>
      <trkpt lat="43.89153" lon="4.65082">
        <ele>9.77</ele>
        <time>2019-05-29T13:27:08.000Z</time>
      </trkpt>
      <trkpt lat="43.89154" lon="4.65054">
        <ele>9.75</ele>
        <time>2019-05-29T13:27:13.000Z</time>
      </trkpt>
      <trkpt lat="43.89156" lon="4.65026">
        <ele>9.5</ele>
        <time>2019-05-29T13:27:18.000Z</time>
      </trkpt>
      <trkpt lat="43.89159" lon="4.64998">
        <ele>10.74</ele>
        <time>2019-05-29T13:27:23.000Z</time>
      </trkpt>
      <trkpt lat="43.89162" lon="4.64973">
        <ele>12.75</ele>
        <time>2019-05-29T13:27:28.000Z</time>
      </trkpt>
      <trkpt lat="43.89162" lon="4.64952">
        <ele>12.75</ele>
        <time>2019-05-29T13:27:33.000Z</time>
      </trkpt>
      <trkpt lat="43.89161" lon="4.64929">
        <ele>12.75</ele>
        <time>2019-05-29T13:27:38.000Z</time>
      </trkpt>
      <trkpt lat="43.89159" lon="4.64905">
        <ele>11.75</ele>
        <time>2019-05-29T13:27:43.000Z</time>
      </trkpt>
      <trkpt lat="43.89154" lon="4.64879">
        <ele>12</ele>
        <time>2019-05-29T13:27:48.000Z</time>
      </trkpt>
      <trkpt lat="43.89145" lon="4.64851">
        <ele>12.75</ele>
        <time>2019-05-29T13:27:53.000Z</time>
      </trkpt>
      <trkpt lat="43.89134" lon="4.64823">
        <ele>12.75</ele>
        <time>2019-05-29T13:27:58.000Z</time>
      </trkpt>
      <trkpt lat="43.89127" lon="4.64788">
        <ele>12.75</ele>
        <time>2019-05-29T13:28:03.000Z</time>
      </trkpt>
      <trkpt lat="43.8912" lon="4.64754">
        <ele>13</ele>
        <time>2019-05-29T13:28:08.000Z</time>
      </trkpt>
      <trkpt lat="43.89112" lon="4.6472">
        <ele>13.5</ele>
        <time>2019-05-29T13:28:13.000Z</time>
      </trkpt>
      <trkpt lat="43.89103" lon="4.64686">
        <ele>12.75</ele>
        <time>2019-05-29T13:28:18.000Z</time>
      </trkpt>
      <trkpt lat="43.89094" lon="4.64652">
        <ele>12.75</ele>
        <time>2019-05-29T13:28:23.000Z</time>
      </trkpt>
      <trkpt lat="43.89086" lon="4.64619">
        <ele>11.77</ele>
        <time>2019-05-29T13:28:28.000Z</time>
      </trkpt>
      <trkpt lat="43.8908" lon="4.64584">
        <ele>11.75</ele>
        <time>2019-05-29T13:28:33.000Z</time>
      </trkpt>
      <trkpt lat="43.89075" lon="4.64551">
        <ele>11.75</ele>
        <time>2019-05-29T13:28:38.000Z</time>
      </trkpt>
      <trkpt lat="43.89069" lon="4.64518">
        <ele>12.75</ele>
        <time>2019-05-29T13:28:43.000Z</time>
      </trkpt>
      <trkpt lat="43.89062" lon="4.64487">
        <ele>12.75</ele>
        <time>2019-05-29T13:28:48.000Z</time>
      </trkpt>
      <trkpt lat="43.89054" lon="4.64458">
        <ele>13.75</ele>
        <time>2019-05-29T13:28:53.000Z</time>
      </trkpt>
      <trkpt lat="43.89047" lon="4.64427">
        <ele>13.75</ele>
        <time>2019-05-29T13:28:58.000Z</time>
      </trkpt>
      <trkpt lat="43.89039" lon="4.64399">
        <ele>12.75</ele>
        <time>2019-05-29T13:29:03.000Z</time>
      </trkpt>
      <trkpt lat="43.89034" lon="4.64369">
        <ele>12.75</ele>
        <time>2019-05-29T13:29:08.000Z</time>
      </trkpt>
      <trkpt lat="43.8903" lon="4.64338">
        <ele>12.75</ele>
        <time>2019-05-29T13:29:13.000Z</time>
      </trkpt>
      <trkpt lat="43.89028" lon="4.6431">
        <ele>12.75</ele>
        <time>2019-05-29T13:29:18.000Z</time>
      </trkpt>
      <trkpt lat="43.89025" lon="4.64285">
        <ele>12.75</ele>
        <time>2019-05-29T13:29:23.000Z</time>
      </trkpt>
      <trkpt lat="43.89022" lon="4.64259">
        <ele>12.75</ele>
        <time>2019-05-29T13:29:28.000Z</time>
      </trkpt>
      <trkpt lat="43.89017" lon="4.64232">
        <ele>12.75</ele>
        <time>2019-05-29T13:29:33.000Z</time>
      </trkpt>
      <trkpt lat="43.8901" lon="4.64204">
        <ele>12.75</ele>
        <time>2019-05-29T13:29:38.000Z</time>
      </trkpt>
      <trkpt lat="43.89002" lon="4.64178">
        <ele>12.75</ele>
        <time>2019-05-29T13:29:43.000Z</time>
      </trkpt>
      <trkpt lat="43.88992" lon="4.64152">
        <ele>11.75</ele>
        <time>2019-05-29T13:29:48.000Z</time>
      </trkpt>
      <trkpt lat="43.88983" lon="4.64121">
        <ele>12</ele>
        <time>2019-05-29T13:29:53.000Z</time>
      </trkpt>
      <trkpt lat="43.88975" lon="4.64087">
        <ele>12.5</ele>
        <time>2019-05-29T13:29:58.000Z</time>
      </trkpt>
      <trkpt lat="43.88974" lon="4.64054">
        <ele>12.75</ele>
        <time>2019-05-29T13:30:03.000Z</time>
      </trkpt>
      <trkpt lat="43.88977" lon="4.64025">
        <ele>13.75</ele>
        <time>2019-05-29T13:30:08.000Z</time>
      </trkpt>
      <trkpt lat="43.88979" lon="4.63999">
        <ele>13.75</ele>
        <time>2019-05-29T13:30:13.000Z</time>
      </trkpt>
      <trkpt lat="43.88979" lon="4.63969">
        <ele>14.99</ele>
        <time>2019-05-29T13:30:18.000Z</time>
      </trkpt>
      <trkpt lat="43.88981" lon="4.63935">
        <ele>13.77</ele>
        <time>2019-05-29T13:30:23.000Z</time>
      </trkpt>
      <trkpt lat="43.88982" lon="4.63902">
        <ele>13.99</ele>
        <time>2019-05-29T13:30:28.000Z</time>
      </trkpt>
      <trkpt lat="43.88981" lon="4.63869">
        <ele>13</ele>
        <time>2019-05-29T13:30:33.000Z</time>
      </trkpt>
      <trkpt lat="43.8898" lon="4.63832">
        <ele>12.74</ele>
        <time>2019-05-29T13:30:38.000Z</time>
      </trkpt>
      <trkpt lat="43.88978" lon="4.63795">
        <ele>12.02</ele>
        <time>2019-05-29T13:30:43.000Z</time>
      </trkpt>
      <trkpt lat="43.88976" lon="4.63761">
        <ele>14.5</ele>
        <time>2019-05-29T13:30:48.000Z</time>
      </trkpt>
      <trkpt lat="43.88972" lon="4.63726">
        <ele>14.75</ele>
        <time>2019-05-29T13:30:53.000Z</time>
      </trkpt>
      <trkpt lat="43.88969" lon="4.6369">
        <ele>13.77</ele>
        <time>2019-05-29T13:30:58.000Z</time>
      </trkpt>
      <trkpt lat="43.88964" lon="4.63657">
        <ele>13.75</ele>
        <time>2019-05-29T13:31:03.000Z</time>
      </trkpt>
      <trkpt lat="43.88957" lon="4.63627">
        <ele>13.5</ele>
        <time>2019-05-29T13:31:08.000Z</time>
      </trkpt>
      <trkpt lat="43.88948" lon="4.63595">
        <ele>12.75</ele>
        <time>2019-05-29T13:31:13.000Z</time>
      </trkpt>
      <trkpt lat="43.88941" lon="4.63558">
        <ele>12.74</ele>
        <time>2019-05-29T13:31:18.000Z</time>
      </trkpt>
      <trkpt lat="43.88936" lon="4.63524">
        <ele>12.75</ele>
        <time>2019-05-29T13:31:23.000Z</time>
      </trkpt>
      <trkpt lat="43.88931" lon="4.6349">
        <ele>12.74</ele>
        <time>2019-05-29T13:31:28.000Z</time>
      </trkpt>
      <trkpt lat="43.88927" lon="4.63457">
        <ele>12.75</ele>
        <time>2019-05-29T13:31:33.000Z</time>
      </trkpt>
      <trkpt lat="43.88927" lon="4.63425">
        <ele>12.75</ele>
        <time>2019-05-29T13:31:38.000Z</time>
      </trkpt>
      <trkpt lat="43.88926" lon="4.63393">
        <ele>12.5</ele>
        <time>2019-05-29T13:31:43.000Z</time>
      </trkpt>
      <trkpt lat="43.88925" lon="4.63362">
        <ele>12.75</ele>
        <time>2019-05-29T13:31:48.000Z</time>
      </trkpt>
      <trkpt lat="43.88925" lon="4.63335">
        <ele>13.74</ele>
        <time>2019-05-29T13:31:53.000Z</time>
      </trkpt>
      <trkpt lat="43.88923" lon="4.63307">
        <ele>14.5</ele>
        <time>2019-05-29T13:31:58.000Z</time>
      </trkpt>
      <trkpt lat="43.8892" lon="4.63276">
        <ele>14.74</ele>
        <time>2019-05-29T13:32:03.000Z</time>
      </trkpt>
      <trkpt lat="43.88913" lon="4.63242">
        <ele>14.75</ele>
        <time>2019-05-29T13:32:08.000Z</time>
      </trkpt>
      <trkpt lat="43.88905" lon="4.63209">
        <ele>13.52</ele>
        <time>2019-05-29T13:32:13.000Z</time>
      </trkpt>
      <trkpt lat="43.88896" lon="4.63175">
        <ele>13.75</ele>
        <time>2019-05-29T13:32:18.000Z</time>
      </trkpt>
      <trkpt lat="43.88893" lon="4.63139">
        <ele>13.75</ele>
        <time>2019-05-29T13:32:23.000Z</time>
      </trkpt>
      <trkpt lat="43.88905" lon="4.63108">
        <ele>13.75</ele>
        <time>2019-05-29T13:32:28.000Z</time>
      </trkpt>
      <trkpt lat="43.88923" lon="4.63085">
        <ele>12.75</ele>
        <time>2019-05-29T13:32:33.000Z</time>
      </trkpt>
      <trkpt lat="43.88938" lon="4.63059">
        <ele>12.75</ele>
        <time>2019-05-29T13:32:38.000Z</time>
      </trkpt>
      <trkpt lat="43.88955" lon="4.63034">
        <ele>12.75</ele>
        <time>2019-05-29T13:32:43.000Z</time>
      </trkpt>
      <trkpt lat="43.88975" lon="4.63016">
        <ele>13.74</ele>
        <time>2019-05-29T13:32:48.000Z</time>
      </trkpt>
      <trkpt lat="43.88993" lon="4.62998">
        <ele>11.77</ele>
        <time>2019-05-29T13:32:53.000Z</time>
      </trkpt>
      <trkpt lat="43.89013" lon="4.62982">
        <ele>13.75</ele>
        <time>2019-05-29T13:32:58.000Z</time>
      </trkpt>
      <trkpt lat="43.89031" lon="4.62966">
        <ele>13.75</ele>
        <time>2019-05-29T13:33:03.000Z</time>
      </trkpt>
      <trkpt lat="43.89047" lon="4.62948">
        <ele>13.75</ele>
        <time>2019-05-29T13:33:08.000Z</time>
      </trkpt>
      <trkpt lat="43.89064" lon="4.6293">
        <ele>13</ele>
        <time>2019-05-29T13:33:13.000Z</time>
      </trkpt>
      <trkpt lat="43.89083" lon="4.62915">
        <ele>11.75</ele>
        <time>2019-05-29T13:33:18.000Z</time>
      </trkpt>
      <trkpt lat="43.89104" lon="4.629">
        <ele>11.75</ele>
        <time>2019-05-29T13:33:23.000Z</time>
      </trkpt>
      <trkpt lat="43.89123" lon="4.62887">
        <ele>11.75</ele>
        <time>2019-05-29T13:33:28.000Z</time>
      </trkpt>
      <trkpt lat="43.89142" lon="4.62873">
        <ele>12.74</ele>
        <time>2019-05-29T13:33:33.000Z</time>
      </trkpt>
      <trkpt lat="43.8916" lon="4.62861">
        <ele>13.75</ele>
        <time>2019-05-29T13:33:38.000Z</time>
      </trkpt>
      <trkpt lat="43.89178" lon="4.62847">
        <ele>13.75</ele>
        <time>2019-05-29T13:33:43.000Z</time>
      </trkpt>
      <trkpt lat="43.89195" lon="4.62832">
        <ele>12.75</ele>
        <time>2019-05-29T13:33:48.000Z</time>
      </trkpt>
      <trkpt lat="43.89212" lon="4.62818">
        <ele>12.75</ele>
        <time>2019-05-29T13:33:53.000Z</time>
      </trkpt>
      <trkpt lat="43.8923" lon="4.62803">
        <ele>12.75</ele>
        <time>2019-05-29T13:33:58.000Z</time>
      </trkpt>
      <trkpt lat="43.89248" lon="4.62786">
        <ele>12.75</ele>
        <time>2019-05-29T13:34:03.000Z</time>
      </trkpt>
      <trkpt lat="43.89266" lon="4.62769">
        <ele>12.75</ele>
        <time>2019-05-29T13:34:08.000Z</time>
      </trkpt>
      <trkpt lat="43.89288" lon="4.62753">
        <ele>11.77</ele>
        <time>2019-05-29T13:34:13.000Z</time>
      </trkpt>
      <trkpt lat="43.89308" lon="4.62733">
        <ele>11.75</ele>
        <time>2019-05-29T13:34:18.000Z</time>
      </trkpt>
      <trkpt lat="43.89322" lon="4.62705">
        <ele>12</ele>
        <time>2019-05-29T13:34:23.000Z</time>
      </trkpt>
      <trkpt lat="43.89328" lon="4.62672">
        <ele>11.75</ele>
        <time>2019-05-29T13:34:28.000Z</time>
      </trkpt>
      <trkpt lat="43.8933" lon="4.62637">
        <ele>12.75</ele>
        <time>2019-05-29T13:34:33.000Z</time>
      </trkpt>
      <trkpt lat="43.89329" lon="4.62604">
        <ele>13.75</ele>
        <time>2019-05-29T13:34:38.000Z</time>
      </trkpt>
      <trkpt lat="43.8933" lon="4.62572">
        <ele>13.75</ele>
        <time>2019-05-29T13:34:43.000Z</time>
      </trkpt>
      <trkpt lat="43.89333" lon="4.62555">
        <ele>12.75</ele>
        <time>2019-05-29T13:34:48.000Z</time>
      </trkpt>
      <trkpt lat="43.89322" lon="4.62549">
        <ele>12.75</ele>
        <time>2019-05-29T13:35:56.000Z</time>
      </trkpt>
      <trkpt lat="43.89302" lon="4.62556">
        <ele>13.5</ele>
        <time>2019-05-29T13:36:01.000Z</time>
      </trkpt>
      <trkpt lat="43.89276" lon="4.62561">
        <ele>13.73</ele>
        <time>2019-05-29T13:36:06.000Z</time>
      </trkpt>
      <trkpt lat="43.89249" lon="4.62569">
        <ele>14.5</ele>
        <time>2019-05-29T13:36:11.000Z</time>
      </trkpt>
      <trkpt lat="43.89219" lon="4.62577">
        <ele>14.5</ele>
        <time>2019-05-29T13:36:16.000Z</time>
      </trkpt>
      <trkpt lat="43.89188" lon="4.62585">
        <ele>14.5</ele>
        <time>2019-05-29T13:36:21.000Z</time>
      </trkpt>
      <trkpt lat="43.89155" lon="4.62596">
        <ele>13.75</ele>
        <time>2019-05-29T13:36:26.000Z</time>
      </trkpt>
      <trkpt lat="43.89123" lon="4.6261">
        <ele>13</ele>
        <time>2019-05-29T13:36:31.000Z</time>
      </trkpt>
      <trkpt lat="43.89094" lon="4.62635">
        <ele>11.77</ele>
        <time>2019-05-29T13:36:36.000Z</time>
      </trkpt>
      <trkpt lat="43.89059" lon="4.62649">
        <ele>12.75</ele>
        <time>2019-05-29T13:36:41.000Z</time>
      </trkpt>
      <trkpt lat="43.89021" lon="4.62654">
        <ele>12.75</ele>
        <time>2019-05-29T13:36:46.000Z</time>
      </trkpt>
      <trkpt lat="43.88983" lon="4.62656">
        <ele>13.74</ele>
        <time>2019-05-29T13:36:51.000Z</time>
      </trkpt>
      <trkpt lat="43.88946" lon="4.62662">
        <ele>13.74</ele>
        <time>2019-05-29T13:36:56.000Z</time>
      </trkpt>
      <trkpt lat="43.88912" lon="4.62681">
        <ele>13.75</ele>
        <time>2019-05-29T13:37:01.000Z</time>
      </trkpt>
      <trkpt lat="43.88879" lon="4.62703">
        <ele>13</ele>
        <time>2019-05-29T13:37:06.000Z</time>
      </trkpt>
      <trkpt lat="43.88845" lon="4.62724">
        <ele>12</ele>
        <time>2019-05-29T13:37:11.000Z</time>
      </trkpt>
      <trkpt lat="43.88812" lon="4.62745">
        <ele>11.75</ele>
        <time>2019-05-29T13:37:16.000Z</time>
      </trkpt>
      <trkpt lat="43.88776" lon="4.62765">
        <ele>11.75</ele>
        <time>2019-05-29T13:37:21.000Z</time>
      </trkpt>
      <trkpt lat="43.8874" lon="4.62783">
        <ele>9.75</ele>
        <time>2019-05-29T13:37:26.000Z</time>
      </trkpt>
      <trkpt lat="43.88702" lon="4.62803">
        <ele>10.74</ele>
        <time>2019-05-29T13:37:31.000Z</time>
      </trkpt>
      <trkpt lat="43.88667" lon="4.62822">
        <ele>11.74</ele>
        <time>2019-05-29T13:37:36.000Z</time>
      </trkpt>
      <trkpt lat="43.8863" lon="4.62826">
        <ele>11.74</ele>
        <time>2019-05-29T13:37:41.000Z</time>
      </trkpt>
      <trkpt lat="43.88592" lon="4.6283">
        <ele>12.5</ele>
        <time>2019-05-29T13:37:46.000Z</time>
      </trkpt>
      <trkpt lat="43.88554" lon="4.62832">
        <ele>13.75</ele>
        <time>2019-05-29T13:37:51.000Z</time>
      </trkpt>
      <trkpt lat="43.88516" lon="4.62834">
        <ele>14.75</ele>
        <time>2019-05-29T13:37:56.000Z</time>
      </trkpt>
      <trkpt lat="43.88481" lon="4.62833">
        <ele>15.75</ele>
        <time>2019-05-29T13:38:01.000Z</time>
      </trkpt>
      <trkpt lat="43.88446" lon="4.62834">
        <ele>15.75</ele>
        <time>2019-05-29T13:38:06.000Z</time>
      </trkpt>
      <trkpt lat="43.8841" lon="4.62834">
        <ele>15.76</ele>
        <time>2019-05-29T13:38:11.000Z</time>
      </trkpt>
      <trkpt lat="43.88374" lon="4.62835">
        <ele>14.99</ele>
        <time>2019-05-29T13:38:16.000Z</time>
      </trkpt>
      <trkpt lat="43.88339" lon="4.62834">
        <ele>14.76</ele>
        <time>2019-05-29T13:38:21.000Z</time>
      </trkpt>
      <trkpt lat="43.88303" lon="4.62835">
        <ele>14.76</ele>
        <time>2019-05-29T13:38:26.000Z</time>
      </trkpt>
      <trkpt lat="43.88267" lon="4.62839">
        <ele>13.76</ele>
        <time>2019-05-29T13:38:31.000Z</time>
      </trkpt>
      <trkpt lat="43.88231" lon="4.62842">
        <ele>13.76</ele>
        <time>2019-05-29T13:38:36.000Z</time>
      </trkpt>
      <trkpt lat="43.88194" lon="4.62839">
        <ele>14.76</ele>
        <time>2019-05-29T13:38:41.000Z</time>
      </trkpt>
      <trkpt lat="43.88157" lon="4.62839">
        <ele>14.77</ele>
        <time>2019-05-29T13:38:46.000Z</time>
      </trkpt>
      <trkpt lat="43.88119" lon="4.6284">
        <ele>15.01</ele>
        <time>2019-05-29T13:38:51.000Z</time>
      </trkpt>
      <trkpt lat="43.88084" lon="4.6284">
        <ele>14.99</ele>
        <time>2019-05-29T13:38:56.000Z</time>
      </trkpt>
      <trkpt lat="43.88051" lon="4.62841">
        <ele>15.52</ele>
        <time>2019-05-29T13:39:01.000Z</time>
      </trkpt>
      <trkpt lat="43.88019" lon="4.62842">
        <ele>14.01</ele>
        <time>2019-05-29T13:39:06.000Z</time>
      </trkpt>
      <trkpt lat="43.87999" lon="4.62843">
        <ele>14.01</ele>
        <time>2019-05-29T13:39:11.000Z</time>
      </trkpt>
      <trkpt lat="43.87989" lon="4.62843">
        <ele>13.76</ele>
        <time>2019-05-29T13:39:16.000Z</time>
      </trkpt>
      <trkpt lat="43.8797" lon="4.62842">
        <ele>14.51</ele>
        <time>2019-05-29T13:39:21.000Z</time>
      </trkpt>
      <trkpt lat="43.87947" lon="4.62835">
        <ele>13.76</ele>
        <time>2019-05-29T13:39:26.000Z</time>
      </trkpt>
      <trkpt lat="43.87921" lon="4.62823">
        <ele>13.76</ele>
        <time>2019-05-29T13:39:31.000Z</time>
      </trkpt>
      <trkpt lat="43.87896" lon="4.62808">
        <ele>12.76</ele>
        <time>2019-05-29T13:39:36.000Z</time>
      </trkpt>
      <trkpt lat="43.8787" lon="4.62792">
        <ele>12.51</ele>
        <time>2019-05-29T13:39:41.000Z</time>
      </trkpt>
      <trkpt lat="43.87844" lon="4.62774">
        <ele>12.74</ele>
        <time>2019-05-29T13:39:46.000Z</time>
      </trkpt>
      <trkpt lat="43.87815" lon="4.62756">
        <ele>13.76</ele>
        <time>2019-05-29T13:39:51.000Z</time>
      </trkpt>
      <trkpt lat="43.87784" lon="4.62736">
        <ele>12.77</ele>
        <time>2019-05-29T13:39:56.000Z</time>
      </trkpt>
      <trkpt lat="43.87752" lon="4.62715">
        <ele>12.01</ele>
        <time>2019-05-29T13:40:01.000Z</time>
      </trkpt>
      <trkpt lat="43.87721" lon="4.62694">
        <ele>12.76</ele>
        <time>2019-05-29T13:40:06.000Z</time>
      </trkpt>
      <trkpt lat="43.87688" lon="4.62673">
        <ele>13.76</ele>
        <time>2019-05-29T13:40:11.000Z</time>
      </trkpt>
      <trkpt lat="43.87656" lon="4.62653">
        <ele>13.74</ele>
        <time>2019-05-29T13:40:16.000Z</time>
      </trkpt>
      <trkpt lat="43.87624" lon="4.62636">
        <ele>12.78</ele>
        <time>2019-05-29T13:40:21.000Z</time>
      </trkpt>
      <trkpt lat="43.87592" lon="4.62615">
        <ele>11.76</ele>
        <time>2019-05-29T13:40:26.000Z</time>
      </trkpt>
      <trkpt lat="43.87558" lon="4.62597">
        <ele>12.51</ele>
        <time>2019-05-29T13:40:31.000Z</time>
      </trkpt>
      <trkpt lat="43.87527" lon="4.62575">
        <ele>14.76</ele>
        <time>2019-05-29T13:40:36.000Z</time>
      </trkpt>
      <trkpt lat="43.87495" lon="4.62554">
        <ele>14.76</ele>
        <time>2019-05-29T13:40:41.000Z</time>
      </trkpt>
      <trkpt lat="43.87464" lon="4.62533">
        <ele>14.51</ele>
        <time>2019-05-29T13:40:46.000Z</time>
      </trkpt>
      <trkpt lat="43.87432" lon="4.62513">
        <ele>14.76</ele>
        <time>2019-05-29T13:40:51.000Z</time>
      </trkpt>
      <trkpt lat="43.874" lon="4.62493">
        <ele>13.78</ele>
        <time>2019-05-29T13:40:56.000Z</time>
      </trkpt>
      <trkpt lat="43.87368" lon="4.62471">
        <ele>13.76</ele>
        <time>2019-05-29T13:41:01.000Z</time>
      </trkpt>
      <trkpt lat="43.87335" lon="4.62448">
        <ele>14.75</ele>
        <time>2019-05-29T13:41:06.000Z</time>
      </trkpt>
      <trkpt lat="43.87302" lon="4.62424">
        <ele>14.76</ele>
        <time>2019-05-29T13:41:11.000Z</time>
      </trkpt>
      <trkpt lat="43.87276" lon="4.62389">
        <ele>13.78</ele>
        <time>2019-05-29T13:41:16.000Z</time>
      </trkpt>
      <trkpt lat="43.87251" lon="4.62353">
        <ele>13.76</ele>
        <time>2019-05-29T13:41:21.000Z</time>
      </trkpt>
      <trkpt lat="43.87216" lon="4.6233">
        <ele>13.76</ele>
        <time>2019-05-29T13:41:26.000Z</time>
      </trkpt>
      <trkpt lat="43.87179" lon="4.62312">
        <ele>13.76</ele>
        <time>2019-05-29T13:41:31.000Z</time>
      </trkpt>
      <trkpt lat="43.87142" lon="4.62294">
        <ele>13.76</ele>
        <time>2019-05-29T13:41:36.000Z</time>
      </trkpt>
      <trkpt lat="43.87106" lon="4.62277">
        <ele>13.76</ele>
        <time>2019-05-29T13:41:41.000Z</time>
      </trkpt>
      <trkpt lat="43.8707" lon="4.62269">
        <ele>13.78</ele>
        <time>2019-05-29T13:41:46.000Z</time>
      </trkpt>
      <trkpt lat="43.87039" lon="4.6229">
        <ele>13.76</ele>
        <time>2019-05-29T13:41:51.000Z</time>
      </trkpt>
      <trkpt lat="43.87016" lon="4.62261">
        <ele>13.76</ele>
        <time>2019-05-29T13:41:56.000Z</time>
      </trkpt>
      <trkpt lat="43.87001" lon="4.62222">
        <ele>12.76</ele>
        <time>2019-05-29T13:42:01.000Z</time>
      </trkpt>
      <trkpt lat="43.86985" lon="4.62183">
        <ele>12.01</ele>
        <time>2019-05-29T13:42:06.000Z</time>
      </trkpt>
      <trkpt lat="43.86965" lon="4.62145">
        <ele>11.78</ele>
        <time>2019-05-29T13:42:11.000Z</time>
      </trkpt>
      <trkpt lat="43.86944" lon="4.62111">
        <ele>10.78</ele>
        <time>2019-05-29T13:42:16.000Z</time>
      </trkpt>
      <trkpt lat="43.8692" lon="4.62079">
        <ele>11.76</ele>
        <time>2019-05-29T13:42:21.000Z</time>
      </trkpt>
      <trkpt lat="43.86892" lon="4.62053">
        <ele>12.75</ele>
        <time>2019-05-29T13:42:26.000Z</time>
      </trkpt>
      <trkpt lat="43.86864" lon="4.62032">
        <ele>13.76</ele>
        <time>2019-05-29T13:42:31.000Z</time>
      </trkpt>
      <trkpt lat="43.8684" lon="4.62016">
        <ele>11.76</ele>
        <time>2019-05-29T13:42:36.000Z</time>
      </trkpt>
      <trkpt lat="43.86847" lon="4.61992">
        <ele>10.76</ele>
        <time>2019-05-29T13:42:41.000Z</time>
      </trkpt>
      <trkpt lat="43.86855" lon="4.61968">
        <ele>10.76</ele>
        <time>2019-05-29T13:42:46.000Z</time>
      </trkpt>
      <trkpt lat="43.86863" lon="4.61943">
        <ele>10.53</ele>
        <time>2019-05-29T13:42:51.000Z</time>
      </trkpt>
      <trkpt lat="43.86875" lon="4.61918">
        <ele>11.76</ele>
        <time>2019-05-29T13:42:56.000Z</time>
      </trkpt>
      <trkpt lat="43.86896" lon="4.61907">
        <ele>12.76</ele>
        <time>2019-05-29T13:43:01.000Z</time>
      </trkpt>
      <trkpt lat="43.8691" lon="4.61883">
        <ele>13.75</ele>
        <time>2019-05-29T13:43:06.000Z</time>
      </trkpt>
      <trkpt lat="43.86916" lon="4.61849">
        <ele>13.76</ele>
        <time>2019-05-29T13:43:11.000Z</time>
      </trkpt>
      <trkpt lat="43.86917" lon="4.61811">
        <ele>11.76</ele>
        <time>2019-05-29T13:43:16.000Z</time>
      </trkpt>
      <trkpt lat="43.86925" lon="4.61775">
        <ele>9.76</ele>
        <time>2019-05-29T13:43:21.000Z</time>
      </trkpt>
      <trkpt lat="43.8693" lon="4.61741">
        <ele>9.76</ele>
        <time>2019-05-29T13:43:26.000Z</time>
      </trkpt>
      <trkpt lat="43.86935" lon="4.61709">
        <ele>10.76</ele>
        <time>2019-05-29T13:43:31.000Z</time>
      </trkpt>
      <trkpt lat="43.86938" lon="4.61682">
        <ele>10.76</ele>
        <time>2019-05-29T13:43:36.000Z</time>
      </trkpt>
      <trkpt lat="43.86942" lon="4.61655">
        <ele>10.76</ele>
        <time>2019-05-29T13:43:41.000Z</time>
      </trkpt>
      <trkpt lat="43.86945" lon="4.61626">
        <ele>10.76</ele>
        <time>2019-05-29T13:43:46.000Z</time>
      </trkpt>
      <trkpt lat="43.86952" lon="4.61593">
        <ele>10.77</ele>
        <time>2019-05-29T13:43:51.000Z</time>
      </trkpt>
      <trkpt lat="43.86955" lon="4.61559">
        <ele>11.76</ele>
        <time>2019-05-29T13:43:56.000Z</time>
      </trkpt>
      <trkpt lat="43.8696" lon="4.61525">
        <ele>11.78</ele>
        <time>2019-05-29T13:44:01.000Z</time>
      </trkpt>
      <trkpt lat="43.86965" lon="4.61492">
        <ele>10.76</ele>
        <time>2019-05-29T13:44:06.000Z</time>
      </trkpt>
      <trkpt lat="43.86969" lon="4.61459">
        <ele>10.76</ele>
        <time>2019-05-29T13:44:11.000Z</time>
      </trkpt>
      <trkpt lat="43.86974" lon="4.61425">
        <ele>10.76</ele>
        <time>2019-05-29T13:44:16.000Z</time>
      </trkpt>
      <trkpt lat="43.8698" lon="4.61397">
        <ele>9.78</ele>
        <time>2019-05-29T13:44:21.000Z</time>
      </trkpt>
      <trkpt lat="43.8699" lon="4.6137">
        <ele>9.51</ele>
        <time>2019-05-29T13:44:26.000Z</time>
      </trkpt>
      <trkpt lat="43.87001" lon="4.61346">
        <ele>8.76</ele>
        <time>2019-05-29T13:44:31.000Z</time>
      </trkpt>
      <trkpt lat="43.8701" lon="4.61317">
        <ele>8.76</ele>
        <time>2019-05-29T13:44:36.000Z</time>
      </trkpt>
      <trkpt lat="43.87015" lon="4.61286">
        <ele>9.53</ele>
        <time>2019-05-29T13:44:41.000Z</time>
      </trkpt>
      <trkpt lat="43.87019" lon="4.61259">
        <ele>10.01</ele>
        <time>2019-05-29T13:44:46.000Z</time>
      </trkpt>
      <trkpt lat="43.87022" lon="4.61232">
        <ele>10.75</ele>
        <time>2019-05-29T13:44:51.000Z</time>
      </trkpt>
      <trkpt lat="43.87026" lon="4.61204">
        <ele>11.76</ele>
        <time>2019-05-29T13:44:56.000Z</time>
      </trkpt>
      <trkpt lat="43.8703" lon="4.61176">
        <ele>11.76</ele>
        <time>2019-05-29T13:45:01.000Z</time>
      </trkpt>
      <trkpt lat="43.87036" lon="4.61148">
        <ele>11.78</ele>
        <time>2019-05-29T13:45:06.000Z</time>
      </trkpt>
      <trkpt lat="43.87051" lon="4.61123">
        <ele>11.78</ele>
        <time>2019-05-29T13:45:11.000Z</time>
      </trkpt>
      <trkpt lat="43.87072" lon="4.61112">
        <ele>11.76</ele>
        <time>2019-05-29T13:45:16.000Z</time>
      </trkpt>
      <trkpt lat="43.8709" lon="4.61095">
        <ele>12.99</ele>
        <time>2019-05-29T13:45:21.000Z</time>
      </trkpt>
      <trkpt lat="43.87105" lon="4.61071">
        <ele>13.01</ele>
        <time>2019-05-29T13:45:26.000Z</time>
      </trkpt>
      <trkpt lat="43.87109" lon="4.6104">
        <ele>10.53</ele>
        <time>2019-05-29T13:45:31.000Z</time>
      </trkpt>
      <trkpt lat="43.87109" lon="4.61006">
        <ele>11.51</ele>
        <time>2019-05-29T13:45:36.000Z</time>
      </trkpt>
      <trkpt lat="43.8711" lon="4.60972">
        <ele>10.76</ele>
        <time>2019-05-29T13:45:41.000Z</time>
      </trkpt>
      <trkpt lat="43.87109" lon="4.60938">
        <ele>10.53</ele>
        <time>2019-05-29T13:45:46.000Z</time>
      </trkpt>
      <trkpt lat="43.87109" lon="4.60901">
        <ele>10.77</ele>
        <time>2019-05-29T13:45:51.000Z</time>
      </trkpt>
      <trkpt lat="43.87111" lon="4.60865">
        <ele>10.01</ele>
        <time>2019-05-29T13:45:56.000Z</time>
      </trkpt>
      <trkpt lat="43.87114" lon="4.6083">
        <ele>10.76</ele>
        <time>2019-05-29T13:46:01.000Z</time>
      </trkpt>
      <trkpt lat="43.87119" lon="4.60795">
        <ele>11.74</ele>
        <time>2019-05-29T13:46:06.000Z</time>
      </trkpt>
      <trkpt lat="43.87126" lon="4.60758">
        <ele>12.01</ele>
        <time>2019-05-29T13:46:11.000Z</time>
      </trkpt>
      <trkpt lat="43.87132" lon="4.60721">
        <ele>12.76</ele>
        <time>2019-05-29T13:46:16.000Z</time>
      </trkpt>
      <trkpt lat="43.87136" lon="4.60695">
        <ele>11.01</ele>
        <time>2019-05-29T13:46:21.000Z</time>
      </trkpt>
      <trkpt lat="43.87132" lon="4.60708">
        <ele>10.74</ele>
        <time>2019-05-29T13:46:26.000Z</time>
      </trkpt>
      <trkpt lat="43.87129" lon="4.60732">
        <ele>9.76</ele>
        <time>2019-05-29T13:46:31.000Z</time>
      </trkpt>
      <trkpt lat="43.87123" lon="4.60754">
        <ele>10.76</ele>
        <time>2019-05-29T13:46:36.000Z</time>
      </trkpt>
      <trkpt lat="43.87109" lon="4.60748">
        <ele>11.53</ele>
        <time>2019-05-29T13:46:41.000Z</time>
      </trkpt>
      <trkpt lat="43.87093" lon="4.60721">
        <ele>9.78</ele>
        <time>2019-05-29T13:46:46.000Z</time>
      </trkpt>
      <trkpt lat="43.87076" lon="4.60697">
        <ele>10.01</ele>
        <time>2019-05-29T13:46:51.000Z</time>
      </trkpt>
      <trkpt lat="43.87059" lon="4.60674">
        <ele>10.76</ele>
        <time>2019-05-29T13:46:56.000Z</time>
      </trkpt>
      <trkpt lat="43.87041" lon="4.60648">
        <ele>9.76</ele>
        <time>2019-05-29T13:47:01.000Z</time>
      </trkpt>
      <trkpt lat="43.87022" lon="4.60621">
        <ele>9.76</ele>
        <time>2019-05-29T13:47:06.000Z</time>
      </trkpt>
      <trkpt lat="43.87002" lon="4.60595">
        <ele>10.51</ele>
        <time>2019-05-29T13:47:11.000Z</time>
      </trkpt>
      <trkpt lat="43.86982" lon="4.60568">
        <ele>11.74</ele>
        <time>2019-05-29T13:47:16.000Z</time>
      </trkpt>
      <trkpt lat="43.86962" lon="4.60541">
        <ele>11.76</ele>
        <time>2019-05-29T13:47:21.000Z</time>
      </trkpt>
      <trkpt lat="43.86941" lon="4.60513">
        <ele>11.76</ele>
        <time>2019-05-29T13:47:26.000Z</time>
      </trkpt>
      <trkpt lat="43.8692" lon="4.60483">
        <ele>11.01</ele>
        <time>2019-05-29T13:47:31.000Z</time>
      </trkpt>
      <trkpt lat="43.86899" lon="4.60454">
        <ele>11.51</ele>
        <time>2019-05-29T13:47:36.000Z</time>
      </trkpt>
      <trkpt lat="43.86878" lon="4.60423">
        <ele>11.76</ele>
        <time>2019-05-29T13:47:41.000Z</time>
      </trkpt>
      <trkpt lat="43.86856" lon="4.60395">
        <ele>11.76</ele>
        <time>2019-05-29T13:47:46.000Z</time>
      </trkpt>
      <trkpt lat="43.86836" lon="4.60366">
        <ele>10.76</ele>
        <time>2019-05-29T13:47:51.000Z</time>
      </trkpt>
      <trkpt lat="43.86815" lon="4.60337">
        <ele>11.74</ele>
        <time>2019-05-29T13:47:56.000Z</time>
      </trkpt>
      <trkpt lat="43.86799" lon="4.60303">
        <ele>10.76</ele>
        <time>2019-05-29T13:48:01.000Z</time>
      </trkpt>
      <trkpt lat="43.86781" lon="4.60271">
        <ele>11.51</ele>
        <time>2019-05-29T13:48:06.000Z</time>
      </trkpt>
      <trkpt lat="43.86762" lon="4.60238">
        <ele>11.76</ele>
        <time>2019-05-29T13:48:11.000Z</time>
      </trkpt>
      <trkpt lat="43.86749" lon="4.60199">
        <ele>13.5</ele>
        <time>2019-05-29T13:48:16.000Z</time>
      </trkpt>
      <trkpt lat="43.86746" lon="4.60158">
        <ele>14.76</ele>
        <time>2019-05-29T13:48:21.000Z</time>
      </trkpt>
      <trkpt lat="43.86746" lon="4.60118">
        <ele>12.03</ele>
        <time>2019-05-29T13:48:26.000Z</time>
      </trkpt>
      <trkpt lat="43.86745" lon="4.60079">
        <ele>12</ele>
        <time>2019-05-29T13:48:31.000Z</time>
      </trkpt>
      <trkpt lat="43.86745" lon="4.60042">
        <ele>11.76</ele>
        <time>2019-05-29T13:48:36.000Z</time>
      </trkpt>
      <trkpt lat="43.86748" lon="4.6001">
        <ele>11.01</ele>
        <time>2019-05-29T13:48:41.000Z</time>
      </trkpt>
      <trkpt lat="43.86753" lon="4.59979">
        <ele>10.76</ele>
        <time>2019-05-29T13:48:46.000Z</time>
      </trkpt>
      <trkpt lat="43.8676" lon="4.59947">
        <ele>10.74</ele>
        <time>2019-05-29T13:48:51.000Z</time>
      </trkpt>
      <trkpt lat="43.86767" lon="4.59915">
        <ele>11.01</ele>
        <time>2019-05-29T13:48:56.000Z</time>
      </trkpt>
      <trkpt lat="43.86774" lon="4.59884">
        <ele>10.76</ele>
        <time>2019-05-29T13:49:01.000Z</time>
      </trkpt>
      <trkpt lat="43.86782" lon="4.59859">
        <ele>10.01</ele>
        <time>2019-05-29T13:49:06.000Z</time>
      </trkpt>
      <trkpt lat="43.86787" lon="4.59837">
        <ele>10.02</ele>
        <time>2019-05-29T13:49:11.000Z</time>
      </trkpt>
      <trkpt lat="43.86791" lon="4.59814">
        <ele>9.76</ele>
        <time>2019-05-29T13:49:16.000Z</time>
      </trkpt>
      <trkpt lat="43.86792" lon="4.59788">
        <ele>10.76</ele>
        <time>2019-05-29T13:49:21.000Z</time>
      </trkpt>
      <trkpt lat="43.86794" lon="4.5976">
        <ele>10.76</ele>
        <time>2019-05-29T13:49:26.000Z</time>
      </trkpt>
      <trkpt lat="43.86795" lon="4.59732">
        <ele>11.01</ele>
        <time>2019-05-29T13:49:31.000Z</time>
      </trkpt>
      <trkpt lat="43.86797" lon="4.59704">
        <ele>10.76</ele>
        <time>2019-05-29T13:49:36.000Z</time>
      </trkpt>
      <trkpt lat="43.86802" lon="4.59676">
        <ele>8.76</ele>
        <time>2019-05-29T13:49:41.000Z</time>
      </trkpt>
      <trkpt lat="43.8681" lon="4.59649">
        <ele>8.76</ele>
        <time>2019-05-29T13:49:46.000Z</time>
      </trkpt>
      <trkpt lat="43.86821" lon="4.59625">
        <ele>8.76</ele>
        <time>2019-05-29T13:49:51.000Z</time>
      </trkpt>
      <trkpt lat="43.86835" lon="4.59604">
        <ele>8.76</ele>
        <time>2019-05-29T13:49:56.000Z</time>
      </trkpt>
      <trkpt lat="43.8685" lon="4.5959">
        <ele>8.76</ele>
        <time>2019-05-29T13:50:01.000Z</time>
      </trkpt>
      <trkpt lat="43.86865" lon="4.59581">
        <ele>9.74</ele>
        <time>2019-05-29T13:50:06.000Z</time>
      </trkpt>
      <trkpt lat="43.86879" lon="4.59571">
        <ele>8.76</ele>
        <time>2019-05-29T13:50:11.000Z</time>
      </trkpt>
      <trkpt lat="43.86891" lon="4.59559">
        <ele>8.76</ele>
        <time>2019-05-29T13:50:16.000Z</time>
      </trkpt>
      <trkpt lat="43.86903" lon="4.59544">
        <ele>8.76</ele>
        <time>2019-05-29T13:50:21.000Z</time>
      </trkpt>
      <trkpt lat="43.86915" lon="4.59529">
        <ele>8.76</ele>
        <time>2019-05-29T13:50:26.000Z</time>
      </trkpt>
      <trkpt lat="43.86928" lon="4.59514">
        <ele>8.76</ele>
        <time>2019-05-29T13:50:31.000Z</time>
      </trkpt>
      <trkpt lat="43.86938" lon="4.59502">
        <ele>8.01</ele>
        <time>2019-05-29T13:50:36.000Z</time>
      </trkpt>
      <trkpt lat="43.86948" lon="4.59488">
        <ele>8.76</ele>
        <time>2019-05-29T13:50:41.000Z</time>
      </trkpt>
      <trkpt lat="43.86959" lon="4.59476">
        <ele>8.76</ele>
        <time>2019-05-29T13:50:46.000Z</time>
      </trkpt>
      <trkpt lat="43.86972" lon="4.59461">
        <ele>8.76</ele>
        <time>2019-05-29T13:50:51.000Z</time>
      </trkpt>
      <trkpt lat="43.86985" lon="4.59444">
        <ele>8.01</ele>
        <time>2019-05-29T13:50:56.000Z</time>
      </trkpt>
      <trkpt lat="43.86999" lon="4.59425">
        <ele>7.01</ele>
        <time>2019-05-29T13:51:01.000Z</time>
      </trkpt>
      <trkpt lat="43.87011" lon="4.59406">
        <ele>7.51</ele>
        <time>2019-05-29T13:51:06.000Z</time>
      </trkpt>
      <trkpt lat="43.87022" lon="4.59386">
        <ele>7.76</ele>
        <time>2019-05-29T13:51:11.000Z</time>
      </trkpt>
      <trkpt lat="43.87033" lon="4.59366">
        <ele>6.76</ele>
        <time>2019-05-29T13:51:16.000Z</time>
      </trkpt>
      <trkpt lat="43.87044" lon="4.59345">
        <ele>6.76</ele>
        <time>2019-05-29T13:51:21.000Z</time>
      </trkpt>
      <trkpt lat="43.87057" lon="4.59324">
        <ele>6.76</ele>
        <time>2019-05-29T13:51:26.000Z</time>
      </trkpt>
      <trkpt lat="43.8707" lon="4.59302">
        <ele>7.52</ele>
        <time>2019-05-29T13:51:31.000Z</time>
      </trkpt>
      <trkpt lat="43.87088" lon="4.59282">
        <ele>6.76</ele>
        <time>2019-05-29T13:51:36.000Z</time>
      </trkpt>
      <trkpt lat="43.87112" lon="4.59269">
        <ele>6.76</ele>
        <time>2019-05-29T13:51:41.000Z</time>
      </trkpt>
      <trkpt lat="43.87125" lon="4.59247">
        <ele>8.74</ele>
        <time>2019-05-29T13:51:46.000Z</time>
      </trkpt>
      <trkpt lat="43.87139" lon="4.59223">
        <ele>7.76</ele>
        <time>2019-05-29T13:51:51.000Z</time>
      </trkpt>
      <trkpt lat="43.87154" lon="4.592">
        <ele>9.51</ele>
        <time>2019-05-29T13:51:56.000Z</time>
      </trkpt>
      <trkpt lat="43.8717" lon="4.5918">
        <ele>9.77</ele>
        <time>2019-05-29T13:52:01.000Z</time>
      </trkpt>
      <trkpt lat="43.87187" lon="4.5916">
        <ele>8.76</ele>
        <time>2019-05-29T13:52:06.000Z</time>
      </trkpt>
      <trkpt lat="43.87205" lon="4.59147">
        <ele>9.51</ele>
        <time>2019-05-29T13:52:11.000Z</time>
      </trkpt>
      <trkpt lat="43.87225" lon="4.59142">
        <ele>8.77</ele>
        <time>2019-05-29T13:52:16.000Z</time>
      </trkpt>
      <trkpt lat="43.87245" lon="4.59142">
        <ele>9.76</ele>
        <time>2019-05-29T13:52:21.000Z</time>
      </trkpt>
      <trkpt lat="43.87267" lon="4.59145">
        <ele>10.51</ele>
        <time>2019-05-29T13:52:26.000Z</time>
      </trkpt>
      <trkpt lat="43.87287" lon="4.59145">
        <ele>10.74</ele>
        <time>2019-05-29T13:52:31.000Z</time>
      </trkpt>
      <trkpt lat="43.87304" lon="4.59129">
        <ele>12.74</ele>
        <time>2019-05-29T13:52:36.000Z</time>
      </trkpt>
      <trkpt lat="43.87319" lon="4.59107">
        <ele>12.01</ele>
        <time>2019-05-29T13:52:41.000Z</time>
      </trkpt>
      <trkpt lat="43.8733" lon="4.59092">
        <ele>10.77</ele>
        <time>2019-05-29T13:52:46.000Z</time>
      </trkpt>
      <trkpt lat="43.87322" lon="4.59101">
        <ele>12.76</ele>
        <time>2019-05-29T13:53:15.000Z</time>
      </trkpt>
      <trkpt lat="43.8731" lon="4.59123">
        <ele>12.76</ele>
        <time>2019-05-29T13:53:20.000Z</time>
      </trkpt>
      <trkpt lat="43.87305" lon="4.59144">
        <ele>12.77</ele>
        <time>2019-05-29T13:53:25.000Z</time>
      </trkpt>
      <trkpt lat="43.87322" lon="4.59151">
        <ele>13.74</ele>
        <time>2019-05-29T13:53:30.000Z</time>
      </trkpt>
      <trkpt lat="43.8734" lon="4.59154">
        <ele>13.99</ele>
        <time>2019-05-29T13:53:35.000Z</time>
      </trkpt>
      <trkpt lat="43.87359" lon="4.59155">
        <ele>14.75</ele>
        <time>2019-05-29T13:53:40.000Z</time>
      </trkpt>
      <trkpt lat="43.87378" lon="4.59157">
        <ele>15.51</ele>
        <time>2019-05-29T13:53:45.000Z</time>
      </trkpt>
      <trkpt lat="43.87395" lon="4.5916">
        <ele>15.76</ele>
        <time>2019-05-29T13:53:50.000Z</time>
      </trkpt>
      <trkpt lat="43.87411" lon="4.59161">
        <ele>16.76</ele>
        <time>2019-05-29T13:53:55.000Z</time>
      </trkpt>
      <trkpt lat="43.87421" lon="4.59164">
        <ele>17.01</ele>
        <time>2019-05-29T13:54:03.000Z</time>
      </trkpt>
      <trkpt lat="43.87419" lon="4.59185">
        <ele>16.77</ele>
        <time>2019-05-29T13:54:08.000Z</time>
      </trkpt>
      <trkpt lat="43.87413" lon="4.59211">
        <ele>16.76</ele>
        <time>2019-05-29T13:54:13.000Z</time>
      </trkpt>
      <trkpt lat="43.87407" lon="4.5924">
        <ele>14.77</ele>
        <time>2019-05-29T13:54:18.000Z</time>
      </trkpt>
      <trkpt lat="43.87397" lon="4.59269">
        <ele>14.76</ele>
        <time>2019-05-29T13:54:23.000Z</time>
      </trkpt>
      <trkpt lat="43.87388" lon="4.59287">
        <ele>14.74</ele>
        <time>2019-05-29T13:54:28.000Z</time>
      </trkpt>
      <trkpt lat="43.87381" lon="4.59294">
        <ele>14.76</ele>
        <time>2019-05-29T13:55:05.000Z</time>
      </trkpt>
      <trkpt lat="43.87394" lon="4.59302">
        <ele>14.76</ele>
        <time>2019-05-29T13:55:10.000Z</time>
      </trkpt>
      <trkpt lat="43.87413" lon="4.59305">
        <ele>14.01</ele>
        <time>2019-05-29T13:55:15.000Z</time>
      </trkpt>
      <trkpt lat="43.8743" lon="4.59307">
        <ele>14.75</ele>
        <time>2019-05-29T13:55:20.000Z</time>
      </trkpt>
      <trkpt lat="43.87448" lon="4.59308">
        <ele>16.74</ele>
        <time>2019-05-29T13:55:25.000Z</time>
      </trkpt>
      <trkpt lat="43.87466" lon="4.59308">
        <ele>18.51</ele>
        <time>2019-05-29T13:55:30.000Z</time>
      </trkpt>
      <trkpt lat="43.87483" lon="4.59309">
        <ele>18.51</ele>
        <time>2019-05-29T13:55:35.000Z</time>
      </trkpt>
      <trkpt lat="43.875" lon="4.59308">
        <ele>19.75</ele>
        <time>2019-05-29T13:55:40.000Z</time>
      </trkpt>
      <trkpt lat="43.87518" lon="4.59309">
        <ele>20.75</ele>
        <time>2019-05-29T13:55:45.000Z</time>
      </trkpt>
      <trkpt lat="43.87536" lon="4.5931">
        <ele>20.75</ele>
        <time>2019-05-29T13:55:50.000Z</time>
      </trkpt>
      <trkpt lat="43.8755" lon="4.59312">
        <ele>19.52</ele>
        <time>2019-05-29T13:55:55.000Z</time>
      </trkpt>
      <trkpt lat="43.87565" lon="4.59312">
        <ele>18.75</ele>
        <time>2019-05-29T13:56:00.000Z</time>
      </trkpt>
      <trkpt lat="43.87581" lon="4.59309">
        <ele>20.5</ele>
        <time>2019-05-29T13:56:05.000Z</time>
      </trkpt>
      <trkpt lat="43.87593" lon="4.59298">
        <ele>20.75</ele>
        <time>2019-05-29T13:56:10.000Z</time>
      </trkpt>
      <trkpt lat="43.87603" lon="4.59288">
        <ele>21.51</ele>
        <time>2019-05-29T13:56:15.000Z</time>
      </trkpt>
      <trkpt lat="43.87612" lon="4.59277">
        <ele>18.77</ele>
        <time>2019-05-29T13:56:20.000Z</time>
      </trkpt>
      <trkpt lat="43.87615" lon="4.59265">
        <ele>17.77</ele>
        <time>2019-05-29T13:56:27.000Z</time>
      </trkpt>
      <trkpt lat="43.87621" lon="4.59256">
        <ele>16.74</ele>
        <time>2019-05-29T13:57:11.000Z</time>
      </trkpt>
      <trkpt lat="43.87618" lon="4.59254">
        <ele>26.82</ele>
        <time>2019-05-29T13:59:41.000Z</time>
      </trkpt>
      <trkpt lat="43.87514" lon="4.5916">
        <ele>16</ele>
        <time>2019-05-29T15:00:32.000Z</time>
      </trkpt>
      <trkpt lat="43.87434" lon="4.59068">
        <ele>15</ele>
        <time>2019-05-29T15:01:24.000Z</time>
      </trkpt>
      <trkpt lat="43.87403" lon="4.59054">
        <ele>15</ele>
        <time>2019-05-29T15:01:33.000Z</time>
      </trkpt>
      <trkpt lat="43.87371" lon="4.59089">
        <ele>14</ele>
        <time>2019-05-29T15:01:38.000Z</time>
      </trkpt>
      <trkpt lat="43.87276" lon="4.59078">
        <ele>14</ele>
        <time>2019-05-29T15:01:43.000Z</time>
      </trkpt>
      <trkpt lat="43.87228" lon="4.59068">
        <ele>14</ele>
        <time>2019-05-29T15:01:48.000Z</time>
      </trkpt>
      <trkpt lat="43.87181" lon="4.58978">
        <ele>15</ele>
        <time>2019-05-29T15:01:53.000Z</time>
      </trkpt>
      <trkpt lat="43.87108" lon="4.58751">
        <ele>15</ele>
        <time>2019-05-29T15:01:58.000Z</time>
      </trkpt>
      <trkpt lat="43.86998" lon="4.58761">
        <ele>15</ele>
        <time>2019-05-29T15:02:03.000Z</time>
      </trkpt>
      <trkpt lat="43.86933" lon="4.58753">
        <ele>14</ele>
        <time>2019-05-29T15:02:08.000Z</time>
      </trkpt>
      <trkpt lat="43.86834" lon="4.58724">
        <ele>14</ele>
        <time>2019-05-29T15:02:13.000Z</time>
      </trkpt>
      <trkpt lat="43.86782" lon="4.58698">
        <ele>14</ele>
        <time>2019-05-29T15:02:18.000Z</time>
      </trkpt>
      <trkpt lat="43.86737" lon="4.5864">
        <ele>14</ele>
        <time>2019-05-29T15:02:23.000Z</time>
      </trkpt>
      <trkpt lat="43.86674" lon="4.58457">
        <ele>14</ele>
        <time>2019-05-29T15:02:28.000Z</time>
      </trkpt>
      <trkpt lat="43.8655" lon="4.58251">
        <ele>16</ele>
        <time>2019-05-29T15:02:33.000Z</time>
      </trkpt>
      <trkpt lat="43.86433" lon="4.58125">
        <ele>21</ele>
        <time>2019-05-29T15:02:38.000Z</time>
      </trkpt>
      <trkpt lat="43.86221" lon="4.58327">
        <ele>22</ele>
        <time>2019-05-29T15:02:43.000Z</time>
      </trkpt>
      <trkpt lat="43.85889" lon="4.58649">
        <ele>20</ele>
        <time>2019-05-29T15:02:48.000Z</time>
      </trkpt>
      <trkpt lat="43.85903" lon="4.58741">
        <ele>17</ele>
        <time>2019-05-29T15:02:53.000Z</time>
      </trkpt>
      <trkpt lat="43.85836" lon="4.58759">
        <ele>17</ele>
        <time>2019-05-29T15:02:58.000Z</time>
      </trkpt>
      <trkpt lat="43.85793" lon="4.5875">
        <ele>17</ele>
        <time>2019-05-29T15:03:03.000Z</time>
      </trkpt>
      <trkpt lat="43.85385" lon="4.59146">
        <ele>17</ele>
        <time>2019-05-29T15:03:08.000Z</time>
      </trkpt>
      <trkpt lat="43.85126" lon="4.59376">
        <ele>19</ele>
        <time>2019-05-29T15:03:13.000Z</time>
      </trkpt>
      <trkpt lat="43.85007" lon="4.59587">
        <ele>21</ele>
        <time>2019-05-29T15:03:18.000Z</time>
      </trkpt>
      <trkpt lat="43.84931" lon="4.59992">
        <ele>16</ele>
        <time>2019-05-29T15:03:23.000Z</time>
      </trkpt>
      <trkpt lat="43.84878" lon="4.60337">
        <ele>17</ele>
        <time>2019-05-29T15:03:28.000Z</time>
      </trkpt>
      <trkpt lat="43.84768" lon="4.60535">
        <ele>17</ele>
        <time>2019-05-29T15:03:33.000Z</time>
      </trkpt>
      <trkpt lat="43.84543" lon="4.60742">
        <ele>17</ele>
        <time>2019-05-29T15:03:47.000Z</time>
      </trkpt>
      <trkpt lat="43.84437" lon="4.60898">
        <ele>18</ele>
        <time>2019-05-29T15:03:52.000Z</time>
      </trkpt>
      <trkpt lat="43.844" lon="4.61087">
        <ele>27</ele>
        <time>2019-05-29T15:03:57.000Z</time>
      </trkpt>
      <trkpt lat="43.8431" lon="4.61358">
        <ele>21</ele>
        <time>2019-05-29T15:04:02.000Z</time>
      </trkpt>
      <trkpt lat="43.84191" lon="4.61717">
        <ele>24</ele>
        <time>2019-05-29T15:04:07.000Z</time>
      </trkpt>
      <trkpt lat="43.84095" lon="4.61859">
        <ele>38</ele>
        <time>2019-05-29T15:04:12.000Z</time>
      </trkpt>
      <trkpt lat="43.83916" lon="4.61933">
        <ele>26</ele>
        <time>2019-05-29T15:04:17.000Z</time>
      </trkpt>
      <trkpt lat="43.83813" lon="4.61961">
        <ele>18</ele>
        <time>2019-05-29T15:04:22.000Z</time>
      </trkpt>
      <trkpt lat="43.8363" lon="4.61836">
        <ele>22</ele>
        <time>2019-05-29T15:04:27.000Z</time>
      </trkpt>
      <trkpt lat="43.83431" lon="4.61758">
        <ele>23</ele>
        <time>2019-05-29T15:04:32.000Z</time>
      </trkpt>
      <trkpt lat="43.83239" lon="4.61722">
        <ele>24</ele>
        <time>2019-05-29T15:04:37.000Z</time>
      </trkpt>
      <trkpt lat="43.83126" lon="4.61749">
        <ele>22</ele>
        <time>2019-05-29T15:04:42.000Z</time>
      </trkpt>
      <trkpt lat="43.82953" lon="4.61961">
        <ele>19</ele>
        <time>2019-05-29T15:04:47.000Z</time>
      </trkpt>
      <trkpt lat="43.82788" lon="4.62108">
        <ele>17</ele>
        <time>2019-05-29T15:04:52.000Z</time>
      </trkpt>
      <trkpt lat="43.82698" lon="4.62315">
        <ele>19</ele>
        <time>2019-05-29T15:04:57.000Z</time>
      </trkpt>
      <trkpt lat="43.82612" lon="4.62563">
        <ele>22</ele>
        <time>2019-05-29T15:05:02.000Z</time>
      </trkpt>
      <trkpt lat="43.82442" lon="4.6266">
        <ele>21</ele>
        <time>2019-05-29T15:05:07.000Z</time>
      </trkpt>
      <trkpt lat="43.82287" lon="4.62701">
        <ele>21</ele>
        <time>2019-05-29T15:05:12.000Z</time>
      </trkpt>
      <trkpt lat="43.8222" lon="4.62761">
        <ele>17</ele>
        <time>2019-05-29T15:05:17.000Z</time>
      </trkpt>
      <trkpt lat="43.82041" lon="4.62802">
        <ele>25</ele>
        <time>2019-05-29T15:05:22.000Z</time>
      </trkpt>
      <trkpt lat="43.82077" lon="4.62871">
        <ele>13</ele>
        <time>2019-05-29T15:05:27.000Z</time>
      </trkpt>
      <trkpt lat="43.82048" lon="4.6294">
        <ele>10</ele>
        <time>2019-05-29T15:05:32.000Z</time>
      </trkpt>
      <trkpt lat="43.81945" lon="4.63249">
        <ele>15</ele>
        <time>2019-05-29T15:05:37.000Z</time>
      </trkpt>
      <trkpt lat="43.81845" lon="4.6358">
        <ele>17</ele>
        <time>2019-05-29T15:05:42.000Z</time>
      </trkpt>
      <trkpt lat="43.81772" lon="4.63851">
        <ele>13</ele>
        <time>2019-05-29T15:05:47.000Z</time>
      </trkpt>
      <trkpt lat="43.81663" lon="4.63998">
        <ele>16</ele>
        <time>2019-05-29T15:05:52.000Z</time>
      </trkpt>
      <trkpt lat="43.81603" lon="4.64113">
        <ele>11</ele>
        <time>2019-05-29T15:07:41.000Z</time>
      </trkpt>
      <trkpt lat="43.81593" lon="4.64178">
        <ele>10</ele>
        <time>2019-05-29T15:07:48.000Z</time>
      </trkpt>
      <trkpt lat="43.8148" lon="4.64214">
        <ele>13</ele>
        <time>2019-05-29T15:08:37.000Z</time>
      </trkpt>
      <trkpt lat="43.81278" lon="4.64297">
        <ele>14</ele>
        <time>2019-05-29T15:08:52.000Z</time>
      </trkpt>
      <trkpt lat="43.81437" lon="4.64555">
        <ele>11</ele>
        <time>2019-05-29T15:08:57.000Z</time>
      </trkpt>
      <trkpt lat="43.81334" lon="4.64688">
        <ele>10</ele>
        <time>2019-05-29T15:09:04.000Z</time>
      </trkpt>
      <trkpt lat="43.81304" lon="4.64661">
        <ele>12</ele>
        <time>2019-05-29T15:09:09.000Z</time>
      </trkpt>
      <trkpt lat="43.81268" lon="4.64716">
        <ele>11</ele>
        <time>2019-05-29T15:10:28.000Z</time>
      </trkpt>
      <trkpt lat="43.81065" lon="4.64716">
        <ele>12</ele>
        <time>2019-05-29T15:11:26.000Z</time>
      </trkpt>
      <trkpt lat="43.80863" lon="4.6473">
        <ele>13</ele>
        <time>2019-05-29T15:11:38.000Z</time>
      </trkpt>
      <trkpt lat="43.80756" lon="4.64803">
        <ele>11</ele>
        <time>2019-05-29T15:11:51.000Z</time>
      </trkpt>
      <trkpt lat="43.80604" lon="4.64831">
        <ele>12</ele>
        <time>2019-05-29T15:12:02.000Z</time>
      </trkpt>
      <trkpt lat="43.80555" lon="4.64853">
        <ele>8.9</ele>
        <time>2019-05-29T15:12:11.000Z</time>
      </trkpt>
      <trkpt lat="43.80509" lon="4.64827">
        <ele>10</ele>
        <time>2019-05-29T15:12:18.000Z</time>
      </trkpt>
      <trkpt lat="43.8053" lon="4.64726">
        <ele>11</ele>
        <time>2019-05-29T15:12:27.000Z</time>
      </trkpt>
      <trkpt lat="43.80528" lon="4.64673">
        <ele>10</ele>
        <time>2019-05-29T15:12:45.000Z</time>
      </trkpt>
      <trkpt lat="43.80507" lon="4.64736">
        <ele>8.56</ele>
        <time>2019-05-29T15:20:07.000Z</time>
      </trkpt>
      <trkpt lat="43.80507" lon="4.64722">
        <ele>5.82</ele>
        <time>2019-05-29T15:20:13.000Z</time>
      </trkpt>
      <trkpt lat="43.80497" lon="4.64718">
        <ele>4.81</ele>
        <time>2019-05-29T15:20:20.000Z</time>
      </trkpt>
      <trkpt lat="43.80493" lon="4.64738">
        <ele>3.82</ele>
      </trkpt>
      <trkpt lat="43.80487" lon="4.64761">
        <ele>4.81</ele>
      </trkpt>
      <trkpt lat="43.80481" lon="4.64784">
        <ele>7.04</ele>
      </trkpt>
      <trkpt lat="43.80476" lon="4.64806">
        <ele>8.79</ele>
      </trkpt>
      <trkpt lat="43.8047" lon="4.64827">
        <ele>8.81</ele>
      </trkpt>
      <trkpt lat="43.80465" lon="4.64849">
        <ele>9.81</ele>
      </trkpt>
      <trkpt lat="43.80461" lon="4.64871">
        <ele>10.79</ele>
      </trkpt>
      <trkpt lat="43.80461" lon="4.64897">
        <ele>11.81</ele>
      </trkpt>
      <trkpt lat="43.80463" lon="4.64923">
        <ele>13.56</ele>
      </trkpt>
      <trkpt lat="43.80463" lon="4.6495">
        <ele>13.81</ele>
      </trkpt>
      <trkpt lat="43.80463" lon="4.64977">
        <ele>14.56</ele>
      </trkpt>
      <trkpt lat="43.80464" lon="4.65005">
        <ele>14.81</ele>
      </trkpt>
      <trkpt lat="43.80464" lon="4.65038">
        <ele>14.81</ele>
      </trkpt>
      <trkpt lat="43.80463" lon="4.65069">
        <ele>14.56</ele>
      </trkpt>
      <trkpt lat="43.80464" lon="4.65099">
        <ele>13.81</ele>
      </trkpt>
      <trkpt lat="43.80464" lon="4.6513">
        <ele>13.81</ele>
      </trkpt>
      <trkpt lat="43.80465" lon="4.65164">
        <ele>14.81</ele>
      </trkpt>
      <trkpt lat="43.80465" lon="4.65198">
        <ele>15.79</ele>
      </trkpt>
      <trkpt lat="43.80465" lon="4.65235">
        <ele>13.82</ele>
      </trkpt>
      <trkpt lat="43.80465" lon="4.65276">
        <ele>13.81</ele>
      </trkpt>
      <trkpt lat="43.80465" lon="4.6532">
        <ele>12.81</ele>
      </trkpt>
      <trkpt lat="43.80466" lon="4.65363">
        <ele>11.81</ele>
      </trkpt>
      <trkpt lat="43.80466" lon="4.65405">
        <ele>10.81</ele>
      </trkpt>
      <trkpt lat="43.80467" lon="4.65433">
        <ele>10.79</ele>
      </trkpt>
      <trkpt lat="43.80471" lon="4.65444">
        <ele>9.81</ele>
      </trkpt>
      <trkpt lat="43.80487" lon="4.65467">
        <ele>10.81</ele>
      </trkpt>
      <trkpt lat="43.80517" lon="4.65477">
        <ele>9.82</ele>
      </trkpt>
      <trkpt lat="43.80552" lon="4.65474">
        <ele>7.81</ele>
      </trkpt>
      <trkpt lat="43.80583" lon="4.65483">
        <ele>8.81</ele>
      </trkpt>
      <trkpt lat="43.80588" lon="4.65518">
        <ele>9.79</ele>
      </trkpt>
      <trkpt lat="43.80597" lon="4.65544">
        <ele>9.81</ele>
      </trkpt>
      <trkpt lat="43.80623" lon="4.65552">
        <ele>10.04</ele>
      </trkpt>
      <trkpt lat="43.80645" lon="4.65561">
        <ele>8.81</ele>
      </trkpt>
      <trkpt lat="43.80666" lon="4.65569">
        <ele>8.82</ele>
      </trkpt>
      <trkpt lat="43.8069" lon="4.65582">
        <ele>9.82</ele>
      </trkpt>
      <trkpt lat="43.80698" lon="4.65588">
        <ele>11.81</ele>
      </trkpt>
      <trkpt lat="43.80708" lon="4.65601">
        <ele>11.56</ele>
      </trkpt>
      <trkpt lat="43.80727" lon="4.65609">
        <ele>12.79</ele>
      </trkpt>
      <trkpt lat="43.80753" lon="4.65608">
        <ele>11.81</ele>
      </trkpt>
      <trkpt lat="43.80773" lon="4.65604">
        <ele>11.81</ele>
      </trkpt>
      <trkpt lat="43.80793" lon="4.65599">
        <ele>12.78</ele>
      </trkpt>
      <trkpt lat="43.80814" lon="4.65595">
        <ele>12.8</ele>
      </trkpt>
      <trkpt lat="43.80836" lon="4.65589">
        <ele>13.79</ele>
      </trkpt>
      <trkpt lat="43.80853" lon="4.65583">
        <ele>13.56</ele>
      </trkpt>
      <trkpt lat="43.80859" lon="4.65572">
        <ele>11.82</ele>
      </trkpt>
      <trkpt lat="43.80829" lon="4.65568">
        <ele>10.06</ele>
      </trkpt>
      <trkpt lat="43.80797" lon="4.65568">
        <ele>8.57</ele>
      </trkpt>
      <trkpt lat="43.80775" lon="4.65553">
        <ele>7.06</ele>
      </trkpt>
      <trkpt lat="43.80779" lon="4.65528">
        <ele>5.07</ele>
      </trkpt>
      <trkpt lat="43.80789" lon="4.65514">
        <ele>5.82</ele>
      </trkpt>
      <trkpt lat="43.80797" lon="4.65523">
        <ele>11.06</ele>
      </trkpt>
      <trkpt lat="43.80804" lon="4.65532">
        <ele>6.09</ele>
      </trkpt>
      <trkpt lat="43.80794" lon="4.65532">
        <ele>12.06</ele>
      </trkpt>
      <trkpt lat="43.80805" lon="4.65533">
        <ele>13.73</ele>
      </trkpt>
      <trkpt lat="43.80818" lon="4.65525">
        <ele>11.82</ele>
      </trkpt>
      <trkpt lat="43.80812" lon="4.65513">
        <ele>9.81</ele>
      </trkpt>
      <trkpt lat="43.80802" lon="4.6551">
        <ele>8.06</ele>
      </trkpt>
      <trkpt lat="43.8081" lon="4.65532">
        <ele>13.81</ele>
      </trkpt>
      <trkpt lat="43.80795" lon="4.65534">
        <ele>12.81</ele>
      </trkpt>
      <trkpt lat="43.808" lon="4.65523">
        <ele>10.81</ele>
      </trkpt>
      <trkpt lat="43.80792" lon="4.65519">
        <ele>10.81</ele>
      </trkpt>
      <trkpt lat="43.808" lon="4.65512">
        <ele>10.79</ele>
      </trkpt>
      <trkpt lat="43.80809" lon="4.65505">
        <ele>10.29</ele>
      </trkpt>
      <trkpt lat="43.80817" lon="4.65498">
        <ele>6.06</ele>
      </trkpt>
      <trkpt lat="43.80827" lon="4.65496">
        <ele>6.8</ele>
      </trkpt>
      <trkpt lat="43.80826" lon="4.65509">
        <ele>8.55</ele>
      </trkpt>
      <trkpt lat="43.80817" lon="4.65502">
        <ele>1.81</ele>
      </trkpt>
      <trkpt lat="43.80808" lon="4.65505">
        <ele>4.56</ele>
      </trkpt>
      <trkpt lat="43.80798" lon="4.6551">
        <ele>2.82</ele>
      </trkpt>
    </trkseg>
  </trk>
  <trk>
    <name><![CDATA[2019-05-30 08:22:51]]></name>
    <trkseg>
      <trkpt lat="43.80826" lon="4.65515">
        <ele>24.25</ele>
        <time>2019-05-30T06:22:57.000Z</time>
      </trkpt>
      <trkpt lat="43.80834" lon="4.65509">
        <ele>19.46</ele>
        <time>2019-05-30T06:23:40.000Z</time>
      </trkpt>
      <trkpt lat="43.80833" lon="4.65496">
        <ele>20.61</ele>
        <time>2019-05-30T06:23:46.000Z</time>
      </trkpt>
      <trkpt lat="43.8082" lon="4.65496">
        <ele>18.14</ele>
        <time>2019-05-30T06:23:51.000Z</time>
      </trkpt>
      <trkpt lat="43.8081" lon="4.65504">
        <ele>16.86</ele>
        <time>2019-05-30T06:23:56.000Z</time>
      </trkpt>
      <trkpt lat="43.808" lon="4.65502">
        <ele>15.73</ele>
        <time>2019-05-30T06:26:19.000Z</time>
      </trkpt>
      <trkpt lat="43.80792" lon="4.65512">
        <ele>16.79</ele>
        <time>2019-05-30T06:26:24.000Z</time>
      </trkpt>
      <trkpt lat="43.80782" lon="4.65524">
        <ele>14.87</ele>
        <time>2019-05-30T06:26:29.000Z</time>
      </trkpt>
      <trkpt lat="43.80771" lon="4.65536">
        <ele>15.56</ele>
        <time>2019-05-30T06:26:34.000Z</time>
      </trkpt>
      <trkpt lat="43.80776" lon="4.65559">
        <ele>13.65</ele>
        <time>2019-05-30T06:26:39.000Z</time>
      </trkpt>
      <trkpt lat="43.80796" lon="4.65572">
        <ele>13.79</ele>
        <time>2019-05-30T06:26:44.000Z</time>
      </trkpt>
      <trkpt lat="43.80815" lon="4.65569">
        <ele>15.86</ele>
        <time>2019-05-30T06:26:49.000Z</time>
      </trkpt>
      <trkpt lat="43.80826" lon="4.65568">
        <ele>15.12</ele>
        <time>2019-05-30T06:26:54.000Z</time>
      </trkpt>
      <trkpt lat="43.80836" lon="4.65568">
        <ele>15.5</ele>
        <time>2019-05-30T06:26:59.000Z</time>
      </trkpt>
      <trkpt lat="43.80846" lon="4.65569">
        <ele>16.74</ele>
        <time>2019-05-30T06:27:05.000Z</time>
      </trkpt>
      <trkpt lat="43.80837" lon="4.65579">
        <ele>17.81</ele>
        <time>2019-05-30T06:27:14.000Z</time>
      </trkpt>
      <trkpt lat="43.80813" lon="4.65584">
        <ele>16.87</ele>
        <time>2019-05-30T06:27:19.000Z</time>
      </trkpt>
      <trkpt lat="43.80787" lon="4.65591">
        <ele>15.82</ele>
        <time>2019-05-30T06:27:24.000Z</time>
      </trkpt>
      <trkpt lat="43.80759" lon="4.65597">
        <ele>15.56</ele>
        <time>2019-05-30T06:27:29.000Z</time>
      </trkpt>
      <trkpt lat="43.80729" lon="4.65586">
        <ele>14.87</ele>
        <time>2019-05-30T06:27:34.000Z</time>
      </trkpt>
      <trkpt lat="43.80703" lon="4.65569">
        <ele>12.83</ele>
        <time>2019-05-30T06:27:39.000Z</time>
      </trkpt>
      <trkpt lat="43.80676" lon="4.6556">
        <ele>13.74</ele>
        <time>2019-05-30T06:27:44.000Z</time>
      </trkpt>
      <trkpt lat="43.80645" lon="4.6555">
        <ele>14.99</ele>
        <time>2019-05-30T06:27:49.000Z</time>
      </trkpt>
      <trkpt lat="43.80617" lon="4.65537">
        <ele>12.89</ele>
        <time>2019-05-30T06:27:54.000Z</time>
      </trkpt>
      <trkpt lat="43.80602" lon="4.65507">
        <ele>12.74</ele>
        <time>2019-05-30T06:27:59.000Z</time>
      </trkpt>
      <trkpt lat="43.80589" lon="4.65475">
        <ele>12.99</ele>
        <time>2019-05-30T06:28:04.000Z</time>
      </trkpt>
      <trkpt lat="43.8056" lon="4.65464">
        <ele>13.81</ele>
        <time>2019-05-30T06:28:09.000Z</time>
      </trkpt>
      <trkpt lat="43.80531" lon="4.65467">
        <ele>13.56</ele>
        <time>2019-05-30T06:28:14.000Z</time>
      </trkpt>
      <trkpt lat="43.80506" lon="4.65469">
        <ele>15.79</ele>
        <time>2019-05-30T06:28:19.000Z</time>
      </trkpt>
      <trkpt lat="43.80489" lon="4.6546">
        <ele>16.74</ele>
        <time>2019-05-30T06:28:24.000Z</time>
      </trkpt>
      <trkpt lat="43.80477" lon="4.65443">
        <ele>17.74</ele>
        <time>2019-05-30T06:28:29.000Z</time>
      </trkpt>
      <trkpt lat="43.80473" lon="4.65421">
        <ele>16.81</ele>
        <time>2019-05-30T06:28:34.000Z</time>
      </trkpt>
      <trkpt lat="43.80475" lon="4.65393">
        <ele>18.54</ele>
        <time>2019-05-30T06:28:39.000Z</time>
      </trkpt>
      <trkpt lat="43.80475" lon="4.65365">
        <ele>18.81</ele>
        <time>2019-05-30T06:28:44.000Z</time>
      </trkpt>
      <trkpt lat="43.80475" lon="4.65338">
        <ele>19.8</ele>
        <time>2019-05-30T06:28:49.000Z</time>
      </trkpt>
      <trkpt lat="43.80475" lon="4.65312">
        <ele>20.74</ele>
        <time>2019-05-30T06:28:54.000Z</time>
      </trkpt>
      <trkpt lat="43.80475" lon="4.65286">
        <ele>20.87</ele>
        <time>2019-05-30T06:28:59.000Z</time>
      </trkpt>
      <trkpt lat="43.80475" lon="4.6526">
        <ele>21.8</ele>
        <time>2019-05-30T06:29:04.000Z</time>
      </trkpt>
      <trkpt lat="43.80474" lon="4.65233">
        <ele>22.79</ele>
        <time>2019-05-30T06:29:09.000Z</time>
      </trkpt>
      <trkpt lat="43.80475" lon="4.65203">
        <ele>23.81</ele>
        <time>2019-05-30T06:29:14.000Z</time>
      </trkpt>
      <trkpt lat="43.80474" lon="4.65173">
        <ele>23.81</ele>
        <time>2019-05-30T06:29:19.000Z</time>
      </trkpt>
      <trkpt lat="43.80472" lon="4.6514">
        <ele>22.87</ele>
        <time>2019-05-30T06:29:24.000Z</time>
      </trkpt>
      <trkpt lat="43.80473" lon="4.65107">
        <ele>22.57</ele>
        <time>2019-05-30T06:29:29.000Z</time>
      </trkpt>
      <trkpt lat="43.80472" lon="4.65071">
        <ele>22.06</ele>
        <time>2019-05-30T06:29:34.000Z</time>
      </trkpt>
      <trkpt lat="43.80472" lon="4.65033">
        <ele>20.87</ele>
        <time>2019-05-30T06:29:39.000Z</time>
      </trkpt>
      <trkpt lat="43.80471" lon="4.64992">
        <ele>19.82</ele>
        <time>2019-05-30T06:29:44.000Z</time>
      </trkpt>
      <trkpt lat="43.80471" lon="4.6495">
        <ele>18.81</ele>
        <time>2019-05-30T06:29:49.000Z</time>
      </trkpt>
      <trkpt lat="43.8047" lon="4.64913">
        <ele>18.79</ele>
        <time>2019-05-30T06:29:54.000Z</time>
      </trkpt>
      <trkpt lat="43.80478" lon="4.64894">
        <ele>18.81</ele>
        <time>2019-05-30T06:29:59.000Z</time>
      </trkpt>
      <trkpt lat="43.80488" lon="4.64895">
        <ele>19.81</ele>
        <time>2019-05-30T06:30:04.000Z</time>
      </trkpt>
      <trkpt lat="43.80479" lon="4.64888">
        <ele>22.81</ele>
        <time>2019-05-30T06:31:05.000Z</time>
      </trkpt>
      <trkpt lat="43.80469" lon="4.64879">
        <ele>21.07</ele>
        <time>2019-05-30T06:31:10.000Z</time>
      </trkpt>
      <trkpt lat="43.80475" lon="4.64846">
        <ele>19.06</ele>
        <time>2019-05-30T06:31:15.000Z</time>
      </trkpt>
      <trkpt lat="43.80483" lon="4.64809">
        <ele>16.88</ele>
        <time>2019-05-30T06:31:20.000Z</time>
      </trkpt>
      <trkpt lat="43.80491" lon="4.64774">
        <ele>14.83</ele>
        <time>2019-05-30T06:31:25.000Z</time>
      </trkpt>
      <trkpt lat="43.80499" lon="4.6474">
        <ele>14.98</ele>
        <time>2019-05-30T06:31:30.000Z</time>
      </trkpt>
      <trkpt lat="43.80505" lon="4.64724">
        <ele>13.81</ele>
        <time>2019-05-30T06:31:35.000Z</time>
      </trkpt>
      <trkpt lat="43.80513" lon="4.64716">
        <ele>15.06</ele>
        <time>2019-05-30T06:31:42.000Z</time>
      </trkpt>
      <trkpt lat="43.80515" lon="4.64703">
        <ele>10.39</ele>
        <time>2019-05-30T06:32:21.000Z</time>
      </trkpt>
      <trkpt lat="43.80524" lon="4.64688">
        <ele>7.81</ele>
        <time>2019-05-30T06:32:26.000Z</time>
      </trkpt>
      <trkpt lat="43.80533" lon="4.64671">
        <ele>10.55</ele>
        <time>2019-05-30T06:32:31.000Z</time>
      </trkpt>
      <trkpt lat="43.80539" lon="4.64657">
        <ele>11.8</ele>
        <time>2019-05-30T06:32:36.000Z</time>
      </trkpt>
      <trkpt lat="43.80542" lon="4.64645">
        <ele>13.82</ele>
        <time>2019-05-30T06:32:42.000Z</time>
      </trkpt>
      <trkpt lat="43.80543" lon="4.64631">
        <ele>12.06</ele>
        <time>2019-05-30T06:32:47.000Z</time>
      </trkpt>
      <trkpt lat="43.80547" lon="4.64615">
        <ele>10.82</ele>
        <time>2019-05-30T06:32:52.000Z</time>
      </trkpt>
      <trkpt lat="43.80549" lon="4.64599">
        <ele>10.06</ele>
        <time>2019-05-30T06:32:57.000Z</time>
      </trkpt>
      <trkpt lat="43.8055" lon="4.64584">
        <ele>10.56</ele>
        <time>2019-05-30T06:33:02.000Z</time>
      </trkpt>
      <trkpt lat="43.80553" lon="4.64569">
        <ele>12.04</ele>
        <time>2019-05-30T06:33:08.000Z</time>
      </trkpt>
      <trkpt lat="43.80555" lon="4.64554">
        <ele>12.56</ele>
        <time>2019-05-30T06:33:13.000Z</time>
      </trkpt>
      <trkpt lat="43.80557" lon="4.64539">
        <ele>12.62</ele>
        <time>2019-05-30T06:33:18.000Z</time>
      </trkpt>
      <trkpt lat="43.80559" lon="4.64526">
        <ele>11.82</ele>
        <time>2019-05-30T06:33:23.000Z</time>
      </trkpt>
      <trkpt lat="43.8056" lon="4.64512">
        <ele>11.26</ele>
        <time>2019-05-30T06:33:30.000Z</time>
      </trkpt>
      <trkpt lat="43.80561" lon="4.64499">
        <ele>12.8</ele>
        <time>2019-05-30T06:33:36.000Z</time>
      </trkpt>
      <trkpt lat="43.80563" lon="4.64486">
        <ele>14.55</ele>
        <time>2019-05-30T06:33:43.000Z</time>
      </trkpt>
      <trkpt lat="43.80563" lon="4.64474">
        <ele>12.87</ele>
        <time>2019-05-30T06:33:48.000Z</time>
      </trkpt>
      <trkpt lat="43.80566" lon="4.64461">
        <ele>13.8</ele>
        <time>2019-05-30T06:33:54.000Z</time>
      </trkpt>
      <trkpt lat="43.80567" lon="4.64447">
        <ele>14.56</ele>
        <time>2019-05-30T06:34:00.000Z</time>
      </trkpt>
      <trkpt lat="43.80571" lon="4.64436">
        <ele>13.87</ele>
        <time>2019-05-30T06:34:06.000Z</time>
      </trkpt>
      <trkpt lat="43.80573" lon="4.64423">
        <ele>18.73</ele>
        <time>2019-05-30T06:34:14.000Z</time>
      </trkpt>
      <trkpt lat="43.80577" lon="4.6441">
        <ele>15.81</ele>
        <time>2019-05-30T06:34:21.000Z</time>
      </trkpt>
      <trkpt lat="43.80577" lon="4.64397">
        <ele>16.49</ele>
        <time>2019-05-30T06:34:28.000Z</time>
      </trkpt>
      <trkpt lat="43.80578" lon="4.64385">
        <ele>15.04</ele>
        <time>2019-05-30T06:34:36.000Z</time>
      </trkpt>
      <trkpt lat="43.80581" lon="4.64372">
        <ele>13.12</ele>
        <time>2019-05-30T06:34:44.000Z</time>
      </trkpt>
      <trkpt lat="43.80581" lon="4.6436">
        <ele>15.77</ele>
        <time>2019-05-30T06:34:55.000Z</time>
      </trkpt>
      <trkpt lat="43.80584" lon="4.64348">
        <ele>13.82</ele>
        <time>2019-05-30T06:35:03.000Z</time>
      </trkpt>
      <trkpt lat="43.80585" lon="4.64334">
        <ele>14.55</ele>
        <time>2019-05-30T06:35:11.000Z</time>
      </trkpt>
      <trkpt lat="43.80588" lon="4.6432">
        <ele>15.62</ele>
        <time>2019-05-30T06:35:18.000Z</time>
      </trkpt>
      <trkpt lat="43.80591" lon="4.64307">
        <ele>14.82</ele>
        <time>2019-05-30T06:35:23.000Z</time>
      </trkpt>
      <trkpt lat="43.80594" lon="4.64293">
        <ele>13.3</ele>
        <time>2019-05-30T06:35:29.000Z</time>
      </trkpt>
      <trkpt lat="43.80596" lon="4.6428">
        <ele>11.55</ele>
        <time>2019-05-30T06:35:35.000Z</time>
      </trkpt>
      <trkpt lat="43.80593" lon="4.64268">
        <ele>11.86</ele>
        <time>2019-05-30T06:35:42.000Z</time>
      </trkpt>
      <trkpt lat="43.80597" lon="4.64255">
        <ele>12.73</ele>
        <time>2019-05-30T06:35:50.000Z</time>
      </trkpt>
      <trkpt lat="43.80599" lon="4.6424">
        <ele>13.55</ele>
        <time>2019-05-30T06:35:57.000Z</time>
      </trkpt>
      <trkpt lat="43.80604" lon="4.64225">
        <ele>12.81</ele>
        <time>2019-05-30T06:36:02.000Z</time>
      </trkpt>
      <trkpt lat="43.80606" lon="4.64205">
        <ele>11.81</ele>
        <time>2019-05-30T06:36:07.000Z</time>
      </trkpt>
      <trkpt lat="43.80606" lon="4.64187">
        <ele>11.82</ele>
        <time>2019-05-30T06:36:12.000Z</time>
      </trkpt>
      <trkpt lat="43.80608" lon="4.64171">
        <ele>12.73</ele>
        <time>2019-05-30T06:36:17.000Z</time>
      </trkpt>
      <trkpt lat="43.8061" lon="4.64156">
        <ele>12.05</ele>
        <time>2019-05-30T06:36:22.000Z</time>
      </trkpt>
      <trkpt lat="43.80612" lon="4.64143">
        <ele>11.8</ele>
        <time>2019-05-30T06:36:28.000Z</time>
      </trkpt>
      <trkpt lat="43.80613" lon="4.6413">
        <ele>10.88</ele>
        <time>2019-05-30T06:36:35.000Z</time>
      </trkpt>
      <trkpt lat="43.80616" lon="4.64115">
        <ele>13.56</ele>
        <time>2019-05-30T06:36:44.000Z</time>
      </trkpt>
      <trkpt lat="43.80618" lon="4.64098">
        <ele>13.05</ele>
        <time>2019-05-30T06:36:49.000Z</time>
      </trkpt>
      <trkpt lat="43.80621" lon="4.64084">
        <ele>13.8</ele>
        <time>2019-05-30T06:36:54.000Z</time>
      </trkpt>
      <trkpt lat="43.80623" lon="4.64071">
        <ele>14.99</ele>
        <time>2019-05-30T06:37:04.000Z</time>
      </trkpt>
      <trkpt lat="43.80625" lon="4.64056">
        <ele>14.82</ele>
        <time>2019-05-30T06:37:10.000Z</time>
      </trkpt>
      <trkpt lat="43.80627" lon="4.64042">
        <ele>12.13</ele>
        <time>2019-05-30T06:37:15.000Z</time>
      </trkpt>
      <trkpt lat="43.80629" lon="4.64027">
        <ele>12.76</ele>
        <time>2019-05-30T06:37:20.000Z</time>
      </trkpt>
      <trkpt lat="43.8063" lon="4.64015">
        <ele>15.77</ele>
        <time>2019-05-30T06:37:25.000Z</time>
      </trkpt>
      <trkpt lat="43.80631" lon="4.64002">
        <ele>15.76</ele>
        <time>2019-05-30T06:37:30.000Z</time>
      </trkpt>
      <trkpt lat="43.80632" lon="4.6399">
        <ele>14.8</ele>
        <time>2019-05-30T06:37:36.000Z</time>
      </trkpt>
      <trkpt lat="43.80634" lon="4.63976">
        <ele>15.82</ele>
        <time>2019-05-30T06:37:41.000Z</time>
      </trkpt>
      <trkpt lat="43.80636" lon="4.63962">
        <ele>16.79</ele>
        <time>2019-05-30T06:37:46.000Z</time>
      </trkpt>
      <trkpt lat="43.80639" lon="4.63948">
        <ele>15.8</ele>
        <time>2019-05-30T06:37:51.000Z</time>
      </trkpt>
      <trkpt lat="43.8064" lon="4.63934">
        <ele>15.57</ele>
        <time>2019-05-30T06:37:56.000Z</time>
      </trkpt>
      <trkpt lat="43.80643" lon="4.6392">
        <ele>14.81</ele>
        <time>2019-05-30T06:38:01.000Z</time>
      </trkpt>
      <trkpt lat="43.80644" lon="4.63904">
        <ele>13.8</ele>
        <time>2019-05-30T06:38:06.000Z</time>
      </trkpt>
      <trkpt lat="43.80646" lon="4.63891">
        <ele>12.87</ele>
        <time>2019-05-30T06:38:12.000Z</time>
      </trkpt>
      <trkpt lat="43.80649" lon="4.63878">
        <ele>12.8</ele>
        <time>2019-05-30T06:38:17.000Z</time>
      </trkpt>
      <trkpt lat="43.80654" lon="4.63865">
        <ele>13.61</ele>
        <time>2019-05-30T06:38:22.000Z</time>
      </trkpt>
      <trkpt lat="43.8066" lon="4.6385">
        <ele>13.8</ele>
        <time>2019-05-30T06:38:27.000Z</time>
      </trkpt>
      <trkpt lat="43.8067" lon="4.63842">
        <ele>12.81</ele>
        <time>2019-05-30T06:38:32.000Z</time>
      </trkpt>
      <trkpt lat="43.80679" lon="4.63836">
        <ele>14.41</ele>
        <time>2019-05-30T06:38:37.000Z</time>
      </trkpt>
      <trkpt lat="43.80688" lon="4.63832">
        <ele>17.3</ele>
        <time>2019-05-30T06:38:43.000Z</time>
      </trkpt>
      <trkpt lat="43.80698" lon="4.63834">
        <ele>16.75</ele>
        <time>2019-05-30T06:38:48.000Z</time>
      </trkpt>
      <trkpt lat="43.80707" lon="4.63837">
        <ele>18.05</ele>
        <time>2019-05-30T06:39:16.000Z</time>
      </trkpt>
      <trkpt lat="43.80711" lon="4.63823">
        <ele>19.72</ele>
        <time>2019-05-30T06:39:45.000Z</time>
      </trkpt>
      <trkpt lat="43.80694" lon="4.63815">
        <ele>18.82</ele>
        <time>2019-05-30T06:39:50.000Z</time>
      </trkpt>
      <trkpt lat="43.80677" lon="4.63817">
        <ele>18.8</ele>
        <time>2019-05-30T06:39:55.000Z</time>
      </trkpt>
      <trkpt lat="43.80662" lon="4.63814">
        <ele>18.8</ele>
        <time>2019-05-30T06:40:00.000Z</time>
      </trkpt>
      <trkpt lat="43.80648" lon="4.6381">
        <ele>17.82</ele>
        <time>2019-05-30T06:40:05.000Z</time>
      </trkpt>
      <trkpt lat="43.80634" lon="4.63807">
        <ele>16.87</ele>
        <time>2019-05-30T06:40:10.000Z</time>
      </trkpt>
      <trkpt lat="43.80621" lon="4.63806">
        <ele>16.05</ele>
        <time>2019-05-30T06:40:15.000Z</time>
      </trkpt>
      <trkpt lat="43.80612" lon="4.63807">
        <ele>13.8</ele>
        <time>2019-05-30T06:40:26.000Z</time>
      </trkpt>
      <trkpt lat="43.80604" lon="4.638">
        <ele>12.82</ele>
        <time>2019-05-30T06:40:45.000Z</time>
      </trkpt>
      <trkpt lat="43.80589" lon="4.638">
        <ele>13.05</ele>
        <time>2019-05-30T06:40:50.000Z</time>
      </trkpt>
      <trkpt lat="43.80572" lon="4.63799">
        <ele>12.8</ele>
        <time>2019-05-30T06:40:55.000Z</time>
      </trkpt>
      <trkpt lat="43.80555" lon="4.63796">
        <ele>11.87</ele>
        <time>2019-05-30T06:41:00.000Z</time>
      </trkpt>
      <trkpt lat="43.80539" lon="4.63774">
        <ele>10.06</ele>
        <time>2019-05-30T06:41:05.000Z</time>
      </trkpt>
      <trkpt lat="43.80525" lon="4.63744">
        <ele>12.99</ele>
        <time>2019-05-30T06:41:10.000Z</time>
      </trkpt>
      <trkpt lat="43.80509" lon="4.63709">
        <ele>8.89</ele>
        <time>2019-05-30T06:41:15.000Z</time>
      </trkpt>
      <trkpt lat="43.80492" lon="4.63675">
        <ele>6.88</ele>
        <time>2019-05-30T06:41:20.000Z</time>
      </trkpt>
      <trkpt lat="43.80474" lon="4.63646">
        <ele>7.79</ele>
        <time>2019-05-30T06:41:25.000Z</time>
      </trkpt>
      <trkpt lat="43.8045" lon="4.63623">
        <ele>8.76</ele>
        <time>2019-05-30T06:41:30.000Z</time>
      </trkpt>
      <trkpt lat="43.80429" lon="4.63602">
        <ele>9.8</ele>
        <time>2019-05-30T06:41:35.000Z</time>
      </trkpt>
      <trkpt lat="43.80408" lon="4.63582">
        <ele>10.74</ele>
        <time>2019-05-30T06:41:40.000Z</time>
      </trkpt>
      <trkpt lat="43.80389" lon="4.63555">
        <ele>10.8</ele>
        <time>2019-05-30T06:41:45.000Z</time>
      </trkpt>
      <trkpt lat="43.80363" lon="4.63538">
        <ele>10.8</ele>
        <time>2019-05-30T06:41:50.000Z</time>
      </trkpt>
      <trkpt lat="43.80338" lon="4.63524">
        <ele>10.81</ele>
        <time>2019-05-30T06:41:55.000Z</time>
      </trkpt>
      <trkpt lat="43.80316" lon="4.63504">
        <ele>8.81</ele>
        <time>2019-05-30T06:42:00.000Z</time>
      </trkpt>
      <trkpt lat="43.80294" lon="4.63478">
        <ele>5.84</ele>
        <time>2019-05-30T06:42:05.000Z</time>
      </trkpt>
      <trkpt lat="43.80273" lon="4.63449">
        <ele>5.85</ele>
        <time>2019-05-30T06:42:10.000Z</time>
      </trkpt>
      <trkpt lat="43.80251" lon="4.63421">
        <ele>4.87</ele>
        <time>2019-05-30T06:42:15.000Z</time>
      </trkpt>
      <trkpt lat="43.80228" lon="4.63398">
        <ele>4.81</ele>
        <time>2019-05-30T06:42:20.000Z</time>
      </trkpt>
      <trkpt lat="43.80209" lon="4.63378">
        <ele>3.81</ele>
        <time>2019-05-30T06:42:25.000Z</time>
      </trkpt>
      <trkpt lat="43.80198" lon="4.63357">
        <ele>2.82</ele>
        <time>2019-05-30T06:42:30.000Z</time>
      </trkpt>
      <trkpt lat="43.80185" lon="4.63337">
        <ele>1.81</ele>
        <time>2019-05-30T06:42:35.000Z</time>
      </trkpt>
      <trkpt lat="43.80171" lon="4.63314">
        <ele>0.87</ele>
        <time>2019-05-30T06:42:40.000Z</time>
      </trkpt>
      <trkpt lat="43.80159" lon="4.63286">
        <ele>2.74</ele>
        <time>2019-05-30T06:42:45.000Z</time>
      </trkpt>
      <trkpt lat="43.80148" lon="4.63256">
        <ele>3.8</ele>
        <time>2019-05-30T06:42:50.000Z</time>
      </trkpt>
      <trkpt lat="43.80137" lon="4.63225">
        <ele>3.81</ele>
        <time>2019-05-30T06:42:55.000Z</time>
      </trkpt>
      <trkpt lat="43.80125" lon="4.63194">
        <ele>5.8</ele>
        <time>2019-05-30T06:43:00.000Z</time>
      </trkpt>
      <trkpt lat="43.8011" lon="4.63163">
        <ele>6.56</ele>
        <time>2019-05-30T06:43:05.000Z</time>
      </trkpt>
      <trkpt lat="43.80093" lon="4.63133">
        <ele>6.79</ele>
        <time>2019-05-30T06:43:10.000Z</time>
      </trkpt>
      <trkpt lat="43.80071" lon="4.63103">
        <ele>5.62</ele>
        <time>2019-05-30T06:43:15.000Z</time>
      </trkpt>
      <trkpt lat="43.80053" lon="4.63074">
        <ele>3.83</ele>
        <time>2019-05-30T06:43:20.000Z</time>
      </trkpt>
      <trkpt lat="43.80037" lon="4.63043">
        <ele>3.81</ele>
        <time>2019-05-30T06:43:25.000Z</time>
      </trkpt>
      <trkpt lat="43.80022" lon="4.63008">
        <ele>6.99</ele>
        <time>2019-05-30T06:43:30.000Z</time>
      </trkpt>
      <trkpt lat="43.80012" lon="4.62972">
        <ele>5.81</ele>
        <time>2019-05-30T06:43:35.000Z</time>
      </trkpt>
      <trkpt lat="43.8" lon="4.62936">
        <ele>4.81</ele>
        <time>2019-05-30T06:43:40.000Z</time>
      </trkpt>
      <trkpt lat="43.79991" lon="4.62899">
        <ele>6.49</ele>
        <time>2019-05-30T06:43:45.000Z</time>
      </trkpt>
      <trkpt lat="43.79981" lon="4.62866">
        <ele>7.56</ele>
        <time>2019-05-30T06:43:50.000Z</time>
      </trkpt>
      <trkpt lat="43.79973" lon="4.62833">
        <ele>8.8</ele>
        <time>2019-05-30T06:43:55.000Z</time>
      </trkpt>
      <trkpt lat="43.79962" lon="4.62797">
        <ele>10.74</ele>
        <time>2019-05-30T06:44:00.000Z</time>
      </trkpt>
      <trkpt lat="43.79949" lon="4.62758">
        <ele>7.83</ele>
        <time>2019-05-30T06:44:05.000Z</time>
      </trkpt>
      <trkpt lat="43.79932" lon="4.62725">
        <ele>7.04</ele>
        <time>2019-05-30T06:44:10.000Z</time>
      </trkpt>
      <trkpt lat="43.79911" lon="4.62699">
        <ele>6.81</ele>
        <time>2019-05-30T06:44:15.000Z</time>
      </trkpt>
      <trkpt lat="43.79892" lon="4.62676">
        <ele>7.74</ele>
        <time>2019-05-30T06:44:20.000Z</time>
      </trkpt>
      <trkpt lat="43.7987" lon="4.62656">
        <ele>7.76</ele>
        <time>2019-05-30T06:44:25.000Z</time>
      </trkpt>
      <trkpt lat="43.79849" lon="4.62635">
        <ele>7.8</ele>
        <time>2019-05-30T06:44:30.000Z</time>
      </trkpt>
      <trkpt lat="43.7983" lon="4.62609">
        <ele>7.81</ele>
        <time>2019-05-30T06:44:35.000Z</time>
      </trkpt>
      <trkpt lat="43.79809" lon="4.62581">
        <ele>7.57</ele>
        <time>2019-05-30T06:44:40.000Z</time>
      </trkpt>
      <trkpt lat="43.79787" lon="4.62553">
        <ele>6.82</ele>
        <time>2019-05-30T06:44:45.000Z</time>
      </trkpt>
      <trkpt lat="43.79766" lon="4.62526">
        <ele>6.81</ele>
        <time>2019-05-30T06:44:50.000Z</time>
      </trkpt>
      <trkpt lat="43.79744" lon="4.62499">
        <ele>6.81</ele>
        <time>2019-05-30T06:44:55.000Z</time>
      </trkpt>
      <trkpt lat="43.79722" lon="4.62469">
        <ele>6.06</ele>
        <time>2019-05-30T06:45:00.000Z</time>
      </trkpt>
      <trkpt lat="43.797" lon="4.6244">
        <ele>6.8</ele>
        <time>2019-05-30T06:45:05.000Z</time>
      </trkpt>
      <trkpt lat="43.79678" lon="4.62412">
        <ele>6.81</ele>
        <time>2019-05-30T06:45:10.000Z</time>
      </trkpt>
      <trkpt lat="43.79656" lon="4.62385">
        <ele>6.81</ele>
        <time>2019-05-30T06:45:15.000Z</time>
      </trkpt>
      <trkpt lat="43.79634" lon="4.62356">
        <ele>6.81</ele>
        <time>2019-05-30T06:45:20.000Z</time>
      </trkpt>
      <trkpt lat="43.79612" lon="4.62326">
        <ele>6.81</ele>
        <time>2019-05-30T06:45:25.000Z</time>
      </trkpt>
      <trkpt lat="43.79591" lon="4.62295">
        <ele>7.81</ele>
        <time>2019-05-30T06:45:30.000Z</time>
      </trkpt>
      <trkpt lat="43.79571" lon="4.62264">
        <ele>7.81</ele>
        <time>2019-05-30T06:45:35.000Z</time>
      </trkpt>
      <trkpt lat="43.7955" lon="4.62233">
        <ele>7.06</ele>
        <time>2019-05-30T06:45:40.000Z</time>
      </trkpt>
      <trkpt lat="43.7953" lon="4.62203">
        <ele>8.74</ele>
        <time>2019-05-30T06:45:45.000Z</time>
      </trkpt>
      <trkpt lat="43.79511" lon="4.62177">
        <ele>9.06</ele>
        <time>2019-05-30T06:45:50.000Z</time>
      </trkpt>
      <trkpt lat="43.79489" lon="4.62152">
        <ele>11.74</ele>
        <time>2019-05-30T06:45:55.000Z</time>
      </trkpt>
      <trkpt lat="43.79464" lon="4.62133">
        <ele>10.87</ele>
        <time>2019-05-30T06:46:00.000Z</time>
      </trkpt>
      <trkpt lat="43.79439" lon="4.62111">
        <ele>11.76</ele>
        <time>2019-05-30T06:46:05.000Z</time>
      </trkpt>
      <trkpt lat="43.79413" lon="4.62089">
        <ele>11.81</ele>
        <time>2019-05-30T06:46:10.000Z</time>
      </trkpt>
      <trkpt lat="43.79388" lon="4.62065">
        <ele>9.82</ele>
        <time>2019-05-30T06:46:15.000Z</time>
      </trkpt>
      <trkpt lat="43.79361" lon="4.62045">
        <ele>9.06</ele>
        <time>2019-05-30T06:46:20.000Z</time>
      </trkpt>
      <trkpt lat="43.7933" lon="4.62031">
        <ele>6.83</ele>
        <time>2019-05-30T06:46:25.000Z</time>
      </trkpt>
      <trkpt lat="43.793" lon="4.62022">
        <ele>6.81</ele>
        <time>2019-05-30T06:46:30.000Z</time>
      </trkpt>
      <trkpt lat="43.79268" lon="4.62014">
        <ele>5.8</ele>
        <time>2019-05-30T06:46:35.000Z</time>
      </trkpt>
      <trkpt lat="43.79237" lon="4.62002">
        <ele>4.81</ele>
        <time>2019-05-30T06:46:40.000Z</time>
      </trkpt>
      <trkpt lat="43.79205" lon="4.6199">
        <ele>5.04</ele>
        <time>2019-05-30T06:46:45.000Z</time>
      </trkpt>
      <trkpt lat="43.79173" lon="4.61978">
        <ele>5.75</ele>
        <time>2019-05-30T06:46:50.000Z</time>
      </trkpt>
      <trkpt lat="43.79139" lon="4.61967">
        <ele>5.81</ele>
        <time>2019-05-30T06:46:55.000Z</time>
      </trkpt>
      <trkpt lat="43.79106" lon="4.61955">
        <ele>5.81</ele>
        <time>2019-05-30T06:47:00.000Z</time>
      </trkpt>
      <trkpt lat="43.79074" lon="4.61937">
        <ele>5.81</ele>
        <time>2019-05-30T06:47:05.000Z</time>
      </trkpt>
      <trkpt lat="43.79043" lon="4.61917">
        <ele>5.81</ele>
        <time>2019-05-30T06:47:10.000Z</time>
      </trkpt>
      <trkpt lat="43.79014" lon="4.61894">
        <ele>5.62</ele>
        <time>2019-05-30T06:47:15.000Z</time>
      </trkpt>
      <trkpt lat="43.78991" lon="4.61861">
        <ele>6.82</ele>
        <time>2019-05-30T06:47:20.000Z</time>
      </trkpt>
      <trkpt lat="43.78969" lon="4.61827">
        <ele>6</ele>
        <time>2019-05-30T06:47:25.000Z</time>
      </trkpt>
      <trkpt lat="43.78941" lon="4.61802">
        <ele>5.81</ele>
        <time>2019-05-30T06:47:30.000Z</time>
      </trkpt>
      <trkpt lat="43.78909" lon="4.61792">
        <ele>6.04</ele>
        <time>2019-05-30T06:47:35.000Z</time>
      </trkpt>
      <trkpt lat="43.78875" lon="4.6179">
        <ele>5.87</ele>
        <time>2019-05-30T06:47:40.000Z</time>
      </trkpt>
      <trkpt lat="43.78839" lon="4.61788">
        <ele>5.56</ele>
        <time>2019-05-30T06:47:45.000Z</time>
      </trkpt>
      <trkpt lat="43.78804" lon="4.61785">
        <ele>6.79</ele>
        <time>2019-05-30T06:47:50.000Z</time>
      </trkpt>
      <trkpt lat="43.78767" lon="4.6178">
        <ele>7.8</ele>
        <time>2019-05-30T06:47:55.000Z</time>
      </trkpt>
      <trkpt lat="43.78733" lon="4.61776">
        <ele>8.81</ele>
        <time>2019-05-30T06:48:00.000Z</time>
      </trkpt>
      <trkpt lat="43.78698" lon="4.61773">
        <ele>7.82</ele>
        <time>2019-05-30T06:48:05.000Z</time>
      </trkpt>
      <trkpt lat="43.78663" lon="4.61766">
        <ele>9.75</ele>
        <time>2019-05-30T06:48:10.000Z</time>
      </trkpt>
      <trkpt lat="43.7863" lon="4.61754">
        <ele>9.06</ele>
        <time>2019-05-30T06:48:15.000Z</time>
      </trkpt>
      <trkpt lat="43.78598" lon="4.61743">
        <ele>9.06</ele>
        <time>2019-05-30T06:48:20.000Z</time>
      </trkpt>
      <trkpt lat="43.78566" lon="4.61728">
        <ele>8</ele>
        <time>2019-05-30T06:48:25.000Z</time>
      </trkpt>
      <trkpt lat="43.78534" lon="4.61713">
        <ele>6.83</ele>
        <time>2019-05-30T06:48:30.000Z</time>
      </trkpt>
      <trkpt lat="43.78505" lon="4.61698">
        <ele>5.83</ele>
        <time>2019-05-30T06:48:35.000Z</time>
      </trkpt>
      <trkpt lat="43.78479" lon="4.61678">
        <ele>5.81</ele>
        <time>2019-05-30T06:48:40.000Z</time>
      </trkpt>
      <trkpt lat="43.78452" lon="4.61652">
        <ele>6.81</ele>
        <time>2019-05-30T06:48:45.000Z</time>
      </trkpt>
      <trkpt lat="43.78425" lon="4.61627">
        <ele>7.56</ele>
        <time>2019-05-30T06:48:50.000Z</time>
      </trkpt>
      <trkpt lat="43.78398" lon="4.61601">
        <ele>7.77</ele>
        <time>2019-05-30T06:48:55.000Z</time>
      </trkpt>
      <trkpt lat="43.78372" lon="4.61577">
        <ele>8.75</ele>
        <time>2019-05-30T06:49:00.000Z</time>
      </trkpt>
      <trkpt lat="43.78346" lon="4.61552">
        <ele>7.88</ele>
        <time>2019-05-30T06:49:05.000Z</time>
      </trkpt>
      <trkpt lat="43.78319" lon="4.61528">
        <ele>7.81</ele>
        <time>2019-05-30T06:49:10.000Z</time>
      </trkpt>
      <trkpt lat="43.78296" lon="4.61505">
        <ele>7.81</ele>
        <time>2019-05-30T06:49:15.000Z</time>
      </trkpt>
      <trkpt lat="43.78271" lon="4.61482">
        <ele>7.06</ele>
        <time>2019-05-30T06:49:20.000Z</time>
      </trkpt>
      <trkpt lat="43.78246" lon="4.61459">
        <ele>7.81</ele>
        <time>2019-05-30T06:49:25.000Z</time>
      </trkpt>
      <trkpt lat="43.78222" lon="4.61435">
        <ele>9.56</ele>
        <time>2019-05-30T06:49:30.000Z</time>
      </trkpt>
      <trkpt lat="43.78196" lon="4.61412">
        <ele>8.83</ele>
        <time>2019-05-30T06:49:35.000Z</time>
      </trkpt>
      <trkpt lat="43.78171" lon="4.61389">
        <ele>8.81</ele>
        <time>2019-05-30T06:49:40.000Z</time>
      </trkpt>
      <trkpt lat="43.78146" lon="4.61367">
        <ele>7.81</ele>
        <time>2019-05-30T06:49:45.000Z</time>
      </trkpt>
      <trkpt lat="43.78121" lon="4.61345">
        <ele>7.81</ele>
        <time>2019-05-30T06:49:50.000Z</time>
      </trkpt>
      <trkpt lat="43.78096" lon="4.61324">
        <ele>7.77</ele>
        <time>2019-05-30T06:49:55.000Z</time>
      </trkpt>
      <trkpt lat="43.78068" lon="4.61303">
        <ele>7.77</ele>
        <time>2019-05-30T06:50:00.000Z</time>
      </trkpt>
      <trkpt lat="43.78039" lon="4.61289">
        <ele>6.82</ele>
        <time>2019-05-30T06:50:05.000Z</time>
      </trkpt>
      <trkpt lat="43.78009" lon="4.61272">
        <ele>6.81</ele>
        <time>2019-05-30T06:50:10.000Z</time>
      </trkpt>
      <trkpt lat="43.77978" lon="4.61252">
        <ele>6.81</ele>
        <time>2019-05-30T06:50:15.000Z</time>
      </trkpt>
      <trkpt lat="43.77949" lon="4.61229">
        <ele>7.8</ele>
        <time>2019-05-30T06:50:20.000Z</time>
      </trkpt>
      <trkpt lat="43.77919" lon="4.61206">
        <ele>7.81</ele>
        <time>2019-05-30T06:50:25.000Z</time>
      </trkpt>
      <trkpt lat="43.77889" lon="4.61186">
        <ele>7.77</ele>
        <time>2019-05-30T06:50:30.000Z</time>
      </trkpt>
      <trkpt lat="43.77858" lon="4.61167">
        <ele>7.8</ele>
        <time>2019-05-30T06:50:35.000Z</time>
      </trkpt>
      <trkpt lat="43.77828" lon="4.61145">
        <ele>7.8</ele>
        <time>2019-05-30T06:50:40.000Z</time>
      </trkpt>
      <trkpt lat="43.77799" lon="4.61119">
        <ele>6.82</ele>
        <time>2019-05-30T06:50:45.000Z</time>
      </trkpt>
      <trkpt lat="43.77777" lon="4.61081">
        <ele>10.07</ele>
        <time>2019-05-30T06:50:50.000Z</time>
      </trkpt>
      <trkpt lat="43.7776" lon="4.61043">
        <ele>7.88</ele>
        <time>2019-05-30T06:50:55.000Z</time>
      </trkpt>
      <trkpt lat="43.77745" lon="4.61002">
        <ele>7.57</ele>
        <time>2019-05-30T06:51:00.000Z</time>
      </trkpt>
      <trkpt lat="43.77731" lon="4.60967">
        <ele>5.82</ele>
        <time>2019-05-30T06:51:05.000Z</time>
      </trkpt>
      <trkpt lat="43.77719" lon="4.60928">
        <ele>5.77</ele>
        <time>2019-05-30T06:51:10.000Z</time>
      </trkpt>
      <trkpt lat="43.77706" lon="4.60891">
        <ele>6.81</ele>
        <time>2019-05-30T06:51:15.000Z</time>
      </trkpt>
      <trkpt lat="43.7769" lon="4.60858">
        <ele>6.82</ele>
        <time>2019-05-30T06:51:20.000Z</time>
      </trkpt>
      <trkpt lat="43.77673" lon="4.60827">
        <ele>5.82</ele>
        <time>2019-05-30T06:51:25.000Z</time>
      </trkpt>
      <trkpt lat="43.77655" lon="4.60796">
        <ele>5.82</ele>
        <time>2019-05-30T06:51:30.000Z</time>
      </trkpt>
      <trkpt lat="43.77641" lon="4.60761">
        <ele>4.82</ele>
        <time>2019-05-30T06:51:35.000Z</time>
      </trkpt>
      <trkpt lat="43.77626" lon="4.60725">
        <ele>5.81</ele>
        <time>2019-05-30T06:51:40.000Z</time>
      </trkpt>
      <trkpt lat="43.77613" lon="4.60688">
        <ele>5.83</ele>
        <time>2019-05-30T06:51:45.000Z</time>
      </trkpt>
      <trkpt lat="43.77606" lon="4.6065">
        <ele>5.82</ele>
        <time>2019-05-30T06:51:50.000Z</time>
      </trkpt>
      <trkpt lat="43.776" lon="4.60613">
        <ele>6.81</ele>
        <time>2019-05-30T06:51:55.000Z</time>
      </trkpt>
      <trkpt lat="43.77595" lon="4.60575">
        <ele>6.63</ele>
        <time>2019-05-30T06:52:00.000Z</time>
      </trkpt>
      <trkpt lat="43.77587" lon="4.60538">
        <ele>6.82</ele>
        <time>2019-05-30T06:52:05.000Z</time>
      </trkpt>
      <trkpt lat="43.77581" lon="4.60501">
        <ele>6.82</ele>
        <time>2019-05-30T06:52:10.000Z</time>
      </trkpt>
      <trkpt lat="43.7757" lon="4.60464">
        <ele>5.83</ele>
        <time>2019-05-30T06:52:15.000Z</time>
      </trkpt>
      <trkpt lat="43.77556" lon="4.60436">
        <ele>6.81</ele>
        <time>2019-05-30T06:52:20.000Z</time>
      </trkpt>
      <trkpt lat="43.77538" lon="4.60411">
        <ele>8.14</ele>
        <time>2019-05-30T06:52:25.000Z</time>
      </trkpt>
      <trkpt lat="43.77519" lon="4.60385">
        <ele>7.07</ele>
        <time>2019-05-30T06:52:30.000Z</time>
      </trkpt>
      <trkpt lat="43.77498" lon="4.60357">
        <ele>6.82</ele>
        <time>2019-05-30T06:52:35.000Z</time>
      </trkpt>
      <trkpt lat="43.77476" lon="4.60329">
        <ele>5.82</ele>
        <time>2019-05-30T06:52:40.000Z</time>
      </trkpt>
      <trkpt lat="43.77455" lon="4.60301">
        <ele>5.83</ele>
        <time>2019-05-30T06:52:45.000Z</time>
      </trkpt>
      <trkpt lat="43.77433" lon="4.60273">
        <ele>6.75</ele>
        <time>2019-05-30T06:52:50.000Z</time>
      </trkpt>
      <trkpt lat="43.77413" lon="4.60245">
        <ele>5.82</ele>
        <time>2019-05-30T06:52:55.000Z</time>
      </trkpt>
      <trkpt lat="43.7739" lon="4.60217">
        <ele>5.77</ele>
        <time>2019-05-30T06:53:00.000Z</time>
      </trkpt>
      <trkpt lat="43.77367" lon="4.60188">
        <ele>4.83</ele>
        <time>2019-05-30T06:53:05.000Z</time>
      </trkpt>
      <trkpt lat="43.77345" lon="4.60159">
        <ele>4.82</ele>
        <time>2019-05-30T06:53:10.000Z</time>
      </trkpt>
      <trkpt lat="43.77323" lon="4.60128">
        <ele>4.82</ele>
        <time>2019-05-30T06:53:15.000Z</time>
      </trkpt>
      <trkpt lat="43.773" lon="4.60096">
        <ele>4.82</ele>
        <time>2019-05-30T06:53:20.000Z</time>
      </trkpt>
      <trkpt lat="43.77277" lon="4.60066">
        <ele>4.58</ele>
        <time>2019-05-30T06:53:25.000Z</time>
      </trkpt>
      <trkpt lat="43.77258" lon="4.60031">
        <ele>5.81</ele>
        <time>2019-05-30T06:53:30.000Z</time>
      </trkpt>
      <trkpt lat="43.7725" lon="4.59986">
        <ele>6.75</ele>
        <time>2019-05-30T06:53:35.000Z</time>
      </trkpt>
      <trkpt lat="43.77247" lon="4.59945">
        <ele>7.81</ele>
        <time>2019-05-30T06:53:40.000Z</time>
      </trkpt>
      <trkpt lat="43.77246" lon="4.59905">
        <ele>7.87</ele>
        <time>2019-05-30T06:53:45.000Z</time>
      </trkpt>
      <trkpt lat="43.77242" lon="4.59865">
        <ele>6.82</ele>
        <time>2019-05-30T06:53:50.000Z</time>
      </trkpt>
      <trkpt lat="43.77227" lon="4.59828">
        <ele>7.16</ele>
        <time>2019-05-30T06:53:55.000Z</time>
      </trkpt>
      <trkpt lat="43.77205" lon="4.59802">
        <ele>5.83</ele>
        <time>2019-05-30T06:54:00.000Z</time>
      </trkpt>
      <trkpt lat="43.7718" lon="4.59778">
        <ele>4.07</ele>
        <time>2019-05-30T06:54:05.000Z</time>
      </trkpt>
      <trkpt lat="43.77154" lon="4.59755">
        <ele>3.82</ele>
        <time>2019-05-30T06:54:10.000Z</time>
      </trkpt>
      <trkpt lat="43.77126" lon="4.59732">
        <ele>3.82</ele>
        <time>2019-05-30T06:54:15.000Z</time>
      </trkpt>
      <trkpt lat="43.77096" lon="4.59709">
        <ele>4.77</ele>
        <time>2019-05-30T06:54:20.000Z</time>
      </trkpt>
      <trkpt lat="43.77067" lon="4.59689">
        <ele>4.76</ele>
        <time>2019-05-30T06:54:25.000Z</time>
      </trkpt>
      <trkpt lat="43.77035" lon="4.5967">
        <ele>4.8</ele>
        <time>2019-05-30T06:54:30.000Z</time>
      </trkpt>
      <trkpt lat="43.77002" lon="4.59661">
        <ele>4.82</ele>
        <time>2019-05-30T06:54:35.000Z</time>
      </trkpt>
      <trkpt lat="43.76969" lon="4.59655">
        <ele>2.83</ele>
        <time>2019-05-30T06:54:40.000Z</time>
      </trkpt>
      <trkpt lat="43.76933" lon="4.59648">
        <ele>2.82</ele>
        <time>2019-05-30T06:54:45.000Z</time>
      </trkpt>
      <trkpt lat="43.76898" lon="4.59639">
        <ele>2.82</ele>
        <time>2019-05-30T06:54:50.000Z</time>
      </trkpt>
      <trkpt lat="43.76864" lon="4.59633">
        <ele>4.8</ele>
        <time>2019-05-30T06:54:55.000Z</time>
      </trkpt>
      <trkpt lat="43.76829" lon="4.59624">
        <ele>4.82</ele>
        <time>2019-05-30T06:55:00.000Z</time>
      </trkpt>
      <trkpt lat="43.76795" lon="4.59616">
        <ele>4.76</ele>
        <time>2019-05-30T06:55:05.000Z</time>
      </trkpt>
      <trkpt lat="43.76761" lon="4.59608">
        <ele>4.82</ele>
        <time>2019-05-30T06:55:10.000Z</time>
      </trkpt>
      <trkpt lat="43.76727" lon="4.59602">
        <ele>3.83</ele>
        <time>2019-05-30T06:55:15.000Z</time>
      </trkpt>
      <trkpt lat="43.76692" lon="4.59596">
        <ele>4.82</ele>
        <time>2019-05-30T06:55:20.000Z</time>
      </trkpt>
      <trkpt lat="43.76658" lon="4.59589">
        <ele>4.82</ele>
        <time>2019-05-30T06:55:25.000Z</time>
      </trkpt>
      <trkpt lat="43.76622" lon="4.59582">
        <ele>7.95</ele>
        <time>2019-05-30T06:55:30.000Z</time>
      </trkpt>
      <trkpt lat="43.76587" lon="4.59575">
        <ele>5.09</ele>
        <time>2019-05-30T06:55:35.000Z</time>
      </trkpt>
      <trkpt lat="43.7655" lon="4.5957">
        <ele>4.92</ele>
        <time>2019-05-30T06:55:40.000Z</time>
      </trkpt>
      <trkpt lat="43.76514" lon="4.59565">
        <ele>3.82</ele>
        <time>2019-05-30T06:55:45.000Z</time>
      </trkpt>
      <trkpt lat="43.76477" lon="4.5956">
        <ele>3.82</ele>
        <time>2019-05-30T06:55:50.000Z</time>
      </trkpt>
      <trkpt lat="43.76441" lon="4.59556">
        <ele>2.82</ele>
        <time>2019-05-30T06:55:55.000Z</time>
      </trkpt>
      <trkpt lat="43.76404" lon="4.5955">
        <ele>2.82</ele>
        <time>2019-05-30T06:56:00.000Z</time>
      </trkpt>
      <trkpt lat="43.76369" lon="4.59543">
        <ele>2.82</ele>
        <time>2019-05-30T06:56:05.000Z</time>
      </trkpt>
      <trkpt lat="43.76347" lon="4.59508">
        <ele>6.06</ele>
        <time>2019-05-30T06:56:10.000Z</time>
      </trkpt>
      <trkpt lat="43.76315" lon="4.59493">
        <ele>4.83</ele>
        <time>2019-05-30T06:56:15.000Z</time>
      </trkpt>
      <trkpt lat="43.76279" lon="4.59487">
        <ele>4.82</ele>
        <time>2019-05-30T06:56:20.000Z</time>
      </trkpt>
      <trkpt lat="43.76243" lon="4.59481">
        <ele>5.9</ele>
        <time>2019-05-30T06:56:25.000Z</time>
      </trkpt>
      <trkpt lat="43.76206" lon="4.59475">
        <ele>4.82</ele>
        <time>2019-05-30T06:56:30.000Z</time>
      </trkpt>
      <trkpt lat="43.76169" lon="4.59469">
        <ele>3.82</ele>
        <time>2019-05-30T06:56:35.000Z</time>
      </trkpt>
      <trkpt lat="43.76132" lon="4.59465">
        <ele>3.82</ele>
        <time>2019-05-30T06:56:40.000Z</time>
      </trkpt>
      <trkpt lat="43.76096" lon="4.59463">
        <ele>4.62</ele>
        <time>2019-05-30T06:56:45.000Z</time>
      </trkpt>
      <trkpt lat="43.76059" lon="4.59454">
        <ele>3.83</ele>
        <time>2019-05-30T06:56:50.000Z</time>
      </trkpt>
      <trkpt lat="43.76024" lon="4.59443">
        <ele>4.82</ele>
        <time>2019-05-30T06:56:55.000Z</time>
      </trkpt>
      <trkpt lat="43.75988" lon="4.59433">
        <ele>4.07</ele>
        <time>2019-05-30T06:57:00.000Z</time>
      </trkpt>
      <trkpt lat="43.75951" lon="4.59424">
        <ele>3.83</ele>
        <time>2019-05-30T06:57:05.000Z</time>
      </trkpt>
      <trkpt lat="43.75912" lon="4.59418">
        <ele>3.82</ele>
        <time>2019-05-30T06:57:10.000Z</time>
      </trkpt>
      <trkpt lat="43.75873" lon="4.59412">
        <ele>3.82</ele>
        <time>2019-05-30T06:57:15.000Z</time>
      </trkpt>
      <trkpt lat="43.75833" lon="4.59406">
        <ele>3.82</ele>
        <time>2019-05-30T06:57:20.000Z</time>
      </trkpt>
      <trkpt lat="43.75791" lon="4.59401">
        <ele>3.81</ele>
        <time>2019-05-30T06:57:25.000Z</time>
      </trkpt>
      <trkpt lat="43.7575" lon="4.59397">
        <ele>4.81</ele>
        <time>2019-05-30T06:57:30.000Z</time>
      </trkpt>
      <trkpt lat="43.7571" lon="4.59394">
        <ele>4.82</ele>
        <time>2019-05-30T06:57:35.000Z</time>
      </trkpt>
      <trkpt lat="43.75675" lon="4.59375">
        <ele>3.84</ele>
        <time>2019-05-30T06:57:40.000Z</time>
      </trkpt>
      <trkpt lat="43.7564" lon="4.59359">
        <ele>4.57</ele>
        <time>2019-05-30T06:57:45.000Z</time>
      </trkpt>
      <trkpt lat="43.75604" lon="4.59351">
        <ele>7.01</ele>
        <time>2019-05-30T06:57:50.000Z</time>
      </trkpt>
      <trkpt lat="43.75564" lon="4.59347">
        <ele>4.95</ele>
        <time>2019-05-30T06:57:55.000Z</time>
      </trkpt>
      <trkpt lat="43.75526" lon="4.59348">
        <ele>4.64</ele>
        <time>2019-05-30T06:58:00.000Z</time>
      </trkpt>
      <trkpt lat="43.75487" lon="4.59354">
        <ele>3.83</ele>
        <time>2019-05-30T06:58:05.000Z</time>
      </trkpt>
      <trkpt lat="43.75449" lon="4.59362">
        <ele>4.78</ele>
        <time>2019-05-30T06:58:10.000Z</time>
      </trkpt>
      <trkpt lat="43.7541" lon="4.59371">
        <ele>3.89</ele>
        <time>2019-05-30T06:58:15.000Z</time>
      </trkpt>
      <trkpt lat="43.75371" lon="4.59379">
        <ele>3.83</ele>
        <time>2019-05-30T06:58:20.000Z</time>
      </trkpt>
      <trkpt lat="43.75334" lon="4.59388">
        <ele>3.83</ele>
        <time>2019-05-30T06:58:25.000Z</time>
      </trkpt>
      <trkpt lat="43.75299" lon="4.59393">
        <ele>3.87</ele>
        <time>2019-05-30T06:58:30.000Z</time>
      </trkpt>
      <trkpt lat="43.75288" lon="4.59362">
        <ele>3.87</ele>
        <time>2019-05-30T06:58:35.000Z</time>
      </trkpt>
      <trkpt lat="43.75289" lon="4.59324">
        <ele>4.83</ele>
        <time>2019-05-30T06:58:40.000Z</time>
      </trkpt>
      <trkpt lat="43.7529" lon="4.59286">
        <ele>4.83</ele>
        <time>2019-05-30T06:58:45.000Z</time>
      </trkpt>
      <trkpt lat="43.7529" lon="4.59247">
        <ele>4.83</ele>
        <time>2019-05-30T06:58:50.000Z</time>
      </trkpt>
      <trkpt lat="43.7529" lon="4.5921">
        <ele>4.83</ele>
        <time>2019-05-30T06:58:55.000Z</time>
      </trkpt>
      <trkpt lat="43.75289" lon="4.59182">
        <ele>3.89</ele>
        <time>2019-05-30T06:59:00.000Z</time>
      </trkpt>
      <trkpt lat="43.75274" lon="4.59172">
        <ele>3.87</ele>
        <time>2019-05-30T06:59:05.000Z</time>
      </trkpt>
      <trkpt lat="43.75253" lon="4.59171">
        <ele>3.83</ele>
        <time>2019-05-30T06:59:10.000Z</time>
      </trkpt>
      <trkpt lat="43.75228" lon="4.59173">
        <ele>3.89</ele>
        <time>2019-05-30T06:59:15.000Z</time>
      </trkpt>
      <trkpt lat="43.75201" lon="4.59173">
        <ele>3.83</ele>
        <time>2019-05-30T06:59:20.000Z</time>
      </trkpt>
      <trkpt lat="43.75172" lon="4.59171">
        <ele>3.83</ele>
        <time>2019-05-30T06:59:25.000Z</time>
      </trkpt>
      <trkpt lat="43.75142" lon="4.59166">
        <ele>3.07</ele>
        <time>2019-05-30T06:59:30.000Z</time>
      </trkpt>
      <trkpt lat="43.75112" lon="4.59161">
        <ele>2.64</ele>
        <time>2019-05-30T06:59:35.000Z</time>
      </trkpt>
      <trkpt lat="43.75083" lon="4.59149">
        <ele>3</ele>
        <time>2019-05-30T06:59:40.000Z</time>
      </trkpt>
      <trkpt lat="43.75057" lon="4.59127">
        <ele>2.08</ele>
        <time>2019-05-30T06:59:45.000Z</time>
      </trkpt>
      <trkpt lat="43.75034" lon="4.59097">
        <ele>0.14</ele>
        <time>2019-05-30T06:59:50.000Z</time>
      </trkpt>
      <trkpt lat="43.75013" lon="4.59067">
        <ele>3</ele>
        <time>2019-05-30T06:59:55.000Z</time>
      </trkpt>
      <trkpt lat="43.74992" lon="4.59039">
        <ele>1.76</ele>
        <time>2019-05-30T07:00:00.000Z</time>
      </trkpt>
      <trkpt lat="43.74971" lon="4.59011">
        <ele>2.77</ele>
        <time>2019-05-30T07:00:05.000Z</time>
      </trkpt>
      <trkpt lat="43.74949" lon="4.58984">
        <ele>3.58</ele>
        <time>2019-05-30T07:00:10.000Z</time>
      </trkpt>
      <trkpt lat="43.74925" lon="4.58957">
        <ele>2.89</ele>
        <time>2019-05-30T07:00:15.000Z</time>
      </trkpt>
      <trkpt lat="43.74899" lon="4.5893">
        <ele>2.83</ele>
        <time>2019-05-30T07:00:20.000Z</time>
      </trkpt>
      <trkpt lat="43.74872" lon="4.58902">
        <ele>3.77</ele>
        <time>2019-05-30T07:00:25.000Z</time>
      </trkpt>
      <trkpt lat="43.74845" lon="4.58873">
        <ele>4.58</ele>
        <time>2019-05-30T07:00:30.000Z</time>
      </trkpt>
      <trkpt lat="43.74818" lon="4.58845">
        <ele>4.83</ele>
        <time>2019-05-30T07:00:35.000Z</time>
      </trkpt>
      <trkpt lat="43.74791" lon="4.58816">
        <ele>4.83</ele>
        <time>2019-05-30T07:00:40.000Z</time>
      </trkpt>
      <trkpt lat="43.74763" lon="4.58792">
        <ele>4.83</ele>
        <time>2019-05-30T07:00:45.000Z</time>
      </trkpt>
      <trkpt lat="43.74731" lon="4.58773">
        <ele>4.83</ele>
        <time>2019-05-30T07:00:50.000Z</time>
      </trkpt>
      <trkpt lat="43.747" lon="4.58756">
        <ele>3.89</ele>
        <time>2019-05-30T07:00:55.000Z</time>
      </trkpt>
      <trkpt lat="43.74667" lon="4.58738">
        <ele>3.84</ele>
        <time>2019-05-30T07:01:00.000Z</time>
      </trkpt>
      <trkpt lat="43.74634" lon="4.58721">
        <ele>3.83</ele>
        <time>2019-05-30T07:01:05.000Z</time>
      </trkpt>
      <trkpt lat="43.74601" lon="4.58705">
        <ele>3.83</ele>
        <time>2019-05-30T07:01:10.000Z</time>
      </trkpt>
      <trkpt lat="43.74567" lon="4.58689">
        <ele>3.64</ele>
        <time>2019-05-30T07:01:15.000Z</time>
      </trkpt>
      <trkpt lat="43.74531" lon="4.58676">
        <ele>2.83</ele>
        <time>2019-05-30T07:01:20.000Z</time>
      </trkpt>
      <trkpt lat="43.74495" lon="4.58661">
        <ele>3.58</ele>
        <time>2019-05-30T07:01:25.000Z</time>
      </trkpt>
      <trkpt lat="43.74466" lon="4.58649">
        <ele>3.58</ele>
        <time>2019-05-30T07:01:30.000Z</time>
      </trkpt>
      <trkpt lat="43.74452" lon="4.58644">
        <ele>3.83</ele>
        <time>2019-05-30T07:01:35.000Z</time>
      </trkpt>
      <trkpt lat="43.74449" lon="4.58632">
        <ele>2.88</ele>
        <time>2019-05-30T07:01:40.000Z</time>
      </trkpt>
      <trkpt lat="43.74444" lon="4.58615">
        <ele>2.83</ele>
        <time>2019-05-30T07:01:45.000Z</time>
      </trkpt>
      <trkpt lat="43.7444" lon="4.58591">
        <ele>2.83</ele>
        <time>2019-05-30T07:01:50.000Z</time>
      </trkpt>
      <trkpt lat="43.74433" lon="4.58564">
        <ele>3.06</ele>
        <time>2019-05-30T07:01:55.000Z</time>
      </trkpt>
      <trkpt lat="43.74426" lon="4.58534">
        <ele>3.82</ele>
        <time>2019-05-30T07:02:00.000Z</time>
      </trkpt>
      <trkpt lat="43.7442" lon="4.58503">
        <ele>2.84</ele>
        <time>2019-05-30T07:02:05.000Z</time>
      </trkpt>
      <trkpt lat="43.74411" lon="4.58473">
        <ele>3.83</ele>
        <time>2019-05-30T07:02:10.000Z</time>
      </trkpt>
      <trkpt lat="43.74388" lon="4.58469">
        <ele>2.89</ele>
        <time>2019-05-30T07:02:15.000Z</time>
      </trkpt>
      <trkpt lat="43.74361" lon="4.58468">
        <ele>3.58</ele>
        <time>2019-05-30T07:02:20.000Z</time>
      </trkpt>
      <trkpt lat="43.74332" lon="4.58466">
        <ele>2.84</ele>
        <time>2019-05-30T07:02:25.000Z</time>
      </trkpt>
      <trkpt lat="43.74303" lon="4.58462">
        <ele>3.63</ele>
        <time>2019-05-30T07:02:30.000Z</time>
      </trkpt>
      <trkpt lat="43.74274" lon="4.58458">
        <ele>3.83</ele>
        <time>2019-05-30T07:02:35.000Z</time>
      </trkpt>
      <trkpt lat="43.74244" lon="4.58455">
        <ele>3.82</ele>
        <time>2019-05-30T07:02:40.000Z</time>
      </trkpt>
      <trkpt lat="43.74213" lon="4.58452">
        <ele>3.83</ele>
        <time>2019-05-30T07:02:45.000Z</time>
      </trkpt>
      <trkpt lat="43.74181" lon="4.58448">
        <ele>3.78</ele>
        <time>2019-05-30T07:02:50.000Z</time>
      </trkpt>
      <trkpt lat="43.74148" lon="4.58443">
        <ele>3.83</ele>
        <time>2019-05-30T07:02:55.000Z</time>
      </trkpt>
      <trkpt lat="43.74114" lon="4.58439">
        <ele>3.83</ele>
        <time>2019-05-30T07:03:00.000Z</time>
      </trkpt>
      <trkpt lat="43.74077" lon="4.58434">
        <ele>2.89</ele>
        <time>2019-05-30T07:03:05.000Z</time>
      </trkpt>
      <trkpt lat="43.74042" lon="4.58429">
        <ele>2.83</ele>
        <time>2019-05-30T07:03:10.000Z</time>
      </trkpt>
      <trkpt lat="43.74006" lon="4.58426">
        <ele>2.83</ele>
        <time>2019-05-30T07:03:15.000Z</time>
      </trkpt>
      <trkpt lat="43.73969" lon="4.58421">
        <ele>1.83</ele>
        <time>2019-05-30T07:03:20.000Z</time>
      </trkpt>
      <trkpt lat="43.73933" lon="4.58417">
        <ele>1.83</ele>
        <time>2019-05-30T07:03:25.000Z</time>
      </trkpt>
      <trkpt lat="43.73899" lon="4.58412">
        <ele>1.83</ele>
        <time>2019-05-30T07:03:30.000Z</time>
      </trkpt>
      <trkpt lat="43.73865" lon="4.58408">
        <ele>2.81</ele>
        <time>2019-05-30T07:03:35.000Z</time>
      </trkpt>
      <trkpt lat="43.73831" lon="4.5841">
        <ele>3.77</ele>
        <time>2019-05-30T07:03:40.000Z</time>
      </trkpt>
      <trkpt lat="43.73799" lon="4.58414">
        <ele>3.64</ele>
        <time>2019-05-30T07:03:45.000Z</time>
      </trkpt>
      <trkpt lat="43.73762" lon="4.58418">
        <ele>3.83</ele>
        <time>2019-05-30T07:03:50.000Z</time>
      </trkpt>
      <trkpt lat="43.73726" lon="4.5842">
        <ele>2.89</ele>
        <time>2019-05-30T07:03:55.000Z</time>
      </trkpt>
      <trkpt lat="43.73687" lon="4.5842">
        <ele>3.83</ele>
        <time>2019-05-30T07:04:00.000Z</time>
      </trkpt>
      <trkpt lat="43.73651" lon="4.58421">
        <ele>4.77</ele>
        <time>2019-05-30T07:04:05.000Z</time>
      </trkpt>
      <trkpt lat="43.73616" lon="4.58419">
        <ele>3.83</ele>
        <time>2019-05-30T07:04:10.000Z</time>
      </trkpt>
      <trkpt lat="43.73582" lon="4.58414">
        <ele>2.85</ele>
        <time>2019-05-30T07:04:15.000Z</time>
      </trkpt>
      <trkpt lat="43.73552" lon="4.58413">
        <ele>2.83</ele>
        <time>2019-05-30T07:04:20.000Z</time>
      </trkpt>
      <trkpt lat="43.73542" lon="4.58454">
        <ele>1.83</ele>
        <time>2019-05-30T07:04:25.000Z</time>
      </trkpt>
      <trkpt lat="43.73537" lon="4.58492">
        <ele>2.81</ele>
        <time>2019-05-30T07:04:30.000Z</time>
      </trkpt>
      <trkpt lat="43.73532" lon="4.5853">
        <ele>1.83</ele>
        <time>2019-05-30T07:04:35.000Z</time>
      </trkpt>
      <trkpt lat="43.73526" lon="4.58566">
        <ele>1.83</ele>
        <time>2019-05-30T07:04:40.000Z</time>
      </trkpt>
      <trkpt lat="43.7352" lon="4.58602">
        <ele>1.83</ele>
        <time>2019-05-30T07:04:45.000Z</time>
      </trkpt>
      <trkpt lat="43.73511" lon="4.58635">
        <ele>3.58</ele>
        <time>2019-05-30T07:04:50.000Z</time>
      </trkpt>
      <trkpt lat="43.73488" lon="4.58655">
        <ele>4.83</ele>
        <time>2019-05-30T07:04:55.000Z</time>
      </trkpt>
      <trkpt lat="43.73464" lon="4.58675">
        <ele>4.83</ele>
        <time>2019-05-30T07:05:00.000Z</time>
      </trkpt>
      <trkpt lat="43.73438" lon="4.58692">
        <ele>3.85</ele>
        <time>2019-05-30T07:05:05.000Z</time>
      </trkpt>
      <trkpt lat="43.73409" lon="4.58702">
        <ele>3.08</ele>
        <time>2019-05-30T07:05:10.000Z</time>
      </trkpt>
      <trkpt lat="43.73379" lon="4.58712">
        <ele>3.08</ele>
        <time>2019-05-30T07:05:15.000Z</time>
      </trkpt>
      <trkpt lat="43.73348" lon="4.58721">
        <ele>2.77</ele>
        <time>2019-05-30T07:05:20.000Z</time>
      </trkpt>
      <trkpt lat="43.73315" lon="4.58729">
        <ele>2.83</ele>
        <time>2019-05-30T07:05:25.000Z</time>
      </trkpt>
      <trkpt lat="43.73282" lon="4.58739">
        <ele>2.83</ele>
        <time>2019-05-30T07:05:30.000Z</time>
      </trkpt>
      <trkpt lat="43.73248" lon="4.58749">
        <ele>2.64</ele>
        <time>2019-05-30T07:05:35.000Z</time>
      </trkpt>
      <trkpt lat="43.73214" lon="4.58757">
        <ele>2.83</ele>
        <time>2019-05-30T07:05:40.000Z</time>
      </trkpt>
      <trkpt lat="43.7318" lon="4.58767">
        <ele>2.85</ele>
        <time>2019-05-30T07:05:45.000Z</time>
      </trkpt>
      <trkpt lat="43.73145" lon="4.58776">
        <ele>2.84</ele>
        <time>2019-05-30T07:05:50.000Z</time>
      </trkpt>
      <trkpt lat="43.7311" lon="4.58785">
        <ele>2.83</ele>
        <time>2019-05-30T07:05:55.000Z</time>
      </trkpt>
      <trkpt lat="43.73075" lon="4.58794">
        <ele>2.83</ele>
        <time>2019-05-30T07:06:00.000Z</time>
      </trkpt>
      <trkpt lat="43.73046" lon="4.58798">
        <ele>1.89</ele>
        <time>2019-05-30T07:06:05.000Z</time>
      </trkpt>
      <trkpt lat="43.73036" lon="4.58801">
        <ele>2.83</ele>
        <time>2019-05-30T07:06:10.000Z</time>
      </trkpt>
      <trkpt lat="43.73031" lon="4.58813">
        <ele>3.83</ele>
        <time>2019-05-30T07:06:25.000Z</time>
      </trkpt>
      <trkpt lat="43.73037" lon="4.58833">
        <ele>3.83</ele>
        <time>2019-05-30T07:06:30.000Z</time>
      </trkpt>
      <trkpt lat="43.73043" lon="4.58855">
        <ele>3.83</ele>
        <time>2019-05-30T07:06:35.000Z</time>
      </trkpt>
      <trkpt lat="43.73049" lon="4.58879">
        <ele>2.77</ele>
        <time>2019-05-30T07:06:40.000Z</time>
      </trkpt>
      <trkpt lat="43.73053" lon="4.58906">
        <ele>2.83</ele>
        <time>2019-05-30T07:06:45.000Z</time>
      </trkpt>
      <trkpt lat="43.73057" lon="4.58934">
        <ele>2.85</ele>
        <time>2019-05-30T07:06:50.000Z</time>
      </trkpt>
      <trkpt lat="43.7306" lon="4.58957">
        <ele>2.84</ele>
        <time>2019-05-30T07:06:55.000Z</time>
      </trkpt>
      <trkpt lat="43.73064" lon="4.58984">
        <ele>2.83</ele>
        <time>2019-05-30T07:07:00.000Z</time>
      </trkpt>
      <trkpt lat="43.73069" lon="4.59014">
        <ele>3.83</ele>
        <time>2019-05-30T07:07:05.000Z</time>
      </trkpt>
      <trkpt lat="43.73075" lon="4.59043">
        <ele>3.83</ele>
        <time>2019-05-30T07:07:10.000Z</time>
      </trkpt>
      <trkpt lat="43.73084" lon="4.59072">
        <ele>3.83</ele>
        <time>2019-05-30T07:07:15.000Z</time>
      </trkpt>
      <trkpt lat="43.73093" lon="4.59097">
        <ele>2.83</ele>
        <time>2019-05-30T07:07:20.000Z</time>
      </trkpt>
      <trkpt lat="43.73103" lon="4.59123">
        <ele>3.58</ele>
        <time>2019-05-30T07:07:25.000Z</time>
      </trkpt>
      <trkpt lat="43.73111" lon="4.59148">
        <ele>3.77</ele>
        <time>2019-05-30T07:07:30.000Z</time>
      </trkpt>
      <trkpt lat="43.73119" lon="4.59173">
        <ele>3.83</ele>
        <time>2019-05-30T07:07:35.000Z</time>
      </trkpt>
      <trkpt lat="43.73127" lon="4.592">
        <ele>4.82</ele>
        <time>2019-05-30T07:07:40.000Z</time>
      </trkpt>
      <trkpt lat="43.73135" lon="4.59225">
        <ele>3.84</ele>
        <time>2019-05-30T07:07:45.000Z</time>
      </trkpt>
      <trkpt lat="43.73144" lon="4.59248">
        <ele>3.83</ele>
        <time>2019-05-30T07:07:50.000Z</time>
      </trkpt>
      <trkpt lat="43.73153" lon="4.59269">
        <ele>3.83</ele>
        <time>2019-05-30T07:07:55.000Z</time>
      </trkpt>
      <trkpt lat="43.73162" lon="4.5929">
        <ele>2.83</ele>
        <time>2019-05-30T07:08:00.000Z</time>
      </trkpt>
      <trkpt lat="43.73171" lon="4.59311">
        <ele>1.89</ele>
        <time>2019-05-30T07:08:05.000Z</time>
      </trkpt>
      <trkpt lat="43.7318" lon="4.59331">
        <ele>1.83</ele>
        <time>2019-05-30T07:08:10.000Z</time>
      </trkpt>
      <trkpt lat="43.7319" lon="4.5935">
        <ele>1.88</ele>
        <time>2019-05-30T07:08:15.000Z</time>
      </trkpt>
      <trkpt lat="43.73202" lon="4.59374">
        <ele>2.58</ele>
        <time>2019-05-30T07:08:20.000Z</time>
      </trkpt>
      <trkpt lat="43.73214" lon="4.594">
        <ele>2.83</ele>
        <time>2019-05-30T07:08:25.000Z</time>
      </trkpt>
      <trkpt lat="43.73226" lon="4.59426">
        <ele>3.82</ele>
        <time>2019-05-30T07:08:30.000Z</time>
      </trkpt>
      <trkpt lat="43.73237" lon="4.59454">
        <ele>2.83</ele>
        <time>2019-05-30T07:08:35.000Z</time>
      </trkpt>
      <trkpt lat="43.73248" lon="4.59482">
        <ele>2.83</ele>
        <time>2019-05-30T07:08:40.000Z</time>
      </trkpt>
      <trkpt lat="43.73258" lon="4.59508">
        <ele>2.83</ele>
        <time>2019-05-30T07:08:45.000Z</time>
      </trkpt>
      <trkpt lat="43.73269" lon="4.59533">
        <ele>2.89</ele>
        <time>2019-05-30T07:08:50.000Z</time>
      </trkpt>
      <trkpt lat="43.7328" lon="4.59558">
        <ele>2.83</ele>
        <time>2019-05-30T07:08:55.000Z</time>
      </trkpt>
      <trkpt lat="43.73289" lon="4.59583">
        <ele>1.84</ele>
        <time>2019-05-30T07:09:00.000Z</time>
      </trkpt>
      <trkpt lat="43.73297" lon="4.59608">
        <ele>1.83</ele>
        <time>2019-05-30T07:09:05.000Z</time>
      </trkpt>
      <trkpt lat="43.73305" lon="4.59634">
        <ele>0.84</ele>
        <time>2019-05-30T07:09:10.000Z</time>
      </trkpt>
      <trkpt lat="43.73312" lon="4.59659">
        <ele>1.83</ele>
        <time>2019-05-30T07:09:15.000Z</time>
      </trkpt>
      <trkpt lat="43.73319" lon="4.59684">
        <ele>1.83</ele>
        <time>2019-05-30T07:09:20.000Z</time>
      </trkpt>
      <trkpt lat="43.73327" lon="4.59707">
        <ele>2.83</ele>
        <time>2019-05-30T07:09:25.000Z</time>
      </trkpt>
      <trkpt lat="43.73334" lon="4.59732">
        <ele>3.58</ele>
        <time>2019-05-30T07:09:30.000Z</time>
      </trkpt>
      <trkpt lat="43.73341" lon="4.59756">
        <ele>3.82</ele>
        <time>2019-05-30T07:09:35.000Z</time>
      </trkpt>
      <trkpt lat="43.73326" lon="4.59774">
        <ele>3.83</ele>
        <time>2019-05-30T07:09:40.000Z</time>
      </trkpt>
      <trkpt lat="43.73298" lon="4.59767">
        <ele>3.83</ele>
        <time>2019-05-30T07:09:45.000Z</time>
      </trkpt>
      <trkpt lat="43.73272" lon="4.59767">
        <ele>3.83</ele>
        <time>2019-05-30T07:09:50.000Z</time>
      </trkpt>
      <trkpt lat="43.73244" lon="4.59765">
        <ele>3.79</ele>
        <time>2019-05-30T07:09:55.000Z</time>
      </trkpt>
      <trkpt lat="43.73217" lon="4.59763">
        <ele>3.83</ele>
        <time>2019-05-30T07:10:00.000Z</time>
      </trkpt>
      <trkpt lat="43.7319" lon="4.59756">
        <ele>2.9</ele>
        <time>2019-05-30T07:10:05.000Z</time>
      </trkpt>
      <trkpt lat="43.7316" lon="4.59744">
        <ele>2.83</ele>
        <time>2019-05-30T07:10:10.000Z</time>
      </trkpt>
      <trkpt lat="43.73128" lon="4.59735">
        <ele>2.83</ele>
        <time>2019-05-30T07:10:15.000Z</time>
      </trkpt>
      <trkpt lat="43.73095" lon="4.59726">
        <ele>3.83</ele>
        <time>2019-05-30T07:10:20.000Z</time>
      </trkpt>
      <trkpt lat="43.73062" lon="4.59717">
        <ele>3.83</ele>
        <time>2019-05-30T07:10:25.000Z</time>
      </trkpt>
      <trkpt lat="43.73029" lon="4.59709">
        <ele>4.07</ele>
        <time>2019-05-30T07:10:30.000Z</time>
      </trkpt>
      <trkpt lat="43.72995" lon="4.59698">
        <ele>1.9</ele>
        <time>2019-05-30T07:10:35.000Z</time>
      </trkpt>
      <trkpt lat="43.7296" lon="4.59687">
        <ele>1.83</ele>
        <time>2019-05-30T07:10:40.000Z</time>
      </trkpt>
      <trkpt lat="43.72925" lon="4.59676">
        <ele>1.83</ele>
        <time>2019-05-30T07:10:45.000Z</time>
      </trkpt>
      <trkpt lat="43.72889" lon="4.59669">
        <ele>2.77</ele>
        <time>2019-05-30T07:10:50.000Z</time>
      </trkpt>
      <trkpt lat="43.72853" lon="4.59665">
        <ele>1.88</ele>
        <time>2019-05-30T07:10:55.000Z</time>
      </trkpt>
      <trkpt lat="43.72816" lon="4.59662">
        <ele>1.83</ele>
        <time>2019-05-30T07:11:00.000Z</time>
      </trkpt>
      <trkpt lat="43.7278" lon="4.59658">
        <ele>1.88</ele>
        <time>2019-05-30T07:11:05.000Z</time>
      </trkpt>
      <trkpt lat="43.72744" lon="4.59653">
        <ele>1.83</ele>
        <time>2019-05-30T07:11:10.000Z</time>
      </trkpt>
      <trkpt lat="43.7271" lon="4.5965">
        <ele>3.78</ele>
        <time>2019-05-30T07:11:15.000Z</time>
      </trkpt>
      <trkpt lat="43.72678" lon="4.59646">
        <ele>3.94</ele>
        <time>2019-05-30T07:11:20.000Z</time>
      </trkpt>
      <trkpt lat="43.72645" lon="4.59643">
        <ele>3.83</ele>
        <time>2019-05-30T07:11:25.000Z</time>
      </trkpt>
      <trkpt lat="43.72614" lon="4.59639">
        <ele>2.83</ele>
        <time>2019-05-30T07:11:30.000Z</time>
      </trkpt>
      <trkpt lat="43.72582" lon="4.59636">
        <ele>1.84</ele>
        <time>2019-05-30T07:11:35.000Z</time>
      </trkpt>
      <trkpt lat="43.7255" lon="4.59633">
        <ele>0.84</ele>
        <time>2019-05-30T07:11:40.000Z</time>
      </trkpt>
      <trkpt lat="43.72517" lon="4.5963">
        <ele>0.85</ele>
        <time>2019-05-30T07:11:45.000Z</time>
      </trkpt>
      <trkpt lat="43.72487" lon="4.59627">
        <ele>0.59</ele>
        <time>2019-05-30T07:11:50.000Z</time>
      </trkpt>
      <trkpt lat="43.72479" lon="4.59599">
        <ele>6</ele>
        <time>2019-05-30T07:11:55.000Z</time>
      </trkpt>
      <trkpt lat="43.72478" lon="4.59564">
        <ele>5</ele>
        <time>2019-05-30T07:12:00.000Z</time>
      </trkpt>
      <trkpt lat="43.72466" lon="4.59534">
        <ele>0.08</ele>
        <time>2019-05-30T07:12:05.000Z</time>
      </trkpt>
      <trkpt lat="43.72438" lon="4.59535">
        <ele>0.6</ele>
        <time>2019-05-30T07:12:10.000Z</time>
      </trkpt>
      <trkpt lat="43.7241" lon="4.59535">
        <ele>0.83</ele>
        <time>2019-05-30T07:12:15.000Z</time>
      </trkpt>
      <trkpt lat="43.72382" lon="4.59535">
        <ele>2.58</ele>
        <time>2019-05-30T07:12:20.000Z</time>
      </trkpt>
      <trkpt lat="43.72352" lon="4.59535">
        <ele>3.58</ele>
        <time>2019-05-30T07:12:25.000Z</time>
      </trkpt>
      <trkpt lat="43.72325" lon="4.59538">
        <ele>2.65</ele>
        <time>2019-05-30T07:12:30.000Z</time>
      </trkpt>
      <trkpt lat="43.72298" lon="4.59541">
        <ele>2.83</ele>
        <time>2019-05-30T07:12:35.000Z</time>
      </trkpt>
      <trkpt lat="43.72269" lon="4.59542">
        <ele>2.04</ele>
        <time>2019-05-30T07:12:40.000Z</time>
      </trkpt>
      <trkpt lat="43.72237" lon="4.59543">
        <ele>2.77</ele>
        <time>2019-05-30T07:12:45.000Z</time>
      </trkpt>
      <trkpt lat="43.72206" lon="4.59545">
        <ele>1.9</ele>
        <time>2019-05-30T07:12:50.000Z</time>
      </trkpt>
      <trkpt lat="43.72178" lon="4.59549">
        <ele>2.82</ele>
        <time>2019-05-30T07:12:55.000Z</time>
      </trkpt>
      <trkpt lat="43.72187" lon="4.59544">
        <ele>1.83</ele>
        <time>2019-05-30T07:13:05.000Z</time>
      </trkpt>
      <trkpt lat="43.72186" lon="4.59525">
        <ele>0.85</ele>
        <time>2019-05-30T07:13:10.000Z</time>
      </trkpt>
      <trkpt lat="43.72178" lon="4.59504">
        <ele>0.83</ele>
        <time>2019-05-30T07:13:15.000Z</time>
      </trkpt>
      <trkpt lat="43.72158" lon="4.59498">
        <ele>0.83</ele>
        <time>2019-05-30T07:13:20.000Z</time>
      </trkpt>
      <trkpt lat="43.72134" lon="4.59502">
        <ele>1.08</ele>
        <time>2019-05-30T07:13:25.000Z</time>
      </trkpt>
      <trkpt lat="43.72108" lon="4.59503">
        <ele>1.82</ele>
        <time>2019-05-30T07:13:30.000Z</time>
      </trkpt>
      <trkpt lat="43.72081" lon="4.59506">
        <ele>2.58</ele>
        <time>2019-05-30T07:13:35.000Z</time>
      </trkpt>
      <trkpt lat="43.72053" lon="4.59509">
        <ele>1.89</ele>
        <time>2019-05-30T07:13:40.000Z</time>
      </trkpt>
      <trkpt lat="43.72024" lon="4.59513">
        <ele>2.78</ele>
        <time>2019-05-30T07:13:45.000Z</time>
      </trkpt>
      <trkpt lat="43.71994" lon="4.59516">
        <ele>1.89</ele>
        <time>2019-05-30T07:13:50.000Z</time>
      </trkpt>
      <trkpt lat="43.71964" lon="4.5952">
        <ele>2.83</ele>
        <time>2019-05-30T07:13:55.000Z</time>
      </trkpt>
      <trkpt lat="43.71932" lon="4.59524">
        <ele>2.59</ele>
        <time>2019-05-30T07:14:00.000Z</time>
      </trkpt>
      <trkpt lat="43.719" lon="4.59528">
        <ele>3.58</ele>
        <time>2019-05-30T07:14:05.000Z</time>
      </trkpt>
      <trkpt lat="43.71868" lon="4.59535">
        <ele>3.95</ele>
        <time>2019-05-30T07:14:10.000Z</time>
      </trkpt>
      <trkpt lat="43.71838" lon="4.59543">
        <ele>3.84</ele>
        <time>2019-05-30T07:14:15.000Z</time>
      </trkpt>
      <trkpt lat="43.71808" lon="4.59546">
        <ele>1.9</ele>
        <time>2019-05-30T07:14:20.000Z</time>
      </trkpt>
      <trkpt lat="43.71779" lon="4.59548">
        <ele>1.84</ele>
        <time>2019-05-30T07:14:25.000Z</time>
      </trkpt>
      <trkpt lat="43.7175" lon="4.59554">
        <ele>1.82</ele>
        <time>2019-05-30T07:14:30.000Z</time>
      </trkpt>
      <trkpt lat="43.71721" lon="4.59559">
        <ele>2.77</ele>
        <time>2019-05-30T07:14:35.000Z</time>
      </trkpt>
      <trkpt lat="43.7169" lon="4.59565">
        <ele>2.89</ele>
        <time>2019-05-30T07:14:40.000Z</time>
      </trkpt>
      <trkpt lat="43.7166" lon="4.5957">
        <ele>3.82</ele>
        <time>2019-05-30T07:14:45.000Z</time>
      </trkpt>
      <trkpt lat="43.7163" lon="4.59576">
        <ele>2.84</ele>
        <time>2019-05-30T07:14:50.000Z</time>
      </trkpt>
      <trkpt lat="43.71599" lon="4.59582">
        <ele>2.09</ele>
        <time>2019-05-30T07:14:55.000Z</time>
      </trkpt>
      <trkpt lat="43.71568" lon="4.59588">
        <ele>2.79</ele>
        <time>2019-05-30T07:15:00.000Z</time>
      </trkpt>
      <trkpt lat="43.71537" lon="4.59593">
        <ele>2.84</ele>
        <time>2019-05-30T07:15:05.000Z</time>
      </trkpt>
      <trkpt lat="43.71506" lon="4.59598">
        <ele>1.84</ele>
        <time>2019-05-30T07:15:10.000Z</time>
      </trkpt>
      <trkpt lat="43.71475" lon="4.59603">
        <ele>1.84</ele>
        <time>2019-05-30T07:15:15.000Z</time>
      </trkpt>
      <trkpt lat="43.71443" lon="4.59609">
        <ele>1.84</ele>
        <time>2019-05-30T07:15:20.000Z</time>
      </trkpt>
      <trkpt lat="43.71411" lon="4.59614">
        <ele>1.84</ele>
        <time>2019-05-30T07:15:25.000Z</time>
      </trkpt>
      <trkpt lat="43.71379" lon="4.59619">
        <ele>2.83</ele>
        <time>2019-05-30T07:15:30.000Z</time>
      </trkpt>
      <trkpt lat="43.71348" lon="4.59621">
        <ele>1.84</ele>
        <time>2019-05-30T07:15:35.000Z</time>
      </trkpt>
      <trkpt lat="43.71316" lon="4.59623">
        <ele>2.63</ele>
        <time>2019-05-30T07:15:40.000Z</time>
      </trkpt>
      <trkpt lat="43.71285" lon="4.59624">
        <ele>2.84</ele>
        <time>2019-05-30T07:15:45.000Z</time>
      </trkpt>
      <trkpt lat="43.71251" lon="4.59625">
        <ele>2.84</ele>
        <time>2019-05-30T07:15:50.000Z</time>
      </trkpt>
      <trkpt lat="43.71218" lon="4.59626">
        <ele>2.84</ele>
        <time>2019-05-30T07:15:55.000Z</time>
      </trkpt>
      <trkpt lat="43.71184" lon="4.59629">
        <ele>2.85</ele>
        <time>2019-05-30T07:16:00.000Z</time>
      </trkpt>
      <trkpt lat="43.7115" lon="4.5963">
        <ele>2.84</ele>
        <time>2019-05-30T07:16:05.000Z</time>
      </trkpt>
      <trkpt lat="43.71116" lon="4.59631">
        <ele>2.84</ele>
        <time>2019-05-30T07:16:10.000Z</time>
      </trkpt>
      <trkpt lat="43.71082" lon="4.59634">
        <ele>3.59</ele>
        <time>2019-05-30T07:16:15.000Z</time>
      </trkpt>
      <trkpt lat="43.71049" lon="4.59644">
        <ele>3.84</ele>
        <time>2019-05-30T07:16:20.000Z</time>
      </trkpt>
      <trkpt lat="43.71018" lon="4.59659">
        <ele>3.84</ele>
        <time>2019-05-30T07:16:25.000Z</time>
      </trkpt>
      <trkpt lat="43.70988" lon="4.59673">
        <ele>2.85</ele>
        <time>2019-05-30T07:16:30.000Z</time>
      </trkpt>
      <trkpt lat="43.70963" lon="4.59686">
        <ele>3.83</ele>
        <time>2019-05-30T07:16:35.000Z</time>
      </trkpt>
      <trkpt lat="43.70948" lon="4.5969">
        <ele>3.82</ele>
        <time>2019-05-30T07:16:40.000Z</time>
      </trkpt>
      <trkpt lat="43.70948" lon="4.59677">
        <ele>3.84</ele>
        <time>2019-05-30T07:16:45.000Z</time>
      </trkpt>
      <trkpt lat="43.7095" lon="4.59658">
        <ele>3.84</ele>
        <time>2019-05-30T07:16:50.000Z</time>
      </trkpt>
      <trkpt lat="43.70954" lon="4.59638">
        <ele>3.84</ele>
        <time>2019-05-30T07:16:55.000Z</time>
      </trkpt>
      <trkpt lat="43.70957" lon="4.59614">
        <ele>3.84</ele>
        <time>2019-05-30T07:17:00.000Z</time>
      </trkpt>
      <trkpt lat="43.70961" lon="4.59586">
        <ele>2.1</ele>
        <time>2019-05-30T07:17:05.000Z</time>
      </trkpt>
      <trkpt lat="43.70965" lon="4.59557">
        <ele>2.59</ele>
        <time>2019-05-30T07:17:10.000Z</time>
      </trkpt>
      <trkpt lat="43.70969" lon="4.59527">
        <ele>2.84</ele>
        <time>2019-05-30T07:17:15.000Z</time>
      </trkpt>
      <trkpt lat="43.70975" lon="4.59497">
        <ele>3.6</ele>
        <time>2019-05-30T07:17:20.000Z</time>
      </trkpt>
      <trkpt lat="43.70982" lon="4.59465">
        <ele>3.09</ele>
        <time>2019-05-30T07:17:25.000Z</time>
      </trkpt>
      <trkpt lat="43.70993" lon="4.59433">
        <ele>1.84</ele>
        <time>2019-05-30T07:17:30.000Z</time>
      </trkpt>
      <trkpt lat="43.71007" lon="4.59404">
        <ele>1.85</ele>
        <time>2019-05-30T07:17:35.000Z</time>
      </trkpt>
      <trkpt lat="43.71021" lon="4.59378">
        <ele>1.84</ele>
        <time>2019-05-30T07:17:40.000Z</time>
      </trkpt>
      <trkpt lat="43.71036" lon="4.59353">
        <ele>1.84</ele>
        <time>2019-05-30T07:17:45.000Z</time>
      </trkpt>
      <trkpt lat="43.71051" lon="4.59327">
        <ele>1.84</ele>
        <time>2019-05-30T07:17:50.000Z</time>
      </trkpt>
      <trkpt lat="43.71064" lon="4.59302">
        <ele>1.84</ele>
        <time>2019-05-30T07:17:55.000Z</time>
      </trkpt>
      <trkpt lat="43.71073" lon="4.59287">
        <ele>2.84</ele>
        <time>2019-05-30T07:18:00.000Z</time>
      </trkpt>
      <trkpt lat="43.71065" lon="4.59298">
        <ele>2.84</ele>
        <time>2019-05-30T07:19:11.000Z</time>
      </trkpt>
      <trkpt lat="43.71052" lon="4.5932">
        <ele>2.84</ele>
        <time>2019-05-30T07:19:16.000Z</time>
      </trkpt>
      <trkpt lat="43.71036" lon="4.59348">
        <ele>2.85</ele>
        <time>2019-05-30T07:19:21.000Z</time>
      </trkpt>
      <trkpt lat="43.71019" lon="4.59377">
        <ele>3.84</ele>
        <time>2019-05-30T07:19:26.000Z</time>
      </trkpt>
      <trkpt lat="43.71003" lon="4.59407">
        <ele>3.6</ele>
        <time>2019-05-30T07:19:31.000Z</time>
      </trkpt>
      <trkpt lat="43.70988" lon="4.5944">
        <ele>3.77</ele>
        <time>2019-05-30T07:19:36.000Z</time>
      </trkpt>
      <trkpt lat="43.70978" lon="4.59473">
        <ele>2.84</ele>
        <time>2019-05-30T07:19:41.000Z</time>
      </trkpt>
      <trkpt lat="43.70971" lon="4.5951">
        <ele>2.84</ele>
        <time>2019-05-30T07:19:46.000Z</time>
      </trkpt>
      <trkpt lat="43.70965" lon="4.59548">
        <ele>2.84</ele>
        <time>2019-05-30T07:19:51.000Z</time>
      </trkpt>
      <trkpt lat="43.70959" lon="4.59586">
        <ele>2.84</ele>
        <time>2019-05-30T07:19:56.000Z</time>
      </trkpt>
      <trkpt lat="43.70954" lon="4.59625">
        <ele>2.84</ele>
        <time>2019-05-30T07:20:01.000Z</time>
      </trkpt>
      <trkpt lat="43.70949" lon="4.59663">
        <ele>2.83</ele>
        <time>2019-05-30T07:20:06.000Z</time>
      </trkpt>
      <trkpt lat="43.70947" lon="4.59699">
        <ele>1.85</ele>
        <time>2019-05-30T07:20:11.000Z</time>
      </trkpt>
      <trkpt lat="43.70941" lon="4.59732">
        <ele>1.84</ele>
        <time>2019-05-30T07:20:16.000Z</time>
      </trkpt>
      <trkpt lat="43.70917" lon="4.5975">
        <ele>3.58</ele>
        <time>2019-05-30T07:20:21.000Z</time>
      </trkpt>
      <trkpt lat="43.70891" lon="4.59761">
        <ele>2.85</ele>
        <time>2019-05-30T07:20:26.000Z</time>
      </trkpt>
      <trkpt lat="43.70871" lon="4.59778">
        <ele>3.78</ele>
        <time>2019-05-30T07:20:31.000Z</time>
      </trkpt>
      <trkpt lat="43.70856" lon="4.59808">
        <ele>3.78</ele>
        <time>2019-05-30T07:20:36.000Z</time>
      </trkpt>
      <trkpt lat="43.7084" lon="4.59838">
        <ele>4.59</ele>
        <time>2019-05-30T07:20:41.000Z</time>
      </trkpt>
      <trkpt lat="43.70821" lon="4.59869">
        <ele>3.85</ele>
        <time>2019-05-30T07:20:46.000Z</time>
      </trkpt>
      <trkpt lat="43.70803" lon="4.59903">
        <ele>3.84</ele>
        <time>2019-05-30T07:20:51.000Z</time>
      </trkpt>
      <trkpt lat="43.70784" lon="4.59935">
        <ele>3.64</ele>
        <time>2019-05-30T07:20:56.000Z</time>
      </trkpt>
      <trkpt lat="43.70763" lon="4.59967">
        <ele>2.85</ele>
        <time>2019-05-30T07:21:01.000Z</time>
      </trkpt>
      <trkpt lat="43.70737" lon="4.59995">
        <ele>3.78</ele>
        <time>2019-05-30T07:21:06.000Z</time>
      </trkpt>
      <trkpt lat="43.70711" lon="4.60019">
        <ele>4.83</ele>
        <time>2019-05-30T07:21:11.000Z</time>
      </trkpt>
      <trkpt lat="43.70684" lon="4.60046">
        <ele>5.84</ele>
        <time>2019-05-30T07:21:16.000Z</time>
      </trkpt>
      <trkpt lat="43.70659" lon="4.60075">
        <ele>5.8</ele>
        <time>2019-05-30T07:21:21.000Z</time>
      </trkpt>
      <trkpt lat="43.70635" lon="4.60105">
        <ele>6.84</ele>
        <time>2019-05-30T07:21:26.000Z</time>
      </trkpt>
      <trkpt lat="43.70612" lon="4.60134">
        <ele>6.89</ele>
        <time>2019-05-30T07:21:31.000Z</time>
      </trkpt>
      <trkpt lat="43.70591" lon="4.60166">
        <ele>6.84</ele>
        <time>2019-05-30T07:21:36.000Z</time>
      </trkpt>
      <trkpt lat="43.70572" lon="4.60197">
        <ele>5.61</ele>
        <time>2019-05-30T07:21:41.000Z</time>
      </trkpt>
      <trkpt lat="43.70555" lon="4.60228">
        <ele>5.84</ele>
        <time>2019-05-30T07:21:46.000Z</time>
      </trkpt>
      <trkpt lat="43.70538" lon="4.6026">
        <ele>4.81</ele>
        <time>2019-05-30T07:21:51.000Z</time>
      </trkpt>
      <trkpt lat="43.70525" lon="4.60293">
        <ele>5.84</ele>
        <time>2019-05-30T07:21:56.000Z</time>
      </trkpt>
      <trkpt lat="43.7051" lon="4.60329">
        <ele>5.8</ele>
        <time>2019-05-30T07:22:01.000Z</time>
      </trkpt>
      <trkpt lat="43.70494" lon="4.6036">
        <ele>5.84</ele>
        <time>2019-05-30T07:22:06.000Z</time>
      </trkpt>
      <trkpt lat="43.70478" lon="4.60393">
        <ele>5.84</ele>
        <time>2019-05-30T07:22:11.000Z</time>
      </trkpt>
      <trkpt lat="43.70459" lon="4.60425">
        <ele>6.59</ele>
        <time>2019-05-30T07:22:16.000Z</time>
      </trkpt>
      <trkpt lat="43.7044" lon="4.60457">
        <ele>5.61</ele>
        <time>2019-05-30T07:22:21.000Z</time>
      </trkpt>
      <trkpt lat="43.70421" lon="4.60488">
        <ele>6.59</ele>
        <time>2019-05-30T07:22:26.000Z</time>
      </trkpt>
      <trkpt lat="43.70403" lon="4.60518">
        <ele>5.81</ele>
        <time>2019-05-30T07:22:31.000Z</time>
      </trkpt>
      <trkpt lat="43.7038" lon="4.60545">
        <ele>6.82</ele>
        <time>2019-05-30T07:22:36.000Z</time>
      </trkpt>
      <trkpt lat="43.70358" lon="4.6057">
        <ele>7.84</ele>
        <time>2019-05-30T07:22:41.000Z</time>
      </trkpt>
      <trkpt lat="43.70335" lon="4.60593">
        <ele>7.84</ele>
        <time>2019-05-30T07:22:46.000Z</time>
      </trkpt>
      <trkpt lat="43.70314" lon="4.60615">
        <ele>7.09</ele>
        <time>2019-05-30T07:22:51.000Z</time>
      </trkpt>
      <trkpt lat="43.70291" lon="4.6062">
        <ele>5.91</ele>
        <time>2019-05-30T07:22:56.000Z</time>
      </trkpt>
      <trkpt lat="43.70272" lon="4.60631">
        <ele>5.84</ele>
        <time>2019-05-30T07:23:01.000Z</time>
      </trkpt>
      <trkpt lat="43.7026" lon="4.60658">
        <ele>5.84</ele>
        <time>2019-05-30T07:23:06.000Z</time>
      </trkpt>
      <trkpt lat="43.70241" lon="4.60682">
        <ele>5.09</ele>
        <time>2019-05-30T07:23:11.000Z</time>
      </trkpt>
      <trkpt lat="43.70221" lon="4.60703">
        <ele>3.9</ele>
        <time>2019-05-30T07:23:16.000Z</time>
      </trkpt>
      <trkpt lat="43.702" lon="4.60726">
        <ele>6.77</ele>
        <time>2019-05-30T07:23:21.000Z</time>
      </trkpt>
      <trkpt lat="43.70181" lon="4.60746">
        <ele>7.83</ele>
        <time>2019-05-30T07:23:26.000Z</time>
      </trkpt>
      <trkpt lat="43.70163" lon="4.60767">
        <ele>6.58</ele>
        <time>2019-05-30T07:23:31.000Z</time>
      </trkpt>
      <trkpt lat="43.70142" lon="4.60786">
        <ele>6.83</ele>
        <time>2019-05-30T07:23:36.000Z</time>
      </trkpt>
      <trkpt lat="43.70115" lon="4.60796">
        <ele>7.83</ele>
        <time>2019-05-30T07:23:41.000Z</time>
      </trkpt>
      <trkpt lat="43.70087" lon="4.60804">
        <ele>6.85</ele>
        <time>2019-05-30T07:23:46.000Z</time>
      </trkpt>
      <trkpt lat="43.70058" lon="4.60807">
        <ele>5.9</ele>
        <time>2019-05-30T07:23:51.000Z</time>
      </trkpt>
      <trkpt lat="43.70027" lon="4.60811">
        <ele>6.78</ele>
        <time>2019-05-30T07:23:56.000Z</time>
      </trkpt>
      <trkpt lat="43.69995" lon="4.60814">
        <ele>6.1</ele>
        <time>2019-05-30T07:24:01.000Z</time>
      </trkpt>
      <trkpt lat="43.69963" lon="4.60818">
        <ele>4.85</ele>
        <time>2019-05-30T07:24:06.000Z</time>
      </trkpt>
      <trkpt lat="43.69931" lon="4.60824">
        <ele>3.84</ele>
        <time>2019-05-30T07:24:11.000Z</time>
      </trkpt>
      <trkpt lat="43.69899" lon="4.60829">
        <ele>5.78</ele>
        <time>2019-05-30T07:24:16.000Z</time>
      </trkpt>
      <trkpt lat="43.69868" lon="4.60834">
        <ele>4.89</ele>
        <time>2019-05-30T07:24:21.000Z</time>
      </trkpt>
      <trkpt lat="43.69839" lon="4.60837">
        <ele>4.86</ele>
        <time>2019-05-30T07:24:26.000Z</time>
      </trkpt>
      <trkpt lat="43.6981" lon="4.60843">
        <ele>5.03</ele>
        <time>2019-05-30T07:24:31.000Z</time>
      </trkpt>
      <trkpt lat="43.69781" lon="4.60848">
        <ele>5.64</ele>
        <time>2019-05-30T07:24:36.000Z</time>
      </trkpt>
      <trkpt lat="43.69751" lon="4.60854">
        <ele>6.78</ele>
        <time>2019-05-30T07:24:41.000Z</time>
      </trkpt>
      <trkpt lat="43.69721" lon="4.6086">
        <ele>6.84</ele>
        <time>2019-05-30T07:24:46.000Z</time>
      </trkpt>
      <trkpt lat="43.69692" lon="4.60867">
        <ele>6.64</ele>
        <time>2019-05-30T07:24:51.000Z</time>
      </trkpt>
      <trkpt lat="43.69666" lon="4.60869">
        <ele>5.85</ele>
        <time>2019-05-30T07:24:56.000Z</time>
      </trkpt>
      <trkpt lat="43.6964" lon="4.60887">
        <ele>5.8</ele>
        <time>2019-05-30T07:25:01.000Z</time>
      </trkpt>
      <trkpt lat="43.69611" lon="4.60902">
        <ele>5.84</ele>
        <time>2019-05-30T07:25:06.000Z</time>
      </trkpt>
      <trkpt lat="43.69582" lon="4.60917">
        <ele>5.84</ele>
        <time>2019-05-30T07:25:11.000Z</time>
      </trkpt>
      <trkpt lat="43.69551" lon="4.60933">
        <ele>7.59</ele>
        <time>2019-05-30T07:25:16.000Z</time>
      </trkpt>
      <trkpt lat="43.69524" lon="4.60946">
        <ele>6.84</ele>
        <time>2019-05-30T07:25:21.000Z</time>
      </trkpt>
      <trkpt lat="43.69492" lon="4.60959">
        <ele>6.59</ele>
        <time>2019-05-30T07:25:26.000Z</time>
      </trkpt>
      <trkpt lat="43.69463" lon="4.60977">
        <ele>5.39</ele>
        <time>2019-05-30T07:25:31.000Z</time>
      </trkpt>
      <trkpt lat="43.69438" lon="4.60995">
        <ele>6.58</ele>
        <time>2019-05-30T07:25:36.000Z</time>
      </trkpt>
      <trkpt lat="43.69417" lon="4.6101">
        <ele>6.8</ele>
        <time>2019-05-30T07:25:41.000Z</time>
      </trkpt>
      <trkpt lat="43.69408" lon="4.61004">
        <ele>4.84</ele>
        <time>2019-05-30T07:26:00.000Z</time>
      </trkpt>
      <trkpt lat="43.69401" lon="4.60992">
        <ele>5.84</ele>
        <time>2019-05-30T07:26:05.000Z</time>
      </trkpt>
      <trkpt lat="43.69395" lon="4.6097">
        <ele>5.85</ele>
        <time>2019-05-30T07:26:10.000Z</time>
      </trkpt>
      <trkpt lat="43.69385" lon="4.60945">
        <ele>5.89</ele>
        <time>2019-05-30T07:26:15.000Z</time>
      </trkpt>
      <trkpt lat="43.69366" lon="4.60947">
        <ele>2.88</ele>
        <time>2019-05-30T07:26:20.000Z</time>
      </trkpt>
      <trkpt lat="43.69342" lon="4.60956">
        <ele>3.59</ele>
        <time>2019-05-30T07:26:25.000Z</time>
      </trkpt>
      <trkpt lat="43.69316" lon="4.60969">
        <ele>5.82</ele>
        <time>2019-05-30T07:26:30.000Z</time>
      </trkpt>
      <trkpt lat="43.69291" lon="4.60979">
        <ele>6.1</ele>
        <time>2019-05-30T07:26:35.000Z</time>
      </trkpt>
      <trkpt lat="43.69268" lon="4.60991">
        <ele>5.84</ele>
        <time>2019-05-30T07:26:40.000Z</time>
      </trkpt>
      <trkpt lat="43.69242" lon="4.61001">
        <ele>6.8</ele>
        <time>2019-05-30T07:26:45.000Z</time>
      </trkpt>
      <trkpt lat="43.69219" lon="4.61012">
        <ele>8.78</ele>
        <time>2019-05-30T07:26:50.000Z</time>
      </trkpt>
      <trkpt lat="43.692" lon="4.61019">
        <ele>10.58</ele>
        <time>2019-05-30T07:26:55.000Z</time>
      </trkpt>
      <trkpt lat="43.69187" lon="4.61032">
        <ele>8.78</ele>
        <time>2019-05-30T07:27:00.000Z</time>
      </trkpt>
      <trkpt lat="43.69176" lon="4.61052">
        <ele>8.11</ele>
        <time>2019-05-30T07:27:05.000Z</time>
      </trkpt>
      <trkpt lat="43.69172" lon="4.61072">
        <ele>7.56</ele>
        <time>2019-05-30T07:27:10.000Z</time>
      </trkpt>
      <trkpt lat="43.69166" lon="4.61089">
        <ele>7.79</ele>
        <time>2019-05-30T07:27:15.000Z</time>
      </trkpt>
      <trkpt lat="43.69156" lon="4.61101">
        <ele>9.58</ele>
        <time>2019-05-30T07:27:20.000Z</time>
      </trkpt>
      <trkpt lat="43.69148" lon="4.61114">
        <ele>11.78</ele>
        <time>2019-05-30T07:27:25.000Z</time>
      </trkpt>
      <trkpt lat="43.69139" lon="4.61115">
        <ele>14.84</ele>
        <time>2019-05-30T07:27:49.000Z</time>
      </trkpt>
      <trkpt lat="43.69131" lon="4.61124">
        <ele>15.64</ele>
        <time>2019-05-30T07:27:54.000Z</time>
      </trkpt>
      <trkpt lat="43.69122" lon="4.61146">
        <ele>14.1</ele>
        <time>2019-05-30T07:27:59.000Z</time>
      </trkpt>
      <trkpt lat="43.69097" lon="4.61167">
        <ele>11.86</ele>
        <time>2019-05-30T07:28:04.000Z</time>
      </trkpt>
      <trkpt lat="43.69075" lon="4.61186">
        <ele>9.91</ele>
        <time>2019-05-30T07:28:09.000Z</time>
      </trkpt>
      <trkpt lat="43.69053" lon="4.61206">
        <ele>10.84</ele>
        <time>2019-05-30T07:28:14.000Z</time>
      </trkpt>
      <trkpt lat="43.69031" lon="4.61228">
        <ele>11.59</ele>
        <time>2019-05-30T07:28:19.000Z</time>
      </trkpt>
      <trkpt lat="43.69011" lon="4.61246">
        <ele>12.79</ele>
        <time>2019-05-30T07:28:24.000Z</time>
      </trkpt>
      <trkpt lat="43.69003" lon="4.61254">
        <ele>11.16</ele>
        <time>2019-05-30T07:28:39.000Z</time>
      </trkpt>
      <trkpt lat="43.68998" lon="4.61265">
        <ele>10.59</ele>
        <time>2019-05-30T07:28:44.000Z</time>
      </trkpt>
      <trkpt lat="43.68984" lon="4.61276">
        <ele>11.59</ele>
        <time>2019-05-30T07:28:49.000Z</time>
      </trkpt>
      <trkpt lat="43.68972" lon="4.61286">
        <ele>12.78</ele>
        <time>2019-05-30T07:28:54.000Z</time>
      </trkpt>
      <trkpt lat="43.68964" lon="4.61293">
        <ele>16.84</ele>
        <time>2019-05-30T07:29:20.000Z</time>
      </trkpt>
      <trkpt lat="43.68954" lon="4.61304">
        <ele>14.91</ele>
        <time>2019-05-30T07:29:25.000Z</time>
      </trkpt>
      <trkpt lat="43.68939" lon="4.61319">
        <ele>15.78</ele>
        <time>2019-05-30T07:29:30.000Z</time>
      </trkpt>
      <trkpt lat="43.68921" lon="4.61336">
        <ele>15.85</ele>
        <time>2019-05-30T07:29:35.000Z</time>
      </trkpt>
      <trkpt lat="43.689" lon="4.61354">
        <ele>12.9</ele>
        <time>2019-05-30T07:29:40.000Z</time>
      </trkpt>
      <trkpt lat="43.68877" lon="4.61374">
        <ele>12.86</ele>
        <time>2019-05-30T07:29:45.000Z</time>
      </trkpt>
      <trkpt lat="43.68853" lon="4.61395">
        <ele>11.74</ele>
        <time>2019-05-30T07:29:50.000Z</time>
      </trkpt>
      <trkpt lat="43.68831" lon="4.61417">
        <ele>10.85</ele>
        <time>2019-05-30T07:29:55.000Z</time>
      </trkpt>
      <trkpt lat="43.68801" lon="4.61441">
        <ele>8.35</ele>
        <time>2019-05-30T07:30:00.000Z</time>
      </trkpt>
      <trkpt lat="43.68768" lon="4.61463">
        <ele>6.85</ele>
        <time>2019-05-30T07:30:05.000Z</time>
      </trkpt>
      <trkpt lat="43.68729" lon="4.61492">
        <ele>6.9</ele>
        <time>2019-05-30T07:30:10.000Z</time>
      </trkpt>
      <trkpt lat="43.68693" lon="4.61515">
        <ele>9.59</ele>
        <time>2019-05-30T07:30:15.000Z</time>
      </trkpt>
      <trkpt lat="43.68663" lon="4.61538">
        <ele>9.1</ele>
        <time>2019-05-30T07:30:20.000Z</time>
      </trkpt>
      <trkpt lat="43.68633" lon="4.61558">
        <ele>9.58</ele>
        <time>2019-05-30T07:30:25.000Z</time>
      </trkpt>
      <trkpt lat="43.68603" lon="4.61581">
        <ele>9.66</ele>
        <time>2019-05-30T07:30:30.000Z</time>
      </trkpt>
      <trkpt lat="43.68577" lon="4.61598">
        <ele>8.85</ele>
        <time>2019-05-30T07:30:35.000Z</time>
      </trkpt>
      <trkpt lat="43.6855" lon="4.61616">
        <ele>9.03</ele>
        <time>2019-05-30T07:30:40.000Z</time>
      </trkpt>
      <trkpt lat="43.68522" lon="4.61636">
        <ele>9.84</ele>
        <time>2019-05-30T07:30:45.000Z</time>
      </trkpt>
      <trkpt lat="43.68493" lon="4.61658">
        <ele>8.9</ele>
        <time>2019-05-30T07:30:50.000Z</time>
      </trkpt>
      <trkpt lat="43.68464" lon="4.6168">
        <ele>9.84</ele>
        <time>2019-05-30T07:30:55.000Z</time>
      </trkpt>
      <trkpt lat="43.68436" lon="4.61698">
        <ele>9.1</ele>
        <time>2019-05-30T07:31:00.000Z</time>
      </trkpt>
      <trkpt lat="43.68407" lon="4.61718">
        <ele>6.91</ele>
        <time>2019-05-30T07:31:05.000Z</time>
      </trkpt>
      <trkpt lat="43.68378" lon="4.61738">
        <ele>7.08</ele>
        <time>2019-05-30T07:31:10.000Z</time>
      </trkpt>
      <trkpt lat="43.6835" lon="4.61757">
        <ele>7.79</ele>
        <time>2019-05-30T07:31:15.000Z</time>
      </trkpt>
      <trkpt lat="43.68323" lon="4.61774">
        <ele>7.6</ele>
        <time>2019-05-30T07:31:20.000Z</time>
      </trkpt>
      <trkpt lat="43.68295" lon="4.61794">
        <ele>8.6</ele>
        <time>2019-05-30T07:31:25.000Z</time>
      </trkpt>
      <trkpt lat="43.68269" lon="4.61815">
        <ele>7.68</ele>
        <time>2019-05-30T07:31:30.000Z</time>
      </trkpt>
      <trkpt lat="43.68242" lon="4.61837">
        <ele>6.85</ele>
        <time>2019-05-30T07:31:35.000Z</time>
      </trkpt>
      <trkpt lat="43.68215" lon="4.61854">
        <ele>6.85</ele>
        <time>2019-05-30T07:31:40.000Z</time>
      </trkpt>
      <trkpt lat="43.68191" lon="4.6187">
        <ele>6.85</ele>
        <time>2019-05-30T07:31:45.000Z</time>
      </trkpt>
      <trkpt lat="43.68168" lon="4.61884">
        <ele>9.52</ele>
        <time>2019-05-30T07:31:50.000Z</time>
      </trkpt>
      <trkpt lat="43.68144" lon="4.61903">
        <ele>9.85</ele>
        <time>2019-05-30T07:31:55.000Z</time>
      </trkpt>
      <trkpt lat="43.6812" lon="4.61918">
        <ele>11.77</ele>
        <time>2019-05-30T07:32:00.000Z</time>
      </trkpt>
      <trkpt lat="43.68097" lon="4.61935">
        <ele>13.03</ele>
        <time>2019-05-30T07:32:05.000Z</time>
      </trkpt>
      <trkpt lat="43.68076" lon="4.61952">
        <ele>12.9</ele>
        <time>2019-05-30T07:32:10.000Z</time>
      </trkpt>
      <trkpt lat="43.68054" lon="4.61968">
        <ele>13.79</ele>
        <time>2019-05-30T07:32:15.000Z</time>
      </trkpt>
      <trkpt lat="43.68034" lon="4.61981">
        <ele>13.85</ele>
        <time>2019-05-30T07:32:20.000Z</time>
      </trkpt>
      <trkpt lat="43.68016" lon="4.61991">
        <ele>14.85</ele>
        <time>2019-05-30T07:32:25.000Z</time>
      </trkpt>
      <trkpt lat="43.68001" lon="4.62002">
        <ele>16.82</ele>
        <time>2019-05-30T07:32:30.000Z</time>
      </trkpt>
      <trkpt lat="43.67985" lon="4.62018">
        <ele>14.93</ele>
        <time>2019-05-30T07:32:35.000Z</time>
      </trkpt>
      <trkpt lat="43.6797" lon="4.62036">
        <ele>14.9</ele>
        <time>2019-05-30T07:32:40.000Z</time>
      </trkpt>
      <trkpt lat="43.6795" lon="4.62055">
        <ele>14.85</ele>
        <time>2019-05-30T07:32:45.000Z</time>
      </trkpt>
      <trkpt lat="43.67936" lon="4.62072">
        <ele>15.85</ele>
        <time>2019-05-30T07:32:50.000Z</time>
      </trkpt>
      <trkpt lat="43.6792" lon="4.62089">
        <ele>13.12</ele>
        <time>2019-05-30T07:32:55.000Z</time>
      </trkpt>
      <trkpt lat="43.67904" lon="4.62108">
        <ele>12.85</ele>
        <time>2019-05-30T07:33:00.000Z</time>
      </trkpt>
      <trkpt lat="43.67894" lon="4.62123">
        <ele>10.91</ele>
        <time>2019-05-30T07:33:05.000Z</time>
      </trkpt>
      <trkpt lat="43.67904" lon="4.62119">
        <ele>5.1</ele>
        <time>2019-05-30T07:34:39.000Z</time>
      </trkpt>
      <trkpt lat="43.67914" lon="4.62133">
        <ele>6.85</ele>
        <time>2019-05-30T07:34:44.000Z</time>
      </trkpt>
      <trkpt lat="43.67926" lon="4.6216">
        <ele>8.55</ele>
        <time>2019-05-30T07:34:49.000Z</time>
      </trkpt>
      <trkpt lat="43.67935" lon="4.62182">
        <ele>9.6</ele>
        <time>2019-05-30T07:34:54.000Z</time>
      </trkpt>
      <trkpt lat="43.67944" lon="4.62206">
        <ele>9.85</ele>
        <time>2019-05-30T07:34:59.000Z</time>
      </trkpt>
      <trkpt lat="43.67956" lon="4.62229">
        <ele>8.85</ele>
        <time>2019-05-30T07:35:04.000Z</time>
      </trkpt>
      <trkpt lat="43.67968" lon="4.62232">
        <ele>10.48</ele>
        <time>2019-05-30T07:35:09.000Z</time>
      </trkpt>
      <trkpt lat="43.67983" lon="4.62211">
        <ele>13.78</ele>
        <time>2019-05-30T07:35:14.000Z</time>
      </trkpt>
      <trkpt lat="43.68" lon="4.62194">
        <ele>13.11</ele>
        <time>2019-05-30T07:35:19.000Z</time>
      </trkpt>
      <trkpt lat="43.68017" lon="4.62179">
        <ele>13.6</ele>
        <time>2019-05-30T07:35:24.000Z</time>
      </trkpt>
      <trkpt lat="43.68027" lon="4.62162">
        <ele>16.83</ele>
        <time>2019-05-30T07:35:29.000Z</time>
      </trkpt>
      <trkpt lat="43.68031" lon="4.62148">
        <ele>18.84</ele>
        <time>2019-05-30T07:35:34.000Z</time>
      </trkpt>
      <trkpt lat="43.68032" lon="4.62134">
        <ele>18.66</ele>
        <time>2019-05-30T07:35:39.000Z</time>
      </trkpt>
      <trkpt lat="43.68028" lon="4.62147">
        <ele>18.79</ele>
        <time>2019-05-30T07:36:01.000Z</time>
      </trkpt>
      <trkpt lat="43.68023" lon="4.62169">
        <ele>15.92</ele>
        <time>2019-05-30T07:36:06.000Z</time>
      </trkpt>
      <trkpt lat="43.68014" lon="4.62188">
        <ele>15.85</ele>
        <time>2019-05-30T07:36:11.000Z</time>
      </trkpt>
      <trkpt lat="43.68" lon="4.62202">
        <ele>15.09</ele>
        <time>2019-05-30T07:36:16.000Z</time>
      </trkpt>
      <trkpt lat="43.67985" lon="4.62212">
        <ele>14.58</ele>
        <time>2019-05-30T07:36:21.000Z</time>
      </trkpt>
      <trkpt lat="43.6797" lon="4.62223">
        <ele>16.58</ele>
        <time>2019-05-30T07:36:26.000Z</time>
      </trkpt>
      <trkpt lat="43.67957" lon="4.62237">
        <ele>16.85</ele>
        <time>2019-05-30T07:36:31.000Z</time>
      </trkpt>
      <trkpt lat="43.67945" lon="4.62251">
        <ele>15.91</ele>
        <time>2019-05-30T07:36:36.000Z</time>
      </trkpt>
      <trkpt lat="43.67932" lon="4.62265">
        <ele>17.58</ele>
        <time>2019-05-30T07:36:41.000Z</time>
      </trkpt>
      <trkpt lat="43.6792" lon="4.62278">
        <ele>17.85</ele>
        <time>2019-05-30T07:36:46.000Z</time>
      </trkpt>
      <trkpt lat="43.67907" lon="4.6229">
        <ele>17.85</ele>
        <time>2019-05-30T07:36:51.000Z</time>
      </trkpt>
      <trkpt lat="43.67893" lon="4.62303">
        <ele>18.85</ele>
        <time>2019-05-30T07:36:56.000Z</time>
      </trkpt>
      <trkpt lat="43.67877" lon="4.62318">
        <ele>18.85</ele>
        <time>2019-05-30T07:37:01.000Z</time>
      </trkpt>
      <trkpt lat="43.67858" lon="4.62338">
        <ele>18.85</ele>
        <time>2019-05-30T07:37:06.000Z</time>
      </trkpt>
      <trkpt lat="43.67835" lon="4.62358">
        <ele>18.85</ele>
        <time>2019-05-30T07:37:11.000Z</time>
      </trkpt>
      <trkpt lat="43.67813" lon="4.62382">
        <ele>17.85</ele>
        <time>2019-05-30T07:37:16.000Z</time>
      </trkpt>
      <trkpt lat="43.67783" lon="4.62404">
        <ele>17.6</ele>
        <time>2019-05-30T07:37:21.000Z</time>
      </trkpt>
      <trkpt lat="43.6775" lon="4.62419">
        <ele>17.1</ele>
        <time>2019-05-30T07:37:26.000Z</time>
      </trkpt>
      <trkpt lat="43.67722" lon="4.6244">
        <ele>15.91</ele>
        <time>2019-05-30T07:37:31.000Z</time>
      </trkpt>
      <trkpt lat="43.67704" lon="4.62474">
        <ele>12.93</ele>
        <time>2019-05-30T07:37:36.000Z</time>
      </trkpt>
      <trkpt lat="43.67677" lon="4.62488">
        <ele>14.59</ele>
        <time>2019-05-30T07:37:41.000Z</time>
      </trkpt>
      <trkpt lat="43.67648" lon="4.62492">
        <ele>17.79</ele>
        <time>2019-05-30T07:37:46.000Z</time>
      </trkpt>
      <trkpt lat="43.67618" lon="4.62489">
        <ele>18.66</ele>
        <time>2019-05-30T07:37:51.000Z</time>
      </trkpt>
      <trkpt lat="43.67591" lon="4.62488">
        <ele>14.93</ele>
        <time>2019-05-30T07:37:56.000Z</time>
      </trkpt>
      <trkpt lat="43.67559" lon="4.62497">
        <ele>15.6</ele>
        <time>2019-05-30T07:38:01.000Z</time>
      </trkpt>
      <trkpt lat="43.67537" lon="4.62495">
        <ele>15.59</ele>
        <time>2019-05-30T07:38:06.000Z</time>
      </trkpt>
      <trkpt lat="43.67508" lon="4.62501">
        <ele>15.67</ele>
        <time>2019-05-30T07:38:11.000Z</time>
      </trkpt>
      <trkpt lat="43.67499" lon="4.62503">
        <ele>13.9</ele>
        <time>2019-05-30T07:39:17.000Z</time>
      </trkpt>
      <trkpt lat="43.67495" lon="4.62518">
        <ele>14.85</ele>
        <time>2019-05-30T07:39:22.000Z</time>
      </trkpt>
      <trkpt lat="43.67495" lon="4.62552">
        <ele>15.84</ele>
        <time>2019-05-30T07:39:27.000Z</time>
      </trkpt>
      <trkpt lat="43.67497" lon="4.62588">
        <ele>13.84</ele>
        <time>2019-05-30T07:39:32.000Z</time>
      </trkpt>
      <trkpt lat="43.67502" lon="4.62618">
        <ele>13.05</ele>
        <time>2019-05-30T07:39:37.000Z</time>
      </trkpt>
      <trkpt lat="43.67507" lon="4.62642">
        <ele>12.54</ele>
        <time>2019-05-30T07:39:42.000Z</time>
      </trkpt>
      <trkpt lat="43.6751" lon="4.6266">
        <ele>14.85</ele>
        <time>2019-05-30T07:39:47.000Z</time>
      </trkpt>
      <trkpt lat="43.67508" lon="4.62674">
        <ele>15.79</ele>
        <time>2019-05-30T07:39:52.000Z</time>
      </trkpt>
      <trkpt lat="43.6751" lon="4.62696">
        <ele>18.52</ele>
        <time>2019-05-30T07:39:57.000Z</time>
      </trkpt>
      <trkpt lat="43.67512" lon="4.6272">
        <ele>18.62</ele>
        <time>2019-05-30T07:40:02.000Z</time>
      </trkpt>
      <trkpt lat="43.67513" lon="4.62743">
        <ele>20.6</ele>
        <time>2019-05-30T07:40:07.000Z</time>
      </trkpt>
      <trkpt lat="43.67514" lon="4.62761">
        <ele>20.85</ele>
        <time>2019-05-30T07:40:12.000Z</time>
      </trkpt>
      <trkpt lat="43.67504" lon="4.62776">
        <ele>19.84</ele>
        <time>2019-05-30T07:40:17.000Z</time>
      </trkpt>
      <trkpt lat="43.67494" lon="4.62785">
        <ele>19.79</ele>
        <time>2019-05-30T07:40:22.000Z</time>
      </trkpt>
      <trkpt lat="43.67495" lon="4.62799">
        <ele>18.67</ele>
        <time>2019-05-30T07:40:28.000Z</time>
      </trkpt>
      <trkpt lat="43.67499" lon="4.62812">
        <ele>17.91</ele>
        <time>2019-05-30T07:40:34.000Z</time>
      </trkpt>
      <trkpt lat="43.6751" lon="4.62811">
        <ele>17.81</ele>
        <time>2019-05-30T07:40:39.000Z</time>
      </trkpt>
      <trkpt lat="43.67515" lon="4.62822">
        <ele>19.79</ele>
        <time>2019-05-30T07:40:45.000Z</time>
      </trkpt>
      <trkpt lat="43.67513" lon="4.62839">
        <ele>18.86</ele>
        <time>2019-05-30T07:40:50.000Z</time>
      </trkpt>
      <trkpt lat="43.67511" lon="4.62853">
        <ele>17.41</ele>
        <time>2019-05-30T07:40:56.000Z</time>
      </trkpt>
      <trkpt lat="43.67516" lon="4.62871">
        <ele>13.38</ele>
        <time>2019-05-30T07:41:01.000Z</time>
      </trkpt>
      <trkpt lat="43.67517" lon="4.62889">
        <ele>11.85</ele>
        <time>2019-05-30T07:41:06.000Z</time>
      </trkpt>
      <trkpt lat="43.67518" lon="4.62909">
        <ele>16.53</ele>
        <time>2019-05-30T07:41:11.000Z</time>
      </trkpt>
      <trkpt lat="43.6752" lon="4.62926">
        <ele>18.98</ele>
        <time>2019-05-30T07:41:16.000Z</time>
      </trkpt>
      <trkpt lat="43.67519" lon="4.62947">
        <ele>18.57</ele>
        <time>2019-05-30T07:41:21.000Z</time>
      </trkpt>
      <trkpt lat="43.67517" lon="4.62971">
        <ele>20.08</ele>
        <time>2019-05-30T07:41:26.000Z</time>
      </trkpt>
      <trkpt lat="43.67516" lon="4.62993">
        <ele>18.85</ele>
        <time>2019-05-30T07:41:31.000Z</time>
      </trkpt>
      <trkpt lat="43.67511" lon="4.63014">
        <ele>18.59</ele>
        <time>2019-05-30T07:41:36.000Z</time>
      </trkpt>
      <trkpt lat="43.6751" lon="4.63037">
        <ele>16.93</ele>
        <time>2019-05-30T07:41:41.000Z</time>
      </trkpt>
      <trkpt lat="43.67511" lon="4.63059">
        <ele>18.02</ele>
        <time>2019-05-30T07:41:46.000Z</time>
      </trkpt>
      <trkpt lat="43.67509" lon="4.63085">
        <ele>15.86</ele>
        <time>2019-05-30T07:41:51.000Z</time>
      </trkpt>
      <trkpt lat="43.67507" lon="4.63108">
        <ele>17.79</ele>
        <time>2019-05-30T07:41:56.000Z</time>
      </trkpt>
      <trkpt lat="43.67506" lon="4.63132">
        <ele>19.04</ele>
        <time>2019-05-30T07:42:01.000Z</time>
      </trkpt>
      <trkpt lat="43.67503" lon="4.63154">
        <ele>17.97</ele>
        <time>2019-05-30T07:42:06.000Z</time>
      </trkpt>
      <trkpt lat="43.67503" lon="4.63177">
        <ele>19.03</ele>
        <time>2019-05-30T07:42:11.000Z</time>
      </trkpt>
      <trkpt lat="43.67501" lon="4.63198">
        <ele>17.87</ele>
        <time>2019-05-30T07:42:16.000Z</time>
      </trkpt>
      <trkpt lat="43.67499" lon="4.63215">
        <ele>16.92</ele>
        <time>2019-05-30T07:42:21.000Z</time>
      </trkpt>
      <trkpt lat="43.67497" lon="4.63228">
        <ele>16.79</ele>
        <time>2019-05-30T07:42:59.000Z</time>
      </trkpt>
      <trkpt lat="43.67493" lon="4.6324">
        <ele>17.79</ele>
        <time>2019-05-30T07:43:04.000Z</time>
      </trkpt>
      <trkpt lat="43.67499" lon="4.63253">
        <ele>19.04</ele>
        <time>2019-05-30T07:43:44.000Z</time>
      </trkpt>
      <trkpt lat="43.67513" lon="4.63262">
        <ele>19.85</ele>
        <time>2019-05-30T07:43:49.000Z</time>
      </trkpt>
      <trkpt lat="43.67531" lon="4.63268">
        <ele>19.85</ele>
        <time>2019-05-30T07:43:54.000Z</time>
      </trkpt>
      <trkpt lat="43.67552" lon="4.63276">
        <ele>21.36</ele>
        <time>2019-05-30T07:43:59.000Z</time>
      </trkpt>
      <trkpt lat="43.67571" lon="4.63284">
        <ele>20.61</ele>
        <time>2019-05-30T07:44:04.000Z</time>
      </trkpt>
      <trkpt lat="43.67579" lon="4.63292">
        <ele>26.73</ele>
        <time>2019-05-30T07:44:09.000Z</time>
      </trkpt>
      <trkpt lat="43.67598" lon="4.63297">
        <ele>22.49</ele>
        <time>2019-05-30T07:44:14.000Z</time>
      </trkpt>
      <trkpt lat="43.67615" lon="4.63306">
        <ele>22.18</ele>
        <time>2019-05-30T07:44:19.000Z</time>
      </trkpt>
      <trkpt lat="43.67638" lon="4.63314">
        <ele>20.17</ele>
        <time>2019-05-30T07:44:24.000Z</time>
      </trkpt>
      <trkpt lat="43.6766" lon="4.63318">
        <ele>17.87</ele>
        <time>2019-05-30T07:44:29.000Z</time>
      </trkpt>
      <trkpt lat="43.67675" lon="4.63324">
        <ele>18.6</ele>
        <time>2019-05-30T07:44:34.000Z</time>
      </trkpt>
      <trkpt lat="43.67694" lon="4.63335">
        <ele>16.87</ele>
        <time>2019-05-30T07:44:39.000Z</time>
      </trkpt>
      <trkpt lat="43.67714" lon="4.63344">
        <ele>14.12</ele>
        <time>2019-05-30T07:44:44.000Z</time>
      </trkpt>
      <trkpt lat="43.67734" lon="4.6335">
        <ele>12.92</ele>
        <time>2019-05-30T07:44:49.000Z</time>
      </trkpt>
      <trkpt lat="43.67752" lon="4.63359">
        <ele>13.6</ele>
        <time>2019-05-30T07:44:54.000Z</time>
      </trkpt>
      <trkpt lat="43.67769" lon="4.63371">
        <ele>12.87</ele>
        <time>2019-05-30T07:44:59.000Z</time>
      </trkpt>
      <trkpt lat="43.67781" lon="4.63381">
        <ele>12.79</ele>
        <time>2019-05-30T07:45:04.000Z</time>
      </trkpt>
      <trkpt lat="43.67792" lon="4.63388">
        <ele>12.16</ele>
        <time>2019-05-30T07:45:09.000Z</time>
      </trkpt>
      <trkpt lat="43.67802" lon="4.63389">
        <ele>11.84</ele>
        <time>2019-05-30T07:45:18.000Z</time>
      </trkpt>
      <trkpt lat="43.6781" lon="4.63384">
        <ele>18.6</ele>
        <time>2019-05-30T07:45:36.000Z</time>
      </trkpt>
      <trkpt lat="43.67816" lon="4.63369">
        <ele>18.85</ele>
        <time>2019-05-30T07:45:41.000Z</time>
      </trkpt>
      <trkpt lat="43.67825" lon="4.63347">
        <ele>18.85</ele>
        <time>2019-05-30T07:45:46.000Z</time>
      </trkpt>
      <trkpt lat="43.6783" lon="4.63324">
        <ele>17.67</ele>
        <time>2019-05-30T07:45:51.000Z</time>
      </trkpt>
      <trkpt lat="43.67836" lon="4.63304">
        <ele>17.85</ele>
        <time>2019-05-30T07:45:56.000Z</time>
      </trkpt>
      <trkpt lat="43.67844" lon="4.63287">
        <ele>14.13</ele>
        <time>2019-05-30T07:46:01.000Z</time>
      </trkpt>
      <trkpt lat="43.67853" lon="4.63274">
        <ele>14.04</ele>
        <time>2019-05-30T07:46:06.000Z</time>
      </trkpt>
      <trkpt lat="43.67863" lon="4.63258">
        <ele>11.36</ele>
        <time>2019-05-30T07:46:11.000Z</time>
      </trkpt>
      <trkpt lat="43.67876" lon="4.63241">
        <ele>9.86</ele>
        <time>2019-05-30T07:46:16.000Z</time>
      </trkpt>
      <trkpt lat="43.67892" lon="4.63225">
        <ele>9.85</ele>
        <time>2019-05-30T07:46:21.000Z</time>
      </trkpt>
      <trkpt lat="43.67908" lon="4.63209">
        <ele>11.85</ele>
        <time>2019-05-30T07:46:26.000Z</time>
      </trkpt>
      <trkpt lat="43.67922" lon="4.6319">
        <ele>11.61</ele>
        <time>2019-05-30T07:46:31.000Z</time>
      </trkpt>
      <trkpt lat="43.67936" lon="4.63172">
        <ele>11.79</ele>
        <time>2019-05-30T07:46:36.000Z</time>
      </trkpt>
      <trkpt lat="43.67952" lon="4.63156">
        <ele>10.86</ele>
        <time>2019-05-30T07:46:41.000Z</time>
      </trkpt>
      <trkpt lat="43.67961" lon="4.63143">
        <ele>13.47</ele>
        <time>2019-05-30T07:46:46.000Z</time>
      </trkpt>
      <trkpt lat="43.67972" lon="4.63135">
        <ele>11.97</ele>
        <time>2019-05-30T07:46:51.000Z</time>
      </trkpt>
      <trkpt lat="43.6798" lon="4.63141">
        <ele>6.86</ele>
        <time>2019-05-30T07:47:51.000Z</time>
      </trkpt>
      <trkpt lat="43.67988" lon="4.63133">
        <ele>8.85</ele>
        <time>2019-05-30T07:48:17.000Z</time>
      </trkpt>
      <trkpt lat="43.67992" lon="4.63122">
        <ele>10.72</ele>
        <time>2019-05-30T07:48:26.000Z</time>
      </trkpt>
      <trkpt lat="43.6799" lon="4.63109">
        <ele>15.54</ele>
        <time>2019-05-30T07:48:56.000Z</time>
      </trkpt>
      <trkpt lat="43.67986" lon="4.63123">
        <ele>18.56</ele>
        <time>2019-05-30T07:49:41.000Z</time>
      </trkpt>
      <trkpt lat="43.67986" lon="4.63137">
        <ele>25.57</ele>
        <time>2019-05-30T07:53:54.000Z</time>
      </trkpt>
      <trkpt lat="43.6798" lon="4.63129">
        <ele>23.85</ele>
        <time>2019-05-30T07:54:15.000Z</time>
      </trkpt>
      <trkpt lat="43.67981" lon="4.63142">
        <ele>11.88</ele>
        <time>2019-05-30T08:01:24.000Z</time>
      </trkpt>
      <trkpt lat="43.67988" lon="4.63132">
        <ele>8.84</ele>
        <time>2019-05-30T08:01:44.000Z</time>
      </trkpt>
      <trkpt lat="43.67993" lon="4.63121">
        <ele>7.85</ele>
        <time>2019-05-30T08:01:53.000Z</time>
      </trkpt>
      <trkpt lat="43.67984" lon="4.63115">
        <ele>12.54</ele>
        <time>2019-05-30T08:02:19.000Z</time>
      </trkpt>
      <trkpt lat="43.67984" lon="4.63127">
        <ele>21.02</ele>
        <time>2019-05-30T08:02:53.000Z</time>
      </trkpt>
      <trkpt lat="43.6798" lon="4.6314">
        <ele>27.1</ele>
        <time>2019-05-30T08:05:58.000Z</time>
      </trkpt>
      <trkpt lat="43.67982" lon="4.63123">
        <ele>9.85</ele>
        <time>2019-05-30T08:08:09.000Z</time>
      </trkpt>
      <trkpt lat="43.67991" lon="4.63124">
        <ele>12.67</ele>
        <time>2019-05-30T08:14:28.000Z</time>
      </trkpt>
      <trkpt lat="43.67997" lon="4.63115">
        <ele>7.86</ele>
        <time>2019-05-30T08:15:54.000Z</time>
      </trkpt>
      <trkpt lat="43.67986" lon="4.63113">
        <ele>9.79</ele>
        <time>2019-05-30T08:18:03.000Z</time>
      </trkpt>
      <trkpt lat="43.67971" lon="4.63109">
        <ele>11.6</ele>
        <time>2019-05-30T08:18:08.000Z</time>
      </trkpt>
      <trkpt lat="43.67959" lon="4.63107">
        <ele>11.79</ele>
        <time>2019-05-30T08:18:13.000Z</time>
      </trkpt>
      <trkpt lat="43.67945" lon="4.63108">
        <ele>11.29</ele>
        <time>2019-05-30T08:18:18.000Z</time>
      </trkpt>
      <trkpt lat="43.67932" lon="4.63103">
        <ele>10.06</ele>
        <time>2019-05-30T08:18:23.000Z</time>
      </trkpt>
      <trkpt lat="43.67921" lon="4.63094">
        <ele>8.54</ele>
        <time>2019-05-30T08:18:28.000Z</time>
      </trkpt>
      <trkpt lat="43.67912" lon="4.63091">
        <ele>10.6</ele>
        <time>2019-05-30T08:18:34.000Z</time>
      </trkpt>
      <trkpt lat="43.679" lon="4.63087">
        <ele>12.59</ele>
        <time>2019-05-30T08:18:39.000Z</time>
      </trkpt>
      <trkpt lat="43.6789" lon="4.63087">
        <ele>15.77</ele>
        <time>2019-05-30T08:18:47.000Z</time>
      </trkpt>
      <trkpt lat="43.67875" lon="4.6308">
        <ele>14.99</ele>
        <time>2019-05-30T08:18:52.000Z</time>
      </trkpt>
      <trkpt lat="43.67868" lon="4.63066">
        <ele>12.9</ele>
        <time>2019-05-30T08:18:57.000Z</time>
      </trkpt>
      <trkpt lat="43.6787" lon="4.6305">
        <ele>8.11</ele>
        <time>2019-05-30T08:20:51.000Z</time>
      </trkpt>
      <trkpt lat="43.67861" lon="4.63036">
        <ele>8.84</ele>
        <time>2019-05-30T08:20:56.000Z</time>
      </trkpt>
      <trkpt lat="43.67851" lon="4.63029">
        <ele>11.11</ele>
        <time>2019-05-30T08:21:01.000Z</time>
      </trkpt>
      <trkpt lat="43.67839" lon="4.63025">
        <ele>13.83</ele>
        <time>2019-05-30T08:21:06.000Z</time>
      </trkpt>
      <trkpt lat="43.67836" lon="4.63039">
        <ele>15.85</ele>
        <time>2019-05-30T08:21:13.000Z</time>
      </trkpt>
      <trkpt lat="43.67839" lon="4.63053">
        <ele>15.85</ele>
        <time>2019-05-30T08:21:18.000Z</time>
      </trkpt>
      <trkpt lat="43.67841" lon="4.63066">
        <ele>14.86</ele>
        <time>2019-05-30T08:21:23.000Z</time>
      </trkpt>
      <trkpt lat="43.67841" lon="4.6308">
        <ele>16.65</ele>
        <time>2019-05-30T08:21:31.000Z</time>
      </trkpt>
      <trkpt lat="43.6784" lon="4.63093">
        <ele>14.92</ele>
        <time>2019-05-30T08:21:38.000Z</time>
      </trkpt>
      <trkpt lat="43.6784" lon="4.63105">
        <ele>15.85</ele>
        <time>2019-05-30T08:21:44.000Z</time>
      </trkpt>
      <trkpt lat="43.67835" lon="4.63118">
        <ele>17.6</ele>
        <time>2019-05-30T08:21:52.000Z</time>
      </trkpt>
      <trkpt lat="43.67831" lon="4.6313">
        <ele>20.08</ele>
        <time>2019-05-30T08:22:00.000Z</time>
      </trkpt>
      <trkpt lat="43.67824" lon="4.63138">
        <ele>19.77</ele>
        <time>2019-05-30T08:22:36.000Z</time>
      </trkpt>
      <trkpt lat="43.67815" lon="4.63145">
        <ele>19.79</ele>
        <time>2019-05-30T08:22:41.000Z</time>
      </trkpt>
      <trkpt lat="43.67807" lon="4.63156">
        <ele>21.09</ele>
        <time>2019-05-30T08:22:46.000Z</time>
      </trkpt>
      <trkpt lat="43.678" lon="4.63168">
        <ele>19.12</ele>
        <time>2019-05-30T08:22:51.000Z</time>
      </trkpt>
      <trkpt lat="43.67789" lon="4.63171">
        <ele>18.86</ele>
        <time>2019-05-30T08:22:56.000Z</time>
      </trkpt>
      <trkpt lat="43.67779" lon="4.63177">
        <ele>21.04</ele>
        <time>2019-05-30T08:23:02.000Z</time>
      </trkpt>
      <trkpt lat="43.67769" lon="4.63176">
        <ele>21.85</ele>
        <time>2019-05-30T08:23:07.000Z</time>
      </trkpt>
      <trkpt lat="43.67759" lon="4.63174">
        <ele>20.12</ele>
        <time>2019-05-30T08:23:12.000Z</time>
      </trkpt>
      <trkpt lat="43.67748" lon="4.63176">
        <ele>22.77</ele>
        <time>2019-05-30T08:23:17.000Z</time>
      </trkpt>
      <trkpt lat="43.67739" lon="4.63186">
        <ele>25.04</ele>
        <time>2019-05-30T08:23:22.000Z</time>
      </trkpt>
      <trkpt lat="43.67739" lon="4.63203">
        <ele>25.79</ele>
        <time>2019-05-30T08:23:27.000Z</time>
      </trkpt>
      <trkpt lat="43.67739" lon="4.63217">
        <ele>23.93</ele>
        <time>2019-05-30T08:23:32.000Z</time>
      </trkpt>
      <trkpt lat="43.67738" lon="4.6323">
        <ele>22.1</ele>
        <time>2019-05-30T08:23:38.000Z</time>
      </trkpt>
      <trkpt lat="43.67746" lon="4.63238">
        <ele>25.54</ele>
        <time>2019-05-30T08:23:44.000Z</time>
      </trkpt>
      <trkpt lat="43.67756" lon="4.63236">
        <ele>25.62</ele>
        <time>2019-05-30T08:23:50.000Z</time>
      </trkpt>
      <trkpt lat="43.67769" lon="4.6324">
        <ele>27.79</ele>
        <time>2019-05-30T08:23:55.000Z</time>
      </trkpt>
      <trkpt lat="43.67779" lon="4.63243">
        <ele>26.91</ele>
        <time>2019-05-30T08:24:00.000Z</time>
      </trkpt>
      <trkpt lat="43.67782" lon="4.63255">
        <ele>27.85</ele>
        <time>2019-05-30T08:24:06.000Z</time>
      </trkpt>
      <trkpt lat="43.67787" lon="4.63266">
        <ele>27.85</ele>
        <time>2019-05-30T08:24:13.000Z</time>
      </trkpt>
      <trkpt lat="43.67796" lon="4.63268">
        <ele>23.91</ele>
        <time>2019-05-30T08:24:48.000Z</time>
      </trkpt>
      <trkpt lat="43.67789" lon="4.63259">
        <ele>23.85</ele>
        <time>2019-05-30T08:27:51.000Z</time>
      </trkpt>
      <trkpt lat="43.67784" lon="4.63247">
        <ele>24.79</ele>
        <time>2019-05-30T08:27:56.000Z</time>
      </trkpt>
      <trkpt lat="43.67783" lon="4.63233">
        <ele>27.6</ele>
        <time>2019-05-30T08:28:02.000Z</time>
      </trkpt>
      <trkpt lat="43.67784" lon="4.6322">
        <ele>29.85</ele>
        <time>2019-05-30T08:28:09.000Z</time>
      </trkpt>
      <trkpt lat="43.67773" lon="4.6322">
        <ele>29.85</ele>
        <time>2019-05-30T08:28:42.000Z</time>
      </trkpt>
      <trkpt lat="43.67759" lon="4.63219">
        <ele>28.92</ele>
        <time>2019-05-30T08:28:47.000Z</time>
      </trkpt>
      <trkpt lat="43.6775" lon="4.6323">
        <ele>27.86</ele>
        <time>2019-05-30T08:28:52.000Z</time>
      </trkpt>
      <trkpt lat="43.67746" lon="4.63214">
        <ele>26.87</ele>
        <time>2019-05-30T08:28:57.000Z</time>
      </trkpt>
      <trkpt lat="43.67743" lon="4.63191">
        <ele>24.92</ele>
        <time>2019-05-30T08:29:02.000Z</time>
      </trkpt>
      <trkpt lat="43.67742" lon="4.63173">
        <ele>25.6</ele>
        <time>2019-05-30T08:29:07.000Z</time>
      </trkpt>
      <trkpt lat="43.67728" lon="4.63162">
        <ele>25.79</ele>
        <time>2019-05-30T08:29:12.000Z</time>
      </trkpt>
      <trkpt lat="43.67715" lon="4.63154">
        <ele>25.85</ele>
        <time>2019-05-30T08:29:17.000Z</time>
      </trkpt>
      <trkpt lat="43.67707" lon="4.63135">
        <ele>26.61</ele>
        <time>2019-05-30T08:29:22.000Z</time>
      </trkpt>
      <trkpt lat="43.67704" lon="4.63116">
        <ele>25.87</ele>
        <time>2019-05-30T08:29:27.000Z</time>
      </trkpt>
      <trkpt lat="43.67702" lon="4.63102">
        <ele>26.6</ele>
        <time>2019-05-30T08:29:32.000Z</time>
      </trkpt>
      <trkpt lat="43.67703" lon="4.63085">
        <ele>28.59</ele>
        <time>2019-05-30T08:29:37.000Z</time>
      </trkpt>
      <trkpt lat="43.67705" lon="4.63072">
        <ele>28.1</ele>
        <time>2019-05-30T08:29:42.000Z</time>
      </trkpt>
      <trkpt lat="43.67708" lon="4.63059">
        <ele>28.85</ele>
        <time>2019-05-30T08:29:47.000Z</time>
      </trkpt>
      <trkpt lat="43.67715" lon="4.63048">
        <ele>27.16</ele>
        <time>2019-05-30T08:29:55.000Z</time>
      </trkpt>
      <trkpt lat="43.67724" lon="4.63045">
        <ele>29.84</ele>
        <time>2019-05-30T08:30:04.000Z</time>
      </trkpt>
      <trkpt lat="43.67715" lon="4.63041">
        <ele>27.9</ele>
        <time>2019-05-30T08:30:19.000Z</time>
      </trkpt>
      <trkpt lat="43.67702" lon="4.63037">
        <ele>28.91</ele>
        <time>2019-05-30T08:30:24.000Z</time>
      </trkpt>
      <trkpt lat="43.67691" lon="4.63037">
        <ele>27.86</ele>
        <time>2019-05-30T08:30:29.000Z</time>
      </trkpt>
      <trkpt lat="43.67682" lon="4.63034">
        <ele>27.86</ele>
        <time>2019-05-30T08:30:40.000Z</time>
      </trkpt>
      <trkpt lat="43.67689" lon="4.63014">
        <ele>25.92</ele>
        <time>2019-05-30T08:30:45.000Z</time>
      </trkpt>
      <trkpt lat="43.677" lon="4.62987">
        <ele>23.87</ele>
        <time>2019-05-30T08:30:50.000Z</time>
      </trkpt>
      <trkpt lat="43.67702" lon="4.62959">
        <ele>23.66</ele>
        <time>2019-05-30T08:30:55.000Z</time>
      </trkpt>
      <trkpt lat="43.67703" lon="4.62946">
        <ele>22.09</ele>
        <time>2019-05-30T08:31:05.000Z</time>
      </trkpt>
      <trkpt lat="43.67697" lon="4.62955">
        <ele>24.58</ele>
        <time>2019-05-30T08:31:36.000Z</time>
      </trkpt>
      <trkpt lat="43.67705" lon="4.62946">
        <ele>20.93</ele>
        <time>2019-05-30T08:31:46.000Z</time>
      </trkpt>
      <trkpt lat="43.67701" lon="4.62932">
        <ele>22.41</ele>
        <time>2019-05-30T08:31:51.000Z</time>
      </trkpt>
      <trkpt lat="43.67699" lon="4.62919">
        <ele>22.11</ele>
        <time>2019-05-30T08:32:02.000Z</time>
      </trkpt>
      <trkpt lat="43.6769" lon="4.62922">
        <ele>23.08</ele>
        <time>2019-05-30T08:32:08.000Z</time>
      </trkpt>
      <trkpt lat="43.6768" lon="4.62918">
        <ele>22.09</ele>
        <time>2019-05-30T08:32:14.000Z</time>
      </trkpt>
      <trkpt lat="43.67689" lon="4.62911">
        <ele>22.65</ele>
        <time>2019-05-30T08:32:19.000Z</time>
      </trkpt>
      <trkpt lat="43.67699" lon="4.62912">
        <ele>21.43</ele>
        <time>2019-05-30T08:32:24.000Z</time>
      </trkpt>
      <trkpt lat="43.67695" lon="4.62895">
        <ele>23.1</ele>
        <time>2019-05-30T08:32:29.000Z</time>
      </trkpt>
      <trkpt lat="43.67695" lon="4.62879">
        <ele>21.87</ele>
        <time>2019-05-30T08:32:34.000Z</time>
      </trkpt>
      <trkpt lat="43.67696" lon="4.62865">
        <ele>18.64</ele>
        <time>2019-05-30T08:32:39.000Z</time>
      </trkpt>
      <trkpt lat="43.67699" lon="4.62852">
        <ele>14</ele>
        <time>2019-05-30T08:32:44.000Z</time>
      </trkpt>
      <trkpt lat="43.67701" lon="4.62839">
        <ele>12.12</ele>
        <time>2019-05-30T08:32:49.000Z</time>
      </trkpt>
      <trkpt lat="43.67706" lon="4.62816">
        <ele>13.18</ele>
        <time>2019-05-30T08:32:54.000Z</time>
      </trkpt>
      <trkpt lat="43.67704" lon="4.62796">
        <ele>11.84</ele>
        <time>2019-05-30T08:32:59.000Z</time>
      </trkpt>
      <trkpt lat="43.67704" lon="4.62783">
        <ele>16.43</ele>
        <time>2019-05-30T08:33:04.000Z</time>
      </trkpt>
      <trkpt lat="43.67693" lon="4.62784">
        <ele>16.53</ele>
        <time>2019-05-30T08:33:11.000Z</time>
      </trkpt>
      <trkpt lat="43.67678" lon="4.62781">
        <ele>15.91</ele>
        <time>2019-05-30T08:33:16.000Z</time>
      </trkpt>
      <trkpt lat="43.67671" lon="4.62771">
        <ele>12.62</ele>
        <time>2019-05-30T08:33:23.000Z</time>
      </trkpt>
      <trkpt lat="43.67669" lon="4.62757">
        <ele>11.93</ele>
        <time>2019-05-30T08:33:28.000Z</time>
      </trkpt>
      <trkpt lat="43.6767" lon="4.62743">
        <ele>12.66</ele>
        <time>2019-05-30T08:33:34.000Z</time>
      </trkpt>
      <trkpt lat="43.67663" lon="4.6275">
        <ele>15.35</ele>
        <time>2019-05-30T08:34:17.000Z</time>
      </trkpt>
      <trkpt lat="43.67654" lon="4.62742">
        <ele>16.53</ele>
        <time>2019-05-30T08:34:22.000Z</time>
      </trkpt>
      <trkpt lat="43.67643" lon="4.62743">
        <ele>17.79</ele>
        <time>2019-05-30T08:34:28.000Z</time>
      </trkpt>
      <trkpt lat="43.67632" lon="4.62743">
        <ele>16.86</ele>
        <time>2019-05-30T08:34:33.000Z</time>
      </trkpt>
      <trkpt lat="43.67623" lon="4.62746">
        <ele>39.23</ele>
        <time>2019-05-30T08:37:13.000Z</time>
      </trkpt>
      <trkpt lat="43.67616" lon="4.62735">
        <ele>24.16</ele>
        <time>2019-05-30T08:37:19.000Z</time>
      </trkpt>
      <trkpt lat="43.67614" lon="4.62721">
        <ele>19.98</ele>
        <time>2019-05-30T08:37:25.000Z</time>
      </trkpt>
      <trkpt lat="43.67615" lon="4.62707">
        <ele>17.87</ele>
        <time>2019-05-30T08:37:32.000Z</time>
      </trkpt>
      <trkpt lat="43.6762" lon="4.62696">
        <ele>17.1</ele>
        <time>2019-05-30T08:37:37.000Z</time>
      </trkpt>
      <trkpt lat="43.67625" lon="4.62683">
        <ele>14.12</ele>
        <time>2019-05-30T08:37:43.000Z</time>
      </trkpt>
      <trkpt lat="43.67628" lon="4.6267">
        <ele>14.84</ele>
        <time>2019-05-30T08:37:48.000Z</time>
      </trkpt>
      <trkpt lat="43.67632" lon="4.62658">
        <ele>14.17</ele>
        <time>2019-05-30T08:37:53.000Z</time>
      </trkpt>
      <trkpt lat="43.67636" lon="4.62642">
        <ele>13.85</ele>
        <time>2019-05-30T08:37:58.000Z</time>
      </trkpt>
      <trkpt lat="43.67641" lon="4.62628">
        <ele>11.93</ele>
        <time>2019-05-30T08:38:03.000Z</time>
      </trkpt>
      <trkpt lat="43.67642" lon="4.62615">
        <ele>10.11</ele>
        <time>2019-05-30T08:38:08.000Z</time>
      </trkpt>
      <trkpt lat="43.67652" lon="4.62603">
        <ele>10.84</ele>
        <time>2019-05-30T08:38:13.000Z</time>
      </trkpt>
      <trkpt lat="43.67655" lon="4.62586">
        <ele>10.1</ele>
        <time>2019-05-30T08:38:18.000Z</time>
      </trkpt>
      <trkpt lat="43.67663" lon="4.6257">
        <ele>9.85</ele>
        <time>2019-05-30T08:38:23.000Z</time>
      </trkpt>
      <trkpt lat="43.67674" lon="4.62554">
        <ele>9.8</ele>
        <time>2019-05-30T08:38:28.000Z</time>
      </trkpt>
      <trkpt lat="43.67681" lon="4.62533">
        <ele>11.12</ele>
        <time>2019-05-30T08:38:33.000Z</time>
      </trkpt>
      <trkpt lat="43.67694" lon="4.6252">
        <ele>7.93</ele>
        <time>2019-05-30T08:38:38.000Z</time>
      </trkpt>
      <trkpt lat="43.67702" lon="4.62506">
        <ele>6.86</ele>
        <time>2019-05-30T08:38:43.000Z</time>
      </trkpt>
      <trkpt lat="43.67708" lon="4.62492">
        <ele>7.79</ele>
        <time>2019-05-30T08:38:48.000Z</time>
      </trkpt>
      <trkpt lat="43.67704" lon="4.6248">
        <ele>12.29</ele>
        <time>2019-05-30T08:38:59.000Z</time>
      </trkpt>
      <trkpt lat="43.67715" lon="4.62464">
        <ele>9.04</ele>
        <time>2019-05-30T08:39:04.000Z</time>
      </trkpt>
      <trkpt lat="43.67728" lon="4.62443">
        <ele>5.93</ele>
        <time>2019-05-30T08:39:09.000Z</time>
      </trkpt>
      <trkpt lat="43.67746" lon="4.62431">
        <ele>10.51</ele>
        <time>2019-05-30T08:39:14.000Z</time>
      </trkpt>
      <trkpt lat="43.67768" lon="4.62421">
        <ele>11.85</ele>
        <time>2019-05-30T08:39:19.000Z</time>
      </trkpt>
      <trkpt lat="43.67787" lon="4.62416">
        <ele>12.04</ele>
        <time>2019-05-30T08:39:24.000Z</time>
      </trkpt>
      <trkpt lat="43.67798" lon="4.6241">
        <ele>13.54</ele>
        <time>2019-05-30T08:39:29.000Z</time>
      </trkpt>
      <trkpt lat="43.67811" lon="4.62398">
        <ele>16.13</ele>
        <time>2019-05-30T08:39:34.000Z</time>
      </trkpt>
      <trkpt lat="43.67824" lon="4.62384">
        <ele>15.6</ele>
        <time>2019-05-30T08:39:39.000Z</time>
      </trkpt>
      <trkpt lat="43.67836" lon="4.62371">
        <ele>17.79</ele>
        <time>2019-05-30T08:39:44.000Z</time>
      </trkpt>
      <trkpt lat="43.67848" lon="4.62357">
        <ele>18.6</ele>
        <time>2019-05-30T08:39:49.000Z</time>
      </trkpt>
      <trkpt lat="43.67861" lon="4.62345">
        <ele>17.85</ele>
        <time>2019-05-30T08:39:54.000Z</time>
      </trkpt>
      <trkpt lat="43.67873" lon="4.62333">
        <ele>18.79</ele>
        <time>2019-05-30T08:39:59.000Z</time>
      </trkpt>
      <trkpt lat="43.67885" lon="4.62321">
        <ele>17.87</ele>
        <time>2019-05-30T08:40:04.000Z</time>
      </trkpt>
      <trkpt lat="43.67899" lon="4.62308">
        <ele>16.91</ele>
        <time>2019-05-30T08:40:09.000Z</time>
      </trkpt>
      <trkpt lat="43.67913" lon="4.62295">
        <ele>16.85</ele>
        <time>2019-05-30T08:40:14.000Z</time>
      </trkpt>
      <trkpt lat="43.67929" lon="4.62279">
        <ele>15.91</ele>
        <time>2019-05-30T08:40:19.000Z</time>
      </trkpt>
      <trkpt lat="43.67949" lon="4.6226">
        <ele>15.85</ele>
        <time>2019-05-30T08:40:24.000Z</time>
      </trkpt>
      <trkpt lat="43.6797" lon="4.62241">
        <ele>14.9</ele>
        <time>2019-05-30T08:40:29.000Z</time>
      </trkpt>
      <trkpt lat="43.67993" lon="4.62221">
        <ele>13.85</ele>
        <time>2019-05-30T08:40:34.000Z</time>
      </trkpt>
      <trkpt lat="43.68018" lon="4.62199">
        <ele>13.9</ele>
        <time>2019-05-30T08:40:39.000Z</time>
      </trkpt>
      <trkpt lat="43.68036" lon="4.62167">
        <ele>15.84</ele>
        <time>2019-05-30T08:40:44.000Z</time>
      </trkpt>
      <trkpt lat="43.6804" lon="4.62129">
        <ele>12.93</ele>
        <time>2019-05-30T08:40:49.000Z</time>
      </trkpt>
      <trkpt lat="43.6804" lon="4.62116">
        <ele>11.85</ele>
        <time>2019-05-30T08:41:18.000Z</time>
      </trkpt>
      <trkpt lat="43.68042" lon="4.62091">
        <ele>11.84</ele>
        <time>2019-05-30T08:41:23.000Z</time>
      </trkpt>
      <trkpt lat="43.68043" lon="4.62063">
        <ele>10.9</ele>
        <time>2019-05-30T08:41:28.000Z</time>
      </trkpt>
      <trkpt lat="43.68041" lon="4.62044">
        <ele>9.84</ele>
        <time>2019-05-30T08:41:33.000Z</time>
      </trkpt>
      <trkpt lat="43.68034" lon="4.62034">
        <ele>12.83</ele>
        <time>2019-05-30T08:41:43.000Z</time>
      </trkpt>
      <trkpt lat="43.68015" lon="4.62025">
        <ele>11.1</ele>
        <time>2019-05-30T08:41:48.000Z</time>
      </trkpt>
      <trkpt lat="43.67996" lon="4.6202">
        <ele>10.85</ele>
        <time>2019-05-30T08:41:53.000Z</time>
      </trkpt>
      <trkpt lat="43.67976" lon="4.62006">
        <ele>7.98</ele>
        <time>2019-05-30T08:41:58.000Z</time>
      </trkpt>
      <trkpt lat="43.67969" lon="4.61978">
        <ele>7.8</ele>
        <time>2019-05-30T08:42:03.000Z</time>
      </trkpt>
      <trkpt lat="43.67963" lon="4.61951">
        <ele>8.83</ele>
        <time>2019-05-30T08:42:08.000Z</time>
      </trkpt>
      <trkpt lat="43.67961" lon="4.61921">
        <ele>7.85</ele>
        <time>2019-05-30T08:42:13.000Z</time>
      </trkpt>
      <trkpt lat="43.67963" lon="4.61894">
        <ele>7.1</ele>
        <time>2019-05-30T08:42:18.000Z</time>
      </trkpt>
      <trkpt lat="43.67957" lon="4.61883">
        <ele>12.08</ele>
        <time>2019-05-30T08:43:38.000Z</time>
      </trkpt>
      <trkpt lat="43.67958" lon="4.61847">
        <ele>10.85</ele>
        <time>2019-05-30T08:43:43.000Z</time>
      </trkpt>
      <trkpt lat="43.67959" lon="4.61812">
        <ele>10.61</ele>
        <time>2019-05-30T08:43:48.000Z</time>
      </trkpt>
      <trkpt lat="43.67951" lon="4.61778">
        <ele>7.87</ele>
        <time>2019-05-30T08:43:53.000Z</time>
      </trkpt>
      <trkpt lat="43.67928" lon="4.61754">
        <ele>5.85</ele>
        <time>2019-05-30T08:43:58.000Z</time>
      </trkpt>
      <trkpt lat="43.67896" lon="4.61746">
        <ele>6.9</ele>
        <time>2019-05-30T08:44:03.000Z</time>
      </trkpt>
      <trkpt lat="43.67864" lon="4.6174">
        <ele>6.85</ele>
        <time>2019-05-30T08:44:08.000Z</time>
      </trkpt>
      <trkpt lat="43.67836" lon="4.61728">
        <ele>4.87</ele>
        <time>2019-05-30T08:44:13.000Z</time>
      </trkpt>
      <trkpt lat="43.67811" lon="4.61702">
        <ele>4.86</ele>
        <time>2019-05-30T08:44:18.000Z</time>
      </trkpt>
      <trkpt lat="43.67785" lon="4.61677">
        <ele>4.8</ele>
        <time>2019-05-30T08:44:23.000Z</time>
      </trkpt>
      <trkpt lat="43.67761" lon="4.61649">
        <ele>4.84</ele>
        <time>2019-05-30T08:44:28.000Z</time>
      </trkpt>
      <trkpt lat="43.67739" lon="4.61622">
        <ele>5.04</ele>
        <time>2019-05-30T08:44:33.000Z</time>
      </trkpt>
      <trkpt lat="43.67717" lon="4.61596">
        <ele>4.11</ele>
        <time>2019-05-30T08:44:38.000Z</time>
      </trkpt>
      <trkpt lat="43.67699" lon="4.61576">
        <ele>4.14</ele>
        <time>2019-05-30T08:44:43.000Z</time>
      </trkpt>
      <trkpt lat="43.67681" lon="4.61582">
        <ele>3.83</ele>
        <time>2019-05-30T08:44:48.000Z</time>
      </trkpt>
      <trkpt lat="43.67664" lon="4.61596">
        <ele>3.85</ele>
        <time>2019-05-30T08:44:53.000Z</time>
      </trkpt>
      <trkpt lat="43.67646" lon="4.61613">
        <ele>3.8</ele>
        <time>2019-05-30T08:44:58.000Z</time>
      </trkpt>
      <trkpt lat="43.6763" lon="4.61604">
        <ele>7.53</ele>
        <time>2019-05-30T08:45:03.000Z</time>
      </trkpt>
      <trkpt lat="43.67619" lon="4.61588">
        <ele>7.79</ele>
        <time>2019-05-30T08:45:08.000Z</time>
      </trkpt>
      <trkpt lat="43.67612" lon="4.61605">
        <ele>11.65</ele>
        <time>2019-05-30T08:45:13.000Z</time>
      </trkpt>
      <trkpt lat="43.67632" lon="4.61631">
        <ele>10.86</ele>
        <time>2019-05-30T08:45:18.000Z</time>
      </trkpt>
      <trkpt lat="43.67647" lon="4.61654">
        <ele>8.18</ele>
        <time>2019-05-30T08:45:23.000Z</time>
      </trkpt>
      <trkpt lat="43.67659" lon="4.61674">
        <ele>5.87</ele>
        <time>2019-05-30T08:45:28.000Z</time>
      </trkpt>
      <trkpt lat="43.67669" lon="4.61691">
        <ele>4.11</ele>
        <time>2019-05-30T08:45:33.000Z</time>
      </trkpt>
      <trkpt lat="43.67681" lon="4.61704">
        <ele>4.8</ele>
        <time>2019-05-30T08:45:38.000Z</time>
      </trkpt>
      <trkpt lat="43.67693" lon="4.61693">
        <ele>5.65</ele>
        <time>2019-05-30T08:45:43.000Z</time>
      </trkpt>
      <trkpt lat="43.67705" lon="4.61681">
        <ele>8.78</ele>
        <time>2019-05-30T08:45:48.000Z</time>
      </trkpt>
      <trkpt lat="43.6772" lon="4.6167">
        <ele>9.83</ele>
        <time>2019-05-30T08:45:53.000Z</time>
      </trkpt>
      <trkpt lat="43.67726" lon="4.61645">
        <ele>9.85</ele>
        <time>2019-05-30T08:45:58.000Z</time>
      </trkpt>
      <trkpt lat="43.67722" lon="4.61618">
        <ele>9.05</ele>
        <time>2019-05-30T08:46:03.000Z</time>
      </trkpt>
      <trkpt lat="43.67701" lon="4.61597">
        <ele>8.85</ele>
        <time>2019-05-30T08:46:08.000Z</time>
      </trkpt>
      <trkpt lat="43.67699" lon="4.61584">
        <ele>6.87</ele>
        <time>2019-05-30T08:46:13.000Z</time>
      </trkpt>
      <trkpt lat="43.67698" lon="4.61568">
        <ele>10.22</ele>
        <time>2019-05-30T08:46:39.000Z</time>
      </trkpt>
      <trkpt lat="43.67679" lon="4.61541">
        <ele>4.2</ele>
        <time>2019-05-30T08:46:44.000Z</time>
      </trkpt>
      <trkpt lat="43.67665" lon="4.61515">
        <ele>5.77</ele>
        <time>2019-05-30T08:46:49.000Z</time>
      </trkpt>
      <trkpt lat="43.67647" lon="4.61485">
        <ele>5.77</ele>
        <time>2019-05-30T08:46:54.000Z</time>
      </trkpt>
      <trkpt lat="43.67631" lon="4.61454">
        <ele>8.63</ele>
        <time>2019-05-30T08:46:59.000Z</time>
      </trkpt>
      <trkpt lat="43.67617" lon="4.61422">
        <ele>7.1</ele>
        <time>2019-05-30T08:47:04.000Z</time>
      </trkpt>
      <trkpt lat="43.676" lon="4.61387">
        <ele>7.6</ele>
        <time>2019-05-30T08:47:09.000Z</time>
      </trkpt>
      <trkpt lat="43.67585" lon="4.61354">
        <ele>5.68</ele>
        <time>2019-05-30T08:47:14.000Z</time>
      </trkpt>
      <trkpt lat="43.6757" lon="4.61318">
        <ele>6.6</ele>
        <time>2019-05-30T08:47:19.000Z</time>
      </trkpt>
      <trkpt lat="43.67554" lon="4.61284">
        <ele>3.87</ele>
        <time>2019-05-30T08:47:24.000Z</time>
      </trkpt>
      <trkpt lat="43.67538" lon="4.61247">
        <ele>4.6</ele>
        <time>2019-05-30T08:47:29.000Z</time>
      </trkpt>
      <trkpt lat="43.67522" lon="4.61212">
        <ele>4.54</ele>
        <time>2019-05-30T08:47:34.000Z</time>
      </trkpt>
      <trkpt lat="43.67509" lon="4.61176">
        <ele>4.41</ele>
        <time>2019-05-30T08:47:39.000Z</time>
      </trkpt>
      <trkpt lat="43.67494" lon="4.61143">
        <ele>4.04</ele>
        <time>2019-05-30T08:47:44.000Z</time>
      </trkpt>
      <trkpt lat="43.67477" lon="4.61108">
        <ele>2.85</ele>
        <time>2019-05-30T08:47:49.000Z</time>
      </trkpt>
      <trkpt lat="43.67461" lon="4.61073">
        <ele>1.93</ele>
        <time>2019-05-30T08:47:54.000Z</time>
      </trkpt>
      <trkpt lat="43.67447" lon="4.61034">
        <ele>1.14</ele>
        <time>2019-05-30T08:47:59.000Z</time>
      </trkpt>
      <trkpt lat="43.67439" lon="4.60996">
        <ele>3.52</ele>
        <time>2019-05-30T08:48:04.000Z</time>
      </trkpt>
      <trkpt lat="43.6743" lon="4.60955">
        <ele>4.83</ele>
        <time>2019-05-30T08:48:09.000Z</time>
      </trkpt>
      <trkpt lat="43.67423" lon="4.60915">
        <ele>4.84</ele>
        <time>2019-05-30T08:48:14.000Z</time>
      </trkpt>
      <trkpt lat="43.67414" lon="4.60877">
        <ele>7.84</ele>
        <time>2019-05-30T08:48:19.000Z</time>
      </trkpt>
      <trkpt lat="43.67405" lon="4.60836">
        <ele>6.05</ele>
        <time>2019-05-30T08:48:24.000Z</time>
      </trkpt>
      <trkpt lat="43.67399" lon="4.60797">
        <ele>6.78</ele>
        <time>2019-05-30T08:48:29.000Z</time>
      </trkpt>
      <trkpt lat="43.6739" lon="4.60758">
        <ele>5.6</ele>
        <time>2019-05-30T08:48:34.000Z</time>
      </trkpt>
      <trkpt lat="43.67378" lon="4.60718">
        <ele>6.03</ele>
        <time>2019-05-30T08:48:39.000Z</time>
      </trkpt>
      <trkpt lat="43.67365" lon="4.60684">
        <ele>5.86</ele>
        <time>2019-05-30T08:48:44.000Z</time>
      </trkpt>
      <trkpt lat="43.67368" lon="4.60657">
        <ele>5.85</ele>
        <time>2019-05-30T08:48:49.000Z</time>
      </trkpt>
      <trkpt lat="43.67381" lon="4.60628">
        <ele>5.1</ele>
        <time>2019-05-30T08:48:54.000Z</time>
      </trkpt>
      <trkpt lat="43.67374" lon="4.60595">
        <ele>4.85</ele>
        <time>2019-05-30T08:48:59.000Z</time>
      </trkpt>
      <trkpt lat="43.67366" lon="4.60558">
        <ele>3.86</ele>
        <time>2019-05-30T08:49:04.000Z</time>
      </trkpt>
      <trkpt lat="43.67361" lon="4.60516">
        <ele>0.91</ele>
        <time>2019-05-30T08:49:09.000Z</time>
      </trkpt>
      <trkpt lat="43.67357" lon="4.6047">
        <ele>1.08</ele>
        <time>2019-05-30T08:49:14.000Z</time>
      </trkpt>
      <trkpt lat="43.67346" lon="4.60427">
        <ele>1.78</ele>
        <time>2019-05-30T08:49:19.000Z</time>
      </trkpt>
      <trkpt lat="43.67334" lon="4.60386">
        <ele>1.9</ele>
        <time>2019-05-30T08:49:24.000Z</time>
      </trkpt>
      <trkpt lat="43.67323" lon="4.60346">
        <ele>1.83</ele>
        <time>2019-05-30T08:49:29.000Z</time>
      </trkpt>
      <trkpt lat="43.67312" lon="4.60306">
        <ele>1.61</ele>
        <time>2019-05-30T08:49:34.000Z</time>
      </trkpt>
      <trkpt lat="43.67304" lon="4.60265">
        <ele>1.89</ele>
        <time>2019-05-30T08:49:39.000Z</time>
      </trkpt>
      <trkpt lat="43.67295" lon="4.60225">
        <ele>1.85</ele>
        <time>2019-05-30T08:49:44.000Z</time>
      </trkpt>
      <trkpt lat="43.6729" lon="4.60186">
        <ele>1.1</ele>
        <time>2019-05-30T08:49:49.000Z</time>
      </trkpt>
      <trkpt lat="43.67282" lon="4.60145">
        <ele>1.85</ele>
        <time>2019-05-30T08:49:54.000Z</time>
      </trkpt>
      <trkpt lat="43.67274" lon="4.60104">
        <ele>0.85</ele>
        <time>2019-05-30T08:49:59.000Z</time>
      </trkpt>
      <trkpt lat="43.6727" lon="4.60065">
        <ele>1.6</ele>
        <time>2019-05-30T08:50:04.000Z</time>
      </trkpt>
      <trkpt lat="43.67265" lon="4.60028">
        <ele>0.86</ele>
        <time>2019-05-30T08:50:09.000Z</time>
      </trkpt>
      <trkpt lat="43.67259" lon="4.59989">
        <ele>1.78</ele>
        <time>2019-05-30T08:50:14.000Z</time>
      </trkpt>
      <trkpt lat="43.67255" lon="4.59954">
        <ele>3.58</ele>
        <time>2019-05-30T08:50:19.000Z</time>
      </trkpt>
      <trkpt lat="43.67251" lon="4.59916">
        <ele>4.84</ele>
        <time>2019-05-30T08:50:24.000Z</time>
      </trkpt>
      <trkpt lat="43.67245" lon="4.59878">
        <ele>4.85</ele>
        <time>2019-05-30T08:50:29.000Z</time>
      </trkpt>
      <trkpt lat="43.67241" lon="4.59838">
        <ele>4.83</ele>
        <time>2019-05-30T08:50:34.000Z</time>
      </trkpt>
      <trkpt lat="43.67236" lon="4.59797">
        <ele>3.86</ele>
        <time>2019-05-30T08:50:39.000Z</time>
      </trkpt>
      <trkpt lat="43.6723" lon="4.59756">
        <ele>1.85</ele>
        <time>2019-05-30T08:50:44.000Z</time>
      </trkpt>
      <trkpt lat="43.67227" lon="4.59719">
        <ele>0.35</ele>
        <time>2019-05-30T08:50:49.000Z</time>
      </trkpt>
      <trkpt lat="43.67222" lon="4.59681">
        <ele>0.6</ele>
        <time>2019-05-30T08:50:54.000Z</time>
      </trkpt>
      <trkpt lat="43.67216" lon="4.59645">
        <ele>1.3</ele>
        <time>2019-05-30T08:50:59.000Z</time>
      </trkpt>
      <trkpt lat="43.67206" lon="4.59607">
        <ele>1.8</ele>
        <time>2019-05-30T08:51:04.000Z</time>
      </trkpt>
      <trkpt lat="43.6719" lon="4.59571">
        <ele>1.8</ele>
        <time>2019-05-30T08:51:09.000Z</time>
      </trkpt>
      <trkpt lat="43.67174" lon="4.5954">
        <ele>1.09</ele>
        <time>2019-05-30T08:51:14.000Z</time>
      </trkpt>
      <trkpt lat="43.67158" lon="4.59508">
        <ele>2.53</ele>
        <time>2019-05-30T08:51:19.000Z</time>
      </trkpt>
      <trkpt lat="43.67141" lon="4.59478">
        <ele>1.85</ele>
        <time>2019-05-30T08:51:24.000Z</time>
      </trkpt>
      <trkpt lat="43.67125" lon="4.59446">
        <ele>3.03</ele>
        <time>2019-05-30T08:51:29.000Z</time>
      </trkpt>
      <trkpt lat="43.67107" lon="4.59412">
        <ele>3.64</ele>
        <time>2019-05-30T08:51:34.000Z</time>
      </trkpt>
      <trkpt lat="43.6709" lon="4.59378">
        <ele>3.84</ele>
        <time>2019-05-30T08:51:39.000Z</time>
      </trkpt>
      <trkpt lat="43.67075" lon="4.59345">
        <ele>2.85</ele>
        <time>2019-05-30T08:51:44.000Z</time>
      </trkpt>
      <trkpt lat="43.67059" lon="4.5931">
        <ele>0.91</ele>
        <time>2019-05-30T08:51:49.000Z</time>
      </trkpt>
      <trkpt lat="43.67042" lon="4.59275">
        <ele>1.78</ele>
        <time>2019-05-30T08:51:54.000Z</time>
      </trkpt>
      <trkpt lat="43.67025" lon="4.59237">
        <ele>1.09</ele>
        <time>2019-05-30T08:51:59.000Z</time>
      </trkpt>
      <trkpt lat="43.67009" lon="4.59199">
        <ele>5</ele>
        <time>2019-05-30T08:52:04.000Z</time>
      </trkpt>
      <trkpt lat="43.6699" lon="4.59162">
        <ele>2.58</ele>
        <time>2019-05-30T08:52:09.000Z</time>
      </trkpt>
      <trkpt lat="43.66972" lon="4.59129">
        <ele>1.8</ele>
        <time>2019-05-30T08:52:14.000Z</time>
      </trkpt>
      <trkpt lat="43.6695" lon="4.59095">
        <ele>0.09</ele>
        <time>2019-05-30T08:52:19.000Z</time>
      </trkpt>
      <trkpt lat="43.66928" lon="4.59062">
        <ele>0.84</ele>
        <time>2019-05-30T08:52:24.000Z</time>
      </trkpt>
      <trkpt lat="43.66904" lon="4.59028">
        <ele>0.09</ele>
        <time>2019-05-30T08:52:29.000Z</time>
      </trkpt>
      <trkpt lat="43.66881" lon="4.58997">
        <ele>0.78</ele>
        <time>2019-05-30T08:52:34.000Z</time>
      </trkpt>
      <trkpt lat="43.66859" lon="4.58965">
        <ele>2.34</ele>
        <time>2019-05-30T08:52:39.000Z</time>
      </trkpt>
      <trkpt lat="43.66842" lon="4.58926">
        <ele>0.85</ele>
        <time>2019-05-30T08:52:44.000Z</time>
      </trkpt>
      <trkpt lat="43.66831" lon="4.58883">
        <ele>0.15</ele>
        <time>2019-05-30T08:52:49.000Z</time>
      </trkpt>
      <trkpt lat="43.66817" lon="4.58844">
        <ele>5</ele>
        <time>2019-05-30T08:52:54.000Z</time>
      </trkpt>
      <trkpt lat="43.66801" lon="4.58808">
        <ele>1.35</ele>
        <time>2019-05-30T08:52:59.000Z</time>
      </trkpt>
      <trkpt lat="43.66786" lon="4.58768">
        <ele>0.1</ele>
        <time>2019-05-30T08:53:04.000Z</time>
      </trkpt>
      <trkpt lat="43.66774" lon="4.58729">
        <ele>1.58</ele>
        <time>2019-05-30T08:53:09.000Z</time>
      </trkpt>
      <trkpt lat="43.66761" lon="4.58689">
        <ele>0.91</ele>
        <time>2019-05-30T08:53:14.000Z</time>
      </trkpt>
      <trkpt lat="43.66751" lon="4.58646">
        <ele>1.59</ele>
        <time>2019-05-30T08:53:19.000Z</time>
      </trkpt>
      <trkpt lat="43.66742" lon="4.58604">
        <ele>0.1</ele>
        <time>2019-05-30T08:53:24.000Z</time>
      </trkpt>
      <trkpt lat="43.66732" lon="4.58564">
        <ele>1.34</ele>
        <time>2019-05-30T08:53:29.000Z</time>
      </trkpt>
      <trkpt lat="43.66722" lon="4.58523">
        <ele>3</ele>
        <time>2019-05-30T08:53:34.000Z</time>
      </trkpt>
      <trkpt lat="43.66713" lon="4.58483">
        <ele>3</ele>
        <time>2019-05-30T08:53:39.000Z</time>
      </trkpt>
      <trkpt lat="43.66705" lon="4.58442">
        <ele>0.84</ele>
        <time>2019-05-30T08:53:44.000Z</time>
      </trkpt>
      <trkpt lat="43.66696" lon="4.58402">
        <ele>3.34</ele>
        <time>2019-05-30T08:53:49.000Z</time>
      </trkpt>
      <trkpt lat="43.66688" lon="4.5836">
        <ele>1.91</ele>
        <time>2019-05-30T08:53:54.000Z</time>
      </trkpt>
      <trkpt lat="43.66679" lon="4.5832">
        <ele>2.59</ele>
        <time>2019-05-30T08:53:59.000Z</time>
      </trkpt>
      <trkpt lat="43.66669" lon="4.58282">
        <ele>2.84</ele>
        <time>2019-05-30T08:54:04.000Z</time>
      </trkpt>
      <trkpt lat="43.66661" lon="4.58243">
        <ele>2.84</ele>
        <time>2019-05-30T08:54:09.000Z</time>
      </trkpt>
      <trkpt lat="43.66652" lon="4.58202">
        <ele>3.03</ele>
        <time>2019-05-30T08:54:14.000Z</time>
      </trkpt>
      <trkpt lat="43.66641" lon="4.58158">
        <ele>2.85</ele>
        <time>2019-05-30T08:54:19.000Z</time>
      </trkpt>
      <trkpt lat="43.66631" lon="4.58115">
        <ele>2.09</ele>
        <time>2019-05-30T08:54:24.000Z</time>
      </trkpt>
      <trkpt lat="43.6662" lon="4.58072">
        <ele>0.86</ele>
        <time>2019-05-30T08:54:29.000Z</time>
      </trkpt>
      <trkpt lat="43.66611" lon="4.58029">
        <ele>1.84</ele>
        <time>2019-05-30T08:54:34.000Z</time>
      </trkpt>
      <trkpt lat="43.66604" lon="4.57986">
        <ele>0.11</ele>
        <time>2019-05-30T08:54:39.000Z</time>
      </trkpt>
      <trkpt lat="43.66599" lon="4.57944">
        <ele>0.59</ele>
        <time>2019-05-30T08:54:44.000Z</time>
      </trkpt>
      <trkpt lat="43.66594" lon="4.57901">
        <ele>1.59</ele>
        <time>2019-05-30T08:54:49.000Z</time>
      </trkpt>
      <trkpt lat="43.66588" lon="4.57858">
        <ele>2.78</ele>
        <time>2019-05-30T08:54:54.000Z</time>
      </trkpt>
      <trkpt lat="43.66583" lon="4.57815">
        <ele>2.84</ele>
        <time>2019-05-30T08:54:59.000Z</time>
      </trkpt>
      <trkpt lat="43.66583" lon="4.57773">
        <ele>2.84</ele>
        <time>2019-05-30T08:55:04.000Z</time>
      </trkpt>
      <trkpt lat="43.66584" lon="4.57732">
        <ele>3.78</ele>
        <time>2019-05-30T08:55:09.000Z</time>
      </trkpt>
      <trkpt lat="43.66585" lon="4.57691">
        <ele>3.89</ele>
        <time>2019-05-30T08:55:14.000Z</time>
      </trkpt>
      <trkpt lat="43.66587" lon="4.57649">
        <ele>3.84</ele>
        <time>2019-05-30T08:55:19.000Z</time>
      </trkpt>
      <trkpt lat="43.66588" lon="4.57608">
        <ele>4.84</ele>
        <time>2019-05-30T08:55:24.000Z</time>
      </trkpt>
      <trkpt lat="43.66587" lon="4.57567">
        <ele>4.84</ele>
        <time>2019-05-30T08:55:29.000Z</time>
      </trkpt>
      <trkpt lat="43.66586" lon="4.57529">
        <ele>4.65</ele>
        <time>2019-05-30T08:55:34.000Z</time>
      </trkpt>
      <trkpt lat="43.66586" lon="4.57489">
        <ele>4.84</ele>
        <time>2019-05-30T08:55:39.000Z</time>
      </trkpt>
      <trkpt lat="43.66585" lon="4.57449">
        <ele>3.89</ele>
        <time>2019-05-30T08:55:44.000Z</time>
      </trkpt>
      <trkpt lat="43.66583" lon="4.57406">
        <ele>1.84</ele>
        <time>2019-05-30T08:55:49.000Z</time>
      </trkpt>
      <trkpt lat="43.66582" lon="4.57364">
        <ele>1.84</ele>
        <time>2019-05-30T08:55:54.000Z</time>
      </trkpt>
      <trkpt lat="43.6658" lon="4.57321">
        <ele>2.84</ele>
        <time>2019-05-30T08:55:59.000Z</time>
      </trkpt>
      <trkpt lat="43.66572" lon="4.57282">
        <ele>3.07</ele>
        <time>2019-05-30T08:56:04.000Z</time>
      </trkpt>
      <trkpt lat="43.66543" lon="4.57274">
        <ele>2.9</ele>
        <time>2019-05-30T08:56:09.000Z</time>
      </trkpt>
      <trkpt lat="43.66518" lon="4.57263">
        <ele>2.84</ele>
        <time>2019-05-30T08:56:14.000Z</time>
      </trkpt>
      <trkpt lat="43.66516" lon="4.57227">
        <ele>3.59</ele>
        <time>2019-05-30T08:56:19.000Z</time>
      </trkpt>
      <trkpt lat="43.66515" lon="4.57191">
        <ele>3.78</ele>
        <time>2019-05-30T08:56:24.000Z</time>
      </trkpt>
      <trkpt lat="43.66512" lon="4.57151">
        <ele>2.84</ele>
        <time>2019-05-30T08:56:29.000Z</time>
      </trkpt>
      <trkpt lat="43.66509" lon="4.57108">
        <ele>2.15</ele>
        <time>2019-05-30T08:56:34.000Z</time>
      </trkpt>
      <trkpt lat="43.66504" lon="4.57068">
        <ele>2.07</ele>
        <time>2019-05-30T08:56:39.000Z</time>
      </trkpt>
      <trkpt lat="43.66502" lon="4.57027">
        <ele>0.9</ele>
        <time>2019-05-30T08:56:44.000Z</time>
      </trkpt>
      <trkpt lat="43.66498" lon="4.56987">
        <ele>0.84</ele>
        <time>2019-05-30T08:56:49.000Z</time>
      </trkpt>
      <trkpt lat="43.66493" lon="4.56947">
        <ele>0.84</ele>
        <time>2019-05-30T08:56:54.000Z</time>
      </trkpt>
      <trkpt lat="43.66488" lon="4.56903">
        <ele>3.57</ele>
        <time>2019-05-30T08:56:59.000Z</time>
      </trkpt>
      <trkpt lat="43.66482" lon="4.56857">
        <ele>3.84</ele>
        <time>2019-05-30T08:57:04.000Z</time>
      </trkpt>
      <trkpt lat="43.66476" lon="4.56812">
        <ele>3.84</ele>
        <time>2019-05-30T08:57:09.000Z</time>
      </trkpt>
      <trkpt lat="43.66471" lon="4.56769">
        <ele>3.84</ele>
        <time>2019-05-30T08:57:14.000Z</time>
      </trkpt>
      <trkpt lat="43.66466" lon="4.56724">
        <ele>3.6</ele>
        <time>2019-05-30T08:57:19.000Z</time>
      </trkpt>
      <trkpt lat="43.66462" lon="4.56681">
        <ele>2.84</ele>
        <time>2019-05-30T08:57:24.000Z</time>
      </trkpt>
      <trkpt lat="43.66461" lon="4.56639">
        <ele>2.83</ele>
        <time>2019-05-30T08:57:29.000Z</time>
      </trkpt>
      <trkpt lat="43.6646" lon="4.56598">
        <ele>3.09</ele>
        <time>2019-05-30T08:57:34.000Z</time>
      </trkpt>
      <trkpt lat="43.66458" lon="4.56555">
        <ele>2.84</ele>
        <time>2019-05-30T08:57:39.000Z</time>
      </trkpt>
      <trkpt lat="43.66458" lon="4.56513">
        <ele>1.85</ele>
        <time>2019-05-30T08:57:44.000Z</time>
      </trkpt>
      <trkpt lat="43.66455" lon="4.5647">
        <ele>2.82</ele>
        <time>2019-05-30T08:57:49.000Z</time>
      </trkpt>
      <trkpt lat="43.66454" lon="4.56429">
        <ele>2.84</ele>
        <time>2019-05-30T08:57:54.000Z</time>
      </trkpt>
      <trkpt lat="43.66453" lon="4.5639">
        <ele>2.03</ele>
        <time>2019-05-30T08:57:59.000Z</time>
      </trkpt>
      <trkpt lat="43.66451" lon="4.56352">
        <ele>2.59</ele>
        <time>2019-05-30T08:58:04.000Z</time>
      </trkpt>
      <trkpt lat="43.66449" lon="4.56314">
        <ele>2.84</ele>
        <time>2019-05-30T08:58:09.000Z</time>
      </trkpt>
      <trkpt lat="43.66447" lon="4.56272">
        <ele>2.65</ele>
        <time>2019-05-30T08:58:14.000Z</time>
      </trkpt>
      <trkpt lat="43.66444" lon="4.5623">
        <ele>2.84</ele>
        <time>2019-05-30T08:58:19.000Z</time>
      </trkpt>
      <trkpt lat="43.66439" lon="4.56187">
        <ele>2.04</ele>
        <time>2019-05-30T08:58:24.000Z</time>
      </trkpt>
      <trkpt lat="43.66431" lon="4.56144">
        <ele>0.09</ele>
        <time>2019-05-30T08:58:29.000Z</time>
      </trkpt>
      <trkpt lat="43.66425" lon="4.56102">
        <ele>2</ele>
        <time>2019-05-30T08:58:34.000Z</time>
      </trkpt>
      <trkpt lat="43.66418" lon="4.56061">
        <ele>2</ele>
        <time>2019-05-30T08:58:39.000Z</time>
      </trkpt>
      <trkpt lat="43.66411" lon="4.56021">
        <ele>2</ele>
        <time>2019-05-30T08:58:44.000Z</time>
      </trkpt>
      <trkpt lat="43.66403" lon="4.55981">
        <ele>2</ele>
        <time>2019-05-30T08:58:49.000Z</time>
      </trkpt>
      <trkpt lat="43.66396" lon="4.55944">
        <ele>2</ele>
        <time>2019-05-30T08:58:54.000Z</time>
      </trkpt>
      <trkpt lat="43.6639" lon="4.55906">
        <ele>0.07</ele>
        <time>2019-05-30T08:58:59.000Z</time>
      </trkpt>
      <trkpt lat="43.66383" lon="4.5587">
        <ele>0.83</ele>
        <time>2019-05-30T08:59:04.000Z</time>
      </trkpt>
      <trkpt lat="43.66375" lon="4.55834">
        <ele>1.84</ele>
        <time>2019-05-30T08:59:09.000Z</time>
      </trkpt>
      <trkpt lat="43.66369" lon="4.55797">
        <ele>0.9</ele>
        <time>2019-05-30T08:59:14.000Z</time>
      </trkpt>
      <trkpt lat="43.66362" lon="4.55761">
        <ele>1.82</ele>
        <time>2019-05-30T08:59:19.000Z</time>
      </trkpt>
      <trkpt lat="43.66355" lon="4.55726">
        <ele>1.84</ele>
        <time>2019-05-30T08:59:24.000Z</time>
      </trkpt>
      <trkpt lat="43.66347" lon="4.55693">
        <ele>0.9</ele>
        <time>2019-05-30T08:59:29.000Z</time>
      </trkpt>
      <trkpt lat="43.66339" lon="4.5566">
        <ele>1.83</ele>
        <time>2019-05-30T08:59:34.000Z</time>
      </trkpt>
      <trkpt lat="43.66332" lon="4.55626">
        <ele>2.07</ele>
        <time>2019-05-30T08:59:39.000Z</time>
      </trkpt>
      <trkpt lat="43.66324" lon="4.5559">
        <ele>1.84</ele>
        <time>2019-05-30T08:59:44.000Z</time>
      </trkpt>
      <trkpt lat="43.66316" lon="4.55555">
        <ele>2.07</ele>
        <time>2019-05-30T08:59:49.000Z</time>
      </trkpt>
      <trkpt lat="43.66309" lon="4.55518">
        <ele>2.83</ele>
        <time>2019-05-30T08:59:54.000Z</time>
      </trkpt>
      <trkpt lat="43.66302" lon="4.55479">
        <ele>2.84</ele>
        <time>2019-05-30T08:59:59.000Z</time>
      </trkpt>
      <trkpt lat="43.66295" lon="4.55441">
        <ele>1.85</ele>
        <time>2019-05-30T09:00:04.000Z</time>
      </trkpt>
      <trkpt lat="43.66287" lon="4.55404">
        <ele>2.02</ele>
        <time>2019-05-30T09:00:09.000Z</time>
      </trkpt>
      <trkpt lat="43.6628" lon="4.55365">
        <ele>2.82</ele>
        <time>2019-05-30T09:00:14.000Z</time>
      </trkpt>
      <trkpt lat="43.66273" lon="4.55327">
        <ele>1.9</ele>
        <time>2019-05-30T09:00:19.000Z</time>
      </trkpt>
      <trkpt lat="43.66268" lon="4.55287">
        <ele>0.84</ele>
        <time>2019-05-30T09:00:24.000Z</time>
      </trkpt>
      <trkpt lat="43.66261" lon="4.5525">
        <ele>0.83</ele>
        <time>2019-05-30T09:00:29.000Z</time>
      </trkpt>
      <trkpt lat="43.66255" lon="4.55212">
        <ele>1.63</ele>
        <time>2019-05-30T09:00:34.000Z</time>
      </trkpt>
      <trkpt lat="43.66248" lon="4.55172">
        <ele>1.65</ele>
        <time>2019-05-30T09:00:39.000Z</time>
      </trkpt>
      <trkpt lat="43.66241" lon="4.55133">
        <ele>1.83</ele>
        <time>2019-05-30T09:00:44.000Z</time>
      </trkpt>
      <trkpt lat="43.66234" lon="4.55092">
        <ele>0.9</ele>
        <time>2019-05-30T09:00:49.000Z</time>
      </trkpt>
      <trkpt lat="43.66226" lon="4.5505">
        <ele>1.77</ele>
        <time>2019-05-30T09:00:54.000Z</time>
      </trkpt>
      <trkpt lat="43.66218" lon="4.55008">
        <ele>2.02</ele>
        <time>2019-05-30T09:00:59.000Z</time>
      </trkpt>
      <trkpt lat="43.66211" lon="4.54967">
        <ele>1.85</ele>
        <time>2019-05-30T09:01:04.000Z</time>
      </trkpt>
      <trkpt lat="43.66205" lon="4.54924">
        <ele>1.59</ele>
        <time>2019-05-30T09:01:09.000Z</time>
      </trkpt>
      <trkpt lat="43.66202" lon="4.54882">
        <ele>0.84</ele>
        <time>2019-05-30T09:01:14.000Z</time>
      </trkpt>
      <trkpt lat="43.66198" lon="4.54843">
        <ele>1.83</ele>
        <time>2019-05-30T09:01:19.000Z</time>
      </trkpt>
      <trkpt lat="43.66193" lon="4.54803">
        <ele>1.79</ele>
        <time>2019-05-30T09:01:24.000Z</time>
      </trkpt>
      <trkpt lat="43.6619" lon="4.54765">
        <ele>1.83</ele>
        <time>2019-05-30T09:01:29.000Z</time>
      </trkpt>
      <trkpt lat="43.66189" lon="4.54726">
        <ele>1.83</ele>
        <time>2019-05-30T09:01:34.000Z</time>
      </trkpt>
      <trkpt lat="43.66192" lon="4.54689">
        <ele>2.58</ele>
        <time>2019-05-30T09:01:39.000Z</time>
      </trkpt>
      <trkpt lat="43.66195" lon="4.54653">
        <ele>1.85</ele>
        <time>2019-05-30T09:01:44.000Z</time>
      </trkpt>
      <trkpt lat="43.66198" lon="4.54616">
        <ele>2.63</ele>
        <time>2019-05-30T09:01:49.000Z</time>
      </trkpt>
      <trkpt lat="43.66205" lon="4.54582">
        <ele>2.83</ele>
        <time>2019-05-30T09:01:54.000Z</time>
      </trkpt>
      <trkpt lat="43.66199" lon="4.54556">
        <ele>3.77</ele>
        <time>2019-05-30T09:01:59.000Z</time>
      </trkpt>
      <trkpt lat="43.6618" lon="4.54538">
        <ele>3.82</ele>
        <time>2019-05-30T09:02:04.000Z</time>
      </trkpt>
      <trkpt lat="43.66159" lon="4.5452">
        <ele>2.09</ele>
        <time>2019-05-30T09:02:09.000Z</time>
      </trkpt>
      <trkpt lat="43.66138" lon="4.54497">
        <ele>1.6</ele>
        <time>2019-05-30T09:02:14.000Z</time>
      </trkpt>
      <trkpt lat="43.66115" lon="4.54473">
        <ele>1.83</ele>
        <time>2019-05-30T09:02:19.000Z</time>
      </trkpt>
      <trkpt lat="43.66092" lon="4.54449">
        <ele>1.82</ele>
        <time>2019-05-30T09:02:24.000Z</time>
      </trkpt>
      <trkpt lat="43.66067" lon="4.54422">
        <ele>0.84</ele>
        <time>2019-05-30T09:02:29.000Z</time>
      </trkpt>
      <trkpt lat="43.66055" lon="4.54383">
        <ele>0.79</ele>
        <time>2019-05-30T09:02:34.000Z</time>
      </trkpt>
      <trkpt lat="43.66056" lon="4.54344">
        <ele>1.58</ele>
        <time>2019-05-30T09:02:39.000Z</time>
      </trkpt>
      <trkpt lat="43.6606" lon="4.54307">
        <ele>1.83</ele>
        <time>2019-05-30T09:02:44.000Z</time>
      </trkpt>
      <trkpt lat="43.66061" lon="4.5427">
        <ele>1.83</ele>
        <time>2019-05-30T09:02:49.000Z</time>
      </trkpt>
      <trkpt lat="43.66061" lon="4.54235">
        <ele>1.83</ele>
        <time>2019-05-30T09:02:54.000Z</time>
      </trkpt>
      <trkpt lat="43.66051" lon="4.54202">
        <ele>1.84</ele>
        <time>2019-05-30T09:02:59.000Z</time>
      </trkpt>
      <trkpt lat="43.66041" lon="4.54169">
        <ele>2.83</ele>
        <time>2019-05-30T09:03:04.000Z</time>
      </trkpt>
      <trkpt lat="43.66029" lon="4.54133">
        <ele>2.83</ele>
        <time>2019-05-30T09:03:09.000Z</time>
      </trkpt>
      <trkpt lat="43.66016" lon="4.54096">
        <ele>2.83</ele>
        <time>2019-05-30T09:03:14.000Z</time>
      </trkpt>
      <trkpt lat="43.66004" lon="4.54061">
        <ele>2.83</ele>
        <time>2019-05-30T09:03:19.000Z</time>
      </trkpt>
      <trkpt lat="43.65994" lon="4.54025">
        <ele>3.58</ele>
        <time>2019-05-30T09:03:24.000Z</time>
      </trkpt>
      <trkpt lat="43.65982" lon="4.53988">
        <ele>2.83</ele>
        <time>2019-05-30T09:03:29.000Z</time>
      </trkpt>
      <trkpt lat="43.65968" lon="4.5395">
        <ele>2.83</ele>
        <time>2019-05-30T09:03:34.000Z</time>
      </trkpt>
      <trkpt lat="43.65955" lon="4.53911">
        <ele>2.08</ele>
        <time>2019-05-30T09:03:39.000Z</time>
      </trkpt>
      <trkpt lat="43.65942" lon="4.53875">
        <ele>1.83</ele>
        <time>2019-05-30T09:03:44.000Z</time>
      </trkpt>
      <trkpt lat="43.6593" lon="4.53838">
        <ele>1.83</ele>
        <time>2019-05-30T09:03:49.000Z</time>
      </trkpt>
      <trkpt lat="43.65919" lon="4.53801">
        <ele>1.83</ele>
        <time>2019-05-30T09:03:54.000Z</time>
      </trkpt>
      <trkpt lat="43.65908" lon="4.53771">
        <ele>0.6</ele>
        <time>2019-05-30T09:03:59.000Z</time>
      </trkpt>
      <trkpt lat="43.65897" lon="4.53738">
        <ele>0.83</ele>
        <time>2019-05-30T09:04:04.000Z</time>
      </trkpt>
      <trkpt lat="43.65887" lon="4.53707">
        <ele>1.58</ele>
        <time>2019-05-30T09:04:09.000Z</time>
      </trkpt>
      <trkpt lat="43.65876" lon="4.53673">
        <ele>1.83</ele>
        <time>2019-05-30T09:04:14.000Z</time>
      </trkpt>
      <trkpt lat="43.65865" lon="4.53637">
        <ele>0.89</ele>
        <time>2019-05-30T09:04:19.000Z</time>
      </trkpt>
      <trkpt lat="43.65855" lon="4.53601">
        <ele>1.58</ele>
        <time>2019-05-30T09:04:24.000Z</time>
      </trkpt>
      <trkpt lat="43.65843" lon="4.53564">
        <ele>0.64</ele>
        <time>2019-05-30T09:04:29.000Z</time>
      </trkpt>
      <trkpt lat="43.65834" lon="4.53528">
        <ele>0.83</ele>
        <time>2019-05-30T09:04:34.000Z</time>
      </trkpt>
      <trkpt lat="43.65823" lon="4.53492">
        <ele>1.81</ele>
        <time>2019-05-30T09:04:39.000Z</time>
      </trkpt>
      <trkpt lat="43.65813" lon="4.53455">
        <ele>1.83</ele>
        <time>2019-05-30T09:04:44.000Z</time>
      </trkpt>
      <trkpt lat="43.65802" lon="4.53419">
        <ele>1.83</ele>
        <time>2019-05-30T09:04:49.000Z</time>
      </trkpt>
      <trkpt lat="43.65792" lon="4.53382">
        <ele>1.83</ele>
        <time>2019-05-30T09:04:54.000Z</time>
      </trkpt>
      <trkpt lat="43.65781" lon="4.53344">
        <ele>2.57</ele>
        <time>2019-05-30T09:04:59.000Z</time>
      </trkpt>
      <trkpt lat="43.65769" lon="4.53305">
        <ele>1.83</ele>
        <time>2019-05-30T09:05:04.000Z</time>
      </trkpt>
      <trkpt lat="43.65757" lon="4.53265">
        <ele>1.83</ele>
        <time>2019-05-30T09:05:09.000Z</time>
      </trkpt>
      <trkpt lat="43.65747" lon="4.53226">
        <ele>1.08</ele>
        <time>2019-05-30T09:05:14.000Z</time>
      </trkpt>
      <trkpt lat="43.65735" lon="4.53188">
        <ele>1.83</ele>
        <time>2019-05-30T09:05:19.000Z</time>
      </trkpt>
      <trkpt lat="43.65722" lon="4.53148">
        <ele>1.82</ele>
        <time>2019-05-30T09:05:24.000Z</time>
      </trkpt>
      <trkpt lat="43.6571" lon="4.53111">
        <ele>1.82</ele>
        <time>2019-05-30T09:05:29.000Z</time>
      </trkpt>
      <trkpt lat="43.65702" lon="4.53078">
        <ele>1.88</ele>
        <time>2019-05-30T09:05:34.000Z</time>
      </trkpt>
      <trkpt lat="43.65691" lon="4.53039">
        <ele>1.83</ele>
        <time>2019-05-30T09:05:39.000Z</time>
      </trkpt>
      <trkpt lat="43.65679" lon="4.53002">
        <ele>1.89</ele>
        <time>2019-05-30T09:05:44.000Z</time>
      </trkpt>
      <trkpt lat="43.65668" lon="4.52964">
        <ele>1.83</ele>
        <time>2019-05-30T09:05:49.000Z</time>
      </trkpt>
      <trkpt lat="43.65655" lon="4.5293">
        <ele>1.09</ele>
        <time>2019-05-30T09:05:54.000Z</time>
      </trkpt>
      <trkpt lat="43.65645" lon="4.52892">
        <ele>1</ele>
        <time>2019-05-30T09:05:59.000Z</time>
      </trkpt>
      <trkpt lat="43.65633" lon="4.52854">
        <ele>0.83</ele>
        <time>2019-05-30T09:06:04.000Z</time>
      </trkpt>
      <trkpt lat="43.65624" lon="4.52818">
        <ele>1.02</ele>
        <time>2019-05-30T09:06:09.000Z</time>
      </trkpt>
      <trkpt lat="43.65615" lon="4.5278">
        <ele>0.83</ele>
        <time>2019-05-30T09:06:14.000Z</time>
      </trkpt>
      <trkpt lat="43.65604" lon="4.52742">
        <ele>1.77</ele>
        <time>2019-05-30T09:06:19.000Z</time>
      </trkpt>
      <trkpt lat="43.65596" lon="4.52703">
        <ele>1.83</ele>
        <time>2019-05-30T09:06:24.000Z</time>
      </trkpt>
      <trkpt lat="43.65592" lon="4.52664">
        <ele>1.13</ele>
        <time>2019-05-30T09:06:29.000Z</time>
      </trkpt>
      <trkpt lat="43.65586" lon="4.52627">
        <ele>1.83</ele>
        <time>2019-05-30T09:06:34.000Z</time>
      </trkpt>
      <trkpt lat="43.65593" lon="4.52596">
        <ele>2.82</ele>
        <time>2019-05-30T09:06:39.000Z</time>
      </trkpt>
      <trkpt lat="43.6559" lon="4.52561">
        <ele>2.83</ele>
        <time>2019-05-30T09:06:44.000Z</time>
      </trkpt>
      <trkpt lat="43.6558" lon="4.52524">
        <ele>2.83</ele>
        <time>2019-05-30T09:06:49.000Z</time>
      </trkpt>
      <trkpt lat="43.65568" lon="4.52487">
        <ele>2.83</ele>
        <time>2019-05-30T09:06:54.000Z</time>
      </trkpt>
      <trkpt lat="43.65556" lon="4.52449">
        <ele>3.02</ele>
        <time>2019-05-30T09:06:59.000Z</time>
      </trkpt>
      <trkpt lat="43.65545" lon="4.5241">
        <ele>2.08</ele>
        <time>2019-05-30T09:07:04.000Z</time>
      </trkpt>
      <trkpt lat="43.65533" lon="4.52371">
        <ele>1.83</ele>
        <time>2019-05-30T09:07:09.000Z</time>
      </trkpt>
      <trkpt lat="43.6552" lon="4.52333">
        <ele>1.59</ele>
        <time>2019-05-30T09:07:14.000Z</time>
      </trkpt>
      <trkpt lat="43.65508" lon="4.52294">
        <ele>1.83</ele>
        <time>2019-05-30T09:07:19.000Z</time>
      </trkpt>
      <trkpt lat="43.65497" lon="4.52258">
        <ele>2.83</ele>
        <time>2019-05-30T09:07:24.000Z</time>
      </trkpt>
      <trkpt lat="43.65486" lon="4.52223">
        <ele>2.08</ele>
        <time>2019-05-30T09:07:29.000Z</time>
      </trkpt>
      <trkpt lat="43.65474" lon="4.52187">
        <ele>1.64</ele>
        <time>2019-05-30T09:07:34.000Z</time>
      </trkpt>
      <trkpt lat="43.6547" lon="4.52169">
        <ele>1.82</ele>
        <time>2019-05-30T09:07:39.000Z</time>
      </trkpt>
      <trkpt lat="43.65465" lon="4.52157">
        <ele>0.83</ele>
        <time>2019-05-30T09:09:21.000Z</time>
      </trkpt>
      <trkpt lat="43.65456" lon="4.52133">
        <ele>0.83</ele>
        <time>2019-05-30T09:09:26.000Z</time>
      </trkpt>
      <trkpt lat="43.65446" lon="4.52103">
        <ele>0.83</ele>
        <time>2019-05-30T09:09:31.000Z</time>
      </trkpt>
      <trkpt lat="43.65435" lon="4.52071">
        <ele>0.83</ele>
        <time>2019-05-30T09:09:36.000Z</time>
      </trkpt>
      <trkpt lat="43.65424" lon="4.52036">
        <ele>1.06</ele>
        <time>2019-05-30T09:09:41.000Z</time>
      </trkpt>
      <trkpt lat="43.65412" lon="4.51999">
        <ele>1.01</ele>
        <time>2019-05-30T09:09:46.000Z</time>
      </trkpt>
      <trkpt lat="43.65401" lon="4.51961">
        <ele>0.83</ele>
        <time>2019-05-30T09:09:51.000Z</time>
      </trkpt>
      <trkpt lat="43.6539" lon="4.51922">
        <ele>1</ele>
        <time>2019-05-30T09:09:56.000Z</time>
      </trkpt>
      <trkpt lat="43.65377" lon="4.51883">
        <ele>0.76</ele>
        <time>2019-05-30T09:10:01.000Z</time>
      </trkpt>
      <trkpt lat="43.65364" lon="4.51842">
        <ele>0.84</ele>
        <time>2019-05-30T09:10:06.000Z</time>
      </trkpt>
      <trkpt lat="43.65351" lon="4.51803">
        <ele>0.83</ele>
        <time>2019-05-30T09:10:11.000Z</time>
      </trkpt>
      <trkpt lat="43.6534" lon="4.51764">
        <ele>0.83</ele>
        <time>2019-05-30T09:10:16.000Z</time>
      </trkpt>
      <trkpt lat="43.65327" lon="4.51728">
        <ele>0.83</ele>
        <time>2019-05-30T09:10:21.000Z</time>
      </trkpt>
      <trkpt lat="43.65315" lon="4.51688">
        <ele>0.78</ele>
        <time>2019-05-30T09:10:26.000Z</time>
      </trkpt>
      <trkpt lat="43.65303" lon="4.51654">
        <ele>0.01</ele>
        <time>2019-05-30T09:10:31.000Z</time>
      </trkpt>
      <trkpt lat="43.65293" lon="4.51619">
        <ele>1</ele>
        <time>2019-05-30T09:10:36.000Z</time>
      </trkpt>
      <trkpt lat="43.65282" lon="4.51584">
        <ele>0.58</ele>
        <time>2019-05-30T09:10:41.000Z</time>
      </trkpt>
      <trkpt lat="43.65269" lon="4.5155">
        <ele>1.81</ele>
        <time>2019-05-30T09:10:46.000Z</time>
      </trkpt>
      <trkpt lat="43.65259" lon="4.51516">
        <ele>2.82</ele>
        <time>2019-05-30T09:10:51.000Z</time>
      </trkpt>
      <trkpt lat="43.6525" lon="4.5148">
        <ele>2.83</ele>
        <time>2019-05-30T09:10:56.000Z</time>
      </trkpt>
      <trkpt lat="43.65237" lon="4.51444">
        <ele>2.08</ele>
        <time>2019-05-30T09:11:01.000Z</time>
      </trkpt>
      <trkpt lat="43.65224" lon="4.51406">
        <ele>1.78</ele>
        <time>2019-05-30T09:11:06.000Z</time>
      </trkpt>
      <trkpt lat="43.65214" lon="4.51368">
        <ele>4.54</ele>
        <time>2019-05-30T09:11:11.000Z</time>
      </trkpt>
      <trkpt lat="43.652" lon="4.51329">
        <ele>2.89</ele>
        <time>2019-05-30T09:11:16.000Z</time>
      </trkpt>
      <trkpt lat="43.65187" lon="4.51289">
        <ele>3.01</ele>
        <time>2019-05-30T09:11:21.000Z</time>
      </trkpt>
      <trkpt lat="43.65175" lon="4.5125">
        <ele>2.83</ele>
        <time>2019-05-30T09:11:26.000Z</time>
      </trkpt>
      <trkpt lat="43.65162" lon="4.51211">
        <ele>2.84</ele>
        <time>2019-05-30T09:11:31.000Z</time>
      </trkpt>
      <trkpt lat="43.6515" lon="4.51172">
        <ele>3.58</ele>
        <time>2019-05-30T09:11:36.000Z</time>
      </trkpt>
      <trkpt lat="43.65138" lon="4.51134">
        <ele>2.83</ele>
        <time>2019-05-30T09:11:41.000Z</time>
      </trkpt>
      <trkpt lat="43.65126" lon="4.51095">
        <ele>2.82</ele>
        <time>2019-05-30T09:11:46.000Z</time>
      </trkpt>
      <trkpt lat="43.65113" lon="4.51056">
        <ele>2.84</ele>
        <time>2019-05-30T09:11:51.000Z</time>
      </trkpt>
      <trkpt lat="43.65101" lon="4.51018">
        <ele>4.57</ele>
        <time>2019-05-30T09:11:56.000Z</time>
      </trkpt>
      <trkpt lat="43.65088" lon="4.50979">
        <ele>3.83</ele>
        <time>2019-05-30T09:12:01.000Z</time>
      </trkpt>
      <trkpt lat="43.65077" lon="4.50941">
        <ele>4.76</ele>
        <time>2019-05-30T09:12:06.000Z</time>
      </trkpt>
      <trkpt lat="43.65064" lon="4.50899">
        <ele>4.82</ele>
        <time>2019-05-30T09:12:11.000Z</time>
      </trkpt>
      <trkpt lat="43.6505" lon="4.50858">
        <ele>4.82</ele>
        <time>2019-05-30T09:12:16.000Z</time>
      </trkpt>
      <trkpt lat="43.65038" lon="4.50816">
        <ele>4.82</ele>
        <time>2019-05-30T09:12:21.000Z</time>
      </trkpt>
      <trkpt lat="43.65024" lon="4.50775">
        <ele>3.84</ele>
        <time>2019-05-30T09:12:26.000Z</time>
      </trkpt>
      <trkpt lat="43.65012" lon="4.50735">
        <ele>4.82</ele>
        <time>2019-05-30T09:12:31.000Z</time>
      </trkpt>
      <trkpt lat="43.64999" lon="4.50695">
        <ele>3.84</ele>
        <time>2019-05-30T09:12:36.000Z</time>
      </trkpt>
      <trkpt lat="43.64986" lon="4.50655">
        <ele>4.77</ele>
        <time>2019-05-30T09:12:41.000Z</time>
      </trkpt>
      <trkpt lat="43.64973" lon="4.50613">
        <ele>4.82</ele>
        <time>2019-05-30T09:12:46.000Z</time>
      </trkpt>
      <trkpt lat="43.64968" lon="4.50569">
        <ele>3.84</ele>
        <time>2019-05-30T09:12:51.000Z</time>
      </trkpt>
      <trkpt lat="43.64969" lon="4.50526">
        <ele>3.82</ele>
        <time>2019-05-30T09:12:56.000Z</time>
      </trkpt>
      <trkpt lat="43.6497" lon="4.50485">
        <ele>3.87</ele>
        <time>2019-05-30T09:13:01.000Z</time>
      </trkpt>
      <trkpt lat="43.64971" lon="4.50446">
        <ele>4.82</ele>
        <time>2019-05-30T09:13:06.000Z</time>
      </trkpt>
      <trkpt lat="43.64972" lon="4.50406">
        <ele>3.84</ele>
        <time>2019-05-30T09:13:11.000Z</time>
      </trkpt>
      <trkpt lat="43.64975" lon="4.50365">
        <ele>4.82</ele>
        <time>2019-05-30T09:13:16.000Z</time>
      </trkpt>
      <trkpt lat="43.64982" lon="4.50325">
        <ele>3.07</ele>
        <time>2019-05-30T09:13:21.000Z</time>
      </trkpt>
      <trkpt lat="43.64993" lon="4.50287">
        <ele>3.82</ele>
        <time>2019-05-30T09:13:26.000Z</time>
      </trkpt>
      <trkpt lat="43.65009" lon="4.5025">
        <ele>2.82</ele>
        <time>2019-05-30T09:13:31.000Z</time>
      </trkpt>
      <trkpt lat="43.65027" lon="4.50218">
        <ele>2.64</ele>
        <time>2019-05-30T09:13:36.000Z</time>
      </trkpt>
      <trkpt lat="43.65043" lon="4.50189">
        <ele>3.81</ele>
        <time>2019-05-30T09:13:41.000Z</time>
      </trkpt>
      <trkpt lat="43.65061" lon="4.50159">
        <ele>3.82</ele>
        <time>2019-05-30T09:13:46.000Z</time>
      </trkpt>
      <trkpt lat="43.65078" lon="4.50132">
        <ele>3.07</ele>
        <time>2019-05-30T09:13:51.000Z</time>
      </trkpt>
      <trkpt lat="43.65094" lon="4.50104">
        <ele>3.82</ele>
        <time>2019-05-30T09:13:56.000Z</time>
      </trkpt>
      <trkpt lat="43.6511" lon="4.50077">
        <ele>3.59</ele>
        <time>2019-05-30T09:14:01.000Z</time>
      </trkpt>
      <trkpt lat="43.65125" lon="4.50053">
        <ele>3.63</ele>
        <time>2019-05-30T09:14:06.000Z</time>
      </trkpt>
      <trkpt lat="43.6514" lon="4.50029">
        <ele>4.76</ele>
        <time>2019-05-30T09:14:11.000Z</time>
      </trkpt>
      <trkpt lat="43.65155" lon="4.50005">
        <ele>3.88</ele>
        <time>2019-05-30T09:14:16.000Z</time>
      </trkpt>
      <trkpt lat="43.6517" lon="4.49979">
        <ele>4.82</ele>
        <time>2019-05-30T09:14:21.000Z</time>
      </trkpt>
      <trkpt lat="43.65184" lon="4.49954">
        <ele>3.84</ele>
        <time>2019-05-30T09:14:26.000Z</time>
      </trkpt>
      <trkpt lat="43.65198" lon="4.4993">
        <ele>2.84</ele>
        <time>2019-05-30T09:14:31.000Z</time>
      </trkpt>
      <trkpt lat="43.65213" lon="4.49907">
        <ele>3.81</ele>
        <time>2019-05-30T09:14:36.000Z</time>
      </trkpt>
      <trkpt lat="43.65224" lon="4.49888">
        <ele>3.07</ele>
        <time>2019-05-30T09:14:41.000Z</time>
      </trkpt>
      <trkpt lat="43.6523" lon="4.49878">
        <ele>1.77</ele>
        <time>2019-05-30T09:15:10.000Z</time>
      </trkpt>
      <trkpt lat="43.65242" lon="4.49859">
        <ele>2.82</ele>
        <time>2019-05-30T09:15:15.000Z</time>
      </trkpt>
      <trkpt lat="43.65256" lon="4.49836">
        <ele>2.88</ele>
        <time>2019-05-30T09:15:20.000Z</time>
      </trkpt>
      <trkpt lat="43.65272" lon="4.49811">
        <ele>3.07</ele>
        <time>2019-05-30T09:15:25.000Z</time>
      </trkpt>
      <trkpt lat="43.65287" lon="4.49786">
        <ele>3.87</ele>
        <time>2019-05-30T09:15:30.000Z</time>
      </trkpt>
      <trkpt lat="43.65302" lon="4.49759">
        <ele>1.9</ele>
        <time>2019-05-30T09:15:35.000Z</time>
      </trkpt>
      <trkpt lat="43.65318" lon="4.49734">
        <ele>2.07</ele>
        <time>2019-05-30T09:15:40.000Z</time>
      </trkpt>
      <trkpt lat="43.65336" lon="4.49706">
        <ele>2.81</ele>
        <time>2019-05-30T09:15:45.000Z</time>
      </trkpt>
      <trkpt lat="43.65354" lon="4.49676">
        <ele>2.83</ele>
        <time>2019-05-30T09:15:50.000Z</time>
      </trkpt>
      <trkpt lat="43.6537" lon="4.49646">
        <ele>2.82</ele>
        <time>2019-05-30T09:15:55.000Z</time>
      </trkpt>
      <trkpt lat="43.65383" lon="4.49612">
        <ele>3.82</ele>
        <time>2019-05-30T09:16:00.000Z</time>
      </trkpt>
      <trkpt lat="43.65395" lon="4.49577">
        <ele>3.82</ele>
        <time>2019-05-30T09:16:05.000Z</time>
      </trkpt>
      <trkpt lat="43.65406" lon="4.49543">
        <ele>2.07</ele>
        <time>2019-05-30T09:16:10.000Z</time>
      </trkpt>
      <trkpt lat="43.65416" lon="4.49508">
        <ele>1.82</ele>
        <time>2019-05-30T09:16:15.000Z</time>
      </trkpt>
      <trkpt lat="43.65426" lon="4.49475">
        <ele>2.8</ele>
        <time>2019-05-30T09:16:20.000Z</time>
      </trkpt>
      <trkpt lat="43.65437" lon="4.49441">
        <ele>1.82</ele>
        <time>2019-05-30T09:16:25.000Z</time>
      </trkpt>
      <trkpt lat="43.65448" lon="4.49406">
        <ele>2.01</ele>
        <time>2019-05-30T09:16:30.000Z</time>
      </trkpt>
      <trkpt lat="43.65457" lon="4.49372">
        <ele>1.82</ele>
        <time>2019-05-30T09:16:35.000Z</time>
      </trkpt>
      <trkpt lat="43.65458" lon="4.49337">
        <ele>1.83</ele>
        <time>2019-05-30T09:16:40.000Z</time>
      </trkpt>
      <trkpt lat="43.65452" lon="4.49301">
        <ele>2.76</ele>
        <time>2019-05-30T09:16:45.000Z</time>
      </trkpt>
      <trkpt lat="43.65442" lon="4.49266">
        <ele>2.82</ele>
        <time>2019-05-30T09:16:50.000Z</time>
      </trkpt>
      <trkpt lat="43.65433" lon="4.49232">
        <ele>2.07</ele>
        <time>2019-05-30T09:16:55.000Z</time>
      </trkpt>
      <trkpt lat="43.65419" lon="4.49201">
        <ele>2.82</ele>
        <time>2019-05-30T09:17:00.000Z</time>
      </trkpt>
      <trkpt lat="43.65398" lon="4.49173">
        <ele>2.82</ele>
        <time>2019-05-30T09:17:05.000Z</time>
      </trkpt>
      <trkpt lat="43.65375" lon="4.49147">
        <ele>2.88</ele>
        <time>2019-05-30T09:17:10.000Z</time>
      </trkpt>
      <trkpt lat="43.65352" lon="4.49121">
        <ele>2.76</ele>
        <time>2019-05-30T09:17:15.000Z</time>
      </trkpt>
      <trkpt lat="43.65331" lon="4.49093">
        <ele>1.88</ele>
        <time>2019-05-30T09:17:20.000Z</time>
      </trkpt>
      <trkpt lat="43.6531" lon="4.49065">
        <ele>2.05</ele>
        <time>2019-05-30T09:17:25.000Z</time>
      </trkpt>
      <trkpt lat="43.65287" lon="4.49034">
        <ele>1.07</ele>
        <time>2019-05-30T09:17:30.000Z</time>
      </trkpt>
      <trkpt lat="43.65267" lon="4.49005">
        <ele>0.82</ele>
        <time>2019-05-30T09:17:35.000Z</time>
      </trkpt>
      <trkpt lat="43.65249" lon="4.48974">
        <ele>1.82</ele>
        <time>2019-05-30T09:17:40.000Z</time>
      </trkpt>
      <trkpt lat="43.65228" lon="4.48945">
        <ele>2.57</ele>
        <time>2019-05-30T09:17:45.000Z</time>
      </trkpt>
      <trkpt lat="43.65208" lon="4.48914">
        <ele>3.05</ele>
        <time>2019-05-30T09:17:50.000Z</time>
      </trkpt>
      <trkpt lat="43.6519" lon="4.48881">
        <ele>1.88</ele>
        <time>2019-05-30T09:17:55.000Z</time>
      </trkpt>
      <trkpt lat="43.65175" lon="4.48845">
        <ele>0.88</ele>
        <time>2019-05-30T09:18:00.000Z</time>
      </trkpt>
      <trkpt lat="43.65159" lon="4.4881">
        <ele>1.82</ele>
        <time>2019-05-30T09:18:05.000Z</time>
      </trkpt>
      <trkpt lat="43.65143" lon="4.48775">
        <ele>1.82</ele>
        <time>2019-05-30T09:18:10.000Z</time>
      </trkpt>
      <trkpt lat="43.65128" lon="4.48741">
        <ele>1.82</ele>
        <time>2019-05-30T09:18:15.000Z</time>
      </trkpt>
      <trkpt lat="43.65125" lon="4.48711">
        <ele>1.82</ele>
        <time>2019-05-30T09:18:20.000Z</time>
      </trkpt>
      <trkpt lat="43.65144" lon="4.48697">
        <ele>1.82</ele>
        <time>2019-05-30T09:18:25.000Z</time>
      </trkpt>
      <trkpt lat="43.65164" lon="4.48683">
        <ele>1.57</ele>
        <time>2019-05-30T09:18:30.000Z</time>
      </trkpt>
      <trkpt lat="43.65186" lon="4.4867">
        <ele>2.81</ele>
        <time>2019-05-30T09:18:35.000Z</time>
      </trkpt>
      <trkpt lat="43.65206" lon="4.48655">
        <ele>2.07</ele>
        <time>2019-05-30T09:18:40.000Z</time>
      </trkpt>
      <trkpt lat="43.65226" lon="4.4864">
        <ele>2.63</ele>
        <time>2019-05-30T09:18:45.000Z</time>
      </trkpt>
      <trkpt lat="43.65246" lon="4.48625">
        <ele>1.82</ele>
        <time>2019-05-30T09:18:50.000Z</time>
      </trkpt>
      <trkpt lat="43.65266" lon="4.48613">
        <ele>1.77</ele>
        <time>2019-05-30T09:18:55.000Z</time>
      </trkpt>
      <trkpt lat="43.65284" lon="4.48601">
        <ele>0.88</ele>
        <time>2019-05-30T09:19:00.000Z</time>
      </trkpt>
      <trkpt lat="43.65304" lon="4.48589">
        <ele>0.82</ele>
        <time>2019-05-30T09:19:05.000Z</time>
      </trkpt>
      <trkpt lat="43.65324" lon="4.48577">
        <ele>3.75</ele>
        <time>2019-05-30T09:19:10.000Z</time>
      </trkpt>
      <trkpt lat="43.65343" lon="4.48563">
        <ele>2.82</ele>
        <time>2019-05-30T09:19:15.000Z</time>
      </trkpt>
      <trkpt lat="43.65361" lon="4.48548">
        <ele>1.88</ele>
        <time>2019-05-30T09:19:20.000Z</time>
      </trkpt>
      <trkpt lat="43.65378" lon="4.48532">
        <ele>2.57</ele>
        <time>2019-05-30T09:19:25.000Z</time>
      </trkpt>
      <trkpt lat="43.65394" lon="4.48515">
        <ele>1.82</ele>
        <time>2019-05-30T09:19:30.000Z</time>
      </trkpt>
      <trkpt lat="43.65409" lon="4.48499">
        <ele>0.88</ele>
        <time>2019-05-30T09:19:35.000Z</time>
      </trkpt>
      <trkpt lat="43.65422" lon="4.48484">
        <ele>1.81</ele>
        <time>2019-05-30T09:19:40.000Z</time>
      </trkpt>
      <trkpt lat="43.65434" lon="4.48468">
        <ele>2.76</ele>
        <time>2019-05-30T09:19:45.000Z</time>
      </trkpt>
      <trkpt lat="43.65447" lon="4.4845">
        <ele>2.81</ele>
        <time>2019-05-30T09:19:50.000Z</time>
      </trkpt>
      <trkpt lat="43.65459" lon="4.48434">
        <ele>2.76</ele>
        <time>2019-05-30T09:19:55.000Z</time>
      </trkpt>
      <trkpt lat="43.65472" lon="4.48417">
        <ele>2.82</ele>
        <time>2019-05-30T09:20:00.000Z</time>
      </trkpt>
      <trkpt lat="43.65485" lon="4.48399">
        <ele>3.82</ele>
        <time>2019-05-30T09:20:05.000Z</time>
      </trkpt>
      <trkpt lat="43.655" lon="4.48381">
        <ele>3.83</ele>
        <time>2019-05-30T09:20:10.000Z</time>
      </trkpt>
      <trkpt lat="43.65515" lon="4.48362">
        <ele>1.09</ele>
        <time>2019-05-30T09:20:15.000Z</time>
      </trkpt>
      <trkpt lat="43.65529" lon="4.48342">
        <ele>0.13</ele>
        <time>2019-05-30T09:20:20.000Z</time>
      </trkpt>
      <trkpt lat="43.65542" lon="4.48325">
        <ele>1.55</ele>
        <time>2019-05-30T09:20:25.000Z</time>
      </trkpt>
      <trkpt lat="43.65553" lon="4.48309">
        <ele>1.05</ele>
        <time>2019-05-30T09:20:30.000Z</time>
      </trkpt>
      <trkpt lat="43.65563" lon="4.48295">
        <ele>2</ele>
        <time>2019-05-30T09:20:35.000Z</time>
      </trkpt>
      <trkpt lat="43.65574" lon="4.48282">
        <ele>2</ele>
        <time>2019-05-30T09:20:40.000Z</time>
      </trkpt>
      <trkpt lat="43.65587" lon="4.48268">
        <ele>2</ele>
        <time>2019-05-30T09:20:45.000Z</time>
      </trkpt>
      <trkpt lat="43.65599" lon="4.48253">
        <ele>1.8</ele>
        <time>2019-05-30T09:20:50.000Z</time>
      </trkpt>
      <trkpt lat="43.65611" lon="4.48239">
        <ele>1.77</ele>
        <time>2019-05-30T09:20:55.000Z</time>
      </trkpt>
      <trkpt lat="43.65625" lon="4.48225">
        <ele>2.81</ele>
        <time>2019-05-30T09:21:00.000Z</time>
      </trkpt>
      <trkpt lat="43.65639" lon="4.48213">
        <ele>2.64</ele>
        <time>2019-05-30T09:21:05.000Z</time>
      </trkpt>
      <trkpt lat="43.65655" lon="4.48203">
        <ele>3</ele>
        <time>2019-05-30T09:21:10.000Z</time>
      </trkpt>
      <trkpt lat="43.65673" lon="4.48196">
        <ele>2.82</ele>
        <time>2019-05-30T09:21:15.000Z</time>
      </trkpt>
      <trkpt lat="43.65691" lon="4.48189">
        <ele>2.82</ele>
        <time>2019-05-30T09:21:20.000Z</time>
      </trkpt>
      <trkpt lat="43.65709" lon="4.48179">
        <ele>3.75</ele>
        <time>2019-05-30T09:21:25.000Z</time>
      </trkpt>
      <trkpt lat="43.65727" lon="4.48169">
        <ele>3.57</ele>
        <time>2019-05-30T09:21:30.000Z</time>
      </trkpt>
      <trkpt lat="43.65746" lon="4.48157">
        <ele>4.5</ele>
        <time>2019-05-30T09:21:35.000Z</time>
      </trkpt>
      <trkpt lat="43.65764" lon="4.48145">
        <ele>2.08</ele>
        <time>2019-05-30T09:21:40.000Z</time>
      </trkpt>
      <trkpt lat="43.65781" lon="4.48131">
        <ele>0.08</ele>
        <time>2019-05-30T09:21:45.000Z</time>
      </trkpt>
      <trkpt lat="43.65797" lon="4.48117">
        <ele>2.55</ele>
        <time>2019-05-30T09:21:50.000Z</time>
      </trkpt>
      <trkpt lat="43.65814" lon="4.48101">
        <ele>2.38</ele>
        <time>2019-05-30T09:21:55.000Z</time>
      </trkpt>
      <trkpt lat="43.6583" lon="4.48085">
        <ele>0.82</ele>
        <time>2019-05-30T09:22:00.000Z</time>
      </trkpt>
      <trkpt lat="43.65845" lon="4.48068">
        <ele>0.82</ele>
        <time>2019-05-30T09:22:05.000Z</time>
      </trkpt>
      <trkpt lat="43.65862" lon="4.48047">
        <ele>2.5</ele>
        <time>2019-05-30T09:22:10.000Z</time>
      </trkpt>
      <trkpt lat="43.65879" lon="4.48023">
        <ele>3.81</ele>
        <time>2019-05-30T09:22:15.000Z</time>
      </trkpt>
      <trkpt lat="43.65897" lon="4.47996">
        <ele>4.8</ele>
        <time>2019-05-30T09:22:20.000Z</time>
      </trkpt>
      <trkpt lat="43.65913" lon="4.47966">
        <ele>4.82</ele>
        <time>2019-05-30T09:22:25.000Z</time>
      </trkpt>
      <trkpt lat="43.65928" lon="4.47937">
        <ele>4.07</ele>
        <time>2019-05-30T09:22:30.000Z</time>
      </trkpt>
      <trkpt lat="43.65942" lon="4.47905">
        <ele>4.8</ele>
        <time>2019-05-30T09:22:35.000Z</time>
      </trkpt>
      <trkpt lat="43.65954" lon="4.47873">
        <ele>4.82</ele>
        <time>2019-05-30T09:22:40.000Z</time>
      </trkpt>
      <trkpt lat="43.65968" lon="4.47839">
        <ele>5.81</ele>
        <time>2019-05-30T09:22:45.000Z</time>
      </trkpt>
      <trkpt lat="43.65982" lon="4.47807">
        <ele>4.89</ele>
        <time>2019-05-30T09:22:50.000Z</time>
      </trkpt>
      <trkpt lat="43.65995" lon="4.47774">
        <ele>5.57</ele>
        <time>2019-05-30T09:22:55.000Z</time>
      </trkpt>
      <trkpt lat="43.66007" lon="4.47743">
        <ele>5.77</ele>
        <time>2019-05-30T09:23:00.000Z</time>
      </trkpt>
      <trkpt lat="43.6602" lon="4.4771">
        <ele>5.02</ele>
        <time>2019-05-30T09:23:05.000Z</time>
      </trkpt>
      <trkpt lat="43.66033" lon="4.47678">
        <ele>4.82</ele>
        <time>2019-05-30T09:23:10.000Z</time>
      </trkpt>
      <trkpt lat="43.66049" lon="4.47649">
        <ele>7.3</ele>
        <time>2019-05-30T09:23:15.000Z</time>
      </trkpt>
      <trkpt lat="43.66066" lon="4.47621">
        <ele>5.83</ele>
        <time>2019-05-30T09:23:20.000Z</time>
      </trkpt>
      <trkpt lat="43.66083" lon="4.47597">
        <ele>5.81</ele>
        <time>2019-05-30T09:23:25.000Z</time>
      </trkpt>
      <trkpt lat="43.66101" lon="4.47572">
        <ele>5.81</ele>
        <time>2019-05-30T09:23:30.000Z</time>
      </trkpt>
      <trkpt lat="43.66118" lon="4.47545">
        <ele>3.88</ele>
        <time>2019-05-30T09:23:35.000Z</time>
      </trkpt>
      <trkpt lat="43.66136" lon="4.47516">
        <ele>3.57</ele>
        <time>2019-05-30T09:23:40.000Z</time>
      </trkpt>
      <trkpt lat="43.66153" lon="4.47491">
        <ele>3.81</ele>
        <time>2019-05-30T09:23:45.000Z</time>
      </trkpt>
      <trkpt lat="43.66169" lon="4.47466">
        <ele>4.81</ele>
        <time>2019-05-30T09:23:50.000Z</time>
      </trkpt>
      <trkpt lat="43.66184" lon="4.47444">
        <ele>4.83</ele>
        <time>2019-05-30T09:23:55.000Z</time>
      </trkpt>
      <trkpt lat="43.66199" lon="4.47423">
        <ele>3.88</ele>
        <time>2019-05-30T09:24:00.000Z</time>
      </trkpt>
      <trkpt lat="43.66214" lon="4.474">
        <ele>4.77</ele>
        <time>2019-05-30T09:24:05.000Z</time>
      </trkpt>
      <trkpt lat="43.66227" lon="4.47378">
        <ele>3.88</ele>
        <time>2019-05-30T09:24:10.000Z</time>
      </trkpt>
      <trkpt lat="43.66242" lon="4.47357">
        <ele>3.83</ele>
        <time>2019-05-30T09:24:15.000Z</time>
      </trkpt>
      <trkpt lat="43.66255" lon="4.47337">
        <ele>3.83</ele>
        <time>2019-05-30T09:24:20.000Z</time>
      </trkpt>
      <trkpt lat="43.66267" lon="4.47319">
        <ele>2.81</ele>
        <time>2019-05-30T09:24:25.000Z</time>
      </trkpt>
      <trkpt lat="43.66278" lon="4.47303">
        <ele>3.62</ele>
        <time>2019-05-30T09:24:30.000Z</time>
      </trkpt>
      <trkpt lat="43.66289" lon="4.47285">
        <ele>3.81</ele>
        <time>2019-05-30T09:24:35.000Z</time>
      </trkpt>
      <trkpt lat="43.66303" lon="4.47267">
        <ele>4.81</ele>
        <time>2019-05-30T09:24:40.000Z</time>
      </trkpt>
      <trkpt lat="43.66317" lon="4.47247">
        <ele>4.81</ele>
        <time>2019-05-30T09:24:45.000Z</time>
      </trkpt>
      <trkpt lat="43.66332" lon="4.47223">
        <ele>4.8</ele>
        <time>2019-05-30T09:24:50.000Z</time>
      </trkpt>
      <trkpt lat="43.66348" lon="4.472">
        <ele>5</ele>
        <time>2019-05-30T09:24:55.000Z</time>
      </trkpt>
      <trkpt lat="43.66365" lon="4.47174">
        <ele>5.56</ele>
        <time>2019-05-30T09:25:00.000Z</time>
      </trkpt>
      <trkpt lat="43.66381" lon="4.47149">
        <ele>6.81</ele>
        <time>2019-05-30T09:25:05.000Z</time>
      </trkpt>
      <trkpt lat="43.66398" lon="4.47123">
        <ele>6.58</ele>
        <time>2019-05-30T09:25:10.000Z</time>
      </trkpt>
      <trkpt lat="43.66413" lon="4.47094">
        <ele>6.81</ele>
        <time>2019-05-30T09:25:15.000Z</time>
      </trkpt>
      <trkpt lat="43.66426" lon="4.47064">
        <ele>5.69</ele>
        <time>2019-05-30T09:25:20.000Z</time>
      </trkpt>
      <trkpt lat="43.66438" lon="4.47033">
        <ele>6.56</ele>
        <time>2019-05-30T09:25:25.000Z</time>
      </trkpt>
      <trkpt lat="43.66449" lon="4.47002">
        <ele>5.87</ele>
        <time>2019-05-30T09:25:30.000Z</time>
      </trkpt>
      <trkpt lat="43.6646" lon="4.4697">
        <ele>4.89</ele>
        <time>2019-05-30T09:25:35.000Z</time>
      </trkpt>
      <trkpt lat="43.66471" lon="4.46934">
        <ele>5.81</ele>
        <time>2019-05-30T09:25:40.000Z</time>
      </trkpt>
      <trkpt lat="43.66482" lon="4.46897">
        <ele>4.81</ele>
        <time>2019-05-30T09:25:45.000Z</time>
      </trkpt>
      <trkpt lat="43.66492" lon="4.46861">
        <ele>4.06</ele>
        <time>2019-05-30T09:25:50.000Z</time>
      </trkpt>
      <trkpt lat="43.66502" lon="4.46824">
        <ele>4.56</ele>
        <time>2019-05-30T09:25:55.000Z</time>
      </trkpt>
      <trkpt lat="43.66514" lon="4.46791">
        <ele>5.75</ele>
        <time>2019-05-30T09:26:00.000Z</time>
      </trkpt>
      <trkpt lat="43.66525" lon="4.46759">
        <ele>4.81</ele>
        <time>2019-05-30T09:26:05.000Z</time>
      </trkpt>
      <trkpt lat="43.66533" lon="4.46728">
        <ele>3.63</ele>
        <time>2019-05-30T09:26:10.000Z</time>
      </trkpt>
      <trkpt lat="43.66542" lon="4.46699">
        <ele>2.83</ele>
        <time>2019-05-30T09:26:15.000Z</time>
      </trkpt>
      <trkpt lat="43.66551" lon="4.4667">
        <ele>3.62</ele>
        <time>2019-05-30T09:26:20.000Z</time>
      </trkpt>
      <trkpt lat="43.6656" lon="4.46653">
        <ele>4.81</ele>
        <time>2019-05-30T09:26:25.000Z</time>
      </trkpt>
      <trkpt lat="43.66564" lon="4.46642">
        <ele>6.81</ele>
        <time>2019-05-30T09:26:34.000Z</time>
      </trkpt>
      <trkpt lat="43.66568" lon="4.46621">
        <ele>6.87</ele>
        <time>2019-05-30T09:26:39.000Z</time>
      </trkpt>
      <trkpt lat="43.66574" lon="4.46595">
        <ele>6.11</ele>
        <time>2019-05-30T09:26:44.000Z</time>
      </trkpt>
      <trkpt lat="43.66583" lon="4.46564">
        <ele>6.81</ele>
        <time>2019-05-30T09:26:49.000Z</time>
      </trkpt>
      <trkpt lat="43.66591" lon="4.46534">
        <ele>6.81</ele>
        <time>2019-05-30T09:26:54.000Z</time>
      </trkpt>
      <trkpt lat="43.66599" lon="4.46509">
        <ele>5.06</ele>
        <time>2019-05-30T09:26:59.000Z</time>
      </trkpt>
      <trkpt lat="43.66609" lon="4.46483">
        <ele>4.81</ele>
        <time>2019-05-30T09:27:04.000Z</time>
      </trkpt>
      <trkpt lat="43.66617" lon="4.46455">
        <ele>4.81</ele>
        <time>2019-05-30T09:27:09.000Z</time>
      </trkpt>
      <trkpt lat="43.66627" lon="4.46426">
        <ele>3.81</ele>
        <time>2019-05-30T09:27:14.000Z</time>
      </trkpt>
      <trkpt lat="43.66637" lon="4.46393">
        <ele>3.81</ele>
        <time>2019-05-30T09:27:19.000Z</time>
      </trkpt>
      <trkpt lat="43.66649" lon="4.4636">
        <ele>3.76</ele>
        <time>2019-05-30T09:27:24.000Z</time>
      </trkpt>
      <trkpt lat="43.6666" lon="4.46327">
        <ele>3.81</ele>
        <time>2019-05-30T09:27:29.000Z</time>
      </trkpt>
      <trkpt lat="43.6667" lon="4.46295">
        <ele>2.83</ele>
        <time>2019-05-30T09:27:34.000Z</time>
      </trkpt>
      <trkpt lat="43.66678" lon="4.46266">
        <ele>3.75</ele>
        <time>2019-05-30T09:27:39.000Z</time>
      </trkpt>
      <trkpt lat="43.66689" lon="4.46235">
        <ele>5.79</ele>
        <time>2019-05-30T09:27:44.000Z</time>
      </trkpt>
      <trkpt lat="43.66699" lon="4.46204">
        <ele>5.81</ele>
        <time>2019-05-30T09:27:49.000Z</time>
      </trkpt>
      <trkpt lat="43.66709" lon="4.46171">
        <ele>6.61</ele>
        <time>2019-05-30T09:27:54.000Z</time>
      </trkpt>
      <trkpt lat="43.66721" lon="4.4614">
        <ele>6.75</ele>
        <time>2019-05-30T09:27:59.000Z</time>
      </trkpt>
      <trkpt lat="43.66731" lon="4.46109">
        <ele>4.83</ele>
        <time>2019-05-30T09:28:04.000Z</time>
      </trkpt>
      <trkpt lat="43.66738" lon="4.46074">
        <ele>2.81</ele>
        <time>2019-05-30T09:28:09.000Z</time>
      </trkpt>
      <trkpt lat="43.6674" lon="4.46041">
        <ele>4</ele>
        <time>2019-05-30T09:28:14.000Z</time>
      </trkpt>
      <trkpt lat="43.66737" lon="4.46009">
        <ele>5</ele>
        <time>2019-05-30T09:28:19.000Z</time>
      </trkpt>
      <trkpt lat="43.66728" lon="4.45979">
        <ele>6.54</ele>
        <time>2019-05-30T09:28:24.000Z</time>
      </trkpt>
      <trkpt lat="43.66717" lon="4.45949">
        <ele>7.81</ele>
        <time>2019-05-30T09:28:29.000Z</time>
      </trkpt>
      <trkpt lat="43.66708" lon="4.4592">
        <ele>7.76</ele>
        <time>2019-05-30T09:28:34.000Z</time>
      </trkpt>
      <trkpt lat="43.66697" lon="4.4589">
        <ele>7.31</ele>
        <time>2019-05-30T09:28:39.000Z</time>
      </trkpt>
      <trkpt lat="43.66686" lon="4.45859">
        <ele>7.81</ele>
        <time>2019-05-30T09:28:44.000Z</time>
      </trkpt>
      <trkpt lat="43.66677" lon="4.45829">
        <ele>7.56</ele>
        <time>2019-05-30T09:28:49.000Z</time>
      </trkpt>
      <trkpt lat="43.66665" lon="4.45798">
        <ele>9.75</ele>
        <time>2019-05-30T09:28:54.000Z</time>
      </trkpt>
      <trkpt lat="43.66655" lon="4.45765">
        <ele>10.75</ele>
        <time>2019-05-30T09:28:59.000Z</time>
      </trkpt>
      <trkpt lat="43.66643" lon="4.45734">
        <ele>10.81</ele>
        <time>2019-05-30T09:29:04.000Z</time>
      </trkpt>
      <trkpt lat="43.66629" lon="4.45703">
        <ele>9.51</ele>
        <time>2019-05-30T09:29:09.000Z</time>
      </trkpt>
      <trkpt lat="43.66607" lon="4.45679">
        <ele>8.87</ele>
        <time>2019-05-30T09:29:14.000Z</time>
      </trkpt>
      <trkpt lat="43.66579" lon="4.45666">
        <ele>7.87</ele>
        <time>2019-05-30T09:29:19.000Z</time>
      </trkpt>
      <trkpt lat="43.6655" lon="4.45659">
        <ele>5.88</ele>
        <time>2019-05-30T09:29:24.000Z</time>
      </trkpt>
      <trkpt lat="43.66525" lon="4.45635">
        <ele>4.06</ele>
        <time>2019-05-30T09:29:29.000Z</time>
      </trkpt>
      <trkpt lat="43.66514" lon="4.45597">
        <ele>5.56</ele>
        <time>2019-05-30T09:29:34.000Z</time>
      </trkpt>
      <trkpt lat="43.66513" lon="4.45555">
        <ele>5.8</ele>
        <time>2019-05-30T09:29:39.000Z</time>
      </trkpt>
      <trkpt lat="43.66509" lon="4.45517">
        <ele>5.76</ele>
        <time>2019-05-30T09:29:44.000Z</time>
      </trkpt>
      <trkpt lat="43.66499" lon="4.45484">
        <ele>5.81</ele>
        <time>2019-05-30T09:29:49.000Z</time>
      </trkpt>
      <trkpt lat="43.66492" lon="4.45458">
        <ele>6.79</ele>
        <time>2019-05-30T09:29:54.000Z</time>
      </trkpt>
      <trkpt lat="43.66484" lon="4.45442">
        <ele>7.75</ele>
        <time>2019-05-30T09:29:59.000Z</time>
      </trkpt>
      <trkpt lat="43.66472" lon="4.45444">
        <ele>9.48</ele>
        <time>2019-05-30T09:30:04.000Z</time>
      </trkpt>
      <trkpt lat="43.66469" lon="4.45432">
        <ele>10.8</ele>
        <time>2019-05-30T09:30:09.000Z</time>
      </trkpt>
      <trkpt lat="43.6648" lon="4.45421">
        <ele>11.81</ele>
        <time>2019-05-30T09:30:14.000Z</time>
      </trkpt>
      <trkpt lat="43.66491" lon="4.45409">
        <ele>10.87</ele>
        <time>2019-05-30T09:30:19.000Z</time>
      </trkpt>
      <trkpt lat="43.66502" lon="4.45395">
        <ele>9.84</ele>
        <time>2019-05-30T09:30:24.000Z</time>
      </trkpt>
      <trkpt lat="43.66513" lon="4.45381">
        <ele>8.86</ele>
        <time>2019-05-30T09:30:29.000Z</time>
      </trkpt>
      <trkpt lat="43.66526" lon="4.45364">
        <ele>11.6</ele>
        <time>2019-05-30T09:30:34.000Z</time>
      </trkpt>
      <trkpt lat="43.66538" lon="4.45347">
        <ele>12.81</ele>
        <time>2019-05-30T09:30:39.000Z</time>
      </trkpt>
      <trkpt lat="43.66552" lon="4.45332">
        <ele>12.06</ele>
        <time>2019-05-30T09:30:44.000Z</time>
      </trkpt>
      <trkpt lat="43.66565" lon="4.45317">
        <ele>12.86</ele>
        <time>2019-05-30T09:30:49.000Z</time>
      </trkpt>
      <trkpt lat="43.66578" lon="4.45301">
        <ele>13.56</ele>
        <time>2019-05-30T09:30:54.000Z</time>
      </trkpt>
      <trkpt lat="43.66592" lon="4.45283">
        <ele>12.56</ele>
        <time>2019-05-30T09:30:59.000Z</time>
      </trkpt>
      <trkpt lat="43.66607" lon="4.45265">
        <ele>11.82</ele>
        <time>2019-05-30T09:31:04.000Z</time>
      </trkpt>
      <trkpt lat="43.66622" lon="4.45247">
        <ele>10.74</ele>
        <time>2019-05-30T09:31:09.000Z</time>
      </trkpt>
      <trkpt lat="43.66639" lon="4.45225">
        <ele>10.92</ele>
        <time>2019-05-30T09:31:14.000Z</time>
      </trkpt>
      <trkpt lat="43.66658" lon="4.45201">
        <ele>10.81</ele>
        <time>2019-05-30T09:31:19.000Z</time>
      </trkpt>
      <trkpt lat="43.66674" lon="4.45175">
        <ele>10.29</ele>
        <time>2019-05-30T09:31:24.000Z</time>
      </trkpt>
      <trkpt lat="43.66691" lon="4.45146">
        <ele>7.82</ele>
        <time>2019-05-30T09:31:29.000Z</time>
      </trkpt>
      <trkpt lat="43.66707" lon="4.45117">
        <ele>7.56</ele>
        <time>2019-05-30T09:31:34.000Z</time>
      </trkpt>
      <trkpt lat="43.66724" lon="4.45081">
        <ele>6.81</ele>
        <time>2019-05-30T09:31:39.000Z</time>
      </trkpt>
      <trkpt lat="43.6674" lon="4.4504">
        <ele>6.76</ele>
        <time>2019-05-30T09:31:44.000Z</time>
      </trkpt>
      <trkpt lat="43.66752" lon="4.45003">
        <ele>4.12</ele>
        <time>2019-05-30T09:31:49.000Z</time>
      </trkpt>
      <trkpt lat="43.66765" lon="4.44968">
        <ele>2</ele>
        <time>2019-05-30T09:31:54.000Z</time>
      </trkpt>
      <trkpt lat="43.66775" lon="4.44942">
        <ele>0.76</ele>
        <time>2019-05-30T09:31:59.000Z</time>
      </trkpt>
      <trkpt lat="43.66781" lon="4.44922">
        <ele>2.74</ele>
        <time>2019-05-30T09:32:04.000Z</time>
      </trkpt>
      <trkpt lat="43.66789" lon="4.44902">
        <ele>2.79</ele>
        <time>2019-05-30T09:32:09.000Z</time>
      </trkpt>
      <trkpt lat="43.66798" lon="4.44877">
        <ele>2.81</ele>
        <time>2019-05-30T09:32:14.000Z</time>
      </trkpt>
      <trkpt lat="43.66808" lon="4.44851">
        <ele>4.54</ele>
        <time>2019-05-30T09:32:19.000Z</time>
      </trkpt>
      <trkpt lat="43.66818" lon="4.44822">
        <ele>4.81</ele>
        <time>2019-05-30T09:32:24.000Z</time>
      </trkpt>
      <trkpt lat="43.66828" lon="4.44794">
        <ele>4.81</ele>
        <time>2019-05-30T09:32:29.000Z</time>
      </trkpt>
      <trkpt lat="43.66839" lon="4.44763">
        <ele>5.56</ele>
        <time>2019-05-30T09:32:34.000Z</time>
      </trkpt>
      <trkpt lat="43.66852" lon="4.44732">
        <ele>5.81</ele>
        <time>2019-05-30T09:32:39.000Z</time>
      </trkpt>
      <trkpt lat="43.66865" lon="4.447">
        <ele>3.82</ele>
        <time>2019-05-30T09:32:44.000Z</time>
      </trkpt>
      <trkpt lat="43.66878" lon="4.44669">
        <ele>3.06</ele>
        <time>2019-05-30T09:32:49.000Z</time>
      </trkpt>
      <trkpt lat="43.66893" lon="4.44639">
        <ele>3.81</ele>
        <time>2019-05-30T09:32:54.000Z</time>
      </trkpt>
      <trkpt lat="43.66905" lon="4.44611">
        <ele>3.81</ele>
        <time>2019-05-30T09:32:59.000Z</time>
      </trkpt>
      <trkpt lat="43.66916" lon="4.44585">
        <ele>4.56</ele>
        <time>2019-05-30T09:33:04.000Z</time>
      </trkpt>
      <trkpt lat="43.66926" lon="4.44559">
        <ele>4.79</ele>
        <time>2019-05-30T09:33:09.000Z</time>
      </trkpt>
      <trkpt lat="43.66936" lon="4.44533">
        <ele>3.81</ele>
        <time>2019-05-30T09:33:14.000Z</time>
      </trkpt>
      <trkpt lat="43.66949" lon="4.44504">
        <ele>4.56</ele>
        <time>2019-05-30T09:33:19.000Z</time>
      </trkpt>
      <trkpt lat="43.6696" lon="4.44482">
        <ele>5.8</ele>
        <time>2019-05-30T09:33:24.000Z</time>
      </trkpt>
      <trkpt lat="43.6697" lon="4.44456">
        <ele>5.57</ele>
        <time>2019-05-30T09:33:29.000Z</time>
      </trkpt>
      <trkpt lat="43.6698" lon="4.44429">
        <ele>5.81</ele>
        <time>2019-05-30T09:33:34.000Z</time>
      </trkpt>
      <trkpt lat="43.6699" lon="4.44404">
        <ele>5.06</ele>
        <time>2019-05-30T09:33:39.000Z</time>
      </trkpt>
      <trkpt lat="43.66995" lon="4.44393">
        <ele>5.56</ele>
        <time>2019-05-30T09:33:44.000Z</time>
      </trkpt>
      <trkpt lat="43.66988" lon="4.44385">
        <ele>6.81</ele>
        <time>2019-05-30T09:34:17.000Z</time>
      </trkpt>
      <trkpt lat="43.66968" lon="4.44374">
        <ele>4.81</ele>
        <time>2019-05-30T09:34:22.000Z</time>
      </trkpt>
      <trkpt lat="43.66946" lon="4.44361">
        <ele>4.8</ele>
        <time>2019-05-30T09:34:27.000Z</time>
      </trkpt>
      <trkpt lat="43.66922" lon="4.44346">
        <ele>5.79</ele>
        <time>2019-05-30T09:34:32.000Z</time>
      </trkpt>
      <trkpt lat="43.66895" lon="4.44334">
        <ele>5.06</ele>
        <time>2019-05-30T09:34:37.000Z</time>
      </trkpt>
      <trkpt lat="43.66865" lon="4.44324">
        <ele>3.81</ele>
        <time>2019-05-30T09:34:42.000Z</time>
      </trkpt>
      <trkpt lat="43.66836" lon="4.44313">
        <ele>2.82</ele>
        <time>2019-05-30T09:34:47.000Z</time>
      </trkpt>
      <trkpt lat="43.66804" lon="4.44304">
        <ele>2.81</ele>
        <time>2019-05-30T09:34:52.000Z</time>
      </trkpt>
      <trkpt lat="43.66773" lon="4.44296">
        <ele>3.8</ele>
        <time>2019-05-30T09:34:57.000Z</time>
      </trkpt>
      <trkpt lat="43.66742" lon="4.44288">
        <ele>3.56</ele>
        <time>2019-05-30T09:35:02.000Z</time>
      </trkpt>
      <trkpt lat="43.66721" lon="4.44284">
        <ele>3.06</ele>
        <time>2019-05-30T09:35:07.000Z</time>
      </trkpt>
      <trkpt lat="43.66698" lon="4.44276">
        <ele>2.75</ele>
        <time>2019-05-30T09:35:12.000Z</time>
      </trkpt>
      <trkpt lat="43.6667" lon="4.44266">
        <ele>1.82</ele>
        <time>2019-05-30T09:35:17.000Z</time>
      </trkpt>
      <trkpt lat="43.66642" lon="4.44251">
        <ele>1.79</ele>
        <time>2019-05-30T09:35:22.000Z</time>
      </trkpt>
      <trkpt lat="43.66612" lon="4.44234">
        <ele>2.04</ele>
        <time>2019-05-30T09:35:27.000Z</time>
      </trkpt>
      <trkpt lat="43.66582" lon="4.44218">
        <ele>2.61</ele>
        <time>2019-05-30T09:35:32.000Z</time>
      </trkpt>
      <trkpt lat="43.66549" lon="4.44201">
        <ele>1.82</ele>
        <time>2019-05-30T09:35:37.000Z</time>
      </trkpt>
      <trkpt lat="43.66518" lon="4.44184">
        <ele>2.74</ele>
        <time>2019-05-30T09:35:42.000Z</time>
      </trkpt>
      <trkpt lat="43.66492" lon="4.44167">
        <ele>2.81</ele>
        <time>2019-05-30T09:35:47.000Z</time>
      </trkpt>
      <trkpt lat="43.66492" lon="4.44153">
        <ele>2</ele>
        <time>2019-05-30T09:36:17.000Z</time>
      </trkpt>
      <trkpt lat="43.6651" lon="4.44148">
        <ele>2.49</ele>
        <time>2019-05-30T09:36:22.000Z</time>
      </trkpt>
      <trkpt lat="43.6653" lon="4.44141">
        <ele>2.82</ele>
        <time>2019-05-30T09:36:27.000Z</time>
      </trkpt>
      <trkpt lat="43.66549" lon="4.44133">
        <ele>1.86</ele>
        <time>2019-05-30T09:36:32.000Z</time>
      </trkpt>
      <trkpt lat="43.66569" lon="4.44126">
        <ele>2.61</ele>
        <time>2019-05-30T09:36:37.000Z</time>
      </trkpt>
      <trkpt lat="43.66589" lon="4.44116">
        <ele>2.82</ele>
        <time>2019-05-30T09:36:42.000Z</time>
      </trkpt>
      <trkpt lat="43.6661" lon="4.44109">
        <ele>4.74</ele>
        <time>2019-05-30T09:36:47.000Z</time>
      </trkpt>
      <trkpt lat="43.66631" lon="4.441">
        <ele>2.87</ele>
        <time>2019-05-30T09:36:52.000Z</time>
      </trkpt>
      <trkpt lat="43.66654" lon="4.44094">
        <ele>2.06</ele>
        <time>2019-05-30T09:36:57.000Z</time>
      </trkpt>
      <trkpt lat="43.66679" lon="4.44091">
        <ele>1.81</ele>
        <time>2019-05-30T09:37:02.000Z</time>
      </trkpt>
      <trkpt lat="43.66705" lon="4.44092">
        <ele>2.79</ele>
        <time>2019-05-30T09:37:07.000Z</time>
      </trkpt>
      <trkpt lat="43.66732" lon="4.44093">
        <ele>2.05</ele>
        <time>2019-05-30T09:37:12.000Z</time>
      </trkpt>
      <trkpt lat="43.66758" lon="4.44094">
        <ele>2.8</ele>
        <time>2019-05-30T09:37:17.000Z</time>
      </trkpt>
      <trkpt lat="43.66783" lon="4.44096">
        <ele>2</ele>
        <time>2019-05-30T09:37:22.000Z</time>
      </trkpt>
      <trkpt lat="43.66807" lon="4.44099">
        <ele>1.57</ele>
        <time>2019-05-30T09:37:27.000Z</time>
      </trkpt>
      <trkpt lat="43.66829" lon="4.44102">
        <ele>1.86</ele>
        <time>2019-05-30T09:37:32.000Z</time>
      </trkpt>
      <trkpt lat="43.66853" lon="4.44106">
        <ele>1.62</ele>
        <time>2019-05-30T09:37:37.000Z</time>
      </trkpt>
      <trkpt lat="43.66873" lon="4.44107">
        <ele>1.8</ele>
        <time>2019-05-30T09:37:42.000Z</time>
      </trkpt>
      <trkpt lat="43.66892" lon="4.44105">
        <ele>1.8</ele>
        <time>2019-05-30T09:37:47.000Z</time>
      </trkpt>
      <trkpt lat="43.66911" lon="4.44095">
        <ele>1.05</ele>
        <time>2019-05-30T09:37:52.000Z</time>
      </trkpt>
      <trkpt lat="43.6693" lon="4.44075">
        <ele>1.79</ele>
        <time>2019-05-30T09:37:57.000Z</time>
      </trkpt>
      <trkpt lat="43.66948" lon="4.4405">
        <ele>2.74</ele>
        <time>2019-05-30T09:38:02.000Z</time>
      </trkpt>
      <trkpt lat="43.66964" lon="4.44025">
        <ele>2.8</ele>
        <time>2019-05-30T09:38:07.000Z</time>
      </trkpt>
      <trkpt lat="43.66979" lon="4.43996">
        <ele>2.99</ele>
        <time>2019-05-30T09:38:12.000Z</time>
      </trkpt>
      <trkpt lat="43.66995" lon="4.43967">
        <ele>3.8</ele>
        <time>2019-05-30T09:38:17.000Z</time>
      </trkpt>
      <trkpt lat="43.6701" lon="4.43937">
        <ele>3.56</ele>
        <time>2019-05-30T09:38:22.000Z</time>
      </trkpt>
      <trkpt lat="43.67028" lon="4.4391">
        <ele>3.8</ele>
        <time>2019-05-30T09:38:27.000Z</time>
      </trkpt>
      <trkpt lat="43.67048" lon="4.43888">
        <ele>3.6</ele>
        <time>2019-05-30T09:38:32.000Z</time>
      </trkpt>
      <trkpt lat="43.67067" lon="4.43873">
        <ele>3.8</ele>
        <time>2019-05-30T09:38:37.000Z</time>
      </trkpt>
      <trkpt lat="43.67088" lon="4.43856">
        <ele>4.79</ele>
        <time>2019-05-30T09:38:42.000Z</time>
      </trkpt>
      <trkpt lat="43.67106" lon="4.43846">
        <ele>4.99</ele>
        <time>2019-05-30T09:38:47.000Z</time>
      </trkpt>
      <trkpt lat="43.67122" lon="4.43846">
        <ele>3.82</ele>
        <time>2019-05-30T09:38:52.000Z</time>
      </trkpt>
      <trkpt lat="43.67131" lon="4.43839">
        <ele>5.99</ele>
        <time>2019-05-30T09:39:13.000Z</time>
      </trkpt>
      <trkpt lat="43.67136" lon="4.43812">
        <ele>6.05</ele>
        <time>2019-05-30T09:39:18.000Z</time>
      </trkpt>
      <trkpt lat="43.67139" lon="4.43776">
        <ele>4.87</ele>
        <time>2019-05-30T09:39:23.000Z</time>
      </trkpt>
      <trkpt lat="43.67146" lon="4.43743">
        <ele>4.55</ele>
        <time>2019-05-30T09:39:28.000Z</time>
      </trkpt>
      <trkpt lat="43.67168" lon="4.43721">
        <ele>4.79</ele>
        <time>2019-05-30T09:39:33.000Z</time>
      </trkpt>
      <trkpt lat="43.67189" lon="4.43706">
        <ele>5.05</ele>
        <time>2019-05-30T09:39:38.000Z</time>
      </trkpt>
      <trkpt lat="43.67204" lon="4.43677">
        <ele>6.74</ele>
        <time>2019-05-30T09:39:43.000Z</time>
      </trkpt>
      <trkpt lat="43.67218" lon="4.43651">
        <ele>8.8</ele>
        <time>2019-05-30T09:39:48.000Z</time>
      </trkpt>
      <trkpt lat="43.67232" lon="4.43625">
        <ele>8.8</ele>
        <time>2019-05-30T09:39:53.000Z</time>
      </trkpt>
      <trkpt lat="43.67247" lon="4.43596">
        <ele>7.99</ele>
        <time>2019-05-30T09:39:58.000Z</time>
      </trkpt>
      <trkpt lat="43.6726" lon="4.43564">
        <ele>6.87</ele>
        <time>2019-05-30T09:40:03.000Z</time>
      </trkpt>
      <trkpt lat="43.67275" lon="4.43535">
        <ele>7.57</ele>
        <time>2019-05-30T09:40:08.000Z</time>
      </trkpt>
      <trkpt lat="43.67287" lon="4.4351">
        <ele>8.79</ele>
        <time>2019-05-30T09:40:13.000Z</time>
      </trkpt>
      <trkpt lat="43.67296" lon="4.43493">
        <ele>10.74</ele>
        <time>2019-05-30T09:40:18.000Z</time>
      </trkpt>
      <trkpt lat="43.67306" lon="4.43474">
        <ele>10.61</ele>
        <time>2019-05-30T09:40:23.000Z</time>
      </trkpt>
      <trkpt lat="43.67318" lon="4.43449">
        <ele>8.87</ele>
        <time>2019-05-30T09:40:28.000Z</time>
      </trkpt>
      <trkpt lat="43.67333" lon="4.43415">
        <ele>6.88</ele>
        <time>2019-05-30T09:40:33.000Z</time>
      </trkpt>
      <trkpt lat="43.67349" lon="4.43381">
        <ele>6.8</ele>
        <time>2019-05-30T09:40:38.000Z</time>
      </trkpt>
      <trkpt lat="43.67365" lon="4.43356">
        <ele>5.82</ele>
        <time>2019-05-30T09:40:43.000Z</time>
      </trkpt>
      <trkpt lat="43.6737" lon="4.43343">
        <ele>4.62</ele>
        <time>2019-05-30T09:40:59.000Z</time>
      </trkpt>
      <trkpt lat="43.67378" lon="4.43329">
        <ele>6.55</ele>
        <time>2019-05-30T09:41:04.000Z</time>
      </trkpt>
      <trkpt lat="43.67386" lon="4.43313">
        <ele>5.8</ele>
        <time>2019-05-30T09:41:09.000Z</time>
      </trkpt>
      <trkpt lat="43.67395" lon="4.43294">
        <ele>7.74</ele>
        <time>2019-05-30T09:41:14.000Z</time>
      </trkpt>
      <trkpt lat="43.67404" lon="4.43284">
        <ele>9.55</ele>
        <time>2019-05-30T09:41:19.000Z</time>
      </trkpt>
      <trkpt lat="43.67408" lon="4.43272">
        <ele>9.05</ele>
        <time>2019-05-30T09:41:25.000Z</time>
      </trkpt>
      <trkpt lat="43.67414" lon="4.43261">
        <ele>10.72</ele>
        <time>2019-05-30T09:41:31.000Z</time>
      </trkpt>
      <trkpt lat="43.67423" lon="4.43255">
        <ele>10.86</ele>
        <time>2019-05-30T09:41:41.000Z</time>
      </trkpt>
      <trkpt lat="43.6743" lon="4.43242">
        <ele>10.79</ele>
        <time>2019-05-30T09:41:46.000Z</time>
      </trkpt>
      <trkpt lat="43.67438" lon="4.4325">
        <ele>16.86</ele>
        <time>2019-05-30T09:42:45.000Z</time>
      </trkpt>
      <trkpt lat="43.67452" lon="4.43261">
        <ele>14.87</ele>
        <time>2019-05-30T09:42:50.000Z</time>
      </trkpt>
      <trkpt lat="43.67466" lon="4.43274">
        <ele>12.07</ele>
        <time>2019-05-30T09:42:55.000Z</time>
      </trkpt>
      <trkpt lat="43.67482" lon="4.43286">
        <ele>10.81</ele>
        <time>2019-05-30T09:43:00.000Z</time>
      </trkpt>
      <trkpt lat="43.67497" lon="4.43296">
        <ele>8.83</ele>
        <time>2019-05-30T09:43:05.000Z</time>
      </trkpt>
      <trkpt lat="43.67509" lon="4.43311">
        <ele>7.82</ele>
        <time>2019-05-30T09:43:10.000Z</time>
      </trkpt>
      <trkpt lat="43.67524" lon="4.43326">
        <ele>9.78</ele>
        <time>2019-05-30T09:43:15.000Z</time>
      </trkpt>
      <trkpt lat="43.67536" lon="4.43339">
        <ele>13.02</ele>
        <time>2019-05-30T09:43:20.000Z</time>
      </trkpt>
      <trkpt lat="43.67544" lon="4.43346">
        <ele>13.55</ele>
        <time>2019-05-30T09:43:25.000Z</time>
      </trkpt>
      <trkpt lat="43.67548" lon="4.43364">
        <ele>13.05</ele>
        <time>2019-05-30T09:43:30.000Z</time>
      </trkpt>
      <trkpt lat="43.67541" lon="4.43374">
        <ele>10.57</ele>
        <time>2019-05-30T09:43:39.000Z</time>
      </trkpt>
      <trkpt lat="43.67551" lon="4.43392">
        <ele>9.11</ele>
        <time>2019-05-30T09:43:44.000Z</time>
      </trkpt>
      <trkpt lat="43.67554" lon="4.43406">
        <ele>4.18</ele>
        <time>2019-05-30T09:43:49.000Z</time>
      </trkpt>
      <trkpt lat="43.67545" lon="4.43409">
        <ele>4.54</ele>
        <time>2019-05-30T09:43:54.000Z</time>
      </trkpt>
      <trkpt lat="43.67535" lon="4.43397">
        <ele>5.35</ele>
        <time>2019-05-30T09:43:59.000Z</time>
      </trkpt>
      <trkpt lat="43.67519" lon="4.43385">
        <ele>6.11</ele>
        <time>2019-05-30T09:44:04.000Z</time>
      </trkpt>
      <trkpt lat="43.67505" lon="4.43372">
        <ele>7.05</ele>
        <time>2019-05-30T09:44:09.000Z</time>
      </trkpt>
      <trkpt lat="43.67493" lon="4.43358">
        <ele>5.81</ele>
        <time>2019-05-30T09:44:14.000Z</time>
      </trkpt>
      <trkpt lat="43.6748" lon="4.43347">
        <ele>5.57</ele>
        <time>2019-05-30T09:44:19.000Z</time>
      </trkpt>
      <trkpt lat="43.67469" lon="4.43345">
        <ele>3.6</ele>
        <time>2019-05-30T09:45:20.000Z</time>
      </trkpt>
      <trkpt lat="43.6746" lon="4.43337">
        <ele>4.11</ele>
        <time>2019-05-30T09:45:25.000Z</time>
      </trkpt>
      <trkpt lat="43.67448" lon="4.43324">
        <ele>6.54</ele>
        <time>2019-05-30T09:45:30.000Z</time>
      </trkpt>
      <trkpt lat="43.67438" lon="4.43313">
        <ele>6.05</ele>
        <time>2019-05-30T09:45:35.000Z</time>
      </trkpt>
      <trkpt lat="43.6743" lon="4.43305">
        <ele>7.69</ele>
        <time>2019-05-30T09:45:41.000Z</time>
      </trkpt>
      <trkpt lat="43.67421" lon="4.43307">
        <ele>11.79</ele>
        <time>2019-05-30T09:46:07.000Z</time>
      </trkpt>
      <trkpt lat="43.67413" lon="4.43299">
        <ele>14.8</ele>
        <time>2019-05-30T09:46:14.000Z</time>
      </trkpt>
      <trkpt lat="43.67404" lon="4.43293">
        <ele>15.56</ele>
        <time>2019-05-30T09:46:23.000Z</time>
      </trkpt>
      <trkpt lat="43.67395" lon="4.43294">
        <ele>13.85</ele>
        <time>2019-05-30T09:46:37.000Z</time>
      </trkpt>
      <trkpt lat="43.67393" lon="4.43306">
        <ele>12.8</ele>
        <time>2019-05-30T09:46:52.000Z</time>
      </trkpt>
      <trkpt lat="43.67401" lon="4.43311">
        <ele>13.04</ele>
        <time>2019-05-30T09:50:54.000Z</time>
      </trkpt>
      <trkpt lat="43.67411" lon="4.4332">
        <ele>16.42</ele>
        <time>2019-05-30T09:51:12.000Z</time>
      </trkpt>
      <trkpt lat="43.67416" lon="4.43331">
        <ele>16.48</ele>
        <time>2019-05-30T09:51:17.000Z</time>
      </trkpt>
      <trkpt lat="43.67421" lon="4.4332">
        <ele>17.75</ele>
        <time>2019-05-30T09:51:23.000Z</time>
      </trkpt>
      <trkpt lat="43.67437" lon="4.43339">
        <ele>9.97</ele>
        <time>2019-05-30T09:52:29.000Z</time>
      </trkpt>
      <trkpt lat="43.67445" lon="4.43345">
        <ele>1.4</ele>
        <time>2019-05-30T09:52:39.000Z</time>
      </trkpt>
      <trkpt lat="43.67455" lon="4.4335">
        <ele>3.74</ele>
        <time>2019-05-30T09:52:49.000Z</time>
      </trkpt>
      <trkpt lat="43.67463" lon="4.43356">
        <ele>1.25</ele>
        <time>2019-05-30T09:52:59.000Z</time>
      </trkpt>
      <trkpt lat="43.67471" lon="4.43362">
        <ele>1.8</ele>
        <time>2019-05-30T09:53:08.000Z</time>
      </trkpt>
      <trkpt lat="43.6748" lon="4.4337">
        <ele>11.55</ele>
        <time>2019-05-30T09:54:27.000Z</time>
      </trkpt>
      <trkpt lat="43.67488" lon="4.43376">
        <ele>10.77</ele>
        <time>2019-05-30T09:54:36.000Z</time>
      </trkpt>
      <trkpt lat="43.67495" lon="4.43383">
        <ele>7.87</ele>
        <time>2019-05-30T09:54:46.000Z</time>
      </trkpt>
      <trkpt lat="43.67503" lon="4.4339">
        <ele>5.62</ele>
        <time>2019-05-30T09:54:55.000Z</time>
      </trkpt>
      <trkpt lat="43.6751" lon="4.43398">
        <ele>5.05</ele>
        <time>2019-05-30T09:55:03.000Z</time>
      </trkpt>
      <trkpt lat="43.67518" lon="4.43405">
        <ele>6.86</ele>
        <time>2019-05-30T09:55:16.000Z</time>
      </trkpt>
      <trkpt lat="43.67526" lon="4.43411">
        <ele>9.49</ele>
        <time>2019-05-30T09:55:28.000Z</time>
      </trkpt>
      <trkpt lat="43.67533" lon="4.43424">
        <ele>9.13</ele>
        <time>2019-05-30T09:55:33.000Z</time>
      </trkpt>
      <trkpt lat="43.67543" lon="4.43424">
        <ele>7.8</ele>
        <time>2019-05-30T09:55:43.000Z</time>
      </trkpt>
      <trkpt lat="43.67551" lon="4.43431">
        <ele>8</ele>
        <time>2019-05-30T09:55:58.000Z</time>
      </trkpt>
      <trkpt lat="43.67557" lon="4.4344">
        <ele>7.33</ele>
        <time>2019-05-30T09:56:04.000Z</time>
      </trkpt>
      <trkpt lat="43.67566" lon="4.43448">
        <ele>4.04</ele>
        <time>2019-05-30T09:56:15.000Z</time>
      </trkpt>
      <trkpt lat="43.67574" lon="4.43455">
        <ele>0.79</ele>
        <time>2019-05-30T09:56:27.000Z</time>
      </trkpt>
      <trkpt lat="43.67581" lon="4.43464">
        <ele>1.87</ele>
        <time>2019-05-30T09:56:39.000Z</time>
      </trkpt>
      <trkpt lat="43.67591" lon="4.43469">
        <ele>1.89</ele>
        <time>2019-05-30T09:56:47.000Z</time>
      </trkpt>
      <trkpt lat="43.67599" lon="4.43477">
        <ele>0.13</ele>
        <time>2019-05-30T09:57:02.000Z</time>
      </trkpt>
      <trkpt lat="43.67607" lon="4.43485">
        <ele>0.88</ele>
        <time>2019-05-30T09:57:12.000Z</time>
      </trkpt>
      <trkpt lat="43.67614" lon="4.43493">
        <ele>8</ele>
        <time>2019-05-30T09:57:19.000Z</time>
      </trkpt>
      <trkpt lat="43.67622" lon="4.435">
        <ele>1.55</ele>
        <time>2019-05-30T09:57:27.000Z</time>
      </trkpt>
      <trkpt lat="43.6763" lon="4.43508">
        <ele>4.74</ele>
        <time>2019-05-30T09:57:37.000Z</time>
      </trkpt>
      <trkpt lat="43.67637" lon="4.43517">
        <ele>6.55</ele>
        <time>2019-05-30T09:57:50.000Z</time>
      </trkpt>
      <trkpt lat="43.67645" lon="4.43523">
        <ele>4.68</ele>
        <time>2019-05-30T09:58:04.000Z</time>
      </trkpt>
      <trkpt lat="43.67637" lon="4.43529">
        <ele>7.74</ele>
        <time>2019-05-30T09:58:31.000Z</time>
      </trkpt>
      <trkpt lat="43.67628" lon="4.43524">
        <ele>7.82</ele>
        <time>2019-05-30T09:58:42.000Z</time>
      </trkpt>
      <trkpt lat="43.67622" lon="4.43505">
        <ele>5.99</ele>
        <time>2019-05-30T09:58:47.000Z</time>
      </trkpt>
      <trkpt lat="43.67613" lon="4.43502">
        <ele>7.97</ele>
        <time>2019-05-30T09:58:53.000Z</time>
      </trkpt>
      <trkpt lat="43.67606" lon="4.43494">
        <ele>5.62</ele>
        <time>2019-05-30T09:58:59.000Z</time>
      </trkpt>
      <trkpt lat="43.67596" lon="4.4349">
        <ele>5.49</ele>
        <time>2019-05-30T09:59:07.000Z</time>
      </trkpt>
      <trkpt lat="43.67589" lon="4.43482">
        <ele>4.12</ele>
        <time>2019-05-30T09:59:13.000Z</time>
      </trkpt>
      <trkpt lat="43.6758" lon="4.43479">
        <ele>0.08</ele>
        <time>2019-05-30T09:59:21.000Z</time>
      </trkpt>
      <trkpt lat="43.67571" lon="4.43472">
        <ele>1.8</ele>
        <time>2019-05-30T09:59:27.000Z</time>
      </trkpt>
      <trkpt lat="43.67563" lon="4.43463">
        <ele>6</ele>
        <time>2019-05-30T09:59:35.000Z</time>
      </trkpt>
      <trkpt lat="43.67555" lon="4.43455">
        <ele>1.56</ele>
        <time>2019-05-30T09:59:45.000Z</time>
      </trkpt>
      <trkpt lat="43.67548" lon="4.43446">
        <ele>4.29</ele>
        <time>2019-05-30T09:59:52.000Z</time>
      </trkpt>
      <trkpt lat="43.67541" lon="4.43439">
        <ele>2.06</ele>
        <time>2019-05-30T09:59:59.000Z</time>
      </trkpt>
      <trkpt lat="43.67532" lon="4.4343">
        <ele>4.78</ele>
        <time>2019-05-30T10:00:07.000Z</time>
      </trkpt>
      <trkpt lat="43.67524" lon="4.43424">
        <ele>7.78</ele>
        <time>2019-05-30T10:00:16.000Z</time>
      </trkpt>
      <trkpt lat="43.67514" lon="4.43416">
        <ele>5.68</ele>
        <time>2019-05-30T10:00:30.000Z</time>
      </trkpt>
      <trkpt lat="43.67499" lon="4.43416">
        <ele>5.63</ele>
        <time>2019-05-30T10:00:35.000Z</time>
      </trkpt>
      <trkpt lat="43.67495" lon="4.43428">
        <ele>7.56</ele>
        <time>2019-05-30T10:00:44.000Z</time>
      </trkpt>
      <trkpt lat="43.67491" lon="4.4344">
        <ele>3.04</ele>
        <time>2019-05-30T10:00:53.000Z</time>
      </trkpt>
      <trkpt lat="43.67487" lon="4.43452">
        <ele>1.06</ele>
        <time>2019-05-30T10:01:00.000Z</time>
      </trkpt>
      <trkpt lat="43.67479" lon="4.43463">
        <ele>4.54</ele>
        <time>2019-05-30T10:01:06.000Z</time>
      </trkpt>
      <trkpt lat="43.67472" lon="4.43473">
        <ele>5</ele>
        <time>2019-05-30T10:01:15.000Z</time>
      </trkpt>
      <trkpt lat="43.67463" lon="4.43481">
        <ele>5</ele>
        <time>2019-05-30T10:01:20.000Z</time>
      </trkpt>
      <trkpt lat="43.67456" lon="4.43492">
        <ele>5</ele>
        <time>2019-05-30T10:01:26.000Z</time>
      </trkpt>
      <trkpt lat="43.6745" lon="4.43504">
        <ele>2.43</ele>
        <time>2019-05-30T10:01:31.000Z</time>
      </trkpt>
      <trkpt lat="43.6744" lon="4.43512">
        <ele>3.74</ele>
        <time>2019-05-30T10:01:36.000Z</time>
      </trkpt>
      <trkpt lat="43.67441" lon="4.43525">
        <ele>4.22</ele>
        <time>2019-05-30T10:01:47.000Z</time>
      </trkpt>
      <trkpt lat="43.67433" lon="4.43516">
        <ele>4.81</ele>
        <time>2019-05-30T10:02:00.000Z</time>
      </trkpt>
      <trkpt lat="43.67426" lon="4.43507">
        <ele>5</ele>
        <time>2019-05-30T10:02:06.000Z</time>
      </trkpt>
      <trkpt lat="43.6742" lon="4.43496">
        <ele>5</ele>
        <time>2019-05-30T10:02:13.000Z</time>
      </trkpt>
      <trkpt lat="43.67411" lon="4.4349">
        <ele>5</ele>
        <time>2019-05-30T10:02:43.000Z</time>
      </trkpt>
      <trkpt lat="43.67402" lon="4.43483">
        <ele>5</ele>
        <time>2019-05-30T10:02:48.000Z</time>
      </trkpt>
      <trkpt lat="43.67394" lon="4.43478">
        <ele>5</ele>
        <time>2019-05-30T10:02:54.000Z</time>
      </trkpt>
      <trkpt lat="43.67385" lon="4.43474">
        <ele>5</ele>
        <time>2019-05-30T10:03:02.000Z</time>
      </trkpt>
      <trkpt lat="43.67377" lon="4.43467">
        <ele>5</ele>
        <time>2019-05-30T10:03:09.000Z</time>
      </trkpt>
      <trkpt lat="43.6737" lon="4.43459">
        <ele>5</ele>
        <time>2019-05-30T10:03:15.000Z</time>
      </trkpt>
      <trkpt lat="43.67362" lon="4.43451">
        <ele>5</ele>
        <time>2019-05-30T10:03:24.000Z</time>
      </trkpt>
      <trkpt lat="43.67354" lon="4.43446">
        <ele>5</ele>
        <time>2019-05-30T10:03:31.000Z</time>
      </trkpt>
      <trkpt lat="43.67345" lon="4.43438">
        <ele>5</ele>
        <time>2019-05-30T10:03:39.000Z</time>
      </trkpt>
      <trkpt lat="43.67413" lon="4.43436">
        <ele>8.86</ele>
        <time>2019-05-30T12:09:57.000Z</time>
      </trkpt>
      <trkpt lat="43.67419" lon="4.43424">
        <ele>8.79</ele>
        <time>2019-05-30T12:10:02.000Z</time>
      </trkpt>
      <trkpt lat="43.67424" lon="4.43412">
        <ele>6.8</ele>
        <time>2019-05-30T12:10:08.000Z</time>
      </trkpt>
      <trkpt lat="43.6743" lon="4.434">
        <ele>7.68</ele>
        <time>2019-05-30T12:10:13.000Z</time>
      </trkpt>
      <trkpt lat="43.67436" lon="4.43387">
        <ele>7.1</ele>
        <time>2019-05-30T12:10:18.000Z</time>
      </trkpt>
      <trkpt lat="43.67442" lon="4.43375">
        <ele>7.55</ele>
        <time>2019-05-30T12:10:23.000Z</time>
      </trkpt>
      <trkpt lat="43.6745" lon="4.43364">
        <ele>7.33</ele>
        <time>2019-05-30T12:10:28.000Z</time>
      </trkpt>
      <trkpt lat="43.67447" lon="4.43348">
        <ele>9.24</ele>
        <time>2019-05-30T12:10:33.000Z</time>
      </trkpt>
      <trkpt lat="43.67434" lon="4.43337">
        <ele>12.72</ele>
        <time>2019-05-30T12:10:38.000Z</time>
      </trkpt>
      <trkpt lat="43.6742" lon="4.43325">
        <ele>12.81</ele>
        <time>2019-05-30T12:10:43.000Z</time>
      </trkpt>
      <trkpt lat="43.67413" lon="4.43307">
        <ele>11.13</ele>
        <time>2019-05-30T12:10:48.000Z</time>
      </trkpt>
      <trkpt lat="43.67403" lon="4.43293">
        <ele>8.88</ele>
        <time>2019-05-30T12:10:53.000Z</time>
      </trkpt>
      <trkpt lat="43.67393" lon="4.4329">
        <ele>9.04</ele>
        <time>2019-05-30T12:11:03.000Z</time>
      </trkpt>
      <trkpt lat="43.67383" lon="4.43298">
        <ele>7.07</ele>
        <time>2019-05-30T12:11:08.000Z</time>
      </trkpt>
      <trkpt lat="43.67375" lon="4.43317">
        <ele>7.55</ele>
        <time>2019-05-30T12:11:13.000Z</time>
      </trkpt>
      <trkpt lat="43.67365" lon="4.43337">
        <ele>5.81</ele>
        <time>2019-05-30T12:11:18.000Z</time>
      </trkpt>
      <trkpt lat="43.67353" lon="4.43359">
        <ele>3.87</ele>
        <time>2019-05-30T12:11:23.000Z</time>
      </trkpt>
      <trkpt lat="43.67341" lon="4.43382">
        <ele>4.6</ele>
        <time>2019-05-30T12:11:28.000Z</time>
      </trkpt>
      <trkpt lat="43.67331" lon="4.43403">
        <ele>3.81</ele>
        <time>2019-05-30T12:11:33.000Z</time>
      </trkpt>
      <trkpt lat="43.67322" lon="4.43422">
        <ele>4.56</ele>
        <time>2019-05-30T12:11:38.000Z</time>
      </trkpt>
      <trkpt lat="43.67315" lon="4.43439">
        <ele>4.8</ele>
        <time>2019-05-30T12:11:43.000Z</time>
      </trkpt>
      <trkpt lat="43.67305" lon="4.43457">
        <ele>4.99</ele>
        <time>2019-05-30T12:11:48.000Z</time>
      </trkpt>
      <trkpt lat="43.67296" lon="4.43477">
        <ele>4.8</ele>
        <time>2019-05-30T12:11:53.000Z</time>
      </trkpt>
      <trkpt lat="43.67282" lon="4.43505">
        <ele>5.04</ele>
        <time>2019-05-30T12:11:58.000Z</time>
      </trkpt>
      <trkpt lat="43.67266" lon="4.4354">
        <ele>2.13</ele>
        <time>2019-05-30T12:12:03.000Z</time>
      </trkpt>
      <trkpt lat="43.67248" lon="4.43578">
        <ele>5</ele>
        <time>2019-05-30T12:12:08.000Z</time>
      </trkpt>
      <trkpt lat="43.6723" lon="4.43612">
        <ele>4</ele>
        <time>2019-05-30T12:12:13.000Z</time>
      </trkpt>
      <trkpt lat="43.67213" lon="4.43644">
        <ele>4</ele>
        <time>2019-05-30T12:12:18.000Z</time>
      </trkpt>
      <trkpt lat="43.67196" lon="4.4368">
        <ele>3</ele>
        <time>2019-05-30T12:12:23.000Z</time>
      </trkpt>
      <trkpt lat="43.67175" lon="4.43713">
        <ele>3</ele>
        <time>2019-05-30T12:12:28.000Z</time>
      </trkpt>
      <trkpt lat="43.67149" lon="4.43729">
        <ele>3</ele>
        <time>2019-05-30T12:12:33.000Z</time>
      </trkpt>
      <trkpt lat="43.67136" lon="4.43757">
        <ele>3</ele>
        <time>2019-05-30T12:12:38.000Z</time>
      </trkpt>
      <trkpt lat="43.67131" lon="4.43793">
        <ele>3</ele>
        <time>2019-05-30T12:12:43.000Z</time>
      </trkpt>
      <trkpt lat="43.67121" lon="4.43823">
        <ele>3</ele>
        <time>2019-05-30T12:12:48.000Z</time>
      </trkpt>
      <trkpt lat="43.67099" lon="4.43841">
        <ele>3</ele>
        <time>2019-05-30T12:12:53.000Z</time>
      </trkpt>
      <trkpt lat="43.67077" lon="4.43857">
        <ele>0.99</ele>
        <time>2019-05-30T12:12:58.000Z</time>
      </trkpt>
      <trkpt lat="43.67055" lon="4.43878">
        <ele>0.8</ele>
        <time>2019-05-30T12:13:03.000Z</time>
      </trkpt>
      <trkpt lat="43.67034" lon="4.43897">
        <ele>0.87</ele>
        <time>2019-05-30T12:13:08.000Z</time>
      </trkpt>
      <trkpt lat="43.67014" lon="4.4392">
        <ele>3</ele>
        <time>2019-05-30T12:13:13.000Z</time>
      </trkpt>
      <trkpt lat="43.66998" lon="4.43952">
        <ele>3</ele>
        <time>2019-05-30T12:13:18.000Z</time>
      </trkpt>
      <trkpt lat="43.66981" lon="4.43983">
        <ele>4</ele>
        <time>2019-05-30T12:13:23.000Z</time>
      </trkpt>
      <trkpt lat="43.66965" lon="4.44015">
        <ele>3</ele>
        <time>2019-05-30T12:13:28.000Z</time>
      </trkpt>
      <trkpt lat="43.66946" lon="4.44045">
        <ele>3</ele>
        <time>2019-05-30T12:13:33.000Z</time>
      </trkpt>
      <trkpt lat="43.66925" lon="4.44072">
        <ele>2</ele>
        <time>2019-05-30T12:13:38.000Z</time>
      </trkpt>
      <trkpt lat="43.66899" lon="4.44091">
        <ele>2</ele>
        <time>2019-05-30T12:13:43.000Z</time>
      </trkpt>
      <trkpt lat="43.6687" lon="4.44098">
        <ele>2</ele>
        <time>2019-05-30T12:13:48.000Z</time>
      </trkpt>
      <trkpt lat="43.6684" lon="4.44096">
        <ele>2</ele>
        <time>2019-05-30T12:13:53.000Z</time>
      </trkpt>
      <trkpt lat="43.66808" lon="4.44092">
        <ele>2</ele>
        <time>2019-05-30T12:13:58.000Z</time>
      </trkpt>
      <trkpt lat="43.66778" lon="4.44089">
        <ele>2</ele>
        <time>2019-05-30T12:14:03.000Z</time>
      </trkpt>
      <trkpt lat="43.66749" lon="4.44086">
        <ele>0.05</ele>
        <time>2019-05-30T12:14:08.000Z</time>
      </trkpt>
      <trkpt lat="43.66719" lon="4.44083">
        <ele>0.8</ele>
        <time>2019-05-30T12:14:13.000Z</time>
      </trkpt>
      <trkpt lat="43.66689" lon="4.44082">
        <ele>0.8</ele>
        <time>2019-05-30T12:14:18.000Z</time>
      </trkpt>
      <trkpt lat="43.66661" lon="4.44083">
        <ele>1.8</ele>
        <time>2019-05-30T12:14:23.000Z</time>
      </trkpt>
      <trkpt lat="43.6663" lon="4.44091">
        <ele>1.74</ele>
        <time>2019-05-30T12:14:28.000Z</time>
      </trkpt>
      <trkpt lat="43.66602" lon="4.44102">
        <ele>0.86</ele>
        <time>2019-05-30T12:14:33.000Z</time>
      </trkpt>
      <trkpt lat="43.66574" lon="4.44114">
        <ele>0.56</ele>
        <time>2019-05-30T12:14:38.000Z</time>
      </trkpt>
      <trkpt lat="43.66545" lon="4.44127">
        <ele>0.61</ele>
        <time>2019-05-30T12:14:43.000Z</time>
      </trkpt>
      <trkpt lat="43.66516" lon="4.44139">
        <ele>1.6</ele>
        <time>2019-05-30T12:14:48.000Z</time>
      </trkpt>
      <trkpt lat="43.66486" lon="4.4415">
        <ele>1.81</ele>
        <time>2019-05-30T12:14:53.000Z</time>
      </trkpt>
      <trkpt lat="43.66455" lon="4.44164">
        <ele>2.56</ele>
        <time>2019-05-30T12:14:58.000Z</time>
      </trkpt>
      <trkpt lat="43.66424" lon="4.44177">
        <ele>1.62</ele>
        <time>2019-05-30T12:15:03.000Z</time>
      </trkpt>
      <trkpt lat="43.66394" lon="4.44189">
        <ele>1.85</ele>
        <time>2019-05-30T12:15:08.000Z</time>
      </trkpt>
      <trkpt lat="43.66363" lon="4.44201">
        <ele>1</ele>
        <time>2019-05-30T12:15:13.000Z</time>
      </trkpt>
      <trkpt lat="43.66332" lon="4.44209">
        <ele>1</ele>
        <time>2019-05-30T12:15:18.000Z</time>
      </trkpt>
      <trkpt lat="43.66301" lon="4.44213">
        <ele>1</ele>
        <time>2019-05-30T12:15:23.000Z</time>
      </trkpt>
      <trkpt lat="43.66272" lon="4.4421">
        <ele>1</ele>
        <time>2019-05-30T12:15:28.000Z</time>
      </trkpt>
      <trkpt lat="43.66242" lon="4.44203">
        <ele>1</ele>
        <time>2019-05-30T12:15:33.000Z</time>
      </trkpt>
      <trkpt lat="43.66212" lon="4.44194">
        <ele>1</ele>
        <time>2019-05-30T12:15:38.000Z</time>
      </trkpt>
      <trkpt lat="43.66182" lon="4.44183">
        <ele>1</ele>
        <time>2019-05-30T12:15:43.000Z</time>
      </trkpt>
      <trkpt lat="43.6615" lon="4.44171">
        <ele>1</ele>
        <time>2019-05-30T12:15:48.000Z</time>
      </trkpt>
      <trkpt lat="43.66115" lon="4.44159">
        <ele>0.04</ele>
        <time>2019-05-30T12:15:53.000Z</time>
      </trkpt>
      <trkpt lat="43.66079" lon="4.44148">
        <ele>1</ele>
        <time>2019-05-30T12:15:58.000Z</time>
      </trkpt>
      <trkpt lat="43.66043" lon="4.44137">
        <ele>2</ele>
        <time>2019-05-30T12:16:03.000Z</time>
      </trkpt>
      <trkpt lat="43.6601" lon="4.44123">
        <ele>2</ele>
        <time>2019-05-30T12:16:08.000Z</time>
      </trkpt>
      <trkpt lat="43.65976" lon="4.4411">
        <ele>2</ele>
        <time>2019-05-30T12:16:13.000Z</time>
      </trkpt>
      <trkpt lat="43.65941" lon="4.44096">
        <ele>3</ele>
        <time>2019-05-30T12:16:18.000Z</time>
      </trkpt>
      <trkpt lat="43.65904" lon="4.44083">
        <ele>3</ele>
        <time>2019-05-30T12:16:23.000Z</time>
      </trkpt>
      <trkpt lat="43.65869" lon="4.44072">
        <ele>0.56</ele>
        <time>2019-05-30T12:16:28.000Z</time>
      </trkpt>
      <trkpt lat="43.65833" lon="4.44064">
        <ele>0.79</ele>
        <time>2019-05-30T12:16:33.000Z</time>
      </trkpt>
      <trkpt lat="43.65796" lon="4.44059">
        <ele>0.74</ele>
        <time>2019-05-30T12:16:38.000Z</time>
      </trkpt>
      <trkpt lat="43.6576" lon="4.44055">
        <ele>2</ele>
        <time>2019-05-30T12:16:43.000Z</time>
      </trkpt>
      <trkpt lat="43.65723" lon="4.4405">
        <ele>2</ele>
        <time>2019-05-30T12:16:48.000Z</time>
      </trkpt>
      <trkpt lat="43.65689" lon="4.44041">
        <ele>2</ele>
        <time>2019-05-30T12:16:53.000Z</time>
      </trkpt>
      <trkpt lat="43.65655" lon="4.44027">
        <ele>2</ele>
        <time>2019-05-30T12:16:58.000Z</time>
      </trkpt>
      <trkpt lat="43.65623" lon="4.44012">
        <ele>2</ele>
        <time>2019-05-30T12:17:03.000Z</time>
      </trkpt>
      <trkpt lat="43.65588" lon="4.43995">
        <ele>2</ele>
        <time>2019-05-30T12:17:08.000Z</time>
      </trkpt>
      <trkpt lat="43.65554" lon="4.4398">
        <ele>2</ele>
        <time>2019-05-30T12:17:13.000Z</time>
      </trkpt>
      <trkpt lat="43.65519" lon="4.43965">
        <ele>2</ele>
        <time>2019-05-30T12:17:18.000Z</time>
      </trkpt>
      <trkpt lat="43.65485" lon="4.4395">
        <ele>1</ele>
        <time>2019-05-30T12:17:23.000Z</time>
      </trkpt>
      <trkpt lat="43.6545" lon="4.43936">
        <ele>1</ele>
        <time>2019-05-30T12:17:28.000Z</time>
      </trkpt>
      <trkpt lat="43.65415" lon="4.43921">
        <ele>1</ele>
        <time>2019-05-30T12:17:33.000Z</time>
      </trkpt>
      <trkpt lat="43.65381" lon="4.43904">
        <ele>1</ele>
        <time>2019-05-30T12:17:38.000Z</time>
      </trkpt>
      <trkpt lat="43.65347" lon="4.43889">
        <ele>1</ele>
        <time>2019-05-30T12:17:43.000Z</time>
      </trkpt>
      <trkpt lat="43.65313" lon="4.43873">
        <ele>1</ele>
        <time>2019-05-30T12:17:48.000Z</time>
      </trkpt>
      <trkpt lat="43.65279" lon="4.43856">
        <ele>1</ele>
        <time>2019-05-30T12:17:53.000Z</time>
      </trkpt>
      <trkpt lat="43.65245" lon="4.4384">
        <ele>1</ele>
        <time>2019-05-30T12:17:58.000Z</time>
      </trkpt>
      <trkpt lat="43.65209" lon="4.43825">
        <ele>1</ele>
        <time>2019-05-30T12:18:03.000Z</time>
      </trkpt>
      <trkpt lat="43.65173" lon="4.4381">
        <ele>2</ele>
        <time>2019-05-30T12:18:08.000Z</time>
      </trkpt>
      <trkpt lat="43.65137" lon="4.43796">
        <ele>2</ele>
        <time>2019-05-30T12:18:13.000Z</time>
      </trkpt>
      <trkpt lat="43.65103" lon="4.43782">
        <ele>1</ele>
        <time>2019-05-30T12:18:18.000Z</time>
      </trkpt>
      <trkpt lat="43.65068" lon="4.4376">
        <ele>1</ele>
        <time>2019-05-30T12:18:23.000Z</time>
      </trkpt>
      <trkpt lat="43.65035" lon="4.43736">
        <ele>1</ele>
        <time>2019-05-30T12:18:28.000Z</time>
      </trkpt>
      <trkpt lat="43.65003" lon="4.4371">
        <ele>1</ele>
        <time>2019-05-30T12:18:33.000Z</time>
      </trkpt>
      <trkpt lat="43.64971" lon="4.43685">
        <ele>2</ele>
        <time>2019-05-30T12:18:38.000Z</time>
      </trkpt>
      <trkpt lat="43.64937" lon="4.43661">
        <ele>2</ele>
        <time>2019-05-30T12:18:43.000Z</time>
      </trkpt>
      <trkpt lat="43.64905" lon="4.4364">
        <ele>3</ele>
        <time>2019-05-30T12:18:48.000Z</time>
      </trkpt>
      <trkpt lat="43.64871" lon="4.43622">
        <ele>3</ele>
        <time>2019-05-30T12:18:53.000Z</time>
      </trkpt>
      <trkpt lat="43.64838" lon="4.43601">
        <ele>3</ele>
        <time>2019-05-30T12:18:58.000Z</time>
      </trkpt>
      <trkpt lat="43.64804" lon="4.43583">
        <ele>4</ele>
        <time>2019-05-30T12:19:03.000Z</time>
      </trkpt>
      <trkpt lat="43.64772" lon="4.4356">
        <ele>4</ele>
        <time>2019-05-30T12:19:08.000Z</time>
      </trkpt>
      <trkpt lat="43.64743" lon="4.43531">
        <ele>5</ele>
        <time>2019-05-30T12:19:13.000Z</time>
      </trkpt>
      <trkpt lat="43.64725" lon="4.43496">
        <ele>4</ele>
        <time>2019-05-30T12:19:18.000Z</time>
      </trkpt>
      <trkpt lat="43.64711" lon="4.43458">
        <ele>0.79</ele>
        <time>2019-05-30T12:19:23.000Z</time>
      </trkpt>
      <trkpt lat="43.64696" lon="4.43419">
        <ele>5</ele>
        <time>2019-05-30T12:19:28.000Z</time>
      </trkpt>
      <trkpt lat="43.64683" lon="4.43379">
        <ele>0.8</ele>
        <time>2019-05-30T12:19:33.000Z</time>
      </trkpt>
      <trkpt lat="43.64668" lon="4.43336">
        <ele>0.81</ele>
        <time>2019-05-30T12:19:38.000Z</time>
      </trkpt>
      <trkpt lat="43.64653" lon="4.43293">
        <ele>0.81</ele>
        <time>2019-05-30T12:19:43.000Z</time>
      </trkpt>
      <trkpt lat="43.64638" lon="4.43251">
        <ele>0.57</ele>
        <time>2019-05-30T12:19:48.000Z</time>
      </trkpt>
      <trkpt lat="43.64623" lon="4.43209">
        <ele>0.81</ele>
        <time>2019-05-30T12:19:53.000Z</time>
      </trkpt>
      <trkpt lat="43.64609" lon="4.43168">
        <ele>4</ele>
        <time>2019-05-30T12:19:58.000Z</time>
      </trkpt>
      <trkpt lat="43.64593" lon="4.43125">
        <ele>4</ele>
        <time>2019-05-30T12:20:03.000Z</time>
      </trkpt>
      <trkpt lat="43.64571" lon="4.43089">
        <ele>5</ele>
        <time>2019-05-30T12:20:08.000Z</time>
      </trkpt>
      <trkpt lat="43.64543" lon="4.43066">
        <ele>4</ele>
        <time>2019-05-30T12:20:13.000Z</time>
      </trkpt>
      <trkpt lat="43.64516" lon="4.43053">
        <ele>4</ele>
        <time>2019-05-30T12:20:18.000Z</time>
      </trkpt>
      <trkpt lat="43.6449" lon="4.43052">
        <ele>0.74</ele>
        <time>2019-05-30T12:20:23.000Z</time>
      </trkpt>
      <trkpt lat="43.64468" lon="4.43057">
        <ele>2.79</ele>
        <time>2019-05-30T12:20:28.000Z</time>
      </trkpt>
      <trkpt lat="43.64446" lon="4.43069">
        <ele>5.54</ele>
        <time>2019-05-30T12:20:33.000Z</time>
      </trkpt>
      <trkpt lat="43.64425" lon="4.43082">
        <ele>6.6</ele>
        <time>2019-05-30T12:20:38.000Z</time>
      </trkpt>
      <trkpt lat="43.64404" lon="4.43097">
        <ele>7.56</ele>
        <time>2019-05-30T12:20:43.000Z</time>
      </trkpt>
      <trkpt lat="43.64383" lon="4.43111">
        <ele>8.8</ele>
        <time>2019-05-30T12:20:48.000Z</time>
      </trkpt>
      <trkpt lat="43.64362" lon="4.43124">
        <ele>7.81</ele>
        <time>2019-05-30T12:20:53.000Z</time>
      </trkpt>
      <trkpt lat="43.64337" lon="4.43141">
        <ele>7.87</ele>
        <time>2019-05-30T12:20:58.000Z</time>
      </trkpt>
      <trkpt lat="43.64307" lon="4.4316">
        <ele>6.87</ele>
        <time>2019-05-30T12:21:03.000Z</time>
      </trkpt>
      <trkpt lat="43.64275" lon="4.4318">
        <ele>5.87</ele>
        <time>2019-05-30T12:21:08.000Z</time>
      </trkpt>
      <trkpt lat="43.6424" lon="4.43204">
        <ele>3.87</ele>
        <time>2019-05-30T12:21:13.000Z</time>
      </trkpt>
      <trkpt lat="43.64201" lon="4.43231">
        <ele>3.01</ele>
        <time>2019-05-30T12:21:18.000Z</time>
      </trkpt>
      <trkpt lat="43.64161" lon="4.43254">
        <ele>2.06</ele>
        <time>2019-05-30T12:21:23.000Z</time>
      </trkpt>
      <trkpt lat="43.64119" lon="4.43263">
        <ele>0.87</ele>
        <time>2019-05-30T12:21:28.000Z</time>
      </trkpt>
      <trkpt lat="43.64078" lon="4.43251">
        <ele>0.85</ele>
        <time>2019-05-30T12:21:33.000Z</time>
      </trkpt>
      <trkpt lat="43.64037" lon="4.43234">
        <ele>1</ele>
        <time>2019-05-30T12:21:38.000Z</time>
      </trkpt>
      <trkpt lat="43.63998" lon="4.43218">
        <ele>1</ele>
        <time>2019-05-30T12:21:43.000Z</time>
      </trkpt>
      <trkpt lat="43.63959" lon="4.43202">
        <ele>1</ele>
        <time>2019-05-30T12:21:48.000Z</time>
      </trkpt>
      <trkpt lat="43.63921" lon="4.43186">
        <ele>1</ele>
        <time>2019-05-30T12:21:53.000Z</time>
      </trkpt>
      <trkpt lat="43.63883" lon="4.4317">
        <ele>2</ele>
        <time>2019-05-30T12:21:58.000Z</time>
      </trkpt>
      <trkpt lat="43.63844" lon="4.43155">
        <ele>3</ele>
        <time>2019-05-30T12:22:03.000Z</time>
      </trkpt>
      <trkpt lat="43.63806" lon="4.4314">
        <ele>2</ele>
        <time>2019-05-30T12:22:08.000Z</time>
      </trkpt>
      <trkpt lat="43.63768" lon="4.43124">
        <ele>2</ele>
        <time>2019-05-30T12:22:13.000Z</time>
      </trkpt>
      <trkpt lat="43.63728" lon="4.43108">
        <ele>2</ele>
        <time>2019-05-30T12:22:18.000Z</time>
      </trkpt>
      <trkpt lat="43.6369" lon="4.43093">
        <ele>2</ele>
        <time>2019-05-30T12:22:23.000Z</time>
      </trkpt>
      <trkpt lat="43.63653" lon="4.43078">
        <ele>3</ele>
        <time>2019-05-30T12:22:28.000Z</time>
      </trkpt>
      <trkpt lat="43.63616" lon="4.43056">
        <ele>2</ele>
        <time>2019-05-30T12:22:33.000Z</time>
      </trkpt>
      <trkpt lat="43.63582" lon="4.4303">
        <ele>2</ele>
        <time>2019-05-30T12:22:38.000Z</time>
      </trkpt>
      <trkpt lat="43.63548" lon="4.43004">
        <ele>2</ele>
        <time>2019-05-30T12:22:43.000Z</time>
      </trkpt>
      <trkpt lat="43.63515" lon="4.42979">
        <ele>2</ele>
        <time>2019-05-30T12:22:48.000Z</time>
      </trkpt>
      <trkpt lat="43.63484" lon="4.42953">
        <ele>2</ele>
        <time>2019-05-30T12:22:53.000Z</time>
      </trkpt>
      <trkpt lat="43.63455" lon="4.42929">
        <ele>2</ele>
        <time>2019-05-30T12:22:58.000Z</time>
      </trkpt>
      <trkpt lat="43.63428" lon="4.42905">
        <ele>2</ele>
        <time>2019-05-30T12:23:03.000Z</time>
      </trkpt>
      <trkpt lat="43.634" lon="4.42881">
        <ele>2</ele>
        <time>2019-05-30T12:23:08.000Z</time>
      </trkpt>
      <trkpt lat="43.63373" lon="4.42855">
        <ele>2</ele>
        <time>2019-05-30T12:23:13.000Z</time>
      </trkpt>
      <trkpt lat="43.63345" lon="4.42832">
        <ele>2</ele>
        <time>2019-05-30T12:23:18.000Z</time>
      </trkpt>
      <trkpt lat="43.63318" lon="4.42808">
        <ele>2</ele>
        <time>2019-05-30T12:23:23.000Z</time>
      </trkpt>
      <trkpt lat="43.6329" lon="4.42782">
        <ele>2</ele>
        <time>2019-05-30T12:23:28.000Z</time>
      </trkpt>
      <trkpt lat="43.63262" lon="4.42757">
        <ele>2</ele>
        <time>2019-05-30T12:23:33.000Z</time>
      </trkpt>
      <trkpt lat="43.63235" lon="4.42733">
        <ele>2</ele>
        <time>2019-05-30T12:23:38.000Z</time>
      </trkpt>
      <trkpt lat="43.63206" lon="4.42714">
        <ele>2</ele>
        <time>2019-05-30T12:23:43.000Z</time>
      </trkpt>
      <trkpt lat="43.63177" lon="4.42695">
        <ele>2</ele>
        <time>2019-05-30T12:23:48.000Z</time>
      </trkpt>
      <trkpt lat="43.63148" lon="4.42676">
        <ele>2</ele>
        <time>2019-05-30T12:23:53.000Z</time>
      </trkpt>
      <trkpt lat="43.63118" lon="4.42657">
        <ele>2</ele>
        <time>2019-05-30T12:23:58.000Z</time>
      </trkpt>
      <trkpt lat="43.63091" lon="4.42638">
        <ele>2</ele>
        <time>2019-05-30T12:24:03.000Z</time>
      </trkpt>
      <trkpt lat="43.63062" lon="4.42619">
        <ele>3</ele>
        <time>2019-05-30T12:24:08.000Z</time>
      </trkpt>
      <trkpt lat="43.63034" lon="4.42599">
        <ele>3</ele>
        <time>2019-05-30T12:24:13.000Z</time>
      </trkpt>
      <trkpt lat="43.63005" lon="4.42579">
        <ele>4</ele>
        <time>2019-05-30T12:24:18.000Z</time>
      </trkpt>
      <trkpt lat="43.62976" lon="4.42559">
        <ele>4</ele>
        <time>2019-05-30T12:24:23.000Z</time>
      </trkpt>
      <trkpt lat="43.62948" lon="4.42546">
        <ele>4</ele>
        <time>2019-05-30T12:24:28.000Z</time>
      </trkpt>
      <trkpt lat="43.62923" lon="4.42568">
        <ele>4</ele>
        <time>2019-05-30T12:24:33.000Z</time>
      </trkpt>
      <trkpt lat="43.62898" lon="4.42593">
        <ele>4</ele>
        <time>2019-05-30T12:24:38.000Z</time>
      </trkpt>
      <trkpt lat="43.62866" lon="4.42588">
        <ele>4</ele>
        <time>2019-05-30T12:24:43.000Z</time>
      </trkpt>
      <trkpt lat="43.62832" lon="4.42578">
        <ele>4</ele>
        <time>2019-05-30T12:24:48.000Z</time>
      </trkpt>
      <trkpt lat="43.62796" lon="4.4257">
        <ele>3</ele>
        <time>2019-05-30T12:24:53.000Z</time>
      </trkpt>
      <trkpt lat="43.62761" lon="4.42557">
        <ele>3</ele>
        <time>2019-05-30T12:24:58.000Z</time>
      </trkpt>
      <trkpt lat="43.62727" lon="4.42546">
        <ele>3</ele>
        <time>2019-05-30T12:25:03.000Z</time>
      </trkpt>
      <trkpt lat="43.62692" lon="4.4254">
        <ele>3</ele>
        <time>2019-05-30T12:25:08.000Z</time>
      </trkpt>
      <trkpt lat="43.62656" lon="4.42532">
        <ele>3</ele>
        <time>2019-05-30T12:25:13.000Z</time>
      </trkpt>
      <trkpt lat="43.62622" lon="4.42522">
        <ele>3</ele>
        <time>2019-05-30T12:25:18.000Z</time>
      </trkpt>
      <trkpt lat="43.62588" lon="4.42514">
        <ele>3</ele>
        <time>2019-05-30T12:25:23.000Z</time>
      </trkpt>
      <trkpt lat="43.62552" lon="4.42503">
        <ele>3</ele>
        <time>2019-05-30T12:25:28.000Z</time>
      </trkpt>
      <trkpt lat="43.62518" lon="4.42486">
        <ele>1</ele>
        <time>2019-05-30T12:25:33.000Z</time>
      </trkpt>
      <trkpt lat="43.62487" lon="4.42463">
        <ele>1</ele>
        <time>2019-05-30T12:25:38.000Z</time>
      </trkpt>
      <trkpt lat="43.62473" lon="4.42422">
        <ele>1</ele>
        <time>2019-05-30T12:25:43.000Z</time>
      </trkpt>
      <trkpt lat="43.6246" lon="4.42379">
        <ele>1</ele>
        <time>2019-05-30T12:25:48.000Z</time>
      </trkpt>
      <trkpt lat="43.62446" lon="4.42333">
        <ele>2</ele>
        <time>2019-05-30T12:25:53.000Z</time>
      </trkpt>
      <trkpt lat="43.62436" lon="4.42286">
        <ele>2</ele>
        <time>2019-05-30T12:25:58.000Z</time>
      </trkpt>
      <trkpt lat="43.62424" lon="4.42239">
        <ele>2</ele>
        <time>2019-05-30T12:26:03.000Z</time>
      </trkpt>
      <trkpt lat="43.62399" lon="4.42199">
        <ele>3</ele>
        <time>2019-05-30T12:26:08.000Z</time>
      </trkpt>
      <trkpt lat="43.62365" lon="4.42176">
        <ele>2</ele>
        <time>2019-05-30T12:26:13.000Z</time>
      </trkpt>
      <trkpt lat="43.6233" lon="4.42155">
        <ele>2</ele>
        <time>2019-05-30T12:26:18.000Z</time>
      </trkpt>
      <trkpt lat="43.62298" lon="4.42126">
        <ele>1</ele>
        <time>2019-05-30T12:26:23.000Z</time>
      </trkpt>
      <trkpt lat="43.62272" lon="4.42087">
        <ele>1</ele>
        <time>2019-05-30T12:26:28.000Z</time>
      </trkpt>
      <trkpt lat="43.62247" lon="4.42047">
        <ele>1</ele>
        <time>2019-05-30T12:26:33.000Z</time>
      </trkpt>
      <trkpt lat="43.62218" lon="4.42011">
        <ele>1</ele>
        <time>2019-05-30T12:26:38.000Z</time>
      </trkpt>
      <trkpt lat="43.62187" lon="4.41978">
        <ele>1</ele>
        <time>2019-05-30T12:26:43.000Z</time>
      </trkpt>
      <trkpt lat="43.62157" lon="4.41943">
        <ele>1</ele>
        <time>2019-05-30T12:26:48.000Z</time>
      </trkpt>
      <trkpt lat="43.62126" lon="4.4191">
        <ele>1</ele>
        <time>2019-05-30T12:26:53.000Z</time>
      </trkpt>
      <trkpt lat="43.62093" lon="4.4188">
        <ele>1</ele>
        <time>2019-05-30T12:26:58.000Z</time>
      </trkpt>
      <trkpt lat="43.62061" lon="4.4185">
        <ele>1</ele>
        <time>2019-05-30T12:27:03.000Z</time>
      </trkpt>
      <trkpt lat="43.62029" lon="4.4182">
        <ele>2</ele>
        <time>2019-05-30T12:27:08.000Z</time>
      </trkpt>
      <trkpt lat="43.61996" lon="4.41794">
        <ele>2</ele>
        <time>2019-05-30T12:27:13.000Z</time>
      </trkpt>
      <trkpt lat="43.6196" lon="4.41777">
        <ele>2</ele>
        <time>2019-05-30T12:27:18.000Z</time>
      </trkpt>
      <trkpt lat="43.61922" lon="4.41762">
        <ele>2</ele>
        <time>2019-05-30T12:27:23.000Z</time>
      </trkpt>
      <trkpt lat="43.61887" lon="4.41738">
        <ele>2</ele>
        <time>2019-05-30T12:27:28.000Z</time>
      </trkpt>
      <trkpt lat="43.61856" lon="4.41706">
        <ele>2</ele>
        <time>2019-05-30T12:27:33.000Z</time>
      </trkpt>
      <trkpt lat="43.61822" lon="4.41681">
        <ele>2</ele>
        <time>2019-05-30T12:27:38.000Z</time>
      </trkpt>
      <trkpt lat="43.61789" lon="4.41658">
        <ele>2</ele>
        <time>2019-05-30T12:27:43.000Z</time>
      </trkpt>
      <trkpt lat="43.61757" lon="4.41636">
        <ele>1.54</ele>
        <time>2019-05-30T12:27:48.000Z</time>
      </trkpt>
      <trkpt lat="43.61726" lon="4.41613">
        <ele>1.81</ele>
        <time>2019-05-30T12:27:53.000Z</time>
      </trkpt>
      <trkpt lat="43.61694" lon="4.41591">
        <ele>2.8</ele>
        <time>2019-05-30T12:27:58.000Z</time>
      </trkpt>
      <trkpt lat="43.61663" lon="4.41569">
        <ele>2.56</ele>
        <time>2019-05-30T12:28:03.000Z</time>
      </trkpt>
      <trkpt lat="43.61629" lon="4.41548">
        <ele>2.8</ele>
        <time>2019-05-30T12:28:08.000Z</time>
      </trkpt>
      <trkpt lat="43.61595" lon="4.41528">
        <ele>1.87</ele>
        <time>2019-05-30T12:28:13.000Z</time>
      </trkpt>
      <trkpt lat="43.61562" lon="4.41506">
        <ele>1.06</ele>
        <time>2019-05-30T12:28:18.000Z</time>
      </trkpt>
      <trkpt lat="43.61527" lon="4.41485">
        <ele>0.81</ele>
        <time>2019-05-30T12:28:23.000Z</time>
      </trkpt>
      <trkpt lat="43.61493" lon="4.41463">
        <ele>1.79</ele>
        <time>2019-05-30T12:28:28.000Z</time>
      </trkpt>
      <trkpt lat="43.61461" lon="4.41441">
        <ele>0.07</ele>
        <time>2019-05-30T12:28:33.000Z</time>
      </trkpt>
      <trkpt lat="43.61428" lon="4.41419">
        <ele>1.74</ele>
        <time>2019-05-30T12:28:38.000Z</time>
      </trkpt>
      <trkpt lat="43.61398" lon="4.41392">
        <ele>1.81</ele>
        <time>2019-05-30T12:28:43.000Z</time>
      </trkpt>
      <trkpt lat="43.61367" lon="4.41371">
        <ele>1.81</ele>
        <time>2019-05-30T12:28:48.000Z</time>
      </trkpt>
      <trkpt lat="43.61336" lon="4.4135">
        <ele>1.81</ele>
        <time>2019-05-30T12:28:53.000Z</time>
      </trkpt>
      <trkpt lat="43.61312" lon="4.41318">
        <ele>2.8</ele>
        <time>2019-05-30T12:28:58.000Z</time>
      </trkpt>
      <trkpt lat="43.61306" lon="4.41273">
        <ele>1.81</ele>
        <time>2019-05-30T12:29:03.000Z</time>
      </trkpt>
      <trkpt lat="43.61302" lon="4.41229">
        <ele>1.81</ele>
        <time>2019-05-30T12:29:08.000Z</time>
      </trkpt>
      <trkpt lat="43.61297" lon="4.41184">
        <ele>0.82</ele>
        <time>2019-05-30T12:29:13.000Z</time>
      </trkpt>
      <trkpt lat="43.61293" lon="4.41141">
        <ele>1</ele>
        <time>2019-05-30T12:29:18.000Z</time>
      </trkpt>
      <trkpt lat="43.61288" lon="4.41094">
        <ele>1</ele>
        <time>2019-05-30T12:29:23.000Z</time>
      </trkpt>
      <trkpt lat="43.61283" lon="4.41051">
        <ele>1</ele>
        <time>2019-05-30T12:29:28.000Z</time>
      </trkpt>
      <trkpt lat="43.61278" lon="4.41006">
        <ele>1</ele>
        <time>2019-05-30T12:29:33.000Z</time>
      </trkpt>
      <trkpt lat="43.61273" lon="4.40962">
        <ele>1</ele>
        <time>2019-05-30T12:29:38.000Z</time>
      </trkpt>
      <trkpt lat="43.61268" lon="4.40917">
        <ele>1</ele>
        <time>2019-05-30T12:29:43.000Z</time>
      </trkpt>
      <trkpt lat="43.61263" lon="4.40871">
        <ele>1</ele>
        <time>2019-05-30T12:29:48.000Z</time>
      </trkpt>
      <trkpt lat="43.61259" lon="4.40828">
        <ele>1</ele>
        <time>2019-05-30T12:29:53.000Z</time>
      </trkpt>
      <trkpt lat="43.61253" lon="4.40783">
        <ele>1</ele>
        <time>2019-05-30T12:29:58.000Z</time>
      </trkpt>
      <trkpt lat="43.61247" lon="4.4074">
        <ele>1</ele>
        <time>2019-05-30T12:30:03.000Z</time>
      </trkpt>
      <trkpt lat="43.61243" lon="4.40698">
        <ele>1</ele>
        <time>2019-05-30T12:30:08.000Z</time>
      </trkpt>
      <trkpt lat="43.61237" lon="4.40656">
        <ele>1</ele>
        <time>2019-05-30T12:30:13.000Z</time>
      </trkpt>
      <trkpt lat="43.61234" lon="4.40612">
        <ele>1</ele>
        <time>2019-05-30T12:30:18.000Z</time>
      </trkpt>
      <trkpt lat="43.61229" lon="4.4057">
        <ele>1</ele>
        <time>2019-05-30T12:30:23.000Z</time>
      </trkpt>
      <trkpt lat="43.61228" lon="4.40537">
        <ele>1</ele>
        <time>2019-05-30T12:30:28.000Z</time>
      </trkpt>
      <trkpt lat="43.61222" lon="4.40525">
        <ele>3</ele>
        <time>2019-05-30T12:33:56.000Z</time>
      </trkpt>
      <trkpt lat="43.6122" lon="4.40497">
        <ele>1.82</ele>
        <time>2019-05-30T12:34:01.000Z</time>
      </trkpt>
      <trkpt lat="43.61217" lon="4.40462">
        <ele>0.81</ele>
        <time>2019-05-30T12:34:06.000Z</time>
      </trkpt>
      <trkpt lat="43.61213" lon="4.40427">
        <ele>2</ele>
        <time>2019-05-30T12:34:11.000Z</time>
      </trkpt>
      <trkpt lat="43.61208" lon="4.4039">
        <ele>1</ele>
        <time>2019-05-30T12:34:16.000Z</time>
      </trkpt>
      <trkpt lat="43.61204" lon="4.4035">
        <ele>1</ele>
        <time>2019-05-30T12:34:21.000Z</time>
      </trkpt>
      <trkpt lat="43.612" lon="4.40309">
        <ele>1</ele>
        <time>2019-05-30T12:34:26.000Z</time>
      </trkpt>
      <trkpt lat="43.61195" lon="4.40268">
        <ele>1</ele>
        <time>2019-05-30T12:34:31.000Z</time>
      </trkpt>
      <trkpt lat="43.61191" lon="4.40227">
        <ele>1</ele>
        <time>2019-05-30T12:34:36.000Z</time>
      </trkpt>
      <trkpt lat="43.61186" lon="4.40185">
        <ele>1</ele>
        <time>2019-05-30T12:34:41.000Z</time>
      </trkpt>
      <trkpt lat="43.61181" lon="4.40142">
        <ele>1</ele>
        <time>2019-05-30T12:34:46.000Z</time>
      </trkpt>
      <trkpt lat="43.61174" lon="4.40099">
        <ele>1</ele>
        <time>2019-05-30T12:34:51.000Z</time>
      </trkpt>
      <trkpt lat="43.61169" lon="4.40055">
        <ele>1</ele>
        <time>2019-05-30T12:34:56.000Z</time>
      </trkpt>
      <trkpt lat="43.61165" lon="4.40012">
        <ele>1</ele>
        <time>2019-05-30T12:35:01.000Z</time>
      </trkpt>
      <trkpt lat="43.61161" lon="4.39967">
        <ele>1</ele>
        <time>2019-05-30T12:35:06.000Z</time>
      </trkpt>
      <trkpt lat="43.61156" lon="4.39923">
        <ele>1</ele>
        <time>2019-05-30T12:35:11.000Z</time>
      </trkpt>
      <trkpt lat="43.61151" lon="4.3988">
        <ele>1</ele>
        <time>2019-05-30T12:35:16.000Z</time>
      </trkpt>
      <trkpt lat="43.61146" lon="4.39837">
        <ele>1</ele>
        <time>2019-05-30T12:35:21.000Z</time>
      </trkpt>
      <trkpt lat="43.61141" lon="4.39796">
        <ele>1</ele>
        <time>2019-05-30T12:35:26.000Z</time>
      </trkpt>
      <trkpt lat="43.61136" lon="4.39752">
        <ele>1</ele>
        <time>2019-05-30T12:35:31.000Z</time>
      </trkpt>
      <trkpt lat="43.61131" lon="4.39709">
        <ele>1</ele>
        <time>2019-05-30T12:35:36.000Z</time>
      </trkpt>
      <trkpt lat="43.61126" lon="4.39665">
        <ele>1</ele>
        <time>2019-05-30T12:35:41.000Z</time>
      </trkpt>
      <trkpt lat="43.61121" lon="4.39622">
        <ele>1</ele>
        <time>2019-05-30T12:35:46.000Z</time>
      </trkpt>
      <trkpt lat="43.61114" lon="4.3958">
        <ele>1</ele>
        <time>2019-05-30T12:35:51.000Z</time>
      </trkpt>
      <trkpt lat="43.61105" lon="4.39537">
        <ele>1</ele>
        <time>2019-05-30T12:35:56.000Z</time>
      </trkpt>
      <trkpt lat="43.61092" lon="4.39493">
        <ele>1</ele>
        <time>2019-05-30T12:36:01.000Z</time>
      </trkpt>
      <trkpt lat="43.61078" lon="4.3945">
        <ele>1</ele>
        <time>2019-05-30T12:36:06.000Z</time>
      </trkpt>
      <trkpt lat="43.61063" lon="4.39405">
        <ele>1</ele>
        <time>2019-05-30T12:36:11.000Z</time>
      </trkpt>
      <trkpt lat="43.61047" lon="4.39358">
        <ele>1</ele>
        <time>2019-05-30T12:36:16.000Z</time>
      </trkpt>
      <trkpt lat="43.61033" lon="4.39313">
        <ele>1</ele>
        <time>2019-05-30T12:36:21.000Z</time>
      </trkpt>
      <trkpt lat="43.6102" lon="4.3927">
        <ele>2</ele>
        <time>2019-05-30T12:36:26.000Z</time>
      </trkpt>
      <trkpt lat="43.61008" lon="4.39226">
        <ele>2</ele>
        <time>2019-05-30T12:36:31.000Z</time>
      </trkpt>
      <trkpt lat="43.60995" lon="4.39182">
        <ele>1</ele>
        <time>2019-05-30T12:36:36.000Z</time>
      </trkpt>
      <trkpt lat="43.60983" lon="4.39136">
        <ele>1</ele>
        <time>2019-05-30T12:36:41.000Z</time>
      </trkpt>
      <trkpt lat="43.60972" lon="4.39091">
        <ele>1</ele>
        <time>2019-05-30T12:36:46.000Z</time>
      </trkpt>
      <trkpt lat="43.60957" lon="4.39049">
        <ele>1</ele>
        <time>2019-05-30T12:36:51.000Z</time>
      </trkpt>
      <trkpt lat="43.6094" lon="4.39014">
        <ele>1</ele>
        <time>2019-05-30T12:36:56.000Z</time>
      </trkpt>
      <trkpt lat="43.60916" lon="4.38982">
        <ele>1</ele>
        <time>2019-05-30T12:37:01.000Z</time>
      </trkpt>
      <trkpt lat="43.60896" lon="4.38945">
        <ele>1</ele>
        <time>2019-05-30T12:37:06.000Z</time>
      </trkpt>
      <trkpt lat="43.60872" lon="4.38914">
        <ele>1</ele>
        <time>2019-05-30T12:37:11.000Z</time>
      </trkpt>
      <trkpt lat="43.60846" lon="4.38888">
        <ele>1</ele>
        <time>2019-05-30T12:37:16.000Z</time>
      </trkpt>
      <trkpt lat="43.60827" lon="4.38848">
        <ele>1</ele>
        <time>2019-05-30T12:37:21.000Z</time>
      </trkpt>
      <trkpt lat="43.60808" lon="4.3881">
        <ele>1</ele>
        <time>2019-05-30T12:37:26.000Z</time>
      </trkpt>
      <trkpt lat="43.60789" lon="4.38773">
        <ele>1</ele>
        <time>2019-05-30T12:37:31.000Z</time>
      </trkpt>
      <trkpt lat="43.6077" lon="4.38738">
        <ele>1</ele>
        <time>2019-05-30T12:37:36.000Z</time>
      </trkpt>
      <trkpt lat="43.60751" lon="4.38703">
        <ele>1</ele>
        <time>2019-05-30T12:37:41.000Z</time>
      </trkpt>
      <trkpt lat="43.60732" lon="4.38666">
        <ele>1</ele>
        <time>2019-05-30T12:37:46.000Z</time>
      </trkpt>
      <trkpt lat="43.60713" lon="4.38629">
        <ele>1</ele>
        <time>2019-05-30T12:37:51.000Z</time>
      </trkpt>
      <trkpt lat="43.60692" lon="4.38592">
        <ele>1</ele>
        <time>2019-05-30T12:37:56.000Z</time>
      </trkpt>
      <trkpt lat="43.60673" lon="4.38555">
        <ele>1</ele>
        <time>2019-05-30T12:38:01.000Z</time>
      </trkpt>
      <trkpt lat="43.60654" lon="4.38518">
        <ele>1</ele>
        <time>2019-05-30T12:38:06.000Z</time>
      </trkpt>
      <trkpt lat="43.60638" lon="4.38478">
        <ele>1</ele>
        <time>2019-05-30T12:38:11.000Z</time>
      </trkpt>
      <trkpt lat="43.60624" lon="4.38435">
        <ele>1</ele>
        <time>2019-05-30T12:38:16.000Z</time>
      </trkpt>
      <trkpt lat="43.6061" lon="4.38393">
        <ele>1</ele>
        <time>2019-05-30T12:38:21.000Z</time>
      </trkpt>
      <trkpt lat="43.60596" lon="4.3835">
        <ele>1</ele>
        <time>2019-05-30T12:38:26.000Z</time>
      </trkpt>
      <trkpt lat="43.60582" lon="4.38308">
        <ele>1</ele>
        <time>2019-05-30T12:38:31.000Z</time>
      </trkpt>
      <trkpt lat="43.60568" lon="4.38264">
        <ele>1</ele>
        <time>2019-05-30T12:38:36.000Z</time>
      </trkpt>
      <trkpt lat="43.60559" lon="4.38219">
        <ele>1</ele>
        <time>2019-05-30T12:38:41.000Z</time>
      </trkpt>
      <trkpt lat="43.60557" lon="4.38172">
        <ele>1</ele>
        <time>2019-05-30T12:38:46.000Z</time>
      </trkpt>
      <trkpt lat="43.60558" lon="4.38124">
        <ele>1</ele>
        <time>2019-05-30T12:38:51.000Z</time>
      </trkpt>
      <trkpt lat="43.60559" lon="4.38076">
        <ele>2</ele>
        <time>2019-05-30T12:38:56.000Z</time>
      </trkpt>
      <trkpt lat="43.6056" lon="4.3803">
        <ele>2</ele>
        <time>2019-05-30T12:39:01.000Z</time>
      </trkpt>
      <trkpt lat="43.6056" lon="4.37983">
        <ele>1</ele>
        <time>2019-05-30T12:39:06.000Z</time>
      </trkpt>
      <trkpt lat="43.6056" lon="4.37935">
        <ele>1</ele>
        <time>2019-05-30T12:39:11.000Z</time>
      </trkpt>
      <trkpt lat="43.60561" lon="4.37889">
        <ele>1</ele>
        <time>2019-05-30T12:39:16.000Z</time>
      </trkpt>
      <trkpt lat="43.60563" lon="4.37843">
        <ele>2</ele>
        <time>2019-05-30T12:39:21.000Z</time>
      </trkpt>
      <trkpt lat="43.60566" lon="4.37799">
        <ele>2</ele>
        <time>2019-05-30T12:39:26.000Z</time>
      </trkpt>
      <trkpt lat="43.60569" lon="4.37754">
        <ele>2</ele>
        <time>2019-05-30T12:39:31.000Z</time>
      </trkpt>
      <trkpt lat="43.6057" lon="4.37709">
        <ele>2</ele>
        <time>2019-05-30T12:39:36.000Z</time>
      </trkpt>
      <trkpt lat="43.6057" lon="4.37662">
        <ele>1</ele>
        <time>2019-05-30T12:39:41.000Z</time>
      </trkpt>
      <trkpt lat="43.60567" lon="4.37617">
        <ele>2</ele>
        <time>2019-05-30T12:39:46.000Z</time>
      </trkpt>
      <trkpt lat="43.60561" lon="4.37571">
        <ele>2</ele>
        <time>2019-05-30T12:39:51.000Z</time>
      </trkpt>
      <trkpt lat="43.60554" lon="4.37523">
        <ele>2</ele>
        <time>2019-05-30T12:39:56.000Z</time>
      </trkpt>
      <trkpt lat="43.60546" lon="4.37475">
        <ele>1</ele>
        <time>2019-05-30T12:40:01.000Z</time>
      </trkpt>
      <trkpt lat="43.60541" lon="4.37429">
        <ele>1</ele>
        <time>2019-05-30T12:40:06.000Z</time>
      </trkpt>
      <trkpt lat="43.60533" lon="4.37383">
        <ele>1</ele>
        <time>2019-05-30T12:40:11.000Z</time>
      </trkpt>
      <trkpt lat="43.60528" lon="4.37336">
        <ele>1</ele>
        <time>2019-05-30T12:40:16.000Z</time>
      </trkpt>
      <trkpt lat="43.60521" lon="4.37292">
        <ele>1</ele>
        <time>2019-05-30T12:40:21.000Z</time>
      </trkpt>
      <trkpt lat="43.60515" lon="4.37247">
        <ele>1</ele>
        <time>2019-05-30T12:40:26.000Z</time>
      </trkpt>
      <trkpt lat="43.60508" lon="4.37203">
        <ele>1</ele>
        <time>2019-05-30T12:40:31.000Z</time>
      </trkpt>
      <trkpt lat="43.60502" lon="4.37159">
        <ele>1</ele>
        <time>2019-05-30T12:40:36.000Z</time>
      </trkpt>
      <trkpt lat="43.60496" lon="4.37115">
        <ele>1</ele>
        <time>2019-05-30T12:40:41.000Z</time>
      </trkpt>
      <trkpt lat="43.60491" lon="4.37072">
        <ele>1</ele>
        <time>2019-05-30T12:40:46.000Z</time>
      </trkpt>
      <trkpt lat="43.60487" lon="4.37027">
        <ele>1</ele>
        <time>2019-05-30T12:40:51.000Z</time>
      </trkpt>
      <trkpt lat="43.60485" lon="4.36984">
        <ele>1</ele>
        <time>2019-05-30T12:40:56.000Z</time>
      </trkpt>
      <trkpt lat="43.60483" lon="4.36941">
        <ele>1</ele>
        <time>2019-05-30T12:41:01.000Z</time>
      </trkpt>
      <trkpt lat="43.60485" lon="4.36897">
        <ele>1</ele>
        <time>2019-05-30T12:41:06.000Z</time>
      </trkpt>
      <trkpt lat="43.60487" lon="4.36855">
        <ele>2</ele>
        <time>2019-05-30T12:41:11.000Z</time>
      </trkpt>
      <trkpt lat="43.60489" lon="4.36813">
        <ele>2</ele>
        <time>2019-05-30T12:41:16.000Z</time>
      </trkpt>
      <trkpt lat="43.60492" lon="4.36771">
        <ele>2</ele>
        <time>2019-05-30T12:41:21.000Z</time>
      </trkpt>
      <trkpt lat="43.60495" lon="4.36729">
        <ele>2</ele>
        <time>2019-05-30T12:41:26.000Z</time>
      </trkpt>
      <trkpt lat="43.60495" lon="4.36687">
        <ele>2</ele>
        <time>2019-05-30T12:41:31.000Z</time>
      </trkpt>
      <trkpt lat="43.60496" lon="4.36646">
        <ele>1</ele>
        <time>2019-05-30T12:41:36.000Z</time>
      </trkpt>
      <trkpt lat="43.60495" lon="4.36605">
        <ele>1.8</ele>
        <time>2019-05-30T12:41:41.000Z</time>
      </trkpt>
      <trkpt lat="43.60495" lon="4.36563">
        <ele>1</ele>
        <time>2019-05-30T12:41:46.000Z</time>
      </trkpt>
      <trkpt lat="43.60494" lon="4.3652">
        <ele>1</ele>
        <time>2019-05-30T12:41:51.000Z</time>
      </trkpt>
      <trkpt lat="43.60494" lon="4.36478">
        <ele>1</ele>
        <time>2019-05-30T12:41:56.000Z</time>
      </trkpt>
      <trkpt lat="43.60493" lon="4.36435">
        <ele>2</ele>
        <time>2019-05-30T12:42:01.000Z</time>
      </trkpt>
      <trkpt lat="43.60493" lon="4.36391">
        <ele>2</ele>
        <time>2019-05-30T12:42:06.000Z</time>
      </trkpt>
      <trkpt lat="43.60493" lon="4.36348">
        <ele>1</ele>
        <time>2019-05-30T12:42:11.000Z</time>
      </trkpt>
      <trkpt lat="43.60493" lon="4.36306">
        <ele>1</ele>
        <time>2019-05-30T12:42:16.000Z</time>
      </trkpt>
      <trkpt lat="43.60493" lon="4.36265">
        <ele>1</ele>
        <time>2019-05-30T12:42:21.000Z</time>
      </trkpt>
      <trkpt lat="43.60492" lon="4.36225">
        <ele>1</ele>
        <time>2019-05-30T12:42:26.000Z</time>
      </trkpt>
      <trkpt lat="43.60492" lon="4.36187">
        <ele>1</ele>
        <time>2019-05-30T12:42:31.000Z</time>
      </trkpt>
      <trkpt lat="43.60491" lon="4.3615">
        <ele>1</ele>
        <time>2019-05-30T12:42:36.000Z</time>
      </trkpt>
      <trkpt lat="43.60485" lon="4.36113">
        <ele>1</ele>
        <time>2019-05-30T12:42:41.000Z</time>
      </trkpt>
      <trkpt lat="43.60479" lon="4.36077">
        <ele>1</ele>
        <time>2019-05-30T12:42:46.000Z</time>
      </trkpt>
      <trkpt lat="43.60476" lon="4.36039">
        <ele>1</ele>
        <time>2019-05-30T12:42:51.000Z</time>
      </trkpt>
      <trkpt lat="43.60478" lon="4.35998">
        <ele>1</ele>
        <time>2019-05-30T12:42:56.000Z</time>
      </trkpt>
      <trkpt lat="43.60486" lon="4.3596">
        <ele>1</ele>
        <time>2019-05-30T12:43:01.000Z</time>
      </trkpt>
      <trkpt lat="43.60497" lon="4.35921">
        <ele>1</ele>
        <time>2019-05-30T12:43:06.000Z</time>
      </trkpt>
      <trkpt lat="43.60508" lon="4.35882">
        <ele>1</ele>
        <time>2019-05-30T12:43:11.000Z</time>
      </trkpt>
      <trkpt lat="43.60517" lon="4.35846">
        <ele>2</ele>
        <time>2019-05-30T12:43:16.000Z</time>
      </trkpt>
      <trkpt lat="43.60525" lon="4.35817">
        <ele>1</ele>
        <time>2019-05-30T12:43:21.000Z</time>
      </trkpt>
      <trkpt lat="43.60527" lon="4.35803">
        <ele>0.8</ele>
        <time>2019-05-30T12:43:52.000Z</time>
      </trkpt>
      <trkpt lat="43.6053" lon="4.35788">
        <ele>0.05</ele>
        <time>2019-05-30T12:43:57.000Z</time>
      </trkpt>
      <trkpt lat="43.60525" lon="4.35776">
        <ele>1</ele>
        <time>2019-05-30T12:44:22.000Z</time>
      </trkpt>
      <trkpt lat="43.60521" lon="4.35752">
        <ele>1</ele>
        <time>2019-05-30T12:44:27.000Z</time>
      </trkpt>
      <trkpt lat="43.60517" lon="4.35721">
        <ele>1</ele>
        <time>2019-05-30T12:44:32.000Z</time>
      </trkpt>
      <trkpt lat="43.60512" lon="4.35687">
        <ele>1</ele>
        <time>2019-05-30T12:44:37.000Z</time>
      </trkpt>
      <trkpt lat="43.60506" lon="4.35651">
        <ele>2</ele>
        <time>2019-05-30T12:44:42.000Z</time>
      </trkpt>
      <trkpt lat="43.605" lon="4.35613">
        <ele>1.1</ele>
        <time>2019-05-30T12:44:47.000Z</time>
      </trkpt>
      <trkpt lat="43.60494" lon="4.35574">
        <ele>1</ele>
        <time>2019-05-30T12:44:52.000Z</time>
      </trkpt>
      <trkpt lat="43.60488" lon="4.35534">
        <ele>1</ele>
        <time>2019-05-30T12:44:57.000Z</time>
      </trkpt>
      <trkpt lat="43.60483" lon="4.35493">
        <ele>1</ele>
        <time>2019-05-30T12:45:02.000Z</time>
      </trkpt>
      <trkpt lat="43.60481" lon="4.35452">
        <ele>1</ele>
        <time>2019-05-30T12:45:07.000Z</time>
      </trkpt>
      <trkpt lat="43.60478" lon="4.35413">
        <ele>1</ele>
        <time>2019-05-30T12:45:12.000Z</time>
      </trkpt>
      <trkpt lat="43.60476" lon="4.35371">
        <ele>1</ele>
        <time>2019-05-30T12:45:17.000Z</time>
      </trkpt>
      <trkpt lat="43.60473" lon="4.35331">
        <ele>1</ele>
        <time>2019-05-30T12:45:22.000Z</time>
      </trkpt>
      <trkpt lat="43.60471" lon="4.3529">
        <ele>1</ele>
        <time>2019-05-30T12:45:27.000Z</time>
      </trkpt>
      <trkpt lat="43.60468" lon="4.35247">
        <ele>1</ele>
        <time>2019-05-30T12:45:32.000Z</time>
      </trkpt>
      <trkpt lat="43.60465" lon="4.35203">
        <ele>1</ele>
        <time>2019-05-30T12:45:37.000Z</time>
      </trkpt>
      <trkpt lat="43.60462" lon="4.35158">
        <ele>1</ele>
        <time>2019-05-30T12:45:42.000Z</time>
      </trkpt>
      <trkpt lat="43.6046" lon="4.35113">
        <ele>1</ele>
        <time>2019-05-30T12:45:47.000Z</time>
      </trkpt>
      <trkpt lat="43.60457" lon="4.35069">
        <ele>2</ele>
        <time>2019-05-30T12:45:52.000Z</time>
      </trkpt>
      <trkpt lat="43.60455" lon="4.35025">
        <ele>2</ele>
        <time>2019-05-30T12:45:57.000Z</time>
      </trkpt>
      <trkpt lat="43.60451" lon="4.34982">
        <ele>2</ele>
        <time>2019-05-30T12:46:02.000Z</time>
      </trkpt>
      <trkpt lat="43.60448" lon="4.34939">
        <ele>2</ele>
        <time>2019-05-30T12:46:07.000Z</time>
      </trkpt>
      <trkpt lat="43.60448" lon="4.34895">
        <ele>2</ele>
        <time>2019-05-30T12:46:12.000Z</time>
      </trkpt>
      <trkpt lat="43.60454" lon="4.34852">
        <ele>2</ele>
        <time>2019-05-30T12:46:17.000Z</time>
      </trkpt>
      <trkpt lat="43.6046" lon="4.34809">
        <ele>1</ele>
        <time>2019-05-30T12:46:22.000Z</time>
      </trkpt>
      <trkpt lat="43.60463" lon="4.34766">
        <ele>1</ele>
        <time>2019-05-30T12:46:27.000Z</time>
      </trkpt>
      <trkpt lat="43.60466" lon="4.34724">
        <ele>1</ele>
        <time>2019-05-30T12:46:32.000Z</time>
      </trkpt>
      <trkpt lat="43.60469" lon="4.34681">
        <ele>1</ele>
        <time>2019-05-30T12:46:37.000Z</time>
      </trkpt>
      <trkpt lat="43.60472" lon="4.34639">
        <ele>1</ele>
        <time>2019-05-30T12:46:42.000Z</time>
      </trkpt>
      <trkpt lat="43.60473" lon="4.34596">
        <ele>1</ele>
        <time>2019-05-30T12:46:47.000Z</time>
      </trkpt>
      <trkpt lat="43.60475" lon="4.34551">
        <ele>1</ele>
        <time>2019-05-30T12:46:52.000Z</time>
      </trkpt>
      <trkpt lat="43.60476" lon="4.34508">
        <ele>1</ele>
        <time>2019-05-30T12:46:57.000Z</time>
      </trkpt>
      <trkpt lat="43.60479" lon="4.34464">
        <ele>1</ele>
        <time>2019-05-30T12:47:02.000Z</time>
      </trkpt>
      <trkpt lat="43.60482" lon="4.3442">
        <ele>1</ele>
        <time>2019-05-30T12:47:07.000Z</time>
      </trkpt>
      <trkpt lat="43.60481" lon="4.34375">
        <ele>1</ele>
        <time>2019-05-30T12:47:12.000Z</time>
      </trkpt>
      <trkpt lat="43.60478" lon="4.34329">
        <ele>1</ele>
        <time>2019-05-30T12:47:17.000Z</time>
      </trkpt>
      <trkpt lat="43.6048" lon="4.34284">
        <ele>1</ele>
        <time>2019-05-30T12:47:22.000Z</time>
      </trkpt>
      <trkpt lat="43.60484" lon="4.3424">
        <ele>1</ele>
        <time>2019-05-30T12:47:27.000Z</time>
      </trkpt>
      <trkpt lat="43.60489" lon="4.34196">
        <ele>1</ele>
        <time>2019-05-30T12:47:32.000Z</time>
      </trkpt>
      <trkpt lat="43.60493" lon="4.34152">
        <ele>1</ele>
        <time>2019-05-30T12:47:37.000Z</time>
      </trkpt>
      <trkpt lat="43.60498" lon="4.34108">
        <ele>2</ele>
        <time>2019-05-30T12:47:42.000Z</time>
      </trkpt>
      <trkpt lat="43.60504" lon="4.34064">
        <ele>2</ele>
        <time>2019-05-30T12:47:47.000Z</time>
      </trkpt>
      <trkpt lat="43.60511" lon="4.3402">
        <ele>1</ele>
        <time>2019-05-30T12:47:52.000Z</time>
      </trkpt>
      <trkpt lat="43.60519" lon="4.33978">
        <ele>2</ele>
        <time>2019-05-30T12:47:57.000Z</time>
      </trkpt>
      <trkpt lat="43.60524" lon="4.33934">
        <ele>2</ele>
        <time>2019-05-30T12:48:02.000Z</time>
      </trkpt>
      <trkpt lat="43.60527" lon="4.33889">
        <ele>3</ele>
        <time>2019-05-30T12:48:07.000Z</time>
      </trkpt>
      <trkpt lat="43.6053" lon="4.33845">
        <ele>3</ele>
        <time>2019-05-30T12:48:12.000Z</time>
      </trkpt>
      <trkpt lat="43.60534" lon="4.33802">
        <ele>2</ele>
        <time>2019-05-30T12:48:17.000Z</time>
      </trkpt>
      <trkpt lat="43.60536" lon="4.33761">
        <ele>2</ele>
        <time>2019-05-30T12:48:22.000Z</time>
      </trkpt>
      <trkpt lat="43.60543" lon="4.33722">
        <ele>2</ele>
        <time>2019-05-30T12:48:27.000Z</time>
      </trkpt>
      <trkpt lat="43.60541" lon="4.33686">
        <ele>2</ele>
        <time>2019-05-30T12:48:32.000Z</time>
      </trkpt>
      <trkpt lat="43.60536" lon="4.33661">
        <ele>1</ele>
        <time>2019-05-30T12:48:37.000Z</time>
      </trkpt>
      <trkpt lat="43.60534" lon="4.33648">
        <ele>1</ele>
        <time>2019-05-30T12:49:06.000Z</time>
      </trkpt>
      <trkpt lat="43.60542" lon="4.33638">
        <ele>1</ele>
        <time>2019-05-30T12:49:17.000Z</time>
      </trkpt>
      <trkpt lat="43.60563" lon="4.33634">
        <ele>1</ele>
        <time>2019-05-30T12:49:22.000Z</time>
      </trkpt>
      <trkpt lat="43.60588" lon="4.33629">
        <ele>1</ele>
        <time>2019-05-30T12:49:27.000Z</time>
      </trkpt>
      <trkpt lat="43.60612" lon="4.33612">
        <ele>1</ele>
        <time>2019-05-30T12:49:32.000Z</time>
      </trkpt>
      <trkpt lat="43.60634" lon="4.33589">
        <ele>1</ele>
        <time>2019-05-30T12:49:37.000Z</time>
      </trkpt>
      <trkpt lat="43.60656" lon="4.33563">
        <ele>0.73</ele>
        <time>2019-05-30T12:49:42.000Z</time>
      </trkpt>
      <trkpt lat="43.60678" lon="4.33537">
        <ele>1</ele>
        <time>2019-05-30T12:49:47.000Z</time>
      </trkpt>
      <trkpt lat="43.607" lon="4.33511">
        <ele>0.53</ele>
        <time>2019-05-30T12:49:52.000Z</time>
      </trkpt>
      <trkpt lat="43.6072" lon="4.33486">
        <ele>0.04</ele>
        <time>2019-05-30T12:49:57.000Z</time>
      </trkpt>
      <trkpt lat="43.6074" lon="4.33461">
        <ele>1</ele>
        <time>2019-05-30T12:50:02.000Z</time>
      </trkpt>
      <trkpt lat="43.6076" lon="4.33436">
        <ele>1</ele>
        <time>2019-05-30T12:50:07.000Z</time>
      </trkpt>
      <trkpt lat="43.60781" lon="4.33411">
        <ele>1.48</ele>
        <time>2019-05-30T12:50:12.000Z</time>
      </trkpt>
      <trkpt lat="43.60801" lon="4.33387">
        <ele>1.79</ele>
        <time>2019-05-30T12:50:17.000Z</time>
      </trkpt>
      <trkpt lat="43.6082" lon="4.33364">
        <ele>1.81</ele>
        <time>2019-05-30T12:50:22.000Z</time>
      </trkpt>
      <trkpt lat="43.60839" lon="4.33341">
        <ele>1.79</ele>
        <time>2019-05-30T12:50:27.000Z</time>
      </trkpt>
      <trkpt lat="43.60859" lon="4.33316">
        <ele>2</ele>
        <time>2019-05-30T12:50:32.000Z</time>
      </trkpt>
      <trkpt lat="43.60877" lon="4.33293">
        <ele>2</ele>
        <time>2019-05-30T12:50:37.000Z</time>
      </trkpt>
      <trkpt lat="43.60897" lon="4.33271">
        <ele>1</ele>
        <time>2019-05-30T12:50:42.000Z</time>
      </trkpt>
      <trkpt lat="43.60917" lon="4.33247">
        <ele>1</ele>
        <time>2019-05-30T12:50:47.000Z</time>
      </trkpt>
      <trkpt lat="43.60936" lon="4.33224">
        <ele>1</ele>
        <time>2019-05-30T12:50:52.000Z</time>
      </trkpt>
      <trkpt lat="43.60957" lon="4.332">
        <ele>1</ele>
        <time>2019-05-30T12:50:57.000Z</time>
      </trkpt>
      <trkpt lat="43.60977" lon="4.33176">
        <ele>1</ele>
        <time>2019-05-30T12:51:02.000Z</time>
      </trkpt>
      <trkpt lat="43.60997" lon="4.33151">
        <ele>1</ele>
        <time>2019-05-30T12:51:07.000Z</time>
      </trkpt>
      <trkpt lat="43.61018" lon="4.33125">
        <ele>1</ele>
        <time>2019-05-30T12:51:12.000Z</time>
      </trkpt>
      <trkpt lat="43.6104" lon="4.33101">
        <ele>1</ele>
        <time>2019-05-30T12:51:17.000Z</time>
      </trkpt>
      <trkpt lat="43.61061" lon="4.33076">
        <ele>1</ele>
        <time>2019-05-30T12:51:22.000Z</time>
      </trkpt>
      <trkpt lat="43.61082" lon="4.33051">
        <ele>1</ele>
        <time>2019-05-30T12:51:27.000Z</time>
      </trkpt>
      <trkpt lat="43.61104" lon="4.33023">
        <ele>1</ele>
        <time>2019-05-30T12:51:32.000Z</time>
      </trkpt>
      <trkpt lat="43.61125" lon="4.32999">
        <ele>1</ele>
        <time>2019-05-30T12:51:37.000Z</time>
      </trkpt>
      <trkpt lat="43.61146" lon="4.32974">
        <ele>1</ele>
        <time>2019-05-30T12:51:42.000Z</time>
      </trkpt>
      <trkpt lat="43.61167" lon="4.32948">
        <ele>1</ele>
        <time>2019-05-30T12:51:47.000Z</time>
      </trkpt>
      <trkpt lat="43.6119" lon="4.32922">
        <ele>1</ele>
        <time>2019-05-30T12:51:52.000Z</time>
      </trkpt>
      <trkpt lat="43.61212" lon="4.32896">
        <ele>1</ele>
        <time>2019-05-30T12:51:57.000Z</time>
      </trkpt>
      <trkpt lat="43.61234" lon="4.32871">
        <ele>1</ele>
        <time>2019-05-30T12:52:02.000Z</time>
      </trkpt>
      <trkpt lat="43.61256" lon="4.32843">
        <ele>1</ele>
        <time>2019-05-30T12:52:07.000Z</time>
      </trkpt>
      <trkpt lat="43.61278" lon="4.32816">
        <ele>1</ele>
        <time>2019-05-30T12:52:12.000Z</time>
      </trkpt>
      <trkpt lat="43.613" lon="4.3279">
        <ele>1</ele>
        <time>2019-05-30T12:52:17.000Z</time>
      </trkpt>
      <trkpt lat="43.61323" lon="4.32763">
        <ele>1</ele>
        <time>2019-05-30T12:52:22.000Z</time>
      </trkpt>
      <trkpt lat="43.61345" lon="4.32737">
        <ele>1</ele>
        <time>2019-05-30T12:52:27.000Z</time>
      </trkpt>
      <trkpt lat="43.61366" lon="4.32711">
        <ele>1</ele>
        <time>2019-05-30T12:52:32.000Z</time>
      </trkpt>
      <trkpt lat="43.61388" lon="4.32685">
        <ele>1</ele>
        <time>2019-05-30T12:52:37.000Z</time>
      </trkpt>
      <trkpt lat="43.6141" lon="4.3266">
        <ele>1</ele>
        <time>2019-05-30T12:52:42.000Z</time>
      </trkpt>
      <trkpt lat="43.61431" lon="4.32635">
        <ele>1</ele>
        <time>2019-05-30T12:52:47.000Z</time>
      </trkpt>
      <trkpt lat="43.61453" lon="4.32609">
        <ele>1</ele>
        <time>2019-05-30T12:52:52.000Z</time>
      </trkpt>
      <trkpt lat="43.61475" lon="4.32584">
        <ele>1</ele>
        <time>2019-05-30T12:52:57.000Z</time>
      </trkpt>
      <trkpt lat="43.61495" lon="4.32559">
        <ele>1</ele>
        <time>2019-05-30T12:53:02.000Z</time>
      </trkpt>
      <trkpt lat="43.61514" lon="4.32536">
        <ele>1</ele>
        <time>2019-05-30T12:53:07.000Z</time>
      </trkpt>
      <trkpt lat="43.61533" lon="4.32514">
        <ele>1.52</ele>
        <time>2019-05-30T12:53:12.000Z</time>
      </trkpt>
      <trkpt lat="43.61553" lon="4.32492">
        <ele>0.8</ele>
        <time>2019-05-30T12:53:17.000Z</time>
      </trkpt>
      <trkpt lat="43.61573" lon="4.32469">
        <ele>1</ele>
        <time>2019-05-30T12:53:22.000Z</time>
      </trkpt>
      <trkpt lat="43.61593" lon="4.32445">
        <ele>1</ele>
        <time>2019-05-30T12:53:27.000Z</time>
      </trkpt>
      <trkpt lat="43.61612" lon="4.3242">
        <ele>1</ele>
        <time>2019-05-30T12:53:32.000Z</time>
      </trkpt>
      <trkpt lat="43.61633" lon="4.32396">
        <ele>1</ele>
        <time>2019-05-30T12:53:37.000Z</time>
      </trkpt>
      <trkpt lat="43.61652" lon="4.32371">
        <ele>1</ele>
        <time>2019-05-30T12:53:42.000Z</time>
      </trkpt>
      <trkpt lat="43.61672" lon="4.32349">
        <ele>1</ele>
        <time>2019-05-30T12:53:47.000Z</time>
      </trkpt>
      <trkpt lat="43.61691" lon="4.32326">
        <ele>1</ele>
        <time>2019-05-30T12:53:52.000Z</time>
      </trkpt>
      <trkpt lat="43.61711" lon="4.32303">
        <ele>1</ele>
        <time>2019-05-30T12:53:57.000Z</time>
      </trkpt>
      <trkpt lat="43.6173" lon="4.32279">
        <ele>1</ele>
        <time>2019-05-30T12:54:02.000Z</time>
      </trkpt>
      <trkpt lat="43.61749" lon="4.32257">
        <ele>1</ele>
        <time>2019-05-30T12:54:07.000Z</time>
      </trkpt>
      <trkpt lat="43.61769" lon="4.32234">
        <ele>1</ele>
        <time>2019-05-30T12:54:12.000Z</time>
      </trkpt>
      <trkpt lat="43.61787" lon="4.32211">
        <ele>1</ele>
        <time>2019-05-30T12:54:17.000Z</time>
      </trkpt>
      <trkpt lat="43.61806" lon="4.32188">
        <ele>1</ele>
        <time>2019-05-30T12:54:22.000Z</time>
      </trkpt>
      <trkpt lat="43.61826" lon="4.32164">
        <ele>1</ele>
        <time>2019-05-30T12:54:27.000Z</time>
      </trkpt>
      <trkpt lat="43.61846" lon="4.32141">
        <ele>0.79</ele>
        <time>2019-05-30T12:54:32.000Z</time>
      </trkpt>
      <trkpt lat="43.61866" lon="4.32118">
        <ele>0.79</ele>
        <time>2019-05-30T12:54:37.000Z</time>
      </trkpt>
      <trkpt lat="43.61885" lon="4.32095">
        <ele>0.79</ele>
        <time>2019-05-30T12:54:42.000Z</time>
      </trkpt>
      <trkpt lat="43.61904" lon="4.32071">
        <ele>1</ele>
        <time>2019-05-30T12:54:47.000Z</time>
      </trkpt>
      <trkpt lat="43.61925" lon="4.32047">
        <ele>0.02</ele>
        <time>2019-05-30T12:54:52.000Z</time>
      </trkpt>
      <trkpt lat="43.61945" lon="4.32023">
        <ele>0.77</ele>
        <time>2019-05-30T12:54:57.000Z</time>
      </trkpt>
      <trkpt lat="43.61967" lon="4.31999">
        <ele>1</ele>
        <time>2019-05-30T12:55:02.000Z</time>
      </trkpt>
      <trkpt lat="43.61987" lon="4.31973">
        <ele>1</ele>
        <time>2019-05-30T12:55:07.000Z</time>
      </trkpt>
      <trkpt lat="43.6201" lon="4.31947">
        <ele>1</ele>
        <time>2019-05-30T12:55:12.000Z</time>
      </trkpt>
      <trkpt lat="43.62031" lon="4.31921">
        <ele>1</ele>
        <time>2019-05-30T12:55:17.000Z</time>
      </trkpt>
      <trkpt lat="43.62052" lon="4.31894">
        <ele>1</ele>
        <time>2019-05-30T12:55:22.000Z</time>
      </trkpt>
      <trkpt lat="43.62075" lon="4.31867">
        <ele>1</ele>
        <time>2019-05-30T12:55:27.000Z</time>
      </trkpt>
      <trkpt lat="43.62097" lon="4.31841">
        <ele>1</ele>
        <time>2019-05-30T12:55:32.000Z</time>
      </trkpt>
      <trkpt lat="43.62118" lon="4.31815">
        <ele>1</ele>
        <time>2019-05-30T12:55:37.000Z</time>
      </trkpt>
      <trkpt lat="43.62142" lon="4.31789">
        <ele>1</ele>
        <time>2019-05-30T12:55:42.000Z</time>
      </trkpt>
      <trkpt lat="43.62163" lon="4.31764">
        <ele>1</ele>
        <time>2019-05-30T12:55:47.000Z</time>
      </trkpt>
      <trkpt lat="43.62183" lon="4.31738">
        <ele>0.54</ele>
        <time>2019-05-30T12:55:52.000Z</time>
      </trkpt>
      <trkpt lat="43.62205" lon="4.31713">
        <ele>0.79</ele>
        <time>2019-05-30T12:55:57.000Z</time>
      </trkpt>
      <trkpt lat="43.62225" lon="4.31688">
        <ele>0.73</ele>
        <time>2019-05-30T12:56:02.000Z</time>
      </trkpt>
      <trkpt lat="43.62246" lon="4.31663">
        <ele>0.78</ele>
        <time>2019-05-30T12:56:07.000Z</time>
      </trkpt>
      <trkpt lat="43.62268" lon="4.31638">
        <ele>0.79</ele>
        <time>2019-05-30T12:56:12.000Z</time>
      </trkpt>
      <trkpt lat="43.62289" lon="4.31613">
        <ele>1</ele>
        <time>2019-05-30T12:56:17.000Z</time>
      </trkpt>
      <trkpt lat="43.62312" lon="4.31587">
        <ele>0.78</ele>
        <time>2019-05-30T12:56:22.000Z</time>
      </trkpt>
      <trkpt lat="43.62333" lon="4.31561">
        <ele>0.03</ele>
        <time>2019-05-30T12:56:27.000Z</time>
      </trkpt>
      <trkpt lat="43.62354" lon="4.31537">
        <ele>1</ele>
        <time>2019-05-30T12:56:32.000Z</time>
      </trkpt>
      <trkpt lat="43.62373" lon="4.31511">
        <ele>1</ele>
        <time>2019-05-30T12:56:37.000Z</time>
      </trkpt>
      <trkpt lat="43.62394" lon="4.31488">
        <ele>1</ele>
        <time>2019-05-30T12:56:42.000Z</time>
      </trkpt>
      <trkpt lat="43.62414" lon="4.31464">
        <ele>1</ele>
        <time>2019-05-30T12:56:47.000Z</time>
      </trkpt>
      <trkpt lat="43.62435" lon="4.31438">
        <ele>1</ele>
        <time>2019-05-30T12:56:52.000Z</time>
      </trkpt>
      <trkpt lat="43.62456" lon="4.31414">
        <ele>1</ele>
        <time>2019-05-30T12:56:57.000Z</time>
      </trkpt>
      <trkpt lat="43.62477" lon="4.3139">
        <ele>1</ele>
        <time>2019-05-30T12:57:02.000Z</time>
      </trkpt>
      <trkpt lat="43.62497" lon="4.31366">
        <ele>1</ele>
        <time>2019-05-30T12:57:07.000Z</time>
      </trkpt>
      <trkpt lat="43.62518" lon="4.31339">
        <ele>1</ele>
        <time>2019-05-30T12:57:12.000Z</time>
      </trkpt>
      <trkpt lat="43.62538" lon="4.31314">
        <ele>1</ele>
        <time>2019-05-30T12:57:17.000Z</time>
      </trkpt>
      <trkpt lat="43.62559" lon="4.31289">
        <ele>1</ele>
        <time>2019-05-30T12:57:22.000Z</time>
      </trkpt>
      <trkpt lat="43.62579" lon="4.31266">
        <ele>1</ele>
        <time>2019-05-30T12:57:27.000Z</time>
      </trkpt>
      <trkpt lat="43.626" lon="4.31243">
        <ele>1</ele>
        <time>2019-05-30T12:57:32.000Z</time>
      </trkpt>
      <trkpt lat="43.62621" lon="4.31217">
        <ele>1</ele>
        <time>2019-05-30T12:57:37.000Z</time>
      </trkpt>
      <trkpt lat="43.62642" lon="4.31192">
        <ele>1</ele>
        <time>2019-05-30T12:57:42.000Z</time>
      </trkpt>
      <trkpt lat="43.62662" lon="4.31168">
        <ele>1</ele>
        <time>2019-05-30T12:57:47.000Z</time>
      </trkpt>
      <trkpt lat="43.62683" lon="4.31143">
        <ele>1</ele>
        <time>2019-05-30T12:57:52.000Z</time>
      </trkpt>
      <trkpt lat="43.62703" lon="4.31118">
        <ele>0.72</ele>
        <time>2019-05-30T12:57:57.000Z</time>
      </trkpt>
      <trkpt lat="43.62722" lon="4.31096">
        <ele>0.78</ele>
        <time>2019-05-30T12:58:02.000Z</time>
      </trkpt>
      <trkpt lat="43.62741" lon="4.31072">
        <ele>0.84</ele>
        <time>2019-05-30T12:58:07.000Z</time>
      </trkpt>
      <trkpt lat="43.62761" lon="4.31049">
        <ele>0.77</ele>
        <time>2019-05-30T12:58:12.000Z</time>
      </trkpt>
      <trkpt lat="43.62781" lon="4.31027">
        <ele>0.03</ele>
        <time>2019-05-30T12:58:17.000Z</time>
      </trkpt>
      <trkpt lat="43.62799" lon="4.31006">
        <ele>0.77</ele>
        <time>2019-05-30T12:58:22.000Z</time>
      </trkpt>
      <trkpt lat="43.62816" lon="4.30984">
        <ele>0.78</ele>
        <time>2019-05-30T12:58:27.000Z</time>
      </trkpt>
      <trkpt lat="43.62834" lon="4.30963">
        <ele>0.78</ele>
        <time>2019-05-30T12:58:32.000Z</time>
      </trkpt>
      <trkpt lat="43.62852" lon="4.30942">
        <ele>0.8</ele>
        <time>2019-05-30T12:58:37.000Z</time>
      </trkpt>
      <trkpt lat="43.62869" lon="4.30921">
        <ele>0.78</ele>
        <time>2019-05-30T12:58:42.000Z</time>
      </trkpt>
      <trkpt lat="43.62885" lon="4.309">
        <ele>0.78</ele>
        <time>2019-05-30T12:58:47.000Z</time>
      </trkpt>
      <trkpt lat="43.62903" lon="4.30878">
        <ele>0.78</ele>
        <time>2019-05-30T12:58:52.000Z</time>
      </trkpt>
      <trkpt lat="43.62922" lon="4.30857">
        <ele>1.78</ele>
        <time>2019-05-30T12:58:57.000Z</time>
      </trkpt>
      <trkpt lat="43.62939" lon="4.30837">
        <ele>1.79</ele>
        <time>2019-05-30T12:59:02.000Z</time>
      </trkpt>
      <trkpt lat="43.62956" lon="4.30817">
        <ele>1.78</ele>
        <time>2019-05-30T12:59:07.000Z</time>
      </trkpt>
      <trkpt lat="43.62973" lon="4.30797">
        <ele>0.79</ele>
        <time>2019-05-30T12:59:12.000Z</time>
      </trkpt>
      <trkpt lat="43.62988" lon="4.30779">
        <ele>0.78</ele>
        <time>2019-05-30T12:59:17.000Z</time>
      </trkpt>
      <trkpt lat="43.63004" lon="4.3076">
        <ele>0.78</ele>
        <time>2019-05-30T12:59:22.000Z</time>
      </trkpt>
      <trkpt lat="43.63018" lon="4.30741">
        <ele>0.78</ele>
        <time>2019-05-30T12:59:27.000Z</time>
      </trkpt>
      <trkpt lat="43.63035" lon="4.30722">
        <ele>0.78</ele>
        <time>2019-05-30T12:59:32.000Z</time>
      </trkpt>
      <trkpt lat="43.63051" lon="4.30702">
        <ele>1.03</ele>
        <time>2019-05-30T12:59:37.000Z</time>
      </trkpt>
      <trkpt lat="43.63068" lon="4.30681">
        <ele>0.78</ele>
        <time>2019-05-30T12:59:42.000Z</time>
      </trkpt>
      <trkpt lat="43.63085" lon="4.3066">
        <ele>1</ele>
        <time>2019-05-30T12:59:47.000Z</time>
      </trkpt>
      <trkpt lat="43.63102" lon="4.3064">
        <ele>0.53</ele>
        <time>2019-05-30T12:59:52.000Z</time>
      </trkpt>
      <trkpt lat="43.63119" lon="4.3062">
        <ele>1</ele>
        <time>2019-05-30T12:59:57.000Z</time>
      </trkpt>
      <trkpt lat="43.63135" lon="4.306">
        <ele>1</ele>
        <time>2019-05-30T13:00:02.000Z</time>
      </trkpt>
      <trkpt lat="43.63151" lon="4.30579">
        <ele>1</ele>
        <time>2019-05-30T13:00:07.000Z</time>
      </trkpt>
      <trkpt lat="43.63168" lon="4.3056">
        <ele>1</ele>
        <time>2019-05-30T13:00:12.000Z</time>
      </trkpt>
      <trkpt lat="43.63185" lon="4.30539">
        <ele>1</ele>
        <time>2019-05-30T13:00:17.000Z</time>
      </trkpt>
      <trkpt lat="43.63202" lon="4.30518">
        <ele>0.58</ele>
        <time>2019-05-30T13:00:22.000Z</time>
      </trkpt>
      <trkpt lat="43.63219" lon="4.30497">
        <ele>1</ele>
        <time>2019-05-30T13:00:27.000Z</time>
      </trkpt>
      <trkpt lat="43.63236" lon="4.30477">
        <ele>1</ele>
        <time>2019-05-30T13:00:32.000Z</time>
      </trkpt>
      <trkpt lat="43.63254" lon="4.30456">
        <ele>1</ele>
        <time>2019-05-30T13:00:37.000Z</time>
      </trkpt>
      <trkpt lat="43.63271" lon="4.30438">
        <ele>1</ele>
        <time>2019-05-30T13:00:42.000Z</time>
      </trkpt>
      <trkpt lat="43.63289" lon="4.30417">
        <ele>1</ele>
        <time>2019-05-30T13:00:47.000Z</time>
      </trkpt>
      <trkpt lat="43.63307" lon="4.30395">
        <ele>1</ele>
        <time>2019-05-30T13:00:52.000Z</time>
      </trkpt>
      <trkpt lat="43.63327" lon="4.30372">
        <ele>1</ele>
        <time>2019-05-30T13:00:57.000Z</time>
      </trkpt>
      <trkpt lat="43.63345" lon="4.30349">
        <ele>1</ele>
        <time>2019-05-30T13:01:02.000Z</time>
      </trkpt>
      <trkpt lat="43.63365" lon="4.30327">
        <ele>1</ele>
        <time>2019-05-30T13:01:07.000Z</time>
      </trkpt>
      <trkpt lat="43.63385" lon="4.30303">
        <ele>1</ele>
        <time>2019-05-30T13:01:12.000Z</time>
      </trkpt>
      <trkpt lat="43.63406" lon="4.30277">
        <ele>1</ele>
        <time>2019-05-30T13:01:17.000Z</time>
      </trkpt>
      <trkpt lat="43.63426" lon="4.30253">
        <ele>1</ele>
        <time>2019-05-30T13:01:22.000Z</time>
      </trkpt>
      <trkpt lat="43.63446" lon="4.30228">
        <ele>1</ele>
        <time>2019-05-30T13:01:27.000Z</time>
      </trkpt>
      <trkpt lat="43.63466" lon="4.30202">
        <ele>1</ele>
        <time>2019-05-30T13:01:32.000Z</time>
      </trkpt>
      <trkpt lat="43.63487" lon="4.30178">
        <ele>1</ele>
        <time>2019-05-30T13:01:37.000Z</time>
      </trkpt>
      <trkpt lat="43.63507" lon="4.30155">
        <ele>1</ele>
        <time>2019-05-30T13:01:42.000Z</time>
      </trkpt>
      <trkpt lat="43.63526" lon="4.3013">
        <ele>1</ele>
        <time>2019-05-30T13:01:47.000Z</time>
      </trkpt>
      <trkpt lat="43.63547" lon="4.30107">
        <ele>1</ele>
        <time>2019-05-30T13:01:52.000Z</time>
      </trkpt>
      <trkpt lat="43.63568" lon="4.30083">
        <ele>1</ele>
        <time>2019-05-30T13:01:57.000Z</time>
      </trkpt>
      <trkpt lat="43.63589" lon="4.30058">
        <ele>1</ele>
        <time>2019-05-30T13:02:02.000Z</time>
      </trkpt>
      <trkpt lat="43.63608" lon="4.30035">
        <ele>1</ele>
        <time>2019-05-30T13:02:07.000Z</time>
      </trkpt>
      <trkpt lat="43.63628" lon="4.30009">
        <ele>1</ele>
        <time>2019-05-30T13:02:12.000Z</time>
      </trkpt>
      <trkpt lat="43.63645" lon="4.29986">
        <ele>1</ele>
        <time>2019-05-30T13:02:17.000Z</time>
      </trkpt>
      <trkpt lat="43.63659" lon="4.29965">
        <ele>1</ele>
        <time>2019-05-30T13:02:22.000Z</time>
      </trkpt>
      <trkpt lat="43.63669" lon="4.29942">
        <ele>1</ele>
        <time>2019-05-30T13:02:27.000Z</time>
      </trkpt>
      <trkpt lat="43.63675" lon="4.29931">
        <ele>1</ele>
        <time>2019-05-30T13:02:32.000Z</time>
      </trkpt>
      <trkpt lat="43.63684" lon="4.29921">
        <ele>1.53</ele>
        <time>2019-05-30T13:03:47.000Z</time>
      </trkpt>
      <trkpt lat="43.63693" lon="4.29908">
        <ele>1.54</ele>
        <time>2019-05-30T13:03:52.000Z</time>
      </trkpt>
      <trkpt lat="43.63702" lon="4.29897">
        <ele>1.58</ele>
        <time>2019-05-30T13:03:57.000Z</time>
      </trkpt>
      <trkpt lat="43.63716" lon="4.29888">
        <ele>1.78</ele>
        <time>2019-05-30T13:04:02.000Z</time>
      </trkpt>
      <trkpt lat="43.63727" lon="4.29878">
        <ele>1.73</ele>
        <time>2019-05-30T13:04:07.000Z</time>
      </trkpt>
      <trkpt lat="43.6374" lon="4.29874">
        <ele>2.76</ele>
        <time>2019-05-30T13:04:12.000Z</time>
      </trkpt>
      <trkpt lat="43.63752" lon="4.29871">
        <ele>3.78</ele>
        <time>2019-05-30T13:04:17.000Z</time>
      </trkpt>
      <trkpt lat="43.63762" lon="4.29868">
        <ele>4.77</ele>
        <time>2019-05-30T13:04:22.000Z</time>
      </trkpt>
      <trkpt lat="43.6377" lon="4.29861">
        <ele>4.76</ele>
        <time>2019-05-30T13:04:57.000Z</time>
      </trkpt>
      <trkpt lat="43.6376" lon="4.29863">
        <ele>3.78</ele>
        <time>2019-05-30T13:05:04.000Z</time>
      </trkpt>
      <trkpt lat="43.63748" lon="4.2987">
        <ele>3.78</ele>
        <time>2019-05-30T13:05:09.000Z</time>
      </trkpt>
      <trkpt lat="43.6373" lon="4.29876">
        <ele>2.84</ele>
        <time>2019-05-30T13:05:14.000Z</time>
      </trkpt>
      <trkpt lat="43.63706" lon="4.29893">
        <ele>1.78</ele>
        <time>2019-05-30T13:05:19.000Z</time>
      </trkpt>
      <trkpt lat="43.63687" lon="4.29914">
        <ele>1.79</ele>
        <time>2019-05-30T13:05:24.000Z</time>
      </trkpt>
      <trkpt lat="43.63673" lon="4.29937">
        <ele>2.72</ele>
        <time>2019-05-30T13:05:29.000Z</time>
      </trkpt>
      <trkpt lat="43.63661" lon="4.29953">
        <ele>1.79</ele>
        <time>2019-05-30T13:05:34.000Z</time>
      </trkpt>
      <trkpt lat="43.63657" lon="4.29967">
        <ele>1.77</ele>
        <time>2019-05-30T13:05:39.000Z</time>
      </trkpt>
      <trkpt lat="43.63651" lon="4.29953">
        <ele>1.77</ele>
        <time>2019-05-30T13:05:44.000Z</time>
      </trkpt>
      <trkpt lat="43.63662" lon="4.2993">
        <ele>2.72</ele>
        <time>2019-05-30T13:05:49.000Z</time>
      </trkpt>
      <trkpt lat="43.63674" lon="4.29908">
        <ele>2.96</ele>
        <time>2019-05-30T13:05:54.000Z</time>
      </trkpt>
      <trkpt lat="43.63688" lon="4.29889">
        <ele>3.96</ele>
        <time>2019-05-30T13:05:59.000Z</time>
      </trkpt>
      <trkpt lat="43.63701" lon="4.29874">
        <ele>4.76</ele>
        <time>2019-05-30T13:06:04.000Z</time>
      </trkpt>
      <trkpt lat="43.63717" lon="4.29864">
        <ele>5.76</ele>
        <time>2019-05-30T13:06:09.000Z</time>
      </trkpt>
      <trkpt lat="43.63732" lon="4.29858">
        <ele>5.79</ele>
        <time>2019-05-30T13:06:14.000Z</time>
      </trkpt>
      <trkpt lat="43.63748" lon="4.29853">
        <ele>7.53</ele>
        <time>2019-05-30T13:06:19.000Z</time>
      </trkpt>
      <trkpt lat="43.63762" lon="4.29849">
        <ele>9.51</ele>
        <time>2019-05-30T13:06:24.000Z</time>
      </trkpt>
      <trkpt lat="43.63777" lon="4.29844">
        <ele>8.78</ele>
        <time>2019-05-30T13:06:29.000Z</time>
      </trkpt>
      <trkpt lat="43.63792" lon="4.2984">
        <ele>8.78</ele>
        <time>2019-05-30T13:06:34.000Z</time>
      </trkpt>
      <trkpt lat="43.63813" lon="4.29836">
        <ele>7.84</ele>
        <time>2019-05-30T13:06:39.000Z</time>
      </trkpt>
      <trkpt lat="43.63838" lon="4.29831">
        <ele>5.11</ele>
        <time>2019-05-30T13:06:44.000Z</time>
      </trkpt>
      <trkpt lat="43.63864" lon="4.2983">
        <ele>2.09</ele>
        <time>2019-05-30T13:06:49.000Z</time>
      </trkpt>
      <trkpt lat="43.63871" lon="4.29819">
        <ele>0.78</ele>
        <time>2019-05-30T13:06:54.000Z</time>
      </trkpt>
      <trkpt lat="43.63862" lon="4.29815">
        <ele>2.71</ele>
        <time>2019-05-30T13:07:26.000Z</time>
      </trkpt>
      <trkpt lat="43.63852" lon="4.29815">
        <ele>2.78</ele>
        <time>2019-05-30T13:08:07.000Z</time>
      </trkpt>
      <trkpt lat="43.63839" lon="4.29811">
        <ele>2.78</ele>
        <time>2019-05-30T13:08:12.000Z</time>
      </trkpt>
      <trkpt lat="43.63827" lon="4.29806">
        <ele>3.71</ele>
        <time>2019-05-30T13:08:17.000Z</time>
      </trkpt>
      <trkpt lat="43.63816" lon="4.29802">
        <ele>2.84</ele>
        <time>2019-05-30T13:08:22.000Z</time>
      </trkpt>
      <trkpt lat="43.63804" lon="4.29789">
        <ele>1.78</ele>
        <time>2019-05-30T13:08:27.000Z</time>
      </trkpt>
      <trkpt lat="43.638" lon="4.29763">
        <ele>1.78</ele>
        <time>2019-05-30T13:08:32.000Z</time>
      </trkpt>
      <trkpt lat="43.63796" lon="4.29731">
        <ele>1.78</ele>
        <time>2019-05-30T13:08:37.000Z</time>
      </trkpt>
      <trkpt lat="43.63791" lon="4.297">
        <ele>2.71</ele>
        <time>2019-05-30T13:08:42.000Z</time>
      </trkpt>
      <trkpt lat="43.63784" lon="4.2967">
        <ele>1.53</ele>
        <time>2019-05-30T13:08:47.000Z</time>
      </trkpt>
      <trkpt lat="43.63777" lon="4.2964">
        <ele>2.78</ele>
        <time>2019-05-30T13:08:52.000Z</time>
      </trkpt>
      <trkpt lat="43.63769" lon="4.29607">
        <ele>1.78</ele>
        <time>2019-05-30T13:08:57.000Z</time>
      </trkpt>
      <trkpt lat="43.63762" lon="4.29573">
        <ele>1.78</ele>
        <time>2019-05-30T13:09:02.000Z</time>
      </trkpt>
      <trkpt lat="43.63757" lon="4.29539">
        <ele>0.78</ele>
        <time>2019-05-30T13:09:07.000Z</time>
      </trkpt>
      <trkpt lat="43.63749" lon="4.29504">
        <ele>0.78</ele>
        <time>2019-05-30T13:09:12.000Z</time>
      </trkpt>
      <trkpt lat="43.63743" lon="4.29468">
        <ele>0.78</ele>
        <time>2019-05-30T13:09:17.000Z</time>
      </trkpt>
      <trkpt lat="43.63736" lon="4.29428">
        <ele>1</ele>
        <time>2019-05-30T13:09:22.000Z</time>
      </trkpt>
      <trkpt lat="43.63729" lon="4.29389">
        <ele>1</ele>
        <time>2019-05-30T13:09:27.000Z</time>
      </trkpt>
      <trkpt lat="43.63723" lon="4.29352">
        <ele>1</ele>
        <time>2019-05-30T13:09:32.000Z</time>
      </trkpt>
      <trkpt lat="43.63717" lon="4.29315">
        <ele>1</ele>
        <time>2019-05-30T13:09:37.000Z</time>
      </trkpt>
      <trkpt lat="43.6371" lon="4.29275">
        <ele>1</ele>
        <time>2019-05-30T13:09:42.000Z</time>
      </trkpt>
      <trkpt lat="43.63702" lon="4.29231">
        <ele>1</ele>
        <time>2019-05-30T13:09:47.000Z</time>
      </trkpt>
      <trkpt lat="43.63695" lon="4.29189">
        <ele>1.2</ele>
        <time>2019-05-30T13:09:52.000Z</time>
      </trkpt>
      <trkpt lat="43.63687" lon="4.29147">
        <ele>2.7</ele>
        <time>2019-05-30T13:09:57.000Z</time>
      </trkpt>
      <trkpt lat="43.63681" lon="4.29105">
        <ele>1.8</ele>
        <time>2019-05-30T13:10:02.000Z</time>
      </trkpt>
      <trkpt lat="43.63675" lon="4.29063">
        <ele>1</ele>
        <time>2019-05-30T13:10:07.000Z</time>
      </trkpt>
      <trkpt lat="43.63668" lon="4.29023">
        <ele>1.2</ele>
        <time>2019-05-30T13:10:12.000Z</time>
      </trkpt>
      <trkpt lat="43.63658" lon="4.28983">
        <ele>1</ele>
        <time>2019-05-30T13:10:17.000Z</time>
      </trkpt>
      <trkpt lat="43.63649" lon="4.28944">
        <ele>1</ele>
        <time>2019-05-30T13:10:22.000Z</time>
      </trkpt>
      <trkpt lat="43.63639" lon="4.28904">
        <ele>1</ele>
        <time>2019-05-30T13:10:27.000Z</time>
      </trkpt>
      <trkpt lat="43.63628" lon="4.28865">
        <ele>1</ele>
        <time>2019-05-30T13:10:32.000Z</time>
      </trkpt>
      <trkpt lat="43.63616" lon="4.2883">
        <ele>1</ele>
        <time>2019-05-30T13:10:37.000Z</time>
      </trkpt>
      <trkpt lat="43.63601" lon="4.28797">
        <ele>1</ele>
        <time>2019-05-30T13:10:42.000Z</time>
      </trkpt>
      <trkpt lat="43.63587" lon="4.28764">
        <ele>1</ele>
        <time>2019-05-30T13:10:47.000Z</time>
      </trkpt>
      <trkpt lat="43.63571" lon="4.28728">
        <ele>1</ele>
        <time>2019-05-30T13:10:52.000Z</time>
      </trkpt>
      <trkpt lat="43.63555" lon="4.28692">
        <ele>1</ele>
        <time>2019-05-30T13:10:57.000Z</time>
      </trkpt>
      <trkpt lat="43.6354" lon="4.28656">
        <ele>0.71</ele>
        <time>2019-05-30T13:11:02.000Z</time>
      </trkpt>
      <trkpt lat="43.63524" lon="4.28621">
        <ele>0.71</ele>
        <time>2019-05-30T13:11:07.000Z</time>
      </trkpt>
      <trkpt lat="43.63508" lon="4.28585">
        <ele>0.02</ele>
        <time>2019-05-30T13:11:12.000Z</time>
      </trkpt>
      <trkpt lat="43.63493" lon="4.28548">
        <ele>1</ele>
        <time>2019-05-30T13:11:17.000Z</time>
      </trkpt>
      <trkpt lat="43.63478" lon="4.28513">
        <ele>1</ele>
        <time>2019-05-30T13:11:22.000Z</time>
      </trkpt>
      <trkpt lat="43.63462" lon="4.28479">
        <ele>1</ele>
        <time>2019-05-30T13:11:27.000Z</time>
      </trkpt>
      <trkpt lat="43.63448" lon="4.28443">
        <ele>0.52</ele>
        <time>2019-05-30T13:11:32.000Z</time>
      </trkpt>
      <trkpt lat="43.63434" lon="4.28408">
        <ele>1</ele>
        <time>2019-05-30T13:11:37.000Z</time>
      </trkpt>
      <trkpt lat="43.63419" lon="4.28373">
        <ele>0.73</ele>
        <time>2019-05-30T13:11:42.000Z</time>
      </trkpt>
      <trkpt lat="43.63404" lon="4.28338">
        <ele>1</ele>
        <time>2019-05-30T13:11:47.000Z</time>
      </trkpt>
      <trkpt lat="43.6339" lon="4.28303">
        <ele>1</ele>
        <time>2019-05-30T13:11:52.000Z</time>
      </trkpt>
      <trkpt lat="43.63376" lon="4.28269">
        <ele>1</ele>
        <time>2019-05-30T13:11:57.000Z</time>
      </trkpt>
      <trkpt lat="43.63362" lon="4.28235">
        <ele>1</ele>
        <time>2019-05-30T13:12:02.000Z</time>
      </trkpt>
      <trkpt lat="43.63347" lon="4.28202">
        <ele>1</ele>
        <time>2019-05-30T13:12:07.000Z</time>
      </trkpt>
      <trkpt lat="43.63334" lon="4.28168">
        <ele>1</ele>
        <time>2019-05-30T13:12:12.000Z</time>
      </trkpt>
      <trkpt lat="43.63319" lon="4.28132">
        <ele>1</ele>
        <time>2019-05-30T13:12:17.000Z</time>
      </trkpt>
      <trkpt lat="43.63304" lon="4.28096">
        <ele>1</ele>
        <time>2019-05-30T13:12:22.000Z</time>
      </trkpt>
      <trkpt lat="43.6329" lon="4.2806">
        <ele>1</ele>
        <time>2019-05-30T13:12:27.000Z</time>
      </trkpt>
      <trkpt lat="43.63275" lon="4.28025">
        <ele>1</ele>
        <time>2019-05-30T13:12:32.000Z</time>
      </trkpt>
      <trkpt lat="43.63259" lon="4.27989">
        <ele>2.5</ele>
        <time>2019-05-30T13:12:37.000Z</time>
      </trkpt>
      <trkpt lat="43.63242" lon="4.27951">
        <ele>2</ele>
        <time>2019-05-30T13:12:42.000Z</time>
      </trkpt>
      <trkpt lat="43.63226" lon="4.27913">
        <ele>1.9</ele>
        <time>2019-05-30T13:12:47.000Z</time>
      </trkpt>
      <trkpt lat="43.6321" lon="4.27876">
        <ele>1.7</ele>
        <time>2019-05-30T13:12:52.000Z</time>
      </trkpt>
      <trkpt lat="43.63195" lon="4.27838">
        <ele>2</ele>
        <time>2019-05-30T13:12:57.000Z</time>
      </trkpt>
      <trkpt lat="43.63179" lon="4.27802">
        <ele>1</ele>
        <time>2019-05-30T13:13:02.000Z</time>
      </trkpt>
      <trkpt lat="43.63164" lon="4.27766">
        <ele>1</ele>
        <time>2019-05-30T13:13:07.000Z</time>
      </trkpt>
      <trkpt lat="43.63148" lon="4.27729">
        <ele>1</ele>
        <time>2019-05-30T13:13:12.000Z</time>
      </trkpt>
      <trkpt lat="43.63133" lon="4.27692">
        <ele>1</ele>
        <time>2019-05-30T13:13:17.000Z</time>
      </trkpt>
      <trkpt lat="43.63119" lon="4.27657">
        <ele>1</ele>
        <time>2019-05-30T13:13:22.000Z</time>
      </trkpt>
      <trkpt lat="43.63104" lon="4.27621">
        <ele>1</ele>
        <time>2019-05-30T13:13:27.000Z</time>
      </trkpt>
      <trkpt lat="43.63086" lon="4.27584">
        <ele>1</ele>
        <time>2019-05-30T13:13:32.000Z</time>
      </trkpt>
      <trkpt lat="43.63069" lon="4.27546">
        <ele>1.8</ele>
        <time>2019-05-30T13:13:37.000Z</time>
      </trkpt>
      <trkpt lat="43.63051" lon="4.27506">
        <ele>1.8</ele>
        <time>2019-05-30T13:13:42.000Z</time>
      </trkpt>
      <trkpt lat="43.63033" lon="4.27468">
        <ele>1</ele>
        <time>2019-05-30T13:13:47.000Z</time>
      </trkpt>
      <trkpt lat="43.63014" lon="4.27432">
        <ele>1</ele>
        <time>2019-05-30T13:13:52.000Z</time>
      </trkpt>
      <trkpt lat="43.62995" lon="4.27399">
        <ele>1</ele>
        <time>2019-05-30T13:13:57.000Z</time>
      </trkpt>
      <trkpt lat="43.62975" lon="4.27367">
        <ele>1</ele>
        <time>2019-05-30T13:14:02.000Z</time>
      </trkpt>
      <trkpt lat="43.62953" lon="4.27336">
        <ele>1</ele>
        <time>2019-05-30T13:14:07.000Z</time>
      </trkpt>
      <trkpt lat="43.62931" lon="4.27305">
        <ele>1</ele>
        <time>2019-05-30T13:14:12.000Z</time>
      </trkpt>
      <trkpt lat="43.62908" lon="4.27273">
        <ele>1.8</ele>
        <time>2019-05-30T13:14:17.000Z</time>
      </trkpt>
      <trkpt lat="43.62886" lon="4.27241">
        <ele>1</ele>
        <time>2019-05-30T13:14:22.000Z</time>
      </trkpt>
      <trkpt lat="43.62863" lon="4.2721">
        <ele>1.4</ele>
        <time>2019-05-30T13:14:27.000Z</time>
      </trkpt>
      <trkpt lat="43.6284" lon="4.2718">
        <ele>1.9</ele>
        <time>2019-05-30T13:14:32.000Z</time>
      </trkpt>
      <trkpt lat="43.62818" lon="4.27149">
        <ele>1</ele>
        <time>2019-05-30T13:14:37.000Z</time>
      </trkpt>
      <trkpt lat="43.62796" lon="4.27118">
        <ele>1</ele>
        <time>2019-05-30T13:14:42.000Z</time>
      </trkpt>
      <trkpt lat="43.62773" lon="4.27088">
        <ele>1</ele>
        <time>2019-05-30T13:14:47.000Z</time>
      </trkpt>
      <trkpt lat="43.62752" lon="4.27058">
        <ele>1</ele>
        <time>2019-05-30T13:14:52.000Z</time>
      </trkpt>
      <trkpt lat="43.62731" lon="4.27029">
        <ele>1</ele>
        <time>2019-05-30T13:14:57.000Z</time>
      </trkpt>
      <trkpt lat="43.62709" lon="4.26998">
        <ele>1</ele>
        <time>2019-05-30T13:15:02.000Z</time>
      </trkpt>
      <trkpt lat="43.62687" lon="4.26968">
        <ele>1</ele>
        <time>2019-05-30T13:15:07.000Z</time>
      </trkpt>
      <trkpt lat="43.62664" lon="4.26938">
        <ele>1</ele>
        <time>2019-05-30T13:15:12.000Z</time>
      </trkpt>
      <trkpt lat="43.62643" lon="4.26908">
        <ele>1</ele>
        <time>2019-05-30T13:15:17.000Z</time>
      </trkpt>
      <trkpt lat="43.62622" lon="4.26879">
        <ele>1</ele>
        <time>2019-05-30T13:15:22.000Z</time>
      </trkpt>
      <trkpt lat="43.62601" lon="4.26848">
        <ele>1</ele>
        <time>2019-05-30T13:15:27.000Z</time>
      </trkpt>
      <trkpt lat="43.6258" lon="4.26819">
        <ele>1</ele>
        <time>2019-05-30T13:15:32.000Z</time>
      </trkpt>
      <trkpt lat="43.62558" lon="4.26789">
        <ele>1</ele>
        <time>2019-05-30T13:15:37.000Z</time>
      </trkpt>
      <trkpt lat="43.62537" lon="4.26759">
        <ele>1</ele>
        <time>2019-05-30T13:15:42.000Z</time>
      </trkpt>
      <trkpt lat="43.62515" lon="4.26729">
        <ele>1</ele>
        <time>2019-05-30T13:15:47.000Z</time>
      </trkpt>
      <trkpt lat="43.62494" lon="4.26699">
        <ele>1</ele>
        <time>2019-05-30T13:15:52.000Z</time>
      </trkpt>
      <trkpt lat="43.62473" lon="4.2667">
        <ele>1</ele>
        <time>2019-05-30T13:15:57.000Z</time>
      </trkpt>
      <trkpt lat="43.62451" lon="4.2664">
        <ele>0.01</ele>
        <time>2019-05-30T13:16:02.000Z</time>
      </trkpt>
      <trkpt lat="43.62429" lon="4.26611">
        <ele>1</ele>
        <time>2019-05-30T13:16:07.000Z</time>
      </trkpt>
      <trkpt lat="43.62407" lon="4.2658">
        <ele>1</ele>
        <time>2019-05-30T13:16:12.000Z</time>
      </trkpt>
      <trkpt lat="43.62385" lon="4.26549">
        <ele>1</ele>
        <time>2019-05-30T13:16:17.000Z</time>
      </trkpt>
      <trkpt lat="43.62362" lon="4.26518">
        <ele>1</ele>
        <time>2019-05-30T13:16:22.000Z</time>
      </trkpt>
      <trkpt lat="43.6234" lon="4.26488">
        <ele>1</ele>
        <time>2019-05-30T13:16:27.000Z</time>
      </trkpt>
      <trkpt lat="43.62318" lon="4.26457">
        <ele>1</ele>
        <time>2019-05-30T13:16:32.000Z</time>
      </trkpt>
      <trkpt lat="43.62296" lon="4.26426">
        <ele>1</ele>
        <time>2019-05-30T13:16:37.000Z</time>
      </trkpt>
      <trkpt lat="43.62273" lon="4.26395">
        <ele>1</ele>
        <time>2019-05-30T13:16:42.000Z</time>
      </trkpt>
      <trkpt lat="43.6225" lon="4.26363">
        <ele>1</ele>
        <time>2019-05-30T13:16:47.000Z</time>
      </trkpt>
      <trkpt lat="43.62228" lon="4.26332">
        <ele>1</ele>
        <time>2019-05-30T13:16:52.000Z</time>
      </trkpt>
      <trkpt lat="43.62205" lon="4.26302">
        <ele>1</ele>
        <time>2019-05-30T13:16:57.000Z</time>
      </trkpt>
      <trkpt lat="43.62183" lon="4.26271">
        <ele>1</ele>
        <time>2019-05-30T13:17:02.000Z</time>
      </trkpt>
      <trkpt lat="43.6216" lon="4.26239">
        <ele>1</ele>
        <time>2019-05-30T13:17:07.000Z</time>
      </trkpt>
      <trkpt lat="43.62137" lon="4.26209">
        <ele>1</ele>
        <time>2019-05-30T13:17:12.000Z</time>
      </trkpt>
      <trkpt lat="43.62117" lon="4.2618">
        <ele>1</ele>
        <time>2019-05-30T13:17:17.000Z</time>
      </trkpt>
      <trkpt lat="43.62096" lon="4.26152">
        <ele>1</ele>
        <time>2019-05-30T13:17:22.000Z</time>
      </trkpt>
      <trkpt lat="43.62074" lon="4.26122">
        <ele>1</ele>
        <time>2019-05-30T13:17:27.000Z</time>
      </trkpt>
      <trkpt lat="43.62052" lon="4.26091">
        <ele>1</ele>
        <time>2019-05-30T13:17:32.000Z</time>
      </trkpt>
      <trkpt lat="43.62031" lon="4.26062">
        <ele>1</ele>
        <time>2019-05-30T13:17:37.000Z</time>
      </trkpt>
      <trkpt lat="43.62012" lon="4.26032">
        <ele>1</ele>
        <time>2019-05-30T13:17:42.000Z</time>
      </trkpt>
      <trkpt lat="43.6199" lon="4.26009">
        <ele>1</ele>
        <time>2019-05-30T13:17:47.000Z</time>
      </trkpt>
      <trkpt lat="43.61968" lon="4.25985">
        <ele>1</ele>
        <time>2019-05-30T13:17:52.000Z</time>
      </trkpt>
      <trkpt lat="43.61946" lon="4.25962">
        <ele>1</ele>
        <time>2019-05-30T13:17:57.000Z</time>
      </trkpt>
      <trkpt lat="43.61926" lon="4.25936">
        <ele>1</ele>
        <time>2019-05-30T13:18:02.000Z</time>
      </trkpt>
      <trkpt lat="43.61912" lon="4.25905">
        <ele>1</ele>
        <time>2019-05-30T13:18:07.000Z</time>
      </trkpt>
      <trkpt lat="43.61895" lon="4.25878">
        <ele>1</ele>
        <time>2019-05-30T13:18:12.000Z</time>
      </trkpt>
      <trkpt lat="43.61888" lon="4.2587">
        <ele>0.77</ele>
        <time>2019-05-30T13:19:58.000Z</time>
      </trkpt>
      <trkpt lat="43.61882" lon="4.25854">
        <ele>0.77</ele>
        <time>2019-05-30T13:20:03.000Z</time>
      </trkpt>
      <trkpt lat="43.61867" lon="4.25834">
        <ele>1</ele>
        <time>2019-05-30T13:20:08.000Z</time>
      </trkpt>
      <trkpt lat="43.61849" lon="4.2581">
        <ele>1</ele>
        <time>2019-05-30T13:20:13.000Z</time>
      </trkpt>
      <trkpt lat="43.61832" lon="4.25786">
        <ele>1</ele>
        <time>2019-05-30T13:20:18.000Z</time>
      </trkpt>
      <trkpt lat="43.61813" lon="4.2576">
        <ele>1</ele>
        <time>2019-05-30T13:20:23.000Z</time>
      </trkpt>
      <trkpt lat="43.61794" lon="4.25733">
        <ele>1</ele>
        <time>2019-05-30T13:20:28.000Z</time>
      </trkpt>
      <trkpt lat="43.61773" lon="4.25705">
        <ele>1</ele>
        <time>2019-05-30T13:20:33.000Z</time>
      </trkpt>
      <trkpt lat="43.61752" lon="4.25676">
        <ele>1</ele>
        <time>2019-05-30T13:20:38.000Z</time>
      </trkpt>
      <trkpt lat="43.61731" lon="4.25647">
        <ele>1</ele>
        <time>2019-05-30T13:20:43.000Z</time>
      </trkpt>
      <trkpt lat="43.61709" lon="4.25616">
        <ele>1</ele>
        <time>2019-05-30T13:20:48.000Z</time>
      </trkpt>
      <trkpt lat="43.61687" lon="4.25585">
        <ele>1</ele>
        <time>2019-05-30T13:20:53.000Z</time>
      </trkpt>
      <trkpt lat="43.61665" lon="4.25556">
        <ele>1</ele>
        <time>2019-05-30T13:20:58.000Z</time>
      </trkpt>
      <trkpt lat="43.61643" lon="4.25525">
        <ele>1</ele>
        <time>2019-05-30T13:21:03.000Z</time>
      </trkpt>
      <trkpt lat="43.6162" lon="4.25495">
        <ele>1</ele>
        <time>2019-05-30T13:21:08.000Z</time>
      </trkpt>
      <trkpt lat="43.61599" lon="4.25466">
        <ele>1</ele>
        <time>2019-05-30T13:21:13.000Z</time>
      </trkpt>
      <trkpt lat="43.61578" lon="4.25435">
        <ele>1</ele>
        <time>2019-05-30T13:21:18.000Z</time>
      </trkpt>
      <trkpt lat="43.61556" lon="4.25404">
        <ele>0.71</ele>
        <time>2019-05-30T13:21:23.000Z</time>
      </trkpt>
      <trkpt lat="43.61533" lon="4.25374">
        <ele>1</ele>
        <time>2019-05-30T13:21:28.000Z</time>
      </trkpt>
      <trkpt lat="43.61513" lon="4.25346">
        <ele>1</ele>
        <time>2019-05-30T13:21:33.000Z</time>
      </trkpt>
      <trkpt lat="43.61497" lon="4.25324">
        <ele>1</ele>
        <time>2019-05-30T13:21:38.000Z</time>
      </trkpt>
      <trkpt lat="43.61484" lon="4.25305">
        <ele>1</ele>
        <time>2019-05-30T13:21:43.000Z</time>
      </trkpt>
      <trkpt lat="43.61468" lon="4.25282">
        <ele>1</ele>
        <time>2019-05-30T13:21:48.000Z</time>
      </trkpt>
      <trkpt lat="43.61449" lon="4.25257">
        <ele>1.6</ele>
        <time>2019-05-30T13:21:53.000Z</time>
      </trkpt>
      <trkpt lat="43.61428" lon="4.25229">
        <ele>1.2</ele>
        <time>2019-05-30T13:21:58.000Z</time>
      </trkpt>
      <trkpt lat="43.61406" lon="4.252">
        <ele>1</ele>
        <time>2019-05-30T13:22:03.000Z</time>
      </trkpt>
      <trkpt lat="43.61384" lon="4.2517">
        <ele>1.9</ele>
        <time>2019-05-30T13:22:08.000Z</time>
      </trkpt>
      <trkpt lat="43.61363" lon="4.2514">
        <ele>2</ele>
        <time>2019-05-30T13:22:13.000Z</time>
      </trkpt>
      <trkpt lat="43.61341" lon="4.25111">
        <ele>1</ele>
        <time>2019-05-30T13:22:18.000Z</time>
      </trkpt>
      <trkpt lat="43.61319" lon="4.25081">
        <ele>1.5</ele>
        <time>2019-05-30T13:22:23.000Z</time>
      </trkpt>
      <trkpt lat="43.61297" lon="4.2505">
        <ele>1.9</ele>
        <time>2019-05-30T13:22:28.000Z</time>
      </trkpt>
      <trkpt lat="43.61276" lon="4.2502">
        <ele>0.71</ele>
        <time>2019-05-30T13:22:33.000Z</time>
      </trkpt>
      <trkpt lat="43.61254" lon="4.2499">
        <ele>1.4</ele>
        <time>2019-05-30T13:22:38.000Z</time>
      </trkpt>
      <trkpt lat="43.61231" lon="4.24958">
        <ele>1</ele>
        <time>2019-05-30T13:22:43.000Z</time>
      </trkpt>
      <trkpt lat="43.6121" lon="4.24927">
        <ele>1</ele>
        <time>2019-05-30T13:22:48.000Z</time>
      </trkpt>
      <trkpt lat="43.61188" lon="4.24901">
        <ele>1</ele>
        <time>2019-05-30T13:22:53.000Z</time>
      </trkpt>
      <trkpt lat="43.61168" lon="4.24872">
        <ele>1</ele>
        <time>2019-05-30T13:22:58.000Z</time>
      </trkpt>
      <trkpt lat="43.61146" lon="4.24842">
        <ele>1</ele>
        <time>2019-05-30T13:23:03.000Z</time>
      </trkpt>
      <trkpt lat="43.61125" lon="4.24814">
        <ele>1</ele>
        <time>2019-05-30T13:23:08.000Z</time>
      </trkpt>
      <trkpt lat="43.61103" lon="4.24784">
        <ele>0.77</ele>
        <time>2019-05-30T13:23:13.000Z</time>
      </trkpt>
      <trkpt lat="43.61082" lon="4.24753">
        <ele>0.82</ele>
        <time>2019-05-30T13:23:18.000Z</time>
      </trkpt>
      <trkpt lat="43.61059" lon="4.24722">
        <ele>1.76</ele>
        <time>2019-05-30T13:23:23.000Z</time>
      </trkpt>
      <trkpt lat="43.61037" lon="4.2469">
        <ele>0.54</ele>
        <time>2019-05-30T13:23:28.000Z</time>
      </trkpt>
      <trkpt lat="43.61014" lon="4.2466">
        <ele>0.53</ele>
        <time>2019-05-30T13:23:33.000Z</time>
      </trkpt>
      <trkpt lat="43.60991" lon="4.24629">
        <ele>1</ele>
        <time>2019-05-30T13:23:38.000Z</time>
      </trkpt>
      <trkpt lat="43.60969" lon="4.24597">
        <ele>1</ele>
        <time>2019-05-30T13:23:43.000Z</time>
      </trkpt>
      <trkpt lat="43.60945" lon="4.24565">
        <ele>0.77</ele>
        <time>2019-05-30T13:23:48.000Z</time>
      </trkpt>
      <trkpt lat="43.60922" lon="4.24533">
        <ele>0.77</ele>
        <time>2019-05-30T13:23:53.000Z</time>
      </trkpt>
      <trkpt lat="43.609" lon="4.24502">
        <ele>0.77</ele>
        <time>2019-05-30T13:23:58.000Z</time>
      </trkpt>
      <trkpt lat="43.60877" lon="4.24471">
        <ele>0.83</ele>
        <time>2019-05-30T13:24:03.000Z</time>
      </trkpt>
      <trkpt lat="43.60854" lon="4.24442">
        <ele>0.77</ele>
        <time>2019-05-30T13:24:08.000Z</time>
      </trkpt>
      <trkpt lat="43.60833" lon="4.24411">
        <ele>0.77</ele>
        <time>2019-05-30T13:24:13.000Z</time>
      </trkpt>
      <trkpt lat="43.60812" lon="4.2438">
        <ele>2</ele>
        <time>2019-05-30T13:24:18.000Z</time>
      </trkpt>
      <trkpt lat="43.60788" lon="4.24349">
        <ele>2</ele>
        <time>2019-05-30T13:24:23.000Z</time>
      </trkpt>
      <trkpt lat="43.60765" lon="4.24317">
        <ele>2</ele>
        <time>2019-05-30T13:24:28.000Z</time>
      </trkpt>
      <trkpt lat="43.60743" lon="4.24286">
        <ele>1</ele>
        <time>2019-05-30T13:24:33.000Z</time>
      </trkpt>
      <trkpt lat="43.60722" lon="4.24255">
        <ele>1</ele>
        <time>2019-05-30T13:24:38.000Z</time>
      </trkpt>
      <trkpt lat="43.60699" lon="4.24225">
        <ele>1</ele>
        <time>2019-05-30T13:24:43.000Z</time>
      </trkpt>
      <trkpt lat="43.60675" lon="4.24196">
        <ele>1</ele>
        <time>2019-05-30T13:24:48.000Z</time>
      </trkpt>
      <trkpt lat="43.60652" lon="4.24171">
        <ele>1</ele>
        <time>2019-05-30T13:24:53.000Z</time>
      </trkpt>
      <trkpt lat="43.60633" lon="4.2414">
        <ele>1</ele>
        <time>2019-05-30T13:24:58.000Z</time>
      </trkpt>
      <trkpt lat="43.60612" lon="4.24104">
        <ele>1</ele>
        <time>2019-05-30T13:25:03.000Z</time>
      </trkpt>
      <trkpt lat="43.60591" lon="4.24072">
        <ele>1</ele>
        <time>2019-05-30T13:25:08.000Z</time>
      </trkpt>
      <trkpt lat="43.60568" lon="4.24042">
        <ele>1</ele>
        <time>2019-05-30T13:25:13.000Z</time>
      </trkpt>
      <trkpt lat="43.60545" lon="4.24012">
        <ele>1</ele>
        <time>2019-05-30T13:25:18.000Z</time>
      </trkpt>
      <trkpt lat="43.60523" lon="4.23981">
        <ele>1</ele>
        <time>2019-05-30T13:25:23.000Z</time>
      </trkpt>
      <trkpt lat="43.60502" lon="4.2395">
        <ele>1</ele>
        <time>2019-05-30T13:25:28.000Z</time>
      </trkpt>
      <trkpt lat="43.6048" lon="4.23919">
        <ele>1</ele>
        <time>2019-05-30T13:25:33.000Z</time>
      </trkpt>
      <trkpt lat="43.60458" lon="4.23888">
        <ele>0.71</ele>
        <time>2019-05-30T13:25:38.000Z</time>
      </trkpt>
      <trkpt lat="43.60436" lon="4.2386">
        <ele>1</ele>
        <time>2019-05-30T13:25:43.000Z</time>
      </trkpt>
      <trkpt lat="43.60415" lon="4.2383">
        <ele>1</ele>
        <time>2019-05-30T13:25:48.000Z</time>
      </trkpt>
      <trkpt lat="43.60393" lon="4.23799">
        <ele>1</ele>
        <time>2019-05-30T13:25:53.000Z</time>
      </trkpt>
      <trkpt lat="43.6037" lon="4.23768">
        <ele>1</ele>
        <time>2019-05-30T13:25:58.000Z</time>
      </trkpt>
      <trkpt lat="43.60348" lon="4.23738">
        <ele>1</ele>
        <time>2019-05-30T13:26:03.000Z</time>
      </trkpt>
      <trkpt lat="43.60326" lon="4.23707">
        <ele>1</ele>
        <time>2019-05-30T13:26:08.000Z</time>
      </trkpt>
      <trkpt lat="43.60302" lon="4.23676">
        <ele>1</ele>
        <time>2019-05-30T13:26:13.000Z</time>
      </trkpt>
      <trkpt lat="43.6028" lon="4.23644">
        <ele>1</ele>
        <time>2019-05-30T13:26:18.000Z</time>
      </trkpt>
      <trkpt lat="43.60256" lon="4.23613">
        <ele>1</ele>
        <time>2019-05-30T13:26:23.000Z</time>
      </trkpt>
      <trkpt lat="43.60235" lon="4.23582">
        <ele>1</ele>
        <time>2019-05-30T13:26:28.000Z</time>
      </trkpt>
      <trkpt lat="43.60213" lon="4.23553">
        <ele>2</ele>
        <time>2019-05-30T13:26:33.000Z</time>
      </trkpt>
      <trkpt lat="43.60191" lon="4.23523">
        <ele>2</ele>
        <time>2019-05-30T13:26:38.000Z</time>
      </trkpt>
      <trkpt lat="43.60169" lon="4.23492">
        <ele>3</ele>
        <time>2019-05-30T13:26:43.000Z</time>
      </trkpt>
      <trkpt lat="43.60147" lon="4.23461">
        <ele>2</ele>
        <time>2019-05-30T13:26:48.000Z</time>
      </trkpt>
      <trkpt lat="43.60125" lon="4.2343">
        <ele>2</ele>
        <time>2019-05-30T13:26:53.000Z</time>
      </trkpt>
      <trkpt lat="43.60103" lon="4.234">
        <ele>1</ele>
        <time>2019-05-30T13:26:58.000Z</time>
      </trkpt>
      <trkpt lat="43.60081" lon="4.2337">
        <ele>1</ele>
        <time>2019-05-30T13:27:03.000Z</time>
      </trkpt>
      <trkpt lat="43.60058" lon="4.23339">
        <ele>1</ele>
        <time>2019-05-30T13:27:08.000Z</time>
      </trkpt>
      <trkpt lat="43.60036" lon="4.23308">
        <ele>1</ele>
        <time>2019-05-30T13:27:13.000Z</time>
      </trkpt>
      <trkpt lat="43.60013" lon="4.23278">
        <ele>1</ele>
        <time>2019-05-30T13:27:18.000Z</time>
      </trkpt>
      <trkpt lat="43.59991" lon="4.23246">
        <ele>1.1</ele>
        <time>2019-05-30T13:27:23.000Z</time>
      </trkpt>
      <trkpt lat="43.59968" lon="4.23216">
        <ele>1</ele>
        <time>2019-05-30T13:27:28.000Z</time>
      </trkpt>
      <trkpt lat="43.59947" lon="4.23187">
        <ele>1</ele>
        <time>2019-05-30T13:27:33.000Z</time>
      </trkpt>
      <trkpt lat="43.59926" lon="4.23157">
        <ele>1</ele>
        <time>2019-05-30T13:27:38.000Z</time>
      </trkpt>
      <trkpt lat="43.59904" lon="4.23128">
        <ele>1.2</ele>
        <time>2019-05-30T13:27:43.000Z</time>
      </trkpt>
      <trkpt lat="43.59883" lon="4.23099">
        <ele>1</ele>
        <time>2019-05-30T13:27:48.000Z</time>
      </trkpt>
      <trkpt lat="43.5986" lon="4.23069">
        <ele>1</ele>
        <time>2019-05-30T13:27:53.000Z</time>
      </trkpt>
      <trkpt lat="43.59838" lon="4.23039">
        <ele>1</ele>
        <time>2019-05-30T13:27:58.000Z</time>
      </trkpt>
      <trkpt lat="43.59816" lon="4.23008">
        <ele>2</ele>
        <time>2019-05-30T13:28:03.000Z</time>
      </trkpt>
      <trkpt lat="43.59793" lon="4.22978">
        <ele>2</ele>
        <time>2019-05-30T13:28:08.000Z</time>
      </trkpt>
      <trkpt lat="43.5977" lon="4.22945">
        <ele>2</ele>
        <time>2019-05-30T13:28:13.000Z</time>
      </trkpt>
      <trkpt lat="43.59747" lon="4.22914">
        <ele>1</ele>
        <time>2019-05-30T13:28:18.000Z</time>
      </trkpt>
      <trkpt lat="43.59725" lon="4.22882">
        <ele>1</ele>
        <time>2019-05-30T13:28:23.000Z</time>
      </trkpt>
      <trkpt lat="43.59702" lon="4.22851">
        <ele>1</ele>
        <time>2019-05-30T13:28:28.000Z</time>
      </trkpt>
      <trkpt lat="43.59678" lon="4.2282">
        <ele>1</ele>
        <time>2019-05-30T13:28:33.000Z</time>
      </trkpt>
      <trkpt lat="43.59656" lon="4.22789">
        <ele>1</ele>
        <time>2019-05-30T13:28:38.000Z</time>
      </trkpt>
      <trkpt lat="43.59632" lon="4.22757">
        <ele>1</ele>
        <time>2019-05-30T13:28:43.000Z</time>
      </trkpt>
      <trkpt lat="43.59608" lon="4.22725">
        <ele>1</ele>
        <time>2019-05-30T13:28:48.000Z</time>
      </trkpt>
      <trkpt lat="43.59586" lon="4.22693">
        <ele>1</ele>
        <time>2019-05-30T13:28:53.000Z</time>
      </trkpt>
      <trkpt lat="43.59562" lon="4.22661">
        <ele>1.8</ele>
        <time>2019-05-30T13:28:58.000Z</time>
      </trkpt>
      <trkpt lat="43.5954" lon="4.22629">
        <ele>1.8</ele>
        <time>2019-05-30T13:29:03.000Z</time>
      </trkpt>
      <trkpt lat="43.59516" lon="4.22597">
        <ele>1.5</ele>
        <time>2019-05-30T13:29:08.000Z</time>
      </trkpt>
      <trkpt lat="43.59489" lon="4.22572">
        <ele>1</ele>
        <time>2019-05-30T13:29:13.000Z</time>
      </trkpt>
      <trkpt lat="43.59468" lon="4.2254">
        <ele>1.6</ele>
        <time>2019-05-30T13:29:18.000Z</time>
      </trkpt>
      <trkpt lat="43.59448" lon="4.22508">
        <ele>2</ele>
        <time>2019-05-30T13:29:23.000Z</time>
      </trkpt>
      <trkpt lat="43.59428" lon="4.22478">
        <ele>2</ele>
        <time>2019-05-30T13:29:28.000Z</time>
      </trkpt>
      <trkpt lat="43.59406" lon="4.22448">
        <ele>1.7</ele>
        <time>2019-05-30T13:29:33.000Z</time>
      </trkpt>
      <trkpt lat="43.59385" lon="4.22419">
        <ele>1.9</ele>
        <time>2019-05-30T13:29:38.000Z</time>
      </trkpt>
      <trkpt lat="43.59363" lon="4.22388">
        <ele>2</ele>
        <time>2019-05-30T13:29:43.000Z</time>
      </trkpt>
      <trkpt lat="43.59341" lon="4.22356">
        <ele>1.9</ele>
        <time>2019-05-30T13:29:48.000Z</time>
      </trkpt>
      <trkpt lat="43.59319" lon="4.22326">
        <ele>1.6</ele>
        <time>2019-05-30T13:29:53.000Z</time>
      </trkpt>
      <trkpt lat="43.59295" lon="4.22295">
        <ele>2</ele>
        <time>2019-05-30T13:29:58.000Z</time>
      </trkpt>
      <trkpt lat="43.59272" lon="4.2226">
        <ele>1.9</ele>
        <time>2019-05-30T13:30:03.000Z</time>
      </trkpt>
      <trkpt lat="43.59249" lon="4.22228">
        <ele>1</ele>
        <time>2019-05-30T13:30:08.000Z</time>
      </trkpt>
      <trkpt lat="43.59225" lon="4.22196">
        <ele>1</ele>
        <time>2019-05-30T13:30:13.000Z</time>
      </trkpt>
      <trkpt lat="43.59202" lon="4.22163">
        <ele>1</ele>
        <time>2019-05-30T13:30:18.000Z</time>
      </trkpt>
      <trkpt lat="43.59178" lon="4.22131">
        <ele>1</ele>
        <time>2019-05-30T13:30:23.000Z</time>
      </trkpt>
      <trkpt lat="43.59155" lon="4.22099">
        <ele>1</ele>
        <time>2019-05-30T13:30:28.000Z</time>
      </trkpt>
      <trkpt lat="43.59134" lon="4.22065">
        <ele>1</ele>
        <time>2019-05-30T13:30:33.000Z</time>
      </trkpt>
      <trkpt lat="43.59115" lon="4.22031">
        <ele>1</ele>
        <time>2019-05-30T13:30:38.000Z</time>
      </trkpt>
      <trkpt lat="43.59098" lon="4.21996">
        <ele>1</ele>
        <time>2019-05-30T13:30:43.000Z</time>
      </trkpt>
      <trkpt lat="43.5908" lon="4.2196">
        <ele>1</ele>
        <time>2019-05-30T13:30:48.000Z</time>
      </trkpt>
      <trkpt lat="43.59065" lon="4.21923">
        <ele>1</ele>
        <time>2019-05-30T13:30:53.000Z</time>
      </trkpt>
      <trkpt lat="43.59049" lon="4.21885">
        <ele>2.9</ele>
        <time>2019-05-30T13:30:58.000Z</time>
      </trkpt>
      <trkpt lat="43.59033" lon="4.21844">
        <ele>1.8</ele>
        <time>2019-05-30T13:31:03.000Z</time>
      </trkpt>
      <trkpt lat="43.5902" lon="4.21805">
        <ele>2</ele>
        <time>2019-05-30T13:31:08.000Z</time>
      </trkpt>
      <trkpt lat="43.59009" lon="4.21772">
        <ele>1.4</ele>
        <time>2019-05-30T13:31:13.000Z</time>
      </trkpt>
      <trkpt lat="43.58997" lon="4.21737">
        <ele>2</ele>
        <time>2019-05-30T13:31:18.000Z</time>
      </trkpt>
      <trkpt lat="43.58985" lon="4.21698">
        <ele>1.5</ele>
        <time>2019-05-30T13:31:23.000Z</time>
      </trkpt>
      <trkpt lat="43.58972" lon="4.2166">
        <ele>1</ele>
        <time>2019-05-30T13:31:28.000Z</time>
      </trkpt>
      <trkpt lat="43.5896" lon="4.21621">
        <ele>1</ele>
        <time>2019-05-30T13:31:33.000Z</time>
      </trkpt>
      <trkpt lat="43.58947" lon="4.21582">
        <ele>1</ele>
        <time>2019-05-30T13:31:38.000Z</time>
      </trkpt>
      <trkpt lat="43.58935" lon="4.21542">
        <ele>1</ele>
        <time>2019-05-30T13:31:43.000Z</time>
      </trkpt>
      <trkpt lat="43.58922" lon="4.21503">
        <ele>1</ele>
        <time>2019-05-30T13:31:48.000Z</time>
      </trkpt>
      <trkpt lat="43.5891" lon="4.21463">
        <ele>1</ele>
        <time>2019-05-30T13:31:53.000Z</time>
      </trkpt>
      <trkpt lat="43.58897" lon="4.21425">
        <ele>1</ele>
        <time>2019-05-30T13:31:58.000Z</time>
      </trkpt>
      <trkpt lat="43.58883" lon="4.21386">
        <ele>1.9</ele>
        <time>2019-05-30T13:32:03.000Z</time>
      </trkpt>
      <trkpt lat="43.5887" lon="4.21347">
        <ele>1</ele>
        <time>2019-05-30T13:32:08.000Z</time>
      </trkpt>
      <trkpt lat="43.5886" lon="4.21306">
        <ele>1</ele>
        <time>2019-05-30T13:32:13.000Z</time>
      </trkpt>
      <trkpt lat="43.58849" lon="4.21266">
        <ele>1</ele>
        <time>2019-05-30T13:32:18.000Z</time>
      </trkpt>
      <trkpt lat="43.58839" lon="4.21226">
        <ele>1</ele>
        <time>2019-05-30T13:32:23.000Z</time>
      </trkpt>
      <trkpt lat="43.58832" lon="4.21187">
        <ele>2</ele>
        <time>2019-05-30T13:32:28.000Z</time>
      </trkpt>
      <trkpt lat="43.58827" lon="4.21148">
        <ele>2</ele>
        <time>2019-05-30T13:32:33.000Z</time>
      </trkpt>
      <trkpt lat="43.58821" lon="4.21108">
        <ele>2</ele>
        <time>2019-05-30T13:32:38.000Z</time>
      </trkpt>
      <trkpt lat="43.5882" lon="4.21079">
        <ele>2</ele>
        <time>2019-05-30T13:32:43.000Z</time>
      </trkpt>
      <trkpt lat="43.5882" lon="4.21064">
        <ele>2</ele>
        <time>2019-05-30T13:32:55.000Z</time>
      </trkpt>
      <trkpt lat="43.58816" lon="4.21048">
        <ele>2</ele>
        <time>2019-05-30T13:33:00.000Z</time>
      </trkpt>
      <trkpt lat="43.58834" lon="4.21041">
        <ele>2</ele>
        <time>2019-05-30T13:33:05.000Z</time>
      </trkpt>
      <trkpt lat="43.58855" lon="4.21038">
        <ele>2</ele>
        <time>2019-05-30T13:33:10.000Z</time>
      </trkpt>
      <trkpt lat="43.58876" lon="4.21044">
        <ele>2</ele>
        <time>2019-05-30T13:33:15.000Z</time>
      </trkpt>
      <trkpt lat="43.58892" lon="4.21063">
        <ele>1</ele>
        <time>2019-05-30T13:33:20.000Z</time>
      </trkpt>
      <trkpt lat="43.58913" lon="4.21059">
        <ele>1</ele>
        <time>2019-05-30T13:33:25.000Z</time>
      </trkpt>
      <trkpt lat="43.58933" lon="4.21051">
        <ele>1</ele>
        <time>2019-05-30T13:33:30.000Z</time>
      </trkpt>
      <trkpt lat="43.58951" lon="4.21042">
        <ele>1</ele>
        <time>2019-05-30T13:33:35.000Z</time>
      </trkpt>
      <trkpt lat="43.58976" lon="4.21035">
        <ele>1</ele>
        <time>2019-05-30T13:33:40.000Z</time>
      </trkpt>
      <trkpt lat="43.59" lon="4.21027">
        <ele>1</ele>
        <time>2019-05-30T13:33:45.000Z</time>
      </trkpt>
      <trkpt lat="43.59025" lon="4.21017">
        <ele>1</ele>
        <time>2019-05-30T13:33:50.000Z</time>
      </trkpt>
      <trkpt lat="43.59048" lon="4.21006">
        <ele>1</ele>
        <time>2019-05-30T13:33:55.000Z</time>
      </trkpt>
      <trkpt lat="43.59071" lon="4.20996">
        <ele>1</ele>
        <time>2019-05-30T13:34:00.000Z</time>
      </trkpt>
      <trkpt lat="43.59094" lon="4.20986">
        <ele>1</ele>
        <time>2019-05-30T13:34:05.000Z</time>
      </trkpt>
      <trkpt lat="43.59115" lon="4.20978">
        <ele>1</ele>
        <time>2019-05-30T13:34:10.000Z</time>
      </trkpt>
      <trkpt lat="43.59138" lon="4.20969">
        <ele>1</ele>
        <time>2019-05-30T13:34:15.000Z</time>
      </trkpt>
      <trkpt lat="43.59159" lon="4.2096">
        <ele>1</ele>
        <time>2019-05-30T13:34:20.000Z</time>
      </trkpt>
      <trkpt lat="43.59179" lon="4.20952">
        <ele>1</ele>
        <time>2019-05-30T13:34:25.000Z</time>
      </trkpt>
      <trkpt lat="43.59199" lon="4.20944">
        <ele>1</ele>
        <time>2019-05-30T13:34:30.000Z</time>
      </trkpt>
      <trkpt lat="43.59213" lon="4.20938">
        <ele>1</ele>
        <time>2019-05-30T13:34:35.000Z</time>
      </trkpt>
      <trkpt lat="43.59223" lon="4.20936">
        <ele>0.5</ele>
        <time>2019-05-30T13:34:40.000Z</time>
      </trkpt>
      <trkpt lat="43.59214" lon="4.2094">
        <ele>1</ele>
        <time>2019-05-30T13:35:13.000Z</time>
      </trkpt>
      <trkpt lat="43.59219" lon="4.20928">
        <ele>1</ele>
        <time>2019-05-30T13:43:21.000Z</time>
      </trkpt>
      <trkpt lat="43.59204" lon="4.20923">
        <ele>1</ele>
        <time>2019-05-30T13:43:26.000Z</time>
      </trkpt>
      <trkpt lat="43.59185" lon="4.2094">
        <ele>1</ele>
        <time>2019-05-30T13:43:31.000Z</time>
      </trkpt>
      <trkpt lat="43.59163" lon="4.20952">
        <ele>1</ele>
        <time>2019-05-30T13:43:36.000Z</time>
      </trkpt>
      <trkpt lat="43.59139" lon="4.20962">
        <ele>1</ele>
        <time>2019-05-30T13:43:41.000Z</time>
      </trkpt>
      <trkpt lat="43.59112" lon="4.20974">
        <ele>1</ele>
        <time>2019-05-30T13:43:46.000Z</time>
      </trkpt>
      <trkpt lat="43.59084" lon="4.20985">
        <ele>1</ele>
        <time>2019-05-30T13:43:51.000Z</time>
      </trkpt>
      <trkpt lat="43.59057" lon="4.20998">
        <ele>1</ele>
        <time>2019-05-30T13:43:56.000Z</time>
      </trkpt>
      <trkpt lat="43.59027" lon="4.2101">
        <ele>1</ele>
        <time>2019-05-30T13:44:01.000Z</time>
      </trkpt>
      <trkpt lat="43.58996" lon="4.21022">
        <ele>1</ele>
        <time>2019-05-30T13:44:06.000Z</time>
      </trkpt>
      <trkpt lat="43.58964" lon="4.2103">
        <ele>1</ele>
        <time>2019-05-30T13:44:11.000Z</time>
      </trkpt>
      <trkpt lat="43.58934" lon="4.2103">
        <ele>1</ele>
        <time>2019-05-30T13:44:16.000Z</time>
      </trkpt>
      <trkpt lat="43.5891" lon="4.21023">
        <ele>2</ele>
        <time>2019-05-30T13:44:21.000Z</time>
      </trkpt>
      <trkpt lat="43.5889" lon="4.21015">
        <ele>2.45</ele>
        <time>2019-05-30T13:44:26.000Z</time>
      </trkpt>
      <trkpt lat="43.58875" lon="4.21009">
        <ele>3.75</ele>
        <time>2019-05-30T13:44:31.000Z</time>
      </trkpt>
      <trkpt lat="43.58861" lon="4.21005">
        <ele>5</ele>
        <time>2019-05-30T13:44:36.000Z</time>
      </trkpt>
      <trkpt lat="43.58848" lon="4.21002">
        <ele>5.52</ele>
        <time>2019-05-30T13:44:41.000Z</time>
      </trkpt>
      <trkpt lat="43.58835" lon="4.21001">
        <ele>6.75</ele>
        <time>2019-05-30T13:44:46.000Z</time>
      </trkpt>
      <trkpt lat="43.5882" lon="4.21001">
        <ele>7.52</ele>
        <time>2019-05-30T13:44:51.000Z</time>
      </trkpt>
      <trkpt lat="43.58805" lon="4.21002">
        <ele>7.75</ele>
        <time>2019-05-30T13:44:56.000Z</time>
      </trkpt>
      <trkpt lat="43.58793" lon="4.21002">
        <ele>7.71</ele>
        <time>2019-05-30T13:45:01.000Z</time>
      </trkpt>
      <trkpt lat="43.58778" lon="4.21003">
        <ele>8.76</ele>
        <time>2019-05-30T13:45:06.000Z</time>
      </trkpt>
      <trkpt lat="43.5876" lon="4.21003">
        <ele>8.77</ele>
        <time>2019-05-30T13:45:11.000Z</time>
      </trkpt>
      <trkpt lat="43.58741" lon="4.21003">
        <ele>7.83</ele>
        <time>2019-05-30T13:45:16.000Z</time>
      </trkpt>
      <trkpt lat="43.5872" lon="4.21004">
        <ele>6.77</ele>
        <time>2019-05-30T13:45:21.000Z</time>
      </trkpt>
      <trkpt lat="43.58694" lon="4.21002">
        <ele>6.02</ele>
        <time>2019-05-30T13:45:26.000Z</time>
      </trkpt>
      <trkpt lat="43.58667" lon="4.20985">
        <ele>3.84</ele>
        <time>2019-05-30T13:45:31.000Z</time>
      </trkpt>
      <trkpt lat="43.58641" lon="4.20961">
        <ele>2.02</ele>
        <time>2019-05-30T13:45:36.000Z</time>
      </trkpt>
      <trkpt lat="43.58611" lon="4.20957">
        <ele>0.02</ele>
        <time>2019-05-30T13:45:41.000Z</time>
      </trkpt>
      <trkpt lat="43.58597" lon="4.20956">
        <ele>7</ele>
        <time>2019-05-30T13:45:46.000Z</time>
      </trkpt>
      <trkpt lat="43.58602" lon="4.20943">
        <ele>7</ele>
        <time>2019-05-30T13:45:52.000Z</time>
      </trkpt>
      <trkpt lat="43.58619" lon="4.20947">
        <ele>7</ele>
        <time>2019-05-30T13:45:57.000Z</time>
      </trkpt>
      <trkpt lat="43.58638" lon="4.20949">
        <ele>7</ele>
        <time>2019-05-30T13:46:02.000Z</time>
      </trkpt>
      <trkpt lat="43.58658" lon="4.20952">
        <ele>7</ele>
        <time>2019-05-30T13:46:07.000Z</time>
      </trkpt>
      <trkpt lat="43.58681" lon="4.20956">
        <ele>5</ele>
        <time>2019-05-30T13:46:12.000Z</time>
      </trkpt>
      <trkpt lat="43.58703" lon="4.20964">
        <ele>5</ele>
        <time>2019-05-30T13:46:17.000Z</time>
      </trkpt>
      <trkpt lat="43.58724" lon="4.20975">
        <ele>5</ele>
        <time>2019-05-30T13:46:22.000Z</time>
      </trkpt>
      <trkpt lat="43.5874" lon="4.20994">
        <ele>5</ele>
        <time>2019-05-30T13:46:27.000Z</time>
      </trkpt>
      <trkpt lat="43.58738" lon="4.21023">
        <ele>2</ele>
        <time>2019-05-30T13:46:32.000Z</time>
      </trkpt>
      <trkpt lat="43.58731" lon="4.21036">
        <ele>0.56</ele>
        <time>2019-05-30T13:46:37.000Z</time>
      </trkpt>
      <trkpt lat="43.58723" lon="4.2106">
        <ele>2</ele>
        <time>2019-05-30T13:46:42.000Z</time>
      </trkpt>
      <trkpt lat="43.58724" lon="4.21093">
        <ele>2</ele>
        <time>2019-05-30T13:46:47.000Z</time>
      </trkpt>
      <trkpt lat="43.58727" lon="4.21126">
        <ele>2</ele>
        <time>2019-05-30T13:46:52.000Z</time>
      </trkpt>
      <trkpt lat="43.5873" lon="4.21161">
        <ele>2</ele>
        <time>2019-05-30T13:46:57.000Z</time>
      </trkpt>
      <trkpt lat="43.58735" lon="4.21195">
        <ele>2</ele>
        <time>2019-05-30T13:47:02.000Z</time>
      </trkpt>
      <trkpt lat="43.58741" lon="4.2123">
        <ele>1</ele>
        <time>2019-05-30T13:47:07.000Z</time>
      </trkpt>
      <trkpt lat="43.58746" lon="4.21265">
        <ele>1</ele>
        <time>2019-05-30T13:47:12.000Z</time>
      </trkpt>
      <trkpt lat="43.58756" lon="4.213">
        <ele>1</ele>
        <time>2019-05-30T13:47:17.000Z</time>
      </trkpt>
      <trkpt lat="43.58764" lon="4.21334">
        <ele>1</ele>
        <time>2019-05-30T13:47:22.000Z</time>
      </trkpt>
      <trkpt lat="43.58772" lon="4.21367">
        <ele>2</ele>
        <time>2019-05-30T13:47:27.000Z</time>
      </trkpt>
      <trkpt lat="43.58782" lon="4.21399">
        <ele>2</ele>
        <time>2019-05-30T13:47:32.000Z</time>
      </trkpt>
      <trkpt lat="43.58792" lon="4.2143">
        <ele>2</ele>
        <time>2019-05-30T13:47:37.000Z</time>
      </trkpt>
      <trkpt lat="43.58802" lon="4.21462">
        <ele>2</ele>
        <time>2019-05-30T13:47:42.000Z</time>
      </trkpt>
      <trkpt lat="43.58813" lon="4.21494">
        <ele>2</ele>
        <time>2019-05-30T13:47:47.000Z</time>
      </trkpt>
      <trkpt lat="43.58822" lon="4.21525">
        <ele>2</ele>
        <time>2019-05-30T13:47:52.000Z</time>
      </trkpt>
      <trkpt lat="43.58835" lon="4.21557">
        <ele>1</ele>
        <time>2019-05-30T13:47:57.000Z</time>
      </trkpt>
      <trkpt lat="43.58845" lon="4.21587">
        <ele>1</ele>
        <time>2019-05-30T13:48:02.000Z</time>
      </trkpt>
      <trkpt lat="43.58856" lon="4.21618">
        <ele>1</ele>
        <time>2019-05-30T13:48:07.000Z</time>
      </trkpt>
      <trkpt lat="43.58867" lon="4.21652">
        <ele>1</ele>
        <time>2019-05-30T13:48:12.000Z</time>
      </trkpt>
      <trkpt lat="43.58868" lon="4.21684">
        <ele>1</ele>
        <time>2019-05-30T13:48:17.000Z</time>
      </trkpt>
      <trkpt lat="43.58846" lon="4.21681">
        <ele>1</ele>
        <time>2019-05-30T13:48:22.000Z</time>
      </trkpt>
      <trkpt lat="43.58826" lon="4.21657">
        <ele>1</ele>
        <time>2019-05-30T13:48:27.000Z</time>
      </trkpt>
      <trkpt lat="43.58807" lon="4.2163">
        <ele>2</ele>
        <time>2019-05-30T13:48:32.000Z</time>
      </trkpt>
      <trkpt lat="43.58788" lon="4.21603">
        <ele>2</ele>
        <time>2019-05-30T13:48:37.000Z</time>
      </trkpt>
      <trkpt lat="43.58761" lon="4.21586">
        <ele>2</ele>
        <time>2019-05-30T13:48:42.000Z</time>
      </trkpt>
      <trkpt lat="43.58748" lon="4.21554">
        <ele>3</ele>
        <time>2019-05-30T13:48:47.000Z</time>
      </trkpt>
      <trkpt lat="43.58732" lon="4.21526">
        <ele>3</ele>
        <time>2019-05-30T13:48:52.000Z</time>
      </trkpt>
      <trkpt lat="43.58715" lon="4.21499">
        <ele>3</ele>
        <time>2019-05-30T13:48:57.000Z</time>
      </trkpt>
      <trkpt lat="43.58694" lon="4.21471">
        <ele>3</ele>
        <time>2019-05-30T13:49:02.000Z</time>
      </trkpt>
      <trkpt lat="43.58673" lon="4.21443">
        <ele>2</ele>
        <time>2019-05-30T13:49:07.000Z</time>
      </trkpt>
      <trkpt lat="43.58653" lon="4.21415">
        <ele>1</ele>
        <time>2019-05-30T13:49:12.000Z</time>
      </trkpt>
      <trkpt lat="43.58631" lon="4.21387">
        <ele>2</ele>
        <time>2019-05-30T13:49:17.000Z</time>
      </trkpt>
      <trkpt lat="43.58611" lon="4.21361">
        <ele>2</ele>
        <time>2019-05-30T13:49:22.000Z</time>
      </trkpt>
      <trkpt lat="43.58593" lon="4.21332">
        <ele>1</ele>
        <time>2019-05-30T13:49:27.000Z</time>
      </trkpt>
      <trkpt lat="43.58573" lon="4.21303">
        <ele>1</ele>
        <time>2019-05-30T13:49:32.000Z</time>
      </trkpt>
      <trkpt lat="43.58551" lon="4.21275">
        <ele>1</ele>
        <time>2019-05-30T13:49:37.000Z</time>
      </trkpt>
      <trkpt lat="43.58531" lon="4.21246">
        <ele>2</ele>
        <time>2019-05-30T13:49:42.000Z</time>
      </trkpt>
      <trkpt lat="43.5851" lon="4.21216">
        <ele>2</ele>
        <time>2019-05-30T13:49:47.000Z</time>
      </trkpt>
      <trkpt lat="43.58488" lon="4.21185">
        <ele>3</ele>
        <time>2019-05-30T13:49:52.000Z</time>
      </trkpt>
      <trkpt lat="43.58467" lon="4.21156">
        <ele>3</ele>
        <time>2019-05-30T13:49:57.000Z</time>
      </trkpt>
      <trkpt lat="43.58444" lon="4.21127">
        <ele>3</ele>
        <time>2019-05-30T13:50:02.000Z</time>
      </trkpt>
      <trkpt lat="43.58422" lon="4.21097">
        <ele>4</ele>
        <time>2019-05-30T13:50:07.000Z</time>
      </trkpt>
      <trkpt lat="43.584" lon="4.21067">
        <ele>4</ele>
        <time>2019-05-30T13:50:12.000Z</time>
      </trkpt>
      <trkpt lat="43.58377" lon="4.21035">
        <ele>4</ele>
        <time>2019-05-30T13:50:17.000Z</time>
      </trkpt>
      <trkpt lat="43.58357" lon="4.21004">
        <ele>3</ele>
        <time>2019-05-30T13:50:22.000Z</time>
      </trkpt>
      <trkpt lat="43.58334" lon="4.20974">
        <ele>3</ele>
        <time>2019-05-30T13:50:27.000Z</time>
      </trkpt>
      <trkpt lat="43.58312" lon="4.20943">
        <ele>3</ele>
        <time>2019-05-30T13:50:32.000Z</time>
      </trkpt>
      <trkpt lat="43.5829" lon="4.20912">
        <ele>3</ele>
        <time>2019-05-30T13:50:37.000Z</time>
      </trkpt>
      <trkpt lat="43.58268" lon="4.20883">
        <ele>3</ele>
        <time>2019-05-30T13:50:42.000Z</time>
      </trkpt>
      <trkpt lat="43.58247" lon="4.20853">
        <ele>3</ele>
        <time>2019-05-30T13:50:47.000Z</time>
      </trkpt>
      <trkpt lat="43.58226" lon="4.20823">
        <ele>3</ele>
        <time>2019-05-30T13:50:52.000Z</time>
      </trkpt>
      <trkpt lat="43.58204" lon="4.20792">
        <ele>2</ele>
        <time>2019-05-30T13:50:57.000Z</time>
      </trkpt>
      <trkpt lat="43.5818" lon="4.20761">
        <ele>2</ele>
        <time>2019-05-30T13:51:02.000Z</time>
      </trkpt>
      <trkpt lat="43.58156" lon="4.20729">
        <ele>2</ele>
        <time>2019-05-30T13:51:07.000Z</time>
      </trkpt>
      <trkpt lat="43.58133" lon="4.20698">
        <ele>2</ele>
        <time>2019-05-30T13:51:12.000Z</time>
      </trkpt>
      <trkpt lat="43.58109" lon="4.20666">
        <ele>2</ele>
        <time>2019-05-30T13:51:17.000Z</time>
      </trkpt>
      <trkpt lat="43.58085" lon="4.20634">
        <ele>2</ele>
        <time>2019-05-30T13:51:22.000Z</time>
      </trkpt>
      <trkpt lat="43.58061" lon="4.20602">
        <ele>2</ele>
        <time>2019-05-30T13:51:27.000Z</time>
      </trkpt>
      <trkpt lat="43.58038" lon="4.2057">
        <ele>2</ele>
        <time>2019-05-30T13:51:32.000Z</time>
      </trkpt>
      <trkpt lat="43.58017" lon="4.20539">
        <ele>2</ele>
        <time>2019-05-30T13:51:37.000Z</time>
      </trkpt>
      <trkpt lat="43.57997" lon="4.20509">
        <ele>1</ele>
        <time>2019-05-30T13:51:42.000Z</time>
      </trkpt>
      <trkpt lat="43.57977" lon="4.20478">
        <ele>2</ele>
        <time>2019-05-30T13:51:47.000Z</time>
      </trkpt>
      <trkpt lat="43.57957" lon="4.20446">
        <ele>2</ele>
        <time>2019-05-30T13:51:52.000Z</time>
      </trkpt>
      <trkpt lat="43.57937" lon="4.20416">
        <ele>3</ele>
        <time>2019-05-30T13:51:57.000Z</time>
      </trkpt>
      <trkpt lat="43.57915" lon="4.20385">
        <ele>3</ele>
        <time>2019-05-30T13:52:02.000Z</time>
      </trkpt>
      <trkpt lat="43.57891" lon="4.20358">
        <ele>3</ele>
        <time>2019-05-30T13:52:07.000Z</time>
      </trkpt>
      <trkpt lat="43.57867" lon="4.20329">
        <ele>3</ele>
        <time>2019-05-30T13:52:12.000Z</time>
      </trkpt>
      <trkpt lat="43.57845" lon="4.20297">
        <ele>3</ele>
        <time>2019-05-30T13:52:17.000Z</time>
      </trkpt>
      <trkpt lat="43.57823" lon="4.20264">
        <ele>3</ele>
        <time>2019-05-30T13:52:22.000Z</time>
      </trkpt>
      <trkpt lat="43.57801" lon="4.20234">
        <ele>2</ele>
        <time>2019-05-30T13:52:27.000Z</time>
      </trkpt>
      <trkpt lat="43.57778" lon="4.20205">
        <ele>2</ele>
        <time>2019-05-30T13:52:32.000Z</time>
      </trkpt>
      <trkpt lat="43.57755" lon="4.20176">
        <ele>2</ele>
        <time>2019-05-30T13:52:37.000Z</time>
      </trkpt>
      <trkpt lat="43.57734" lon="4.20143">
        <ele>2</ele>
        <time>2019-05-30T13:52:42.000Z</time>
      </trkpt>
      <trkpt lat="43.57711" lon="4.20109">
        <ele>2</ele>
        <time>2019-05-30T13:52:47.000Z</time>
      </trkpt>
      <trkpt lat="43.57688" lon="4.20077">
        <ele>1</ele>
        <time>2019-05-30T13:52:52.000Z</time>
      </trkpt>
      <trkpt lat="43.57666" lon="4.20047">
        <ele>1</ele>
        <time>2019-05-30T13:52:57.000Z</time>
      </trkpt>
      <trkpt lat="43.57643" lon="4.20015">
        <ele>2</ele>
        <time>2019-05-30T13:53:02.000Z</time>
      </trkpt>
      <trkpt lat="43.57621" lon="4.19983">
        <ele>1</ele>
        <time>2019-05-30T13:53:07.000Z</time>
      </trkpt>
      <trkpt lat="43.576" lon="4.19951">
        <ele>1</ele>
        <time>2019-05-30T13:53:12.000Z</time>
      </trkpt>
      <trkpt lat="43.57583" lon="4.19915">
        <ele>1</ele>
        <time>2019-05-30T13:53:17.000Z</time>
      </trkpt>
      <trkpt lat="43.5756" lon="4.19883">
        <ele>1</ele>
        <time>2019-05-30T13:53:22.000Z</time>
      </trkpt>
      <trkpt lat="43.57535" lon="4.19851">
        <ele>2</ele>
        <time>2019-05-30T13:53:27.000Z</time>
      </trkpt>
      <trkpt lat="43.57506" lon="4.19824">
        <ele>1</ele>
        <time>2019-05-30T13:53:32.000Z</time>
      </trkpt>
      <trkpt lat="43.57481" lon="4.19796">
        <ele>1</ele>
        <time>2019-05-30T13:53:37.000Z</time>
      </trkpt>
      <trkpt lat="43.57458" lon="4.19763">
        <ele>1</ele>
        <time>2019-05-30T13:53:42.000Z</time>
      </trkpt>
      <trkpt lat="43.57436" lon="4.19731">
        <ele>1</ele>
        <time>2019-05-30T13:53:47.000Z</time>
      </trkpt>
      <trkpt lat="43.57413" lon="4.19699">
        <ele>1</ele>
        <time>2019-05-30T13:53:52.000Z</time>
      </trkpt>
      <trkpt lat="43.57391" lon="4.19669">
        <ele>1</ele>
        <time>2019-05-30T13:53:57.000Z</time>
      </trkpt>
      <trkpt lat="43.57366" lon="4.1964">
        <ele>1</ele>
        <time>2019-05-30T13:54:02.000Z</time>
      </trkpt>
      <trkpt lat="43.57344" lon="4.19609">
        <ele>1</ele>
        <time>2019-05-30T13:54:07.000Z</time>
      </trkpt>
      <trkpt lat="43.57321" lon="4.19584">
        <ele>1</ele>
        <time>2019-05-30T13:54:12.000Z</time>
      </trkpt>
      <trkpt lat="43.57306" lon="4.19557">
        <ele>1</ele>
        <time>2019-05-30T13:54:17.000Z</time>
      </trkpt>
      <trkpt lat="43.57291" lon="4.1953">
        <ele>1</ele>
        <time>2019-05-30T13:54:22.000Z</time>
      </trkpt>
      <trkpt lat="43.57274" lon="4.19501">
        <ele>2</ele>
        <time>2019-05-30T13:54:27.000Z</time>
      </trkpt>
      <trkpt lat="43.57254" lon="4.19474">
        <ele>2</ele>
        <time>2019-05-30T13:54:32.000Z</time>
      </trkpt>
      <trkpt lat="43.5723" lon="4.19452">
        <ele>2</ele>
        <time>2019-05-30T13:54:37.000Z</time>
      </trkpt>
      <trkpt lat="43.57209" lon="4.19427">
        <ele>2</ele>
        <time>2019-05-30T13:54:42.000Z</time>
      </trkpt>
      <trkpt lat="43.57198" lon="4.19398">
        <ele>2</ele>
        <time>2019-05-30T13:54:47.000Z</time>
      </trkpt>
      <trkpt lat="43.57184" lon="4.19372">
        <ele>2</ele>
        <time>2019-05-30T13:54:52.000Z</time>
      </trkpt>
      <trkpt lat="43.57162" lon="4.19347">
        <ele>2</ele>
        <time>2019-05-30T13:54:57.000Z</time>
      </trkpt>
      <trkpt lat="43.57144" lon="4.19318">
        <ele>2</ele>
        <time>2019-05-30T13:55:02.000Z</time>
      </trkpt>
      <trkpt lat="43.57123" lon="4.19291">
        <ele>2</ele>
        <time>2019-05-30T13:55:07.000Z</time>
      </trkpt>
      <trkpt lat="43.57103" lon="4.19265">
        <ele>2</ele>
        <time>2019-05-30T13:55:12.000Z</time>
      </trkpt>
      <trkpt lat="43.57083" lon="4.1924">
        <ele>2</ele>
        <time>2019-05-30T13:55:17.000Z</time>
      </trkpt>
      <trkpt lat="43.57068" lon="4.19217">
        <ele>2</ele>
        <time>2019-05-30T13:55:22.000Z</time>
      </trkpt>
      <trkpt lat="43.57053" lon="4.19203">
        <ele>2</ele>
        <time>2019-05-30T13:55:27.000Z</time>
      </trkpt>
      <trkpt lat="43.57044" lon="4.19201">
        <ele>0.76</ele>
        <time>2019-05-30T13:55:32.000Z</time>
      </trkpt>
      <trkpt lat="43.57034" lon="4.19191">
        <ele>1</ele>
        <time>2019-05-30T13:55:37.000Z</time>
      </trkpt>
      <trkpt lat="43.57022" lon="4.19185">
        <ele>1</ele>
        <time>2019-05-30T13:55:42.000Z</time>
      </trkpt>
      <trkpt lat="43.57011" lon="4.19179">
        <ele>1</ele>
        <time>2019-05-30T13:55:47.000Z</time>
      </trkpt>
      <trkpt lat="43.57011" lon="4.19164">
        <ele>1</ele>
        <time>2019-05-30T13:55:52.000Z</time>
      </trkpt>
      <trkpt lat="43.57025" lon="4.19145">
        <ele>0.71</ele>
        <time>2019-05-30T13:55:57.000Z</time>
      </trkpt>
      <trkpt lat="43.57038" lon="4.19128">
        <ele>0.54</ele>
        <time>2019-05-30T13:56:02.000Z</time>
      </trkpt>
      <trkpt lat="43.57046" lon="4.19116">
        <ele>1.8</ele>
        <time>2019-05-30T13:56:07.000Z</time>
      </trkpt>
      <trkpt lat="43.57057" lon="4.19117">
        <ele>1.76</ele>
        <time>2019-05-30T13:56:16.000Z</time>
      </trkpt>
      <trkpt lat="43.57058" lon="4.19131">
        <ele>3.52</ele>
        <time>2019-05-30T13:56:21.000Z</time>
      </trkpt>
      <trkpt lat="43.57045" lon="4.19137">
        <ele>3.52</ele>
        <time>2019-05-30T13:56:26.000Z</time>
      </trkpt>
      <trkpt lat="43.5703" lon="4.19148">
        <ele>4.71</ele>
        <time>2019-05-30T13:56:31.000Z</time>
      </trkpt>
      <trkpt lat="43.57018" lon="4.19166">
        <ele>5.69</ele>
        <time>2019-05-30T13:56:36.000Z</time>
      </trkpt>
      <trkpt lat="43.57005" lon="4.19185">
        <ele>5.77</ele>
        <time>2019-05-30T13:56:41.000Z</time>
      </trkpt>
      <trkpt lat="43.56987" lon="4.19207">
        <ele>5.77</ele>
        <time>2019-05-30T13:56:46.000Z</time>
      </trkpt>
      <trkpt lat="43.56958" lon="4.19204">
        <ele>3.78</ele>
        <time>2019-05-30T13:56:51.000Z</time>
      </trkpt>
      <trkpt lat="43.56926" lon="4.19183">
        <ele>2.78</ele>
        <time>2019-05-30T13:56:56.000Z</time>
      </trkpt>
      <trkpt lat="43.569" lon="4.19163">
        <ele>2.58</ele>
        <time>2019-05-30T13:57:01.000Z</time>
      </trkpt>
      <trkpt lat="43.56882" lon="4.19147">
        <ele>2.58</ele>
        <time>2019-05-30T13:57:06.000Z</time>
      </trkpt>
      <trkpt lat="43.56873" lon="4.19132">
        <ele>2.71</ele>
        <time>2019-05-30T13:57:11.000Z</time>
      </trkpt>
      <trkpt lat="43.5686" lon="4.19122">
        <ele>2.77</ele>
        <time>2019-05-30T13:57:16.000Z</time>
      </trkpt>
      <trkpt lat="43.56854" lon="4.19132">
        <ele>2.01</ele>
        <time>2019-05-30T13:58:36.000Z</time>
      </trkpt>
      <trkpt lat="43.56845" lon="4.1912">
        <ele>0.79</ele>
        <time>2019-05-30T13:58:41.000Z</time>
      </trkpt>
      <trkpt lat="43.5684" lon="4.19109">
        <ele>2.52</ele>
        <time>2019-05-30T13:59:52.000Z</time>
      </trkpt>
      <trkpt lat="43.56826" lon="4.19112">
        <ele>2.01</ele>
        <time>2019-05-30T13:59:57.000Z</time>
      </trkpt>
      <trkpt lat="43.56817" lon="4.19106">
        <ele>2.82</ele>
        <time>2019-05-30T14:00:03.000Z</time>
      </trkpt>
      <trkpt lat="43.5681" lon="4.19097">
        <ele>0.09</ele>
        <time>2019-05-30T14:00:14.000Z</time>
      </trkpt>
      <trkpt lat="43.56801" lon="4.19092">
        <ele>0.58</ele>
        <time>2019-05-30T14:00:20.000Z</time>
      </trkpt>
      <trkpt lat="43.56793" lon="4.19088">
        <ele>2.58</ele>
        <time>2019-05-30T14:00:57.000Z</time>
      </trkpt>
      <trkpt lat="43.56784" lon="4.19095">
        <ele>2.72</ele>
        <time>2019-05-30T14:01:08.000Z</time>
      </trkpt>
      <trkpt lat="43.5678" lon="4.19107">
        <ele>4.75</ele>
        <time>2019-05-30T14:01:14.000Z</time>
      </trkpt>
      <trkpt lat="43.56773" lon="4.19117">
        <ele>3.79</ele>
        <time>2019-05-30T14:01:23.000Z</time>
      </trkpt>
      <trkpt lat="43.56768" lon="4.19127">
        <ele>6.51</ele>
        <time>2019-05-30T14:01:33.000Z</time>
      </trkpt>
      <trkpt lat="43.56758" lon="4.19133">
        <ele>8.71</ele>
        <time>2019-05-30T14:01:42.000Z</time>
      </trkpt>
      <trkpt lat="43.56748" lon="4.19126">
        <ele>9.76</ele>
        <time>2019-05-30T14:01:47.000Z</time>
      </trkpt>
      <trkpt lat="43.5674" lon="4.19119">
        <ele>10.74</ele>
        <time>2019-05-30T14:01:53.000Z</time>
      </trkpt>
      <trkpt lat="43.56732" lon="4.19111">
        <ele>5.34</ele>
        <time>2019-05-30T14:02:00.000Z</time>
      </trkpt>
      <trkpt lat="43.56723" lon="4.19106">
        <ele>2.79</ele>
        <time>2019-05-30T14:02:08.000Z</time>
      </trkpt>
      <trkpt lat="43.56714" lon="4.19097">
        <ele>2.77</ele>
        <time>2019-05-30T14:02:13.000Z</time>
      </trkpt>
      <trkpt lat="43.56703" lon="4.1909">
        <ele>1.02</ele>
        <time>2019-05-30T14:02:18.000Z</time>
      </trkpt>
      <trkpt lat="43.56693" lon="4.19085">
        <ele>1.71</ele>
        <time>2019-05-30T14:02:23.000Z</time>
      </trkpt>
      <trkpt lat="43.56683" lon="4.19079">
        <ele>2.76</ele>
        <time>2019-05-30T14:02:28.000Z</time>
      </trkpt>
      <trkpt lat="43.56672" lon="4.19072">
        <ele>2.02</ele>
        <time>2019-05-30T14:02:33.000Z</time>
      </trkpt>
      <trkpt lat="43.56664" lon="4.19063">
        <ele>0.09</ele>
        <time>2019-05-30T14:02:39.000Z</time>
      </trkpt>
      <trkpt lat="43.56655" lon="4.19056">
        <ele>7</ele>
        <time>2019-05-30T14:02:44.000Z</time>
      </trkpt>
      <trkpt lat="43.56645" lon="4.19048">
        <ele>0.52</ele>
        <time>2019-05-30T14:02:49.000Z</time>
      </trkpt>
      <trkpt lat="43.56638" lon="4.1904">
        <ele>0.04</ele>
        <time>2019-05-30T14:02:55.000Z</time>
      </trkpt>
      <trkpt lat="43.5663" lon="4.19032">
        <ele>2.77</ele>
        <time>2019-05-30T14:03:03.000Z</time>
      </trkpt>
      <trkpt lat="43.56619" lon="4.19022">
        <ele>3.58</ele>
        <time>2019-05-30T14:03:08.000Z</time>
      </trkpt>
      <trkpt lat="43.56607" lon="4.19013">
        <ele>3.57</ele>
        <time>2019-05-30T14:03:13.000Z</time>
      </trkpt>
      <trkpt lat="43.56597" lon="4.19002">
        <ele>1.15</ele>
        <time>2019-05-30T14:03:18.000Z</time>
      </trkpt>
      <trkpt lat="43.56588" lon="4.18991">
        <ele>0.77</ele>
        <time>2019-05-30T14:03:23.000Z</time>
      </trkpt>
      <trkpt lat="43.56575" lon="4.18985">
        <ele>1.77</ele>
        <time>2019-05-30T14:03:28.000Z</time>
      </trkpt>
      <trkpt lat="43.56562" lon="4.1898">
        <ele>3.75</ele>
        <time>2019-05-30T14:03:33.000Z</time>
      </trkpt>
      <trkpt lat="43.56546" lon="4.18978">
        <ele>3.73</ele>
        <time>2019-05-30T14:03:38.000Z</time>
      </trkpt>
      <trkpt lat="43.56538" lon="4.18971">
        <ele>4.04</ele>
        <time>2019-05-30T14:03:45.000Z</time>
      </trkpt>
      <trkpt lat="43.56532" lon="4.18961">
        <ele>2.82</ele>
        <time>2019-05-30T14:03:55.000Z</time>
      </trkpt>
      <trkpt lat="43.56523" lon="4.18953">
        <ele>1.84</ele>
        <time>2019-05-30T14:04:22.000Z</time>
      </trkpt>
      <trkpt lat="43.56516" lon="4.18943">
        <ele>1.77</ele>
        <time>2019-05-30T14:04:27.000Z</time>
      </trkpt>
      <trkpt lat="43.56507" lon="4.18934">
        <ele>0.56</ele>
        <time>2019-05-30T14:04:34.000Z</time>
      </trkpt>
      <trkpt lat="43.56512" lon="4.18946">
        <ele>3</ele>
        <time>2019-05-30T14:05:12.000Z</time>
      </trkpt>
      <trkpt lat="43.56521" lon="4.18955">
        <ele>3</ele>
        <time>2019-05-30T14:05:17.000Z</time>
      </trkpt>
      <trkpt lat="43.56531" lon="4.18956">
        <ele>0.02</ele>
        <time>2019-05-30T14:05:28.000Z</time>
      </trkpt>
      <trkpt lat="43.56539" lon="4.18943">
        <ele>4</ele>
        <time>2019-05-30T14:05:33.000Z</time>
      </trkpt>
      <trkpt lat="43.56547" lon="4.18925">
        <ele>0.77</ele>
        <time>2019-05-30T14:05:38.000Z</time>
      </trkpt>
      <trkpt lat="43.56556" lon="4.18904">
        <ele>3.75</ele>
        <time>2019-05-30T14:05:43.000Z</time>
      </trkpt>
      <trkpt lat="43.56566" lon="4.18882">
        <ele>3.73</ele>
        <time>2019-05-30T14:05:48.000Z</time>
      </trkpt>
      <trkpt lat="43.56576" lon="4.18863">
        <ele>6.44</ele>
        <time>2019-05-30T14:05:53.000Z</time>
      </trkpt>
      <trkpt lat="43.56586" lon="4.18843">
        <ele>8.46</ele>
        <time>2019-05-30T14:05:58.000Z</time>
      </trkpt>
      <trkpt lat="43.56597" lon="4.18825">
        <ele>11.5</ele>
        <time>2019-05-30T14:06:03.000Z</time>
      </trkpt>
      <trkpt lat="43.56606" lon="4.18805">
        <ele>12.71</ele>
        <time>2019-05-30T14:06:08.000Z</time>
      </trkpt>
      <trkpt lat="43.56617" lon="4.18789">
        <ele>13.02</ele>
        <time>2019-05-30T14:06:13.000Z</time>
      </trkpt>
      <trkpt lat="43.56633" lon="4.18791">
        <ele>8.04</ele>
        <time>2019-05-30T14:06:18.000Z</time>
      </trkpt>
      <trkpt lat="43.56648" lon="4.18803">
        <ele>6.77</ele>
        <time>2019-05-30T14:06:23.000Z</time>
      </trkpt>
      <trkpt lat="43.56661" lon="4.18815">
        <ele>1.79</ele>
        <time>2019-05-30T14:06:28.000Z</time>
      </trkpt>
      <trkpt lat="43.56687" lon="4.18819">
        <ele>0.27</ele>
        <time>2019-05-30T14:06:33.000Z</time>
      </trkpt>
      <trkpt lat="43.56697" lon="4.18833">
        <ele>0.72</ele>
        <time>2019-05-30T14:06:38.000Z</time>
      </trkpt>
      <trkpt lat="43.56708" lon="4.18853">
        <ele>1.52</ele>
        <time>2019-05-30T14:06:43.000Z</time>
      </trkpt>
      <trkpt lat="43.56716" lon="4.18862">
        <ele>2.77</ele>
        <time>2019-05-30T14:06:48.000Z</time>
      </trkpt>
      <trkpt lat="43.56724" lon="4.1887">
        <ele>4.96</ele>
        <time>2019-05-30T14:06:53.000Z</time>
      </trkpt>
      <trkpt lat="43.56733" lon="4.18876">
        <ele>2.77</ele>
        <time>2019-05-30T14:06:58.000Z</time>
      </trkpt>
      <trkpt lat="43.56742" lon="4.18876">
        <ele>1.07</ele>
        <time>2019-05-30T14:07:04.000Z</time>
      </trkpt>
      <trkpt lat="43.56751" lon="4.18882">
        <ele>1.91</ele>
        <time>2019-05-30T14:07:09.000Z</time>
      </trkpt>
      <trkpt lat="43.56761" lon="4.18889">
        <ele>2.15</ele>
        <time>2019-05-30T14:07:14.000Z</time>
      </trkpt>
      <trkpt lat="43.56773" lon="4.18898">
        <ele>5.69</ele>
        <time>2019-05-30T14:07:19.000Z</time>
      </trkpt>
      <trkpt lat="43.56784" lon="4.18909">
        <ele>3.04</ele>
        <time>2019-05-30T14:07:24.000Z</time>
      </trkpt>
      <trkpt lat="43.56779" lon="4.18929">
        <ele>4.52</ele>
        <time>2019-05-30T14:07:29.000Z</time>
      </trkpt>
      <trkpt lat="43.56775" lon="4.18948">
        <ele>6.33</ele>
        <time>2019-05-30T14:07:34.000Z</time>
      </trkpt>
      <trkpt lat="43.56779" lon="4.18961">
        <ele>6.83</ele>
        <time>2019-05-30T14:07:39.000Z</time>
      </trkpt>
      <trkpt lat="43.56788" lon="4.18973">
        <ele>6.79</ele>
        <time>2019-05-30T14:07:44.000Z</time>
      </trkpt>
      <trkpt lat="43.56796" lon="4.1899">
        <ele>7.95</ele>
        <time>2019-05-30T14:07:49.000Z</time>
      </trkpt>
      <trkpt lat="43.56803" lon="4.19003">
        <ele>8.96</ele>
        <time>2019-05-30T14:07:54.000Z</time>
      </trkpt>
      <trkpt lat="43.56805" lon="4.19016">
        <ele>11.75</ele>
        <time>2019-05-30T14:08:01.000Z</time>
      </trkpt>
      <trkpt lat="43.56804" lon="4.1903">
        <ele>10.02</ele>
        <time>2019-05-30T14:08:06.000Z</time>
      </trkpt>
      <trkpt lat="43.56802" lon="4.19045">
        <ele>10.46</ele>
        <time>2019-05-30T14:08:11.000Z</time>
      </trkpt>
      <trkpt lat="43.568" lon="4.19058">
        <ele>11.96</ele>
        <time>2019-05-30T14:08:16.000Z</time>
      </trkpt>
      <trkpt lat="43.56797" lon="4.1907">
        <ele>10.84</ele>
        <time>2019-05-30T14:08:21.000Z</time>
      </trkpt>
      <trkpt lat="43.56796" lon="4.19085">
        <ele>8.84</ele>
        <time>2019-05-30T14:08:28.000Z</time>
      </trkpt>
      <trkpt lat="43.568" lon="4.19098">
        <ele>6.09</ele>
        <time>2019-05-30T14:08:33.000Z</time>
      </trkpt>
      <trkpt lat="43.56808" lon="4.19105">
        <ele>5.02</ele>
        <time>2019-05-30T14:08:38.000Z</time>
      </trkpt>
      <trkpt lat="43.56816" lon="4.19111">
        <ele>4.26</ele>
        <time>2019-05-30T14:08:44.000Z</time>
      </trkpt>
      <trkpt lat="43.56826" lon="4.19114">
        <ele>7.5</ele>
        <time>2019-05-30T14:09:31.000Z</time>
      </trkpt>
      <trkpt lat="43.56835" lon="4.19123">
        <ele>9.76</ele>
        <time>2019-05-30T14:09:40.000Z</time>
      </trkpt>
      <trkpt lat="43.56849" lon="4.19135">
        <ele>9.22</ele>
        <time>2019-05-30T14:09:45.000Z</time>
      </trkpt>
      <trkpt lat="43.56856" lon="4.19125">
        <ele>6.79</ele>
        <time>2019-05-30T14:09:51.000Z</time>
      </trkpt>
      <trkpt lat="43.56858" lon="4.19098">
        <ele>4.79</ele>
        <time>2019-05-30T14:09:56.000Z</time>
      </trkpt>
      <trkpt lat="43.56861" lon="4.19065">
        <ele>3.77</ele>
        <time>2019-05-30T14:10:01.000Z</time>
      </trkpt>
      <trkpt lat="43.56873" lon="4.1904">
        <ele>2.79</ele>
        <time>2019-05-30T14:10:06.000Z</time>
      </trkpt>
      <trkpt lat="43.56884" lon="4.19019">
        <ele>3.71</ele>
        <time>2019-05-30T14:10:11.000Z</time>
      </trkpt>
      <trkpt lat="43.56893" lon="4.19004">
        <ele>3.52</ele>
        <time>2019-05-30T14:10:16.000Z</time>
      </trkpt>
      <trkpt lat="43.56902" lon="4.18994">
        <ele>1.71</ele>
        <time>2019-05-30T14:10:35.000Z</time>
      </trkpt>
      <trkpt lat="43.56911" lon="4.18981">
        <ele>2.77</ele>
        <time>2019-05-30T14:10:40.000Z</time>
      </trkpt>
      <trkpt lat="43.56914" lon="4.18956">
        <ele>4.71</ele>
        <time>2019-05-30T14:10:45.000Z</time>
      </trkpt>
      <trkpt lat="43.56916" lon="4.18931">
        <ele>5.77</ele>
        <time>2019-05-30T14:10:50.000Z</time>
      </trkpt>
      <trkpt lat="43.56917" lon="4.18907">
        <ele>6.77</ele>
        <time>2019-05-30T14:10:55.000Z</time>
      </trkpt>
      <trkpt lat="43.56919" lon="4.18882">
        <ele>6.77</ele>
        <time>2019-05-30T14:11:00.000Z</time>
      </trkpt>
      <trkpt lat="43.5692" lon="4.18858">
        <ele>5.83</ele>
        <time>2019-05-30T14:11:05.000Z</time>
      </trkpt>
      <trkpt lat="43.56895" lon="4.18839">
        <ele>2.8</ele>
        <time>2019-05-30T14:11:10.000Z</time>
      </trkpt>
      <trkpt lat="43.56872" lon="4.18808">
        <ele>3.02</ele>
        <time>2019-05-30T14:11:15.000Z</time>
      </trkpt>
      <trkpt lat="43.56855" lon="4.18784">
        <ele>1.77</ele>
        <time>2019-05-30T14:11:20.000Z</time>
      </trkpt>
      <trkpt lat="43.56838" lon="4.18758">
        <ele>0.78</ele>
        <time>2019-05-30T14:11:25.000Z</time>
      </trkpt>
      <trkpt lat="43.56819" lon="4.18732">
        <ele>2.75</ele>
        <time>2019-05-30T14:11:30.000Z</time>
      </trkpt>
      <trkpt lat="43.56799" lon="4.18705">
        <ele>5.7</ele>
        <time>2019-05-30T14:11:35.000Z</time>
      </trkpt>
      <trkpt lat="43.56779" lon="4.18685">
        <ele>4.53</ele>
        <time>2019-05-30T14:11:40.000Z</time>
      </trkpt>
      <trkpt lat="43.5676" lon="4.18664">
        <ele>3.83</ele>
        <time>2019-05-30T14:11:45.000Z</time>
      </trkpt>
      <trkpt lat="43.5674" lon="4.18643">
        <ele>2.77</ele>
        <time>2019-05-30T14:11:50.000Z</time>
      </trkpt>
      <trkpt lat="43.5672" lon="4.18619">
        <ele>3.76</ele>
        <time>2019-05-30T14:11:55.000Z</time>
      </trkpt>
      <trkpt lat="43.56697" lon="4.18594">
        <ele>2.77</ele>
        <time>2019-05-30T14:12:00.000Z</time>
      </trkpt>
      <trkpt lat="43.56669" lon="4.18577">
        <ele>1.77</ele>
        <time>2019-05-30T14:12:05.000Z</time>
      </trkpt>
      <trkpt lat="43.56639" lon="4.18569">
        <ele>0.77</ele>
        <time>2019-05-30T14:12:10.000Z</time>
      </trkpt>
      <trkpt lat="43.56611" lon="4.18563">
        <ele>1.3</ele>
        <time>2019-05-30T14:12:15.000Z</time>
      </trkpt>
      <trkpt lat="43.56595" lon="4.18535">
        <ele>0.71</ele>
        <time>2019-05-30T14:12:20.000Z</time>
      </trkpt>
      <trkpt lat="43.56587" lon="4.18501">
        <ele>0.77</ele>
        <time>2019-05-30T14:12:25.000Z</time>
      </trkpt>
      <trkpt lat="43.56564" lon="4.18478">
        <ele>0.96</ele>
        <time>2019-05-30T14:12:30.000Z</time>
      </trkpt>
      <trkpt lat="43.56537" lon="4.1847">
        <ele>1.9</ele>
        <time>2019-05-30T14:12:35.000Z</time>
      </trkpt>
      <trkpt lat="43.56505" lon="4.18468">
        <ele>1.2</ele>
        <time>2019-05-30T14:12:40.000Z</time>
      </trkpt>
      <trkpt lat="43.56473" lon="4.18468">
        <ele>1.8</ele>
        <time>2019-05-30T14:12:45.000Z</time>
      </trkpt>
      <trkpt lat="43.56442" lon="4.18468">
        <ele>1.9</ele>
        <time>2019-05-30T14:12:50.000Z</time>
      </trkpt>
      <trkpt lat="43.56411" lon="4.18468">
        <ele>2</ele>
        <time>2019-05-30T14:12:55.000Z</time>
      </trkpt>
      <trkpt lat="43.56385" lon="4.18488">
        <ele>1.9</ele>
        <time>2019-05-30T14:13:00.000Z</time>
      </trkpt>
      <trkpt lat="43.56355" lon="4.18503">
        <ele>1</ele>
        <time>2019-05-30T14:13:05.000Z</time>
      </trkpt>
      <trkpt lat="43.56323" lon="4.18497">
        <ele>1</ele>
        <time>2019-05-30T14:13:10.000Z</time>
      </trkpt>
      <trkpt lat="43.56292" lon="4.18487">
        <ele>1</ele>
        <time>2019-05-30T14:13:15.000Z</time>
      </trkpt>
      <trkpt lat="43.56261" lon="4.18479">
        <ele>1.6</ele>
        <time>2019-05-30T14:13:20.000Z</time>
      </trkpt>
      <trkpt lat="43.5623" lon="4.18471">
        <ele>2</ele>
        <time>2019-05-30T14:13:25.000Z</time>
      </trkpt>
      <trkpt lat="43.56199" lon="4.18462">
        <ele>0.52</ele>
        <time>2019-05-30T14:13:30.000Z</time>
      </trkpt>
      <trkpt lat="43.56168" lon="4.18451">
        <ele>0.77</ele>
        <time>2019-05-30T14:13:35.000Z</time>
      </trkpt>
      <trkpt lat="43.56136" lon="4.18438">
        <ele>0.77</ele>
        <time>2019-05-30T14:13:40.000Z</time>
      </trkpt>
      <trkpt lat="43.56104" lon="4.18425">
        <ele>0.77</ele>
        <time>2019-05-30T14:13:45.000Z</time>
      </trkpt>
      <trkpt lat="43.56075" lon="4.18409">
        <ele>1.54</ele>
        <time>2019-05-30T14:13:50.000Z</time>
      </trkpt>
      <trkpt lat="43.56045" lon="4.18389">
        <ele>1.83</ele>
        <time>2019-05-30T14:13:55.000Z</time>
      </trkpt>
      <trkpt lat="43.56013" lon="4.18369">
        <ele>2.71</ele>
        <time>2019-05-30T14:14:00.000Z</time>
      </trkpt>
      <trkpt lat="43.55981" lon="4.18349">
        <ele>2.53</ele>
        <time>2019-05-30T14:14:05.000Z</time>
      </trkpt>
      <trkpt lat="43.55953" lon="4.18329">
        <ele>1.79</ele>
        <time>2019-05-30T14:14:10.000Z</time>
      </trkpt>
      <trkpt lat="43.55924" lon="4.18307">
        <ele>1.77</ele>
        <time>2019-05-30T14:14:15.000Z</time>
      </trkpt>
      <trkpt lat="43.55896" lon="4.18281">
        <ele>0.78</ele>
        <time>2019-05-30T14:14:20.000Z</time>
      </trkpt>
      <trkpt lat="43.55869" lon="4.18254">
        <ele>0.78</ele>
        <time>2019-05-30T14:14:25.000Z</time>
      </trkpt>
      <trkpt lat="43.55842" lon="4.18224">
        <ele>0.59</ele>
        <time>2019-05-30T14:14:30.000Z</time>
      </trkpt>
      <trkpt lat="43.55816" lon="4.18193">
        <ele>0.02</ele>
        <time>2019-05-30T14:14:35.000Z</time>
      </trkpt>
      <trkpt lat="43.55791" lon="4.18161">
        <ele>0.77</ele>
        <time>2019-05-30T14:14:40.000Z</time>
      </trkpt>
      <trkpt lat="43.55767" lon="4.18127">
        <ele>0.78</ele>
        <time>2019-05-30T14:14:45.000Z</time>
      </trkpt>
      <trkpt lat="43.55744" lon="4.18092">
        <ele>1</ele>
        <time>2019-05-30T14:14:50.000Z</time>
      </trkpt>
      <trkpt lat="43.55724" lon="4.18057">
        <ele>0.77</ele>
        <time>2019-05-30T14:14:55.000Z</time>
      </trkpt>
      <trkpt lat="43.55704" lon="4.18022">
        <ele>0.03</ele>
        <time>2019-05-30T14:15:00.000Z</time>
      </trkpt>
      <trkpt lat="43.55683" lon="4.17987">
        <ele>1.8</ele>
        <time>2019-05-30T14:15:05.000Z</time>
      </trkpt>
      <trkpt lat="43.55662" lon="4.17951">
        <ele>1.8</ele>
        <time>2019-05-30T14:15:10.000Z</time>
      </trkpt>
      <trkpt lat="43.55643" lon="4.17912">
        <ele>1.3</ele>
        <time>2019-05-30T14:15:15.000Z</time>
      </trkpt>
      <trkpt lat="43.55623" lon="4.17878">
        <ele>1.8</ele>
        <time>2019-05-30T14:15:20.000Z</time>
      </trkpt>
      <trkpt lat="43.55605" lon="4.17841">
        <ele>0.76</ele>
        <time>2019-05-30T14:15:25.000Z</time>
      </trkpt>
      <trkpt lat="43.55584" lon="4.17804">
        <ele>2</ele>
        <time>2019-05-30T14:15:30.000Z</time>
      </trkpt>
      <trkpt lat="43.55565" lon="4.17768">
        <ele>1</ele>
        <time>2019-05-30T14:15:35.000Z</time>
      </trkpt>
      <trkpt lat="43.55545" lon="4.1773">
        <ele>1</ele>
        <time>2019-05-30T14:15:40.000Z</time>
      </trkpt>
      <trkpt lat="43.55524" lon="4.17693">
        <ele>1</ele>
        <time>2019-05-30T14:15:45.000Z</time>
      </trkpt>
      <trkpt lat="43.55503" lon="4.17658">
        <ele>1</ele>
        <time>2019-05-30T14:15:50.000Z</time>
      </trkpt>
      <trkpt lat="43.55484" lon="4.17621">
        <ele>3</ele>
        <time>2019-05-30T14:15:55.000Z</time>
      </trkpt>
      <trkpt lat="43.55464" lon="4.17584">
        <ele>3</ele>
        <time>2019-05-30T14:16:00.000Z</time>
      </trkpt>
      <trkpt lat="43.55446" lon="4.17544">
        <ele>2</ele>
        <time>2019-05-30T14:16:05.000Z</time>
      </trkpt>
      <trkpt lat="43.55429" lon="4.17503">
        <ele>1</ele>
        <time>2019-05-30T14:16:10.000Z</time>
      </trkpt>
      <trkpt lat="43.55411" lon="4.17461">
        <ele>1</ele>
        <time>2019-05-30T14:16:15.000Z</time>
      </trkpt>
      <trkpt lat="43.55394" lon="4.1742">
        <ele>1</ele>
        <time>2019-05-30T14:16:20.000Z</time>
      </trkpt>
      <trkpt lat="43.55376" lon="4.17378">
        <ele>1</ele>
        <time>2019-05-30T14:16:25.000Z</time>
      </trkpt>
      <trkpt lat="43.5536" lon="4.17338">
        <ele>1</ele>
        <time>2019-05-30T14:16:30.000Z</time>
      </trkpt>
      <trkpt lat="43.55342" lon="4.17299">
        <ele>1</ele>
        <time>2019-05-30T14:16:35.000Z</time>
      </trkpt>
      <trkpt lat="43.55325" lon="4.17258">
        <ele>1</ele>
        <time>2019-05-30T14:16:40.000Z</time>
      </trkpt>
      <trkpt lat="43.55309" lon="4.17219">
        <ele>1</ele>
        <time>2019-05-30T14:16:45.000Z</time>
      </trkpt>
      <trkpt lat="43.55293" lon="4.1718">
        <ele>1</ele>
        <time>2019-05-30T14:16:50.000Z</time>
      </trkpt>
      <trkpt lat="43.55276" lon="4.17142">
        <ele>2</ele>
        <time>2019-05-30T14:16:55.000Z</time>
      </trkpt>
      <trkpt lat="43.5526" lon="4.17103">
        <ele>2</ele>
        <time>2019-05-30T14:17:00.000Z</time>
      </trkpt>
      <trkpt lat="43.55244" lon="4.17063">
        <ele>2</ele>
        <time>2019-05-30T14:17:05.000Z</time>
      </trkpt>
      <trkpt lat="43.55227" lon="4.17025">
        <ele>2</ele>
        <time>2019-05-30T14:17:10.000Z</time>
      </trkpt>
      <trkpt lat="43.55211" lon="4.16987">
        <ele>2</ele>
        <time>2019-05-30T14:17:15.000Z</time>
      </trkpt>
      <trkpt lat="43.55196" lon="4.16949">
        <ele>1.76</ele>
        <time>2019-05-30T14:17:20.000Z</time>
      </trkpt>
      <trkpt lat="43.5518" lon="4.16911">
        <ele>2.57</ele>
        <time>2019-05-30T14:17:25.000Z</time>
      </trkpt>
      <trkpt lat="43.55168" lon="4.16885">
        <ele>2.78</ele>
        <time>2019-05-30T14:17:30.000Z</time>
      </trkpt>
      <trkpt lat="43.55162" lon="4.1687">
        <ele>1.79</ele>
        <time>2019-05-30T14:17:35.000Z</time>
      </trkpt>
      <trkpt lat="43.55154" lon="4.16848">
        <ele>1.78</ele>
        <time>2019-05-30T14:17:40.000Z</time>
      </trkpt>
      <trkpt lat="43.55143" lon="4.1682">
        <ele>1.78</ele>
        <time>2019-05-30T14:17:45.000Z</time>
      </trkpt>
      <trkpt lat="43.55131" lon="4.16792">
        <ele>0.79</ele>
        <time>2019-05-30T14:17:50.000Z</time>
      </trkpt>
      <trkpt lat="43.55118" lon="4.16761">
        <ele>4</ele>
        <time>2019-05-30T14:17:55.000Z</time>
      </trkpt>
      <trkpt lat="43.55104" lon="4.16728">
        <ele>0.02</ele>
        <time>2019-05-30T14:18:00.000Z</time>
      </trkpt>
      <trkpt lat="43.55089" lon="4.16693">
        <ele>2</ele>
        <time>2019-05-30T14:18:05.000Z</time>
      </trkpt>
      <trkpt lat="43.55073" lon="4.16657">
        <ele>1.9</ele>
        <time>2019-05-30T14:18:10.000Z</time>
      </trkpt>
      <trkpt lat="43.55057" lon="4.16621">
        <ele>0.53</ele>
        <time>2019-05-30T14:18:15.000Z</time>
      </trkpt>
      <trkpt lat="43.55042" lon="4.16584">
        <ele>0.78</ele>
        <time>2019-05-30T14:18:20.000Z</time>
      </trkpt>
      <trkpt lat="43.55026" lon="4.16548">
        <ele>0.78</ele>
        <time>2019-05-30T14:18:25.000Z</time>
      </trkpt>
      <trkpt lat="43.55011" lon="4.16512">
        <ele>0.03</ele>
        <time>2019-05-30T14:18:30.000Z</time>
      </trkpt>
      <trkpt lat="43.54996" lon="4.16476">
        <ele>1</ele>
        <time>2019-05-30T14:18:35.000Z</time>
      </trkpt>
      <trkpt lat="43.54984" lon="4.16439">
        <ele>1</ele>
        <time>2019-05-30T14:18:40.000Z</time>
      </trkpt>
      <trkpt lat="43.5497" lon="4.16402">
        <ele>0.53</ele>
        <time>2019-05-30T14:18:45.000Z</time>
      </trkpt>
      <trkpt lat="43.54954" lon="4.16365">
        <ele>0.76</ele>
        <time>2019-05-30T14:18:50.000Z</time>
      </trkpt>
      <trkpt lat="43.54939" lon="4.16327">
        <ele>0.78</ele>
        <time>2019-05-30T14:18:55.000Z</time>
      </trkpt>
      <trkpt lat="43.54923" lon="4.1629">
        <ele>0.76</ele>
        <time>2019-05-30T14:19:00.000Z</time>
      </trkpt>
      <trkpt lat="43.54909" lon="4.16253">
        <ele>2</ele>
        <time>2019-05-30T14:19:05.000Z</time>
      </trkpt>
      <trkpt lat="43.54893" lon="4.16217">
        <ele>1.3</ele>
        <time>2019-05-30T14:19:10.000Z</time>
      </trkpt>
      <trkpt lat="43.54876" lon="4.16179">
        <ele>0.76</ele>
        <time>2019-05-30T14:19:15.000Z</time>
      </trkpt>
      <trkpt lat="43.54859" lon="4.1614">
        <ele>2</ele>
        <time>2019-05-30T14:19:20.000Z</time>
      </trkpt>
      <trkpt lat="43.54842" lon="4.16099">
        <ele>1.6</ele>
        <time>2019-05-30T14:19:25.000Z</time>
      </trkpt>
      <trkpt lat="43.54826" lon="4.16061">
        <ele>1.8</ele>
        <time>2019-05-30T14:19:30.000Z</time>
      </trkpt>
      <trkpt lat="43.54812" lon="4.16024">
        <ele>1.3</ele>
        <time>2019-05-30T14:19:35.000Z</time>
      </trkpt>
      <trkpt lat="43.548" lon="4.15988">
        <ele>0.77</ele>
        <time>2019-05-30T14:19:40.000Z</time>
      </trkpt>
      <trkpt lat="43.54784" lon="4.15955">
        <ele>0.01</ele>
        <time>2019-05-30T14:19:45.000Z</time>
      </trkpt>
      <trkpt lat="43.54768" lon="4.1592">
        <ele>1.1</ele>
        <time>2019-05-30T14:19:50.000Z</time>
      </trkpt>
      <trkpt lat="43.54753" lon="4.15882">
        <ele>0.53</ele>
        <time>2019-05-30T14:19:55.000Z</time>
      </trkpt>
      <trkpt lat="43.54737" lon="4.15844">
        <ele>0.78</ele>
        <time>2019-05-30T14:20:00.000Z</time>
      </trkpt>
      <trkpt lat="43.5472" lon="4.15806">
        <ele>1.72</ele>
        <time>2019-05-30T14:20:05.000Z</time>
      </trkpt>
      <trkpt lat="43.54703" lon="4.15768">
        <ele>1.78</ele>
        <time>2019-05-30T14:20:10.000Z</time>
      </trkpt>
      <trkpt lat="43.54686" lon="4.15728">
        <ele>1.78</ele>
        <time>2019-05-30T14:20:15.000Z</time>
      </trkpt>
      <trkpt lat="43.54667" lon="4.1569">
        <ele>1.03</ele>
        <time>2019-05-30T14:20:20.000Z</time>
      </trkpt>
      <trkpt lat="43.54652" lon="4.15652">
        <ele>1</ele>
        <time>2019-05-30T14:20:25.000Z</time>
      </trkpt>
      <trkpt lat="43.54634" lon="4.15615">
        <ele>1</ele>
        <time>2019-05-30T14:20:30.000Z</time>
      </trkpt>
      <trkpt lat="43.54617" lon="4.15575">
        <ele>1</ele>
        <time>2019-05-30T14:20:35.000Z</time>
      </trkpt>
      <trkpt lat="43.54599" lon="4.15534">
        <ele>1</ele>
        <time>2019-05-30T14:20:40.000Z</time>
      </trkpt>
      <trkpt lat="43.54581" lon="4.15494">
        <ele>1</ele>
        <time>2019-05-30T14:20:45.000Z</time>
      </trkpt>
      <trkpt lat="43.54556" lon="4.15436">
        <ele>0.02</ele>
        <time>2019-05-30T14:20:52.000Z</time>
      </trkpt>
      <trkpt lat="43.54538" lon="4.15394">
        <ele>1</ele>
        <time>2019-05-30T14:20:57.000Z</time>
      </trkpt>
      <trkpt lat="43.54519" lon="4.1535">
        <ele>1.6</ele>
        <time>2019-05-30T14:21:02.000Z</time>
      </trkpt>
      <trkpt lat="43.545" lon="4.15306">
        <ele>1</ele>
        <time>2019-05-30T14:21:07.000Z</time>
      </trkpt>
      <trkpt lat="43.54479" lon="4.15262">
        <ele>1</ele>
        <time>2019-05-30T14:21:12.000Z</time>
      </trkpt>
      <trkpt lat="43.54457" lon="4.15217">
        <ele>1</ele>
        <time>2019-05-30T14:21:17.000Z</time>
      </trkpt>
      <trkpt lat="43.54438" lon="4.15174">
        <ele>1</ele>
        <time>2019-05-30T14:21:22.000Z</time>
      </trkpt>
      <trkpt lat="43.54422" lon="4.15129">
        <ele>1</ele>
        <time>2019-05-30T14:21:27.000Z</time>
      </trkpt>
      <trkpt lat="43.54405" lon="4.15088">
        <ele>1</ele>
        <time>2019-05-30T14:21:32.000Z</time>
      </trkpt>
      <trkpt lat="43.54387" lon="4.15048">
        <ele>2</ele>
        <time>2019-05-30T14:21:37.000Z</time>
      </trkpt>
      <trkpt lat="43.54369" lon="4.15008">
        <ele>0.96</ele>
        <time>2019-05-30T14:21:42.000Z</time>
      </trkpt>
      <trkpt lat="43.54352" lon="4.14967">
        <ele>0.78</ele>
        <time>2019-05-30T14:21:47.000Z</time>
      </trkpt>
      <trkpt lat="43.54335" lon="4.14926">
        <ele>2</ele>
        <time>2019-05-30T14:21:52.000Z</time>
      </trkpt>
      <trkpt lat="43.54317" lon="4.14886">
        <ele>0.78</ele>
        <time>2019-05-30T14:21:57.000Z</time>
      </trkpt>
      <trkpt lat="43.543" lon="4.14846">
        <ele>0.76</ele>
        <time>2019-05-30T14:22:02.000Z</time>
      </trkpt>
      <trkpt lat="43.54283" lon="4.14807">
        <ele>0.03</ele>
        <time>2019-05-30T14:22:07.000Z</time>
      </trkpt>
      <trkpt lat="43.54266" lon="4.14766">
        <ele>1</ele>
        <time>2019-05-30T14:22:12.000Z</time>
      </trkpt>
      <trkpt lat="43.54248" lon="4.14727">
        <ele>0.71</ele>
        <time>2019-05-30T14:22:17.000Z</time>
      </trkpt>
      <trkpt lat="43.54231" lon="4.14687">
        <ele>0.78</ele>
        <time>2019-05-30T14:22:22.000Z</time>
      </trkpt>
      <trkpt lat="43.54214" lon="4.14648">
        <ele>1.78</ele>
        <time>2019-05-30T14:22:27.000Z</time>
      </trkpt>
      <trkpt lat="43.54197" lon="4.14608">
        <ele>0.78</ele>
        <time>2019-05-30T14:22:32.000Z</time>
      </trkpt>
      <trkpt lat="43.5418" lon="4.14571">
        <ele>0.78</ele>
        <time>2019-05-30T14:22:37.000Z</time>
      </trkpt>
      <trkpt lat="43.5416" lon="4.14537">
        <ele>0.78</ele>
        <time>2019-05-30T14:22:42.000Z</time>
      </trkpt>
      <trkpt lat="43.54141" lon="4.14498">
        <ele>0.54</ele>
        <time>2019-05-30T14:22:47.000Z</time>
      </trkpt>
      <trkpt lat="43.54124" lon="4.14459">
        <ele>0.78</ele>
        <time>2019-05-30T14:22:52.000Z</time>
      </trkpt>
      <trkpt lat="43.54106" lon="4.14421">
        <ele>1</ele>
        <time>2019-05-30T14:22:57.000Z</time>
      </trkpt>
      <trkpt lat="43.54089" lon="4.14383">
        <ele>1</ele>
        <time>2019-05-30T14:23:02.000Z</time>
      </trkpt>
      <trkpt lat="43.54073" lon="4.14349">
        <ele>1</ele>
        <time>2019-05-30T14:23:07.000Z</time>
      </trkpt>
      <trkpt lat="43.54057" lon="4.14316">
        <ele>1</ele>
        <time>2019-05-30T14:23:12.000Z</time>
      </trkpt>
      <trkpt lat="43.5404" lon="4.14293">
        <ele>1</ele>
        <time>2019-05-30T14:23:17.000Z</time>
      </trkpt>
      <trkpt lat="43.54033" lon="4.14276">
        <ele>0.78</ele>
        <time>2019-05-30T14:23:22.000Z</time>
      </trkpt>
      <trkpt lat="43.54034" lon="4.14261">
        <ele>0.02</ele>
        <time>2019-05-30T14:23:28.000Z</time>
      </trkpt>
      <trkpt lat="43.54043" lon="4.14254">
        <ele>1.71</ele>
        <time>2019-05-30T14:23:33.000Z</time>
      </trkpt>
      <trkpt lat="43.54055" lon="4.14247">
        <ele>2.71</ele>
        <time>2019-05-30T14:23:38.000Z</time>
      </trkpt>
      <trkpt lat="43.5407" lon="4.14229">
        <ele>2.53</ele>
        <time>2019-05-30T14:23:43.000Z</time>
      </trkpt>
      <trkpt lat="43.54093" lon="4.14211">
        <ele>2.96</ele>
        <time>2019-05-30T14:23:48.000Z</time>
      </trkpt>
      <trkpt lat="43.54115" lon="4.14192">
        <ele>1.84</ele>
        <time>2019-05-30T14:23:53.000Z</time>
      </trkpt>
      <trkpt lat="43.54109" lon="4.14205">
        <ele>1.78</ele>
        <time>2019-05-30T14:24:02.000Z</time>
      </trkpt>
      <trkpt lat="43.54095" lon="4.14219">
        <ele>2.76</ele>
        <time>2019-05-30T14:24:07.000Z</time>
      </trkpt>
      <trkpt lat="43.54082" lon="4.14232">
        <ele>2.78</ele>
        <time>2019-05-30T14:24:12.000Z</time>
      </trkpt>
      <trkpt lat="43.54071" lon="4.14243">
        <ele>2.77</ele>
        <time>2019-05-30T14:24:17.000Z</time>
      </trkpt>
      <trkpt lat="43.54061" lon="4.14253">
        <ele>1.85</ele>
        <time>2019-05-30T14:24:22.000Z</time>
      </trkpt>
      <trkpt lat="43.54052" lon="4.14261">
        <ele>2.78</ele>
        <time>2019-05-30T14:24:27.000Z</time>
      </trkpt>
      <trkpt lat="43.54043" lon="4.14268">
        <ele>3.78</ele>
        <time>2019-05-30T14:24:34.000Z</time>
      </trkpt>
      <trkpt lat="43.54036" lon="4.14276">
        <ele>4.77</ele>
        <time>2019-05-30T14:24:46.000Z</time>
      </trkpt>
      <trkpt lat="43.54028" lon="4.14284">
        <ele>5.78</ele>
        <time>2019-05-30T14:24:53.000Z</time>
      </trkpt>
      <trkpt lat="43.5402" lon="4.14292">
        <ele>5.78</ele>
        <time>2019-05-30T14:25:01.000Z</time>
      </trkpt>
      <trkpt lat="43.54012" lon="4.14299">
        <ele>6.57</ele>
        <time>2019-05-30T14:25:10.000Z</time>
      </trkpt>
      <trkpt lat="43.54004" lon="4.14306">
        <ele>6.82</ele>
        <time>2019-05-30T14:25:24.000Z</time>
      </trkpt>
      <trkpt lat="43.53995" lon="4.14311">
        <ele>5.82</ele>
        <time>2019-05-30T14:25:36.000Z</time>
      </trkpt>
      <trkpt lat="43.53981" lon="4.14303">
        <ele>6.78</ele>
        <time>2019-05-30T14:25:41.000Z</time>
      </trkpt>
      <trkpt lat="43.53966" lon="4.14269">
        <ele>4.78</ele>
        <time>2019-05-30T14:25:46.000Z</time>
      </trkpt>
      <trkpt lat="43.53948" lon="4.1423">
        <ele>3.78</ele>
        <time>2019-05-30T14:25:51.000Z</time>
      </trkpt>
      <trkpt lat="43.53933" lon="4.14191">
        <ele>3.78</ele>
        <time>2019-05-30T14:25:56.000Z</time>
      </trkpt>
      <trkpt lat="43.53918" lon="4.14153">
        <ele>3.72</ele>
        <time>2019-05-30T14:26:01.000Z</time>
      </trkpt>
      <trkpt lat="43.53901" lon="4.14119">
        <ele>2.78</ele>
        <time>2019-05-30T14:26:06.000Z</time>
      </trkpt>
      <trkpt lat="43.53885" lon="4.14086">
        <ele>3.78</ele>
        <time>2019-05-30T14:26:11.000Z</time>
      </trkpt>
      <trkpt lat="43.53869" lon="4.14053">
        <ele>2.79</ele>
        <time>2019-05-30T14:26:16.000Z</time>
      </trkpt>
      <trkpt lat="43.53855" lon="4.14023">
        <ele>2.03</ele>
        <time>2019-05-30T14:26:21.000Z</time>
      </trkpt>
      <trkpt lat="43.5384" lon="4.13993">
        <ele>2.53</ele>
        <time>2019-05-30T14:26:26.000Z</time>
      </trkpt>
      <trkpt lat="43.53826" lon="4.13964">
        <ele>4.52</ele>
        <time>2019-05-30T14:26:31.000Z</time>
      </trkpt>
      <trkpt lat="43.53814" lon="4.13941">
        <ele>6.76</ele>
        <time>2019-05-30T14:26:36.000Z</time>
      </trkpt>
      <trkpt lat="43.53807" lon="4.13929">
        <ele>8.82</ele>
        <time>2019-05-30T14:26:42.000Z</time>
      </trkpt>
      <trkpt lat="43.53797" lon="4.13907">
        <ele>6.78</ele>
        <time>2019-05-30T14:26:47.000Z</time>
      </trkpt>
      <trkpt lat="43.53784" lon="4.13879">
        <ele>6.78</ele>
        <time>2019-05-30T14:26:52.000Z</time>
      </trkpt>
      <trkpt lat="43.53771" lon="4.13848">
        <ele>5.79</ele>
        <time>2019-05-30T14:26:57.000Z</time>
      </trkpt>
      <trkpt lat="43.53755" lon="4.13817">
        <ele>5.78</ele>
        <time>2019-05-30T14:27:02.000Z</time>
      </trkpt>
      <trkpt lat="43.53741" lon="4.13788">
        <ele>5.78</ele>
        <time>2019-05-30T14:27:07.000Z</time>
      </trkpt>
      <trkpt lat="43.53732" lon="4.13768">
        <ele>7.52</ele>
        <time>2019-05-30T14:27:12.000Z</time>
      </trkpt>
      <trkpt lat="43.53725" lon="4.1376">
        <ele>5.53</ele>
        <time>2019-05-30T14:27:41.000Z</time>
      </trkpt>
      <trkpt lat="43.53715" lon="4.13766">
        <ele>3.03</ele>
        <time>2019-05-30T14:27:46.000Z</time>
      </trkpt>
      <trkpt lat="43.53708" lon="4.13775">
        <ele>4</ele>
        <time>2019-05-30T14:28:02.000Z</time>
      </trkpt>
      <trkpt lat="43.537" lon="4.13781">
        <ele>3.71</ele>
        <time>2019-05-30T14:28:09.000Z</time>
      </trkpt>
      <trkpt lat="43.53689" lon="4.13787">
        <ele>0.84</ele>
        <time>2019-05-30T14:28:16.000Z</time>
      </trkpt>
      <trkpt lat="43.53676" lon="4.13797">
        <ele>1.78</ele>
        <time>2019-05-30T14:28:21.000Z</time>
      </trkpt>
      <trkpt lat="43.53664" lon="4.13807">
        <ele>1.73</ele>
        <time>2019-05-30T14:28:26.000Z</time>
      </trkpt>
      <trkpt lat="43.53653" lon="4.13815">
        <ele>1.78</ele>
        <time>2019-05-30T14:28:31.000Z</time>
      </trkpt>
      <trkpt lat="43.53643" lon="4.13823">
        <ele>2.78</ele>
        <time>2019-05-30T14:28:36.000Z</time>
      </trkpt>
      <trkpt lat="43.53633" lon="4.13829">
        <ele>2.83</ele>
        <time>2019-05-30T14:28:41.000Z</time>
      </trkpt>
      <trkpt lat="43.5362" lon="4.13815">
        <ele>5.51</ele>
        <time>2019-05-30T14:28:46.000Z</time>
      </trkpt>
      <trkpt lat="43.53607" lon="4.13808">
        <ele>4.73</ele>
        <time>2019-05-30T14:28:51.000Z</time>
      </trkpt>
      <trkpt lat="43.53598" lon="4.13809">
        <ele>4.72</ele>
        <time>2019-05-30T14:29:02.000Z</time>
      </trkpt>
      <trkpt lat="43.5358" lon="4.13815">
        <ele>4.73</ele>
        <time>2019-05-30T14:29:07.000Z</time>
      </trkpt>
      <trkpt lat="43.5356" lon="4.13828">
        <ele>3.78</ele>
        <time>2019-05-30T14:29:12.000Z</time>
      </trkpt>
      <trkpt lat="43.5354" lon="4.13838">
        <ele>4.78</ele>
        <time>2019-05-30T14:29:17.000Z</time>
      </trkpt>
      <trkpt lat="43.53522" lon="4.13825">
        <ele>5.53</ele>
        <time>2019-05-30T14:29:22.000Z</time>
      </trkpt>
      <trkpt lat="43.53503" lon="4.13806">
        <ele>6.53</ele>
        <time>2019-05-30T14:29:27.000Z</time>
      </trkpt>
      <trkpt lat="43.53481" lon="4.13797">
        <ele>6.78</ele>
        <time>2019-05-30T14:29:32.000Z</time>
      </trkpt>
      <trkpt lat="43.53459" lon="4.13799">
        <ele>6.79</ele>
        <time>2019-05-30T14:29:37.000Z</time>
      </trkpt>
      <trkpt lat="43.53435" lon="4.13804">
        <ele>6.78</ele>
        <time>2019-05-30T14:29:42.000Z</time>
      </trkpt>
      <trkpt lat="43.53413" lon="4.13809">
        <ele>6.48</ele>
        <time>2019-05-30T14:29:47.000Z</time>
      </trkpt>
      <trkpt lat="43.53398" lon="4.13815">
        <ele>7.72</ele>
        <time>2019-05-30T14:29:52.000Z</time>
      </trkpt>
      <trkpt lat="43.53392" lon="4.13804">
        <ele>9.76</ele>
        <time>2019-05-30T14:29:57.000Z</time>
      </trkpt>
      <trkpt lat="43.53391" lon="4.1379">
        <ele>10.78</ele>
        <time>2019-05-30T14:30:02.000Z</time>
      </trkpt>
      <trkpt lat="43.53384" lon="4.13776">
        <ele>10.78</ele>
        <time>2019-05-30T14:30:07.000Z</time>
      </trkpt>
      <trkpt lat="43.53375" lon="4.13763">
        <ele>10.98</ele>
        <time>2019-05-30T14:30:12.000Z</time>
      </trkpt>
      <trkpt lat="43.53368" lon="4.13753">
        <ele>7.8</ele>
        <time>2019-05-30T14:30:17.000Z</time>
      </trkpt>
      <trkpt lat="43.53358" lon="4.13753">
        <ele>9.83</ele>
        <time>2019-05-30T14:30:23.000Z</time>
      </trkpt>
      <trkpt lat="43.5335" lon="4.13757">
        <ele>7.85</ele>
        <time>2019-05-30T14:30:28.000Z</time>
      </trkpt>
      <trkpt lat="43.53359" lon="4.13756">
        <ele>2.78</ele>
        <time>2019-05-30T14:35:35.000Z</time>
      </trkpt>
      <trkpt lat="43.53369" lon="4.13753">
        <ele>3.79</ele>
        <time>2019-05-30T14:35:43.000Z</time>
      </trkpt>
      <trkpt lat="43.53379" lon="4.13762">
        <ele>2.8</ele>
        <time>2019-05-30T14:35:48.000Z</time>
      </trkpt>
      <trkpt lat="43.53383" lon="4.13777">
        <ele>2.03</ele>
        <time>2019-05-30T14:35:53.000Z</time>
      </trkpt>
      <trkpt lat="43.53387" lon="4.13788">
        <ele>3.7</ele>
        <time>2019-05-30T14:35:58.000Z</time>
      </trkpt>
      <trkpt lat="43.53392" lon="4.13799">
        <ele>4.76</ele>
        <time>2019-05-30T14:36:04.000Z</time>
      </trkpt>
      <trkpt lat="43.53394" lon="4.13812">
        <ele>4.03</ele>
        <time>2019-05-30T14:36:09.000Z</time>
      </trkpt>
      <trkpt lat="43.53384" lon="4.13824">
        <ele>5.53</ele>
        <time>2019-05-30T14:36:14.000Z</time>
      </trkpt>
      <trkpt lat="43.5337" lon="4.13835">
        <ele>6.78</ele>
        <time>2019-05-30T14:36:19.000Z</time>
      </trkpt>
      <trkpt lat="43.53356" lon="4.13843">
        <ele>7.53</ele>
        <time>2019-05-30T14:36:24.000Z</time>
      </trkpt>
      <trkpt lat="43.53339" lon="4.13845">
        <ele>7.04</ele>
        <time>2019-05-30T14:36:29.000Z</time>
      </trkpt>
      <trkpt lat="43.53323" lon="4.13859">
        <ele>3.86</ele>
        <time>2019-05-30T14:36:34.000Z</time>
      </trkpt>
      <trkpt lat="43.53306" lon="4.13872">
        <ele>4.72</ele>
        <time>2019-05-30T14:36:39.000Z</time>
      </trkpt>
      <trkpt lat="43.5329" lon="4.13889">
        <ele>3.8</ele>
        <time>2019-05-30T14:36:44.000Z</time>
      </trkpt>
      <trkpt lat="43.53274" lon="4.13904">
        <ele>2.8</ele>
        <time>2019-05-30T14:36:49.000Z</time>
      </trkpt>
      <trkpt lat="43.53259" lon="4.13919">
        <ele>2.78</ele>
        <time>2019-05-30T14:36:54.000Z</time>
      </trkpt>
      <trkpt lat="43.53245" lon="4.13932">
        <ele>2.78</ele>
        <time>2019-05-30T14:36:59.000Z</time>
      </trkpt>
      <trkpt lat="43.5323" lon="4.13947">
        <ele>3.72</ele>
        <time>2019-05-30T14:37:04.000Z</time>
      </trkpt>
      <trkpt lat="43.53215" lon="4.13961">
        <ele>2.79</ele>
        <time>2019-05-30T14:37:09.000Z</time>
      </trkpt>
      <trkpt lat="43.53199" lon="4.13975">
        <ele>3.78</ele>
        <time>2019-05-30T14:37:14.000Z</time>
      </trkpt>
      <trkpt lat="43.53186" lon="4.13986">
        <ele>3.97</ele>
        <time>2019-05-30T14:37:19.000Z</time>
      </trkpt>
      <trkpt lat="43.53172" lon="4.14001">
        <ele>3.59</ele>
        <time>2019-05-30T14:37:24.000Z</time>
      </trkpt>
      <trkpt lat="43.53158" lon="4.14014">
        <ele>3.78</ele>
        <time>2019-05-30T14:37:29.000Z</time>
      </trkpt>
      <trkpt lat="43.53148" lon="4.14017">
        <ele>2.84</ele>
        <time>2019-05-30T14:37:35.000Z</time>
      </trkpt>
      <trkpt lat="43.53138" lon="4.14018">
        <ele>2.8</ele>
        <time>2019-05-30T14:37:50.000Z</time>
      </trkpt>
      <trkpt lat="43.53124" lon="4.14033">
        <ele>1.8</ele>
        <time>2019-05-30T14:37:55.000Z</time>
      </trkpt>
      <trkpt lat="43.53106" lon="4.14048">
        <ele>0.99</ele>
        <time>2019-05-30T14:38:00.000Z</time>
      </trkpt>
      <trkpt lat="43.53085" lon="4.14064">
        <ele>1.77</ele>
        <time>2019-05-30T14:38:05.000Z</time>
      </trkpt>
      <trkpt lat="43.53066" lon="4.1408">
        <ele>1.78</ele>
        <time>2019-05-30T14:38:10.000Z</time>
      </trkpt>
      <trkpt lat="43.53046" lon="4.14095">
        <ele>2.02</ele>
        <time>2019-05-30T14:38:15.000Z</time>
      </trkpt>
      <trkpt lat="43.53025" lon="4.14106">
        <ele>0.04</ele>
        <time>2019-05-30T14:38:20.000Z</time>
      </trkpt>
      <trkpt lat="43.53003" lon="4.14117">
        <ele>1.53</ele>
        <time>2019-05-30T14:38:25.000Z</time>
      </trkpt>
      <trkpt lat="43.52984" lon="4.14125">
        <ele>2.77</ele>
        <time>2019-05-30T14:38:30.000Z</time>
      </trkpt>
      <trkpt lat="43.52963" lon="4.14137">
        <ele>1.78</ele>
        <time>2019-05-30T14:38:35.000Z</time>
      </trkpt>
      <trkpt lat="43.52942" lon="4.14132">
        <ele>4.47</ele>
        <time>2019-05-30T14:38:40.000Z</time>
      </trkpt>
      <trkpt lat="43.52919" lon="4.14131">
        <ele>4.79</ele>
        <time>2019-05-30T14:38:45.000Z</time>
      </trkpt>
      <trkpt lat="43.52898" lon="4.14122">
        <ele>4.83</ele>
        <time>2019-05-30T14:38:50.000Z</time>
      </trkpt>
      <trkpt lat="43.52882" lon="4.14101">
        <ele>4.78</ele>
        <time>2019-05-30T14:38:55.000Z</time>
      </trkpt>
      <trkpt lat="43.52867" lon="4.14082">
        <ele>4.6</ele>
        <time>2019-05-30T14:39:00.000Z</time>
      </trkpt>
      <trkpt lat="43.52845" lon="4.14074">
        <ele>3.04</ele>
        <time>2019-05-30T14:39:05.000Z</time>
      </trkpt>
      <trkpt lat="43.52829" lon="4.14058">
        <ele>0.04</ele>
        <time>2019-05-30T14:39:10.000Z</time>
      </trkpt>
      <trkpt lat="43.52817" lon="4.14034">
        <ele>2</ele>
        <time>2019-05-30T14:39:15.000Z</time>
      </trkpt>
      <trkpt lat="43.52808" lon="4.14016">
        <ele>0.78</ele>
        <time>2019-05-30T14:39:20.000Z</time>
      </trkpt>
      <trkpt lat="43.52789" lon="4.14014">
        <ele>1.53</ele>
        <time>2019-05-30T14:39:25.000Z</time>
      </trkpt>
      <trkpt lat="43.52771" lon="4.14011">
        <ele>1.78</ele>
        <time>2019-05-30T14:39:30.000Z</time>
      </trkpt>
      <trkpt lat="43.52757" lon="4.14009">
        <ele>1.77</ele>
        <time>2019-05-30T14:39:35.000Z</time>
      </trkpt>
      <trkpt lat="43.52746" lon="4.14001">
        <ele>2.78</ele>
        <time>2019-05-30T14:39:40.000Z</time>
      </trkpt>
      <trkpt lat="43.52736" lon="4.13987">
        <ele>2.78</ele>
        <time>2019-05-30T14:39:45.000Z</time>
      </trkpt>
      <trkpt lat="43.52722" lon="4.13982">
        <ele>2.6</ele>
        <time>2019-05-30T14:39:50.000Z</time>
      </trkpt>
      <trkpt lat="43.52712" lon="4.13976">
        <ele>1.85</ele>
        <time>2019-05-30T14:39:55.000Z</time>
      </trkpt>
      <trkpt lat="43.52704" lon="4.1397">
        <ele>2.78</ele>
        <time>2019-05-30T14:40:01.000Z</time>
      </trkpt>
      <trkpt lat="43.52692" lon="4.13959">
        <ele>2.84</ele>
        <time>2019-05-30T14:40:06.000Z</time>
      </trkpt>
      <trkpt lat="43.52677" lon="4.13953">
        <ele>3.72</ele>
        <time>2019-05-30T14:40:11.000Z</time>
      </trkpt>
      <trkpt lat="43.52667" lon="4.13957">
        <ele>2.99</ele>
        <time>2019-05-30T14:40:25.000Z</time>
      </trkpt>
      <trkpt lat="43.52658" lon="4.13974">
        <ele>1.79</ele>
        <time>2019-05-30T14:40:30.000Z</time>
      </trkpt>
      <trkpt lat="43.52655" lon="4.13997">
        <ele>1.8</ele>
        <time>2019-05-30T14:40:35.000Z</time>
      </trkpt>
      <trkpt lat="43.52656" lon="4.14019">
        <ele>3.72</ele>
        <time>2019-05-30T14:40:40.000Z</time>
      </trkpt>
      <trkpt lat="43.52663" lon="4.14041">
        <ele>4.53</ele>
        <time>2019-05-30T14:40:45.000Z</time>
      </trkpt>
      <trkpt lat="43.52664" lon="4.14054">
        <ele>5.58</ele>
        <time>2019-05-30T14:40:50.000Z</time>
      </trkpt>
      <trkpt lat="43.52654" lon="4.14053">
        <ele>5.08</ele>
        <time>2019-05-30T14:40:56.000Z</time>
      </trkpt>
      <trkpt lat="43.52643" lon="4.14064">
        <ele>4.79</ele>
        <time>2019-05-30T14:41:01.000Z</time>
      </trkpt>
      <trkpt lat="43.52633" lon="4.14074">
        <ele>4</ele>
        <time>2019-05-30T14:41:06.000Z</time>
      </trkpt>
      <trkpt lat="43.52623" lon="4.14095">
        <ele>5</ele>
        <time>2019-05-30T14:41:11.000Z</time>
      </trkpt>
      <trkpt lat="43.52613" lon="4.14118">
        <ele>5</ele>
        <time>2019-05-30T14:41:16.000Z</time>
      </trkpt>
      <trkpt lat="43.52606" lon="4.14139">
        <ele>4</ele>
        <time>2019-05-30T14:41:21.000Z</time>
      </trkpt>
      <trkpt lat="43.52598" lon="4.14164">
        <ele>4</ele>
        <time>2019-05-30T14:41:26.000Z</time>
      </trkpt>
      <trkpt lat="43.52587" lon="4.14177">
        <ele>4</ele>
        <time>2019-05-30T14:41:31.000Z</time>
      </trkpt>
      <trkpt lat="43.52591" lon="4.1419">
        <ele>0.89</ele>
        <time>2019-05-30T14:41:56.000Z</time>
      </trkpt>
      <trkpt lat="43.52575" lon="4.14198">
        <ele>5</ele>
        <time>2019-05-30T14:42:01.000Z</time>
      </trkpt>
      <trkpt lat="43.52554" lon="4.142">
        <ele>1.47</ele>
        <time>2019-05-30T14:42:06.000Z</time>
      </trkpt>
      <trkpt lat="43.52533" lon="4.1419">
        <ele>0.83</ele>
        <time>2019-05-30T14:42:11.000Z</time>
      </trkpt>
      <trkpt lat="43.52517" lon="4.14165">
        <ele>0.28</ele>
        <time>2019-05-30T14:42:16.000Z</time>
      </trkpt>
      <trkpt lat="43.52497" lon="4.14142">
        <ele>0.6</ele>
        <time>2019-05-30T14:42:21.000Z</time>
      </trkpt>
      <trkpt lat="43.52478" lon="4.14118">
        <ele>2.53</ele>
        <time>2019-05-30T14:42:26.000Z</time>
      </trkpt>
      <trkpt lat="43.52458" lon="4.14093">
        <ele>3.77</ele>
        <time>2019-05-30T14:42:31.000Z</time>
      </trkpt>
      <trkpt lat="43.52437" lon="4.14071">
        <ele>2.1</ele>
        <time>2019-05-30T14:42:36.000Z</time>
      </trkpt>
      <trkpt lat="43.52414" lon="4.14054">
        <ele>5</ele>
        <time>2019-05-30T14:42:41.000Z</time>
      </trkpt>
      <trkpt lat="43.52389" lon="4.14039">
        <ele>1.84</ele>
        <time>2019-05-30T14:42:46.000Z</time>
      </trkpt>
      <trkpt lat="43.52366" lon="4.14028">
        <ele>0.29</ele>
        <time>2019-05-30T14:42:51.000Z</time>
      </trkpt>
      <trkpt lat="43.52339" lon="4.14039">
        <ele>0.79</ele>
        <time>2019-05-30T14:42:56.000Z</time>
      </trkpt>
      <trkpt lat="43.52319" lon="4.14066">
        <ele>1.78</ele>
        <time>2019-05-30T14:43:01.000Z</time>
      </trkpt>
      <trkpt lat="43.52294" lon="4.1407">
        <ele>2.79</ele>
        <time>2019-05-30T14:43:06.000Z</time>
      </trkpt>
      <trkpt lat="43.52271" lon="4.14089">
        <ele>2.04</ele>
        <time>2019-05-30T14:43:11.000Z</time>
      </trkpt>
      <trkpt lat="43.52264" lon="4.14122">
        <ele>2.54</ele>
        <time>2019-05-30T14:43:16.000Z</time>
      </trkpt>
      <trkpt lat="43.52265" lon="4.14143">
        <ele>2.79</ele>
        <time>2019-05-30T14:43:21.000Z</time>
      </trkpt>
      <trkpt lat="43.52272" lon="4.14153">
        <ele>1.79</ele>
        <time>2019-05-30T14:43:50.000Z</time>
      </trkpt>
      <trkpt lat="43.52285" lon="4.14171">
        <ele>2.54</ele>
        <time>2019-05-30T14:43:55.000Z</time>
      </trkpt>
      <trkpt lat="43.52297" lon="4.14194">
        <ele>2.74</ele>
        <time>2019-05-30T14:44:00.000Z</time>
      </trkpt>
      <trkpt lat="43.52285" lon="4.14224">
        <ele>1.05</ele>
        <time>2019-05-30T14:44:05.000Z</time>
      </trkpt>
      <trkpt lat="43.52275" lon="4.14258">
        <ele>0.79</ele>
        <time>2019-05-30T14:44:10.000Z</time>
      </trkpt>
      <trkpt lat="43.52256" lon="4.14279">
        <ele>0.79</ele>
        <time>2019-05-30T14:44:15.000Z</time>
      </trkpt>
      <trkpt lat="43.5223" lon="4.14292">
        <ele>0.79</ele>
        <time>2019-05-30T14:44:20.000Z</time>
      </trkpt>
      <trkpt lat="43.52205" lon="4.14303">
        <ele>1.79</ele>
        <time>2019-05-30T14:44:25.000Z</time>
      </trkpt>
      <trkpt lat="43.5218" lon="4.14312">
        <ele>1.79</ele>
        <time>2019-05-30T14:44:30.000Z</time>
      </trkpt>
      <trkpt lat="43.52167" lon="4.14341">
        <ele>0.8</ele>
        <time>2019-05-30T14:44:35.000Z</time>
      </trkpt>
      <trkpt lat="43.52159" lon="4.14368">
        <ele>1.59</ele>
        <time>2019-05-30T14:44:40.000Z</time>
      </trkpt>
      <trkpt lat="43.52151" lon="4.14393">
        <ele>1.79</ele>
        <time>2019-05-30T14:44:45.000Z</time>
      </trkpt>
      <trkpt lat="43.52144" lon="4.14411">
        <ele>0.79</ele>
        <time>2019-05-30T14:44:50.000Z</time>
      </trkpt>
      <trkpt lat="43.52151" lon="4.14403">
        <ele>2.05</ele>
        <time>2019-05-30T14:45:08.000Z</time>
      </trkpt>
      <trkpt lat="43.52161" lon="4.1437">
        <ele>0.79</ele>
        <time>2019-05-30T14:45:13.000Z</time>
      </trkpt>
      <trkpt lat="43.52173" lon="4.14341">
        <ele>2</ele>
        <time>2019-05-30T14:45:18.000Z</time>
      </trkpt>
      <trkpt lat="43.52188" lon="4.14318">
        <ele>2</ele>
        <time>2019-05-30T14:45:23.000Z</time>
      </trkpt>
      <trkpt lat="43.52212" lon="4.14308">
        <ele>0.49</ele>
        <time>2019-05-30T14:45:28.000Z</time>
      </trkpt>
      <trkpt lat="43.52235" lon="4.14297">
        <ele>2.72</ele>
        <time>2019-05-30T14:45:33.000Z</time>
      </trkpt>
      <trkpt lat="43.52259" lon="4.14285">
        <ele>2.77</ele>
        <time>2019-05-30T14:45:38.000Z</time>
      </trkpt>
      <trkpt lat="43.52276" lon="4.14264">
        <ele>1.86</ele>
        <time>2019-05-30T14:45:43.000Z</time>
      </trkpt>
      <trkpt lat="43.52284" lon="4.14234">
        <ele>2.79</ele>
        <time>2019-05-30T14:45:48.000Z</time>
      </trkpt>
      <trkpt lat="43.52296" lon="4.14204">
        <ele>2.79</ele>
        <time>2019-05-30T14:45:53.000Z</time>
      </trkpt>
      <trkpt lat="43.52305" lon="4.14181">
        <ele>2.6</ele>
        <time>2019-05-30T14:45:58.000Z</time>
      </trkpt>
      <trkpt lat="43.52325" lon="4.14178">
        <ele>1.79</ele>
        <time>2019-05-30T14:46:03.000Z</time>
      </trkpt>
      <trkpt lat="43.52339" lon="4.14208">
        <ele>4</ele>
        <time>2019-05-30T14:46:08.000Z</time>
      </trkpt>
      <trkpt lat="43.52352" lon="4.14239">
        <ele>4</ele>
        <time>2019-05-30T14:46:13.000Z</time>
      </trkpt>
      <trkpt lat="43.52365" lon="4.1427">
        <ele>4</ele>
        <time>2019-05-30T14:46:18.000Z</time>
      </trkpt>
      <trkpt lat="43.52371" lon="4.14306">
        <ele>4</ele>
        <time>2019-05-30T14:46:23.000Z</time>
      </trkpt>
      <trkpt lat="43.52379" lon="4.14342">
        <ele>4</ele>
        <time>2019-05-30T14:46:28.000Z</time>
      </trkpt>
      <trkpt lat="43.52387" lon="4.14377">
        <ele>4</ele>
        <time>2019-05-30T14:46:33.000Z</time>
      </trkpt>
      <trkpt lat="43.52396" lon="4.14414">
        <ele>3</ele>
        <time>2019-05-30T14:46:38.000Z</time>
      </trkpt>
      <trkpt lat="43.52404" lon="4.14454">
        <ele>0.54</ele>
        <time>2019-05-30T14:46:43.000Z</time>
      </trkpt>
      <trkpt lat="43.52413" lon="4.14494">
        <ele>2</ele>
        <time>2019-05-30T14:46:48.000Z</time>
      </trkpt>
      <trkpt lat="43.52421" lon="4.14531">
        <ele>2</ele>
        <time>2019-05-30T14:46:53.000Z</time>
      </trkpt>
      <trkpt lat="43.5243" lon="4.14567">
        <ele>2</ele>
        <time>2019-05-30T14:46:58.000Z</time>
      </trkpt>
      <trkpt lat="43.52438" lon="4.14604">
        <ele>3</ele>
        <time>2019-05-30T14:47:03.000Z</time>
      </trkpt>
      <trkpt lat="43.52446" lon="4.14641">
        <ele>3</ele>
        <time>2019-05-30T14:47:08.000Z</time>
      </trkpt>
      <trkpt lat="43.52454" lon="4.14676">
        <ele>4</ele>
        <time>2019-05-30T14:47:13.000Z</time>
      </trkpt>
      <trkpt lat="43.52464" lon="4.14712">
        <ele>4</ele>
        <time>2019-05-30T14:47:18.000Z</time>
      </trkpt>
      <trkpt lat="43.52475" lon="4.14746">
        <ele>4</ele>
        <time>2019-05-30T14:47:23.000Z</time>
      </trkpt>
      <trkpt lat="43.52487" lon="4.14777">
        <ele>3</ele>
        <time>2019-05-30T14:47:28.000Z</time>
      </trkpt>
      <trkpt lat="43.525" lon="4.14809">
        <ele>2</ele>
        <time>2019-05-30T14:47:33.000Z</time>
      </trkpt>
      <trkpt lat="43.52513" lon="4.14837">
        <ele>3</ele>
        <time>2019-05-30T14:47:38.000Z</time>
      </trkpt>
      <trkpt lat="43.52527" lon="4.14864">
        <ele>3</ele>
        <time>2019-05-30T14:47:43.000Z</time>
      </trkpt>
      <trkpt lat="43.52541" lon="4.14891">
        <ele>3</ele>
        <time>2019-05-30T14:47:48.000Z</time>
      </trkpt>
      <trkpt lat="43.52558" lon="4.14917">
        <ele>3</ele>
        <time>2019-05-30T14:47:53.000Z</time>
      </trkpt>
      <trkpt lat="43.52577" lon="4.14939">
        <ele>3</ele>
        <time>2019-05-30T14:47:58.000Z</time>
      </trkpt>
      <trkpt lat="43.52586" lon="4.14966">
        <ele>4</ele>
        <time>2019-05-30T14:48:03.000Z</time>
      </trkpt>
      <trkpt lat="43.52589" lon="4.14995">
        <ele>4</ele>
        <time>2019-05-30T14:48:08.000Z</time>
      </trkpt>
      <trkpt lat="43.52577" lon="4.15021">
        <ele>3</ele>
        <time>2019-05-30T14:48:13.000Z</time>
      </trkpt>
      <trkpt lat="43.52553" lon="4.15032">
        <ele>0.54</ele>
        <time>2019-05-30T14:48:18.000Z</time>
      </trkpt>
      <trkpt lat="43.52528" lon="4.15029">
        <ele>0.74</ele>
        <time>2019-05-30T14:48:23.000Z</time>
      </trkpt>
      <trkpt lat="43.52508" lon="4.15003">
        <ele>0.79</ele>
        <time>2019-05-30T14:48:28.000Z</time>
      </trkpt>
      <trkpt lat="43.52487" lon="4.15004">
        <ele>1.04</ele>
        <time>2019-05-30T14:48:33.000Z</time>
      </trkpt>
      <trkpt lat="43.52463" lon="4.14992">
        <ele>0.98</ele>
        <time>2019-05-30T14:48:38.000Z</time>
      </trkpt>
      <trkpt lat="43.52438" lon="4.14978">
        <ele>2.72</ele>
        <time>2019-05-30T14:48:43.000Z</time>
      </trkpt>
      <trkpt lat="43.52412" lon="4.14963">
        <ele>3.77</ele>
        <time>2019-05-30T14:48:48.000Z</time>
      </trkpt>
      <trkpt lat="43.52385" lon="4.14947">
        <ele>4.53</ele>
        <time>2019-05-30T14:48:53.000Z</time>
      </trkpt>
      <trkpt lat="43.52358" lon="4.14932">
        <ele>3.04</ele>
        <time>2019-05-30T14:48:58.000Z</time>
      </trkpt>
      <trkpt lat="43.52333" lon="4.14917">
        <ele>1.85</ele>
        <time>2019-05-30T14:49:03.000Z</time>
      </trkpt>
      <trkpt lat="43.52307" lon="4.1491">
        <ele>0.8</ele>
        <time>2019-05-30T14:49:08.000Z</time>
      </trkpt>
      <trkpt lat="43.52285" lon="4.14916">
        <ele>1.73</ele>
        <time>2019-05-30T14:49:13.000Z</time>
      </trkpt>
      <trkpt lat="43.52271" lon="4.14929">
        <ele>0.8</ele>
        <time>2019-05-30T14:49:18.000Z</time>
      </trkpt>
      <trkpt lat="43.52255" lon="4.14941">
        <ele>0.79</ele>
        <time>2019-05-30T14:49:23.000Z</time>
      </trkpt>
      <trkpt lat="43.52232" lon="4.1495">
        <ele>1</ele>
        <time>2019-05-30T14:49:28.000Z</time>
      </trkpt>
      <trkpt lat="43.52211" lon="4.14953">
        <ele>1</ele>
        <time>2019-05-30T14:49:33.000Z</time>
      </trkpt>
      <trkpt lat="43.52202" lon="4.14941">
        <ele>2</ele>
        <time>2019-05-30T14:49:38.000Z</time>
      </trkpt>
      <trkpt lat="43.52203" lon="4.14955">
        <ele>2</ele>
        <time>2019-05-30T14:50:20.000Z</time>
      </trkpt>
      <trkpt lat="43.52189" lon="4.1496">
        <ele>2</ele>
        <time>2019-05-30T14:50:25.000Z</time>
      </trkpt>
      <trkpt lat="43.5217" lon="4.14964">
        <ele>2</ele>
        <time>2019-05-30T14:50:30.000Z</time>
      </trkpt>
      <trkpt lat="43.52151" lon="4.14967">
        <ele>2</ele>
        <time>2019-05-30T14:50:35.000Z</time>
      </trkpt>
      <trkpt lat="43.52133" lon="4.14969">
        <ele>2</ele>
        <time>2019-05-30T14:50:40.000Z</time>
      </trkpt>
      <trkpt lat="43.52106" lon="4.14971">
        <ele>0.77</ele>
        <time>2019-05-30T14:50:45.000Z</time>
      </trkpt>
      <trkpt lat="43.52078" lon="4.14972">
        <ele>1.55</ele>
        <time>2019-05-30T14:50:50.000Z</time>
      </trkpt>
      <trkpt lat="43.52049" lon="4.14973">
        <ele>0.81</ele>
        <time>2019-05-30T14:50:55.000Z</time>
      </trkpt>
      <trkpt lat="43.52018" lon="4.14975">
        <ele>3</ele>
        <time>2019-05-30T14:51:00.000Z</time>
      </trkpt>
      <trkpt lat="43.51988" lon="4.14976">
        <ele>1.77</ele>
        <time>2019-05-30T14:51:05.000Z</time>
      </trkpt>
      <trkpt lat="43.51956" lon="4.14979">
        <ele>3.73</ele>
        <time>2019-05-30T14:51:10.000Z</time>
      </trkpt>
      <trkpt lat="43.51925" lon="4.14984">
        <ele>2.85</ele>
        <time>2019-05-30T14:51:15.000Z</time>
      </trkpt>
      <trkpt lat="43.51894" lon="4.14994">
        <ele>1.04</ele>
        <time>2019-05-30T14:51:20.000Z</time>
      </trkpt>
      <trkpt lat="43.51863" lon="4.15006">
        <ele>1.78</ele>
        <time>2019-05-30T14:51:25.000Z</time>
      </trkpt>
      <trkpt lat="43.51832" lon="4.15018">
        <ele>1.79</ele>
        <time>2019-05-30T14:51:30.000Z</time>
      </trkpt>
      <trkpt lat="43.51801" lon="4.15025">
        <ele>1.99</ele>
        <time>2019-05-30T14:51:35.000Z</time>
      </trkpt>
      <trkpt lat="43.51772" lon="4.1503">
        <ele>2.59</ele>
        <time>2019-05-30T14:51:40.000Z</time>
      </trkpt>
      <trkpt lat="43.51743" lon="4.15031">
        <ele>2.6</ele>
        <time>2019-05-30T14:51:45.000Z</time>
      </trkpt>
      <trkpt lat="43.51724" lon="4.15026">
        <ele>1.8</ele>
        <time>2019-05-30T14:51:50.000Z</time>
      </trkpt>
      <trkpt lat="43.51716" lon="4.15015">
        <ele>1.79</ele>
        <time>2019-05-30T14:51:55.000Z</time>
      </trkpt>
      <trkpt lat="43.51701" lon="4.15005">
        <ele>1.79</ele>
        <time>2019-05-30T14:52:00.000Z</time>
      </trkpt>
      <trkpt lat="43.51682" lon="4.15012">
        <ele>2.79</ele>
        <time>2019-05-30T14:52:05.000Z</time>
      </trkpt>
      <trkpt lat="43.51663" lon="4.15035">
        <ele>0.86</ele>
        <time>2019-05-30T14:52:10.000Z</time>
      </trkpt>
      <trkpt lat="43.51638" lon="4.1503">
        <ele>1.78</ele>
        <time>2019-05-30T14:52:15.000Z</time>
      </trkpt>
      <trkpt lat="43.51609" lon="4.15025">
        <ele>1.75</ele>
        <time>2019-05-30T14:52:20.000Z</time>
      </trkpt>
      <trkpt lat="43.51581" lon="4.1502">
        <ele>2.79</ele>
        <time>2019-05-30T14:52:25.000Z</time>
      </trkpt>
      <trkpt lat="43.51551" lon="4.15013">
        <ele>2.61</ele>
        <time>2019-05-30T14:52:30.000Z</time>
      </trkpt>
      <trkpt lat="43.51524" lon="4.15">
        <ele>4.78</ele>
        <time>2019-05-30T14:52:35.000Z</time>
      </trkpt>
      <trkpt lat="43.51497" lon="4.14984">
        <ele>4.66</ele>
        <time>2019-05-30T14:52:40.000Z</time>
      </trkpt>
      <trkpt lat="43.51471" lon="4.14961">
        <ele>4.75</ele>
        <time>2019-05-30T14:52:45.000Z</time>
      </trkpt>
      <trkpt lat="43.51447" lon="4.14938">
        <ele>5.79</ele>
        <time>2019-05-30T14:52:50.000Z</time>
      </trkpt>
      <trkpt lat="43.51421" lon="4.14914">
        <ele>4.81</ele>
        <time>2019-05-30T14:52:55.000Z</time>
      </trkpt>
      <trkpt lat="43.51395" lon="4.1489">
        <ele>4.78</ele>
        <time>2019-05-30T14:53:00.000Z</time>
      </trkpt>
      <trkpt lat="43.51369" lon="4.14866">
        <ele>3</ele>
        <time>2019-05-30T14:53:05.000Z</time>
      </trkpt>
      <trkpt lat="43.51344" lon="4.14842">
        <ele>2.79</ele>
        <time>2019-05-30T14:53:10.000Z</time>
      </trkpt>
      <trkpt lat="43.51318" lon="4.14818">
        <ele>4.54</ele>
        <time>2019-05-30T14:53:15.000Z</time>
      </trkpt>
      <trkpt lat="43.51292" lon="4.14795">
        <ele>4.79</ele>
        <time>2019-05-30T14:53:20.000Z</time>
      </trkpt>
      <trkpt lat="43.51269" lon="4.14769">
        <ele>5.54</ele>
        <time>2019-05-30T14:53:25.000Z</time>
      </trkpt>
      <trkpt lat="43.51248" lon="4.14739">
        <ele>3.11</ele>
        <time>2019-05-30T14:53:30.000Z</time>
      </trkpt>
      <trkpt lat="43.51229" lon="4.14711">
        <ele>2.05</ele>
        <time>2019-05-30T14:53:35.000Z</time>
      </trkpt>
      <trkpt lat="43.51212" lon="4.14684">
        <ele>2.79</ele>
        <time>2019-05-30T14:53:40.000Z</time>
      </trkpt>
      <trkpt lat="43.51195" lon="4.14656">
        <ele>1.81</ele>
        <time>2019-05-30T14:53:45.000Z</time>
      </trkpt>
      <trkpt lat="43.51183" lon="4.14634">
        <ele>3.54</ele>
        <time>2019-05-30T14:53:50.000Z</time>
      </trkpt>
      <trkpt lat="43.51175" lon="4.14624">
        <ele>3.79</ele>
        <time>2019-05-30T14:53:55.000Z</time>
      </trkpt>
      <trkpt lat="43.51167" lon="4.14615">
        <ele>3.04</ele>
        <time>2019-05-30T14:54:00.000Z</time>
      </trkpt>
      <trkpt lat="43.51156" lon="4.14606">
        <ele>2.81</ele>
        <time>2019-05-30T14:54:05.000Z</time>
      </trkpt>
      <trkpt lat="43.51145" lon="4.146">
        <ele>1.86</ele>
        <time>2019-05-30T14:54:10.000Z</time>
      </trkpt>
      <trkpt lat="43.51126" lon="4.14595">
        <ele>1.85</ele>
        <time>2019-05-30T14:54:15.000Z</time>
      </trkpt>
      <trkpt lat="43.51102" lon="4.14593">
        <ele>0.03</ele>
        <time>2019-05-30T14:54:20.000Z</time>
      </trkpt>
      <trkpt lat="43.51079" lon="4.14591">
        <ele>0.79</ele>
        <time>2019-05-30T14:54:25.000Z</time>
      </trkpt>
      <trkpt lat="43.51055" lon="4.14588">
        <ele>0.84</ele>
        <time>2019-05-30T14:54:30.000Z</time>
      </trkpt>
      <trkpt lat="43.5103" lon="4.14586">
        <ele>0.06</ele>
        <time>2019-05-30T14:54:35.000Z</time>
      </trkpt>
      <trkpt lat="43.51005" lon="4.14583">
        <ele>1</ele>
        <time>2019-05-30T14:54:40.000Z</time>
      </trkpt>
      <trkpt lat="43.50983" lon="4.1458">
        <ele>0.73</ele>
        <time>2019-05-30T14:54:45.000Z</time>
      </trkpt>
      <trkpt lat="43.50958" lon="4.14574">
        <ele>1</ele>
        <time>2019-05-30T14:54:50.000Z</time>
      </trkpt>
      <trkpt lat="43.50934" lon="4.14567">
        <ele>0.79</ele>
        <time>2019-05-30T14:54:55.000Z</time>
      </trkpt>
      <trkpt lat="43.50909" lon="4.14561">
        <ele>1</ele>
        <time>2019-05-30T14:55:00.000Z</time>
      </trkpt>
      <trkpt lat="43.50884" lon="4.14553">
        <ele>2</ele>
        <time>2019-05-30T14:55:05.000Z</time>
      </trkpt>
      <trkpt lat="43.50877" lon="4.14537">
        <ele>0.72</ele>
        <time>2019-05-30T14:55:10.000Z</time>
      </trkpt>
      <trkpt lat="43.50878" lon="4.14521">
        <ele>0.8</ele>
        <time>2019-05-30T14:55:15.000Z</time>
      </trkpt>
      <trkpt lat="43.50868" lon="4.14525">
        <ele>3.48</ele>
        <time>2019-05-30T14:55:43.000Z</time>
      </trkpt>
      <trkpt lat="43.50861" lon="4.14512">
        <ele>1.8</ele>
        <time>2019-05-30T14:55:48.000Z</time>
      </trkpt>
      <trkpt lat="43.50857" lon="4.14498">
        <ele>1.8</ele>
        <time>2019-05-30T14:56:08.000Z</time>
      </trkpt>
      <trkpt lat="43.50855" lon="4.14476">
        <ele>2.55</ele>
        <time>2019-05-30T14:56:13.000Z</time>
      </trkpt>
      <trkpt lat="43.50852" lon="4.14449">
        <ele>1.05</ele>
        <time>2019-05-30T14:56:18.000Z</time>
      </trkpt>
      <trkpt lat="43.50855" lon="4.14431">
        <ele>0.98</ele>
        <time>2019-05-30T14:56:23.000Z</time>
      </trkpt>
      <trkpt lat="43.50857" lon="4.14406">
        <ele>2</ele>
        <time>2019-05-30T14:56:28.000Z</time>
      </trkpt>
      <trkpt lat="43.5086" lon="4.14373">
        <ele>2</ele>
        <time>2019-05-30T14:56:33.000Z</time>
      </trkpt>
      <trkpt lat="43.5086" lon="4.14339">
        <ele>2</ele>
        <time>2019-05-30T14:56:38.000Z</time>
      </trkpt>
      <trkpt lat="43.50858" lon="4.14303">
        <ele>2</ele>
        <time>2019-05-30T14:56:43.000Z</time>
      </trkpt>
      <trkpt lat="43.50856" lon="4.14267">
        <ele>2</ele>
        <time>2019-05-30T14:56:48.000Z</time>
      </trkpt>
      <trkpt lat="43.50854" lon="4.1423">
        <ele>2</ele>
        <time>2019-05-30T14:56:53.000Z</time>
      </trkpt>
      <trkpt lat="43.5085" lon="4.14192">
        <ele>3</ele>
        <time>2019-05-30T14:56:58.000Z</time>
      </trkpt>
      <trkpt lat="43.50849" lon="4.14157">
        <ele>2</ele>
        <time>2019-05-30T14:57:03.000Z</time>
      </trkpt>
      <trkpt lat="43.50848" lon="4.14122">
        <ele>2</ele>
        <time>2019-05-30T14:57:08.000Z</time>
      </trkpt>
      <trkpt lat="43.50845" lon="4.14087">
        <ele>1</ele>
        <time>2019-05-30T14:57:13.000Z</time>
      </trkpt>
      <trkpt lat="43.50843" lon="4.14049">
        <ele>2</ele>
        <time>2019-05-30T14:57:18.000Z</time>
      </trkpt>
      <trkpt lat="43.50841" lon="4.14015">
        <ele>2</ele>
        <time>2019-05-30T14:57:23.000Z</time>
      </trkpt>
      <trkpt lat="43.5084" lon="4.13984">
        <ele>2</ele>
        <time>2019-05-30T14:57:28.000Z</time>
      </trkpt>
      <trkpt lat="43.50843" lon="4.13963">
        <ele>2</ele>
        <time>2019-05-30T14:57:33.000Z</time>
      </trkpt>
      <trkpt lat="43.50841" lon="4.13947">
        <ele>2</ele>
        <time>2019-05-30T14:57:38.000Z</time>
      </trkpt>
      <trkpt lat="43.50841" lon="4.13961">
        <ele>2.78</ele>
        <time>2019-05-30T14:58:19.000Z</time>
      </trkpt>
      <trkpt lat="43.50844" lon="4.13982">
        <ele>0.86</ele>
        <time>2019-05-30T14:58:24.000Z</time>
      </trkpt>
      <trkpt lat="43.50839" lon="4.14006">
        <ele>0.05</ele>
        <time>2019-05-30T14:58:29.000Z</time>
      </trkpt>
      <trkpt lat="43.50841" lon="4.14036">
        <ele>2</ele>
        <time>2019-05-30T14:58:34.000Z</time>
      </trkpt>
      <trkpt lat="43.50843" lon="4.14069">
        <ele>0.55</ele>
        <time>2019-05-30T14:58:39.000Z</time>
      </trkpt>
      <trkpt lat="43.50845" lon="4.14101">
        <ele>2</ele>
        <time>2019-05-30T14:58:44.000Z</time>
      </trkpt>
      <trkpt lat="43.50847" lon="4.14136">
        <ele>2</ele>
        <time>2019-05-30T14:58:49.000Z</time>
      </trkpt>
      <trkpt lat="43.50848" lon="4.1417">
        <ele>0.55</ele>
        <time>2019-05-30T14:58:54.000Z</time>
      </trkpt>
      <trkpt lat="43.5085" lon="4.14205">
        <ele>0.79</ele>
        <time>2019-05-30T14:58:59.000Z</time>
      </trkpt>
      <trkpt lat="43.50852" lon="4.1424">
        <ele>2</ele>
        <time>2019-05-30T14:59:04.000Z</time>
      </trkpt>
      <trkpt lat="43.50854" lon="4.14275">
        <ele>2</ele>
        <time>2019-05-30T14:59:09.000Z</time>
      </trkpt>
      <trkpt lat="43.50856" lon="4.14307">
        <ele>2</ele>
        <time>2019-05-30T14:59:14.000Z</time>
      </trkpt>
      <trkpt lat="43.50857" lon="4.14339">
        <ele>2</ele>
        <time>2019-05-30T14:59:19.000Z</time>
      </trkpt>
      <trkpt lat="43.50857" lon="4.14372">
        <ele>0.48</ele>
        <time>2019-05-30T14:59:24.000Z</time>
      </trkpt>
      <trkpt lat="43.50856" lon="4.14406">
        <ele>2</ele>
        <time>2019-05-30T14:59:29.000Z</time>
      </trkpt>
      <trkpt lat="43.50852" lon="4.14438">
        <ele>3</ele>
        <time>2019-05-30T14:59:34.000Z</time>
      </trkpt>
      <trkpt lat="43.50851" lon="4.14469">
        <ele>3</ele>
        <time>2019-05-30T14:59:39.000Z</time>
      </trkpt>
      <trkpt lat="43.50855" lon="4.145">
        <ele>2</ele>
        <time>2019-05-30T14:59:44.000Z</time>
      </trkpt>
      <trkpt lat="43.50853" lon="4.14515">
        <ele>0.73</ele>
        <time>2019-05-30T14:59:49.000Z</time>
      </trkpt>
      <trkpt lat="43.5084" lon="4.1452">
        <ele>0.8</ele>
        <time>2019-05-30T14:59:54.000Z</time>
      </trkpt>
      <trkpt lat="43.50832" lon="4.14535">
        <ele>0.8</ele>
        <time>2019-05-30T14:59:59.000Z</time>
      </trkpt>
      <trkpt lat="43.50825" lon="4.14549">
        <ele>0.98</ele>
        <time>2019-05-30T15:00:04.000Z</time>
      </trkpt>
      <trkpt lat="43.50813" lon="4.1456">
        <ele>2.53</ele>
        <time>2019-05-30T15:00:09.000Z</time>
      </trkpt>
      <trkpt lat="43.50787" lon="4.14557">
        <ele>2.55</ele>
        <time>2019-05-30T15:00:14.000Z</time>
      </trkpt>
      <trkpt lat="43.50764" lon="4.14554">
        <ele>2.86</ele>
        <time>2019-05-30T15:00:19.000Z</time>
      </trkpt>
      <trkpt lat="43.50744" lon="4.14552">
        <ele>2.11</ele>
        <time>2019-05-30T15:00:24.000Z</time>
      </trkpt>
      <trkpt lat="43.50735" lon="4.14538">
        <ele>2.55</ele>
        <time>2019-05-30T15:00:29.000Z</time>
      </trkpt>
      <trkpt lat="43.50724" lon="4.14534">
        <ele>2.55</ele>
        <time>2019-05-30T15:00:34.000Z</time>
      </trkpt>
      <trkpt lat="43.50731" lon="4.14541">
        <ele>4.48</ele>
        <time>2019-05-30T15:01:05.000Z</time>
      </trkpt>
      <trkpt lat="43.5074" lon="4.14537">
        <ele>6.78</ele>
        <time>2019-05-30T15:01:12.000Z</time>
      </trkpt>
      <trkpt lat="43.50738" lon="4.1455">
        <ele>4.05</ele>
        <time>2019-05-30T15:01:23.000Z</time>
      </trkpt>
      <trkpt lat="43.50728" lon="4.14554">
        <ele>2.8</ele>
        <time>2019-05-30T15:01:28.000Z</time>
      </trkpt>
      <trkpt lat="43.50706" lon="4.14548">
        <ele>2.86</ele>
        <time>2019-05-30T15:01:33.000Z</time>
      </trkpt>
      <trkpt lat="43.5068" lon="4.14543">
        <ele>2.78</ele>
        <time>2019-05-30T15:01:38.000Z</time>
      </trkpt>
      <trkpt lat="43.50658" lon="4.14537">
        <ele>1.79</ele>
        <time>2019-05-30T15:01:43.000Z</time>
      </trkpt>
      <trkpt lat="43.50635" lon="4.14532">
        <ele>1.8</ele>
        <time>2019-05-30T15:01:48.000Z</time>
      </trkpt>
      <trkpt lat="43.50611" lon="4.14524">
        <ele>1.74</ele>
        <time>2019-05-30T15:01:53.000Z</time>
      </trkpt>
      <trkpt lat="43.50584" lon="4.14523">
        <ele>0.81</ele>
        <time>2019-05-30T15:01:58.000Z</time>
      </trkpt>
      <trkpt lat="43.50557" lon="4.1452">
        <ele>1</ele>
        <time>2019-05-30T15:02:03.000Z</time>
      </trkpt>
      <trkpt lat="43.50535" lon="4.14508">
        <ele>0.78</ele>
        <time>2019-05-30T15:02:08.000Z</time>
      </trkpt>
      <trkpt lat="43.50516" lon="4.1449">
        <ele>1.75</ele>
        <time>2019-05-30T15:02:13.000Z</time>
      </trkpt>
      <trkpt lat="43.50498" lon="4.14467">
        <ele>1.8</ele>
        <time>2019-05-30T15:02:18.000Z</time>
      </trkpt>
      <trkpt lat="43.50485" lon="4.14439">
        <ele>0.8</ele>
        <time>2019-05-30T15:02:23.000Z</time>
      </trkpt>
      <trkpt lat="43.50478" lon="4.14414">
        <ele>0.8</ele>
        <time>2019-05-30T15:02:28.000Z</time>
      </trkpt>
      <trkpt lat="43.50481" lon="4.14426">
        <ele>1</ele>
        <time>2019-05-30T15:02:36.000Z</time>
      </trkpt>
      <trkpt lat="43.50486" lon="4.14452">
        <ele>1</ele>
        <time>2019-05-30T15:02:41.000Z</time>
      </trkpt>
      <trkpt lat="43.50501" lon="4.14478">
        <ele>2</ele>
        <time>2019-05-30T15:02:46.000Z</time>
      </trkpt>
      <trkpt lat="43.50519" lon="4.14501">
        <ele>1</ele>
        <time>2019-05-30T15:02:51.000Z</time>
      </trkpt>
      <trkpt lat="43.50538" lon="4.14512">
        <ele>1</ele>
        <time>2019-05-30T15:02:56.000Z</time>
      </trkpt>
      <trkpt lat="43.50561" lon="4.14524">
        <ele>1</ele>
        <time>2019-05-30T15:03:01.000Z</time>
      </trkpt>
      <trkpt lat="43.50586" lon="4.1453">
        <ele>1</ele>
        <time>2019-05-30T15:03:06.000Z</time>
      </trkpt>
      <trkpt lat="43.50611" lon="4.14533">
        <ele>2</ele>
        <time>2019-05-30T15:03:11.000Z</time>
      </trkpt>
      <trkpt lat="43.50637" lon="4.14537">
        <ele>0.59</ele>
        <time>2019-05-30T15:03:16.000Z</time>
      </trkpt>
      <trkpt lat="43.50662" lon="4.14544">
        <ele>0.55</ele>
        <time>2019-05-30T15:03:21.000Z</time>
      </trkpt>
      <trkpt lat="43.5069" lon="4.1455">
        <ele>1</ele>
        <time>2019-05-30T15:03:26.000Z</time>
      </trkpt>
      <trkpt lat="43.50717" lon="4.14556">
        <ele>0.81</ele>
        <time>2019-05-30T15:03:31.000Z</time>
      </trkpt>
      <trkpt lat="43.50744" lon="4.14559">
        <ele>0.81</ele>
        <time>2019-05-30T15:03:36.000Z</time>
      </trkpt>
      <trkpt lat="43.50769" lon="4.14558">
        <ele>0.61</ele>
        <time>2019-05-30T15:03:41.000Z</time>
      </trkpt>
      <trkpt lat="43.50794" lon="4.1456">
        <ele>2</ele>
        <time>2019-05-30T15:03:46.000Z</time>
      </trkpt>
      <trkpt lat="43.50818" lon="4.14557">
        <ele>0.73</ele>
        <time>2019-05-30T15:03:51.000Z</time>
      </trkpt>
      <trkpt lat="43.50834" lon="4.1454">
        <ele>0.84</ele>
        <time>2019-05-30T15:03:56.000Z</time>
      </trkpt>
      <trkpt lat="43.50842" lon="4.14524">
        <ele>0.8</ele>
        <time>2019-05-30T15:04:01.000Z</time>
      </trkpt>
      <trkpt lat="43.50856" lon="4.14521">
        <ele>2.79</ele>
        <time>2019-05-30T15:04:06.000Z</time>
      </trkpt>
      <trkpt lat="43.50872" lon="4.14528">
        <ele>2.55</ele>
        <time>2019-05-30T15:04:11.000Z</time>
      </trkpt>
      <trkpt lat="43.50883" lon="4.14551">
        <ele>1.86</ele>
        <time>2019-05-30T15:04:16.000Z</time>
      </trkpt>
      <trkpt lat="43.50898" lon="4.14567">
        <ele>2.05</ele>
        <time>2019-05-30T15:04:21.000Z</time>
      </trkpt>
      <trkpt lat="43.50922" lon="4.14569">
        <ele>1</ele>
        <time>2019-05-30T15:04:26.000Z</time>
      </trkpt>
      <trkpt lat="43.50945" lon="4.14575">
        <ele>1</ele>
        <time>2019-05-30T15:04:31.000Z</time>
      </trkpt>
      <trkpt lat="43.50966" lon="4.14579">
        <ele>1</ele>
        <time>2019-05-30T15:04:36.000Z</time>
      </trkpt>
      <trkpt lat="43.50982" lon="4.14582">
        <ele>0.79</ele>
        <time>2019-05-30T15:04:41.000Z</time>
      </trkpt>
      <trkpt lat="43.50995" lon="4.14584">
        <ele>0.09</ele>
        <time>2019-05-30T15:04:46.000Z</time>
      </trkpt>
      <trkpt lat="43.51009" lon="4.14586">
        <ele>1.2</ele>
        <time>2019-05-30T15:04:51.000Z</time>
      </trkpt>
      <trkpt lat="43.5103" lon="4.14587">
        <ele>0.04</ele>
        <time>2019-05-30T15:04:56.000Z</time>
      </trkpt>
      <trkpt lat="43.51055" lon="4.14591">
        <ele>2</ele>
        <time>2019-05-30T15:05:01.000Z</time>
      </trkpt>
      <trkpt lat="43.5108" lon="4.14594">
        <ele>0.61</ele>
        <time>2019-05-30T15:05:06.000Z</time>
      </trkpt>
      <trkpt lat="43.51105" lon="4.14595">
        <ele>0.98</ele>
        <time>2019-05-30T15:05:11.000Z</time>
      </trkpt>
      <trkpt lat="43.51129" lon="4.14599">
        <ele>1.79</ele>
        <time>2019-05-30T15:05:16.000Z</time>
      </trkpt>
      <trkpt lat="43.51154" lon="4.14608">
        <ele>2.54</ele>
        <time>2019-05-30T15:05:21.000Z</time>
      </trkpt>
      <trkpt lat="43.51175" lon="4.14626">
        <ele>2.55</ele>
        <time>2019-05-30T15:05:26.000Z</time>
      </trkpt>
      <trkpt lat="43.51187" lon="4.14626">
        <ele>0.11</ele>
        <time>2019-05-30T15:05:31.000Z</time>
      </trkpt>
      <trkpt lat="43.51181" lon="4.14609">
        <ele>0.73</ele>
        <time>2019-05-30T15:05:36.000Z</time>
      </trkpt>
      <trkpt lat="43.51186" lon="4.14598">
        <ele>2</ele>
        <time>2019-05-30T15:06:21.000Z</time>
      </trkpt>
      <trkpt lat="43.51184" lon="4.1461">
        <ele>1.03</ele>
        <time>2019-05-30T15:07:40.000Z</time>
      </trkpt>
      <trkpt lat="43.51193" lon="4.14602">
        <ele>2</ele>
        <time>2019-05-30T15:08:14.000Z</time>
      </trkpt>
      <trkpt lat="43.51199" lon="4.14583">
        <ele>2</ele>
        <time>2019-05-30T15:08:19.000Z</time>
      </trkpt>
      <trkpt lat="43.51203" lon="4.14563">
        <ele>2</ele>
        <time>2019-05-30T15:08:24.000Z</time>
      </trkpt>
      <trkpt lat="43.51208" lon="4.14548">
        <ele>2</ele>
        <time>2019-05-30T15:08:29.000Z</time>
      </trkpt>
      <trkpt lat="43.51213" lon="4.14532">
        <ele>2</ele>
        <time>2019-05-30T15:08:34.000Z</time>
      </trkpt>
      <trkpt lat="43.51218" lon="4.14514">
        <ele>2</ele>
        <time>2019-05-30T15:08:39.000Z</time>
      </trkpt>
      <trkpt lat="43.51225" lon="4.14504">
        <ele>2</ele>
        <time>2019-05-30T15:08:44.000Z</time>
      </trkpt>
      <trkpt lat="43.51218" lon="4.14513">
        <ele>2</ele>
        <time>2019-05-30T15:09:12.000Z</time>
      </trkpt>
      <trkpt lat="43.51212" lon="4.14523">
        <ele>2</ele>
        <time>2019-05-30T15:09:17.000Z</time>
      </trkpt>
      <trkpt lat="43.51208" lon="4.14534">
        <ele>2</ele>
        <time>2019-05-30T15:09:24.000Z</time>
      </trkpt>
      <trkpt lat="43.51214" lon="4.14523">
        <ele>2</ele>
        <time>2019-05-30T15:10:18.000Z</time>
      </trkpt>
      <trkpt lat="43.5122" lon="4.14513">
        <ele>2</ele>
        <time>2019-05-30T15:10:24.000Z</time>
      </trkpt>
      <trkpt lat="43.51227" lon="4.14505">
        <ele>0.03</ele>
        <time>2019-05-30T15:10:32.000Z</time>
      </trkpt>
      <trkpt lat="43.5123" lon="4.14503">
        <ele>0.78</ele>
        <time>2019-05-30T15:12:19.000Z</time>
      </trkpt>
    </trkseg>
  </trk>
  <trk>
    <name><![CDATA[2019-05-31 09:19:32]]></name>
    <trkseg>
      <trkpt lat="43.51227" lon="4.14506">
        <ele>2</ele>
        <time>2019-05-31T07:19:38.000Z</time>
      </trkpt>
      <trkpt lat="43.51218" lon="4.1451">
        <ele>2.79</ele>
        <time>2019-05-31T07:20:19.000Z</time>
      </trkpt>
      <trkpt lat="43.51214" lon="4.14528">
        <ele>3.98</ele>
        <time>2019-05-31T07:20:24.000Z</time>
      </trkpt>
      <trkpt lat="43.5121" lon="4.14548">
        <ele>2.81</ele>
        <time>2019-05-31T07:20:29.000Z</time>
      </trkpt>
      <trkpt lat="43.51202" lon="4.14565">
        <ele>1.81</ele>
        <time>2019-05-31T07:20:34.000Z</time>
      </trkpt>
      <trkpt lat="43.51197" lon="4.14579">
        <ele>1.79</ele>
        <time>2019-05-31T07:20:39.000Z</time>
      </trkpt>
      <trkpt lat="43.51192" lon="4.14592">
        <ele>3.06</ele>
        <time>2019-05-31T07:21:33.000Z</time>
      </trkpt>
      <trkpt lat="43.51188" lon="4.14608">
        <ele>2.56</ele>
        <time>2019-05-31T07:21:38.000Z</time>
      </trkpt>
      <trkpt lat="43.51185" lon="4.14626">
        <ele>0.11</ele>
        <time>2019-05-31T07:21:43.000Z</time>
      </trkpt>
      <trkpt lat="43.51187" lon="4.14645">
        <ele>2</ele>
        <time>2019-05-31T07:21:48.000Z</time>
      </trkpt>
      <trkpt lat="43.51199" lon="4.14666">
        <ele>0.79</ele>
        <time>2019-05-31T07:21:53.000Z</time>
      </trkpt>
      <trkpt lat="43.51213" lon="4.14688">
        <ele>1.79</ele>
        <time>2019-05-31T07:21:58.000Z</time>
      </trkpt>
      <trkpt lat="43.51229" lon="4.14707">
        <ele>1.79</ele>
        <time>2019-05-31T07:22:03.000Z</time>
      </trkpt>
      <trkpt lat="43.51245" lon="4.14731">
        <ele>0.06</ele>
        <time>2019-05-31T07:22:08.000Z</time>
      </trkpt>
      <trkpt lat="43.51262" lon="4.14755">
        <ele>2</ele>
        <time>2019-05-31T07:22:13.000Z</time>
      </trkpt>
      <trkpt lat="43.51281" lon="4.14776">
        <ele>2</ele>
        <time>2019-05-31T07:22:18.000Z</time>
      </trkpt>
      <trkpt lat="43.513" lon="4.14794">
        <ele>3</ele>
        <time>2019-05-31T07:22:23.000Z</time>
      </trkpt>
      <trkpt lat="43.5132" lon="4.14813">
        <ele>0.79</ele>
        <time>2019-05-31T07:22:28.000Z</time>
      </trkpt>
      <trkpt lat="43.51339" lon="4.14831">
        <ele>0.79</ele>
        <time>2019-05-31T07:22:33.000Z</time>
      </trkpt>
      <trkpt lat="43.51358" lon="4.1485">
        <ele>0.79</ele>
        <time>2019-05-31T07:22:38.000Z</time>
      </trkpt>
      <trkpt lat="43.51377" lon="4.1487">
        <ele>3</ele>
        <time>2019-05-31T07:22:43.000Z</time>
      </trkpt>
      <trkpt lat="43.51398" lon="4.14889">
        <ele>3</ele>
        <time>2019-05-31T07:22:48.000Z</time>
      </trkpt>
      <trkpt lat="43.51416" lon="4.14908">
        <ele>3</ele>
        <time>2019-05-31T07:22:53.000Z</time>
      </trkpt>
      <trkpt lat="43.51434" lon="4.14928">
        <ele>0.79</ele>
        <time>2019-05-31T07:22:58.000Z</time>
      </trkpt>
      <trkpt lat="43.51455" lon="4.14946">
        <ele>1.79</ele>
        <time>2019-05-31T07:23:03.000Z</time>
      </trkpt>
      <trkpt lat="43.51473" lon="4.14964">
        <ele>1.79</ele>
        <time>2019-05-31T07:23:08.000Z</time>
      </trkpt>
      <trkpt lat="43.51496" lon="4.1498">
        <ele>3.72</ele>
        <time>2019-05-31T07:23:13.000Z</time>
      </trkpt>
      <trkpt lat="43.51516" lon="4.14996">
        <ele>5.74</ele>
        <time>2019-05-31T07:23:18.000Z</time>
      </trkpt>
      <trkpt lat="43.5154" lon="4.15008">
        <ele>4.8</ele>
        <time>2019-05-31T07:23:23.000Z</time>
      </trkpt>
      <trkpt lat="43.51562" lon="4.15016">
        <ele>3.8</ele>
        <time>2019-05-31T07:23:28.000Z</time>
      </trkpt>
      <trkpt lat="43.51582" lon="4.1502">
        <ele>4.79</ele>
        <time>2019-05-31T07:23:33.000Z</time>
      </trkpt>
      <trkpt lat="43.51604" lon="4.15024">
        <ele>3.06</ele>
        <time>2019-05-31T07:23:38.000Z</time>
      </trkpt>
      <trkpt lat="43.51625" lon="4.15027">
        <ele>3.73</ele>
        <time>2019-05-31T07:23:43.000Z</time>
      </trkpt>
      <trkpt lat="43.51645" lon="4.15032">
        <ele>4.03</ele>
        <time>2019-05-31T07:23:48.000Z</time>
      </trkpt>
      <trkpt lat="43.51666" lon="4.15036">
        <ele>4.79</ele>
        <time>2019-05-31T07:23:53.000Z</time>
      </trkpt>
      <trkpt lat="43.5168" lon="4.15025">
        <ele>3.8</ele>
        <time>2019-05-31T07:23:58.000Z</time>
      </trkpt>
      <trkpt lat="43.51689" lon="4.15013">
        <ele>3.79</ele>
        <time>2019-05-31T07:24:03.000Z</time>
      </trkpt>
      <trkpt lat="43.51703" lon="4.15007">
        <ele>5.54</ele>
        <time>2019-05-31T07:24:08.000Z</time>
      </trkpt>
      <trkpt lat="43.51717" lon="4.15015">
        <ele>5.79</ele>
        <time>2019-05-31T07:24:13.000Z</time>
      </trkpt>
      <trkpt lat="43.51723" lon="4.15026">
        <ele>4.81</ele>
        <time>2019-05-31T07:24:18.000Z</time>
      </trkpt>
      <trkpt lat="43.51734" lon="4.15034">
        <ele>4.79</ele>
        <time>2019-05-31T07:24:23.000Z</time>
      </trkpt>
      <trkpt lat="43.51756" lon="4.15033">
        <ele>2.86</ele>
        <time>2019-05-31T07:24:28.000Z</time>
      </trkpt>
      <trkpt lat="43.51778" lon="4.15032">
        <ele>2.84</ele>
        <time>2019-05-31T07:24:33.000Z</time>
      </trkpt>
      <trkpt lat="43.51804" lon="4.15028">
        <ele>2.04</ele>
        <time>2019-05-31T07:24:38.000Z</time>
      </trkpt>
      <trkpt lat="43.5183" lon="4.15021">
        <ele>1.85</ele>
        <time>2019-05-31T07:24:43.000Z</time>
      </trkpt>
      <trkpt lat="43.51856" lon="4.1501">
        <ele>1.98</ele>
        <time>2019-05-31T07:24:48.000Z</time>
      </trkpt>
      <trkpt lat="43.51883" lon="4.15002">
        <ele>1.79</ele>
        <time>2019-05-31T07:24:53.000Z</time>
      </trkpt>
      <trkpt lat="43.5191" lon="4.14992">
        <ele>1.79</ele>
        <time>2019-05-31T07:24:58.000Z</time>
      </trkpt>
      <trkpt lat="43.51937" lon="4.14986">
        <ele>1.74</ele>
        <time>2019-05-31T07:25:03.000Z</time>
      </trkpt>
      <trkpt lat="43.51964" lon="4.14982">
        <ele>0.79</ele>
        <time>2019-05-31T07:25:08.000Z</time>
      </trkpt>
      <trkpt lat="43.51992" lon="4.1498">
        <ele>0.56</ele>
        <time>2019-05-31T07:25:13.000Z</time>
      </trkpt>
      <trkpt lat="43.52019" lon="4.14978">
        <ele>0.04</ele>
        <time>2019-05-31T07:25:18.000Z</time>
      </trkpt>
      <trkpt lat="43.52046" lon="4.14977">
        <ele>3</ele>
        <time>2019-05-31T07:25:23.000Z</time>
      </trkpt>
      <trkpt lat="43.52072" lon="4.14975">
        <ele>2</ele>
        <time>2019-05-31T07:25:28.000Z</time>
      </trkpt>
      <trkpt lat="43.52099" lon="4.14973">
        <ele>0.77</ele>
        <time>2019-05-31T07:25:33.000Z</time>
      </trkpt>
      <trkpt lat="43.52126" lon="4.14971">
        <ele>0.79</ele>
        <time>2019-05-31T07:25:38.000Z</time>
      </trkpt>
      <trkpt lat="43.5215" lon="4.14969">
        <ele>0.85</ele>
        <time>2019-05-31T07:25:43.000Z</time>
      </trkpt>
      <trkpt lat="43.52174" lon="4.14966">
        <ele>0.04</ele>
        <time>2019-05-31T07:25:48.000Z</time>
      </trkpt>
      <trkpt lat="43.52196" lon="4.14962">
        <ele>2</ele>
        <time>2019-05-31T07:25:53.000Z</time>
      </trkpt>
      <trkpt lat="43.52217" lon="4.14955">
        <ele>0.73</ele>
        <time>2019-05-31T07:25:58.000Z</time>
      </trkpt>
      <trkpt lat="43.52238" lon="4.14951">
        <ele>1</ele>
        <time>2019-05-31T07:26:03.000Z</time>
      </trkpt>
      <trkpt lat="43.5226" lon="4.1494">
        <ele>1</ele>
        <time>2019-05-31T07:26:08.000Z</time>
      </trkpt>
      <trkpt lat="43.5228" lon="4.14929">
        <ele>1</ele>
        <time>2019-05-31T07:26:13.000Z</time>
      </trkpt>
      <trkpt lat="43.52301" lon="4.14918">
        <ele>1</ele>
        <time>2019-05-31T07:26:18.000Z</time>
      </trkpt>
      <trkpt lat="43.52323" lon="4.14915">
        <ele>0.54</ele>
        <time>2019-05-31T07:26:23.000Z</time>
      </trkpt>
      <trkpt lat="43.52344" lon="4.14924">
        <ele>1.54</ele>
        <time>2019-05-31T07:26:28.000Z</time>
      </trkpt>
      <trkpt lat="43.52363" lon="4.14936">
        <ele>1.6</ele>
        <time>2019-05-31T07:26:33.000Z</time>
      </trkpt>
      <trkpt lat="43.52383" lon="4.14948">
        <ele>1.73</ele>
        <time>2019-05-31T07:26:38.000Z</time>
      </trkpt>
      <trkpt lat="43.52403" lon="4.14959">
        <ele>1.79</ele>
        <time>2019-05-31T07:26:43.000Z</time>
      </trkpt>
      <trkpt lat="43.52423" lon="4.14969">
        <ele>1.79</ele>
        <time>2019-05-31T07:26:48.000Z</time>
      </trkpt>
      <trkpt lat="43.52443" lon="4.1498">
        <ele>2.73</ele>
        <time>2019-05-31T07:26:53.000Z</time>
      </trkpt>
      <trkpt lat="43.52462" lon="4.14992">
        <ele>1.79</ele>
        <time>2019-05-31T07:26:58.000Z</time>
      </trkpt>
      <trkpt lat="43.52481" lon="4.15004">
        <ele>2.79</ele>
        <time>2019-05-31T07:27:03.000Z</time>
      </trkpt>
      <trkpt lat="43.52499" lon="4.15008">
        <ele>3.78</ele>
        <time>2019-05-31T07:27:08.000Z</time>
      </trkpt>
      <trkpt lat="43.52517" lon="4.15013">
        <ele>3.79</ele>
        <time>2019-05-31T07:27:13.000Z</time>
      </trkpt>
      <trkpt lat="43.52532" lon="4.15033">
        <ele>3.79</ele>
        <time>2019-05-31T07:27:18.000Z</time>
      </trkpt>
      <trkpt lat="43.52549" lon="4.15038">
        <ele>3.79</ele>
        <time>2019-05-31T07:27:23.000Z</time>
      </trkpt>
      <trkpt lat="43.5257" lon="4.15028">
        <ele>2.79</ele>
        <time>2019-05-31T07:27:28.000Z</time>
      </trkpt>
      <trkpt lat="43.52587" lon="4.15009">
        <ele>2.79</ele>
        <time>2019-05-31T07:27:33.000Z</time>
      </trkpt>
      <trkpt lat="43.52592" lon="4.14979">
        <ele>2.79</ele>
        <time>2019-05-31T07:27:38.000Z</time>
      </trkpt>
      <trkpt lat="43.52586" lon="4.14955">
        <ele>2.79</ele>
        <time>2019-05-31T07:27:43.000Z</time>
      </trkpt>
      <trkpt lat="43.52591" lon="4.1494">
        <ele>3.72</ele>
        <time>2019-05-31T07:27:48.000Z</time>
      </trkpt>
      <trkpt lat="43.52601" lon="4.14929">
        <ele>3.6</ele>
        <time>2019-05-31T07:27:53.000Z</time>
      </trkpt>
      <trkpt lat="43.52613" lon="4.14918">
        <ele>2.79</ele>
        <time>2019-05-31T07:27:58.000Z</time>
      </trkpt>
      <trkpt lat="43.52632" lon="4.14924">
        <ele>4.66</ele>
        <time>2019-05-31T07:28:03.000Z</time>
      </trkpt>
      <trkpt lat="43.52654" lon="4.14929">
        <ele>2.79</ele>
        <time>2019-05-31T07:28:08.000Z</time>
      </trkpt>
      <trkpt lat="43.52679" lon="4.14932">
        <ele>1.79</ele>
        <time>2019-05-31T07:28:13.000Z</time>
      </trkpt>
      <trkpt lat="43.527" lon="4.14934">
        <ele>1.72</ele>
        <time>2019-05-31T07:28:18.000Z</time>
      </trkpt>
      <trkpt lat="43.52714" lon="4.14934">
        <ele>2.77</ele>
        <time>2019-05-31T07:28:23.000Z</time>
      </trkpt>
      <trkpt lat="43.52727" lon="4.14943">
        <ele>1.8</ele>
        <time>2019-05-31T07:28:28.000Z</time>
      </trkpt>
      <trkpt lat="43.52749" lon="4.14945">
        <ele>3.72</ele>
        <time>2019-05-31T07:28:33.000Z</time>
      </trkpt>
      <trkpt lat="43.52772" lon="4.14944">
        <ele>4.54</ele>
        <time>2019-05-31T07:28:38.000Z</time>
      </trkpt>
      <trkpt lat="43.52794" lon="4.14945">
        <ele>4.79</ele>
        <time>2019-05-31T07:28:43.000Z</time>
      </trkpt>
      <trkpt lat="43.52815" lon="4.14948">
        <ele>4.59</ele>
        <time>2019-05-31T07:28:48.000Z</time>
      </trkpt>
      <trkpt lat="43.52837" lon="4.14945">
        <ele>4.54</ele>
        <time>2019-05-31T07:28:53.000Z</time>
      </trkpt>
      <trkpt lat="43.52854" lon="4.14943">
        <ele>4.78</ele>
        <time>2019-05-31T07:28:58.000Z</time>
      </trkpt>
      <trkpt lat="43.52874" lon="4.14942">
        <ele>3.8</ele>
        <time>2019-05-31T07:29:03.000Z</time>
      </trkpt>
      <trkpt lat="43.52897" lon="4.14936">
        <ele>4.78</ele>
        <time>2019-05-31T07:29:08.000Z</time>
      </trkpt>
      <trkpt lat="43.5291" lon="4.14905">
        <ele>3.8</ele>
        <time>2019-05-31T07:29:13.000Z</time>
      </trkpt>
      <trkpt lat="43.52923" lon="4.14875">
        <ele>2.8</ele>
        <time>2019-05-31T07:29:18.000Z</time>
      </trkpt>
      <trkpt lat="43.52937" lon="4.14845">
        <ele>2.78</ele>
        <time>2019-05-31T07:29:23.000Z</time>
      </trkpt>
      <trkpt lat="43.52952" lon="4.14815">
        <ele>5.71</ele>
        <time>2019-05-31T07:29:28.000Z</time>
      </trkpt>
      <trkpt lat="43.52964" lon="4.14787">
        <ele>5.02</ele>
        <time>2019-05-31T07:29:33.000Z</time>
      </trkpt>
      <trkpt lat="43.52979" lon="4.14754">
        <ele>4.03</ele>
        <time>2019-05-31T07:29:38.000Z</time>
      </trkpt>
      <trkpt lat="43.52994" lon="4.14719">
        <ele>2.85</ele>
        <time>2019-05-31T07:29:43.000Z</time>
      </trkpt>
      <trkpt lat="43.53009" lon="4.14687">
        <ele>2.08</ele>
        <time>2019-05-31T07:29:48.000Z</time>
      </trkpt>
      <trkpt lat="43.53023" lon="4.14657">
        <ele>1.79</ele>
        <time>2019-05-31T07:29:53.000Z</time>
      </trkpt>
      <trkpt lat="43.53036" lon="4.14626">
        <ele>2.72</ele>
        <time>2019-05-31T07:29:58.000Z</time>
      </trkpt>
      <trkpt lat="43.53048" lon="4.14594">
        <ele>2.8</ele>
        <time>2019-05-31T07:30:03.000Z</time>
      </trkpt>
      <trkpt lat="43.53063" lon="4.1456">
        <ele>1.85</ele>
        <time>2019-05-31T07:30:08.000Z</time>
      </trkpt>
      <trkpt lat="43.53078" lon="4.14525">
        <ele>1.8</ele>
        <time>2019-05-31T07:30:13.000Z</time>
      </trkpt>
      <trkpt lat="43.53093" lon="4.14492">
        <ele>0.8</ele>
        <time>2019-05-31T07:30:18.000Z</time>
      </trkpt>
      <trkpt lat="43.53107" lon="4.14459">
        <ele>3.7</ele>
        <time>2019-05-31T07:30:23.000Z</time>
      </trkpt>
      <trkpt lat="43.5312" lon="4.14425">
        <ele>5.53</ele>
        <time>2019-05-31T07:30:28.000Z</time>
      </trkpt>
      <trkpt lat="43.53134" lon="4.14397">
        <ele>4.84</ele>
        <time>2019-05-31T07:30:33.000Z</time>
      </trkpt>
      <trkpt lat="43.53149" lon="4.14362">
        <ele>4.78</ele>
        <time>2019-05-31T07:30:38.000Z</time>
      </trkpt>
      <trkpt lat="43.53166" lon="4.14329">
        <ele>3.79</ele>
        <time>2019-05-31T07:30:43.000Z</time>
      </trkpt>
      <trkpt lat="43.53181" lon="4.14293">
        <ele>3.78</ele>
        <time>2019-05-31T07:30:48.000Z</time>
      </trkpt>
      <trkpt lat="43.53197" lon="4.14258">
        <ele>2.79</ele>
        <time>2019-05-31T07:30:53.000Z</time>
      </trkpt>
      <trkpt lat="43.53212" lon="4.14222">
        <ele>2.84</ele>
        <time>2019-05-31T07:30:58.000Z</time>
      </trkpt>
      <trkpt lat="43.53226" lon="4.14188">
        <ele>4.76</ele>
        <time>2019-05-31T07:31:03.000Z</time>
      </trkpt>
      <trkpt lat="43.53241" lon="4.1416">
        <ele>2.8</ele>
        <time>2019-05-31T07:31:08.000Z</time>
      </trkpt>
      <trkpt lat="43.53253" lon="4.1413">
        <ele>3.78</ele>
        <time>2019-05-31T07:31:13.000Z</time>
      </trkpt>
      <trkpt lat="43.53264" lon="4.14108">
        <ele>3.03</ele>
        <time>2019-05-31T07:31:18.000Z</time>
      </trkpt>
      <trkpt lat="43.53275" lon="4.1408">
        <ele>3.78</ele>
        <time>2019-05-31T07:31:23.000Z</time>
      </trkpt>
      <trkpt lat="43.53286" lon="4.14052">
        <ele>3.73</ele>
        <time>2019-05-31T07:31:28.000Z</time>
      </trkpt>
      <trkpt lat="43.53298" lon="4.14023">
        <ele>3.77</ele>
        <time>2019-05-31T07:31:33.000Z</time>
      </trkpt>
      <trkpt lat="43.53312" lon="4.13993">
        <ele>4.72</ele>
        <time>2019-05-31T07:31:38.000Z</time>
      </trkpt>
      <trkpt lat="43.53324" lon="4.13966">
        <ele>4.78</ele>
        <time>2019-05-31T07:31:43.000Z</time>
      </trkpt>
      <trkpt lat="43.5334" lon="4.13936">
        <ele>3.84</ele>
        <time>2019-05-31T07:31:48.000Z</time>
      </trkpt>
      <trkpt lat="43.53354" lon="4.13905">
        <ele>2.05</ele>
        <time>2019-05-31T07:31:53.000Z</time>
      </trkpt>
      <trkpt lat="43.53363" lon="4.13876">
        <ele>2.83</ele>
        <time>2019-05-31T07:31:58.000Z</time>
      </trkpt>
      <trkpt lat="43.53371" lon="4.13864">
        <ele>5.46</ele>
        <time>2019-05-31T07:32:03.000Z</time>
      </trkpt>
      <trkpt lat="43.53382" lon="4.1385">
        <ele>5.02</ele>
        <time>2019-05-31T07:32:08.000Z</time>
      </trkpt>
      <trkpt lat="43.53396" lon="4.13833">
        <ele>4.82</ele>
        <time>2019-05-31T07:32:13.000Z</time>
      </trkpt>
      <trkpt lat="43.534" lon="4.1381">
        <ele>2.8</ele>
        <time>2019-05-31T07:32:18.000Z</time>
      </trkpt>
      <trkpt lat="43.53394" lon="4.138">
        <ele>5.51</ele>
        <time>2019-05-31T07:32:23.000Z</time>
      </trkpt>
      <trkpt lat="43.53387" lon="4.1379">
        <ele>3.78</ele>
        <time>2019-05-31T07:34:22.000Z</time>
      </trkpt>
      <trkpt lat="43.5338" lon="4.13783">
        <ele>4.78</ele>
        <time>2019-05-31T07:34:28.000Z</time>
      </trkpt>
      <trkpt lat="43.53372" lon="4.13773">
        <ele>4.78</ele>
        <time>2019-05-31T07:34:33.000Z</time>
      </trkpt>
      <trkpt lat="43.5337" lon="4.13756">
        <ele>6.72</ele>
        <time>2019-05-31T07:34:38.000Z</time>
      </trkpt>
      <trkpt lat="43.53375" lon="4.13738">
        <ele>6.78</ele>
        <time>2019-05-31T07:34:43.000Z</time>
      </trkpt>
      <trkpt lat="43.53388" lon="4.13724">
        <ele>7.02</ele>
        <time>2019-05-31T07:34:48.000Z</time>
      </trkpt>
      <trkpt lat="43.53401" lon="4.13712">
        <ele>6.78</ele>
        <time>2019-05-31T07:34:53.000Z</time>
      </trkpt>
      <trkpt lat="43.53413" lon="4.13693">
        <ele>5.8</ele>
        <time>2019-05-31T07:34:58.000Z</time>
      </trkpt>
      <trkpt lat="43.53427" lon="4.1368">
        <ele>5.79</ele>
        <time>2019-05-31T07:35:03.000Z</time>
      </trkpt>
      <trkpt lat="43.53442" lon="4.13665">
        <ele>5.78</ele>
        <time>2019-05-31T07:35:08.000Z</time>
      </trkpt>
      <trkpt lat="43.53457" lon="4.13652">
        <ele>4.84</ele>
        <time>2019-05-31T07:35:13.000Z</time>
      </trkpt>
      <trkpt lat="43.5347" lon="4.13634">
        <ele>4.79</ele>
        <time>2019-05-31T07:35:18.000Z</time>
      </trkpt>
      <trkpt lat="43.53484" lon="4.13621">
        <ele>5.76</ele>
        <time>2019-05-31T07:35:23.000Z</time>
      </trkpt>
      <trkpt lat="43.53499" lon="4.13609">
        <ele>3.84</ele>
        <time>2019-05-31T07:35:28.000Z</time>
      </trkpt>
      <trkpt lat="43.53513" lon="4.13592">
        <ele>3.78</ele>
        <time>2019-05-31T07:35:33.000Z</time>
      </trkpt>
      <trkpt lat="43.53527" lon="4.13575">
        <ele>4.53</ele>
        <time>2019-05-31T07:35:38.000Z</time>
      </trkpt>
      <trkpt lat="43.5354" lon="4.13561">
        <ele>5.76</ele>
        <time>2019-05-31T07:35:43.000Z</time>
      </trkpt>
      <trkpt lat="43.53544" lon="4.13535">
        <ele>5.97</ele>
        <time>2019-05-31T07:35:48.000Z</time>
      </trkpt>
      <trkpt lat="43.53543" lon="4.13507">
        <ele>6.78</ele>
        <time>2019-05-31T07:35:53.000Z</time>
      </trkpt>
      <trkpt lat="43.53542" lon="4.13477">
        <ele>7.53</ele>
        <time>2019-05-31T07:35:58.000Z</time>
      </trkpt>
      <trkpt lat="43.53544" lon="4.13448">
        <ele>7.03</ele>
        <time>2019-05-31T07:36:03.000Z</time>
      </trkpt>
      <trkpt lat="43.53555" lon="4.13426">
        <ele>5.78</ele>
        <time>2019-05-31T07:36:08.000Z</time>
      </trkpt>
      <trkpt lat="43.5357" lon="4.13423">
        <ele>4.54</ele>
        <time>2019-05-31T07:36:13.000Z</time>
      </trkpt>
      <trkpt lat="43.53575" lon="4.13433">
        <ele>5.77</ele>
        <time>2019-05-31T07:36:18.000Z</time>
      </trkpt>
      <trkpt lat="43.53581" lon="4.13452">
        <ele>6.76</ele>
        <time>2019-05-31T07:36:23.000Z</time>
      </trkpt>
      <trkpt lat="43.5359" lon="4.13471">
        <ele>7.77</ele>
        <time>2019-05-31T07:36:28.000Z</time>
      </trkpt>
      <trkpt lat="43.53598" lon="4.13489">
        <ele>7.78</ele>
        <time>2019-05-31T07:36:33.000Z</time>
      </trkpt>
      <trkpt lat="43.53606" lon="4.13507">
        <ele>7.78</ele>
        <time>2019-05-31T07:36:38.000Z</time>
      </trkpt>
      <trkpt lat="43.53612" lon="4.13525">
        <ele>7.78</ele>
        <time>2019-05-31T07:36:43.000Z</time>
      </trkpt>
      <trkpt lat="43.53619" lon="4.13536">
        <ele>8.78</ele>
        <time>2019-05-31T07:36:48.000Z</time>
      </trkpt>
      <trkpt lat="43.53623" lon="4.1355">
        <ele>10.78</ele>
        <time>2019-05-31T07:36:54.000Z</time>
      </trkpt>
      <trkpt lat="43.53631" lon="4.13556">
        <ele>12.02</ele>
        <time>2019-05-31T07:37:05.000Z</time>
      </trkpt>
      <trkpt lat="43.53635" lon="4.13569">
        <ele>8.96</ele>
        <time>2019-05-31T07:37:11.000Z</time>
      </trkpt>
      <trkpt lat="43.53638" lon="4.13584">
        <ele>8.59</ele>
        <time>2019-05-31T07:37:16.000Z</time>
      </trkpt>
      <trkpt lat="43.53645" lon="4.13594">
        <ele>12.51</ele>
        <time>2019-05-31T07:37:23.000Z</time>
      </trkpt>
      <trkpt lat="43.53651" lon="4.13607">
        <ele>11.78</ele>
        <time>2019-05-31T07:37:28.000Z</time>
      </trkpt>
      <trkpt lat="43.53659" lon="4.13617">
        <ele>12.72</ele>
        <time>2019-05-31T07:37:33.000Z</time>
      </trkpt>
      <trkpt lat="43.53665" lon="4.13626">
        <ele>11.78</ele>
        <time>2019-05-31T07:37:40.000Z</time>
      </trkpt>
      <trkpt lat="43.53674" lon="4.13632">
        <ele>13.7</ele>
        <time>2019-05-31T07:37:46.000Z</time>
      </trkpt>
      <trkpt lat="43.53678" lon="4.13649">
        <ele>13.77</ele>
        <time>2019-05-31T07:37:51.000Z</time>
      </trkpt>
      <trkpt lat="43.53686" lon="4.13663">
        <ele>14.53</ele>
        <time>2019-05-31T07:37:56.000Z</time>
      </trkpt>
      <trkpt lat="43.53693" lon="4.13676">
        <ele>12.85</ele>
        <time>2019-05-31T07:38:01.000Z</time>
      </trkpt>
      <trkpt lat="43.53695" lon="4.13694">
        <ele>11.03</ele>
        <time>2019-05-31T07:38:06.000Z</time>
      </trkpt>
      <trkpt lat="43.53704" lon="4.13707">
        <ele>10.71</ele>
        <time>2019-05-31T07:38:11.000Z</time>
      </trkpt>
      <trkpt lat="43.53709" lon="4.13718">
        <ele>12.53</ele>
        <time>2019-05-31T07:38:17.000Z</time>
      </trkpt>
      <trkpt lat="43.53716" lon="4.13729">
        <ele>14.77</ele>
        <time>2019-05-31T07:38:25.000Z</time>
      </trkpt>
      <trkpt lat="43.53721" lon="4.1374">
        <ele>13.04</ele>
        <time>2019-05-31T07:38:31.000Z</time>
      </trkpt>
      <trkpt lat="43.53726" lon="4.13754">
        <ele>12.84</ele>
        <time>2019-05-31T07:38:36.000Z</time>
      </trkpt>
      <trkpt lat="43.53735" lon="4.13764">
        <ele>11.59</ele>
        <time>2019-05-31T07:38:45.000Z</time>
      </trkpt>
      <trkpt lat="43.53749" lon="4.1375">
        <ele>13.75</ele>
        <time>2019-05-31T07:38:50.000Z</time>
      </trkpt>
      <trkpt lat="43.53762" lon="4.13736">
        <ele>12.53</ele>
        <time>2019-05-31T07:38:55.000Z</time>
      </trkpt>
      <trkpt lat="43.53771" lon="4.13726">
        <ele>9.86</ele>
        <time>2019-05-31T07:39:00.000Z</time>
      </trkpt>
      <trkpt lat="43.53768" lon="4.13705">
        <ele>6.84</ele>
        <time>2019-05-31T07:39:05.000Z</time>
      </trkpt>
      <trkpt lat="43.53758" lon="4.13685">
        <ele>3.81</ele>
        <time>2019-05-31T07:39:10.000Z</time>
      </trkpt>
      <trkpt lat="43.53748" lon="4.13667">
        <ele>4.76</ele>
        <time>2019-05-31T07:39:15.000Z</time>
      </trkpt>
      <trkpt lat="43.53739" lon="4.1365">
        <ele>3.03</ele>
        <time>2019-05-31T07:39:20.000Z</time>
      </trkpt>
      <trkpt lat="43.53733" lon="4.13632">
        <ele>2.77</ele>
        <time>2019-05-31T07:39:25.000Z</time>
      </trkpt>
      <trkpt lat="43.53727" lon="4.13613">
        <ele>1.09</ele>
        <time>2019-05-31T07:39:30.000Z</time>
      </trkpt>
      <trkpt lat="43.5372" lon="4.13595">
        <ele>5</ele>
        <time>2019-05-31T07:39:35.000Z</time>
      </trkpt>
      <trkpt lat="43.5371" lon="4.13579">
        <ele>5</ele>
        <time>2019-05-31T07:39:40.000Z</time>
      </trkpt>
      <trkpt lat="43.53703" lon="4.13561">
        <ele>0.77</ele>
        <time>2019-05-31T07:39:45.000Z</time>
      </trkpt>
      <trkpt lat="43.53693" lon="4.1354">
        <ele>5</ele>
        <time>2019-05-31T07:39:50.000Z</time>
      </trkpt>
      <trkpt lat="43.53683" lon="4.13525">
        <ele>0.53</ele>
        <time>2019-05-31T07:39:55.000Z</time>
      </trkpt>
      <trkpt lat="43.53677" lon="4.13516">
        <ele>5</ele>
        <time>2019-05-31T07:40:02.000Z</time>
      </trkpt>
      <trkpt lat="43.53669" lon="4.13506">
        <ele>0.73</ele>
        <time>2019-05-31T07:40:08.000Z</time>
      </trkpt>
      <trkpt lat="43.53662" lon="4.1349">
        <ele>1.72</ele>
        <time>2019-05-31T07:40:13.000Z</time>
      </trkpt>
      <trkpt lat="43.53652" lon="4.13473">
        <ele>2.02</ele>
        <time>2019-05-31T07:40:18.000Z</time>
      </trkpt>
      <trkpt lat="43.53644" lon="4.13463">
        <ele>2.78</ele>
        <time>2019-05-31T07:40:24.000Z</time>
      </trkpt>
      <trkpt lat="43.53647" lon="4.13475">
        <ele>7.71</ele>
        <time>2019-05-31T07:40:35.000Z</time>
      </trkpt>
      <trkpt lat="43.53657" lon="4.13494">
        <ele>5.79</ele>
        <time>2019-05-31T07:40:40.000Z</time>
      </trkpt>
      <trkpt lat="43.53667" lon="4.13511">
        <ele>6.96</ele>
        <time>2019-05-31T07:40:45.000Z</time>
      </trkpt>
      <trkpt lat="43.53678" lon="4.13531">
        <ele>7.59</ele>
        <time>2019-05-31T07:40:50.000Z</time>
      </trkpt>
      <trkpt lat="43.53687" lon="4.13546">
        <ele>7.78</ele>
        <time>2019-05-31T07:40:55.000Z</time>
      </trkpt>
      <trkpt lat="43.53692" lon="4.13558">
        <ele>8.53</ele>
        <time>2019-05-31T07:41:02.000Z</time>
      </trkpt>
      <trkpt lat="43.53697" lon="4.13569">
        <ele>10.71</ele>
        <time>2019-05-31T07:41:10.000Z</time>
      </trkpt>
      <trkpt lat="43.53703" lon="4.13585">
        <ele>10.76</ele>
        <time>2019-05-31T07:41:15.000Z</time>
      </trkpt>
      <trkpt lat="43.53713" lon="4.13582">
        <ele>12.96</ele>
        <time>2019-05-31T07:41:21.000Z</time>
      </trkpt>
      <trkpt lat="43.53718" lon="4.13572">
        <ele>10.8</ele>
        <time>2019-05-31T07:41:26.000Z</time>
      </trkpt>
      <trkpt lat="43.53731" lon="4.13559">
        <ele>9.04</ele>
        <time>2019-05-31T07:41:31.000Z</time>
      </trkpt>
      <trkpt lat="43.53744" lon="4.13548">
        <ele>8.77</ele>
        <time>2019-05-31T07:41:36.000Z</time>
      </trkpt>
      <trkpt lat="43.53755" lon="4.13557">
        <ele>8.03</ele>
        <time>2019-05-31T07:41:41.000Z</time>
      </trkpt>
      <trkpt lat="43.53764" lon="4.13576">
        <ele>9.46</ele>
        <time>2019-05-31T07:41:46.000Z</time>
      </trkpt>
      <trkpt lat="43.53773" lon="4.13596">
        <ele>10.53</ele>
        <time>2019-05-31T07:41:51.000Z</time>
      </trkpt>
      <trkpt lat="43.53781" lon="4.1361">
        <ele>9.84</ele>
        <time>2019-05-31T07:41:56.000Z</time>
      </trkpt>
      <trkpt lat="43.53787" lon="4.13627">
        <ele>9.84</ele>
        <time>2019-05-31T07:42:01.000Z</time>
      </trkpt>
      <trkpt lat="43.53797" lon="4.13649">
        <ele>10.02</ele>
        <time>2019-05-31T07:42:06.000Z</time>
      </trkpt>
      <trkpt lat="43.53808" lon="4.13671">
        <ele>8.97</ele>
        <time>2019-05-31T07:42:11.000Z</time>
      </trkpt>
      <trkpt lat="43.53816" lon="4.13686">
        <ele>8.59</ele>
        <time>2019-05-31T07:42:16.000Z</time>
      </trkpt>
      <trkpt lat="43.53824" lon="4.13697">
        <ele>9.84</ele>
        <time>2019-05-31T07:42:24.000Z</time>
      </trkpt>
      <trkpt lat="43.5384" lon="4.13726">
        <ele>8.8</ele>
        <time>2019-05-31T07:42:29.000Z</time>
      </trkpt>
      <trkpt lat="43.53848" lon="4.13743">
        <ele>8.53</ele>
        <time>2019-05-31T07:42:34.000Z</time>
      </trkpt>
      <trkpt lat="43.53853" lon="4.13754">
        <ele>9.53</ele>
        <time>2019-05-31T07:42:40.000Z</time>
      </trkpt>
      <trkpt lat="43.53865" lon="4.13755">
        <ele>6.59</ele>
        <time>2019-05-31T07:42:45.000Z</time>
      </trkpt>
      <trkpt lat="43.5388" lon="4.13741">
        <ele>5.78</ele>
        <time>2019-05-31T07:42:50.000Z</time>
      </trkpt>
      <trkpt lat="43.53896" lon="4.13728">
        <ele>5.78</ele>
        <time>2019-05-31T07:42:55.000Z</time>
      </trkpt>
      <trkpt lat="43.53909" lon="4.13715">
        <ele>5.84</ele>
        <time>2019-05-31T07:43:00.000Z</time>
      </trkpt>
      <trkpt lat="43.53921" lon="4.13708">
        <ele>5.84</ele>
        <time>2019-05-31T07:43:05.000Z</time>
      </trkpt>
      <trkpt lat="43.53921" lon="4.13693">
        <ele>1.78</ele>
        <time>2019-05-31T07:43:22.000Z</time>
      </trkpt>
      <trkpt lat="43.53914" lon="4.13667">
        <ele>1.53</ele>
        <time>2019-05-31T07:43:27.000Z</time>
      </trkpt>
      <trkpt lat="43.53909" lon="4.13646">
        <ele>1.78</ele>
        <time>2019-05-31T07:43:32.000Z</time>
      </trkpt>
      <trkpt lat="43.53904" lon="4.13634">
        <ele>3.71</ele>
        <time>2019-05-31T07:43:37.000Z</time>
      </trkpt>
      <trkpt lat="43.53899" lon="4.13608">
        <ele>5.94</ele>
        <time>2019-05-31T07:43:42.000Z</time>
      </trkpt>
      <trkpt lat="43.53891" lon="4.13582">
        <ele>7.77</ele>
        <time>2019-05-31T07:43:47.000Z</time>
      </trkpt>
      <trkpt lat="43.53883" lon="4.13556">
        <ele>7.82</ele>
        <time>2019-05-31T07:43:52.000Z</time>
      </trkpt>
      <trkpt lat="43.53876" lon="4.13529">
        <ele>7.96</ele>
        <time>2019-05-31T07:43:57.000Z</time>
      </trkpt>
      <trkpt lat="43.5387" lon="4.13504">
        <ele>7.79</ele>
        <time>2019-05-31T07:44:02.000Z</time>
      </trkpt>
      <trkpt lat="43.53867" lon="4.13484">
        <ele>6.84</ele>
        <time>2019-05-31T07:44:07.000Z</time>
      </trkpt>
      <trkpt lat="43.5388" lon="4.13473">
        <ele>7.76</ele>
        <time>2019-05-31T07:44:12.000Z</time>
      </trkpt>
      <trkpt lat="43.53902" lon="4.13466">
        <ele>6.84</ele>
        <time>2019-05-31T07:44:17.000Z</time>
      </trkpt>
      <trkpt lat="43.5392" lon="4.13457">
        <ele>5.77</ele>
        <time>2019-05-31T07:44:22.000Z</time>
      </trkpt>
      <trkpt lat="43.53938" lon="4.13449">
        <ele>5.78</ele>
        <time>2019-05-31T07:44:27.000Z</time>
      </trkpt>
      <trkpt lat="43.53956" lon="4.13439">
        <ele>5.03</ele>
        <time>2019-05-31T07:44:32.000Z</time>
      </trkpt>
      <trkpt lat="43.53976" lon="4.13428">
        <ele>4.77</ele>
        <time>2019-05-31T07:44:37.000Z</time>
      </trkpt>
      <trkpt lat="43.53997" lon="4.13422">
        <ele>4.78</ele>
        <time>2019-05-31T07:44:42.000Z</time>
      </trkpt>
      <trkpt lat="43.54014" lon="4.13413">
        <ele>8.4</ele>
        <time>2019-05-31T07:44:47.000Z</time>
      </trkpt>
      <trkpt lat="43.54032" lon="4.13394">
        <ele>9.71</ele>
        <time>2019-05-31T07:44:52.000Z</time>
      </trkpt>
      <trkpt lat="43.54049" lon="4.13379">
        <ele>8.84</ele>
        <time>2019-05-31T07:44:57.000Z</time>
      </trkpt>
      <trkpt lat="43.54067" lon="4.13363">
        <ele>8.77</ele>
        <time>2019-05-31T07:45:02.000Z</time>
      </trkpt>
      <trkpt lat="43.54086" lon="4.13359">
        <ele>7.78</ele>
        <time>2019-05-31T07:45:07.000Z</time>
      </trkpt>
      <trkpt lat="43.54102" lon="4.13379">
        <ele>6.84</ele>
        <time>2019-05-31T07:45:12.000Z</time>
      </trkpt>
      <trkpt lat="43.54122" lon="4.13368">
        <ele>6.77</ele>
        <time>2019-05-31T07:45:17.000Z</time>
      </trkpt>
      <trkpt lat="43.54114" lon="4.13334">
        <ele>5.83</ele>
        <time>2019-05-31T07:45:22.000Z</time>
      </trkpt>
      <trkpt lat="43.54094" lon="4.13328">
        <ele>5.77</ele>
        <time>2019-05-31T07:45:27.000Z</time>
      </trkpt>
      <trkpt lat="43.5409" lon="4.13312">
        <ele>5.77</ele>
        <time>2019-05-31T07:45:32.000Z</time>
      </trkpt>
      <trkpt lat="43.54097" lon="4.13296">
        <ele>5.02</ele>
        <time>2019-05-31T07:45:37.000Z</time>
      </trkpt>
      <trkpt lat="43.54107" lon="4.13282">
        <ele>5.57</ele>
        <time>2019-05-31T07:45:42.000Z</time>
      </trkpt>
      <trkpt lat="43.54121" lon="4.13261">
        <ele>5.82</ele>
        <time>2019-05-31T07:45:47.000Z</time>
      </trkpt>
      <trkpt lat="43.54134" lon="4.13236">
        <ele>5.79</ele>
        <time>2019-05-31T07:45:52.000Z</time>
      </trkpt>
      <trkpt lat="43.5415" lon="4.13214">
        <ele>5.77</ele>
        <time>2019-05-31T07:45:57.000Z</time>
      </trkpt>
      <trkpt lat="43.54165" lon="4.13193">
        <ele>4.59</ele>
        <time>2019-05-31T07:46:02.000Z</time>
      </trkpt>
      <trkpt lat="43.5418" lon="4.13172">
        <ele>4.73</ele>
        <time>2019-05-31T07:46:07.000Z</time>
      </trkpt>
      <trkpt lat="43.54194" lon="4.13149">
        <ele>4.76</ele>
        <time>2019-05-31T07:46:12.000Z</time>
      </trkpt>
      <trkpt lat="43.5421" lon="4.13129">
        <ele>5.52</ele>
        <time>2019-05-31T07:46:17.000Z</time>
      </trkpt>
      <trkpt lat="43.54227" lon="4.1311">
        <ele>5.77</ele>
        <time>2019-05-31T07:46:22.000Z</time>
      </trkpt>
      <trkpt lat="43.54244" lon="4.13088">
        <ele>4.78</ele>
        <time>2019-05-31T07:46:27.000Z</time>
      </trkpt>
      <trkpt lat="43.5426" lon="4.13066">
        <ele>4.77</ele>
        <time>2019-05-31T07:46:32.000Z</time>
      </trkpt>
      <trkpt lat="43.54277" lon="4.13046">
        <ele>4.02</ele>
        <time>2019-05-31T07:46:37.000Z</time>
      </trkpt>
      <trkpt lat="43.54293" lon="4.13025">
        <ele>4.52</ele>
        <time>2019-05-31T07:46:42.000Z</time>
      </trkpt>
      <trkpt lat="43.54308" lon="4.13005">
        <ele>5.76</ele>
        <time>2019-05-31T07:46:47.000Z</time>
      </trkpt>
      <trkpt lat="43.54324" lon="4.12985">
        <ele>5.77</ele>
        <time>2019-05-31T07:46:52.000Z</time>
      </trkpt>
      <trkpt lat="43.5434" lon="4.12963">
        <ele>5.77</ele>
        <time>2019-05-31T07:46:57.000Z</time>
      </trkpt>
      <trkpt lat="43.54354" lon="4.1294">
        <ele>5.77</ele>
        <time>2019-05-31T07:47:02.000Z</time>
      </trkpt>
      <trkpt lat="43.54369" lon="4.12915">
        <ele>5.77</ele>
        <time>2019-05-31T07:47:07.000Z</time>
      </trkpt>
      <trkpt lat="43.54383" lon="4.12892">
        <ele>5.77</ele>
        <time>2019-05-31T07:47:12.000Z</time>
      </trkpt>
      <trkpt lat="43.54399" lon="4.1287">
        <ele>6.52</ele>
        <time>2019-05-31T07:47:17.000Z</time>
      </trkpt>
      <trkpt lat="43.54412" lon="4.12845">
        <ele>5.77</ele>
        <time>2019-05-31T07:47:22.000Z</time>
      </trkpt>
      <trkpt lat="43.54427" lon="4.12822">
        <ele>5.54</ele>
        <time>2019-05-31T07:47:27.000Z</time>
      </trkpt>
      <trkpt lat="43.54441" lon="4.12799">
        <ele>4.02</ele>
        <time>2019-05-31T07:47:32.000Z</time>
      </trkpt>
      <trkpt lat="43.54457" lon="4.12776">
        <ele>3.77</ele>
        <time>2019-05-31T07:47:37.000Z</time>
      </trkpt>
      <trkpt lat="43.54472" lon="4.12752">
        <ele>3.77</ele>
        <time>2019-05-31T07:47:42.000Z</time>
      </trkpt>
      <trkpt lat="43.54487" lon="4.12729">
        <ele>4.71</ele>
        <time>2019-05-31T07:47:47.000Z</time>
      </trkpt>
      <trkpt lat="43.545" lon="4.12706">
        <ele>3.82</ele>
        <time>2019-05-31T07:47:52.000Z</time>
      </trkpt>
      <trkpt lat="43.54513" lon="4.12686">
        <ele>4.76</ele>
        <time>2019-05-31T07:47:57.000Z</time>
      </trkpt>
      <trkpt lat="43.54528" lon="4.12664">
        <ele>3.77</ele>
        <time>2019-05-31T07:48:02.000Z</time>
      </trkpt>
      <trkpt lat="43.54541" lon="4.12639">
        <ele>3.77</ele>
        <time>2019-05-31T07:48:07.000Z</time>
      </trkpt>
      <trkpt lat="43.54556" lon="4.12618">
        <ele>2.83</ele>
        <time>2019-05-31T07:48:12.000Z</time>
      </trkpt>
      <trkpt lat="43.5457" lon="4.12592">
        <ele>2.72</ele>
        <time>2019-05-31T07:48:17.000Z</time>
      </trkpt>
      <trkpt lat="43.54584" lon="4.12568">
        <ele>2.77</ele>
        <time>2019-05-31T07:48:22.000Z</time>
      </trkpt>
      <trkpt lat="43.54597" lon="4.12544">
        <ele>3.52</ele>
        <time>2019-05-31T07:48:27.000Z</time>
      </trkpt>
      <trkpt lat="43.5461" lon="4.12521">
        <ele>2.83</ele>
        <time>2019-05-31T07:48:32.000Z</time>
      </trkpt>
      <trkpt lat="43.54621" lon="4.12496">
        <ele>1.77</ele>
        <time>2019-05-31T07:48:37.000Z</time>
      </trkpt>
      <trkpt lat="43.54636" lon="4.12474">
        <ele>2.53</ele>
        <time>2019-05-31T07:48:42.000Z</time>
      </trkpt>
      <trkpt lat="43.54648" lon="4.1245">
        <ele>2.76</ele>
        <time>2019-05-31T07:48:47.000Z</time>
      </trkpt>
      <trkpt lat="43.54655" lon="4.12441">
        <ele>3.52</ele>
        <time>2019-05-31T07:48:52.000Z</time>
      </trkpt>
      <trkpt lat="43.5466" lon="4.12429">
        <ele>3.77</ele>
        <time>2019-05-31T07:49:02.000Z</time>
      </trkpt>
      <trkpt lat="43.5467" lon="4.12416">
        <ele>3.77</ele>
        <time>2019-05-31T07:49:07.000Z</time>
      </trkpt>
      <trkpt lat="43.54681" lon="4.12404">
        <ele>3.77</ele>
        <time>2019-05-31T07:49:12.000Z</time>
      </trkpt>
      <trkpt lat="43.54689" lon="4.12393">
        <ele>3.52</ele>
        <time>2019-05-31T07:49:17.000Z</time>
      </trkpt>
      <trkpt lat="43.54701" lon="4.12381">
        <ele>3.77</ele>
        <time>2019-05-31T07:49:22.000Z</time>
      </trkpt>
      <trkpt lat="43.54716" lon="4.12366">
        <ele>4.02</ele>
        <time>2019-05-31T07:49:27.000Z</time>
      </trkpt>
      <trkpt lat="43.54731" lon="4.1235">
        <ele>1.85</ele>
        <time>2019-05-31T07:49:32.000Z</time>
      </trkpt>
      <trkpt lat="43.54745" lon="4.12338">
        <ele>2.52</ele>
        <time>2019-05-31T07:49:37.000Z</time>
      </trkpt>
      <trkpt lat="43.54763" lon="4.12326">
        <ele>4.46</ele>
        <time>2019-05-31T07:49:42.000Z</time>
      </trkpt>
      <trkpt lat="43.54785" lon="4.12314">
        <ele>3.71</ele>
        <time>2019-05-31T07:49:47.000Z</time>
      </trkpt>
      <trkpt lat="43.54807" lon="4.12304">
        <ele>5.7</ele>
        <time>2019-05-31T07:49:52.000Z</time>
      </trkpt>
      <trkpt lat="43.54829" lon="4.12292">
        <ele>6.94</ele>
        <time>2019-05-31T07:49:57.000Z</time>
      </trkpt>
      <trkpt lat="43.5485" lon="4.1228">
        <ele>7.76</ele>
        <time>2019-05-31T07:50:02.000Z</time>
      </trkpt>
      <trkpt lat="43.54872" lon="4.12267">
        <ele>8.77</ele>
        <time>2019-05-31T07:50:07.000Z</time>
      </trkpt>
      <trkpt lat="43.54891" lon="4.12255">
        <ele>8.71</ele>
        <time>2019-05-31T07:50:12.000Z</time>
      </trkpt>
      <trkpt lat="43.54911" lon="4.1224">
        <ele>8.58</ele>
        <time>2019-05-31T07:50:17.000Z</time>
      </trkpt>
      <trkpt lat="43.5493" lon="4.1222">
        <ele>7.77</ele>
        <time>2019-05-31T07:50:22.000Z</time>
      </trkpt>
      <trkpt lat="43.54948" lon="4.12201">
        <ele>5.83</ele>
        <time>2019-05-31T07:50:27.000Z</time>
      </trkpt>
      <trkpt lat="43.54965" lon="4.1218">
        <ele>4.02</ele>
        <time>2019-05-31T07:50:32.000Z</time>
      </trkpt>
      <trkpt lat="43.54979" lon="4.1216">
        <ele>5.7</ele>
        <time>2019-05-31T07:50:37.000Z</time>
      </trkpt>
      <trkpt lat="43.54991" lon="4.1214">
        <ele>5.78</ele>
        <time>2019-05-31T07:50:42.000Z</time>
      </trkpt>
      <trkpt lat="43.55001" lon="4.12118">
        <ele>3.83</ele>
        <time>2019-05-31T07:50:47.000Z</time>
      </trkpt>
      <trkpt lat="43.55013" lon="4.12095">
        <ele>6.68</ele>
        <time>2019-05-31T07:50:52.000Z</time>
      </trkpt>
      <trkpt lat="43.55023" lon="4.12072">
        <ele>4.83</ele>
        <time>2019-05-31T07:50:57.000Z</time>
      </trkpt>
      <trkpt lat="43.55033" lon="4.12053">
        <ele>5.46</ele>
        <time>2019-05-31T07:51:02.000Z</time>
      </trkpt>
      <trkpt lat="43.55039" lon="4.1203">
        <ele>4.83</ele>
        <time>2019-05-31T07:51:07.000Z</time>
      </trkpt>
      <trkpt lat="43.55046" lon="4.12005">
        <ele>4.75</ele>
        <time>2019-05-31T07:51:12.000Z</time>
      </trkpt>
      <trkpt lat="43.55053" lon="4.11972">
        <ele>4.52</ele>
        <time>2019-05-31T07:51:17.000Z</time>
      </trkpt>
      <trkpt lat="43.55064" lon="4.11939">
        <ele>3.77</ele>
        <time>2019-05-31T07:51:22.000Z</time>
      </trkpt>
      <trkpt lat="43.55075" lon="4.11907">
        <ele>4.81</ele>
        <time>2019-05-31T07:51:27.000Z</time>
      </trkpt>
      <trkpt lat="43.55085" lon="4.11874">
        <ele>4.78</ele>
        <time>2019-05-31T07:51:32.000Z</time>
      </trkpt>
      <trkpt lat="43.55092" lon="4.1184">
        <ele>4</ele>
        <time>2019-05-31T07:51:37.000Z</time>
      </trkpt>
      <trkpt lat="43.55087" lon="4.11808">
        <ele>3.77</ele>
        <time>2019-05-31T07:51:42.000Z</time>
      </trkpt>
      <trkpt lat="43.55079" lon="4.11782">
        <ele>4.51</ele>
        <time>2019-05-31T07:51:47.000Z</time>
      </trkpt>
      <trkpt lat="43.55091" lon="4.11766">
        <ele>4.76</ele>
        <time>2019-05-31T07:51:52.000Z</time>
      </trkpt>
      <trkpt lat="43.5511" lon="4.11755">
        <ele>5.95</ele>
        <time>2019-05-31T07:51:57.000Z</time>
      </trkpt>
      <trkpt lat="43.55127" lon="4.11733">
        <ele>4.77</ele>
        <time>2019-05-31T07:52:02.000Z</time>
      </trkpt>
      <trkpt lat="43.55136" lon="4.11703">
        <ele>3.97</ele>
        <time>2019-05-31T07:52:07.000Z</time>
      </trkpt>
      <trkpt lat="43.55149" lon="4.11677">
        <ele>2.78</ele>
        <time>2019-05-31T07:52:12.000Z</time>
      </trkpt>
      <trkpt lat="43.5516" lon="4.11645">
        <ele>3.94</ele>
        <time>2019-05-31T07:52:17.000Z</time>
      </trkpt>
      <trkpt lat="43.55169" lon="4.11613">
        <ele>4.59</ele>
        <time>2019-05-31T07:52:22.000Z</time>
      </trkpt>
      <trkpt lat="43.55177" lon="4.1158">
        <ele>7.45</ele>
        <time>2019-05-31T07:52:27.000Z</time>
      </trkpt>
      <trkpt lat="43.55187" lon="4.1155">
        <ele>7.51</ele>
        <time>2019-05-31T07:52:32.000Z</time>
      </trkpt>
      <trkpt lat="43.55195" lon="4.11518">
        <ele>5.6</ele>
        <time>2019-05-31T07:52:37.000Z</time>
      </trkpt>
      <trkpt lat="43.55205" lon="4.11486">
        <ele>4.76</ele>
        <time>2019-05-31T07:52:42.000Z</time>
      </trkpt>
      <trkpt lat="43.55215" lon="4.11455">
        <ele>4.76</ele>
        <time>2019-05-31T07:52:47.000Z</time>
      </trkpt>
      <trkpt lat="43.55225" lon="4.11425">
        <ele>4.76</ele>
        <time>2019-05-31T07:52:52.000Z</time>
      </trkpt>
      <trkpt lat="43.55241" lon="4.11399">
        <ele>4.01</ele>
        <time>2019-05-31T07:52:57.000Z</time>
      </trkpt>
      <trkpt lat="43.55252" lon="4.1137">
        <ele>3.01</ele>
        <time>2019-05-31T07:53:02.000Z</time>
      </trkpt>
      <trkpt lat="43.55262" lon="4.11338">
        <ele>2.78</ele>
        <time>2019-05-31T07:53:07.000Z</time>
      </trkpt>
      <trkpt lat="43.55273" lon="4.11309">
        <ele>4.51</ele>
        <time>2019-05-31T07:53:12.000Z</time>
      </trkpt>
      <trkpt lat="43.55281" lon="4.11282">
        <ele>3.76</ele>
        <time>2019-05-31T07:53:17.000Z</time>
      </trkpt>
      <trkpt lat="43.5529" lon="4.11256">
        <ele>3.76</ele>
        <time>2019-05-31T07:53:22.000Z</time>
      </trkpt>
      <trkpt lat="43.55299" lon="4.11225">
        <ele>3.72</ele>
        <time>2019-05-31T07:53:27.000Z</time>
      </trkpt>
      <trkpt lat="43.5531" lon="4.11199">
        <ele>3.76</ele>
        <time>2019-05-31T07:53:32.000Z</time>
      </trkpt>
      <trkpt lat="43.55318" lon="4.11169">
        <ele>3.76</ele>
        <time>2019-05-31T07:53:37.000Z</time>
      </trkpt>
      <trkpt lat="43.55328" lon="4.11139">
        <ele>3.76</ele>
        <time>2019-05-31T07:53:42.000Z</time>
      </trkpt>
      <trkpt lat="43.55339" lon="4.1111">
        <ele>4</ele>
        <time>2019-05-31T07:53:47.000Z</time>
      </trkpt>
      <trkpt lat="43.55351" lon="4.11077">
        <ele>4.7</ele>
        <time>2019-05-31T07:53:52.000Z</time>
      </trkpt>
      <trkpt lat="43.55363" lon="4.11046">
        <ele>4.76</ele>
        <time>2019-05-31T07:53:57.000Z</time>
      </trkpt>
      <trkpt lat="43.55376" lon="4.11018">
        <ele>4.95</ele>
        <time>2019-05-31T07:54:02.000Z</time>
      </trkpt>
      <trkpt lat="43.55389" lon="4.1099">
        <ele>3.06</ele>
        <time>2019-05-31T07:54:07.000Z</time>
      </trkpt>
      <trkpt lat="43.55402" lon="4.10961">
        <ele>2.76</ele>
        <time>2019-05-31T07:54:12.000Z</time>
      </trkpt>
      <trkpt lat="43.55413" lon="4.10931">
        <ele>3.75</ele>
        <time>2019-05-31T07:54:17.000Z</time>
      </trkpt>
      <trkpt lat="43.55425" lon="4.10904">
        <ele>2.59</ele>
        <time>2019-05-31T07:54:22.000Z</time>
      </trkpt>
      <trkpt lat="43.55435" lon="4.10886">
        <ele>2.76</ele>
        <time>2019-05-31T07:54:27.000Z</time>
      </trkpt>
      <trkpt lat="43.55444" lon="4.10883">
        <ele>4.49</ele>
        <time>2019-05-31T07:54:32.000Z</time>
      </trkpt>
      <trkpt lat="43.55457" lon="4.10895">
        <ele>5.7</ele>
        <time>2019-05-31T07:54:37.000Z</time>
      </trkpt>
      <trkpt lat="43.55477" lon="4.10888">
        <ele>4.96</ele>
        <time>2019-05-31T07:54:42.000Z</time>
      </trkpt>
      <trkpt lat="43.55492" lon="4.10866">
        <ele>4.76</ele>
        <time>2019-05-31T07:54:47.000Z</time>
      </trkpt>
      <trkpt lat="43.55491" lon="4.10835">
        <ele>4.81</ele>
        <time>2019-05-31T07:54:52.000Z</time>
      </trkpt>
      <trkpt lat="43.55487" lon="4.10804">
        <ele>4.76</ele>
        <time>2019-05-31T07:54:57.000Z</time>
      </trkpt>
      <trkpt lat="43.55492" lon="4.10771">
        <ele>3.81</ele>
        <time>2019-05-31T07:55:02.000Z</time>
      </trkpt>
      <trkpt lat="43.55497" lon="4.10737">
        <ele>3.76</ele>
        <time>2019-05-31T07:55:07.000Z</time>
      </trkpt>
      <trkpt lat="43.55502" lon="4.10699">
        <ele>2.76</ele>
        <time>2019-05-31T07:55:12.000Z</time>
      </trkpt>
      <trkpt lat="43.55512" lon="4.10664">
        <ele>1.76</ele>
        <time>2019-05-31T07:55:17.000Z</time>
      </trkpt>
      <trkpt lat="43.55518" lon="4.1063">
        <ele>0.02</ele>
        <time>2019-05-31T07:55:22.000Z</time>
      </trkpt>
      <trkpt lat="43.55525" lon="4.10596">
        <ele>0.02</ele>
        <time>2019-05-31T07:55:27.000Z</time>
      </trkpt>
      <trkpt lat="43.55533" lon="4.10561">
        <ele>3</ele>
        <time>2019-05-31T07:55:32.000Z</time>
      </trkpt>
      <trkpt lat="43.55541" lon="4.10525">
        <ele>3</ele>
        <time>2019-05-31T07:55:37.000Z</time>
      </trkpt>
      <trkpt lat="43.55546" lon="4.10489">
        <ele>3</ele>
        <time>2019-05-31T07:55:42.000Z</time>
      </trkpt>
      <trkpt lat="43.55555" lon="4.10453">
        <ele>3</ele>
        <time>2019-05-31T07:55:47.000Z</time>
      </trkpt>
      <trkpt lat="43.5556" lon="4.10415">
        <ele>3</ele>
        <time>2019-05-31T07:55:52.000Z</time>
      </trkpt>
      <trkpt lat="43.55569" lon="4.10381">
        <ele>0.51</ele>
        <time>2019-05-31T07:55:57.000Z</time>
      </trkpt>
      <trkpt lat="43.55575" lon="4.10346">
        <ele>0.51</ele>
        <time>2019-05-31T07:56:02.000Z</time>
      </trkpt>
      <trkpt lat="43.55582" lon="4.10314">
        <ele>1.74</ele>
        <time>2019-05-31T07:56:07.000Z</time>
      </trkpt>
      <trkpt lat="43.5559" lon="4.10284">
        <ele>2.75</ele>
        <time>2019-05-31T07:56:12.000Z</time>
      </trkpt>
      <trkpt lat="43.55599" lon="4.10257">
        <ele>4.5</ele>
        <time>2019-05-31T07:56:17.000Z</time>
      </trkpt>
      <trkpt lat="43.55608" lon="4.10228">
        <ele>5.76</ele>
        <time>2019-05-31T07:56:22.000Z</time>
      </trkpt>
      <trkpt lat="43.55615" lon="4.10202">
        <ele>5.82</ele>
        <time>2019-05-31T07:56:27.000Z</time>
      </trkpt>
      <trkpt lat="43.55623" lon="4.10175">
        <ele>6.7</ele>
        <time>2019-05-31T07:56:32.000Z</time>
      </trkpt>
      <trkpt lat="43.55632" lon="4.10149">
        <ele>6.76</ele>
        <time>2019-05-31T07:56:37.000Z</time>
      </trkpt>
      <trkpt lat="43.5564" lon="4.10121">
        <ele>6.01</ele>
        <time>2019-05-31T07:56:42.000Z</time>
      </trkpt>
      <trkpt lat="43.55649" lon="4.1009">
        <ele>5.01</ele>
        <time>2019-05-31T07:56:47.000Z</time>
      </trkpt>
      <trkpt lat="43.5566" lon="4.10059">
        <ele>4.76</ele>
        <time>2019-05-31T07:56:52.000Z</time>
      </trkpt>
      <trkpt lat="43.55668" lon="4.10036">
        <ele>4.7</ele>
        <time>2019-05-31T07:56:57.000Z</time>
      </trkpt>
      <trkpt lat="43.5568" lon="4.10028">
        <ele>4.76</ele>
        <time>2019-05-31T07:57:02.000Z</time>
      </trkpt>
      <trkpt lat="43.55696" lon="4.10009">
        <ele>3.82</ele>
        <time>2019-05-31T07:57:07.000Z</time>
      </trkpt>
      <trkpt lat="43.55704" lon="4.09998">
        <ele>4.7</ele>
        <time>2019-05-31T07:57:12.000Z</time>
      </trkpt>
      <trkpt lat="43.55708" lon="4.09985">
        <ele>6.76</ele>
        <time>2019-05-31T07:57:54.000Z</time>
      </trkpt>
      <trkpt lat="43.55719" lon="4.09968">
        <ele>6.01</ele>
        <time>2019-05-31T07:57:59.000Z</time>
      </trkpt>
      <trkpt lat="43.55739" lon="4.09953">
        <ele>6.74</ele>
        <time>2019-05-31T07:58:04.000Z</time>
      </trkpt>
      <trkpt lat="43.55761" lon="4.09934">
        <ele>6.75</ele>
        <time>2019-05-31T07:58:09.000Z</time>
      </trkpt>
      <trkpt lat="43.55783" lon="4.09918">
        <ele>5.77</ele>
        <time>2019-05-31T07:58:14.000Z</time>
      </trkpt>
      <trkpt lat="43.55805" lon="4.099">
        <ele>4.01</ele>
        <time>2019-05-31T07:58:19.000Z</time>
      </trkpt>
      <trkpt lat="43.55828" lon="4.09882">
        <ele>5</ele>
        <time>2019-05-31T07:58:24.000Z</time>
      </trkpt>
      <trkpt lat="43.55854" lon="4.09863">
        <ele>5.75</ele>
        <time>2019-05-31T07:58:29.000Z</time>
      </trkpt>
      <trkpt lat="43.55879" lon="4.09845">
        <ele>5.74</ele>
        <time>2019-05-31T07:58:34.000Z</time>
      </trkpt>
      <trkpt lat="43.55904" lon="4.09826">
        <ele>5.52</ele>
        <time>2019-05-31T07:58:39.000Z</time>
      </trkpt>
      <trkpt lat="43.55928" lon="4.0981">
        <ele>5.75</ele>
        <time>2019-05-31T07:58:44.000Z</time>
      </trkpt>
      <trkpt lat="43.55952" lon="4.0979">
        <ele>5.81</ele>
        <time>2019-05-31T07:58:49.000Z</time>
      </trkpt>
      <trkpt lat="43.55976" lon="4.09772">
        <ele>5.75</ele>
        <time>2019-05-31T07:58:54.000Z</time>
      </trkpt>
      <trkpt lat="43.56" lon="4.09751">
        <ele>4.77</ele>
        <time>2019-05-31T07:58:59.000Z</time>
      </trkpt>
      <trkpt lat="43.56023" lon="4.09732">
        <ele>4.74</ele>
        <time>2019-05-31T07:59:04.000Z</time>
      </trkpt>
      <trkpt lat="43.56048" lon="4.09714">
        <ele>4.5</ele>
        <time>2019-05-31T07:59:09.000Z</time>
      </trkpt>
      <trkpt lat="43.56073" lon="4.09695">
        <ele>3.8</ele>
        <time>2019-05-31T07:59:14.000Z</time>
      </trkpt>
      <trkpt lat="43.56098" lon="4.09677">
        <ele>3.81</ele>
        <time>2019-05-31T07:59:19.000Z</time>
      </trkpt>
      <trkpt lat="43.56123" lon="4.09657">
        <ele>4.75</ele>
        <time>2019-05-31T07:59:24.000Z</time>
      </trkpt>
      <trkpt lat="43.56149" lon="4.09639">
        <ele>4.75</ele>
        <time>2019-05-31T07:59:29.000Z</time>
      </trkpt>
      <trkpt lat="43.56174" lon="4.09618">
        <ele>4.75</ele>
        <time>2019-05-31T07:59:34.000Z</time>
      </trkpt>
      <trkpt lat="43.56199" lon="4.09598">
        <ele>4.51</ele>
        <time>2019-05-31T07:59:39.000Z</time>
      </trkpt>
      <trkpt lat="43.56224" lon="4.09578">
        <ele>4.56</ele>
        <time>2019-05-31T07:59:44.000Z</time>
      </trkpt>
      <trkpt lat="43.56247" lon="4.09557">
        <ele>4.74</ele>
        <time>2019-05-31T07:59:49.000Z</time>
      </trkpt>
      <trkpt lat="43.56267" lon="4.09535">
        <ele>4</ele>
        <time>2019-05-31T07:59:54.000Z</time>
      </trkpt>
      <trkpt lat="43.56287" lon="4.09513">
        <ele>3.99</ele>
        <time>2019-05-31T07:59:59.000Z</time>
      </trkpt>
      <trkpt lat="43.56303" lon="4.09481">
        <ele>2.02</ele>
        <time>2019-05-31T08:00:04.000Z</time>
      </trkpt>
      <trkpt lat="43.56316" lon="4.09449">
        <ele>1.75</ele>
        <time>2019-05-31T08:00:09.000Z</time>
      </trkpt>
      <trkpt lat="43.5632" lon="4.09414">
        <ele>2.64</ele>
        <time>2019-05-31T08:00:14.000Z</time>
      </trkpt>
      <trkpt lat="43.56324" lon="4.0937">
        <ele>3.73</ele>
        <time>2019-05-31T08:00:19.000Z</time>
      </trkpt>
      <trkpt lat="43.56328" lon="4.0933">
        <ele>2.94</ele>
        <time>2019-05-31T08:00:24.000Z</time>
      </trkpt>
      <trkpt lat="43.56332" lon="4.09291">
        <ele>3.5</ele>
        <time>2019-05-31T08:00:29.000Z</time>
      </trkpt>
      <trkpt lat="43.56334" lon="4.09255">
        <ele>4.98</ele>
        <time>2019-05-31T08:00:34.000Z</time>
      </trkpt>
      <trkpt lat="43.56339" lon="4.09226">
        <ele>5.73</ele>
        <time>2019-05-31T08:00:39.000Z</time>
      </trkpt>
      <trkpt lat="43.56348" lon="4.0922">
        <ele>4.75</ele>
        <time>2019-05-31T08:00:46.000Z</time>
      </trkpt>
      <trkpt lat="43.56356" lon="4.09234">
        <ele>5.94</ele>
        <time>2019-05-31T08:00:51.000Z</time>
      </trkpt>
      <trkpt lat="43.5635" lon="4.09221">
        <ele>4.75</ele>
        <time>2019-05-31T08:00:58.000Z</time>
      </trkpt>
      <trkpt lat="43.5634" lon="4.0922">
        <ele>3.75</ele>
        <time>2019-05-31T08:01:34.000Z</time>
      </trkpt>
      <trkpt lat="43.56331" lon="4.09218">
        <ele>4.93</ele>
        <time>2019-05-31T08:01:39.000Z</time>
      </trkpt>
      <trkpt lat="43.56313" lon="4.09215">
        <ele>2.77</ele>
        <time>2019-05-31T08:01:44.000Z</time>
      </trkpt>
      <trkpt lat="43.563" lon="4.09214">
        <ele>3.75</ele>
        <time>2019-05-31T08:01:49.000Z</time>
      </trkpt>
      <trkpt lat="43.5629" lon="4.09227">
        <ele>4.51</ele>
        <time>2019-05-31T08:01:54.000Z</time>
      </trkpt>
      <trkpt lat="43.56273" lon="4.09236">
        <ele>3.81</ele>
        <time>2019-05-31T08:01:59.000Z</time>
      </trkpt>
      <trkpt lat="43.56258" lon="4.09232">
        <ele>3</ele>
        <time>2019-05-31T08:02:04.000Z</time>
      </trkpt>
      <trkpt lat="43.56254" lon="4.09205">
        <ele>0.83</ele>
        <time>2019-05-31T08:02:09.000Z</time>
      </trkpt>
      <trkpt lat="43.56249" lon="4.09181">
        <ele>1</ele>
        <time>2019-05-31T08:02:14.000Z</time>
      </trkpt>
      <trkpt lat="43.56241" lon="4.09155">
        <ele>2.51</ele>
        <time>2019-05-31T08:02:19.000Z</time>
      </trkpt>
      <trkpt lat="43.56231" lon="4.09129">
        <ele>2.74</ele>
        <time>2019-05-31T08:02:24.000Z</time>
      </trkpt>
      <trkpt lat="43.56222" lon="4.09102">
        <ele>3.74</ele>
        <time>2019-05-31T08:02:29.000Z</time>
      </trkpt>
      <trkpt lat="43.56218" lon="4.09072">
        <ele>3</ele>
        <time>2019-05-31T08:02:34.000Z</time>
      </trkpt>
      <trkpt lat="43.56204" lon="4.09053">
        <ele>5.68</ele>
        <time>2019-05-31T08:02:39.000Z</time>
      </trkpt>
      <trkpt lat="43.56185" lon="4.09047">
        <ele>5.43</ele>
        <time>2019-05-31T08:02:44.000Z</time>
      </trkpt>
      <trkpt lat="43.56176" lon="4.0903">
        <ele>5.75</ele>
        <time>2019-05-31T08:02:49.000Z</time>
      </trkpt>
      <trkpt lat="43.56169" lon="4.09007">
        <ele>6</ele>
        <time>2019-05-31T08:02:54.000Z</time>
      </trkpt>
      <trkpt lat="43.56161" lon="4.08985">
        <ele>5.02</ele>
        <time>2019-05-31T08:02:59.000Z</time>
      </trkpt>
      <trkpt lat="43.56169" lon="4.08964">
        <ele>6.49</ele>
        <time>2019-05-31T08:03:04.000Z</time>
      </trkpt>
      <trkpt lat="43.56179" lon="4.08941">
        <ele>7.98</ele>
        <time>2019-05-31T08:03:09.000Z</time>
      </trkpt>
      <trkpt lat="43.56171" lon="4.08914">
        <ele>5.83</ele>
        <time>2019-05-31T08:03:14.000Z</time>
      </trkpt>
      <trkpt lat="43.56156" lon="4.08887">
        <ele>5.5</ele>
        <time>2019-05-31T08:03:19.000Z</time>
      </trkpt>
      <trkpt lat="43.56145" lon="4.08861">
        <ele>6.5</ele>
        <time>2019-05-31T08:03:24.000Z</time>
      </trkpt>
      <trkpt lat="43.56136" lon="4.08835">
        <ele>6.95</ele>
        <time>2019-05-31T08:03:29.000Z</time>
      </trkpt>
      <trkpt lat="43.56125" lon="4.08812">
        <ele>5.77</ele>
        <time>2019-05-31T08:03:34.000Z</time>
      </trkpt>
      <trkpt lat="43.56117" lon="4.08795">
        <ele>6.69</ele>
        <time>2019-05-31T08:03:39.000Z</time>
      </trkpt>
      <trkpt lat="43.56107" lon="4.08799">
        <ele>8.73</ele>
        <time>2019-05-31T08:03:44.000Z</time>
      </trkpt>
      <trkpt lat="43.56099" lon="4.08807">
        <ele>8.5</ele>
        <time>2019-05-31T08:03:49.000Z</time>
      </trkpt>
      <trkpt lat="43.56093" lon="4.08796">
        <ele>7</ele>
        <time>2019-05-31T08:03:55.000Z</time>
      </trkpt>
      <trkpt lat="43.56099" lon="4.08785">
        <ele>6.69</ele>
        <time>2019-05-31T08:04:00.000Z</time>
      </trkpt>
      <trkpt lat="43.56113" lon="4.08775">
        <ele>7</ele>
        <time>2019-05-31T08:04:05.000Z</time>
      </trkpt>
      <trkpt lat="43.56118" lon="4.08759">
        <ele>6.94</ele>
        <time>2019-05-31T08:04:10.000Z</time>
      </trkpt>
      <trkpt lat="43.56115" lon="4.08741">
        <ele>4.02</ele>
        <time>2019-05-31T08:04:15.000Z</time>
      </trkpt>
      <trkpt lat="43.56124" lon="4.0872">
        <ele>3.5</ele>
        <time>2019-05-31T08:04:20.000Z</time>
      </trkpt>
      <trkpt lat="43.5612" lon="4.08697">
        <ele>2.25</ele>
        <time>2019-05-31T08:04:25.000Z</time>
      </trkpt>
      <trkpt lat="43.56111" lon="4.08676">
        <ele>1.71</ele>
        <time>2019-05-31T08:04:30.000Z</time>
      </trkpt>
      <trkpt lat="43.56104" lon="4.08656">
        <ele>3.69</ele>
        <time>2019-05-31T08:04:35.000Z</time>
      </trkpt>
      <trkpt lat="43.56108" lon="4.08636">
        <ele>4.75</ele>
        <time>2019-05-31T08:04:40.000Z</time>
      </trkpt>
      <trkpt lat="43.56117" lon="4.08616">
        <ele>4.76</ele>
        <time>2019-05-31T08:04:45.000Z</time>
      </trkpt>
      <trkpt lat="43.56133" lon="4.08605">
        <ele>3</ele>
        <time>2019-05-31T08:04:50.000Z</time>
      </trkpt>
      <trkpt lat="43.56148" lon="4.08596">
        <ele>1.77</ele>
        <time>2019-05-31T08:04:55.000Z</time>
      </trkpt>
      <trkpt lat="43.56166" lon="4.08583">
        <ele>4.93</ele>
        <time>2019-05-31T08:05:00.000Z</time>
      </trkpt>
      <trkpt lat="43.56181" lon="4.08573">
        <ele>3.06</ele>
        <time>2019-05-31T08:05:05.000Z</time>
      </trkpt>
      <trkpt lat="43.56197" lon="4.0856">
        <ele>3.75</ele>
        <time>2019-05-31T08:05:10.000Z</time>
      </trkpt>
      <trkpt lat="43.56214" lon="4.08547">
        <ele>5.69</ele>
        <time>2019-05-31T08:05:15.000Z</time>
      </trkpt>
      <trkpt lat="43.56226" lon="4.08536">
        <ele>5.75</ele>
        <time>2019-05-31T08:05:20.000Z</time>
      </trkpt>
      <trkpt lat="43.56236" lon="4.0853">
        <ele>4.75</ele>
        <time>2019-05-31T08:05:25.000Z</time>
      </trkpt>
      <trkpt lat="43.56233" lon="4.08517">
        <ele>7.02</ele>
        <time>2019-05-31T08:05:54.000Z</time>
      </trkpt>
      <trkpt lat="43.56228" lon="4.08497">
        <ele>4.77</ele>
        <time>2019-05-31T08:05:59.000Z</time>
      </trkpt>
      <trkpt lat="43.56222" lon="4.08477">
        <ele>4.75</ele>
        <time>2019-05-31T08:06:04.000Z</time>
      </trkpt>
      <trkpt lat="43.56214" lon="4.08459">
        <ele>2.83</ele>
        <time>2019-05-31T08:06:09.000Z</time>
      </trkpt>
      <trkpt lat="43.56207" lon="4.08438">
        <ele>2.75</ele>
        <time>2019-05-31T08:06:14.000Z</time>
      </trkpt>
      <trkpt lat="43.56202" lon="4.08418">
        <ele>4.73</ele>
        <time>2019-05-31T08:06:19.000Z</time>
      </trkpt>
      <trkpt lat="43.56193" lon="4.08405">
        <ele>5.92</ele>
        <time>2019-05-31T08:06:24.000Z</time>
      </trkpt>
      <trkpt lat="43.56187" lon="4.08383">
        <ele>5.94</ele>
        <time>2019-05-31T08:06:29.000Z</time>
      </trkpt>
      <trkpt lat="43.56176" lon="4.0836">
        <ele>4.01</ele>
        <time>2019-05-31T08:06:34.000Z</time>
      </trkpt>
      <trkpt lat="43.56165" lon="4.08335">
        <ele>2.8</ele>
        <time>2019-05-31T08:06:39.000Z</time>
      </trkpt>
      <trkpt lat="43.56154" lon="4.08311">
        <ele>1.75</ele>
        <time>2019-05-31T08:06:44.000Z</time>
      </trkpt>
      <trkpt lat="43.56144" lon="4.08285">
        <ele>0.05</ele>
        <time>2019-05-31T08:06:49.000Z</time>
      </trkpt>
      <trkpt lat="43.56136" lon="4.08261">
        <ele>0.75</ele>
        <time>2019-05-31T08:06:54.000Z</time>
      </trkpt>
      <trkpt lat="43.56129" lon="4.08235">
        <ele>1.93</ele>
        <time>2019-05-31T08:06:59.000Z</time>
      </trkpt>
      <trkpt lat="43.56118" lon="4.0821">
        <ele>3.44</ele>
        <time>2019-05-31T08:07:04.000Z</time>
      </trkpt>
      <trkpt lat="43.56112" lon="4.08191">
        <ele>4.74</ele>
        <time>2019-05-31T08:07:09.000Z</time>
      </trkpt>
      <trkpt lat="43.56105" lon="4.08183">
        <ele>3.69</ele>
        <time>2019-05-31T08:07:42.000Z</time>
      </trkpt>
      <trkpt lat="43.561" lon="4.08167">
        <ele>7.48</ele>
        <time>2019-05-31T08:07:47.000Z</time>
      </trkpt>
      <trkpt lat="43.56093" lon="4.08154">
        <ele>7.56</ele>
        <time>2019-05-31T08:07:52.000Z</time>
      </trkpt>
      <trkpt lat="43.56083" lon="4.08156">
        <ele>4.75</ele>
        <time>2019-05-31T08:08:36.000Z</time>
      </trkpt>
      <trkpt lat="43.56069" lon="4.08167">
        <ele>4.94</ele>
        <time>2019-05-31T08:08:41.000Z</time>
      </trkpt>
      <trkpt lat="43.56058" lon="4.08167">
        <ele>7.48</ele>
        <time>2019-05-31T08:08:46.000Z</time>
      </trkpt>
      <trkpt lat="43.56052" lon="4.08149">
        <ele>7.8</ele>
        <time>2019-05-31T08:08:51.000Z</time>
      </trkpt>
      <trkpt lat="43.56047" lon="4.08129">
        <ele>7</ele>
        <time>2019-05-31T08:08:56.000Z</time>
      </trkpt>
      <trkpt lat="43.56039" lon="4.0811">
        <ele>7.69</ele>
        <time>2019-05-31T08:09:01.000Z</time>
      </trkpt>
      <trkpt lat="43.56032" lon="4.08091">
        <ele>10.48</ele>
        <time>2019-05-31T08:09:06.000Z</time>
      </trkpt>
      <trkpt lat="43.56025" lon="4.08075">
        <ele>9.58</ele>
        <time>2019-05-31T08:09:11.000Z</time>
      </trkpt>
      <trkpt lat="43.56017" lon="4.08056">
        <ele>8.75</ele>
        <time>2019-05-31T08:09:16.000Z</time>
      </trkpt>
      <trkpt lat="43.5601" lon="4.08037">
        <ele>8.69</ele>
        <time>2019-05-31T08:09:21.000Z</time>
      </trkpt>
      <trkpt lat="43.56005" lon="4.08019">
        <ele>7.75</ele>
        <time>2019-05-31T08:09:26.000Z</time>
      </trkpt>
      <trkpt lat="43.55995" lon="4.08">
        <ele>6.94</ele>
        <time>2019-05-31T08:09:31.000Z</time>
      </trkpt>
      <trkpt lat="43.55987" lon="4.07979">
        <ele>7.73</ele>
        <time>2019-05-31T08:09:36.000Z</time>
      </trkpt>
      <trkpt lat="43.55978" lon="4.07957">
        <ele>6.81</ele>
        <time>2019-05-31T08:09:41.000Z</time>
      </trkpt>
      <trkpt lat="43.5597" lon="4.07936">
        <ele>6.75</ele>
        <time>2019-05-31T08:09:46.000Z</time>
      </trkpt>
      <trkpt lat="43.55965" lon="4.07919">
        <ele>6.75</ele>
        <time>2019-05-31T08:09:51.000Z</time>
      </trkpt>
      <trkpt lat="43.55961" lon="4.07906">
        <ele>6.75</ele>
        <time>2019-05-31T08:09:58.000Z</time>
      </trkpt>
      <trkpt lat="43.55951" lon="4.07904">
        <ele>7.8</ele>
        <time>2019-05-31T08:10:04.000Z</time>
      </trkpt>
      <trkpt lat="43.55939" lon="4.07913">
        <ele>6.75</ele>
        <time>2019-05-31T08:10:09.000Z</time>
      </trkpt>
      <trkpt lat="43.5593" lon="4.07917">
        <ele>6.76</ele>
        <time>2019-05-31T08:10:14.000Z</time>
      </trkpt>
      <trkpt lat="43.55923" lon="4.07909">
        <ele>7.69</ele>
        <time>2019-05-31T08:10:19.000Z</time>
      </trkpt>
      <trkpt lat="43.55916" lon="4.07897">
        <ele>10.48</ele>
        <time>2019-05-31T08:10:24.000Z</time>
      </trkpt>
      <trkpt lat="43.55908" lon="4.07882">
        <ele>9.81</ele>
        <time>2019-05-31T08:10:29.000Z</time>
      </trkpt>
      <trkpt lat="43.55901" lon="4.07868">
        <ele>8</ele>
        <time>2019-05-31T08:10:34.000Z</time>
      </trkpt>
      <trkpt lat="43.55893" lon="4.07854">
        <ele>7.69</ele>
        <time>2019-05-31T08:10:39.000Z</time>
      </trkpt>
      <trkpt lat="43.55888" lon="4.07838">
        <ele>6</ele>
        <time>2019-05-31T08:10:44.000Z</time>
      </trkpt>
      <trkpt lat="43.55884" lon="4.07824">
        <ele>5</ele>
        <time>2019-05-31T08:10:49.000Z</time>
      </trkpt>
      <trkpt lat="43.55888" lon="4.07812">
        <ele>4.8</ele>
        <time>2019-05-31T08:10:54.000Z</time>
      </trkpt>
      <trkpt lat="43.55896" lon="4.07805">
        <ele>5.75</ele>
        <time>2019-05-31T08:10:59.000Z</time>
      </trkpt>
      <trkpt lat="43.55905" lon="4.078">
        <ele>5.8</ele>
        <time>2019-05-31T08:11:04.000Z</time>
      </trkpt>
      <trkpt lat="43.55913" lon="4.07794">
        <ele>5</ele>
        <time>2019-05-31T08:11:11.000Z</time>
      </trkpt>
      <trkpt lat="43.55918" lon="4.07806">
        <ele>9.55</ele>
        <time>2019-05-31T08:16:39.000Z</time>
      </trkpt>
      <trkpt lat="43.55925" lon="4.07815">
        <ele>11.67</ele>
        <time>2019-05-31T08:16:48.000Z</time>
      </trkpt>
      <trkpt lat="43.55925" lon="4.07801">
        <ele>13.73</ele>
        <time>2019-05-31T08:17:40.000Z</time>
      </trkpt>
      <trkpt lat="43.55919" lon="4.0779">
        <ele>13.81</ele>
        <time>2019-05-31T08:17:48.000Z</time>
      </trkpt>
      <trkpt lat="43.55929" lon="4.07798">
        <ele>10.83</ele>
        <time>2019-05-31T08:17:55.000Z</time>
      </trkpt>
      <trkpt lat="43.55934" lon="4.07815">
        <ele>10.75</ele>
        <time>2019-05-31T08:18:00.000Z</time>
      </trkpt>
      <trkpt lat="43.55939" lon="4.07828">
        <ele>8.67</ele>
        <time>2019-05-31T08:18:05.000Z</time>
      </trkpt>
      <trkpt lat="43.55947" lon="4.07837">
        <ele>8.73</ele>
        <time>2019-05-31T08:18:42.000Z</time>
      </trkpt>
      <trkpt lat="43.55971" lon="4.07818">
        <ele>8.75</ele>
        <time>2019-05-31T08:18:47.000Z</time>
      </trkpt>
      <trkpt lat="43.5599" lon="4.07803">
        <ele>8.75</ele>
        <time>2019-05-31T08:18:52.000Z</time>
      </trkpt>
      <trkpt lat="43.5601" lon="4.07788">
        <ele>8.75</ele>
        <time>2019-05-31T08:18:57.000Z</time>
      </trkpt>
      <trkpt lat="43.56028" lon="4.07773">
        <ele>8.76</ele>
        <time>2019-05-31T08:19:02.000Z</time>
      </trkpt>
      <trkpt lat="43.56048" lon="4.07758">
        <ele>7.74</ele>
        <time>2019-05-31T08:19:07.000Z</time>
      </trkpt>
      <trkpt lat="43.56064" lon="4.0775">
        <ele>7</ele>
        <time>2019-05-31T08:19:12.000Z</time>
      </trkpt>
      <trkpt lat="43.56072" lon="4.07741">
        <ele>4</ele>
        <time>2019-05-31T08:19:33.000Z</time>
      </trkpt>
      <trkpt lat="43.56088" lon="4.07729">
        <ele>1.73</ele>
        <time>2019-05-31T08:19:38.000Z</time>
      </trkpt>
      <trkpt lat="43.56103" lon="4.07717">
        <ele>1.75</ele>
        <time>2019-05-31T08:19:43.000Z</time>
      </trkpt>
      <trkpt lat="43.56112" lon="4.07714">
        <ele>7.75</ele>
        <time>2019-05-31T08:20:07.000Z</time>
      </trkpt>
      <trkpt lat="43.56129" lon="4.07714">
        <ele>7.94</ele>
        <time>2019-05-31T08:20:12.000Z</time>
      </trkpt>
      <trkpt lat="43.56145" lon="4.07715">
        <ele>6.81</ele>
        <time>2019-05-31T08:20:17.000Z</time>
      </trkpt>
      <trkpt lat="43.56145" lon="4.07695">
        <ele>5.81</ele>
        <time>2019-05-31T08:20:22.000Z</time>
      </trkpt>
      <trkpt lat="43.56141" lon="4.0767">
        <ele>4.76</ele>
        <time>2019-05-31T08:20:27.000Z</time>
      </trkpt>
      <trkpt lat="43.56142" lon="4.07646">
        <ele>3.75</ele>
        <time>2019-05-31T08:20:32.000Z</time>
      </trkpt>
      <trkpt lat="43.56142" lon="4.07621">
        <ele>2.75</ele>
        <time>2019-05-31T08:20:37.000Z</time>
      </trkpt>
      <trkpt lat="43.56142" lon="4.07606">
        <ele>4.48</ele>
        <time>2019-05-31T08:20:43.000Z</time>
      </trkpt>
      <trkpt lat="43.56143" lon="4.07584">
        <ele>4.79</ele>
        <time>2019-05-31T08:20:48.000Z</time>
      </trkpt>
      <trkpt lat="43.56146" lon="4.07558">
        <ele>3.81</ele>
        <time>2019-05-31T08:20:53.000Z</time>
      </trkpt>
      <trkpt lat="43.56146" lon="4.0753">
        <ele>3.81</ele>
        <time>2019-05-31T08:20:58.000Z</time>
      </trkpt>
      <trkpt lat="43.56147" lon="4.07503">
        <ele>3</ele>
        <time>2019-05-31T08:21:03.000Z</time>
      </trkpt>
      <trkpt lat="43.5615" lon="4.07475">
        <ele>3.5</ele>
        <time>2019-05-31T08:21:08.000Z</time>
      </trkpt>
      <trkpt lat="43.56152" lon="4.0745">
        <ele>2.75</ele>
        <time>2019-05-31T08:21:13.000Z</time>
      </trkpt>
      <trkpt lat="43.56151" lon="4.07428">
        <ele>4.43</ele>
        <time>2019-05-31T08:21:18.000Z</time>
      </trkpt>
      <trkpt lat="43.56149" lon="4.07407">
        <ele>5.75</ele>
        <time>2019-05-31T08:21:23.000Z</time>
      </trkpt>
      <trkpt lat="43.56154" lon="4.07385">
        <ele>4.7</ele>
        <time>2019-05-31T08:21:28.000Z</time>
      </trkpt>
      <trkpt lat="43.56153" lon="4.0736">
        <ele>5</ele>
        <time>2019-05-31T08:21:33.000Z</time>
      </trkpt>
      <trkpt lat="43.56157" lon="4.07339">
        <ele>3.81</ele>
        <time>2019-05-31T08:21:38.000Z</time>
      </trkpt>
      <trkpt lat="43.5616" lon="4.07323">
        <ele>2.75</ele>
        <time>2019-05-31T08:21:43.000Z</time>
      </trkpt>
      <trkpt lat="43.56159" lon="4.0731">
        <ele>2.79</ele>
        <time>2019-05-31T08:21:53.000Z</time>
      </trkpt>
      <trkpt lat="43.56163" lon="4.07297">
        <ele>2.45</ele>
        <time>2019-05-31T08:22:03.000Z</time>
      </trkpt>
      <trkpt lat="43.56163" lon="4.07284">
        <ele>1.25</ele>
        <time>2019-05-31T08:22:09.000Z</time>
      </trkpt>
      <trkpt lat="43.56165" lon="4.0727">
        <ele>1.79</ele>
        <time>2019-05-31T08:22:20.000Z</time>
      </trkpt>
      <trkpt lat="43.56167" lon="4.07258">
        <ele>0.75</ele>
        <time>2019-05-31T08:22:27.000Z</time>
      </trkpt>
      <trkpt lat="43.56168" lon="4.07244">
        <ele>2.75</ele>
        <time>2019-05-31T08:22:33.000Z</time>
      </trkpt>
      <trkpt lat="43.56169" lon="4.07232">
        <ele>3.75</ele>
        <time>2019-05-31T08:22:46.000Z</time>
      </trkpt>
      <trkpt lat="43.56169" lon="4.07217">
        <ele>4.75</ele>
        <time>2019-05-31T08:22:51.000Z</time>
      </trkpt>
      <trkpt lat="43.5617" lon="4.07204">
        <ele>5.74</ele>
        <time>2019-05-31T08:22:56.000Z</time>
      </trkpt>
      <trkpt lat="43.56173" lon="4.07192">
        <ele>1.81</ele>
        <time>2019-05-31T08:23:04.000Z</time>
      </trkpt>
      <trkpt lat="43.56175" lon="4.07178">
        <ele>1.52</ele>
        <time>2019-05-31T08:23:10.000Z</time>
      </trkpt>
      <trkpt lat="43.5617" lon="4.07167">
        <ele>3.68</ele>
        <time>2019-05-31T08:23:15.000Z</time>
      </trkpt>
      <trkpt lat="43.56173" lon="4.07152">
        <ele>4.5</ele>
        <time>2019-05-31T08:23:20.000Z</time>
      </trkpt>
      <trkpt lat="43.56181" lon="4.07132">
        <ele>2.82</ele>
        <time>2019-05-31T08:23:25.000Z</time>
      </trkpt>
      <trkpt lat="43.56175" lon="4.07115">
        <ele>3.76</ele>
        <time>2019-05-31T08:23:30.000Z</time>
      </trkpt>
      <trkpt lat="43.56166" lon="4.07113">
        <ele>5.73</ele>
        <time>2019-05-31T08:23:47.000Z</time>
      </trkpt>
      <trkpt lat="43.56157" lon="4.07109">
        <ele>6.74</ele>
        <time>2019-05-31T08:23:53.000Z</time>
      </trkpt>
      <trkpt lat="43.56148" lon="4.07107">
        <ele>7.73</ele>
        <time>2019-05-31T08:24:00.000Z</time>
      </trkpt>
      <trkpt lat="43.56138" lon="4.07107">
        <ele>4.07</ele>
        <time>2019-05-31T08:24:06.000Z</time>
      </trkpt>
      <trkpt lat="43.56127" lon="4.07116">
        <ele>3.75</ele>
        <time>2019-05-31T08:24:11.000Z</time>
      </trkpt>
      <trkpt lat="43.56119" lon="4.07108">
        <ele>4.76</ele>
        <time>2019-05-31T08:24:16.000Z</time>
      </trkpt>
      <trkpt lat="43.56127" lon="4.07087">
        <ele>5.43</ele>
        <time>2019-05-31T08:24:21.000Z</time>
      </trkpt>
      <trkpt lat="43.56129" lon="4.07066">
        <ele>3.77</ele>
        <time>2019-05-31T08:24:26.000Z</time>
      </trkpt>
      <trkpt lat="43.56121" lon="4.07053">
        <ele>3.75</ele>
        <time>2019-05-31T08:24:31.000Z</time>
      </trkpt>
      <trkpt lat="43.56103" lon="4.0706">
        <ele>2.76</ele>
        <time>2019-05-31T08:24:36.000Z</time>
      </trkpt>
      <trkpt lat="43.56085" lon="4.07071">
        <ele>3.92</ele>
        <time>2019-05-31T08:24:41.000Z</time>
      </trkpt>
      <trkpt lat="43.56065" lon="4.07081">
        <ele>5.48</ele>
        <time>2019-05-31T08:24:46.000Z</time>
      </trkpt>
      <trkpt lat="43.56046" lon="4.0708">
        <ele>8.23</ele>
        <time>2019-05-31T08:24:51.000Z</time>
      </trkpt>
      <trkpt lat="43.56027" lon="4.07071">
        <ele>4.83</ele>
        <time>2019-05-31T08:24:56.000Z</time>
      </trkpt>
      <trkpt lat="43.56007" lon="4.07068">
        <ele>4.99</ele>
        <time>2019-05-31T08:25:01.000Z</time>
      </trkpt>
      <trkpt lat="43.55989" lon="4.07058">
        <ele>6.68</ele>
        <time>2019-05-31T08:25:06.000Z</time>
      </trkpt>
      <trkpt lat="43.55973" lon="4.07047">
        <ele>7.69</ele>
        <time>2019-05-31T08:25:11.000Z</time>
      </trkpt>
      <trkpt lat="43.55956" lon="4.07039">
        <ele>9.45</ele>
        <time>2019-05-31T08:25:16.000Z</time>
      </trkpt>
      <trkpt lat="43.55941" lon="4.07033">
        <ele>10.75</ele>
        <time>2019-05-31T08:25:21.000Z</time>
      </trkpt>
      <trkpt lat="43.55928" lon="4.07029">
        <ele>10.76</ele>
        <time>2019-05-31T08:25:26.000Z</time>
      </trkpt>
      <trkpt lat="43.55916" lon="4.07021">
        <ele>12.92</ele>
        <time>2019-05-31T08:25:31.000Z</time>
      </trkpt>
      <trkpt lat="43.55907" lon="4.07016">
        <ele>12.76</ele>
        <time>2019-05-31T08:25:36.000Z</time>
      </trkpt>
      <trkpt lat="43.55894" lon="4.07009">
        <ele>12.76</ele>
        <time>2019-05-31T08:25:41.000Z</time>
      </trkpt>
      <trkpt lat="43.55883" lon="4.07004">
        <ele>11.56</ele>
        <time>2019-05-31T08:25:46.000Z</time>
      </trkpt>
      <trkpt lat="43.55874" lon="4.07">
        <ele>12.75</ele>
        <time>2019-05-31T08:25:57.000Z</time>
      </trkpt>
      <trkpt lat="43.55863" lon="4.06997">
        <ele>12</ele>
        <time>2019-05-31T08:26:02.000Z</time>
      </trkpt>
      <trkpt lat="43.55853" lon="4.06991">
        <ele>9.83</ele>
        <time>2019-05-31T08:26:07.000Z</time>
      </trkpt>
      <trkpt lat="43.55843" lon="4.06986">
        <ele>8.8</ele>
        <time>2019-05-31T08:26:12.000Z</time>
      </trkpt>
      <trkpt lat="43.55832" lon="4.06981">
        <ele>10.92</ele>
        <time>2019-05-31T08:26:17.000Z</time>
      </trkpt>
      <trkpt lat="43.55823" lon="4.0697">
        <ele>10.75</ele>
        <time>2019-05-31T08:26:22.000Z</time>
      </trkpt>
      <trkpt lat="43.55819" lon="4.06957">
        <ele>10.81</ele>
        <time>2019-05-31T08:26:27.000Z</time>
      </trkpt>
      <trkpt lat="43.55821" lon="4.06932">
        <ele>7.83</ele>
        <time>2019-05-31T08:26:32.000Z</time>
      </trkpt>
      <trkpt lat="43.55823" lon="4.06905">
        <ele>6.81</ele>
        <time>2019-05-31T08:26:37.000Z</time>
      </trkpt>
      <trkpt lat="43.55824" lon="4.0688">
        <ele>5.75</ele>
        <time>2019-05-31T08:26:42.000Z</time>
      </trkpt>
      <trkpt lat="43.55823" lon="4.06857">
        <ele>5.79</ele>
        <time>2019-05-31T08:26:47.000Z</time>
      </trkpt>
      <trkpt lat="43.55821" lon="4.06835">
        <ele>6.92</ele>
        <time>2019-05-31T08:26:52.000Z</time>
      </trkpt>
      <trkpt lat="43.55825" lon="4.06811">
        <ele>6</ele>
        <time>2019-05-31T08:26:57.000Z</time>
      </trkpt>
      <trkpt lat="43.55826" lon="4.06786">
        <ele>6.73</ele>
        <time>2019-05-31T08:27:02.000Z</time>
      </trkpt>
      <trkpt lat="43.55825" lon="4.06761">
        <ele>5.75</ele>
        <time>2019-05-31T08:27:07.000Z</time>
      </trkpt>
      <trkpt lat="43.55825" lon="4.06736">
        <ele>5.74</ele>
        <time>2019-05-31T08:27:12.000Z</time>
      </trkpt>
      <trkpt lat="43.55824" lon="4.06709">
        <ele>5.56</ele>
        <time>2019-05-31T08:27:17.000Z</time>
      </trkpt>
      <trkpt lat="43.55823" lon="4.06681">
        <ele>5</ele>
        <time>2019-05-31T08:27:22.000Z</time>
      </trkpt>
      <trkpt lat="43.55827" lon="4.06653">
        <ele>3.76</ele>
        <time>2019-05-31T08:27:27.000Z</time>
      </trkpt>
      <trkpt lat="43.55831" lon="4.06627">
        <ele>3.75</ele>
        <time>2019-05-31T08:27:32.000Z</time>
      </trkpt>
      <trkpt lat="43.55831" lon="4.06599">
        <ele>3.75</ele>
        <time>2019-05-31T08:27:37.000Z</time>
      </trkpt>
      <trkpt lat="43.55832" lon="4.06567">
        <ele>3.75</ele>
        <time>2019-05-31T08:27:42.000Z</time>
      </trkpt>
      <trkpt lat="43.5583" lon="4.06536">
        <ele>3.81</ele>
        <time>2019-05-31T08:27:47.000Z</time>
      </trkpt>
      <trkpt lat="43.55832" lon="4.0651">
        <ele>3</ele>
        <time>2019-05-31T08:27:52.000Z</time>
      </trkpt>
      <trkpt lat="43.55835" lon="4.06479">
        <ele>3.5</ele>
        <time>2019-05-31T08:27:57.000Z</time>
      </trkpt>
      <trkpt lat="43.55837" lon="4.06445">
        <ele>3.75</ele>
        <time>2019-05-31T08:28:02.000Z</time>
      </trkpt>
      <trkpt lat="43.55838" lon="4.06414">
        <ele>4.74</ele>
        <time>2019-05-31T08:28:07.000Z</time>
      </trkpt>
      <trkpt lat="43.55838" lon="4.06382">
        <ele>4.76</ele>
        <time>2019-05-31T08:28:12.000Z</time>
      </trkpt>
      <trkpt lat="43.55839" lon="4.06353">
        <ele>4.51</ele>
        <time>2019-05-31T08:28:17.000Z</time>
      </trkpt>
      <trkpt lat="43.55834" lon="4.06329">
        <ele>4.69</ele>
        <time>2019-05-31T08:28:22.000Z</time>
      </trkpt>
      <trkpt lat="43.55832" lon="4.06299">
        <ele>4.75</ele>
        <time>2019-05-31T08:28:27.000Z</time>
      </trkpt>
      <trkpt lat="43.55837" lon="4.06268">
        <ele>4</ele>
        <time>2019-05-31T08:28:32.000Z</time>
      </trkpt>
      <trkpt lat="43.55839" lon="4.06234">
        <ele>4.68</ele>
        <time>2019-05-31T08:28:37.000Z</time>
      </trkpt>
      <trkpt lat="43.55843" lon="4.06196">
        <ele>4.75</ele>
        <time>2019-05-31T08:28:42.000Z</time>
      </trkpt>
      <trkpt lat="43.55847" lon="4.0616">
        <ele>4.93</ele>
        <time>2019-05-31T08:28:47.000Z</time>
      </trkpt>
      <trkpt lat="43.55846" lon="4.06124">
        <ele>5.55</ele>
        <time>2019-05-31T08:28:52.000Z</time>
      </trkpt>
      <trkpt lat="43.55842" lon="4.06103">
        <ele>4</ele>
        <time>2019-05-31T08:28:57.000Z</time>
      </trkpt>
      <trkpt lat="43.5584" lon="4.06083">
        <ele>4.68</ele>
        <time>2019-05-31T08:29:02.000Z</time>
      </trkpt>
      <trkpt lat="43.5584" lon="4.06062">
        <ele>4</ele>
        <time>2019-05-31T08:29:07.000Z</time>
      </trkpt>
      <trkpt lat="43.55845" lon="4.06034">
        <ele>3.75</ele>
        <time>2019-05-31T08:29:12.000Z</time>
      </trkpt>
      <trkpt lat="43.55847" lon="4.06001">
        <ele>3.75</ele>
        <time>2019-05-31T08:29:17.000Z</time>
      </trkpt>
      <trkpt lat="43.55848" lon="4.05968">
        <ele>3.75</ele>
        <time>2019-05-31T08:29:22.000Z</time>
      </trkpt>
      <trkpt lat="43.55846" lon="4.05933">
        <ele>3.76</ele>
        <time>2019-05-31T08:29:27.000Z</time>
      </trkpt>
      <trkpt lat="43.55845" lon="4.05899">
        <ele>4.5</ele>
        <time>2019-05-31T08:29:32.000Z</time>
      </trkpt>
      <trkpt lat="43.55841" lon="4.05867">
        <ele>3.81</ele>
        <time>2019-05-31T08:29:37.000Z</time>
      </trkpt>
      <trkpt lat="43.55839" lon="4.05837">
        <ele>3.76</ele>
        <time>2019-05-31T08:29:42.000Z</time>
      </trkpt>
      <trkpt lat="43.55838" lon="4.05807">
        <ele>3.75</ele>
        <time>2019-05-31T08:29:47.000Z</time>
      </trkpt>
      <trkpt lat="43.55835" lon="4.05775">
        <ele>4.69</ele>
        <time>2019-05-31T08:29:52.000Z</time>
      </trkpt>
      <trkpt lat="43.55835" lon="4.0574">
        <ele>4.56</ele>
        <time>2019-05-31T08:29:57.000Z</time>
      </trkpt>
      <trkpt lat="43.55835" lon="4.05705">
        <ele>3.75</ele>
        <time>2019-05-31T08:30:02.000Z</time>
      </trkpt>
      <trkpt lat="43.55834" lon="4.05668">
        <ele>2.62</ele>
        <time>2019-05-31T08:30:07.000Z</time>
      </trkpt>
      <trkpt lat="43.55835" lon="4.05631">
        <ele>2.74</ele>
        <time>2019-05-31T08:30:12.000Z</time>
      </trkpt>
      <trkpt lat="43.55835" lon="4.05591">
        <ele>3.74</ele>
        <time>2019-05-31T08:30:17.000Z</time>
      </trkpt>
      <trkpt lat="43.55834" lon="4.05555">
        <ele>3.94</ele>
        <time>2019-05-31T08:30:22.000Z</time>
      </trkpt>
      <trkpt lat="43.55834" lon="4.05518">
        <ele>4.74</ele>
        <time>2019-05-31T08:30:27.000Z</time>
      </trkpt>
      <trkpt lat="43.55833" lon="4.0548">
        <ele>5.74</ele>
        <time>2019-05-31T08:30:32.000Z</time>
      </trkpt>
      <trkpt lat="43.55831" lon="4.05444">
        <ele>5.76</ele>
        <time>2019-05-31T08:30:37.000Z</time>
      </trkpt>
      <trkpt lat="43.55829" lon="4.05411">
        <ele>4.99</ele>
        <time>2019-05-31T08:30:42.000Z</time>
      </trkpt>
      <trkpt lat="43.55829" lon="4.05377">
        <ele>4.74</ele>
        <time>2019-05-31T08:30:47.000Z</time>
      </trkpt>
      <trkpt lat="43.55829" lon="4.05342">
        <ele>4.74</ele>
        <time>2019-05-31T08:30:52.000Z</time>
      </trkpt>
      <trkpt lat="43.55828" lon="4.05306">
        <ele>4.74</ele>
        <time>2019-05-31T08:30:57.000Z</time>
      </trkpt>
      <trkpt lat="43.55827" lon="4.05269">
        <ele>4.74</ele>
        <time>2019-05-31T08:31:02.000Z</time>
      </trkpt>
      <trkpt lat="43.55825" lon="4.05231">
        <ele>4.74</ele>
        <time>2019-05-31T08:31:07.000Z</time>
      </trkpt>
      <trkpt lat="43.55823" lon="4.05193">
        <ele>3.76</ele>
        <time>2019-05-31T08:31:12.000Z</time>
      </trkpt>
      <trkpt lat="43.55821" lon="4.05159">
        <ele>4.74</ele>
        <time>2019-05-31T08:31:17.000Z</time>
      </trkpt>
      <trkpt lat="43.5582" lon="4.05137">
        <ele>4.99</ele>
        <time>2019-05-31T08:31:22.000Z</time>
      </trkpt>
      <trkpt lat="43.55819" lon="4.05123">
        <ele>3.75</ele>
        <time>2019-05-31T08:31:45.000Z</time>
      </trkpt>
      <trkpt lat="43.55819" lon="4.05104">
        <ele>4.74</ele>
        <time>2019-05-31T08:31:50.000Z</time>
      </trkpt>
      <trkpt lat="43.55816" lon="4.05085">
        <ele>5.74</ele>
        <time>2019-05-31T08:31:55.000Z</time>
      </trkpt>
      <trkpt lat="43.55815" lon="4.05054">
        <ele>6.49</ele>
        <time>2019-05-31T08:32:00.000Z</time>
      </trkpt>
      <trkpt lat="43.55813" lon="4.0502">
        <ele>5.74</ele>
        <time>2019-05-31T08:32:05.000Z</time>
      </trkpt>
      <trkpt lat="43.5581" lon="4.04984">
        <ele>4.99</ele>
        <time>2019-05-31T08:32:10.000Z</time>
      </trkpt>
      <trkpt lat="43.55808" lon="4.04947">
        <ele>4.74</ele>
        <time>2019-05-31T08:32:15.000Z</time>
      </trkpt>
      <trkpt lat="43.55804" lon="4.04908">
        <ele>4.74</ele>
        <time>2019-05-31T08:32:20.000Z</time>
      </trkpt>
      <trkpt lat="43.558" lon="4.04871">
        <ele>6.01</ele>
        <time>2019-05-31T08:32:25.000Z</time>
      </trkpt>
      <trkpt lat="43.55796" lon="4.04833">
        <ele>4.75</ele>
        <time>2019-05-31T08:32:30.000Z</time>
      </trkpt>
      <trkpt lat="43.55793" lon="4.04794">
        <ele>3.74</ele>
        <time>2019-05-31T08:32:35.000Z</time>
      </trkpt>
      <trkpt lat="43.55788" lon="4.04755">
        <ele>3.75</ele>
        <time>2019-05-31T08:32:40.000Z</time>
      </trkpt>
      <trkpt lat="43.55785" lon="4.04717">
        <ele>3.74</ele>
        <time>2019-05-31T08:32:45.000Z</time>
      </trkpt>
      <trkpt lat="43.55782" lon="4.0468">
        <ele>3.79</ele>
        <time>2019-05-31T08:32:50.000Z</time>
      </trkpt>
      <trkpt lat="43.55779" lon="4.04644">
        <ele>4.68</ele>
        <time>2019-05-31T08:32:55.000Z</time>
      </trkpt>
      <trkpt lat="43.55776" lon="4.04609">
        <ele>4.74</ele>
        <time>2019-05-31T08:33:00.000Z</time>
      </trkpt>
      <trkpt lat="43.55773" lon="4.04571">
        <ele>4.74</ele>
        <time>2019-05-31T08:33:05.000Z</time>
      </trkpt>
      <trkpt lat="43.55769" lon="4.04532">
        <ele>3.75</ele>
        <time>2019-05-31T08:33:10.000Z</time>
      </trkpt>
      <trkpt lat="43.55765" lon="4.04494">
        <ele>3.74</ele>
        <time>2019-05-31T08:33:15.000Z</time>
      </trkpt>
      <trkpt lat="43.55764" lon="4.04456">
        <ele>4.74</ele>
        <time>2019-05-31T08:33:20.000Z</time>
      </trkpt>
      <trkpt lat="43.5576" lon="4.04417">
        <ele>4.74</ele>
        <time>2019-05-31T08:33:25.000Z</time>
      </trkpt>
      <trkpt lat="43.55756" lon="4.04377">
        <ele>4.74</ele>
        <time>2019-05-31T08:33:30.000Z</time>
      </trkpt>
      <trkpt lat="43.55753" lon="4.0434">
        <ele>4.75</ele>
        <time>2019-05-31T08:33:35.000Z</time>
      </trkpt>
      <trkpt lat="43.55751" lon="4.04301">
        <ele>4.69</ele>
        <time>2019-05-31T08:33:40.000Z</time>
      </trkpt>
      <trkpt lat="43.55747" lon="4.04262">
        <ele>4.49</ele>
        <time>2019-05-31T08:33:45.000Z</time>
      </trkpt>
      <trkpt lat="43.55746" lon="4.04224">
        <ele>4.74</ele>
        <time>2019-05-31T08:33:50.000Z</time>
      </trkpt>
      <trkpt lat="43.55743" lon="4.04186">
        <ele>4.74</ele>
        <time>2019-05-31T08:33:55.000Z</time>
      </trkpt>
      <trkpt lat="43.5574" lon="4.04148">
        <ele>3.8</ele>
        <time>2019-05-31T08:34:00.000Z</time>
      </trkpt>
      <trkpt lat="43.55737" lon="4.04112">
        <ele>2.8</ele>
        <time>2019-05-31T08:34:05.000Z</time>
      </trkpt>
      <trkpt lat="43.55737" lon="4.04076">
        <ele>3.74</ele>
        <time>2019-05-31T08:34:10.000Z</time>
      </trkpt>
      <trkpt lat="43.55735" lon="4.0404">
        <ele>4.68</ele>
        <time>2019-05-31T08:34:15.000Z</time>
      </trkpt>
      <trkpt lat="43.55732" lon="4.04004">
        <ele>4.51</ele>
        <time>2019-05-31T08:34:20.000Z</time>
      </trkpt>
      <trkpt lat="43.5573" lon="4.03966">
        <ele>3.75</ele>
        <time>2019-05-31T08:34:25.000Z</time>
      </trkpt>
      <trkpt lat="43.55728" lon="4.03928">
        <ele>3.93</ele>
        <time>2019-05-31T08:34:30.000Z</time>
      </trkpt>
      <trkpt lat="43.55726" lon="4.0389">
        <ele>3.93</ele>
        <time>2019-05-31T08:34:35.000Z</time>
      </trkpt>
      <trkpt lat="43.55724" lon="4.03858">
        <ele>3.7</ele>
        <time>2019-05-31T08:34:40.000Z</time>
      </trkpt>
      <trkpt lat="43.5572" lon="4.03823">
        <ele>4.68</ele>
        <time>2019-05-31T08:34:45.000Z</time>
      </trkpt>
      <trkpt lat="43.55718" lon="4.03789">
        <ele>5.54</ele>
        <time>2019-05-31T08:34:50.000Z</time>
      </trkpt>
      <trkpt lat="43.55717" lon="4.03756">
        <ele>5.69</ele>
        <time>2019-05-31T08:34:55.000Z</time>
      </trkpt>
      <trkpt lat="43.55715" lon="4.0372">
        <ele>6.43</ele>
        <time>2019-05-31T08:35:00.000Z</time>
      </trkpt>
      <trkpt lat="43.55711" lon="4.03686">
        <ele>6.74</ele>
        <time>2019-05-31T08:35:05.000Z</time>
      </trkpt>
      <trkpt lat="43.55708" lon="4.03652">
        <ele>4.76</ele>
        <time>2019-05-31T08:35:10.000Z</time>
      </trkpt>
      <trkpt lat="43.55705" lon="4.03619">
        <ele>3.8</ele>
        <time>2019-05-31T08:35:15.000Z</time>
      </trkpt>
      <trkpt lat="43.55703" lon="4.03585">
        <ele>2.99</ele>
        <time>2019-05-31T08:35:20.000Z</time>
      </trkpt>
      <trkpt lat="43.557" lon="4.0355">
        <ele>3.49</ele>
        <time>2019-05-31T08:35:25.000Z</time>
      </trkpt>
      <trkpt lat="43.55698" lon="4.03515">
        <ele>3.74</ele>
        <time>2019-05-31T08:35:30.000Z</time>
      </trkpt>
      <trkpt lat="43.55695" lon="4.03484">
        <ele>2.76</ele>
        <time>2019-05-31T08:35:35.000Z</time>
      </trkpt>
      <trkpt lat="43.55692" lon="4.0345">
        <ele>2.94</ele>
        <time>2019-05-31T08:35:40.000Z</time>
      </trkpt>
      <trkpt lat="43.5569" lon="4.0342">
        <ele>2.74</ele>
        <time>2019-05-31T08:35:45.000Z</time>
      </trkpt>
      <trkpt lat="43.55688" lon="4.03391">
        <ele>2.79</ele>
        <time>2019-05-31T08:35:50.000Z</time>
      </trkpt>
      <trkpt lat="43.55681" lon="4.03369">
        <ele>2.68</ele>
        <time>2019-05-31T08:35:55.000Z</time>
      </trkpt>
      <trkpt lat="43.55669" lon="4.03366">
        <ele>2.74</ele>
        <time>2019-05-31T08:36:00.000Z</time>
      </trkpt>
      <trkpt lat="43.55659" lon="4.03365">
        <ele>3.49</ele>
        <time>2019-05-31T08:36:05.000Z</time>
      </trkpt>
      <trkpt lat="43.55648" lon="4.03366">
        <ele>3.51</ele>
        <time>2019-05-31T08:36:10.000Z</time>
      </trkpt>
      <trkpt lat="43.55657" lon="4.03366">
        <ele>4.74</ele>
        <time>2019-05-31T08:37:38.000Z</time>
      </trkpt>
      <trkpt lat="43.55666" lon="4.03365">
        <ele>4.74</ele>
        <time>2019-05-31T08:37:46.000Z</time>
      </trkpt>
      <trkpt lat="43.55675" lon="4.03366">
        <ele>3.74</ele>
        <time>2019-05-31T08:37:58.000Z</time>
      </trkpt>
      <trkpt lat="43.55687" lon="4.03369">
        <ele>3.74</ele>
        <time>2019-05-31T08:38:03.000Z</time>
      </trkpt>
      <trkpt lat="43.55689" lon="4.03391">
        <ele>3.74</ele>
        <time>2019-05-31T08:38:08.000Z</time>
      </trkpt>
      <trkpt lat="43.55697" lon="4.03405">
        <ele>4.68</ele>
        <time>2019-05-31T08:38:13.000Z</time>
      </trkpt>
      <trkpt lat="43.55708" lon="4.03406">
        <ele>5.68</ele>
        <time>2019-05-31T08:38:18.000Z</time>
      </trkpt>
      <trkpt lat="43.55717" lon="4.03397">
        <ele>2.74</ele>
        <time>2019-05-31T08:41:28.000Z</time>
      </trkpt>
      <trkpt lat="43.55735" lon="4.03393">
        <ele>2.69</ele>
        <time>2019-05-31T08:41:33.000Z</time>
      </trkpt>
      <trkpt lat="43.55755" lon="4.03378">
        <ele>1.74</ele>
        <time>2019-05-31T08:41:38.000Z</time>
      </trkpt>
      <trkpt lat="43.55773" lon="4.03359">
        <ele>1.74</ele>
        <time>2019-05-31T08:41:43.000Z</time>
      </trkpt>
      <trkpt lat="43.55791" lon="4.03341">
        <ele>1.74</ele>
        <time>2019-05-31T08:41:48.000Z</time>
      </trkpt>
      <trkpt lat="43.5581" lon="4.03321">
        <ele>0.76</ele>
        <time>2019-05-31T08:41:53.000Z</time>
      </trkpt>
      <trkpt lat="43.55826" lon="4.03301">
        <ele>0.93</ele>
        <time>2019-05-31T08:41:58.000Z</time>
      </trkpt>
      <trkpt lat="43.55833" lon="4.03276">
        <ele>1.49</ele>
        <time>2019-05-31T08:42:03.000Z</time>
      </trkpt>
      <trkpt lat="43.55833" lon="4.03247">
        <ele>1.74</ele>
        <time>2019-05-31T08:42:08.000Z</time>
      </trkpt>
      <trkpt lat="43.55839" lon="4.03217">
        <ele>1.74</ele>
        <time>2019-05-31T08:42:13.000Z</time>
      </trkpt>
      <trkpt lat="43.55839" lon="4.03189">
        <ele>2.54</ele>
        <time>2019-05-31T08:42:18.000Z</time>
      </trkpt>
      <trkpt lat="43.5584" lon="4.03159">
        <ele>3.68</ele>
        <time>2019-05-31T08:42:23.000Z</time>
      </trkpt>
      <trkpt lat="43.55845" lon="4.03127">
        <ele>1.99</ele>
        <time>2019-05-31T08:42:28.000Z</time>
      </trkpt>
      <trkpt lat="43.55848" lon="4.03092">
        <ele>3.68</ele>
        <time>2019-05-31T08:42:33.000Z</time>
      </trkpt>
      <trkpt lat="43.5585" lon="4.03054">
        <ele>3.74</ele>
        <time>2019-05-31T08:42:38.000Z</time>
      </trkpt>
      <trkpt lat="43.55849" lon="4.03015">
        <ele>3.69</ele>
        <time>2019-05-31T08:42:43.000Z</time>
      </trkpt>
      <trkpt lat="43.55848" lon="4.02978">
        <ele>2.74</ele>
        <time>2019-05-31T08:42:48.000Z</time>
      </trkpt>
      <trkpt lat="43.55843" lon="4.02944">
        <ele>3.74</ele>
        <time>2019-05-31T08:42:53.000Z</time>
      </trkpt>
      <trkpt lat="43.55832" lon="4.02913">
        <ele>3.99</ele>
        <time>2019-05-31T08:42:58.000Z</time>
      </trkpt>
      <trkpt lat="43.55825" lon="4.02881">
        <ele>2</ele>
        <time>2019-05-31T08:43:03.000Z</time>
      </trkpt>
      <trkpt lat="43.55821" lon="4.02846">
        <ele>4.72</ele>
        <time>2019-05-31T08:43:08.000Z</time>
      </trkpt>
      <trkpt lat="43.55816" lon="4.0281">
        <ele>3.74</ele>
        <time>2019-05-31T08:43:13.000Z</time>
      </trkpt>
      <trkpt lat="43.55811" lon="4.02774">
        <ele>5.43</ele>
        <time>2019-05-31T08:43:18.000Z</time>
      </trkpt>
      <trkpt lat="43.558" lon="4.02737">
        <ele>5.67</ele>
        <time>2019-05-31T08:43:23.000Z</time>
      </trkpt>
      <trkpt lat="43.5579" lon="4.02703">
        <ele>5.49</ele>
        <time>2019-05-31T08:43:28.000Z</time>
      </trkpt>
      <trkpt lat="43.5579" lon="4.02665">
        <ele>5.73</ele>
        <time>2019-05-31T08:43:33.000Z</time>
      </trkpt>
      <trkpt lat="43.55798" lon="4.02627">
        <ele>4.8</ele>
        <time>2019-05-31T08:43:38.000Z</time>
      </trkpt>
      <trkpt lat="43.55804" lon="4.02586">
        <ele>4.74</ele>
        <time>2019-05-31T08:43:43.000Z</time>
      </trkpt>
      <trkpt lat="43.558" lon="4.02546">
        <ele>3.8</ele>
        <time>2019-05-31T08:43:48.000Z</time>
      </trkpt>
      <trkpt lat="43.55787" lon="4.02509">
        <ele>2.8</ele>
        <time>2019-05-31T08:43:53.000Z</time>
      </trkpt>
      <trkpt lat="43.55774" lon="4.02473">
        <ele>1.69</ele>
        <time>2019-05-31T08:43:58.000Z</time>
      </trkpt>
      <trkpt lat="43.5577" lon="4.02437">
        <ele>1.68</ele>
        <time>2019-05-31T08:44:03.000Z</time>
      </trkpt>
      <trkpt lat="43.55767" lon="4.024">
        <ele>1.74</ele>
        <time>2019-05-31T08:44:08.000Z</time>
      </trkpt>
      <trkpt lat="43.55762" lon="4.02363">
        <ele>2.74</ele>
        <time>2019-05-31T08:44:13.000Z</time>
      </trkpt>
      <trkpt lat="43.55746" lon="4.0233">
        <ele>2.97</ele>
        <time>2019-05-31T08:44:18.000Z</time>
      </trkpt>
      <trkpt lat="43.55733" lon="4.02295">
        <ele>2.93</ele>
        <time>2019-05-31T08:44:23.000Z</time>
      </trkpt>
      <trkpt lat="43.5572" lon="4.0226">
        <ele>1.8</ele>
        <time>2019-05-31T08:44:28.000Z</time>
      </trkpt>
      <trkpt lat="43.55712" lon="4.02224">
        <ele>1.74</ele>
        <time>2019-05-31T08:44:33.000Z</time>
      </trkpt>
      <trkpt lat="43.55708" lon="4.02188">
        <ele>1.74</ele>
        <time>2019-05-31T08:44:38.000Z</time>
      </trkpt>
      <trkpt lat="43.55703" lon="4.0215">
        <ele>2.73</ele>
        <time>2019-05-31T08:44:43.000Z</time>
      </trkpt>
      <trkpt lat="43.55701" lon="4.02108">
        <ele>2.93</ele>
        <time>2019-05-31T08:44:48.000Z</time>
      </trkpt>
      <trkpt lat="43.55701" lon="4.02067">
        <ele>3.73</ele>
        <time>2019-05-31T08:44:53.000Z</time>
      </trkpt>
      <trkpt lat="43.55696" lon="4.02032">
        <ele>2.74</ele>
        <time>2019-05-31T08:44:58.000Z</time>
      </trkpt>
      <trkpt lat="43.55688" lon="4.01995">
        <ele>2.93</ele>
        <time>2019-05-31T08:45:03.000Z</time>
      </trkpt>
      <trkpt lat="43.55681" lon="4.01956">
        <ele>4.48</ele>
        <time>2019-05-31T08:45:08.000Z</time>
      </trkpt>
      <trkpt lat="43.55672" lon="4.01919">
        <ele>2.99</ele>
        <time>2019-05-31T08:45:13.000Z</time>
      </trkpt>
      <trkpt lat="43.55662" lon="4.0188">
        <ele>2.49</ele>
        <time>2019-05-31T08:45:18.000Z</time>
      </trkpt>
      <trkpt lat="43.55656" lon="4.01839">
        <ele>2.74</ele>
        <time>2019-05-31T08:45:23.000Z</time>
      </trkpt>
      <trkpt lat="43.55652" lon="4.01798">
        <ele>3.73</ele>
        <time>2019-05-31T08:45:28.000Z</time>
      </trkpt>
      <trkpt lat="43.5565" lon="4.01756">
        <ele>3.74</ele>
        <time>2019-05-31T08:45:33.000Z</time>
      </trkpt>
      <trkpt lat="43.5565" lon="4.01715">
        <ele>3.74</ele>
        <time>2019-05-31T08:45:38.000Z</time>
      </trkpt>
      <trkpt lat="43.55641" lon="4.01675">
        <ele>3.98</ele>
        <time>2019-05-31T08:45:43.000Z</time>
      </trkpt>
      <trkpt lat="43.55626" lon="4.01641">
        <ele>3.74</ele>
        <time>2019-05-31T08:45:48.000Z</time>
      </trkpt>
      <trkpt lat="43.55614" lon="4.01606">
        <ele>3.55</ele>
        <time>2019-05-31T08:45:53.000Z</time>
      </trkpt>
      <trkpt lat="43.55612" lon="4.01567">
        <ele>2.75</ele>
        <time>2019-05-31T08:45:58.000Z</time>
      </trkpt>
      <trkpt lat="43.55611" lon="4.01527">
        <ele>2.74</ele>
        <time>2019-05-31T08:46:03.000Z</time>
      </trkpt>
      <trkpt lat="43.55601" lon="4.01488">
        <ele>2.73</ele>
        <time>2019-05-31T08:46:08.000Z</time>
      </trkpt>
      <trkpt lat="43.55585" lon="4.01455">
        <ele>1.98</ele>
        <time>2019-05-31T08:46:13.000Z</time>
      </trkpt>
      <trkpt lat="43.5557" lon="4.0142">
        <ele>2.74</ele>
        <time>2019-05-31T08:46:18.000Z</time>
      </trkpt>
      <trkpt lat="43.55556" lon="4.01383">
        <ele>3.74</ele>
        <time>2019-05-31T08:46:23.000Z</time>
      </trkpt>
      <trkpt lat="43.55542" lon="4.01346">
        <ele>1.75</ele>
        <time>2019-05-31T08:46:28.000Z</time>
      </trkpt>
      <trkpt lat="43.55529" lon="4.01308">
        <ele>0.75</ele>
        <time>2019-05-31T08:46:33.000Z</time>
      </trkpt>
      <trkpt lat="43.55526" lon="4.01267">
        <ele>1.73</ele>
        <time>2019-05-31T08:46:38.000Z</time>
      </trkpt>
      <trkpt lat="43.55522" lon="4.01225">
        <ele>1.8</ele>
        <time>2019-05-31T08:46:43.000Z</time>
      </trkpt>
      <trkpt lat="43.55512" lon="4.01187">
        <ele>1.74</ele>
        <time>2019-05-31T08:46:48.000Z</time>
      </trkpt>
      <trkpt lat="43.55504" lon="4.0116">
        <ele>1.74</ele>
        <time>2019-05-31T08:46:53.000Z</time>
      </trkpt>
      <trkpt lat="43.55499" lon="4.01141">
        <ele>2.53</ele>
        <time>2019-05-31T08:46:58.000Z</time>
      </trkpt>
      <trkpt lat="43.55492" lon="4.01112">
        <ele>2.55</ele>
        <time>2019-05-31T08:47:03.000Z</time>
      </trkpt>
      <trkpt lat="43.55482" lon="4.01081">
        <ele>2.74</ele>
        <time>2019-05-31T08:47:08.000Z</time>
      </trkpt>
      <trkpt lat="43.55467" lon="4.0105">
        <ele>3.74</ele>
        <time>2019-05-31T08:47:13.000Z</time>
      </trkpt>
      <trkpt lat="43.55455" lon="4.01016">
        <ele>3.55</ele>
        <time>2019-05-31T08:47:18.000Z</time>
      </trkpt>
      <trkpt lat="43.55443" lon="4.0098">
        <ele>3.74</ele>
        <time>2019-05-31T08:47:23.000Z</time>
      </trkpt>
      <trkpt lat="43.55429" lon="4.00947">
        <ele>3.74</ele>
        <time>2019-05-31T08:47:28.000Z</time>
      </trkpt>
      <trkpt lat="43.55403" lon="4.00936">
        <ele>3.74</ele>
        <time>2019-05-31T08:47:33.000Z</time>
      </trkpt>
      <trkpt lat="43.55375" lon="4.00947">
        <ele>4.72</ele>
        <time>2019-05-31T08:47:38.000Z</time>
      </trkpt>
      <trkpt lat="43.55354" lon="4.00965">
        <ele>4.49</ele>
        <time>2019-05-31T08:47:43.000Z</time>
      </trkpt>
      <trkpt lat="43.55334" lon="4.00966">
        <ele>4.68</ele>
        <time>2019-05-31T08:47:48.000Z</time>
      </trkpt>
      <trkpt lat="43.55323" lon="4.00964">
        <ele>5.68</ele>
        <time>2019-05-31T08:47:53.000Z</time>
      </trkpt>
      <trkpt lat="43.55323" lon="4.00951">
        <ele>6.49</ele>
        <time>2019-05-31T08:49:17.000Z</time>
      </trkpt>
      <trkpt lat="43.55315" lon="4.00926">
        <ele>6.74</ele>
        <time>2019-05-31T08:49:22.000Z</time>
      </trkpt>
      <trkpt lat="43.55308" lon="4.00903">
        <ele>6.54</ele>
        <time>2019-05-31T08:49:27.000Z</time>
      </trkpt>
      <trkpt lat="43.55304" lon="4.00876">
        <ele>5.74</ele>
        <time>2019-05-31T08:49:32.000Z</time>
      </trkpt>
      <trkpt lat="43.55297" lon="4.00847">
        <ele>5.74</ele>
        <time>2019-05-31T08:49:37.000Z</time>
      </trkpt>
      <trkpt lat="43.55288" lon="4.00816">
        <ele>6.68</ele>
        <time>2019-05-31T08:49:42.000Z</time>
      </trkpt>
      <trkpt lat="43.5528" lon="4.00785">
        <ele>6.74</ele>
        <time>2019-05-31T08:49:47.000Z</time>
      </trkpt>
      <trkpt lat="43.55273" lon="4.00755">
        <ele>6.74</ele>
        <time>2019-05-31T08:49:52.000Z</time>
      </trkpt>
      <trkpt lat="43.55266" lon="4.00728">
        <ele>5.74</ele>
        <time>2019-05-31T08:49:57.000Z</time>
      </trkpt>
      <trkpt lat="43.5526" lon="4.00702">
        <ele>6.74</ele>
        <time>2019-05-31T08:50:02.000Z</time>
      </trkpt>
      <trkpt lat="43.55255" lon="4.00678">
        <ele>5.93</ele>
        <time>2019-05-31T08:50:07.000Z</time>
      </trkpt>
      <trkpt lat="43.55249" lon="4.00661">
        <ele>5.74</ele>
        <time>2019-05-31T08:50:12.000Z</time>
      </trkpt>
      <trkpt lat="43.55244" lon="4.00638">
        <ele>6.49</ele>
        <time>2019-05-31T08:50:17.000Z</time>
      </trkpt>
      <trkpt lat="43.55236" lon="4.00611">
        <ele>6.49</ele>
        <time>2019-05-31T08:50:22.000Z</time>
      </trkpt>
      <trkpt lat="43.55227" lon="4.00582">
        <ele>6.74</ele>
        <time>2019-05-31T08:50:27.000Z</time>
      </trkpt>
      <trkpt lat="43.5522" lon="4.00549">
        <ele>6.68</ele>
        <time>2019-05-31T08:50:32.000Z</time>
      </trkpt>
      <trkpt lat="43.55211" lon="4.00515">
        <ele>7.49</ele>
        <time>2019-05-31T08:50:37.000Z</time>
      </trkpt>
      <trkpt lat="43.55202" lon="4.00481">
        <ele>6.99</ele>
        <time>2019-05-31T08:50:42.000Z</time>
      </trkpt>
      <trkpt lat="43.55192" lon="4.00448">
        <ele>6.74</ele>
        <time>2019-05-31T08:50:47.000Z</time>
      </trkpt>
      <trkpt lat="43.55182" lon="4.00412">
        <ele>5.74</ele>
        <time>2019-05-31T08:50:52.000Z</time>
      </trkpt>
      <trkpt lat="43.55173" lon="4.00377">
        <ele>6.74</ele>
        <time>2019-05-31T08:50:57.000Z</time>
      </trkpt>
      <trkpt lat="43.55164" lon="4.00342">
        <ele>6.74</ele>
        <time>2019-05-31T08:51:02.000Z</time>
      </trkpt>
      <trkpt lat="43.55155" lon="4.00306">
        <ele>6.74</ele>
        <time>2019-05-31T08:51:07.000Z</time>
      </trkpt>
      <trkpt lat="43.55145" lon="4.00271">
        <ele>6.72</ele>
        <time>2019-05-31T08:51:12.000Z</time>
      </trkpt>
      <trkpt lat="43.55136" lon="4.00235">
        <ele>6.74</ele>
        <time>2019-05-31T08:51:17.000Z</time>
      </trkpt>
      <trkpt lat="43.55124" lon="4.00199">
        <ele>6.74</ele>
        <time>2019-05-31T08:51:22.000Z</time>
      </trkpt>
      <trkpt lat="43.55115" lon="4.00164">
        <ele>6.74</ele>
        <time>2019-05-31T08:51:27.000Z</time>
      </trkpt>
      <trkpt lat="43.55106" lon="4.00131">
        <ele>7.48</ele>
        <time>2019-05-31T08:51:32.000Z</time>
      </trkpt>
      <trkpt lat="43.55099" lon="4.00101">
        <ele>8.54</ele>
        <time>2019-05-31T08:51:37.000Z</time>
      </trkpt>
      <trkpt lat="43.55092" lon="4.00072">
        <ele>8.75</ele>
        <time>2019-05-31T08:51:42.000Z</time>
      </trkpt>
      <trkpt lat="43.55084" lon="4.0004">
        <ele>8.74</ele>
        <time>2019-05-31T08:51:47.000Z</time>
      </trkpt>
      <trkpt lat="43.55076" lon="4.00008">
        <ele>7.93</ele>
        <time>2019-05-31T08:51:52.000Z</time>
      </trkpt>
      <trkpt lat="43.55064" lon="3.99974">
        <ele>8.98</ele>
        <time>2019-05-31T08:51:57.000Z</time>
      </trkpt>
      <trkpt lat="43.55056" lon="3.99939">
        <ele>7</ele>
        <time>2019-05-31T08:52:02.000Z</time>
      </trkpt>
      <trkpt lat="43.55047" lon="3.99905">
        <ele>7.74</ele>
        <time>2019-05-31T08:52:07.000Z</time>
      </trkpt>
      <trkpt lat="43.55038" lon="3.99873">
        <ele>7.74</ele>
        <time>2019-05-31T08:52:12.000Z</time>
      </trkpt>
      <trkpt lat="43.55033" lon="3.99855">
        <ele>6.77</ele>
        <time>2019-05-31T08:52:17.000Z</time>
      </trkpt>
      <trkpt lat="43.55028" lon="3.99839">
        <ele>6.74</ele>
        <time>2019-05-31T08:52:22.000Z</time>
      </trkpt>
      <trkpt lat="43.55021" lon="3.99815">
        <ele>5.99</ele>
        <time>2019-05-31T08:52:27.000Z</time>
      </trkpt>
      <trkpt lat="43.55013" lon="3.99786">
        <ele>5.79</ele>
        <time>2019-05-31T08:52:32.000Z</time>
      </trkpt>
      <trkpt lat="43.55005" lon="3.99755">
        <ele>5.5</ele>
        <time>2019-05-31T08:52:37.000Z</time>
      </trkpt>
      <trkpt lat="43.54996" lon="3.99722">
        <ele>6.44</ele>
        <time>2019-05-31T08:52:42.000Z</time>
      </trkpt>
      <trkpt lat="43.54987" lon="3.99688">
        <ele>7.69</ele>
        <time>2019-05-31T08:52:47.000Z</time>
      </trkpt>
      <trkpt lat="43.54979" lon="3.99655">
        <ele>6.75</ele>
        <time>2019-05-31T08:52:52.000Z</time>
      </trkpt>
      <trkpt lat="43.54969" lon="3.99622">
        <ele>7.5</ele>
        <time>2019-05-31T08:52:57.000Z</time>
      </trkpt>
      <trkpt lat="43.54961" lon="3.99596">
        <ele>7.74</ele>
        <time>2019-05-31T08:53:02.000Z</time>
      </trkpt>
      <trkpt lat="43.54958" lon="3.99583">
        <ele>9.67</ele>
        <time>2019-05-31T08:53:08.000Z</time>
      </trkpt>
      <trkpt lat="43.54955" lon="3.99569">
        <ele>8.8</ele>
        <time>2019-05-31T08:53:13.000Z</time>
      </trkpt>
      <trkpt lat="43.54957" lon="3.99543">
        <ele>8.74</ele>
        <time>2019-05-31T08:53:18.000Z</time>
      </trkpt>
      <trkpt lat="43.54946" lon="3.99514">
        <ele>8.55</ele>
        <time>2019-05-31T08:53:23.000Z</time>
      </trkpt>
      <trkpt lat="43.54936" lon="3.99479">
        <ele>7.74</ele>
        <time>2019-05-31T08:53:28.000Z</time>
      </trkpt>
      <trkpt lat="43.54929" lon="3.99454">
        <ele>6.99</ele>
        <time>2019-05-31T08:53:33.000Z</time>
      </trkpt>
      <trkpt lat="43.54924" lon="3.99441">
        <ele>6.74</ele>
        <time>2019-05-31T08:53:38.000Z</time>
      </trkpt>
      <trkpt lat="43.54916" lon="3.99414">
        <ele>6.68</ele>
        <time>2019-05-31T08:53:43.000Z</time>
      </trkpt>
      <trkpt lat="43.54908" lon="3.99382">
        <ele>6.49</ele>
        <time>2019-05-31T08:53:48.000Z</time>
      </trkpt>
      <trkpt lat="43.54901" lon="3.99348">
        <ele>6.69</ele>
        <time>2019-05-31T08:53:53.000Z</time>
      </trkpt>
      <trkpt lat="43.54892" lon="3.99313">
        <ele>5.99</ele>
        <time>2019-05-31T08:53:58.000Z</time>
      </trkpt>
      <trkpt lat="43.54882" lon="3.99278">
        <ele>4.8</ele>
        <time>2019-05-31T08:54:03.000Z</time>
      </trkpt>
      <trkpt lat="43.54873" lon="3.99246">
        <ele>4.73</ele>
        <time>2019-05-31T08:54:08.000Z</time>
      </trkpt>
      <trkpt lat="43.54862" lon="3.99209">
        <ele>4.74</ele>
        <time>2019-05-31T08:54:13.000Z</time>
      </trkpt>
      <trkpt lat="43.54853" lon="3.99176">
        <ele>5.74</ele>
        <time>2019-05-31T08:54:18.000Z</time>
      </trkpt>
      <trkpt lat="43.54849" lon="3.99149">
        <ele>5.74</ele>
        <time>2019-05-31T08:54:23.000Z</time>
      </trkpt>
      <trkpt lat="43.5484" lon="3.99119">
        <ele>6.55</ele>
        <time>2019-05-31T08:54:28.000Z</time>
      </trkpt>
      <trkpt lat="43.54831" lon="3.99086">
        <ele>6.74</ele>
        <time>2019-05-31T08:54:33.000Z</time>
      </trkpt>
      <trkpt lat="43.5482" lon="3.99057">
        <ele>6.49</ele>
        <time>2019-05-31T08:54:38.000Z</time>
      </trkpt>
      <trkpt lat="43.54812" lon="3.99026">
        <ele>6.78</ele>
        <time>2019-05-31T08:54:43.000Z</time>
      </trkpt>
      <trkpt lat="43.54804" lon="3.98994">
        <ele>7.67</ele>
        <time>2019-05-31T08:54:48.000Z</time>
      </trkpt>
      <trkpt lat="43.54796" lon="3.9896">
        <ele>6.74</ele>
        <time>2019-05-31T08:54:53.000Z</time>
      </trkpt>
      <trkpt lat="43.54786" lon="3.98925">
        <ele>5.8</ele>
        <time>2019-05-31T08:54:58.000Z</time>
      </trkpt>
      <trkpt lat="43.54777" lon="3.98893">
        <ele>6.68</ele>
        <time>2019-05-31T08:55:03.000Z</time>
      </trkpt>
      <trkpt lat="43.54768" lon="3.98868">
        <ele>5.74</ele>
        <time>2019-05-31T08:55:08.000Z</time>
      </trkpt>
      <trkpt lat="43.54759" lon="3.98839">
        <ele>5.75</ele>
        <time>2019-05-31T08:55:13.000Z</time>
      </trkpt>
      <trkpt lat="43.54751" lon="3.98807">
        <ele>5.74</ele>
        <time>2019-05-31T08:55:18.000Z</time>
      </trkpt>
      <trkpt lat="43.54744" lon="3.98773">
        <ele>6.49</ele>
        <time>2019-05-31T08:55:23.000Z</time>
      </trkpt>
      <trkpt lat="43.54735" lon="3.9874">
        <ele>6.55</ele>
        <time>2019-05-31T08:55:28.000Z</time>
      </trkpt>
      <trkpt lat="43.54727" lon="3.98707">
        <ele>6.74</ele>
        <time>2019-05-31T08:55:33.000Z</time>
      </trkpt>
      <trkpt lat="43.54713" lon="3.98676">
        <ele>6.79</ele>
        <time>2019-05-31T08:55:38.000Z</time>
      </trkpt>
      <trkpt lat="43.54702" lon="3.98644">
        <ele>6.74</ele>
        <time>2019-05-31T08:55:43.000Z</time>
      </trkpt>
      <trkpt lat="43.54691" lon="3.98611">
        <ele>6.92</ele>
        <time>2019-05-31T08:55:48.000Z</time>
      </trkpt>
      <trkpt lat="43.54686" lon="3.98584">
        <ele>7.49</ele>
        <time>2019-05-31T08:55:53.000Z</time>
      </trkpt>
      <trkpt lat="43.54674" lon="3.98554">
        <ele>8.73</ele>
        <time>2019-05-31T08:55:58.000Z</time>
      </trkpt>
      <trkpt lat="43.54662" lon="3.98524">
        <ele>7.8</ele>
        <time>2019-05-31T08:56:03.000Z</time>
      </trkpt>
      <trkpt lat="43.54652" lon="3.98492">
        <ele>7.74</ele>
        <time>2019-05-31T08:56:08.000Z</time>
      </trkpt>
      <trkpt lat="43.54641" lon="3.98459">
        <ele>6.8</ele>
        <time>2019-05-31T08:56:13.000Z</time>
      </trkpt>
      <trkpt lat="43.54629" lon="3.98427">
        <ele>4.8</ele>
        <time>2019-05-31T08:56:18.000Z</time>
      </trkpt>
      <trkpt lat="43.54621" lon="3.98397">
        <ele>5.93</ele>
        <time>2019-05-31T08:56:23.000Z</time>
      </trkpt>
      <trkpt lat="43.5461" lon="3.98369">
        <ele>6.49</ele>
        <time>2019-05-31T08:56:28.000Z</time>
      </trkpt>
      <trkpt lat="43.54598" lon="3.98338">
        <ele>6.73</ele>
        <time>2019-05-31T08:56:33.000Z</time>
      </trkpt>
      <trkpt lat="43.54589" lon="3.98303">
        <ele>5.74</ele>
        <time>2019-05-31T08:56:38.000Z</time>
      </trkpt>
      <trkpt lat="43.54575" lon="3.98268">
        <ele>5.78</ele>
        <time>2019-05-31T08:56:43.000Z</time>
      </trkpt>
      <trkpt lat="43.54564" lon="3.98234">
        <ele>4.94</ele>
        <time>2019-05-31T08:56:48.000Z</time>
      </trkpt>
      <trkpt lat="43.54552" lon="3.98203">
        <ele>3.75</ele>
        <time>2019-05-31T08:56:53.000Z</time>
      </trkpt>
      <trkpt lat="43.54543" lon="3.98173">
        <ele>5.73</ele>
        <time>2019-05-31T08:56:58.000Z</time>
      </trkpt>
      <trkpt lat="43.54535" lon="3.98146">
        <ele>6.49</ele>
        <time>2019-05-31T08:57:03.000Z</time>
      </trkpt>
      <trkpt lat="43.54526" lon="3.98118">
        <ele>6.73</ele>
        <time>2019-05-31T08:57:08.000Z</time>
      </trkpt>
      <trkpt lat="43.54514" lon="3.98087">
        <ele>7.73</ele>
        <time>2019-05-31T08:57:13.000Z</time>
      </trkpt>
      <trkpt lat="43.54506" lon="3.98056">
        <ele>8.48</ele>
        <time>2019-05-31T08:57:18.000Z</time>
      </trkpt>
      <trkpt lat="43.54494" lon="3.98025">
        <ele>8.98</ele>
        <time>2019-05-31T08:57:23.000Z</time>
      </trkpt>
      <trkpt lat="43.54484" lon="3.97992">
        <ele>9.69</ele>
        <time>2019-05-31T08:57:28.000Z</time>
      </trkpt>
      <trkpt lat="43.54471" lon="3.97957">
        <ele>8.8</ele>
        <time>2019-05-31T08:57:33.000Z</time>
      </trkpt>
      <trkpt lat="43.5446" lon="3.97925">
        <ele>6.8</ele>
        <time>2019-05-31T08:57:38.000Z</time>
      </trkpt>
      <trkpt lat="43.54451" lon="3.97893">
        <ele>5.98</ele>
        <time>2019-05-31T08:57:43.000Z</time>
      </trkpt>
      <trkpt lat="43.54438" lon="3.9786">
        <ele>5.8</ele>
        <time>2019-05-31T08:57:48.000Z</time>
      </trkpt>
      <trkpt lat="43.54428" lon="3.97827">
        <ele>5.73</ele>
        <time>2019-05-31T08:57:53.000Z</time>
      </trkpt>
      <trkpt lat="43.54418" lon="3.97795">
        <ele>7.48</ele>
        <time>2019-05-31T08:57:58.000Z</time>
      </trkpt>
      <trkpt lat="43.54407" lon="3.97766">
        <ele>6.92</ele>
        <time>2019-05-31T08:58:03.000Z</time>
      </trkpt>
      <trkpt lat="43.54398" lon="3.97742">
        <ele>6.8</ele>
        <time>2019-05-31T08:58:08.000Z</time>
      </trkpt>
      <trkpt lat="43.54389" lon="3.97713">
        <ele>5.55</ele>
        <time>2019-05-31T08:58:13.000Z</time>
      </trkpt>
      <trkpt lat="43.54381" lon="3.97684">
        <ele>5.68</ele>
        <time>2019-05-31T08:58:18.000Z</time>
      </trkpt>
      <trkpt lat="43.54374" lon="3.97665">
        <ele>7.48</ele>
        <time>2019-05-31T08:58:23.000Z</time>
      </trkpt>
      <trkpt lat="43.54368" lon="3.97645">
        <ele>6.73</ele>
        <time>2019-05-31T08:58:28.000Z</time>
      </trkpt>
      <trkpt lat="43.5436" lon="3.97621">
        <ele>5.75</ele>
        <time>2019-05-31T08:58:33.000Z</time>
      </trkpt>
      <trkpt lat="43.54351" lon="3.97595">
        <ele>5.73</ele>
        <time>2019-05-31T08:58:38.000Z</time>
      </trkpt>
      <trkpt lat="43.54343" lon="3.97567">
        <ele>5.73</ele>
        <time>2019-05-31T08:58:43.000Z</time>
      </trkpt>
      <trkpt lat="43.54334" lon="3.9754">
        <ele>6.73</ele>
        <time>2019-05-31T08:58:48.000Z</time>
      </trkpt>
      <trkpt lat="43.54324" lon="3.97515">
        <ele>7.72</ele>
        <time>2019-05-31T08:58:53.000Z</time>
      </trkpt>
      <trkpt lat="43.54318" lon="3.97493">
        <ele>7.67</ele>
        <time>2019-05-31T08:58:58.000Z</time>
      </trkpt>
      <trkpt lat="43.54317" lon="3.97478">
        <ele>6</ele>
        <time>2019-05-31T08:59:05.000Z</time>
      </trkpt>
      <trkpt lat="43.5432" lon="3.97491">
        <ele>4.73</ele>
        <time>2019-05-31T09:00:13.000Z</time>
      </trkpt>
      <trkpt lat="43.54311" lon="3.97488">
        <ele>3.75</ele>
        <time>2019-05-31T09:30:00.000Z</time>
      </trkpt>
      <trkpt lat="43.54323" lon="3.97473">
        <ele>5.47</ele>
        <time>2019-05-31T09:30:05.000Z</time>
      </trkpt>
      <trkpt lat="43.5434" lon="3.9746">
        <ele>7.47</ele>
        <time>2019-05-31T09:30:10.000Z</time>
      </trkpt>
      <trkpt lat="43.54358" lon="3.97447">
        <ele>8.92</ele>
        <time>2019-05-31T09:30:15.000Z</time>
      </trkpt>
      <trkpt lat="43.54377" lon="3.97436">
        <ele>10.67</ele>
        <time>2019-05-31T09:30:20.000Z</time>
      </trkpt>
      <trkpt lat="43.54401" lon="3.97428">
        <ele>10.74</ele>
        <time>2019-05-31T09:30:25.000Z</time>
      </trkpt>
      <trkpt lat="43.54422" lon="3.97441">
        <ele>9.98</ele>
        <time>2019-05-31T09:30:30.000Z</time>
      </trkpt>
      <trkpt lat="43.54436" lon="3.97459">
        <ele>7.5</ele>
        <time>2019-05-31T09:30:35.000Z</time>
      </trkpt>
      <trkpt lat="43.54437" lon="3.97474">
        <ele>7.74</ele>
        <time>2019-05-31T09:30:50.000Z</time>
      </trkpt>
      <trkpt lat="43.54441" lon="3.97493">
        <ele>6.5</ele>
        <time>2019-05-31T09:30:55.000Z</time>
      </trkpt>
      <trkpt lat="43.54448" lon="3.97521">
        <ele>4.99</ele>
        <time>2019-05-31T09:31:00.000Z</time>
      </trkpt>
      <trkpt lat="43.54457" lon="3.97551">
        <ele>4.73</ele>
        <time>2019-05-31T09:31:05.000Z</time>
      </trkpt>
      <trkpt lat="43.54468" lon="3.97581">
        <ele>6.72</ele>
        <time>2019-05-31T09:31:10.000Z</time>
      </trkpt>
      <trkpt lat="43.54479" lon="3.976">
        <ele>8.65</ele>
        <time>2019-05-31T09:31:15.000Z</time>
      </trkpt>
      <trkpt lat="43.54483" lon="3.97628">
        <ele>8.54</ele>
        <time>2019-05-31T09:31:20.000Z</time>
      </trkpt>
      <trkpt lat="43.54491" lon="3.97657">
        <ele>7.92</ele>
        <time>2019-05-31T09:31:25.000Z</time>
      </trkpt>
      <trkpt lat="43.54505" lon="3.97688">
        <ele>6.8</ele>
        <time>2019-05-31T09:31:30.000Z</time>
      </trkpt>
      <trkpt lat="43.54516" lon="3.97722">
        <ele>7.67</ele>
        <time>2019-05-31T09:31:35.000Z</time>
      </trkpt>
      <trkpt lat="43.54529" lon="3.97756">
        <ele>6.74</ele>
        <time>2019-05-31T09:31:40.000Z</time>
      </trkpt>
      <trkpt lat="43.5454" lon="3.9779">
        <ele>4.75</ele>
        <time>2019-05-31T09:31:45.000Z</time>
      </trkpt>
      <trkpt lat="43.54553" lon="3.97822">
        <ele>5.73</ele>
        <time>2019-05-31T09:31:50.000Z</time>
      </trkpt>
      <trkpt lat="43.54576" lon="3.97842">
        <ele>8.67</ele>
        <time>2019-05-31T09:31:55.000Z</time>
      </trkpt>
      <trkpt lat="43.54602" lon="3.97857">
        <ele>11.65</ele>
        <time>2019-05-31T09:32:00.000Z</time>
      </trkpt>
      <trkpt lat="43.54628" lon="3.9787">
        <ele>12.73</ele>
        <time>2019-05-31T09:32:05.000Z</time>
      </trkpt>
      <trkpt lat="43.54648" lon="3.97879">
        <ele>11.98</ele>
        <time>2019-05-31T09:32:10.000Z</time>
      </trkpt>
      <trkpt lat="43.54665" lon="3.97887">
        <ele>9.81</ele>
        <time>2019-05-31T09:32:15.000Z</time>
      </trkpt>
      <trkpt lat="43.54686" lon="3.97899">
        <ele>8.79</ele>
        <time>2019-05-31T09:32:20.000Z</time>
      </trkpt>
      <trkpt lat="43.54709" lon="3.97912">
        <ele>10.72</ele>
        <time>2019-05-31T09:32:25.000Z</time>
      </trkpt>
      <trkpt lat="43.54734" lon="3.97926">
        <ele>8.75</ele>
        <time>2019-05-31T09:32:30.000Z</time>
      </trkpt>
      <trkpt lat="43.54763" lon="3.97938">
        <ele>8.72</ele>
        <time>2019-05-31T09:32:35.000Z</time>
      </trkpt>
      <trkpt lat="43.54788" lon="3.97947">
        <ele>8.79</ele>
        <time>2019-05-31T09:32:40.000Z</time>
      </trkpt>
      <trkpt lat="43.5481" lon="3.97958">
        <ele>9.73</ele>
        <time>2019-05-31T09:32:45.000Z</time>
      </trkpt>
      <trkpt lat="43.54822" lon="3.97962">
        <ele>7.98</ele>
        <time>2019-05-31T09:32:50.000Z</time>
      </trkpt>
      <trkpt lat="43.54831" lon="3.97938">
        <ele>6.98</ele>
        <time>2019-05-31T09:32:55.000Z</time>
      </trkpt>
      <trkpt lat="43.54837" lon="3.97908">
        <ele>5.98</ele>
        <time>2019-05-31T09:33:00.000Z</time>
      </trkpt>
      <trkpt lat="43.54844" lon="3.97874">
        <ele>4.84</ele>
        <time>2019-05-31T09:33:05.000Z</time>
      </trkpt>
      <trkpt lat="43.54854" lon="3.9784">
        <ele>5.92</ele>
        <time>2019-05-31T09:33:10.000Z</time>
      </trkpt>
      <trkpt lat="43.54863" lon="3.97807">
        <ele>5.78</ele>
        <time>2019-05-31T09:33:15.000Z</time>
      </trkpt>
      <trkpt lat="43.54865" lon="3.97773">
        <ele>4.73</ele>
        <time>2019-05-31T09:33:20.000Z</time>
      </trkpt>
      <trkpt lat="43.54865" lon="3.97735">
        <ele>5.73</ele>
        <time>2019-05-31T09:33:25.000Z</time>
      </trkpt>
      <trkpt lat="43.54862" lon="3.97697">
        <ele>5.73</ele>
        <time>2019-05-31T09:33:30.000Z</time>
      </trkpt>
      <trkpt lat="43.54856" lon="3.9766">
        <ele>7.47</ele>
        <time>2019-05-31T09:33:35.000Z</time>
      </trkpt>
      <trkpt lat="43.54844" lon="3.97625">
        <ele>8.84</ele>
        <time>2019-05-31T09:33:40.000Z</time>
      </trkpt>
      <trkpt lat="43.54831" lon="3.97589">
        <ele>5.98</ele>
        <time>2019-05-31T09:33:45.000Z</time>
      </trkpt>
      <trkpt lat="43.54818" lon="3.97553">
        <ele>5.73</ele>
        <time>2019-05-31T09:33:50.000Z</time>
      </trkpt>
      <trkpt lat="43.54806" lon="3.97516">
        <ele>7.71</ele>
        <time>2019-05-31T09:33:55.000Z</time>
      </trkpt>
      <trkpt lat="43.54793" lon="3.97478">
        <ele>7.73</ele>
        <time>2019-05-31T09:34:00.000Z</time>
      </trkpt>
      <trkpt lat="43.54785" lon="3.97456">
        <ele>10.4</ele>
        <time>2019-05-31T09:34:05.000Z</time>
      </trkpt>
      <trkpt lat="43.54778" lon="3.97444">
        <ele>12.75</ele>
        <time>2019-05-31T09:34:12.000Z</time>
      </trkpt>
      <trkpt lat="43.54772" lon="3.97417">
        <ele>11.73</ele>
        <time>2019-05-31T09:34:17.000Z</time>
      </trkpt>
      <trkpt lat="43.54762" lon="3.97385">
        <ele>10.79</ele>
        <time>2019-05-31T09:34:22.000Z</time>
      </trkpt>
      <trkpt lat="43.54752" lon="3.97354">
        <ele>8.74</ele>
        <time>2019-05-31T09:34:27.000Z</time>
      </trkpt>
      <trkpt lat="43.54742" lon="3.97321">
        <ele>7.98</ele>
        <time>2019-05-31T09:34:32.000Z</time>
      </trkpt>
      <trkpt lat="43.54732" lon="3.9729">
        <ele>6.74</ele>
        <time>2019-05-31T09:34:37.000Z</time>
      </trkpt>
      <trkpt lat="43.54721" lon="3.9726">
        <ele>7.48</ele>
        <time>2019-05-31T09:34:42.000Z</time>
      </trkpt>
      <trkpt lat="43.54707" lon="3.97232">
        <ele>6.98</ele>
        <time>2019-05-31T09:34:47.000Z</time>
      </trkpt>
      <trkpt lat="43.54682" lon="3.97219">
        <ele>7.54</ele>
        <time>2019-05-31T09:34:52.000Z</time>
      </trkpt>
      <trkpt lat="43.54657" lon="3.97208">
        <ele>7.96</ele>
        <time>2019-05-31T09:34:57.000Z</time>
      </trkpt>
      <trkpt lat="43.54645" lon="3.97186">
        <ele>8.74</ele>
        <time>2019-05-31T09:35:02.000Z</time>
      </trkpt>
      <trkpt lat="43.54665" lon="3.9716">
        <ele>6.78</ele>
        <time>2019-05-31T09:35:07.000Z</time>
      </trkpt>
      <trkpt lat="43.5469" lon="3.97144">
        <ele>4.92</ele>
        <time>2019-05-31T09:35:12.000Z</time>
      </trkpt>
      <trkpt lat="43.54713" lon="3.97144">
        <ele>6.27</ele>
        <time>2019-05-31T09:35:17.000Z</time>
      </trkpt>
      <trkpt lat="43.54735" lon="3.97131">
        <ele>7.72</ele>
        <time>2019-05-31T09:35:22.000Z</time>
      </trkpt>
      <trkpt lat="43.54753" lon="3.97115">
        <ele>8.66</ele>
        <time>2019-05-31T09:35:27.000Z</time>
      </trkpt>
      <trkpt lat="43.54758" lon="3.97093">
        <ele>7.5</ele>
        <time>2019-05-31T09:35:32.000Z</time>
      </trkpt>
      <trkpt lat="43.54752" lon="3.97077">
        <ele>7.73</ele>
        <time>2019-05-31T09:35:37.000Z</time>
      </trkpt>
      <trkpt lat="43.54745" lon="3.97063">
        <ele>7.68</ele>
        <time>2019-05-31T09:35:42.000Z</time>
      </trkpt>
      <trkpt lat="43.54738" lon="3.97046">
        <ele>6.79</ele>
        <time>2019-05-31T09:35:47.000Z</time>
      </trkpt>
      <trkpt lat="43.54731" lon="3.97037">
        <ele>4.98</ele>
        <time>2019-05-31T09:35:53.000Z</time>
      </trkpt>
      <trkpt lat="43.54721" lon="3.97035">
        <ele>2.48</ele>
        <time>2019-05-31T09:36:15.000Z</time>
      </trkpt>
      <trkpt lat="43.54706" lon="3.97054">
        <ele>1.73</ele>
        <time>2019-05-31T09:36:20.000Z</time>
      </trkpt>
      <trkpt lat="43.54687" lon="3.97076">
        <ele>1.73</ele>
        <time>2019-05-31T09:36:25.000Z</time>
      </trkpt>
      <trkpt lat="43.5467" lon="3.97097">
        <ele>2.85</ele>
        <time>2019-05-31T09:36:30.000Z</time>
      </trkpt>
      <trkpt lat="43.54651" lon="3.97118">
        <ele>2.71</ele>
        <time>2019-05-31T09:36:35.000Z</time>
      </trkpt>
      <trkpt lat="43.5463" lon="3.9714">
        <ele>0.98</ele>
        <time>2019-05-31T09:36:40.000Z</time>
      </trkpt>
      <trkpt lat="43.5461" lon="3.97156">
        <ele>2.42</ele>
        <time>2019-05-31T09:36:45.000Z</time>
      </trkpt>
      <trkpt lat="43.54587" lon="3.97147">
        <ele>2.78</ele>
        <time>2019-05-31T09:36:50.000Z</time>
      </trkpt>
      <trkpt lat="43.54576" lon="3.9713">
        <ele>4.96</ele>
        <time>2019-05-31T09:36:55.000Z</time>
      </trkpt>
      <trkpt lat="43.54565" lon="3.97113">
        <ele>5.48</ele>
        <time>2019-05-31T09:37:00.000Z</time>
      </trkpt>
      <trkpt lat="43.54548" lon="3.97097">
        <ele>4.73</ele>
        <time>2019-05-31T09:37:05.000Z</time>
      </trkpt>
      <trkpt lat="43.54538" lon="3.9708">
        <ele>3.79</ele>
        <time>2019-05-31T09:37:10.000Z</time>
      </trkpt>
      <trkpt lat="43.54526" lon="3.97054">
        <ele>1.98</ele>
        <time>2019-05-31T09:37:15.000Z</time>
      </trkpt>
      <trkpt lat="43.54507" lon="3.97029">
        <ele>2.78</ele>
        <time>2019-05-31T09:37:20.000Z</time>
      </trkpt>
      <trkpt lat="43.54489" lon="3.97001">
        <ele>2.73</ele>
        <time>2019-05-31T09:37:25.000Z</time>
      </trkpt>
      <trkpt lat="43.54471" lon="3.96969">
        <ele>1.04</ele>
        <time>2019-05-31T09:37:30.000Z</time>
      </trkpt>
      <trkpt lat="43.54455" lon="3.96936">
        <ele>1.92</ele>
        <time>2019-05-31T09:37:35.000Z</time>
      </trkpt>
      <trkpt lat="43.54438" lon="3.96901">
        <ele>1.98</ele>
        <time>2019-05-31T09:37:40.000Z</time>
      </trkpt>
      <trkpt lat="43.54415" lon="3.96876">
        <ele>2.73</ele>
        <time>2019-05-31T09:37:45.000Z</time>
      </trkpt>
      <trkpt lat="43.54392" lon="3.96868">
        <ele>3.43</ele>
        <time>2019-05-31T09:37:50.000Z</time>
      </trkpt>
      <trkpt lat="43.54389" lon="3.96856">
        <ele>2.79</ele>
        <time>2019-05-31T09:38:00.000Z</time>
      </trkpt>
      <trkpt lat="43.54387" lon="3.96835">
        <ele>3.49</ele>
        <time>2019-05-31T09:38:05.000Z</time>
      </trkpt>
      <trkpt lat="43.544" lon="3.96807">
        <ele>3.74</ele>
        <time>2019-05-31T09:38:10.000Z</time>
      </trkpt>
      <trkpt lat="43.54397" lon="3.96771">
        <ele>2.73</ele>
        <time>2019-05-31T09:38:15.000Z</time>
      </trkpt>
      <trkpt lat="43.54387" lon="3.96731">
        <ele>2.73</ele>
        <time>2019-05-31T09:38:20.000Z</time>
      </trkpt>
      <trkpt lat="43.54377" lon="3.96691">
        <ele>1.73</ele>
        <time>2019-05-31T09:38:25.000Z</time>
      </trkpt>
      <trkpt lat="43.54362" lon="3.96656">
        <ele>1.73</ele>
        <time>2019-05-31T09:38:30.000Z</time>
      </trkpt>
      <trkpt lat="43.54347" lon="3.96627">
        <ele>0.73</ele>
        <time>2019-05-31T09:38:35.000Z</time>
      </trkpt>
      <trkpt lat="43.54346" lon="3.9659">
        <ele>0.73</ele>
        <time>2019-05-31T09:38:40.000Z</time>
      </trkpt>
      <trkpt lat="43.54339" lon="3.96553">
        <ele>0.73</ele>
        <time>2019-05-31T09:38:45.000Z</time>
      </trkpt>
      <trkpt lat="43.54328" lon="3.96514">
        <ele>0.73</ele>
        <time>2019-05-31T09:38:50.000Z</time>
      </trkpt>
      <trkpt lat="43.54315" lon="3.96474">
        <ele>0.97</ele>
        <time>2019-05-31T09:38:55.000Z</time>
      </trkpt>
      <trkpt lat="43.54304" lon="3.96432">
        <ele>1.72</ele>
        <time>2019-05-31T09:39:00.000Z</time>
      </trkpt>
      <trkpt lat="43.5429" lon="3.9639">
        <ele>1.73</ele>
        <time>2019-05-31T09:39:05.000Z</time>
      </trkpt>
      <trkpt lat="43.54277" lon="3.96347">
        <ele>2.9</ele>
        <time>2019-05-31T09:39:10.000Z</time>
      </trkpt>
      <trkpt lat="43.54263" lon="3.96304">
        <ele>2.73</ele>
        <time>2019-05-31T09:39:15.000Z</time>
      </trkpt>
      <trkpt lat="43.54249" lon="3.96262">
        <ele>2.72</ele>
        <time>2019-05-31T09:39:20.000Z</time>
      </trkpt>
      <trkpt lat="43.54234" lon="3.9622">
        <ele>2.73</ele>
        <time>2019-05-31T09:39:25.000Z</time>
      </trkpt>
      <trkpt lat="43.5422" lon="3.96178">
        <ele>2.73</ele>
        <time>2019-05-31T09:39:30.000Z</time>
      </trkpt>
      <trkpt lat="43.54206" lon="3.96137">
        <ele>3.71</ele>
        <time>2019-05-31T09:39:35.000Z</time>
      </trkpt>
      <trkpt lat="43.54192" lon="3.96096">
        <ele>2.74</ele>
        <time>2019-05-31T09:39:40.000Z</time>
      </trkpt>
      <trkpt lat="43.54177" lon="3.96055">
        <ele>2.73</ele>
        <time>2019-05-31T09:39:45.000Z</time>
      </trkpt>
      <trkpt lat="43.54162" lon="3.96014">
        <ele>3.72</ele>
        <time>2019-05-31T09:39:50.000Z</time>
      </trkpt>
      <trkpt lat="43.54146" lon="3.95973">
        <ele>3.73</ele>
        <time>2019-05-31T09:39:55.000Z</time>
      </trkpt>
      <trkpt lat="43.54129" lon="3.95932">
        <ele>3.97</ele>
        <time>2019-05-31T09:40:00.000Z</time>
      </trkpt>
      <trkpt lat="43.54113" lon="3.95889">
        <ele>3.73</ele>
        <time>2019-05-31T09:40:05.000Z</time>
      </trkpt>
      <trkpt lat="43.54096" lon="3.95848">
        <ele>0.79</ele>
        <time>2019-05-31T09:40:10.000Z</time>
      </trkpt>
      <trkpt lat="43.54079" lon="3.95804">
        <ele>1.72</ele>
        <time>2019-05-31T09:40:15.000Z</time>
      </trkpt>
      <trkpt lat="43.54061" lon="3.9576">
        <ele>1.73</ele>
        <time>2019-05-31T09:40:20.000Z</time>
      </trkpt>
      <trkpt lat="43.54044" lon="3.95717">
        <ele>3.9</ele>
        <time>2019-05-31T09:40:25.000Z</time>
      </trkpt>
      <trkpt lat="43.54026" lon="3.95675">
        <ele>4.48</ele>
        <time>2019-05-31T09:40:30.000Z</time>
      </trkpt>
      <trkpt lat="43.5401" lon="3.95632">
        <ele>2.98</ele>
        <time>2019-05-31T09:40:35.000Z</time>
      </trkpt>
      <trkpt lat="43.53992" lon="3.95589">
        <ele>3.72</ele>
        <time>2019-05-31T09:40:40.000Z</time>
      </trkpt>
      <trkpt lat="43.53974" lon="3.95547">
        <ele>3.73</ele>
        <time>2019-05-31T09:40:45.000Z</time>
      </trkpt>
      <trkpt lat="43.53958" lon="3.95508">
        <ele>2.73</ele>
        <time>2019-05-31T09:40:50.000Z</time>
      </trkpt>
      <trkpt lat="43.5394" lon="3.95467">
        <ele>2.73</ele>
        <time>2019-05-31T09:40:55.000Z</time>
      </trkpt>
      <trkpt lat="43.53924" lon="3.95428">
        <ele>1.74</ele>
        <time>2019-05-31T09:41:00.000Z</time>
      </trkpt>
      <trkpt lat="43.53908" lon="3.95389">
        <ele>1.91</ele>
        <time>2019-05-31T09:41:05.000Z</time>
      </trkpt>
      <trkpt lat="43.5389" lon="3.95347">
        <ele>2.68</ele>
        <time>2019-05-31T09:41:10.000Z</time>
      </trkpt>
      <trkpt lat="43.53873" lon="3.95306">
        <ele>1.74</ele>
        <time>2019-05-31T09:41:15.000Z</time>
      </trkpt>
      <trkpt lat="43.53857" lon="3.95265">
        <ele>1.9</ele>
        <time>2019-05-31T09:41:20.000Z</time>
      </trkpt>
      <trkpt lat="43.5384" lon="3.95224">
        <ele>1.54</ele>
        <time>2019-05-31T09:41:25.000Z</time>
      </trkpt>
      <trkpt lat="43.53824" lon="3.95183">
        <ele>1.73</ele>
        <time>2019-05-31T09:41:30.000Z</time>
      </trkpt>
      <trkpt lat="43.53808" lon="3.95141">
        <ele>1</ele>
        <time>2019-05-31T09:41:35.000Z</time>
      </trkpt>
      <trkpt lat="43.53793" lon="3.95103">
        <ele>1.72</ele>
        <time>2019-05-31T09:41:40.000Z</time>
      </trkpt>
      <trkpt lat="43.53776" lon="3.95053">
        <ele>1.73</ele>
        <time>2019-05-31T09:41:46.000Z</time>
      </trkpt>
      <trkpt lat="43.53761" lon="3.95013">
        <ele>2.54</ele>
        <time>2019-05-31T09:41:51.000Z</time>
      </trkpt>
      <trkpt lat="43.53742" lon="3.94974">
        <ele>2.48</ele>
        <time>2019-05-31T09:41:56.000Z</time>
      </trkpt>
      <trkpt lat="43.53725" lon="3.94937">
        <ele>3.66</ele>
        <time>2019-05-31T09:42:01.000Z</time>
      </trkpt>
      <trkpt lat="43.53709" lon="3.94898">
        <ele>2.74</ele>
        <time>2019-05-31T09:42:06.000Z</time>
      </trkpt>
      <trkpt lat="43.53693" lon="3.94858">
        <ele>3.66</ele>
        <time>2019-05-31T09:42:11.000Z</time>
      </trkpt>
      <trkpt lat="43.53677" lon="3.94818">
        <ele>4.73</ele>
        <time>2019-05-31T09:42:16.000Z</time>
      </trkpt>
      <trkpt lat="43.53661" lon="3.94778">
        <ele>4.73</ele>
        <time>2019-05-31T09:42:21.000Z</time>
      </trkpt>
      <trkpt lat="43.53644" lon="3.94736">
        <ele>4.73</ele>
        <time>2019-05-31T09:42:26.000Z</time>
      </trkpt>
      <trkpt lat="43.53627" lon="3.94694">
        <ele>4.73</ele>
        <time>2019-05-31T09:42:31.000Z</time>
      </trkpt>
      <trkpt lat="43.53609" lon="3.94651">
        <ele>4.73</ele>
        <time>2019-05-31T09:42:36.000Z</time>
      </trkpt>
      <trkpt lat="43.53591" lon="3.94607">
        <ele>3.74</ele>
        <time>2019-05-31T09:42:41.000Z</time>
      </trkpt>
      <trkpt lat="43.53573" lon="3.94563">
        <ele>2.74</ele>
        <time>2019-05-31T09:42:46.000Z</time>
      </trkpt>
      <trkpt lat="43.53556" lon="3.94521">
        <ele>2.73</ele>
        <time>2019-05-31T09:42:51.000Z</time>
      </trkpt>
      <trkpt lat="43.5354" lon="3.94479">
        <ele>2.73</ele>
        <time>2019-05-31T09:42:56.000Z</time>
      </trkpt>
      <trkpt lat="43.53526" lon="3.94436">
        <ele>3.73</ele>
        <time>2019-05-31T09:43:01.000Z</time>
      </trkpt>
      <trkpt lat="43.53513" lon="3.94392">
        <ele>2.79</ele>
        <time>2019-05-31T09:43:06.000Z</time>
      </trkpt>
      <trkpt lat="43.53501" lon="3.94347">
        <ele>2.49</ele>
        <time>2019-05-31T09:43:11.000Z</time>
      </trkpt>
      <trkpt lat="43.53491" lon="3.94302">
        <ele>1.91</ele>
        <time>2019-05-31T09:43:16.000Z</time>
      </trkpt>
      <trkpt lat="43.53481" lon="3.94257">
        <ele>1.98</ele>
        <time>2019-05-31T09:43:21.000Z</time>
      </trkpt>
      <trkpt lat="43.53475" lon="3.94211">
        <ele>2.52</ele>
        <time>2019-05-31T09:43:26.000Z</time>
      </trkpt>
      <trkpt lat="43.5347" lon="3.94165">
        <ele>2.66</ele>
        <time>2019-05-31T09:43:31.000Z</time>
      </trkpt>
      <trkpt lat="43.53467" lon="3.9412">
        <ele>1.98</ele>
        <time>2019-05-31T09:43:36.000Z</time>
      </trkpt>
      <trkpt lat="43.53465" lon="3.94075">
        <ele>2.67</ele>
        <time>2019-05-31T09:43:41.000Z</time>
      </trkpt>
      <trkpt lat="43.53463" lon="3.94031">
        <ele>3.48</ele>
        <time>2019-05-31T09:43:46.000Z</time>
      </trkpt>
      <trkpt lat="43.53463" lon="3.93986">
        <ele>2.73</ele>
        <time>2019-05-31T09:43:51.000Z</time>
      </trkpt>
      <trkpt lat="43.53464" lon="3.9394">
        <ele>1.74</ele>
        <time>2019-05-31T09:43:56.000Z</time>
      </trkpt>
      <trkpt lat="43.53467" lon="3.93899">
        <ele>2.66</ele>
        <time>2019-05-31T09:44:01.000Z</time>
      </trkpt>
      <trkpt lat="43.5346" lon="3.93868">
        <ele>1.97</ele>
        <time>2019-05-31T09:44:06.000Z</time>
      </trkpt>
      <trkpt lat="43.53449" lon="3.93855">
        <ele>2.72</ele>
        <time>2019-05-31T09:44:11.000Z</time>
      </trkpt>
      <trkpt lat="43.53442" lon="3.93846">
        <ele>3.46</ele>
        <time>2019-05-31T09:44:23.000Z</time>
      </trkpt>
      <trkpt lat="43.53442" lon="3.93829">
        <ele>3.77</ele>
        <time>2019-05-31T09:44:28.000Z</time>
      </trkpt>
      <trkpt lat="43.53427" lon="3.93819">
        <ele>4.47</ele>
        <time>2019-05-31T09:44:33.000Z</time>
      </trkpt>
      <trkpt lat="43.5342" lon="3.93797">
        <ele>3.73</ele>
        <time>2019-05-31T09:44:38.000Z</time>
      </trkpt>
      <trkpt lat="43.53414" lon="3.93775">
        <ele>4.66</ele>
        <time>2019-05-31T09:44:43.000Z</time>
      </trkpt>
      <trkpt lat="43.53408" lon="3.93752">
        <ele>4.48</ele>
        <time>2019-05-31T09:44:48.000Z</time>
      </trkpt>
      <trkpt lat="43.534" lon="3.93726">
        <ele>4.72</ele>
        <time>2019-05-31T09:44:53.000Z</time>
      </trkpt>
      <trkpt lat="43.53392" lon="3.937">
        <ele>4.97</ele>
        <time>2019-05-31T09:44:58.000Z</time>
      </trkpt>
      <trkpt lat="43.53385" lon="3.9367">
        <ele>4.97</ele>
        <time>2019-05-31T09:45:03.000Z</time>
      </trkpt>
      <trkpt lat="43.53377" lon="3.93642">
        <ele>5.71</ele>
        <time>2019-05-31T09:45:08.000Z</time>
      </trkpt>
      <trkpt lat="43.53363" lon="3.93618">
        <ele>4.74</ele>
        <time>2019-05-31T09:45:13.000Z</time>
      </trkpt>
      <trkpt lat="43.53346" lon="3.93605">
        <ele>4.72</ele>
        <time>2019-05-31T09:45:18.000Z</time>
      </trkpt>
      <trkpt lat="43.53325" lon="3.93609">
        <ele>3.74</ele>
        <time>2019-05-31T09:45:23.000Z</time>
      </trkpt>
      <trkpt lat="43.5331" lon="3.93622">
        <ele>4.71</ele>
        <time>2019-05-31T09:45:28.000Z</time>
      </trkpt>
      <trkpt lat="43.53301" lon="3.93644">
        <ele>4.79</ele>
        <time>2019-05-31T09:45:33.000Z</time>
      </trkpt>
      <trkpt lat="43.53283" lon="3.93633">
        <ele>4.73</ele>
        <time>2019-05-31T09:45:38.000Z</time>
      </trkpt>
      <trkpt lat="43.53278" lon="3.93603">
        <ele>3.74</ele>
        <time>2019-05-31T09:45:43.000Z</time>
      </trkpt>
      <trkpt lat="43.53265" lon="3.93579">
        <ele>3.73</ele>
        <time>2019-05-31T09:45:48.000Z</time>
      </trkpt>
      <trkpt lat="43.53263" lon="3.93551">
        <ele>3.73</ele>
        <time>2019-05-31T09:45:53.000Z</time>
      </trkpt>
      <trkpt lat="43.53255" lon="3.93524">
        <ele>4.72</ele>
        <time>2019-05-31T09:45:58.000Z</time>
      </trkpt>
      <trkpt lat="43.53258" lon="3.93491">
        <ele>3.73</ele>
        <time>2019-05-31T09:46:03.000Z</time>
      </trkpt>
      <trkpt lat="43.53266" lon="3.93465">
        <ele>3.72</ele>
        <time>2019-05-31T09:46:08.000Z</time>
      </trkpt>
      <trkpt lat="43.53262" lon="3.93438">
        <ele>3.72</ele>
        <time>2019-05-31T09:46:13.000Z</time>
      </trkpt>
      <trkpt lat="43.53242" lon="3.93416">
        <ele>3.72</ele>
        <time>2019-05-31T09:46:18.000Z</time>
      </trkpt>
      <trkpt lat="43.53222" lon="3.93394">
        <ele>4.49</ele>
        <time>2019-05-31T09:46:23.000Z</time>
      </trkpt>
      <trkpt lat="43.53201" lon="3.93373">
        <ele>4.72</ele>
        <time>2019-05-31T09:46:28.000Z</time>
      </trkpt>
      <trkpt lat="43.53179" lon="3.93353">
        <ele>5.72</ele>
        <time>2019-05-31T09:46:33.000Z</time>
      </trkpt>
      <trkpt lat="43.53157" lon="3.93332">
        <ele>3.79</ele>
        <time>2019-05-31T09:46:38.000Z</time>
      </trkpt>
      <trkpt lat="43.53136" lon="3.9331">
        <ele>5.47</ele>
        <time>2019-05-31T09:46:43.000Z</time>
      </trkpt>
      <trkpt lat="43.53114" lon="3.93289">
        <ele>6.46</ele>
        <time>2019-05-31T09:46:48.000Z</time>
      </trkpt>
      <trkpt lat="43.53091" lon="3.93268">
        <ele>5.79</ele>
        <time>2019-05-31T09:46:53.000Z</time>
      </trkpt>
      <trkpt lat="43.5307" lon="3.93247">
        <ele>6.71</ele>
        <time>2019-05-31T09:46:58.000Z</time>
      </trkpt>
      <trkpt lat="43.5305" lon="3.93227">
        <ele>6.54</ele>
        <time>2019-05-31T09:47:03.000Z</time>
      </trkpt>
      <trkpt lat="43.53028" lon="3.93209">
        <ele>4.79</ele>
        <time>2019-05-31T09:47:08.000Z</time>
      </trkpt>
      <trkpt lat="43.53005" lon="3.93205">
        <ele>5.73</ele>
        <time>2019-05-31T09:47:13.000Z</time>
      </trkpt>
      <trkpt lat="43.52993" lon="3.93206">
        <ele>5.73</ele>
        <time>2019-05-31T09:47:18.000Z</time>
      </trkpt>
      <trkpt lat="43.52983" lon="3.93209">
        <ele>4.97</ele>
        <time>2019-05-31T09:47:33.000Z</time>
      </trkpt>
      <trkpt lat="43.52979" lon="3.93185">
        <ele>5.52</ele>
        <time>2019-05-31T09:47:38.000Z</time>
      </trkpt>
      <trkpt lat="43.5298" lon="3.93153">
        <ele>4.73</ele>
        <time>2019-05-31T09:47:43.000Z</time>
      </trkpt>
      <trkpt lat="43.52979" lon="3.93119">
        <ele>3.73</ele>
        <time>2019-05-31T09:47:48.000Z</time>
      </trkpt>
      <trkpt lat="43.52976" lon="3.93086">
        <ele>4.73</ele>
        <time>2019-05-31T09:47:53.000Z</time>
      </trkpt>
      <trkpt lat="43.52976" lon="3.9305">
        <ele>4.77</ele>
        <time>2019-05-31T09:47:58.000Z</time>
      </trkpt>
      <trkpt lat="43.52987" lon="3.93027">
        <ele>4.48</ele>
        <time>2019-05-31T09:48:03.000Z</time>
      </trkpt>
      <trkpt lat="43.53001" lon="3.93004">
        <ele>4.77</ele>
        <time>2019-05-31T09:48:08.000Z</time>
      </trkpt>
      <trkpt lat="43.53017" lon="3.92978">
        <ele>3.8</ele>
        <time>2019-05-31T09:48:13.000Z</time>
      </trkpt>
      <trkpt lat="43.53033" lon="3.92952">
        <ele>2.73</ele>
        <time>2019-05-31T09:48:18.000Z</time>
      </trkpt>
      <trkpt lat="43.53049" lon="3.92925">
        <ele>3.54</ele>
        <time>2019-05-31T09:48:23.000Z</time>
      </trkpt>
      <trkpt lat="43.53065" lon="3.92898">
        <ele>4.47</ele>
        <time>2019-05-31T09:48:28.000Z</time>
      </trkpt>
      <trkpt lat="43.53082" lon="3.9287">
        <ele>4.72</ele>
        <time>2019-05-31T09:48:33.000Z</time>
      </trkpt>
      <trkpt lat="43.53099" lon="3.92841">
        <ele>4.72</ele>
        <time>2019-05-31T09:48:38.000Z</time>
      </trkpt>
      <trkpt lat="43.53117" lon="3.92812">
        <ele>4.72</ele>
        <time>2019-05-31T09:48:43.000Z</time>
      </trkpt>
      <trkpt lat="43.53137" lon="3.92781">
        <ele>4.72</ele>
        <time>2019-05-31T09:48:48.000Z</time>
      </trkpt>
      <trkpt lat="43.53156" lon="3.9275">
        <ele>4.72</ele>
        <time>2019-05-31T09:48:53.000Z</time>
      </trkpt>
      <trkpt lat="43.53175" lon="3.92719">
        <ele>4.73</ele>
        <time>2019-05-31T09:48:58.000Z</time>
      </trkpt>
      <trkpt lat="43.53194" lon="3.92688">
        <ele>4.72</ele>
        <time>2019-05-31T09:49:03.000Z</time>
      </trkpt>
      <trkpt lat="43.5321" lon="3.92661">
        <ele>6.66</ele>
        <time>2019-05-31T09:49:08.000Z</time>
      </trkpt>
      <trkpt lat="43.53215" lon="3.9265">
        <ele>5.78</ele>
        <time>2019-05-31T09:49:13.000Z</time>
      </trkpt>
      <trkpt lat="43.53209" lon="3.92639">
        <ele>4.71</ele>
        <time>2019-05-31T09:49:21.000Z</time>
      </trkpt>
      <trkpt lat="43.53206" lon="3.92622">
        <ele>3.74</ele>
        <time>2019-05-31T09:49:26.000Z</time>
      </trkpt>
      <trkpt lat="43.53199" lon="3.92602">
        <ele>2.78</ele>
        <time>2019-05-31T09:49:31.000Z</time>
      </trkpt>
      <trkpt lat="43.53195" lon="3.92572">
        <ele>2.03</ele>
        <time>2019-05-31T09:49:36.000Z</time>
      </trkpt>
      <trkpt lat="43.53184" lon="3.92545">
        <ele>1.72</ele>
        <time>2019-05-31T09:49:41.000Z</time>
      </trkpt>
      <trkpt lat="43.53163" lon="3.92528">
        <ele>1.72</ele>
        <time>2019-05-31T09:49:46.000Z</time>
      </trkpt>
      <trkpt lat="43.53165" lon="3.925">
        <ele>1.97</ele>
        <time>2019-05-31T09:49:51.000Z</time>
      </trkpt>
      <trkpt lat="43.53153" lon="3.92469">
        <ele>3.66</ele>
        <time>2019-05-31T09:49:56.000Z</time>
      </trkpt>
      <trkpt lat="43.53146" lon="3.92438">
        <ele>3.72</ele>
        <time>2019-05-31T09:50:01.000Z</time>
      </trkpt>
      <trkpt lat="43.53159" lon="3.92404">
        <ele>2.72</ele>
        <time>2019-05-31T09:50:06.000Z</time>
      </trkpt>
      <trkpt lat="43.53176" lon="3.92373">
        <ele>2.47</ele>
        <time>2019-05-31T09:50:11.000Z</time>
      </trkpt>
      <trkpt lat="43.53191" lon="3.9234">
        <ele>2.72</ele>
        <time>2019-05-31T09:50:16.000Z</time>
      </trkpt>
      <trkpt lat="43.53207" lon="3.92308">
        <ele>3.47</ele>
        <time>2019-05-31T09:50:21.000Z</time>
      </trkpt>
      <trkpt lat="43.53224" lon="3.92277">
        <ele>1.78</ele>
        <time>2019-05-31T09:50:26.000Z</time>
      </trkpt>
      <trkpt lat="43.5324" lon="3.92247">
        <ele>1.72</ele>
        <time>2019-05-31T09:50:31.000Z</time>
      </trkpt>
      <trkpt lat="43.53257" lon="3.92217">
        <ele>1.72</ele>
        <time>2019-05-31T09:50:36.000Z</time>
      </trkpt>
      <trkpt lat="43.53274" lon="3.92186">
        <ele>1.72</ele>
        <time>2019-05-31T09:50:41.000Z</time>
      </trkpt>
      <trkpt lat="43.53291" lon="3.92157">
        <ele>2.7</ele>
        <time>2019-05-31T09:50:46.000Z</time>
      </trkpt>
      <trkpt lat="43.53306" lon="3.92128">
        <ele>2.7</ele>
        <time>2019-05-31T09:50:51.000Z</time>
      </trkpt>
      <trkpt lat="43.53322" lon="3.921">
        <ele>3.72</ele>
        <time>2019-05-31T09:50:56.000Z</time>
      </trkpt>
      <trkpt lat="43.53336" lon="3.92073">
        <ele>3.72</ele>
        <time>2019-05-31T09:51:01.000Z</time>
      </trkpt>
      <trkpt lat="43.5335" lon="3.92047">
        <ele>2.78</ele>
        <time>2019-05-31T09:51:06.000Z</time>
      </trkpt>
      <trkpt lat="43.53364" lon="3.92023">
        <ele>3.47</ele>
        <time>2019-05-31T09:51:11.000Z</time>
      </trkpt>
      <trkpt lat="43.53379" lon="3.92">
        <ele>4.65</ele>
        <time>2019-05-31T09:51:16.000Z</time>
      </trkpt>
      <trkpt lat="43.53393" lon="3.91977">
        <ele>4.72</ele>
        <time>2019-05-31T09:51:21.000Z</time>
      </trkpt>
      <trkpt lat="43.53407" lon="3.91956">
        <ele>4.72</ele>
        <time>2019-05-31T09:51:26.000Z</time>
      </trkpt>
      <trkpt lat="43.53421" lon="3.91933">
        <ele>4.72</ele>
        <time>2019-05-31T09:51:31.000Z</time>
      </trkpt>
      <trkpt lat="43.53433" lon="3.91912">
        <ele>3.78</ele>
        <time>2019-05-31T09:51:36.000Z</time>
      </trkpt>
      <trkpt lat="43.53445" lon="3.9189">
        <ele>5.45</ele>
        <time>2019-05-31T09:51:41.000Z</time>
      </trkpt>
      <trkpt lat="43.5345" lon="3.91877">
        <ele>6.65</ele>
        <time>2019-05-31T09:51:46.000Z</time>
      </trkpt>
      <trkpt lat="43.53456" lon="3.91867">
        <ele>2.76</ele>
        <time>2019-05-31T09:53:29.000Z</time>
      </trkpt>
      <trkpt lat="43.53461" lon="3.91856">
        <ele>5.65</ele>
        <time>2019-05-31T09:53:40.000Z</time>
      </trkpt>
      <trkpt lat="43.53458" lon="3.91868">
        <ele>5.71</ele>
        <time>2019-05-31T09:54:00.000Z</time>
      </trkpt>
      <trkpt lat="43.53451" lon="3.91876">
        <ele>6.48</ele>
        <time>2019-05-31T09:55:12.000Z</time>
      </trkpt>
      <trkpt lat="43.5344" lon="3.91897">
        <ele>4.97</ele>
        <time>2019-05-31T09:55:17.000Z</time>
      </trkpt>
      <trkpt lat="43.53431" lon="3.91908">
        <ele>3.78</ele>
        <time>2019-05-31T09:55:22.000Z</time>
      </trkpt>
      <trkpt lat="43.53432" lon="3.91882">
        <ele>1.98</ele>
        <time>2019-05-31T09:55:27.000Z</time>
      </trkpt>
      <trkpt lat="43.5343" lon="3.91855">
        <ele>0.72</ele>
        <time>2019-05-31T09:55:32.000Z</time>
      </trkpt>
      <trkpt lat="43.53422" lon="3.91826">
        <ele>0.66</ele>
        <time>2019-05-31T09:55:37.000Z</time>
      </trkpt>
      <trkpt lat="43.53414" lon="3.91813">
        <ele>2.7</ele>
        <time>2019-05-31T09:55:42.000Z</time>
      </trkpt>
      <trkpt lat="43.53404" lon="3.91807">
        <ele>3.71</ele>
        <time>2019-05-31T09:55:48.000Z</time>
      </trkpt>
      <trkpt lat="43.53392" lon="3.91798">
        <ele>3.76</ele>
        <time>2019-05-31T09:55:53.000Z</time>
      </trkpt>
      <trkpt lat="43.53381" lon="3.91758">
        <ele>2.72</ele>
        <time>2019-05-31T09:55:58.000Z</time>
      </trkpt>
      <trkpt lat="43.53364" lon="3.91729">
        <ele>2.76</ele>
        <time>2019-05-31T09:56:03.000Z</time>
      </trkpt>
      <trkpt lat="43.53364" lon="3.917">
        <ele>1.73</ele>
        <time>2019-05-31T09:56:08.000Z</time>
      </trkpt>
      <trkpt lat="43.5336" lon="3.91682">
        <ele>3.46</ele>
        <time>2019-05-31T09:56:13.000Z</time>
      </trkpt>
      <trkpt lat="43.53364" lon="3.91695">
        <ele>2.72</ele>
        <time>2019-05-31T09:56:25.000Z</time>
      </trkpt>
      <trkpt lat="43.53366" lon="3.91717">
        <ele>2.76</ele>
        <time>2019-05-31T09:56:30.000Z</time>
      </trkpt>
      <trkpt lat="43.53363" lon="3.91735">
        <ele>3.7</ele>
        <time>2019-05-31T09:56:35.000Z</time>
      </trkpt>
      <trkpt lat="43.53364" lon="3.91755">
        <ele>3.98</ele>
        <time>2019-05-31T09:56:40.000Z</time>
      </trkpt>
      <trkpt lat="43.53354" lon="3.9177">
        <ele>2.77</ele>
        <time>2019-05-31T09:56:45.000Z</time>
      </trkpt>
      <trkpt lat="43.53342" lon="3.9179">
        <ele>1.78</ele>
        <time>2019-05-31T09:56:50.000Z</time>
      </trkpt>
      <trkpt lat="43.53331" lon="3.91817">
        <ele>1.72</ele>
        <time>2019-05-31T09:56:55.000Z</time>
      </trkpt>
      <trkpt lat="43.53319" lon="3.91844">
        <ele>0.72</ele>
        <time>2019-05-31T09:57:00.000Z</time>
      </trkpt>
      <trkpt lat="43.53304" lon="3.91866">
        <ele>1.95</ele>
        <time>2019-05-31T09:57:05.000Z</time>
      </trkpt>
      <trkpt lat="43.53291" lon="3.91884">
        <ele>1.96</ele>
        <time>2019-05-31T09:57:10.000Z</time>
      </trkpt>
      <trkpt lat="43.53292" lon="3.91871">
        <ele>4.71</ele>
        <time>2019-05-31T09:57:20.000Z</time>
      </trkpt>
      <trkpt lat="43.53303" lon="3.91854">
        <ele>6.65</ele>
        <time>2019-05-31T09:57:25.000Z</time>
      </trkpt>
      <trkpt lat="43.53314" lon="3.91836">
        <ele>5.78</ele>
        <time>2019-05-31T09:57:30.000Z</time>
      </trkpt>
      <trkpt lat="43.53325" lon="3.91816">
        <ele>7.46</ele>
        <time>2019-05-31T09:57:35.000Z</time>
      </trkpt>
      <trkpt lat="43.53336" lon="3.91798">
        <ele>7.72</ele>
        <time>2019-05-31T09:57:40.000Z</time>
      </trkpt>
      <trkpt lat="43.53346" lon="3.91778">
        <ele>7.72</ele>
        <time>2019-05-31T09:57:45.000Z</time>
      </trkpt>
      <trkpt lat="43.53356" lon="3.9176">
        <ele>8.7</ele>
        <time>2019-05-31T09:57:50.000Z</time>
      </trkpt>
      <trkpt lat="43.53366" lon="3.91741">
        <ele>8.71</ele>
        <time>2019-05-31T09:57:55.000Z</time>
      </trkpt>
      <trkpt lat="43.53375" lon="3.91723">
        <ele>7.72</ele>
        <time>2019-05-31T09:58:00.000Z</time>
      </trkpt>
      <trkpt lat="43.53384" lon="3.91703">
        <ele>6.73</ele>
        <time>2019-05-31T09:58:05.000Z</time>
      </trkpt>
      <trkpt lat="43.5339" lon="3.91693">
        <ele>7.71</ele>
        <time>2019-05-31T09:58:35.000Z</time>
      </trkpt>
      <trkpt lat="43.53396" lon="3.91677">
        <ele>7.73</ele>
        <time>2019-05-31T09:58:40.000Z</time>
      </trkpt>
      <trkpt lat="43.53406" lon="3.91654">
        <ele>7.71</ele>
        <time>2019-05-31T09:58:45.000Z</time>
      </trkpt>
      <trkpt lat="43.53417" lon="3.91627">
        <ele>6.72</ele>
        <time>2019-05-31T09:58:50.000Z</time>
      </trkpt>
      <trkpt lat="43.53428" lon="3.91594">
        <ele>5.73</ele>
        <time>2019-05-31T09:58:55.000Z</time>
      </trkpt>
      <trkpt lat="43.53439" lon="3.9156">
        <ele>4.01</ele>
        <time>2019-05-31T09:59:00.000Z</time>
      </trkpt>
      <trkpt lat="43.53452" lon="3.91525">
        <ele>1.98</ele>
        <time>2019-05-31T09:59:05.000Z</time>
      </trkpt>
      <trkpt lat="43.53465" lon="3.915">
        <ele>0.97</ele>
        <time>2019-05-31T09:59:10.000Z</time>
      </trkpt>
      <trkpt lat="43.53474" lon="3.91468">
        <ele>2</ele>
        <time>2019-05-31T09:59:15.000Z</time>
      </trkpt>
      <trkpt lat="43.53483" lon="3.91438">
        <ele>1.46</ele>
        <time>2019-05-31T09:59:20.000Z</time>
      </trkpt>
      <trkpt lat="43.53498" lon="3.91425">
        <ele>1.71</ele>
        <time>2019-05-31T09:59:25.000Z</time>
      </trkpt>
      <trkpt lat="43.53509" lon="3.91417">
        <ele>1.7</ele>
        <time>2019-05-31T09:59:30.000Z</time>
      </trkpt>
      <trkpt lat="43.53513" lon="3.91386">
        <ele>0.71</ele>
        <time>2019-05-31T09:59:35.000Z</time>
      </trkpt>
      <trkpt lat="43.53514" lon="3.91348">
        <ele>0.71</ele>
        <time>2019-05-31T09:59:40.000Z</time>
      </trkpt>
      <trkpt lat="43.53514" lon="3.91309">
        <ele>1.7</ele>
        <time>2019-05-31T09:59:45.000Z</time>
      </trkpt>
      <trkpt lat="43.53511" lon="3.91269">
        <ele>1.71</ele>
        <time>2019-05-31T09:59:50.000Z</time>
      </trkpt>
      <trkpt lat="43.53509" lon="3.91225">
        <ele>1.66</ele>
        <time>2019-05-31T09:59:55.000Z</time>
      </trkpt>
      <trkpt lat="43.53504" lon="3.91184">
        <ele>1.46</ele>
        <time>2019-05-31T10:00:00.000Z</time>
      </trkpt>
      <trkpt lat="43.535" lon="3.91142">
        <ele>1.71</ele>
        <time>2019-05-31T10:00:05.000Z</time>
      </trkpt>
      <trkpt lat="43.53495" lon="3.91102">
        <ele>1.71</ele>
        <time>2019-05-31T10:00:10.000Z</time>
      </trkpt>
      <trkpt lat="43.53491" lon="3.91062">
        <ele>2.65</ele>
        <time>2019-05-31T10:00:15.000Z</time>
      </trkpt>
      <trkpt lat="43.53486" lon="3.9102">
        <ele>3.46</ele>
        <time>2019-05-31T10:00:20.000Z</time>
      </trkpt>
      <trkpt lat="43.53482" lon="3.90979">
        <ele>3.69</ele>
        <time>2019-05-31T10:00:25.000Z</time>
      </trkpt>
      <trkpt lat="43.53478" lon="3.90938">
        <ele>2.73</ele>
        <time>2019-05-31T10:00:30.000Z</time>
      </trkpt>
      <trkpt lat="43.53472" lon="3.90897">
        <ele>4.65</ele>
        <time>2019-05-31T10:00:35.000Z</time>
      </trkpt>
      <trkpt lat="43.53468" lon="3.90856">
        <ele>4.71</ele>
        <time>2019-05-31T10:00:40.000Z</time>
      </trkpt>
      <trkpt lat="43.53463" lon="3.90817">
        <ele>4.46</ele>
        <time>2019-05-31T10:00:45.000Z</time>
      </trkpt>
      <trkpt lat="43.53458" lon="3.90779">
        <ele>2.78</ele>
        <time>2019-05-31T10:00:50.000Z</time>
      </trkpt>
      <trkpt lat="43.53455" lon="3.90739">
        <ele>3.7</ele>
        <time>2019-05-31T10:00:55.000Z</time>
      </trkpt>
      <trkpt lat="43.53455" lon="3.90701">
        <ele>3.71</ele>
        <time>2019-05-31T10:01:00.000Z</time>
      </trkpt>
      <trkpt lat="43.5346" lon="3.90661">
        <ele>3.71</ele>
        <time>2019-05-31T10:01:05.000Z</time>
      </trkpt>
      <trkpt lat="43.5347" lon="3.90623">
        <ele>2.77</ele>
        <time>2019-05-31T10:01:10.000Z</time>
      </trkpt>
      <trkpt lat="43.53487" lon="3.90592">
        <ele>2.71</ele>
        <time>2019-05-31T10:01:15.000Z</time>
      </trkpt>
      <trkpt lat="43.53507" lon="3.90563">
        <ele>3.7</ele>
        <time>2019-05-31T10:01:20.000Z</time>
      </trkpt>
      <trkpt lat="43.53529" lon="3.90535">
        <ele>4.64</ele>
        <time>2019-05-31T10:01:25.000Z</time>
      </trkpt>
      <trkpt lat="43.53547" lon="3.90505">
        <ele>4.69</ele>
        <time>2019-05-31T10:01:30.000Z</time>
      </trkpt>
      <trkpt lat="43.53567" lon="3.90475">
        <ele>4.71</ele>
        <time>2019-05-31T10:01:35.000Z</time>
      </trkpt>
      <trkpt lat="43.53585" lon="3.90445">
        <ele>4.56</ele>
        <time>2019-05-31T10:01:40.000Z</time>
      </trkpt>
      <trkpt lat="43.53605" lon="3.90416">
        <ele>4.66</ele>
        <time>2019-05-31T10:01:45.000Z</time>
      </trkpt>
      <trkpt lat="43.53625" lon="3.90387">
        <ele>3.53</ele>
        <time>2019-05-31T10:01:50.000Z</time>
      </trkpt>
      <trkpt lat="43.53644" lon="3.90357">
        <ele>3.7</ele>
        <time>2019-05-31T10:01:55.000Z</time>
      </trkpt>
      <trkpt lat="43.53664" lon="3.90329">
        <ele>3.64</ele>
        <time>2019-05-31T10:02:00.000Z</time>
      </trkpt>
      <trkpt lat="43.53683" lon="3.90298">
        <ele>4.69</ele>
        <time>2019-05-31T10:02:05.000Z</time>
      </trkpt>
      <trkpt lat="43.53703" lon="3.90269">
        <ele>4.64</ele>
        <time>2019-05-31T10:02:10.000Z</time>
      </trkpt>
      <trkpt lat="43.53725" lon="3.90239">
        <ele>3.72</ele>
        <time>2019-05-31T10:02:15.000Z</time>
      </trkpt>
      <trkpt lat="43.53746" lon="3.90211">
        <ele>3.7</ele>
        <time>2019-05-31T10:02:20.000Z</time>
      </trkpt>
      <trkpt lat="43.53767" lon="3.90183">
        <ele>3.46</ele>
        <time>2019-05-31T10:02:25.000Z</time>
      </trkpt>
      <trkpt lat="43.53786" lon="3.90158">
        <ele>3.7</ele>
        <time>2019-05-31T10:02:30.000Z</time>
      </trkpt>
      <trkpt lat="43.53801" lon="3.90143">
        <ele>3.7</ele>
        <time>2019-05-31T10:02:35.000Z</time>
      </trkpt>
      <trkpt lat="43.53815" lon="3.9012">
        <ele>3.7</ele>
        <time>2019-05-31T10:02:40.000Z</time>
      </trkpt>
      <trkpt lat="43.5383" lon="3.90097">
        <ele>3.7</ele>
        <time>2019-05-31T10:02:45.000Z</time>
      </trkpt>
      <trkpt lat="43.53847" lon="3.90071">
        <ele>4.68</ele>
        <time>2019-05-31T10:02:50.000Z</time>
      </trkpt>
      <trkpt lat="43.53866" lon="3.90041">
        <ele>3.95</ele>
        <time>2019-05-31T10:02:55.000Z</time>
      </trkpt>
      <trkpt lat="43.53885" lon="3.9001">
        <ele>3.7</ele>
        <time>2019-05-31T10:03:00.000Z</time>
      </trkpt>
      <trkpt lat="43.53905" lon="3.8998">
        <ele>3.7</ele>
        <time>2019-05-31T10:03:05.000Z</time>
      </trkpt>
      <trkpt lat="43.53923" lon="3.89948">
        <ele>3.7</ele>
        <time>2019-05-31T10:03:10.000Z</time>
      </trkpt>
      <trkpt lat="43.53944" lon="3.89916">
        <ele>3.7</ele>
        <time>2019-05-31T10:03:15.000Z</time>
      </trkpt>
      <trkpt lat="43.53964" lon="3.89885">
        <ele>3.7</ele>
        <time>2019-05-31T10:03:20.000Z</time>
      </trkpt>
      <trkpt lat="43.53991" lon="3.8987">
        <ele>3.7</ele>
        <time>2019-05-31T10:03:25.000Z</time>
      </trkpt>
      <trkpt lat="43.54014" lon="3.8986">
        <ele>4.63</ele>
        <time>2019-05-31T10:03:30.000Z</time>
      </trkpt>
      <trkpt lat="43.54022" lon="3.89829">
        <ele>4.45</ele>
        <time>2019-05-31T10:03:35.000Z</time>
      </trkpt>
      <trkpt lat="43.54034" lon="3.89805">
        <ele>4.7</ele>
        <time>2019-05-31T10:03:40.000Z</time>
      </trkpt>
      <trkpt lat="43.54043" lon="3.89778">
        <ele>4.7</ele>
        <time>2019-05-31T10:03:45.000Z</time>
      </trkpt>
      <trkpt lat="43.5405" lon="3.89763">
        <ele>4.7</ele>
        <time>2019-05-31T10:03:50.000Z</time>
      </trkpt>
      <trkpt lat="43.54048" lon="3.89749">
        <ele>4.5</ele>
        <time>2019-05-31T10:04:19.000Z</time>
      </trkpt>
      <trkpt lat="43.54043" lon="3.89733">
        <ele>3.71</ele>
        <time>2019-05-31T10:04:24.000Z</time>
      </trkpt>
      <trkpt lat="43.54038" lon="3.89718">
        <ele>4.63</ele>
        <time>2019-05-31T10:04:31.000Z</time>
      </trkpt>
      <trkpt lat="43.54016" lon="3.89705">
        <ele>4.88</ele>
        <time>2019-05-31T10:04:36.000Z</time>
      </trkpt>
      <trkpt lat="43.53993" lon="3.89699">
        <ele>3.95</ele>
        <time>2019-05-31T10:04:41.000Z</time>
      </trkpt>
      <trkpt lat="43.53977" lon="3.89695">
        <ele>3.7</ele>
        <time>2019-05-31T10:04:46.000Z</time>
      </trkpt>
      <trkpt lat="43.53969" lon="3.89706">
        <ele>2.89</ele>
        <time>2019-05-31T10:04:55.000Z</time>
      </trkpt>
      <trkpt lat="43.53961" lon="3.89716">
        <ele>2.7</ele>
        <time>2019-05-31T10:05:00.000Z</time>
      </trkpt>
      <trkpt lat="43.53949" lon="3.89709">
        <ele>2.69</ele>
        <time>2019-05-31T10:05:05.000Z</time>
      </trkpt>
      <trkpt lat="43.53948" lon="3.8968">
        <ele>2.7</ele>
        <time>2019-05-31T10:05:10.000Z</time>
      </trkpt>
      <trkpt lat="43.5395" lon="3.89665">
        <ele>2.64</ele>
        <time>2019-05-31T10:05:39.000Z</time>
      </trkpt>
      <trkpt lat="43.53956" lon="3.8964">
        <ele>2.49</ele>
        <time>2019-05-31T10:05:44.000Z</time>
      </trkpt>
      <trkpt lat="43.53965" lon="3.89608">
        <ele>1.7</ele>
        <time>2019-05-31T10:05:49.000Z</time>
      </trkpt>
      <trkpt lat="43.53974" lon="3.89573">
        <ele>1.7</ele>
        <time>2019-05-31T10:05:54.000Z</time>
      </trkpt>
      <trkpt lat="43.53975" lon="3.89533">
        <ele>1.7</ele>
        <time>2019-05-31T10:05:59.000Z</time>
      </trkpt>
      <trkpt lat="43.53972" lon="3.89492">
        <ele>0.7</ele>
        <time>2019-05-31T10:06:04.000Z</time>
      </trkpt>
      <trkpt lat="43.53971" lon="3.89449">
        <ele>0.7</ele>
        <time>2019-05-31T10:06:09.000Z</time>
      </trkpt>
      <trkpt lat="43.53969" lon="3.89406">
        <ele>1.69</ele>
        <time>2019-05-31T10:06:14.000Z</time>
      </trkpt>
      <trkpt lat="43.53966" lon="3.89362">
        <ele>0.71</ele>
        <time>2019-05-31T10:06:19.000Z</time>
      </trkpt>
      <trkpt lat="43.53964" lon="3.89317">
        <ele>0.69</ele>
        <time>2019-05-31T10:06:24.000Z</time>
      </trkpt>
      <trkpt lat="43.53962" lon="3.89272">
        <ele>0.69</ele>
        <time>2019-05-31T10:06:29.000Z</time>
      </trkpt>
      <trkpt lat="43.5396" lon="3.89225">
        <ele>0.69</ele>
        <time>2019-05-31T10:06:34.000Z</time>
      </trkpt>
      <trkpt lat="43.53958" lon="3.89178">
        <ele>0.69</ele>
        <time>2019-05-31T10:06:39.000Z</time>
      </trkpt>
      <trkpt lat="43.53956" lon="3.8913">
        <ele>0.69</ele>
        <time>2019-05-31T10:06:44.000Z</time>
      </trkpt>
      <trkpt lat="43.53954" lon="3.89082">
        <ele>0.94</ele>
        <time>2019-05-31T10:06:49.000Z</time>
      </trkpt>
      <trkpt lat="43.53952" lon="3.89033">
        <ele>1.69</ele>
        <time>2019-05-31T10:06:54.000Z</time>
      </trkpt>
      <trkpt lat="43.53949" lon="3.88985">
        <ele>2.69</ele>
        <time>2019-05-31T10:06:59.000Z</time>
      </trkpt>
      <trkpt lat="43.53947" lon="3.88936">
        <ele>1.93</ele>
        <time>2019-05-31T10:07:04.000Z</time>
      </trkpt>
      <trkpt lat="43.53945" lon="3.8889">
        <ele>2.69</ele>
        <time>2019-05-31T10:07:09.000Z</time>
      </trkpt>
      <trkpt lat="43.53942" lon="3.88841">
        <ele>1.76</ele>
        <time>2019-05-31T10:07:14.000Z</time>
      </trkpt>
      <trkpt lat="43.53941" lon="3.88793">
        <ele>2.69</ele>
        <time>2019-05-31T10:07:19.000Z</time>
      </trkpt>
      <trkpt lat="43.53938" lon="3.88744">
        <ele>2.69</ele>
        <time>2019-05-31T10:07:24.000Z</time>
      </trkpt>
      <trkpt lat="43.53936" lon="3.88697">
        <ele>1.71</ele>
        <time>2019-05-31T10:07:29.000Z</time>
      </trkpt>
      <trkpt lat="43.53934" lon="3.8865">
        <ele>1.74</ele>
        <time>2019-05-31T10:07:34.000Z</time>
      </trkpt>
      <trkpt lat="43.53931" lon="3.88605">
        <ele>1.69</ele>
        <time>2019-05-31T10:07:39.000Z</time>
      </trkpt>
      <trkpt lat="43.5393" lon="3.8856">
        <ele>2.68</ele>
        <time>2019-05-31T10:07:44.000Z</time>
      </trkpt>
      <trkpt lat="43.53928" lon="3.88516">
        <ele>1.69</ele>
        <time>2019-05-31T10:07:49.000Z</time>
      </trkpt>
      <trkpt lat="43.53925" lon="3.88473">
        <ele>1.69</ele>
        <time>2019-05-31T10:07:54.000Z</time>
      </trkpt>
      <trkpt lat="43.53923" lon="3.88428">
        <ele>1.69</ele>
        <time>2019-05-31T10:07:59.000Z</time>
      </trkpt>
      <trkpt lat="43.53921" lon="3.88385">
        <ele>1.75</ele>
        <time>2019-05-31T10:08:04.000Z</time>
      </trkpt>
      <trkpt lat="43.53918" lon="3.88342">
        <ele>1.69</ele>
        <time>2019-05-31T10:08:09.000Z</time>
      </trkpt>
      <trkpt lat="43.53916" lon="3.883">
        <ele>1.69</ele>
        <time>2019-05-31T10:08:14.000Z</time>
      </trkpt>
      <trkpt lat="43.53914" lon="3.88258">
        <ele>1.69</ele>
        <time>2019-05-31T10:08:19.000Z</time>
      </trkpt>
      <trkpt lat="43.53912" lon="3.88219">
        <ele>2.5</ele>
        <time>2019-05-31T10:08:24.000Z</time>
      </trkpt>
      <trkpt lat="43.53911" lon="3.88182">
        <ele>2.69</ele>
        <time>2019-05-31T10:08:29.000Z</time>
      </trkpt>
      <trkpt lat="43.53909" lon="3.88146">
        <ele>2.69</ele>
        <time>2019-05-31T10:08:34.000Z</time>
      </trkpt>
      <trkpt lat="43.53907" lon="3.8811">
        <ele>3.63</ele>
        <time>2019-05-31T10:08:39.000Z</time>
      </trkpt>
      <trkpt lat="43.53903" lon="3.88071">
        <ele>4.49</ele>
        <time>2019-05-31T10:08:44.000Z</time>
      </trkpt>
      <trkpt lat="43.53897" lon="3.88029">
        <ele>2.71</ele>
        <time>2019-05-31T10:08:49.000Z</time>
      </trkpt>
      <trkpt lat="43.53893" lon="3.87984">
        <ele>1.7</ele>
        <time>2019-05-31T10:08:54.000Z</time>
      </trkpt>
      <trkpt lat="43.53893" lon="3.87941">
        <ele>0.75</ele>
        <time>2019-05-31T10:08:59.000Z</time>
      </trkpt>
      <trkpt lat="43.53891" lon="3.87907">
        <ele>2.44</ele>
        <time>2019-05-31T10:09:04.000Z</time>
      </trkpt>
      <trkpt lat="43.53889" lon="3.87879">
        <ele>2.56</ele>
        <time>2019-05-31T10:09:09.000Z</time>
      </trkpt>
      <trkpt lat="43.53888" lon="3.87846">
        <ele>3</ele>
        <time>2019-05-31T10:09:14.000Z</time>
      </trkpt>
      <trkpt lat="43.53886" lon="3.87804">
        <ele>2.69</ele>
        <time>2019-05-31T10:09:19.000Z</time>
      </trkpt>
      <trkpt lat="43.53885" lon="3.87754">
        <ele>1.88</ele>
        <time>2019-05-31T10:09:24.000Z</time>
      </trkpt>
      <trkpt lat="43.53887" lon="3.87708">
        <ele>1.69</ele>
        <time>2019-05-31T10:09:29.000Z</time>
      </trkpt>
      <trkpt lat="43.53887" lon="3.87661">
        <ele>0.75</ele>
        <time>2019-05-31T10:09:34.000Z</time>
      </trkpt>
      <trkpt lat="43.53886" lon="3.87615">
        <ele>1</ele>
        <time>2019-05-31T10:09:39.000Z</time>
      </trkpt>
      <trkpt lat="43.53884" lon="3.87569">
        <ele>1</ele>
        <time>2019-05-31T10:09:44.000Z</time>
      </trkpt>
      <trkpt lat="43.53882" lon="3.87527">
        <ele>1.44</ele>
        <time>2019-05-31T10:09:49.000Z</time>
      </trkpt>
      <trkpt lat="43.5388" lon="3.87488">
        <ele>1.69</ele>
        <time>2019-05-31T10:09:54.000Z</time>
      </trkpt>
      <trkpt lat="43.53878" lon="3.87449">
        <ele>2.62</ele>
        <time>2019-05-31T10:09:59.000Z</time>
      </trkpt>
      <trkpt lat="43.53877" lon="3.87411">
        <ele>3.67</ele>
        <time>2019-05-31T10:10:04.000Z</time>
      </trkpt>
      <trkpt lat="43.53875" lon="3.87371">
        <ele>3.68</ele>
        <time>2019-05-31T10:10:09.000Z</time>
      </trkpt>
      <trkpt lat="43.53871" lon="3.87329">
        <ele>3.69</ele>
        <time>2019-05-31T10:10:14.000Z</time>
      </trkpt>
      <trkpt lat="43.53867" lon="3.87287">
        <ele>3.68</ele>
        <time>2019-05-31T10:10:19.000Z</time>
      </trkpt>
      <trkpt lat="43.53863" lon="3.87245">
        <ele>3.69</ele>
        <time>2019-05-31T10:10:24.000Z</time>
      </trkpt>
      <trkpt lat="43.53863" lon="3.87204">
        <ele>2.7</ele>
        <time>2019-05-31T10:10:29.000Z</time>
      </trkpt>
      <trkpt lat="43.5386" lon="3.87165">
        <ele>1.75</ele>
        <time>2019-05-31T10:10:34.000Z</time>
      </trkpt>
      <trkpt lat="43.53857" lon="3.87126">
        <ele>3.67</ele>
        <time>2019-05-31T10:10:39.000Z</time>
      </trkpt>
      <trkpt lat="43.53855" lon="3.87091">
        <ele>3.68</ele>
        <time>2019-05-31T10:10:44.000Z</time>
      </trkpt>
      <trkpt lat="43.53853" lon="3.87061">
        <ele>3.68</ele>
        <time>2019-05-31T10:10:49.000Z</time>
      </trkpt>
      <trkpt lat="43.5385" lon="3.87038">
        <ele>4.43</ele>
        <time>2019-05-31T10:10:54.000Z</time>
      </trkpt>
      <trkpt lat="43.53849" lon="3.87022">
        <ele>3.69</ele>
        <time>2019-05-31T10:10:59.000Z</time>
      </trkpt>
      <trkpt lat="43.53847" lon="3.87009">
        <ele>3.68</ele>
        <time>2019-05-31T10:11:06.000Z</time>
      </trkpt>
      <trkpt lat="43.53845" lon="3.86996">
        <ele>2.43</ele>
        <time>2019-05-31T10:11:51.000Z</time>
      </trkpt>
      <trkpt lat="43.53837" lon="3.86981">
        <ele>2.68</ele>
        <time>2019-05-31T10:11:56.000Z</time>
      </trkpt>
      <trkpt lat="43.53825" lon="3.86967">
        <ele>3.68</ele>
        <time>2019-05-31T10:12:01.000Z</time>
      </trkpt>
      <trkpt lat="43.53816" lon="3.86962">
        <ele>3.5</ele>
        <time>2019-05-31T10:12:06.000Z</time>
      </trkpt>
      <trkpt lat="43.53817" lon="3.86949">
        <ele>4.67</ele>
        <time>2019-05-31T10:12:12.000Z</time>
      </trkpt>
      <trkpt lat="43.53822" lon="3.86936">
        <ele>6.62</ele>
        <time>2019-05-31T10:12:38.000Z</time>
      </trkpt>
      <trkpt lat="43.5383" lon="3.86919">
        <ele>4.75</ele>
        <time>2019-05-31T10:12:43.000Z</time>
      </trkpt>
      <trkpt lat="43.53833" lon="3.86892">
        <ele>3.93</ele>
        <time>2019-05-31T10:12:48.000Z</time>
      </trkpt>
      <trkpt lat="43.53831" lon="3.86859">
        <ele>4.64</ele>
        <time>2019-05-31T10:12:53.000Z</time>
      </trkpt>
      <trkpt lat="43.53827" lon="3.86825">
        <ele>4.67</ele>
        <time>2019-05-31T10:12:58.000Z</time>
      </trkpt>
      <trkpt lat="43.53822" lon="3.8679">
        <ele>4.68</ele>
        <time>2019-05-31T10:13:03.000Z</time>
      </trkpt>
      <trkpt lat="43.53819" lon="3.86754">
        <ele>4.93</ele>
        <time>2019-05-31T10:13:08.000Z</time>
      </trkpt>
      <trkpt lat="43.53815" lon="3.86716">
        <ele>5.62</ele>
        <time>2019-05-31T10:13:13.000Z</time>
      </trkpt>
      <trkpt lat="43.53811" lon="3.86679">
        <ele>5.62</ele>
        <time>2019-05-31T10:13:18.000Z</time>
      </trkpt>
      <trkpt lat="43.53807" lon="3.86642">
        <ele>4.69</ele>
        <time>2019-05-31T10:13:23.000Z</time>
      </trkpt>
      <trkpt lat="43.53802" lon="3.86607">
        <ele>3.68</ele>
        <time>2019-05-31T10:13:28.000Z</time>
      </trkpt>
      <trkpt lat="43.53798" lon="3.86569">
        <ele>4.68</ele>
        <time>2019-05-31T10:13:33.000Z</time>
      </trkpt>
      <trkpt lat="43.53794" lon="3.86532">
        <ele>4.7</ele>
        <time>2019-05-31T10:13:38.000Z</time>
      </trkpt>
      <trkpt lat="43.53791" lon="3.86494">
        <ele>5.68</ele>
        <time>2019-05-31T10:13:43.000Z</time>
      </trkpt>
      <trkpt lat="43.53785" lon="3.86459">
        <ele>4.74</ele>
        <time>2019-05-31T10:13:48.000Z</time>
      </trkpt>
      <trkpt lat="43.53782" lon="3.86424">
        <ele>4.68</ele>
        <time>2019-05-31T10:13:53.000Z</time>
      </trkpt>
      <trkpt lat="43.53778" lon="3.86389">
        <ele>4.68</ele>
        <time>2019-05-31T10:13:58.000Z</time>
      </trkpt>
      <trkpt lat="43.53774" lon="3.86356">
        <ele>4.87</ele>
        <time>2019-05-31T10:14:03.000Z</time>
      </trkpt>
      <trkpt lat="43.5377" lon="3.86323">
        <ele>4.68</ele>
        <time>2019-05-31T10:14:08.000Z</time>
      </trkpt>
      <trkpt lat="43.53766" lon="3.86289">
        <ele>4.68</ele>
        <time>2019-05-31T10:14:13.000Z</time>
      </trkpt>
      <trkpt lat="43.53763" lon="3.86255">
        <ele>6.43</ele>
        <time>2019-05-31T10:14:18.000Z</time>
      </trkpt>
      <trkpt lat="43.53758" lon="3.86221">
        <ele>6.68</ele>
        <time>2019-05-31T10:14:23.000Z</time>
      </trkpt>
      <trkpt lat="43.53755" lon="3.86187">
        <ele>6.68</ele>
        <time>2019-05-31T10:14:28.000Z</time>
      </trkpt>
      <trkpt lat="43.53753" lon="3.86154">
        <ele>6.68</ele>
        <time>2019-05-31T10:14:33.000Z</time>
      </trkpt>
      <trkpt lat="43.53751" lon="3.86121">
        <ele>6.68</ele>
        <time>2019-05-31T10:14:38.000Z</time>
      </trkpt>
      <trkpt lat="43.5375" lon="3.86088">
        <ele>7.68</ele>
        <time>2019-05-31T10:14:43.000Z</time>
      </trkpt>
      <trkpt lat="43.53751" lon="3.86054">
        <ele>8.67</ele>
        <time>2019-05-31T10:14:48.000Z</time>
      </trkpt>
      <trkpt lat="43.53753" lon="3.86018">
        <ele>7.7</ele>
        <time>2019-05-31T10:14:53.000Z</time>
      </trkpt>
      <trkpt lat="43.53757" lon="3.85982">
        <ele>8.68</ele>
        <time>2019-05-31T10:14:58.000Z</time>
      </trkpt>
      <trkpt lat="43.53761" lon="3.85949">
        <ele>9.43</ele>
        <time>2019-05-31T10:15:03.000Z</time>
      </trkpt>
      <trkpt lat="43.53767" lon="3.85915">
        <ele>10.62</ele>
        <time>2019-05-31T10:15:08.000Z</time>
      </trkpt>
      <trkpt lat="43.53774" lon="3.85883">
        <ele>10.68</ele>
        <time>2019-05-31T10:15:13.000Z</time>
      </trkpt>
      <trkpt lat="43.53781" lon="3.85851">
        <ele>11.68</ele>
        <time>2019-05-31T10:15:18.000Z</time>
      </trkpt>
      <trkpt lat="43.53789" lon="3.85818">
        <ele>10.69</ele>
        <time>2019-05-31T10:15:23.000Z</time>
      </trkpt>
      <trkpt lat="43.53796" lon="3.85788">
        <ele>11.43</ele>
        <time>2019-05-31T10:15:28.000Z</time>
      </trkpt>
      <trkpt lat="43.53803" lon="3.85757">
        <ele>11.63</ele>
        <time>2019-05-31T10:15:33.000Z</time>
      </trkpt>
      <trkpt lat="43.53811" lon="3.85728">
        <ele>11.68</ele>
        <time>2019-05-31T10:15:38.000Z</time>
      </trkpt>
      <trkpt lat="43.53817" lon="3.85699">
        <ele>12.67</ele>
        <time>2019-05-31T10:15:43.000Z</time>
      </trkpt>
      <trkpt lat="43.53824" lon="3.85672">
        <ele>12.69</ele>
        <time>2019-05-31T10:15:48.000Z</time>
      </trkpt>
      <trkpt lat="43.53824" lon="3.85647">
        <ele>12.68</ele>
        <time>2019-05-31T10:15:53.000Z</time>
      </trkpt>
      <trkpt lat="43.53813" lon="3.85632">
        <ele>13.66</ele>
        <time>2019-05-31T10:15:58.000Z</time>
      </trkpt>
      <trkpt lat="43.53808" lon="3.85619">
        <ele>14.43</ele>
        <time>2019-05-31T10:16:06.000Z</time>
      </trkpt>
      <trkpt lat="43.53791" lon="3.85618">
        <ele>14.68</ele>
        <time>2019-05-31T10:16:11.000Z</time>
      </trkpt>
      <trkpt lat="43.5377" lon="3.85646">
        <ele>14.49</ele>
        <time>2019-05-31T10:16:16.000Z</time>
      </trkpt>
      <trkpt lat="43.53748" lon="3.85668">
        <ele>14.44</ele>
        <time>2019-05-31T10:16:21.000Z</time>
      </trkpt>
      <trkpt lat="43.53726" lon="3.8569">
        <ele>14.68</ele>
        <time>2019-05-31T10:16:26.000Z</time>
      </trkpt>
      <trkpt lat="43.53712" lon="3.857">
        <ele>14.74</ele>
        <time>2019-05-31T10:16:31.000Z</time>
      </trkpt>
      <trkpt lat="43.53699" lon="3.8572">
        <ele>15.66</ele>
        <time>2019-05-31T10:16:36.000Z</time>
      </trkpt>
      <trkpt lat="43.53681" lon="3.85741">
        <ele>15.45</ele>
        <time>2019-05-31T10:16:41.000Z</time>
      </trkpt>
      <trkpt lat="43.53661" lon="3.85761">
        <ele>13.74</ele>
        <time>2019-05-31T10:16:46.000Z</time>
      </trkpt>
      <trkpt lat="43.53642" lon="3.85782">
        <ele>13.68</ele>
        <time>2019-05-31T10:16:51.000Z</time>
      </trkpt>
      <trkpt lat="43.53621" lon="3.85805">
        <ele>14.68</ele>
        <time>2019-05-31T10:16:56.000Z</time>
      </trkpt>
      <trkpt lat="43.53601" lon="3.85817">
        <ele>17.12</ele>
        <time>2019-05-31T10:17:01.000Z</time>
      </trkpt>
      <trkpt lat="43.53587" lon="3.85833">
        <ele>16.69</ele>
        <time>2019-05-31T10:17:06.000Z</time>
      </trkpt>
      <trkpt lat="43.53586" lon="3.85853">
        <ele>15.23</ele>
        <time>2019-05-31T10:17:11.000Z</time>
      </trkpt>
      <trkpt lat="43.53571" lon="3.85869">
        <ele>16.44</ele>
        <time>2019-05-31T10:17:16.000Z</time>
      </trkpt>
      <trkpt lat="43.53552" lon="3.8589">
        <ele>15.94</ele>
        <time>2019-05-31T10:17:21.000Z</time>
      </trkpt>
      <trkpt lat="43.53528" lon="3.85918">
        <ele>15</ele>
        <time>2019-05-31T10:17:26.000Z</time>
      </trkpt>
      <trkpt lat="43.53503" lon="3.85943">
        <ele>14.7</ele>
        <time>2019-05-31T10:17:31.000Z</time>
      </trkpt>
      <trkpt lat="43.53479" lon="3.85971">
        <ele>14.68</ele>
        <time>2019-05-31T10:17:36.000Z</time>
      </trkpt>
      <trkpt lat="43.53456" lon="3.85997">
        <ele>13.74</ele>
        <time>2019-05-31T10:17:41.000Z</time>
      </trkpt>
      <trkpt lat="43.53431" lon="3.86023">
        <ele>13.5</ele>
        <time>2019-05-31T10:17:46.000Z</time>
      </trkpt>
      <trkpt lat="43.53411" lon="3.86049">
        <ele>13.45</ele>
        <time>2019-05-31T10:17:51.000Z</time>
      </trkpt>
      <trkpt lat="43.53392" lon="3.86072">
        <ele>11.95</ele>
        <time>2019-05-31T10:17:56.000Z</time>
      </trkpt>
      <trkpt lat="43.53372" lon="3.86098">
        <ele>10.75</ele>
        <time>2019-05-31T10:18:01.000Z</time>
      </trkpt>
      <trkpt lat="43.53353" lon="3.86124">
        <ele>8.94</ele>
        <time>2019-05-31T10:18:06.000Z</time>
      </trkpt>
      <trkpt lat="43.53335" lon="3.86145">
        <ele>9.62</ele>
        <time>2019-05-31T10:18:11.000Z</time>
      </trkpt>
      <trkpt lat="43.53324" lon="3.86154">
        <ele>11.43</ele>
        <time>2019-05-31T10:18:16.000Z</time>
      </trkpt>
      <trkpt lat="43.53314" lon="3.86157">
        <ele>9.75</ele>
        <time>2019-05-31T10:18:21.000Z</time>
      </trkpt>
      <trkpt lat="43.53316" lon="3.86171">
        <ele>5.69</ele>
        <time>2019-05-31T10:22:24.000Z</time>
      </trkpt>
      <trkpt lat="43.53312" lon="3.86183">
        <ele>6.63</ele>
        <time>2019-05-31T10:22:30.000Z</time>
      </trkpt>
      <trkpt lat="43.53304" lon="3.86191">
        <ele>8.86</ele>
        <time>2019-05-31T10:22:35.000Z</time>
      </trkpt>
      <trkpt lat="43.53297" lon="3.86202">
        <ele>11.62</ele>
        <time>2019-05-31T10:22:40.000Z</time>
      </trkpt>
      <trkpt lat="43.53286" lon="3.86213">
        <ele>10.69</ele>
        <time>2019-05-31T10:22:45.000Z</time>
      </trkpt>
      <trkpt lat="43.53277" lon="3.86223">
        <ele>12.67</ele>
        <time>2019-05-31T10:22:50.000Z</time>
      </trkpt>
      <trkpt lat="43.53272" lon="3.86233">
        <ele>12.69</ele>
        <time>2019-05-31T10:22:57.000Z</time>
      </trkpt>
      <trkpt lat="43.53265" lon="3.86244">
        <ele>11.93</ele>
        <time>2019-05-31T10:23:05.000Z</time>
      </trkpt>
      <trkpt lat="43.53257" lon="3.8625">
        <ele>12.38</ele>
        <time>2019-05-31T10:23:11.000Z</time>
      </trkpt>
      <trkpt lat="43.53245" lon="3.86261">
        <ele>11.19</ele>
        <time>2019-05-31T10:23:16.000Z</time>
      </trkpt>
      <trkpt lat="43.53234" lon="3.8627">
        <ele>8.94</ele>
        <time>2019-05-31T10:23:21.000Z</time>
      </trkpt>
      <trkpt lat="43.53221" lon="3.86282">
        <ele>9.73</ele>
        <time>2019-05-31T10:23:26.000Z</time>
      </trkpt>
      <trkpt lat="43.53212" lon="3.8629">
        <ele>8.71</ele>
        <time>2019-05-31T10:23:31.000Z</time>
      </trkpt>
      <trkpt lat="43.53204" lon="3.86296">
        <ele>8.19</ele>
        <time>2019-05-31T10:23:38.000Z</time>
      </trkpt>
      <trkpt lat="43.53194" lon="3.86296">
        <ele>14.37</ele>
        <time>2019-05-31T10:23:43.000Z</time>
      </trkpt>
      <trkpt lat="43.53181" lon="3.86305">
        <ele>14.71</ele>
        <time>2019-05-31T10:23:48.000Z</time>
      </trkpt>
      <trkpt lat="43.53175" lon="3.86318">
        <ele>10.46</ele>
        <time>2019-05-31T10:23:54.000Z</time>
      </trkpt>
      <trkpt lat="43.53165" lon="3.86329">
        <ele>10.49</ele>
        <time>2019-05-31T10:23:59.000Z</time>
      </trkpt>
      <trkpt lat="43.53156" lon="3.8634">
        <ele>10.64</ele>
        <time>2019-05-31T10:24:04.000Z</time>
      </trkpt>
      <trkpt lat="43.5316" lon="3.86354">
        <ele>8.76</ele>
        <time>2019-05-31T10:24:09.000Z</time>
      </trkpt>
      <trkpt lat="43.53169" lon="3.8637">
        <ele>8.69</ele>
        <time>2019-05-31T10:24:14.000Z</time>
      </trkpt>
      <trkpt lat="43.53168" lon="3.86387">
        <ele>8.69</ele>
        <time>2019-05-31T10:24:19.000Z</time>
      </trkpt>
      <trkpt lat="43.53157" lon="3.86402">
        <ele>9.69</ele>
        <time>2019-05-31T10:24:24.000Z</time>
      </trkpt>
      <trkpt lat="43.53146" lon="3.86415">
        <ele>8.7</ele>
        <time>2019-05-31T10:24:29.000Z</time>
      </trkpt>
      <trkpt lat="43.53155" lon="3.86407">
        <ele>6.69</ele>
        <time>2019-05-31T10:24:41.000Z</time>
      </trkpt>
      <trkpt lat="43.53164" lon="3.86391">
        <ele>5.51</ele>
        <time>2019-05-31T10:24:46.000Z</time>
      </trkpt>
      <trkpt lat="43.53173" lon="3.86376">
        <ele>4.7</ele>
        <time>2019-05-31T10:24:51.000Z</time>
      </trkpt>
      <trkpt lat="43.53174" lon="3.86359">
        <ele>4.7</ele>
        <time>2019-05-31T10:24:56.000Z</time>
      </trkpt>
      <trkpt lat="43.53163" lon="3.86343">
        <ele>5.69</ele>
        <time>2019-05-31T10:25:01.000Z</time>
      </trkpt>
      <trkpt lat="43.53171" lon="3.86327">
        <ele>8.36</ele>
        <time>2019-05-31T10:25:06.000Z</time>
      </trkpt>
      <trkpt lat="43.53179" lon="3.8631">
        <ele>6.96</ele>
        <time>2019-05-31T10:25:11.000Z</time>
      </trkpt>
      <trkpt lat="43.53169" lon="3.86293">
        <ele>6.69</ele>
        <time>2019-05-31T10:25:16.000Z</time>
      </trkpt>
      <trkpt lat="43.53162" lon="3.86282">
        <ele>7.67</ele>
        <time>2019-05-31T10:25:21.000Z</time>
      </trkpt>
      <trkpt lat="43.53157" lon="3.86271">
        <ele>7.63</ele>
        <time>2019-05-31T10:25:26.000Z</time>
      </trkpt>
      <trkpt lat="43.53149" lon="3.86255">
        <ele>7.63</ele>
        <time>2019-05-31T10:25:31.000Z</time>
      </trkpt>
      <trkpt lat="43.53144" lon="3.86235">
        <ele>5.71</ele>
        <time>2019-05-31T10:25:36.000Z</time>
      </trkpt>
      <trkpt lat="43.53138" lon="3.86212">
        <ele>5.69</ele>
        <time>2019-05-31T10:25:41.000Z</time>
      </trkpt>
      <trkpt lat="43.53134" lon="3.86199">
        <ele>5.68</ele>
        <time>2019-05-31T10:25:47.000Z</time>
      </trkpt>
      <trkpt lat="43.53132" lon="3.86186">
        <ele>5.69</ele>
        <time>2019-05-31T10:25:52.000Z</time>
      </trkpt>
      <trkpt lat="43.53127" lon="3.86171">
        <ele>4.69</ele>
        <time>2019-05-31T10:25:57.000Z</time>
      </trkpt>
      <trkpt lat="43.53124" lon="3.86159">
        <ele>4.44</ele>
        <time>2019-05-31T10:26:03.000Z</time>
      </trkpt>
      <trkpt lat="43.5312" lon="3.86147">
        <ele>5.62</ele>
        <time>2019-05-31T10:26:23.000Z</time>
      </trkpt>
      <trkpt lat="43.53112" lon="3.86124">
        <ele>5.69</ele>
        <time>2019-05-31T10:26:28.000Z</time>
      </trkpt>
      <trkpt lat="43.53105" lon="3.86099">
        <ele>5.88</ele>
        <time>2019-05-31T10:26:33.000Z</time>
      </trkpt>
      <trkpt lat="43.53099" lon="3.86072">
        <ele>4.69</ele>
        <time>2019-05-31T10:26:38.000Z</time>
      </trkpt>
      <trkpt lat="43.53095" lon="3.86044">
        <ele>4.68</ele>
        <time>2019-05-31T10:26:43.000Z</time>
      </trkpt>
      <trkpt lat="43.53089" lon="3.86016">
        <ele>4.69</ele>
        <time>2019-05-31T10:26:48.000Z</time>
      </trkpt>
      <trkpt lat="43.53083" lon="3.85989">
        <ele>5.67</ele>
        <time>2019-05-31T10:26:53.000Z</time>
      </trkpt>
      <trkpt lat="43.53078" lon="3.85962">
        <ele>5.69</ele>
        <time>2019-05-31T10:26:58.000Z</time>
      </trkpt>
      <trkpt lat="43.53074" lon="3.85973">
        <ele>6.76</ele>
        <time>2019-05-31T10:27:06.000Z</time>
      </trkpt>
      <trkpt lat="43.53084" lon="3.8601">
        <ele>6.69</ele>
        <time>2019-05-31T10:27:11.000Z</time>
      </trkpt>
      <trkpt lat="43.5309" lon="3.86042">
        <ele>4.77</ele>
        <time>2019-05-31T10:27:16.000Z</time>
      </trkpt>
      <trkpt lat="43.53097" lon="3.86073">
        <ele>4.46</ele>
        <time>2019-05-31T10:27:21.000Z</time>
      </trkpt>
      <trkpt lat="43.53105" lon="3.86099">
        <ele>2.94</ele>
        <time>2019-05-31T10:27:26.000Z</time>
      </trkpt>
      <trkpt lat="43.53111" lon="3.86117">
        <ele>5.61</ele>
        <time>2019-05-31T10:27:31.000Z</time>
      </trkpt>
      <trkpt lat="43.53116" lon="3.86136">
        <ele>4.94</ele>
        <time>2019-05-31T10:27:36.000Z</time>
      </trkpt>
      <trkpt lat="43.53121" lon="3.86156">
        <ele>6.67</ele>
        <time>2019-05-31T10:27:41.000Z</time>
      </trkpt>
      <trkpt lat="43.53125" lon="3.86172">
        <ele>7.5</ele>
        <time>2019-05-31T10:27:46.000Z</time>
      </trkpt>
      <trkpt lat="43.53131" lon="3.86187">
        <ele>6.69</ele>
        <time>2019-05-31T10:27:51.000Z</time>
      </trkpt>
      <trkpt lat="43.53136" lon="3.862">
        <ele>6.44</ele>
        <time>2019-05-31T10:27:56.000Z</time>
      </trkpt>
      <trkpt lat="43.53141" lon="3.86219">
        <ele>5.52</ele>
        <time>2019-05-31T10:28:01.000Z</time>
      </trkpt>
      <trkpt lat="43.53147" lon="3.86238">
        <ele>4.69</ele>
        <time>2019-05-31T10:28:06.000Z</time>
      </trkpt>
      <trkpt lat="43.53152" lon="3.86258">
        <ele>5.69</ele>
        <time>2019-05-31T10:28:11.000Z</time>
      </trkpt>
      <trkpt lat="43.53161" lon="3.86272">
        <ele>6.69</ele>
        <time>2019-05-31T10:28:16.000Z</time>
      </trkpt>
      <trkpt lat="43.53166" lon="3.86285">
        <ele>4.69</ele>
        <time>2019-05-31T10:28:23.000Z</time>
      </trkpt>
      <trkpt lat="43.53173" lon="3.86305">
        <ele>6.57</ele>
        <time>2019-05-31T10:28:28.000Z</time>
      </trkpt>
      <trkpt lat="43.53182" lon="3.86314">
        <ele>5.69</ele>
        <time>2019-05-31T10:28:33.000Z</time>
      </trkpt>
      <trkpt lat="43.53196" lon="3.86303">
        <ele>7.63</ele>
        <time>2019-05-31T10:28:38.000Z</time>
      </trkpt>
      <trkpt lat="43.53207" lon="3.86296">
        <ele>7.7</ele>
        <time>2019-05-31T10:28:43.000Z</time>
      </trkpt>
      <trkpt lat="43.53217" lon="3.86289">
        <ele>7.69</ele>
        <time>2019-05-31T10:28:48.000Z</time>
      </trkpt>
      <trkpt lat="43.53229" lon="3.8628">
        <ele>6.69</ele>
        <time>2019-05-31T10:28:53.000Z</time>
      </trkpt>
      <trkpt lat="43.5324" lon="3.86273">
        <ele>8.62</ele>
        <time>2019-05-31T10:28:58.000Z</time>
      </trkpt>
      <trkpt lat="43.53249" lon="3.86264">
        <ele>8.66</ele>
        <time>2019-05-31T10:29:03.000Z</time>
      </trkpt>
      <trkpt lat="43.53259" lon="3.86255">
        <ele>8.45</ele>
        <time>2019-05-31T10:29:08.000Z</time>
      </trkpt>
      <trkpt lat="43.53269" lon="3.86243">
        <ele>6.69</ele>
        <time>2019-05-31T10:29:13.000Z</time>
      </trkpt>
      <trkpt lat="43.53276" lon="3.86233">
        <ele>6.92</ele>
        <time>2019-05-31T10:29:18.000Z</time>
      </trkpt>
      <trkpt lat="43.53287" lon="3.8622">
        <ele>7.67</ele>
        <time>2019-05-31T10:29:23.000Z</time>
      </trkpt>
      <trkpt lat="43.53296" lon="3.86205">
        <ele>8.44</ele>
        <time>2019-05-31T10:29:28.000Z</time>
      </trkpt>
      <trkpt lat="43.53303" lon="3.86196">
        <ele>9.81</ele>
        <time>2019-05-31T10:29:34.000Z</time>
      </trkpt>
      <trkpt lat="43.53311" lon="3.86183">
        <ele>7.62</ele>
        <time>2019-05-31T10:29:43.000Z</time>
      </trkpt>
      <trkpt lat="43.53315" lon="3.86172">
        <ele>12.69</ele>
        <time>2019-05-31T10:34:45.000Z</time>
      </trkpt>
      <trkpt lat="43.53312" lon="3.86159">
        <ele>9.98</ele>
        <time>2019-05-31T10:34:52.000Z</time>
      </trkpt>
      <trkpt lat="43.5332" lon="3.86153">
        <ele>9.69</ele>
        <time>2019-05-31T10:35:16.000Z</time>
      </trkpt>
      <trkpt lat="43.53318" lon="3.86133">
        <ele>8.93</ele>
        <time>2019-05-31T10:35:21.000Z</time>
      </trkpt>
      <trkpt lat="43.53308" lon="3.86107">
        <ele>7.69</ele>
        <time>2019-05-31T10:35:26.000Z</time>
      </trkpt>
      <trkpt lat="43.53296" lon="3.86081">
        <ele>5.01</ele>
        <time>2019-05-31T10:35:31.000Z</time>
      </trkpt>
      <trkpt lat="43.53281" lon="3.86077">
        <ele>3.69</ele>
        <time>2019-05-31T10:35:36.000Z</time>
      </trkpt>
      <trkpt lat="43.53273" lon="3.86085">
        <ele>7.94</ele>
        <time>2019-05-31T10:38:54.000Z</time>
      </trkpt>
      <trkpt lat="43.5325" lon="3.86098">
        <ele>8.45</ele>
        <time>2019-05-31T10:38:59.000Z</time>
      </trkpt>
      <trkpt lat="43.53232" lon="3.86109">
        <ele>7.88</ele>
        <time>2019-05-31T10:39:04.000Z</time>
      </trkpt>
      <trkpt lat="43.53213" lon="3.86118">
        <ele>8.38</ele>
        <time>2019-05-31T10:39:09.000Z</time>
      </trkpt>
      <trkpt lat="43.53196" lon="3.86123">
        <ele>10.63</ele>
        <time>2019-05-31T10:39:14.000Z</time>
      </trkpt>
      <trkpt lat="43.53175" lon="3.86136">
        <ele>9.75</ele>
        <time>2019-05-31T10:39:19.000Z</time>
      </trkpt>
      <trkpt lat="43.53151" lon="3.86153">
        <ele>9.7</ele>
        <time>2019-05-31T10:39:24.000Z</time>
      </trkpt>
      <trkpt lat="43.5313" lon="3.86169">
        <ele>8.98</ele>
        <time>2019-05-31T10:39:29.000Z</time>
      </trkpt>
      <trkpt lat="43.5313" lon="3.86187">
        <ele>6.67</ele>
        <time>2019-05-31T10:39:34.000Z</time>
      </trkpt>
      <trkpt lat="43.53137" lon="3.86196">
        <ele>7.81</ele>
        <time>2019-05-31T10:39:51.000Z</time>
      </trkpt>
      <trkpt lat="43.53143" lon="3.86212">
        <ele>7.69</ele>
        <time>2019-05-31T10:39:56.000Z</time>
      </trkpt>
      <trkpt lat="43.53149" lon="3.86235">
        <ele>5.94</ele>
        <time>2019-05-31T10:40:01.000Z</time>
      </trkpt>
      <trkpt lat="43.53153" lon="3.86258">
        <ele>5.69</ele>
        <time>2019-05-31T10:40:06.000Z</time>
      </trkpt>
      <trkpt lat="43.53159" lon="3.86274">
        <ele>6.44</ele>
        <time>2019-05-31T10:40:11.000Z</time>
      </trkpt>
      <trkpt lat="43.53167" lon="3.86284">
        <ele>5.64</ele>
        <time>2019-05-31T10:40:19.000Z</time>
      </trkpt>
      <trkpt lat="43.53158" lon="3.86293">
        <ele>6.69</ele>
        <time>2019-05-31T10:40:25.000Z</time>
      </trkpt>
      <trkpt lat="43.5314" lon="3.86302">
        <ele>6.88</ele>
        <time>2019-05-31T10:40:30.000Z</time>
      </trkpt>
      <trkpt lat="43.53121" lon="3.86309">
        <ele>4.63</ele>
        <time>2019-05-31T10:40:35.000Z</time>
      </trkpt>
      <trkpt lat="43.53103" lon="3.86316">
        <ele>3.74</ele>
        <time>2019-05-31T10:40:40.000Z</time>
      </trkpt>
      <trkpt lat="43.53086" lon="3.86325">
        <ele>6.86</ele>
        <time>2019-05-31T10:40:45.000Z</time>
      </trkpt>
      <trkpt lat="43.5307" lon="3.86332">
        <ele>5.93</ele>
        <time>2019-05-31T10:40:50.000Z</time>
      </trkpt>
      <trkpt lat="43.5306" lon="3.86333">
        <ele>4.63</ele>
        <time>2019-05-31T10:41:15.000Z</time>
      </trkpt>
      <trkpt lat="43.53063" lon="3.86345">
        <ele>4.69</ele>
        <time>2019-05-31T10:41:20.000Z</time>
      </trkpt>
      <trkpt lat="43.53078" lon="3.86363">
        <ele>4.69</ele>
        <time>2019-05-31T10:41:25.000Z</time>
      </trkpt>
      <trkpt lat="43.53095" lon="3.86382">
        <ele>3.75</ele>
        <time>2019-05-31T10:41:30.000Z</time>
      </trkpt>
      <trkpt lat="43.53108" lon="3.864">
        <ele>3.75</ele>
        <time>2019-05-31T10:41:35.000Z</time>
      </trkpt>
      <trkpt lat="43.53124" lon="3.86424">
        <ele>2.94</ele>
        <time>2019-05-31T10:41:40.000Z</time>
      </trkpt>
      <trkpt lat="43.53124" lon="3.86442">
        <ele>3.69</ele>
        <time>2019-05-31T10:41:45.000Z</time>
      </trkpt>
      <trkpt lat="43.53112" lon="3.86458">
        <ele>4.68</ele>
        <time>2019-05-31T10:41:50.000Z</time>
      </trkpt>
      <trkpt lat="43.53096" lon="3.86472">
        <ele>4.7</ele>
        <time>2019-05-31T10:41:55.000Z</time>
      </trkpt>
      <trkpt lat="43.53089" lon="3.86493">
        <ele>3.93</ele>
        <time>2019-05-31T10:42:00.000Z</time>
      </trkpt>
      <trkpt lat="43.53102" lon="3.86514">
        <ele>4.69</ele>
        <time>2019-05-31T10:42:05.000Z</time>
      </trkpt>
      <trkpt lat="43.53116" lon="3.86535">
        <ele>3.7</ele>
        <time>2019-05-31T10:42:10.000Z</time>
      </trkpt>
      <trkpt lat="43.53127" lon="3.86554">
        <ele>3.69</ele>
        <time>2019-05-31T10:42:15.000Z</time>
      </trkpt>
      <trkpt lat="43.53123" lon="3.8654">
        <ele>3.69</ele>
        <time>2019-05-31T10:42:24.000Z</time>
      </trkpt>
      <trkpt lat="43.53109" lon="3.86518">
        <ele>3.65</ele>
        <time>2019-05-31T10:42:29.000Z</time>
      </trkpt>
      <trkpt lat="43.53097" lon="3.86498">
        <ele>3.69</ele>
        <time>2019-05-31T10:42:34.000Z</time>
      </trkpt>
      <trkpt lat="43.53091" lon="3.86477">
        <ele>3.63</ele>
        <time>2019-05-31T10:42:39.000Z</time>
      </trkpt>
      <trkpt lat="43.53106" lon="3.86459">
        <ele>3.45</ele>
        <time>2019-05-31T10:42:44.000Z</time>
      </trkpt>
      <trkpt lat="43.53121" lon="3.86446">
        <ele>5.86</ele>
        <time>2019-05-31T10:42:49.000Z</time>
      </trkpt>
      <trkpt lat="43.53129" lon="3.86434">
        <ele>6.69</ele>
        <time>2019-05-31T10:42:54.000Z</time>
      </trkpt>
      <trkpt lat="43.53129" lon="3.8642">
        <ele>4.75</ele>
        <time>2019-05-31T10:43:02.000Z</time>
      </trkpt>
      <trkpt lat="43.53118" lon="3.86402">
        <ele>3.71</ele>
        <time>2019-05-31T10:43:07.000Z</time>
      </trkpt>
      <trkpt lat="43.53107" lon="3.86386">
        <ele>3.69</ele>
        <time>2019-05-31T10:43:12.000Z</time>
      </trkpt>
      <trkpt lat="43.53094" lon="3.86375">
        <ele>3.63</ele>
        <time>2019-05-31T10:43:17.000Z</time>
      </trkpt>
      <trkpt lat="43.53082" lon="3.86362">
        <ele>3.63</ele>
        <time>2019-05-31T10:43:22.000Z</time>
      </trkpt>
      <trkpt lat="43.5307" lon="3.86347">
        <ele>2.75</ele>
        <time>2019-05-31T10:43:27.000Z</time>
      </trkpt>
      <trkpt lat="43.5306" lon="3.86333">
        <ele>2.7</ele>
        <time>2019-05-31T10:43:32.000Z</time>
      </trkpt>
      <trkpt lat="43.53055" lon="3.86343">
        <ele>3.94</ele>
        <time>2019-05-31T10:43:55.000Z</time>
      </trkpt>
      <trkpt lat="43.53039" lon="3.86361">
        <ele>2.71</ele>
        <time>2019-05-31T10:44:00.000Z</time>
      </trkpt>
      <trkpt lat="43.53023" lon="3.86379">
        <ele>4.63</ele>
        <time>2019-05-31T10:44:05.000Z</time>
      </trkpt>
      <trkpt lat="43.53006" lon="3.86397">
        <ele>3.94</ele>
        <time>2019-05-31T10:44:10.000Z</time>
      </trkpt>
      <trkpt lat="43.52988" lon="3.86414">
        <ele>4.89</ele>
        <time>2019-05-31T10:44:15.000Z</time>
      </trkpt>
      <trkpt lat="43.52974" lon="3.86432">
        <ele>4.69</ele>
        <time>2019-05-31T10:44:20.000Z</time>
      </trkpt>
      <trkpt lat="43.52961" lon="3.8645">
        <ele>5.43</ele>
        <time>2019-05-31T10:44:25.000Z</time>
      </trkpt>
      <trkpt lat="43.52945" lon="3.86467">
        <ele>7.68</ele>
        <time>2019-05-31T10:44:30.000Z</time>
      </trkpt>
      <trkpt lat="43.52929" lon="3.86487">
        <ele>6.76</ele>
        <time>2019-05-31T10:44:35.000Z</time>
      </trkpt>
      <trkpt lat="43.52912" lon="3.86504">
        <ele>6.46</ele>
        <time>2019-05-31T10:44:40.000Z</time>
      </trkpt>
      <trkpt lat="43.52895" lon="3.86524">
        <ele>6.68</ele>
        <time>2019-05-31T10:44:45.000Z</time>
      </trkpt>
      <trkpt lat="43.52877" lon="3.86545">
        <ele>4.76</ele>
        <time>2019-05-31T10:44:50.000Z</time>
      </trkpt>
      <trkpt lat="43.52859" lon="3.86568">
        <ele>5.68</ele>
        <time>2019-05-31T10:44:55.000Z</time>
      </trkpt>
      <trkpt lat="43.5284" lon="3.86591">
        <ele>5.7</ele>
        <time>2019-05-31T10:45:00.000Z</time>
      </trkpt>
      <trkpt lat="43.52825" lon="3.86615">
        <ele>3.72</ele>
        <time>2019-05-31T10:45:05.000Z</time>
      </trkpt>
      <trkpt lat="43.52806" lon="3.8664">
        <ele>3.7</ele>
        <time>2019-05-31T10:45:10.000Z</time>
      </trkpt>
      <trkpt lat="43.52788" lon="3.86664">
        <ele>4.88</ele>
        <time>2019-05-31T10:45:15.000Z</time>
      </trkpt>
      <trkpt lat="43.52768" lon="3.86686">
        <ele>5.45</ele>
        <time>2019-05-31T10:45:20.000Z</time>
      </trkpt>
      <trkpt lat="43.52748" lon="3.86711">
        <ele>3.95</ele>
        <time>2019-05-31T10:45:25.000Z</time>
      </trkpt>
      <trkpt lat="43.52728" lon="3.86736">
        <ele>3.94</ele>
        <time>2019-05-31T10:45:30.000Z</time>
      </trkpt>
      <trkpt lat="43.52707" lon="3.86759">
        <ele>3.7</ele>
        <time>2019-05-31T10:45:35.000Z</time>
      </trkpt>
      <trkpt lat="43.52685" lon="3.86781">
        <ele>3.7</ele>
        <time>2019-05-31T10:45:40.000Z</time>
      </trkpt>
      <trkpt lat="43.52663" lon="3.86805">
        <ele>3.65</ele>
        <time>2019-05-31T10:45:45.000Z</time>
      </trkpt>
      <trkpt lat="43.52643" lon="3.86828">
        <ele>3.65</ele>
        <time>2019-05-31T10:45:50.000Z</time>
      </trkpt>
      <trkpt lat="43.52622" lon="3.86852">
        <ele>3.7</ele>
        <time>2019-05-31T10:45:55.000Z</time>
      </trkpt>
      <trkpt lat="43.52603" lon="3.86874">
        <ele>3.51</ele>
        <time>2019-05-31T10:46:00.000Z</time>
      </trkpt>
      <trkpt lat="43.52583" lon="3.86898">
        <ele>3.7</ele>
        <time>2019-05-31T10:46:05.000Z</time>
      </trkpt>
      <trkpt lat="43.52563" lon="3.86922">
        <ele>3.7</ele>
        <time>2019-05-31T10:46:10.000Z</time>
      </trkpt>
      <trkpt lat="43.52543" lon="3.86945">
        <ele>3.7</ele>
        <time>2019-05-31T10:46:15.000Z</time>
      </trkpt>
      <trkpt lat="43.52524" lon="3.86969">
        <ele>3.7</ele>
        <time>2019-05-31T10:46:20.000Z</time>
      </trkpt>
      <trkpt lat="43.52504" lon="3.86997">
        <ele>2.89</ele>
        <time>2019-05-31T10:46:25.000Z</time>
      </trkpt>
      <trkpt lat="43.52483" lon="3.87025">
        <ele>3.66</ele>
        <time>2019-05-31T10:46:30.000Z</time>
      </trkpt>
      <trkpt lat="43.52461" lon="3.87054">
        <ele>1.96</ele>
        <time>2019-05-31T10:46:35.000Z</time>
      </trkpt>
      <trkpt lat="43.5244" lon="3.87082">
        <ele>2.7</ele>
        <time>2019-05-31T10:46:40.000Z</time>
      </trkpt>
      <trkpt lat="43.5242" lon="3.87111">
        <ele>2.7</ele>
        <time>2019-05-31T10:46:45.000Z</time>
      </trkpt>
      <trkpt lat="43.52401" lon="3.87137">
        <ele>1.96</ele>
        <time>2019-05-31T10:46:50.000Z</time>
      </trkpt>
      <trkpt lat="43.52385" lon="3.87166">
        <ele>0.77</ele>
        <time>2019-05-31T10:46:55.000Z</time>
      </trkpt>
      <trkpt lat="43.52369" lon="3.87196">
        <ele>2</ele>
        <time>2019-05-31T10:47:00.000Z</time>
      </trkpt>
      <trkpt lat="43.52355" lon="3.87224">
        <ele>2</ele>
        <time>2019-05-31T10:47:05.000Z</time>
      </trkpt>
      <trkpt lat="43.52347" lon="3.87247">
        <ele>0.64</ele>
        <time>2019-05-31T10:47:10.000Z</time>
      </trkpt>
      <trkpt lat="43.52351" lon="3.87266">
        <ele>2</ele>
        <time>2019-05-31T10:47:15.000Z</time>
      </trkpt>
      <trkpt lat="43.52348" lon="3.87283">
        <ele>3.38</ele>
        <time>2019-05-31T10:48:53.000Z</time>
      </trkpt>
      <trkpt lat="43.52359" lon="3.8727">
        <ele>1.28</ele>
        <time>2019-05-31T10:48:58.000Z</time>
      </trkpt>
      <trkpt lat="43.52392" lon="3.87289">
        <ele>2</ele>
        <time>2019-05-31T10:49:05.000Z</time>
      </trkpt>
      <trkpt lat="43.52363" lon="3.87278">
        <ele>2</ele>
        <time>2019-05-31T10:49:10.000Z</time>
      </trkpt>
      <trkpt lat="43.52357" lon="3.87267">
        <ele>0.89</ele>
        <time>2019-05-31T10:50:30.000Z</time>
      </trkpt>
      <trkpt lat="43.52347" lon="3.87269">
        <ele>2</ele>
        <time>2019-05-31T11:52:36.000Z</time>
      </trkpt>
      <trkpt lat="43.52347" lon="3.87252">
        <ele>4.71</ele>
        <time>2019-05-31T11:52:58.000Z</time>
      </trkpt>
      <trkpt lat="43.52351" lon="3.87263">
        <ele>2</ele>
        <time>2019-05-31T11:53:15.000Z</time>
      </trkpt>
      <trkpt lat="43.52353" lon="3.87277">
        <ele>4.69</ele>
        <time>2019-05-31T11:58:48.000Z</time>
      </trkpt>
      <trkpt lat="43.52344" lon="3.87285">
        <ele>4.71</ele>
        <time>2019-05-31T11:58:53.000Z</time>
      </trkpt>
      <trkpt lat="43.52333" lon="3.87294">
        <ele>3.96</ele>
        <time>2019-05-31T11:58:58.000Z</time>
      </trkpt>
      <trkpt lat="43.52326" lon="3.87316">
        <ele>3.71</ele>
        <time>2019-05-31T11:59:03.000Z</time>
      </trkpt>
      <trkpt lat="43.52318" lon="3.87342">
        <ele>2.96</ele>
        <time>2019-05-31T11:59:08.000Z</time>
      </trkpt>
      <trkpt lat="43.5231" lon="3.87369">
        <ele>2.71</ele>
        <time>2019-05-31T11:59:13.000Z</time>
      </trkpt>
      <trkpt lat="43.52299" lon="3.87391">
        <ele>1.96</ele>
        <time>2019-05-31T11:59:18.000Z</time>
      </trkpt>
      <trkpt lat="43.52284" lon="3.87411">
        <ele>0.72</ele>
        <time>2019-05-31T11:59:23.000Z</time>
      </trkpt>
      <trkpt lat="43.52269" lon="3.87428">
        <ele>1</ele>
        <time>2019-05-31T11:59:28.000Z</time>
      </trkpt>
      <trkpt lat="43.52255" lon="3.87442">
        <ele>1</ele>
        <time>2019-05-31T11:59:33.000Z</time>
      </trkpt>
      <trkpt lat="43.5224" lon="3.87456">
        <ele>0.7</ele>
        <time>2019-05-31T11:59:38.000Z</time>
      </trkpt>
      <trkpt lat="43.52226" lon="3.87472">
        <ele>1.69</ele>
        <time>2019-05-31T11:59:43.000Z</time>
      </trkpt>
      <trkpt lat="43.52211" lon="3.87489">
        <ele>3.44</ele>
        <time>2019-05-31T11:59:48.000Z</time>
      </trkpt>
      <trkpt lat="43.52197" lon="3.87505">
        <ele>3.64</ele>
        <time>2019-05-31T11:59:53.000Z</time>
      </trkpt>
      <trkpt lat="43.52181" lon="3.87519">
        <ele>3.52</ele>
        <time>2019-05-31T11:59:58.000Z</time>
      </trkpt>
      <trkpt lat="43.52166" lon="3.87534">
        <ele>3.77</ele>
        <time>2019-05-31T12:00:03.000Z</time>
      </trkpt>
      <trkpt lat="43.52152" lon="3.87549">
        <ele>3.71</ele>
        <time>2019-05-31T12:00:08.000Z</time>
      </trkpt>
      <trkpt lat="43.52137" lon="3.87564">
        <ele>4.7</ele>
        <time>2019-05-31T12:00:13.000Z</time>
      </trkpt>
      <trkpt lat="43.52123" lon="3.87579">
        <ele>3.71</ele>
        <time>2019-05-31T12:00:18.000Z</time>
      </trkpt>
      <trkpt lat="43.52107" lon="3.87596">
        <ele>2.96</ele>
        <time>2019-05-31T12:00:23.000Z</time>
      </trkpt>
      <trkpt lat="43.5209" lon="3.87613">
        <ele>2.71</ele>
        <time>2019-05-31T12:00:28.000Z</time>
      </trkpt>
      <trkpt lat="43.52073" lon="3.87631">
        <ele>2.71</ele>
        <time>2019-05-31T12:00:33.000Z</time>
      </trkpt>
      <trkpt lat="43.52056" lon="3.8765">
        <ele>2.7</ele>
        <time>2019-05-31T12:00:38.000Z</time>
      </trkpt>
      <trkpt lat="43.52039" lon="3.87667">
        <ele>2.71</ele>
        <time>2019-05-31T12:00:43.000Z</time>
      </trkpt>
      <trkpt lat="43.52023" lon="3.87684">
        <ele>1.72</ele>
        <time>2019-05-31T12:00:48.000Z</time>
      </trkpt>
      <trkpt lat="43.52008" lon="3.877">
        <ele>3.4</ele>
        <time>2019-05-31T12:00:53.000Z</time>
      </trkpt>
      <trkpt lat="43.51993" lon="3.87717">
        <ele>3.71</ele>
        <time>2019-05-31T12:00:58.000Z</time>
      </trkpt>
      <trkpt lat="43.5198" lon="3.87731">
        <ele>2.71</ele>
        <time>2019-05-31T12:01:03.000Z</time>
      </trkpt>
      <trkpt lat="43.51963" lon="3.87747">
        <ele>1.95</ele>
        <time>2019-05-31T12:01:08.000Z</time>
      </trkpt>
      <trkpt lat="43.51944" lon="3.87767">
        <ele>2.66</ele>
        <time>2019-05-31T12:01:13.000Z</time>
      </trkpt>
      <trkpt lat="43.51928" lon="3.87784">
        <ele>1.72</ele>
        <time>2019-05-31T12:01:18.000Z</time>
      </trkpt>
      <trkpt lat="43.51912" lon="3.87801">
        <ele>1.71</ele>
        <time>2019-05-31T12:01:23.000Z</time>
      </trkpt>
      <trkpt lat="43.51895" lon="3.87818">
        <ele>1.72</ele>
        <time>2019-05-31T12:01:28.000Z</time>
      </trkpt>
      <trkpt lat="43.51879" lon="3.87835">
        <ele>1.72</ele>
        <time>2019-05-31T12:01:33.000Z</time>
      </trkpt>
      <trkpt lat="43.51863" lon="3.87851">
        <ele>1</ele>
        <time>2019-05-31T12:01:38.000Z</time>
      </trkpt>
      <trkpt lat="43.51846" lon="3.87869">
        <ele>0.76</ele>
        <time>2019-05-31T12:01:43.000Z</time>
      </trkpt>
      <trkpt lat="43.51831" lon="3.87885">
        <ele>0.7</ele>
        <time>2019-05-31T12:01:48.000Z</time>
      </trkpt>
      <trkpt lat="43.51816" lon="3.87901">
        <ele>0.72</ele>
        <time>2019-05-31T12:01:53.000Z</time>
      </trkpt>
      <trkpt lat="43.51801" lon="3.87918">
        <ele>1</ele>
        <time>2019-05-31T12:01:58.000Z</time>
      </trkpt>
      <trkpt lat="43.51786" lon="3.87937">
        <ele>1</ele>
        <time>2019-05-31T12:02:03.000Z</time>
      </trkpt>
      <trkpt lat="43.51773" lon="3.87957">
        <ele>1</ele>
        <time>2019-05-31T12:02:08.000Z</time>
      </trkpt>
      <trkpt lat="43.5176" lon="3.87978">
        <ele>1</ele>
        <time>2019-05-31T12:02:13.000Z</time>
      </trkpt>
      <trkpt lat="43.51748" lon="3.87997">
        <ele>1</ele>
        <time>2019-05-31T12:02:18.000Z</time>
      </trkpt>
      <trkpt lat="43.51737" lon="3.88015">
        <ele>0.7</ele>
        <time>2019-05-31T12:02:23.000Z</time>
      </trkpt>
      <trkpt lat="43.51729" lon="3.8803">
        <ele>2.45</ele>
        <time>2019-05-31T12:02:28.000Z</time>
      </trkpt>
      <trkpt lat="43.51725" lon="3.88043">
        <ele>2.49</ele>
        <time>2019-05-31T12:02:53.000Z</time>
      </trkpt>
      <trkpt lat="43.51715" lon="3.88048">
        <ele>1.72</ele>
        <time>2019-05-31T12:03:00.000Z</time>
      </trkpt>
      <trkpt lat="43.51707" lon="3.88054">
        <ele>1</ele>
        <time>2019-05-31T12:03:06.000Z</time>
      </trkpt>
      <trkpt lat="43.51698" lon="3.8806">
        <ele>1</ele>
        <time>2019-05-31T12:03:13.000Z</time>
      </trkpt>
      <trkpt lat="43.5169" lon="3.88067">
        <ele>1</ele>
        <time>2019-05-31T12:03:19.000Z</time>
      </trkpt>
      <trkpt lat="43.51682" lon="3.88076">
        <ele>1</ele>
        <time>2019-05-31T12:03:26.000Z</time>
      </trkpt>
      <trkpt lat="43.51674" lon="3.8808">
        <ele>1</ele>
        <time>2019-05-31T12:03:32.000Z</time>
      </trkpt>
      <trkpt lat="43.51665" lon="3.88074">
        <ele>3.47</ele>
        <time>2019-05-31T12:05:16.000Z</time>
      </trkpt>
      <trkpt lat="43.51662" lon="3.88059">
        <ele>3.72</ele>
        <time>2019-05-31T12:05:21.000Z</time>
      </trkpt>
      <trkpt lat="43.51656" lon="3.88043">
        <ele>4.47</ele>
        <time>2019-05-31T12:05:26.000Z</time>
      </trkpt>
      <trkpt lat="43.51647" lon="3.88027">
        <ele>4.72</ele>
        <time>2019-05-31T12:05:31.000Z</time>
      </trkpt>
      <trkpt lat="43.51638" lon="3.88012">
        <ele>3.97</ele>
        <time>2019-05-31T12:05:36.000Z</time>
      </trkpt>
      <trkpt lat="43.51634" lon="3.87999">
        <ele>6.61</ele>
        <time>2019-05-31T12:06:23.000Z</time>
      </trkpt>
      <trkpt lat="43.51626" lon="3.87985">
        <ele>5.53</ele>
        <time>2019-05-31T12:06:28.000Z</time>
      </trkpt>
      <trkpt lat="43.51619" lon="3.87971">
        <ele>4.92</ele>
        <time>2019-05-31T12:06:33.000Z</time>
      </trkpt>
      <trkpt lat="43.51608" lon="3.87957">
        <ele>2.97</ele>
        <time>2019-05-31T12:06:38.000Z</time>
      </trkpt>
      <trkpt lat="43.51598" lon="3.87941">
        <ele>2.97</ele>
        <time>2019-05-31T12:06:43.000Z</time>
      </trkpt>
      <trkpt lat="43.51587" lon="3.87924">
        <ele>2.72</ele>
        <time>2019-05-31T12:06:48.000Z</time>
      </trkpt>
      <trkpt lat="43.51573" lon="3.87904">
        <ele>1.72</ele>
        <time>2019-05-31T12:06:53.000Z</time>
      </trkpt>
      <trkpt lat="43.51558" lon="3.87885">
        <ele>1.53</ele>
        <time>2019-05-31T12:06:58.000Z</time>
      </trkpt>
      <trkpt lat="43.51548" lon="3.87865">
        <ele>2.7</ele>
        <time>2019-05-31T12:07:03.000Z</time>
      </trkpt>
      <trkpt lat="43.51537" lon="3.8785">
        <ele>2.77</ele>
        <time>2019-05-31T12:07:08.000Z</time>
      </trkpt>
      <trkpt lat="43.51524" lon="3.87834">
        <ele>2.72</ele>
        <time>2019-05-31T12:07:13.000Z</time>
      </trkpt>
      <trkpt lat="43.5151" lon="3.87815">
        <ele>2.72</ele>
        <time>2019-05-31T12:07:18.000Z</time>
      </trkpt>
      <trkpt lat="43.51495" lon="3.87796">
        <ele>2.72</ele>
        <time>2019-05-31T12:07:23.000Z</time>
      </trkpt>
      <trkpt lat="43.5148" lon="3.87777">
        <ele>1.72</ele>
        <time>2019-05-31T12:07:28.000Z</time>
      </trkpt>
      <trkpt lat="43.51464" lon="3.87757">
        <ele>2.47</ele>
        <time>2019-05-31T12:07:33.000Z</time>
      </trkpt>
      <trkpt lat="43.51449" lon="3.87736">
        <ele>1.72</ele>
        <time>2019-05-31T12:07:38.000Z</time>
      </trkpt>
      <trkpt lat="43.51434" lon="3.87715">
        <ele>2.72</ele>
        <time>2019-05-31T12:07:43.000Z</time>
      </trkpt>
      <trkpt lat="43.51419" lon="3.87694">
        <ele>3.66</ele>
        <time>2019-05-31T12:07:48.000Z</time>
      </trkpt>
      <trkpt lat="43.51403" lon="3.87675">
        <ele>2.78</ele>
        <time>2019-05-31T12:07:53.000Z</time>
      </trkpt>
      <trkpt lat="43.51387" lon="3.87655">
        <ele>2.72</ele>
        <time>2019-05-31T12:07:58.000Z</time>
      </trkpt>
      <trkpt lat="43.51372" lon="3.87637">
        <ele>2.96</ele>
        <time>2019-05-31T12:08:03.000Z</time>
      </trkpt>
      <trkpt lat="43.51357" lon="3.87618">
        <ele>1.97</ele>
        <time>2019-05-31T12:08:08.000Z</time>
      </trkpt>
      <trkpt lat="43.51342" lon="3.87599">
        <ele>1.72</ele>
        <time>2019-05-31T12:08:13.000Z</time>
      </trkpt>
      <trkpt lat="43.51327" lon="3.87578">
        <ele>1.72</ele>
        <time>2019-05-31T12:08:18.000Z</time>
      </trkpt>
      <trkpt lat="43.51313" lon="3.87558">
        <ele>1.72</ele>
        <time>2019-05-31T12:08:23.000Z</time>
      </trkpt>
      <trkpt lat="43.51298" lon="3.87537">
        <ele>0.97</ele>
        <time>2019-05-31T12:08:28.000Z</time>
      </trkpt>
      <trkpt lat="43.51284" lon="3.87521">
        <ele>0.91</ele>
        <time>2019-05-31T12:08:33.000Z</time>
      </trkpt>
      <trkpt lat="43.5127" lon="3.87502">
        <ele>2.47</ele>
        <time>2019-05-31T12:08:38.000Z</time>
      </trkpt>
      <trkpt lat="43.51255" lon="3.87485">
        <ele>2.72</ele>
        <time>2019-05-31T12:08:43.000Z</time>
      </trkpt>
      <trkpt lat="43.51241" lon="3.87466">
        <ele>2.73</ele>
        <time>2019-05-31T12:08:48.000Z</time>
      </trkpt>
      <trkpt lat="43.51227" lon="3.87447">
        <ele>2.72</ele>
        <time>2019-05-31T12:08:53.000Z</time>
      </trkpt>
      <trkpt lat="43.51212" lon="3.87426">
        <ele>1.97</ele>
        <time>2019-05-31T12:08:59.000Z</time>
      </trkpt>
      <trkpt lat="43.51199" lon="3.87408">
        <ele>1.72</ele>
        <time>2019-05-31T12:09:04.000Z</time>
      </trkpt>
      <trkpt lat="43.51186" lon="3.87391">
        <ele>2.72</ele>
        <time>2019-05-31T12:09:09.000Z</time>
      </trkpt>
      <trkpt lat="43.51172" lon="3.87373">
        <ele>1.74</ele>
        <time>2019-05-31T12:09:14.000Z</time>
      </trkpt>
      <trkpt lat="43.51157" lon="3.87357">
        <ele>1.72</ele>
        <time>2019-05-31T12:09:19.000Z</time>
      </trkpt>
      <trkpt lat="43.51144" lon="3.87337">
        <ele>1.72</ele>
        <time>2019-05-31T12:09:24.000Z</time>
      </trkpt>
      <trkpt lat="43.5113" lon="3.87317">
        <ele>1.71</ele>
        <time>2019-05-31T12:09:29.000Z</time>
      </trkpt>
      <trkpt lat="43.51116" lon="3.87298">
        <ele>2.71</ele>
        <time>2019-05-31T12:09:34.000Z</time>
      </trkpt>
      <trkpt lat="43.51102" lon="3.8728">
        <ele>3.66</ele>
        <time>2019-05-31T12:09:39.000Z</time>
      </trkpt>
      <trkpt lat="43.51086" lon="3.87262">
        <ele>2.77</ele>
        <time>2019-05-31T12:09:44.000Z</time>
      </trkpt>
      <trkpt lat="43.51071" lon="3.87243">
        <ele>1.79</ele>
        <time>2019-05-31T12:09:49.000Z</time>
      </trkpt>
      <trkpt lat="43.51056" lon="3.87223">
        <ele>2.66</ele>
        <time>2019-05-31T12:09:54.000Z</time>
      </trkpt>
      <trkpt lat="43.51041" lon="3.87205">
        <ele>2.72</ele>
        <time>2019-05-31T12:09:59.000Z</time>
      </trkpt>
      <trkpt lat="43.51026" lon="3.87186">
        <ele>1.97</ele>
        <time>2019-05-31T12:10:04.000Z</time>
      </trkpt>
      <trkpt lat="43.51012" lon="3.87166">
        <ele>2.49</ele>
        <time>2019-05-31T12:10:09.000Z</time>
      </trkpt>
      <trkpt lat="43.50997" lon="3.87145">
        <ele>2.72</ele>
        <time>2019-05-31T12:10:14.000Z</time>
      </trkpt>
      <trkpt lat="43.50981" lon="3.87125">
        <ele>3.66</ele>
        <time>2019-05-31T12:10:19.000Z</time>
      </trkpt>
      <trkpt lat="43.50966" lon="3.87104">
        <ele>1.98</ele>
        <time>2019-05-31T12:10:24.000Z</time>
      </trkpt>
      <trkpt lat="43.5095" lon="3.87084">
        <ele>1.73</ele>
        <time>2019-05-31T12:10:29.000Z</time>
      </trkpt>
      <trkpt lat="43.50934" lon="3.87064">
        <ele>2.48</ele>
        <time>2019-05-31T12:10:34.000Z</time>
      </trkpt>
      <trkpt lat="43.50918" lon="3.87044">
        <ele>2.68</ele>
        <time>2019-05-31T12:10:39.000Z</time>
      </trkpt>
      <trkpt lat="43.50902" lon="3.87023">
        <ele>2.74</ele>
        <time>2019-05-31T12:10:44.000Z</time>
      </trkpt>
      <trkpt lat="43.50888" lon="3.87003">
        <ele>1.73</ele>
        <time>2019-05-31T12:10:49.000Z</time>
      </trkpt>
      <trkpt lat="43.50875" lon="3.86981">
        <ele>2.71</ele>
        <time>2019-05-31T12:10:54.000Z</time>
      </trkpt>
      <trkpt lat="43.50865" lon="3.86967">
        <ele>3.48</ele>
        <time>2019-05-31T12:10:59.000Z</time>
      </trkpt>
      <trkpt lat="43.50858" lon="3.86959">
        <ele>4.72</ele>
        <time>2019-05-31T12:11:06.000Z</time>
      </trkpt>
      <trkpt lat="43.5085" lon="3.86951">
        <ele>4.71</ele>
        <time>2019-05-31T12:11:19.000Z</time>
      </trkpt>
      <trkpt lat="43.50836" lon="3.86927">
        <ele>3.79</ele>
        <time>2019-05-31T12:11:24.000Z</time>
      </trkpt>
      <trkpt lat="43.5082" lon="3.86905">
        <ele>4.73</ele>
        <time>2019-05-31T12:11:29.000Z</time>
      </trkpt>
      <trkpt lat="43.50802" lon="3.86884">
        <ele>4.48</ele>
        <time>2019-05-31T12:11:34.000Z</time>
      </trkpt>
      <trkpt lat="43.50786" lon="3.86862">
        <ele>3.74</ele>
        <time>2019-05-31T12:11:39.000Z</time>
      </trkpt>
      <trkpt lat="43.50769" lon="3.8684">
        <ele>2.79</ele>
        <time>2019-05-31T12:11:44.000Z</time>
      </trkpt>
      <trkpt lat="43.50753" lon="3.86819">
        <ele>3.72</ele>
        <time>2019-05-31T12:11:49.000Z</time>
      </trkpt>
      <trkpt lat="43.50736" lon="3.86798">
        <ele>2.73</ele>
        <time>2019-05-31T12:11:54.000Z</time>
      </trkpt>
      <trkpt lat="43.5072" lon="3.86778">
        <ele>1.73</ele>
        <time>2019-05-31T12:11:59.000Z</time>
      </trkpt>
      <trkpt lat="43.50706" lon="3.86757">
        <ele>0.92</ele>
        <time>2019-05-31T12:12:04.000Z</time>
      </trkpt>
      <trkpt lat="43.50691" lon="3.86738">
        <ele>1</ele>
        <time>2019-05-31T12:12:09.000Z</time>
      </trkpt>
      <trkpt lat="43.50675" lon="3.86718">
        <ele>0.71</ele>
        <time>2019-05-31T12:12:14.000Z</time>
      </trkpt>
      <trkpt lat="43.5066" lon="3.86697">
        <ele>0.71</ele>
        <time>2019-05-31T12:12:19.000Z</time>
      </trkpt>
      <trkpt lat="43.50646" lon="3.86677">
        <ele>0.73</ele>
        <time>2019-05-31T12:12:24.000Z</time>
      </trkpt>
      <trkpt lat="43.5063" lon="3.86658">
        <ele>0.73</ele>
        <time>2019-05-31T12:12:29.000Z</time>
      </trkpt>
      <trkpt lat="43.50614" lon="3.86638">
        <ele>1</ele>
        <time>2019-05-31T12:12:34.000Z</time>
      </trkpt>
      <trkpt lat="43.50598" lon="3.86618">
        <ele>1</ele>
        <time>2019-05-31T12:12:39.000Z</time>
      </trkpt>
      <trkpt lat="43.50582" lon="3.86599">
        <ele>1</ele>
        <time>2019-05-31T12:12:44.000Z</time>
      </trkpt>
      <trkpt lat="43.50567" lon="3.86579">
        <ele>1</ele>
        <time>2019-05-31T12:12:49.000Z</time>
      </trkpt>
      <trkpt lat="43.50553" lon="3.8656">
        <ele>1</ele>
        <time>2019-05-31T12:12:54.000Z</time>
      </trkpt>
      <trkpt lat="43.50539" lon="3.86541">
        <ele>1</ele>
        <time>2019-05-31T12:12:59.000Z</time>
      </trkpt>
      <trkpt lat="43.50524" lon="3.86523">
        <ele>0.48</ele>
        <time>2019-05-31T12:13:04.000Z</time>
      </trkpt>
      <trkpt lat="43.50509" lon="3.86502">
        <ele>1</ele>
        <time>2019-05-31T12:13:09.000Z</time>
      </trkpt>
      <trkpt lat="43.50495" lon="3.86484">
        <ele>0.73</ele>
        <time>2019-05-31T12:13:14.000Z</time>
      </trkpt>
      <trkpt lat="43.5048" lon="3.86465">
        <ele>1.73</ele>
        <time>2019-05-31T12:13:19.000Z</time>
      </trkpt>
      <trkpt lat="43.50465" lon="3.86445">
        <ele>1</ele>
        <time>2019-05-31T12:13:24.000Z</time>
      </trkpt>
      <trkpt lat="43.50449" lon="3.86426">
        <time>2019-05-31T12:13:29.000Z</time>
      </trkpt>
      <trkpt lat="43.50433" lon="3.86405">
        <ele>1</ele>
        <time>2019-05-31T12:13:34.000Z</time>
      </trkpt>
      <trkpt lat="43.50418" lon="3.86384">
        <ele>1</ele>
        <time>2019-05-31T12:13:39.000Z</time>
      </trkpt>
      <trkpt lat="43.50402" lon="3.86364">
        <ele>1.1</ele>
        <time>2019-05-31T12:13:44.000Z</time>
      </trkpt>
      <trkpt lat="43.50387" lon="3.86345">
        <ele>0.48</ele>
        <time>2019-05-31T12:13:49.000Z</time>
      </trkpt>
      <trkpt lat="43.50372" lon="3.86326">
        <ele>0.73</ele>
        <time>2019-05-31T12:13:54.000Z</time>
      </trkpt>
      <trkpt lat="43.50356" lon="3.86306">
        <ele>1</ele>
        <time>2019-05-31T12:13:59.000Z</time>
      </trkpt>
      <trkpt lat="43.50341" lon="3.86287">
        <ele>1</ele>
        <time>2019-05-31T12:14:04.000Z</time>
      </trkpt>
      <trkpt lat="43.50326" lon="3.86267">
        <ele>1</ele>
        <time>2019-05-31T12:14:09.000Z</time>
      </trkpt>
      <trkpt lat="43.5031" lon="3.86248">
        <ele>1</ele>
        <time>2019-05-31T12:14:14.000Z</time>
      </trkpt>
      <trkpt lat="43.50295" lon="3.86228">
        <ele>1</ele>
        <time>2019-05-31T12:14:19.000Z</time>
      </trkpt>
      <trkpt lat="43.5028" lon="3.86206">
        <ele>1</ele>
        <time>2019-05-31T12:14:24.000Z</time>
      </trkpt>
      <trkpt lat="43.50263" lon="3.86186">
        <ele>1</ele>
        <time>2019-05-31T12:14:29.000Z</time>
      </trkpt>
      <trkpt lat="43.50247" lon="3.86163">
        <ele>1</ele>
        <time>2019-05-31T12:14:34.000Z</time>
      </trkpt>
      <trkpt lat="43.50231" lon="3.86143">
        <ele>1</ele>
        <time>2019-05-31T12:14:39.000Z</time>
      </trkpt>
      <trkpt lat="43.50215" lon="3.86123">
        <ele>1</ele>
        <time>2019-05-31T12:14:44.000Z</time>
      </trkpt>
      <trkpt lat="43.502" lon="3.86103">
        <ele>1</ele>
        <time>2019-05-31T12:14:49.000Z</time>
      </trkpt>
      <trkpt lat="43.50183" lon="3.86085">
        <ele>1</ele>
        <time>2019-05-31T12:14:54.000Z</time>
      </trkpt>
      <trkpt lat="43.50167" lon="3.86064">
        <ele>1</ele>
        <time>2019-05-31T12:14:59.000Z</time>
      </trkpt>
      <trkpt lat="43.50153" lon="3.86045">
        <ele>1</ele>
        <time>2019-05-31T12:15:04.000Z</time>
      </trkpt>
      <trkpt lat="43.50139" lon="3.86026">
        <ele>1.47</ele>
        <time>2019-05-31T12:15:09.000Z</time>
      </trkpt>
      <trkpt lat="43.50124" lon="3.86007">
        <ele>1.5</ele>
        <time>2019-05-31T12:15:14.000Z</time>
      </trkpt>
      <trkpt lat="43.5011" lon="3.85987">
        <ele>0.92</ele>
        <time>2019-05-31T12:15:19.000Z</time>
      </trkpt>
      <trkpt lat="43.50096" lon="3.85967">
        <ele>0.73</ele>
        <time>2019-05-31T12:15:24.000Z</time>
      </trkpt>
      <trkpt lat="43.50081" lon="3.85949">
        <ele>1.48</ele>
        <time>2019-05-31T12:15:29.000Z</time>
      </trkpt>
      <trkpt lat="43.50067" lon="3.85931">
        <ele>1.73</ele>
        <time>2019-05-31T12:15:34.000Z</time>
      </trkpt>
      <trkpt lat="43.50052" lon="3.85912">
        <ele>1.73</ele>
        <time>2019-05-31T12:15:39.000Z</time>
      </trkpt>
      <trkpt lat="43.50038" lon="3.85895">
        <ele>2.42</ele>
        <time>2019-05-31T12:15:44.000Z</time>
      </trkpt>
      <trkpt lat="43.50027" lon="3.8588">
        <ele>3.67</ele>
        <time>2019-05-31T12:15:49.000Z</time>
      </trkpt>
      <trkpt lat="43.5002" lon="3.85872">
        <ele>3.73</ele>
        <time>2019-05-31T12:15:54.000Z</time>
      </trkpt>
      <trkpt lat="43.50014" lon="3.85861">
        <ele>2.98</ele>
        <time>2019-05-31T12:15:59.000Z</time>
      </trkpt>
      <trkpt lat="43.5" lon="3.85844">
        <ele>1.73</ele>
        <time>2019-05-31T12:16:04.000Z</time>
      </trkpt>
      <trkpt lat="43.49987" lon="3.85827">
        <ele>0.8</ele>
        <time>2019-05-31T12:16:09.000Z</time>
      </trkpt>
      <trkpt lat="43.49973" lon="3.85812">
        <ele>1.55</ele>
        <time>2019-05-31T12:16:14.000Z</time>
      </trkpt>
      <trkpt lat="43.49959" lon="3.85812">
        <ele>0.73</ele>
        <time>2019-05-31T12:16:19.000Z</time>
      </trkpt>
      <trkpt lat="43.4996" lon="3.85796">
        <ele>1</ele>
        <time>2019-05-31T12:16:38.000Z</time>
      </trkpt>
      <trkpt lat="43.49948" lon="3.8578">
        <ele>1</ele>
        <time>2019-05-31T12:16:43.000Z</time>
      </trkpt>
      <trkpt lat="43.49935" lon="3.85764">
        <ele>0.72</ele>
        <time>2019-05-31T12:16:48.000Z</time>
      </trkpt>
      <trkpt lat="43.4992" lon="3.85747">
        <ele>1.67</ele>
        <time>2019-05-31T12:16:53.000Z</time>
      </trkpt>
      <trkpt lat="43.49907" lon="3.85729">
        <ele>1.73</ele>
        <time>2019-05-31T12:16:58.000Z</time>
      </trkpt>
      <trkpt lat="43.49893" lon="3.8571">
        <ele>1.73</ele>
        <time>2019-05-31T12:17:03.000Z</time>
      </trkpt>
      <trkpt lat="43.4988" lon="3.85691">
        <ele>1.55</ele>
        <time>2019-05-31T12:17:08.000Z</time>
      </trkpt>
      <trkpt lat="43.49867" lon="3.85674">
        <ele>1.73</ele>
        <time>2019-05-31T12:17:13.000Z</time>
      </trkpt>
      <trkpt lat="43.49854" lon="3.85657">
        <ele>0.74</ele>
        <time>2019-05-31T12:17:18.000Z</time>
      </trkpt>
      <trkpt lat="43.4984" lon="3.85639">
        <ele>1</ele>
        <time>2019-05-31T12:17:23.000Z</time>
      </trkpt>
      <trkpt lat="43.49826" lon="3.85621">
        <ele>1</ele>
        <time>2019-05-31T12:17:28.000Z</time>
      </trkpt>
      <trkpt lat="43.49812" lon="3.85602">
        <ele>1</ele>
        <time>2019-05-31T12:17:33.000Z</time>
      </trkpt>
      <trkpt lat="43.49797" lon="3.85583">
        <ele>2</ele>
        <time>2019-05-31T12:17:38.000Z</time>
      </trkpt>
      <trkpt lat="43.49782" lon="3.85564">
        <ele>2</ele>
        <time>2019-05-31T12:17:43.000Z</time>
      </trkpt>
      <trkpt lat="43.49768" lon="3.85546">
        <ele>1</ele>
        <time>2019-05-31T12:17:48.000Z</time>
      </trkpt>
      <trkpt lat="43.49754" lon="3.85526">
        <ele>1</ele>
        <time>2019-05-31T12:17:53.000Z</time>
      </trkpt>
      <trkpt lat="43.4974" lon="3.85508">
        <ele>0.48</ele>
        <time>2019-05-31T12:17:58.000Z</time>
      </trkpt>
      <trkpt lat="43.49726" lon="3.85489">
        <ele>2</ele>
        <time>2019-05-31T12:18:03.000Z</time>
      </trkpt>
      <trkpt lat="43.49711" lon="3.85471">
        <ele>1</ele>
        <time>2019-05-31T12:18:08.000Z</time>
      </trkpt>
      <trkpt lat="43.49698" lon="3.85455">
        <ele>1</ele>
        <time>2019-05-31T12:18:13.000Z</time>
      </trkpt>
      <trkpt lat="43.49684" lon="3.85438">
        <ele>0.53</ele>
        <time>2019-05-31T12:18:18.000Z</time>
      </trkpt>
      <trkpt lat="43.49671" lon="3.85419">
        <ele>0.74</ele>
        <time>2019-05-31T12:18:23.000Z</time>
      </trkpt>
      <trkpt lat="43.49656" lon="3.854">
        <ele>1.49</ele>
        <time>2019-05-31T12:18:28.000Z</time>
      </trkpt>
      <trkpt lat="43.49641" lon="3.8538">
        <ele>0.99</ele>
        <time>2019-05-31T12:18:33.000Z</time>
      </trkpt>
      <trkpt lat="43.49625" lon="3.8536">
        <ele>1.73</ele>
        <time>2019-05-31T12:18:38.000Z</time>
      </trkpt>
      <trkpt lat="43.49611" lon="3.85341">
        <ele>1.74</ele>
        <time>2019-05-31T12:18:43.000Z</time>
      </trkpt>
      <trkpt lat="43.49596" lon="3.85321">
        <ele>1.78</ele>
        <time>2019-05-31T12:18:48.000Z</time>
      </trkpt>
      <trkpt lat="43.49581" lon="3.85301">
        <ele>1.74</ele>
        <time>2019-05-31T12:18:53.000Z</time>
      </trkpt>
      <trkpt lat="43.49565" lon="3.85281">
        <ele>1.74</ele>
        <time>2019-05-31T12:18:58.000Z</time>
      </trkpt>
      <trkpt lat="43.49548" lon="3.8526">
        <ele>0.99</ele>
        <time>2019-05-31T12:19:03.000Z</time>
      </trkpt>
      <trkpt lat="43.49533" lon="3.8524">
        <ele>0.92</ele>
        <time>2019-05-31T12:19:08.000Z</time>
      </trkpt>
      <trkpt lat="43.49517" lon="3.8522">
        <ele>0.74</ele>
        <time>2019-05-31T12:19:13.000Z</time>
      </trkpt>
      <trkpt lat="43.49504" lon="3.852">
        <ele>0.8</ele>
        <time>2019-05-31T12:19:18.000Z</time>
      </trkpt>
      <trkpt lat="43.4949" lon="3.85182">
        <ele>1.72</ele>
        <time>2019-05-31T12:19:23.000Z</time>
      </trkpt>
      <trkpt lat="43.49482" lon="3.85172">
        <ele>1.97</ele>
        <time>2019-05-31T12:19:28.000Z</time>
      </trkpt>
      <trkpt lat="43.49475" lon="3.85162">
        <ele>1.73</ele>
        <time>2019-05-31T12:19:50.000Z</time>
      </trkpt>
      <trkpt lat="43.49462" lon="3.85144">
        <ele>1.67</ele>
        <time>2019-05-31T12:19:55.000Z</time>
      </trkpt>
      <trkpt lat="43.49447" lon="3.85126">
        <ele>2.49</ele>
        <time>2019-05-31T12:20:00.000Z</time>
      </trkpt>
      <trkpt lat="43.49433" lon="3.85107">
        <ele>1.74</ele>
        <time>2019-05-31T12:20:05.000Z</time>
      </trkpt>
      <trkpt lat="43.49418" lon="3.8509">
        <ele>1.97</ele>
        <time>2019-05-31T12:20:10.000Z</time>
      </trkpt>
      <trkpt lat="43.49404" lon="3.85073">
        <ele>2.74</ele>
        <time>2019-05-31T12:20:15.000Z</time>
      </trkpt>
      <trkpt lat="43.4939" lon="3.85054">
        <ele>1.75</ele>
        <time>2019-05-31T12:20:20.000Z</time>
      </trkpt>
      <trkpt lat="43.49375" lon="3.85035">
        <ele>1.74</ele>
        <time>2019-05-31T12:20:25.000Z</time>
      </trkpt>
      <trkpt lat="43.4936" lon="3.85017">
        <ele>1.74</ele>
        <time>2019-05-31T12:20:30.000Z</time>
      </trkpt>
      <trkpt lat="43.49346" lon="3.84999">
        <ele>0.99</ele>
        <time>2019-05-31T12:20:35.000Z</time>
      </trkpt>
      <trkpt lat="43.49332" lon="3.84979">
        <ele>0.74</ele>
        <time>2019-05-31T12:20:40.000Z</time>
      </trkpt>
      <trkpt lat="43.49318" lon="3.8496">
        <ele>0.55</ele>
        <time>2019-05-31T12:20:45.000Z</time>
      </trkpt>
      <trkpt lat="43.49304" lon="3.84943">
        <ele>1.72</ele>
        <time>2019-05-31T12:20:50.000Z</time>
      </trkpt>
      <trkpt lat="43.49289" lon="3.84924">
        <ele>1.93</ele>
        <time>2019-05-31T12:20:55.000Z</time>
      </trkpt>
      <trkpt lat="43.49275" lon="3.84905">
        <ele>1.74</ele>
        <time>2019-05-31T12:21:00.000Z</time>
      </trkpt>
      <trkpt lat="43.4926" lon="3.84885">
        <ele>0.8</ele>
        <time>2019-05-31T12:21:05.000Z</time>
      </trkpt>
      <trkpt lat="43.49245" lon="3.84866">
        <ele>0.74</ele>
        <time>2019-05-31T12:21:10.000Z</time>
      </trkpt>
      <trkpt lat="43.49231" lon="3.84847">
        <ele>1.68</ele>
        <time>2019-05-31T12:21:15.000Z</time>
      </trkpt>
      <trkpt lat="43.49217" lon="3.84829">
        <ele>0.74</ele>
        <time>2019-05-31T12:21:20.000Z</time>
      </trkpt>
      <trkpt lat="43.49205" lon="3.84813">
        <ele>1.72</ele>
        <time>2019-05-31T12:21:25.000Z</time>
      </trkpt>
      <trkpt lat="43.49196" lon="3.84802">
        <ele>2.49</ele>
        <time>2019-05-31T12:21:30.000Z</time>
      </trkpt>
      <trkpt lat="43.49187" lon="3.84792">
        <ele>3.68</ele>
        <time>2019-05-31T12:21:35.000Z</time>
      </trkpt>
      <trkpt lat="43.49175" lon="3.8478">
        <ele>2</ele>
        <time>2019-05-31T12:21:40.000Z</time>
      </trkpt>
      <trkpt lat="43.49157" lon="3.8476">
        <ele>0.74</ele>
        <time>2019-05-31T12:21:45.000Z</time>
      </trkpt>
      <trkpt lat="43.4914" lon="3.84742">
        <ele>1</ele>
        <time>2019-05-31T12:21:50.000Z</time>
      </trkpt>
      <trkpt lat="43.49125" lon="3.84727">
        <ele>0.49</ele>
        <time>2019-05-31T12:21:55.000Z</time>
      </trkpt>
      <trkpt lat="43.4911" lon="3.84712">
        <ele>0.74</ele>
        <time>2019-05-31T12:22:00.000Z</time>
      </trkpt>
      <trkpt lat="43.49095" lon="3.84697">
        <ele>1.54</ele>
        <time>2019-05-31T12:22:05.000Z</time>
      </trkpt>
      <trkpt lat="43.4908" lon="3.84681">
        <ele>1.54</ele>
        <time>2019-05-31T12:22:10.000Z</time>
      </trkpt>
      <trkpt lat="43.49067" lon="3.84665">
        <ele>1.68</ele>
        <time>2019-05-31T12:22:15.000Z</time>
      </trkpt>
      <trkpt lat="43.49053" lon="3.84649">
        <ele>1.97</ele>
        <time>2019-05-31T12:22:20.000Z</time>
      </trkpt>
      <trkpt lat="43.49037" lon="3.84633">
        <ele>0.74</ele>
        <time>2019-05-31T12:22:25.000Z</time>
      </trkpt>
      <trkpt lat="43.49021" lon="3.84616">
        <ele>0.79</ele>
        <time>2019-05-31T12:22:30.000Z</time>
      </trkpt>
      <trkpt lat="43.49006" lon="3.846">
        <ele>0.68</ele>
        <time>2019-05-31T12:22:35.000Z</time>
      </trkpt>
      <trkpt lat="43.48993" lon="3.84584">
        <ele>1.68</ele>
        <time>2019-05-31T12:22:40.000Z</time>
      </trkpt>
      <trkpt lat="43.48979" lon="3.84569">
        <ele>1.74</ele>
        <time>2019-05-31T12:22:45.000Z</time>
      </trkpt>
      <trkpt lat="43.48964" lon="3.84555">
        <ele>1.55</ele>
        <time>2019-05-31T12:22:50.000Z</time>
      </trkpt>
      <trkpt lat="43.48949" lon="3.84539">
        <ele>0.74</ele>
        <time>2019-05-31T12:22:55.000Z</time>
      </trkpt>
      <trkpt lat="43.48936" lon="3.84522">
        <ele>2.73</ele>
        <time>2019-05-31T12:23:00.000Z</time>
      </trkpt>
      <trkpt lat="43.48922" lon="3.84506">
        <ele>2.74</ele>
        <time>2019-05-31T12:23:05.000Z</time>
      </trkpt>
      <trkpt lat="43.48907" lon="3.84491">
        <ele>1.93</ele>
        <time>2019-05-31T12:23:10.000Z</time>
      </trkpt>
      <trkpt lat="43.48893" lon="3.84476">
        <ele>0.74</ele>
        <time>2019-05-31T12:23:15.000Z</time>
      </trkpt>
      <trkpt lat="43.48879" lon="3.84462">
        <ele>0.75</ele>
        <time>2019-05-31T12:23:20.000Z</time>
      </trkpt>
      <trkpt lat="43.48866" lon="3.84446">
        <ele>1</ele>
        <time>2019-05-31T12:23:25.000Z</time>
      </trkpt>
      <trkpt lat="43.48853" lon="3.84431">
        <ele>0.49</ele>
        <time>2019-05-31T12:23:30.000Z</time>
      </trkpt>
      <trkpt lat="43.48839" lon="3.84417">
        <ele>0.74</ele>
        <time>2019-05-31T12:23:35.000Z</time>
      </trkpt>
      <trkpt lat="43.48824" lon="3.84401">
        <ele>0.54</ele>
        <time>2019-05-31T12:23:40.000Z</time>
      </trkpt>
      <trkpt lat="43.48808" lon="3.84386">
        <ele>0.93</ele>
        <time>2019-05-31T12:23:45.000Z</time>
      </trkpt>
      <trkpt lat="43.48793" lon="3.84369">
        <ele>0.74</ele>
        <time>2019-05-31T12:23:50.000Z</time>
      </trkpt>
      <trkpt lat="43.48777" lon="3.84352">
        <ele>0.74</ele>
        <time>2019-05-31T12:23:55.000Z</time>
      </trkpt>
      <trkpt lat="43.48761" lon="3.84334">
        <ele>0.79</ele>
        <time>2019-05-31T12:24:00.000Z</time>
      </trkpt>
      <trkpt lat="43.48745" lon="3.84316">
        <ele>0.93</ele>
        <time>2019-05-31T12:24:05.000Z</time>
      </trkpt>
      <trkpt lat="43.48729" lon="3.84297">
        <ele>1.74</ele>
        <time>2019-05-31T12:24:10.000Z</time>
      </trkpt>
      <trkpt lat="43.48713" lon="3.84279">
        <ele>0.76</ele>
        <time>2019-05-31T12:24:15.000Z</time>
      </trkpt>
      <trkpt lat="43.48697" lon="3.84261">
        <ele>1</ele>
        <time>2019-05-31T12:24:20.000Z</time>
      </trkpt>
      <trkpt lat="43.48681" lon="3.84244">
        <ele>0.74</ele>
        <time>2019-05-31T12:24:25.000Z</time>
      </trkpt>
      <trkpt lat="43.48665" lon="3.84226">
        <ele>0.69</ele>
        <time>2019-05-31T12:24:30.000Z</time>
      </trkpt>
      <trkpt lat="43.48648" lon="3.8421">
        <ele>1</ele>
        <time>2019-05-31T12:24:35.000Z</time>
      </trkpt>
      <trkpt lat="43.48633" lon="3.84192">
        <ele>0.55</ele>
        <time>2019-05-31T12:24:40.000Z</time>
      </trkpt>
      <trkpt lat="43.48618" lon="3.84175">
        <ele>0.74</ele>
        <time>2019-05-31T12:24:45.000Z</time>
      </trkpt>
      <trkpt lat="43.48603" lon="3.84158">
        <ele>0.74</ele>
        <time>2019-05-31T12:24:50.000Z</time>
      </trkpt>
      <trkpt lat="43.48586" lon="3.8414">
        <ele>1.49</ele>
        <time>2019-05-31T12:24:55.000Z</time>
      </trkpt>
      <trkpt lat="43.48569" lon="3.84121">
        <ele>1</ele>
        <time>2019-05-31T12:25:00.000Z</time>
      </trkpt>
      <trkpt lat="43.48554" lon="3.84102">
        <ele>0.98</ele>
        <time>2019-05-31T12:25:05.000Z</time>
      </trkpt>
      <trkpt lat="43.48538" lon="3.84084">
        <ele>1</ele>
        <time>2019-05-31T12:25:10.000Z</time>
      </trkpt>
      <trkpt lat="43.48523" lon="3.84066">
        <ele>1</ele>
        <time>2019-05-31T12:25:15.000Z</time>
      </trkpt>
      <trkpt lat="43.48508" lon="3.84049">
        <ele>1</ele>
        <time>2019-05-31T12:25:20.000Z</time>
      </trkpt>
      <trkpt lat="43.48492" lon="3.84031">
        <ele>0.68</ele>
        <time>2019-05-31T12:25:25.000Z</time>
      </trkpt>
      <trkpt lat="43.48476" lon="3.84014">
        <ele>0.74</ele>
        <time>2019-05-31T12:25:30.000Z</time>
      </trkpt>
      <trkpt lat="43.48461" lon="3.83998">
        <ele>0.56</ele>
        <time>2019-05-31T12:25:35.000Z</time>
      </trkpt>
      <trkpt lat="43.48446" lon="3.83981">
        <ele>1.68</ele>
        <time>2019-05-31T12:25:40.000Z</time>
      </trkpt>
      <trkpt lat="43.4843" lon="3.83964">
        <ele>2.74</ele>
        <time>2019-05-31T12:25:45.000Z</time>
      </trkpt>
      <trkpt lat="43.48414" lon="3.83947">
        <ele>1.75</ele>
        <time>2019-05-31T12:25:50.000Z</time>
      </trkpt>
      <trkpt lat="43.48398" lon="3.83929">
        <ele>2.69</ele>
        <time>2019-05-31T12:25:55.000Z</time>
      </trkpt>
      <trkpt lat="43.48382" lon="3.83914">
        <ele>3.49</ele>
        <time>2019-05-31T12:26:00.000Z</time>
      </trkpt>
      <trkpt lat="43.48367" lon="3.83898">
        <ele>3.74</ele>
        <time>2019-05-31T12:26:05.000Z</time>
      </trkpt>
      <trkpt lat="43.48353" lon="3.83881">
        <ele>3.75</ele>
        <time>2019-05-31T12:26:10.000Z</time>
      </trkpt>
      <trkpt lat="43.48339" lon="3.83861">
        <ele>2.75</ele>
        <time>2019-05-31T12:26:15.000Z</time>
      </trkpt>
      <trkpt lat="43.48325" lon="3.83841">
        <ele>3.74</ele>
        <time>2019-05-31T12:26:20.000Z</time>
      </trkpt>
      <trkpt lat="43.4831" lon="3.83823">
        <ele>2.76</ele>
        <time>2019-05-31T12:26:25.000Z</time>
      </trkpt>
      <trkpt lat="43.48294" lon="3.83808">
        <ele>1.99</ele>
        <time>2019-05-31T12:26:30.000Z</time>
      </trkpt>
      <trkpt lat="43.48278" lon="3.83791">
        <ele>1.74</ele>
        <time>2019-05-31T12:26:35.000Z</time>
      </trkpt>
      <trkpt lat="43.48263" lon="3.83774">
        <ele>0.75</ele>
        <time>2019-05-31T12:26:40.000Z</time>
      </trkpt>
      <trkpt lat="43.48247" lon="3.83756">
        <ele>1</ele>
        <time>2019-05-31T12:26:45.000Z</time>
      </trkpt>
      <trkpt lat="43.48232" lon="3.83739">
        <ele>1</ele>
        <time>2019-05-31T12:26:50.000Z</time>
      </trkpt>
      <trkpt lat="43.48216" lon="3.83722">
        <ele>1</ele>
        <time>2019-05-31T12:26:55.000Z</time>
      </trkpt>
      <trkpt lat="43.48201" lon="3.83706">
        <ele>1</ele>
        <time>2019-05-31T12:27:00.000Z</time>
      </trkpt>
      <trkpt lat="43.48187" lon="3.83689">
        <ele>0.74</ele>
        <time>2019-05-31T12:27:05.000Z</time>
      </trkpt>
      <trkpt lat="43.48171" lon="3.83672">
        <ele>0.75</ele>
        <time>2019-05-31T12:27:10.000Z</time>
      </trkpt>
      <trkpt lat="43.48155" lon="3.83654">
        <ele>1</ele>
        <time>2019-05-31T12:27:15.000Z</time>
      </trkpt>
      <trkpt lat="43.4814" lon="3.83637">
        <ele>1</ele>
        <time>2019-05-31T12:27:20.000Z</time>
      </trkpt>
      <trkpt lat="43.48124" lon="3.8362">
        <ele>1</ele>
        <time>2019-05-31T12:27:25.000Z</time>
      </trkpt>
      <trkpt lat="43.48108" lon="3.83603">
        <ele>1</ele>
        <time>2019-05-31T12:27:30.000Z</time>
      </trkpt>
      <trkpt lat="43.48093" lon="3.83588">
        <ele>0.73</ele>
        <time>2019-05-31T12:27:35.000Z</time>
      </trkpt>
      <trkpt lat="43.48078" lon="3.83572">
        <ele>1</ele>
        <time>2019-05-31T12:27:40.000Z</time>
      </trkpt>
      <trkpt lat="43.48063" lon="3.83555">
        <ele>1</ele>
        <time>2019-05-31T12:27:45.000Z</time>
      </trkpt>
      <trkpt lat="43.48048" lon="3.83538">
        <ele>0.68</ele>
        <time>2019-05-31T12:27:50.000Z</time>
      </trkpt>
      <trkpt lat="43.48032" lon="3.8352">
        <ele>1</ele>
        <time>2019-05-31T12:27:55.000Z</time>
      </trkpt>
      <trkpt lat="43.48018" lon="3.83504">
        <ele>1</ele>
        <time>2019-05-31T12:28:00.000Z</time>
      </trkpt>
      <trkpt lat="43.48004" lon="3.83489">
        <ele>1</ele>
        <time>2019-05-31T12:28:05.000Z</time>
      </trkpt>
      <trkpt lat="43.47991" lon="3.83472">
        <ele>1</ele>
        <time>2019-05-31T12:28:10.000Z</time>
      </trkpt>
      <trkpt lat="43.47978" lon="3.83458">
        <ele>0.68</ele>
        <time>2019-05-31T12:28:15.000Z</time>
      </trkpt>
      <trkpt lat="43.47963" lon="3.83444">
        <ele>1</ele>
        <time>2019-05-31T12:28:20.000Z</time>
      </trkpt>
      <trkpt lat="43.4795" lon="3.83426">
        <ele>0.75</ele>
        <time>2019-05-31T12:28:25.000Z</time>
      </trkpt>
      <trkpt lat="43.47936" lon="3.83412">
        <ele>1.5</ele>
        <time>2019-05-31T12:28:30.000Z</time>
      </trkpt>
      <trkpt lat="43.47922" lon="3.83397">
        <ele>1.75</ele>
        <time>2019-05-31T12:28:35.000Z</time>
      </trkpt>
      <trkpt lat="43.47909" lon="3.83381">
        <ele>1.75</ele>
        <time>2019-05-31T12:28:40.000Z</time>
      </trkpt>
      <trkpt lat="43.47895" lon="3.83366">
        <ele>2.75</ele>
        <time>2019-05-31T12:28:45.000Z</time>
      </trkpt>
      <trkpt lat="43.47879" lon="3.83354">
        <ele>2.75</ele>
        <time>2019-05-31T12:28:50.000Z</time>
      </trkpt>
      <trkpt lat="43.47864" lon="3.8334">
        <ele>1.76</ele>
        <time>2019-05-31T12:28:55.000Z</time>
      </trkpt>
      <trkpt lat="43.47851" lon="3.83324">
        <ele>1.75</ele>
        <time>2019-05-31T12:29:00.000Z</time>
      </trkpt>
      <trkpt lat="43.47838" lon="3.83305">
        <ele>1.75</ele>
        <time>2019-05-31T12:29:05.000Z</time>
      </trkpt>
      <trkpt lat="43.47823" lon="3.83289">
        <ele>1</ele>
        <time>2019-05-31T12:29:10.000Z</time>
      </trkpt>
      <trkpt lat="43.47808" lon="3.83274">
        <ele>1</ele>
        <time>2019-05-31T12:29:15.000Z</time>
      </trkpt>
      <trkpt lat="43.47793" lon="3.8326">
        <ele>1</ele>
        <time>2019-05-31T12:29:20.000Z</time>
      </trkpt>
      <trkpt lat="43.4778" lon="3.83245">
        <ele>1</ele>
        <time>2019-05-31T12:29:25.000Z</time>
      </trkpt>
      <trkpt lat="43.47767" lon="3.83227">
        <ele>1</ele>
        <time>2019-05-31T12:29:30.000Z</time>
      </trkpt>
      <trkpt lat="43.47752" lon="3.83209">
        <ele>0.51</ele>
        <time>2019-05-31T12:29:35.000Z</time>
      </trkpt>
      <trkpt lat="43.47735" lon="3.83193">
        <ele>1</ele>
        <time>2019-05-31T12:29:40.000Z</time>
      </trkpt>
      <trkpt lat="43.47719" lon="3.83175">
        <ele>1</ele>
        <time>2019-05-31T12:29:45.000Z</time>
      </trkpt>
      <trkpt lat="43.47704" lon="3.83157">
        <ele>0.56</ele>
        <time>2019-05-31T12:29:50.000Z</time>
      </trkpt>
      <trkpt lat="43.47687" lon="3.83141">
        <ele>0.5</ele>
        <time>2019-05-31T12:29:55.000Z</time>
      </trkpt>
      <trkpt lat="43.47672" lon="3.83124">
        <ele>0.75</ele>
        <time>2019-05-31T12:30:00.000Z</time>
      </trkpt>
      <trkpt lat="43.47657" lon="3.83107">
        <ele>0.8</ele>
        <time>2019-05-31T12:30:05.000Z</time>
      </trkpt>
      <trkpt lat="43.47642" lon="3.83091">
        <ele>0.94</ele>
        <time>2019-05-31T12:30:10.000Z</time>
      </trkpt>
      <trkpt lat="43.47628" lon="3.83075">
        <ele>0.75</ele>
        <time>2019-05-31T12:30:15.000Z</time>
      </trkpt>
      <trkpt lat="43.47612" lon="3.83059">
        <ele>1</ele>
        <time>2019-05-31T12:30:20.000Z</time>
      </trkpt>
      <trkpt lat="43.47597" lon="3.83043">
        <ele>1</ele>
        <time>2019-05-31T12:30:25.000Z</time>
      </trkpt>
      <trkpt lat="43.47582" lon="3.83027">
        <ele>1</ele>
        <time>2019-05-31T12:30:30.000Z</time>
      </trkpt>
      <trkpt lat="43.47566" lon="3.83009">
        <ele>1</ele>
        <time>2019-05-31T12:30:35.000Z</time>
      </trkpt>
      <trkpt lat="43.47551" lon="3.82993">
        <ele>0.69</ele>
        <time>2019-05-31T12:30:40.000Z</time>
      </trkpt>
      <trkpt lat="43.47536" lon="3.82976">
        <ele>1</ele>
        <time>2019-05-31T12:30:45.000Z</time>
      </trkpt>
      <trkpt lat="43.47521" lon="3.8296">
        <ele>0.73</ele>
        <time>2019-05-31T12:30:50.000Z</time>
      </trkpt>
      <trkpt lat="43.47505" lon="3.82945">
        <ele>0.7</ele>
        <time>2019-05-31T12:30:55.000Z</time>
      </trkpt>
      <trkpt lat="43.47491" lon="3.82929">
        <ele>0.81</ele>
        <time>2019-05-31T12:31:00.000Z</time>
      </trkpt>
      <trkpt lat="43.47478" lon="3.8291">
        <ele>1</ele>
        <time>2019-05-31T12:31:05.000Z</time>
      </trkpt>
      <trkpt lat="43.47463" lon="3.82892">
        <ele>1</ele>
        <time>2019-05-31T12:31:10.000Z</time>
      </trkpt>
      <trkpt lat="43.4745" lon="3.82877">
        <ele>0.75</ele>
        <time>2019-05-31T12:31:15.000Z</time>
      </trkpt>
      <trkpt lat="43.47434" lon="3.82863">
        <ele>0.94</ele>
        <time>2019-05-31T12:31:20.000Z</time>
      </trkpt>
      <trkpt lat="43.4742" lon="3.82849">
        <ele>0.75</ele>
        <time>2019-05-31T12:31:25.000Z</time>
      </trkpt>
      <trkpt lat="43.47407" lon="3.82834">
        <ele>0.45</ele>
        <time>2019-05-31T12:31:30.000Z</time>
      </trkpt>
      <trkpt lat="43.47395" lon="3.8282">
        <ele>1.56</ele>
        <time>2019-05-31T12:31:35.000Z</time>
      </trkpt>
      <trkpt lat="43.47382" lon="3.82807">
        <ele>1.75</ele>
        <time>2019-05-31T12:31:40.000Z</time>
      </trkpt>
      <trkpt lat="43.47368" lon="3.82791">
        <ele>2.75</ele>
        <time>2019-05-31T12:31:45.000Z</time>
      </trkpt>
      <trkpt lat="43.47351" lon="3.8277">
        <ele>2</ele>
        <time>2019-05-31T12:31:50.000Z</time>
      </trkpt>
      <trkpt lat="43.47333" lon="3.82749">
        <ele>0.77</ele>
        <time>2019-05-31T12:31:55.000Z</time>
      </trkpt>
      <trkpt lat="43.47316" lon="3.82731">
        <ele>1.74</ele>
        <time>2019-05-31T12:32:00.000Z</time>
      </trkpt>
      <trkpt lat="43.47299" lon="3.8271">
        <ele>2</ele>
        <time>2019-05-31T12:32:05.000Z</time>
      </trkpt>
      <trkpt lat="43.47279" lon="3.8269">
        <ele>0.81</ele>
        <time>2019-05-31T12:32:10.000Z</time>
      </trkpt>
      <trkpt lat="43.47262" lon="3.82669">
        <ele>1.75</ele>
        <time>2019-05-31T12:32:15.000Z</time>
      </trkpt>
      <trkpt lat="43.47243" lon="3.82649">
        <ele>2.69</ele>
        <time>2019-05-31T12:32:20.000Z</time>
      </trkpt>
      <trkpt lat="43.47223" lon="3.82629">
        <ele>2.75</ele>
        <time>2019-05-31T12:32:25.000Z</time>
      </trkpt>
      <trkpt lat="43.47205" lon="3.82608">
        <ele>2.81</ele>
        <time>2019-05-31T12:32:30.000Z</time>
      </trkpt>
      <trkpt lat="43.47186" lon="3.82587">
        <ele>1.76</ele>
        <time>2019-05-31T12:32:35.000Z</time>
      </trkpt>
      <trkpt lat="43.47167" lon="3.82567">
        <ele>1</ele>
        <time>2019-05-31T12:32:40.000Z</time>
      </trkpt>
      <trkpt lat="43.4715" lon="3.82548">
        <ele>1</ele>
        <time>2019-05-31T12:32:45.000Z</time>
      </trkpt>
      <trkpt lat="43.47131" lon="3.82527">
        <ele>1</ele>
        <time>2019-05-31T12:32:50.000Z</time>
      </trkpt>
      <trkpt lat="43.47113" lon="3.82507">
        <ele>1</ele>
        <time>2019-05-31T12:32:55.000Z</time>
      </trkpt>
      <trkpt lat="43.47094" lon="3.82487">
        <ele>1</ele>
        <time>2019-05-31T12:33:00.000Z</time>
      </trkpt>
      <trkpt lat="43.47074" lon="3.82467">
        <ele>1</ele>
        <time>2019-05-31T12:33:05.000Z</time>
      </trkpt>
      <trkpt lat="43.47056" lon="3.82446">
        <ele>1</ele>
        <time>2019-05-31T12:33:10.000Z</time>
      </trkpt>
      <trkpt lat="43.47038" lon="3.82425">
        <ele>0.5</ele>
        <time>2019-05-31T12:33:15.000Z</time>
      </trkpt>
      <trkpt lat="43.4702" lon="3.82405">
        <ele>1</ele>
        <time>2019-05-31T12:33:20.000Z</time>
      </trkpt>
      <trkpt lat="43.47003" lon="3.82385">
        <ele>1</ele>
        <time>2019-05-31T12:33:25.000Z</time>
      </trkpt>
      <trkpt lat="43.46985" lon="3.82366">
        <ele>1</ele>
        <time>2019-05-31T12:33:30.000Z</time>
      </trkpt>
      <trkpt lat="43.46968" lon="3.82346">
        <ele>1.5</ele>
        <time>2019-05-31T12:33:35.000Z</time>
      </trkpt>
      <trkpt lat="43.46951" lon="3.82328">
        <ele>2</ele>
        <time>2019-05-31T12:33:40.000Z</time>
      </trkpt>
      <trkpt lat="43.46934" lon="3.82309">
        <ele>2</ele>
        <time>2019-05-31T12:33:45.000Z</time>
      </trkpt>
      <trkpt lat="43.46916" lon="3.8229">
        <ele>1.4</ele>
        <time>2019-05-31T12:33:50.000Z</time>
      </trkpt>
      <trkpt lat="43.46897" lon="3.82271">
        <ele>1</ele>
        <time>2019-05-31T12:33:55.000Z</time>
      </trkpt>
      <trkpt lat="43.46879" lon="3.82251">
        <ele>1</ele>
        <time>2019-05-31T12:34:00.000Z</time>
      </trkpt>
      <trkpt lat="43.46861" lon="3.82233">
        <ele>2</ele>
        <time>2019-05-31T12:34:05.000Z</time>
      </trkpt>
      <trkpt lat="43.46843" lon="3.82214">
        <ele>2</ele>
        <time>2019-05-31T12:34:10.000Z</time>
      </trkpt>
      <trkpt lat="43.46826" lon="3.82197">
        <ele>2</ele>
        <time>2019-05-31T12:34:15.000Z</time>
      </trkpt>
      <trkpt lat="43.46809" lon="3.82179">
        <ele>2</ele>
        <time>2019-05-31T12:34:20.000Z</time>
      </trkpt>
      <trkpt lat="43.46792" lon="3.82161">
        <ele>2</ele>
        <time>2019-05-31T12:34:25.000Z</time>
      </trkpt>
      <trkpt lat="43.46775" lon="3.82143">
        <ele>2</ele>
        <time>2019-05-31T12:34:30.000Z</time>
      </trkpt>
      <trkpt lat="43.46757" lon="3.82126">
        <ele>2</ele>
        <time>2019-05-31T12:34:35.000Z</time>
      </trkpt>
      <trkpt lat="43.46739" lon="3.8211">
        <ele>2</ele>
        <time>2019-05-31T12:34:40.000Z</time>
      </trkpt>
      <trkpt lat="43.46722" lon="3.8209">
        <ele>2</ele>
        <time>2019-05-31T12:34:45.000Z</time>
      </trkpt>
      <trkpt lat="43.46706" lon="3.82072">
        <ele>1.3</ele>
        <time>2019-05-31T12:34:50.000Z</time>
      </trkpt>
      <trkpt lat="43.46688" lon="3.82056">
        <ele>1.2</ele>
        <time>2019-05-31T12:34:55.000Z</time>
      </trkpt>
      <trkpt lat="43.46671" lon="3.82038">
        <ele>1.3</ele>
        <time>2019-05-31T12:35:00.000Z</time>
      </trkpt>
      <trkpt lat="43.46652" lon="3.8202">
        <ele>1.4</ele>
        <time>2019-05-31T12:35:05.000Z</time>
      </trkpt>
      <trkpt lat="43.46635" lon="3.82001">
        <ele>1</ele>
        <time>2019-05-31T12:35:10.000Z</time>
      </trkpt>
      <trkpt lat="43.46617" lon="3.81985">
        <ele>1</ele>
        <time>2019-05-31T12:35:15.000Z</time>
      </trkpt>
      <trkpt lat="43.46598" lon="3.81969">
        <ele>1</ele>
        <time>2019-05-31T12:35:20.000Z</time>
      </trkpt>
      <trkpt lat="43.46582" lon="3.81951">
        <ele>1.8</ele>
        <time>2019-05-31T12:35:25.000Z</time>
      </trkpt>
      <trkpt lat="43.46566" lon="3.8193">
        <ele>1.5</ele>
        <time>2019-05-31T12:35:30.000Z</time>
      </trkpt>
      <trkpt lat="43.46549" lon="3.81912">
        <ele>1</ele>
        <time>2019-05-31T12:35:35.000Z</time>
      </trkpt>
      <trkpt lat="43.46533" lon="3.81894">
        <ele>1</ele>
        <time>2019-05-31T12:35:40.000Z</time>
      </trkpt>
      <trkpt lat="43.46516" lon="3.81878">
        <ele>2</ele>
        <time>2019-05-31T12:35:45.000Z</time>
      </trkpt>
      <trkpt lat="43.46499" lon="3.81861">
        <ele>1</ele>
        <time>2019-05-31T12:35:50.000Z</time>
      </trkpt>
      <trkpt lat="43.46482" lon="3.81844">
        <ele>1</ele>
        <time>2019-05-31T12:35:55.000Z</time>
      </trkpt>
      <trkpt lat="43.46464" lon="3.81828">
        <ele>1</ele>
        <time>2019-05-31T12:36:00.000Z</time>
      </trkpt>
      <trkpt lat="43.46444" lon="3.81817">
        <ele>1</ele>
        <time>2019-05-31T12:36:05.000Z</time>
      </trkpt>
      <trkpt lat="43.46425" lon="3.81822">
        <ele>1</ele>
        <time>2019-05-31T12:36:10.000Z</time>
      </trkpt>
      <trkpt lat="43.46409" lon="3.8184">
        <ele>1</ele>
        <time>2019-05-31T12:36:15.000Z</time>
      </trkpt>
      <trkpt lat="43.46396" lon="3.81864">
        <ele>0.74</ele>
        <time>2019-05-31T12:36:20.000Z</time>
      </trkpt>
      <trkpt lat="43.46379" lon="3.81884">
        <ele>2.74</ele>
        <time>2019-05-31T12:36:25.000Z</time>
      </trkpt>
      <trkpt lat="43.4636" lon="3.81901">
        <ele>2.01</ele>
        <time>2019-05-31T12:36:30.000Z</time>
      </trkpt>
      <trkpt lat="43.46342" lon="3.81914">
        <ele>2.76</ele>
        <time>2019-05-31T12:36:35.000Z</time>
      </trkpt>
      <trkpt lat="43.46324" lon="3.81926">
        <ele>2.81</ele>
        <time>2019-05-31T12:36:40.000Z</time>
      </trkpt>
      <trkpt lat="43.4631" lon="3.81935">
        <ele>3.01</ele>
        <time>2019-05-31T12:36:45.000Z</time>
      </trkpt>
      <trkpt lat="43.463" lon="3.81938">
        <ele>3.7</ele>
        <time>2019-05-31T12:37:00.000Z</time>
      </trkpt>
      <trkpt lat="43.46291" lon="3.81941">
        <ele>1.76</ele>
        <time>2019-05-31T12:39:36.000Z</time>
      </trkpt>
      <trkpt lat="43.46275" lon="3.81945">
        <ele>2.51</ele>
        <time>2019-05-31T12:39:41.000Z</time>
      </trkpt>
      <trkpt lat="43.46257" lon="3.81953">
        <ele>1.76</ele>
        <time>2019-05-31T12:39:46.000Z</time>
      </trkpt>
      <trkpt lat="43.46238" lon="3.81958">
        <ele>2.76</ele>
        <time>2019-05-31T12:39:51.000Z</time>
      </trkpt>
      <trkpt lat="43.46218" lon="3.81961">
        <ele>1.78</ele>
        <time>2019-05-31T12:39:56.000Z</time>
      </trkpt>
      <trkpt lat="43.46196" lon="3.81963">
        <ele>1.01</ele>
        <time>2019-05-31T12:40:01.000Z</time>
      </trkpt>
      <trkpt lat="43.46175" lon="3.81963">
        <ele>0.76</ele>
        <time>2019-05-31T12:40:06.000Z</time>
      </trkpt>
      <trkpt lat="43.46155" lon="3.81962">
        <ele>0.76</ele>
        <time>2019-05-31T12:40:11.000Z</time>
      </trkpt>
      <trkpt lat="43.46134" lon="3.81957">
        <ele>0.76</ele>
        <time>2019-05-31T12:40:16.000Z</time>
      </trkpt>
      <trkpt lat="43.46114" lon="3.81951">
        <ele>1.51</ele>
        <time>2019-05-31T12:40:21.000Z</time>
      </trkpt>
      <trkpt lat="43.46093" lon="3.81943">
        <ele>1.76</ele>
        <time>2019-05-31T12:40:26.000Z</time>
      </trkpt>
      <trkpt lat="43.46072" lon="3.81932">
        <ele>1.76</ele>
        <time>2019-05-31T12:40:31.000Z</time>
      </trkpt>
      <trkpt lat="43.46054" lon="3.81921">
        <ele>0.58</ele>
        <time>2019-05-31T12:40:36.000Z</time>
      </trkpt>
      <trkpt lat="43.46036" lon="3.81909">
        <ele>1</ele>
        <time>2019-05-31T12:40:41.000Z</time>
      </trkpt>
      <trkpt lat="43.46021" lon="3.81893">
        <ele>1</ele>
        <time>2019-05-31T12:40:46.000Z</time>
      </trkpt>
      <trkpt lat="43.46004" lon="3.81875">
        <ele>1</ele>
        <time>2019-05-31T12:40:51.000Z</time>
      </trkpt>
      <trkpt lat="43.45989" lon="3.81855">
        <ele>0.75</ele>
        <time>2019-05-31T12:40:56.000Z</time>
      </trkpt>
      <trkpt lat="43.45974" lon="3.81836">
        <ele>0.76</ele>
        <time>2019-05-31T12:41:01.000Z</time>
      </trkpt>
      <trkpt lat="43.45958" lon="3.81817">
        <ele>0.81</ele>
        <time>2019-05-31T12:41:06.000Z</time>
      </trkpt>
      <trkpt lat="43.45943" lon="3.81796">
        <ele>1</ele>
        <time>2019-05-31T12:41:11.000Z</time>
      </trkpt>
      <trkpt lat="43.45929" lon="3.81774">
        <ele>1</ele>
        <time>2019-05-31T12:41:16.000Z</time>
      </trkpt>
      <trkpt lat="43.45915" lon="3.81754">
        <ele>1</ele>
        <time>2019-05-31T12:41:21.000Z</time>
      </trkpt>
      <trkpt lat="43.45901" lon="3.81733">
        <ele>1</ele>
        <time>2019-05-31T12:41:26.000Z</time>
      </trkpt>
      <trkpt lat="43.45887" lon="3.81712">
        <ele>1</ele>
        <time>2019-05-31T12:41:31.000Z</time>
      </trkpt>
      <trkpt lat="43.45871" lon="3.8169">
        <ele>1.2</ele>
        <time>2019-05-31T12:41:36.000Z</time>
      </trkpt>
      <trkpt lat="43.45856" lon="3.81667">
        <ele>2</ele>
        <time>2019-05-31T12:41:41.000Z</time>
      </trkpt>
      <trkpt lat="43.4584" lon="3.81646">
        <ele>1.3</ele>
        <time>2019-05-31T12:41:46.000Z</time>
      </trkpt>
      <trkpt lat="43.45826" lon="3.81625">
        <ele>0.51</ele>
        <time>2019-05-31T12:41:51.000Z</time>
      </trkpt>
      <trkpt lat="43.45811" lon="3.81604">
        <ele>1</ele>
        <time>2019-05-31T12:41:56.000Z</time>
      </trkpt>
      <trkpt lat="43.45796" lon="3.81582">
        <ele>2</ele>
        <time>2019-05-31T12:42:01.000Z</time>
      </trkpt>
      <trkpt lat="43.45782" lon="3.81561">
        <ele>2</ele>
        <time>2019-05-31T12:42:06.000Z</time>
      </trkpt>
      <trkpt lat="43.45768" lon="3.81541">
        <ele>0.52</ele>
        <time>2019-05-31T12:42:11.000Z</time>
      </trkpt>
      <trkpt lat="43.45753" lon="3.81521">
        <ele>2</ele>
        <time>2019-05-31T12:42:16.000Z</time>
      </trkpt>
      <trkpt lat="43.45739" lon="3.815">
        <ele>2</ele>
        <time>2019-05-31T12:42:21.000Z</time>
      </trkpt>
      <trkpt lat="43.45725" lon="3.81477">
        <ele>2</ele>
        <time>2019-05-31T12:42:26.000Z</time>
      </trkpt>
      <trkpt lat="43.4571" lon="3.81453">
        <ele>0.75</ele>
        <time>2019-05-31T12:42:31.000Z</time>
      </trkpt>
      <trkpt lat="43.45696" lon="3.81426">
        <ele>1</ele>
        <time>2019-05-31T12:42:36.000Z</time>
      </trkpt>
      <trkpt lat="43.45682" lon="3.81399">
        <ele>0.76</ele>
        <time>2019-05-31T12:42:41.000Z</time>
      </trkpt>
      <trkpt lat="43.45668" lon="3.81374">
        <ele>1.76</ele>
        <time>2019-05-31T12:42:46.000Z</time>
      </trkpt>
      <trkpt lat="43.45656" lon="3.81349">
        <ele>0.77</ele>
        <time>2019-05-31T12:42:51.000Z</time>
      </trkpt>
      <trkpt lat="43.45643" lon="3.81322">
        <ele>0.78</ele>
        <time>2019-05-31T12:42:56.000Z</time>
      </trkpt>
      <trkpt lat="43.45629" lon="3.81295">
        <ele>0.77</ele>
        <time>2019-05-31T12:43:01.000Z</time>
      </trkpt>
      <trkpt lat="43.45614" lon="3.81267">
        <ele>1.7</ele>
        <time>2019-05-31T12:43:06.000Z</time>
      </trkpt>
      <trkpt lat="43.456" lon="3.81238">
        <ele>1.76</ele>
        <time>2019-05-31T12:43:11.000Z</time>
      </trkpt>
      <trkpt lat="43.45587" lon="3.8121">
        <ele>1.77</ele>
        <time>2019-05-31T12:43:16.000Z</time>
      </trkpt>
      <trkpt lat="43.45572" lon="3.81182">
        <ele>1.77</ele>
        <time>2019-05-31T12:43:21.000Z</time>
      </trkpt>
      <trkpt lat="43.45558" lon="3.81155">
        <ele>1.77</ele>
        <time>2019-05-31T12:43:26.000Z</time>
      </trkpt>
      <trkpt lat="43.45545" lon="3.8113">
        <ele>1.77</ele>
        <time>2019-05-31T12:43:31.000Z</time>
      </trkpt>
      <trkpt lat="43.45534" lon="3.81114">
        <ele>2.76</ele>
        <time>2019-05-31T12:43:36.000Z</time>
      </trkpt>
      <trkpt lat="43.45524" lon="3.81113">
        <ele>1.52</ele>
        <time>2019-05-31T12:43:52.000Z</time>
      </trkpt>
      <trkpt lat="43.45508" lon="3.8113">
        <ele>1.76</ele>
        <time>2019-05-31T12:43:57.000Z</time>
      </trkpt>
      <trkpt lat="43.45488" lon="3.81151">
        <ele>2.52</ele>
        <time>2019-05-31T12:44:02.000Z</time>
      </trkpt>
      <trkpt lat="43.4547" lon="3.81169">
        <ele>2.52</ele>
        <time>2019-05-31T12:44:07.000Z</time>
      </trkpt>
      <trkpt lat="43.45453" lon="3.8119">
        <ele>2.02</ele>
        <time>2019-05-31T12:44:12.000Z</time>
      </trkpt>
      <trkpt lat="43.45436" lon="3.81203">
        <ele>1.77</ele>
        <time>2019-05-31T12:44:17.000Z</time>
      </trkpt>
      <trkpt lat="43.45421" lon="3.81207">
        <ele>0.83</ele>
        <time>2019-05-31T12:44:22.000Z</time>
      </trkpt>
      <trkpt lat="43.45407" lon="3.81217">
        <ele>2.5</ele>
        <time>2019-05-31T12:44:27.000Z</time>
      </trkpt>
      <trkpt lat="43.454" lon="3.8123">
        <ele>2.77</ele>
        <time>2019-05-31T12:44:32.000Z</time>
      </trkpt>
      <trkpt lat="43.45408" lon="3.81222">
        <ele>2.02</ele>
        <time>2019-05-31T12:46:54.000Z</time>
      </trkpt>
      <trkpt lat="43.45415" lon="3.81213">
        <ele>2.75</ele>
        <time>2019-05-31T12:46:59.000Z</time>
      </trkpt>
      <trkpt lat="43.45414" lon="3.81199">
        <ele>1.83</ele>
        <time>2019-05-31T12:50:51.000Z</time>
      </trkpt>
      <trkpt lat="43.45423" lon="3.8119">
        <ele>1.77</ele>
        <time>2019-05-31T12:50:56.000Z</time>
      </trkpt>
      <trkpt lat="43.4543" lon="3.81202">
        <ele>1.02</ele>
        <time>2019-05-31T12:51:01.000Z</time>
      </trkpt>
      <trkpt lat="43.45441" lon="3.81206">
        <ele>2.71</ele>
        <time>2019-05-31T12:51:07.000Z</time>
      </trkpt>
      <trkpt lat="43.45456" lon="3.81193">
        <ele>2.53</ele>
        <time>2019-05-31T12:51:12.000Z</time>
      </trkpt>
      <trkpt lat="43.4547" lon="3.81175">
        <ele>1.02</ele>
        <time>2019-05-31T12:51:17.000Z</time>
      </trkpt>
      <trkpt lat="43.45486" lon="3.81157">
        <ele>0.77</ele>
        <time>2019-05-31T12:51:22.000Z</time>
      </trkpt>
      <trkpt lat="43.455" lon="3.8114">
        <ele>1</ele>
        <time>2019-05-31T12:51:27.000Z</time>
      </trkpt>
      <trkpt lat="43.45515" lon="3.81126">
        <ele>1.8</ele>
        <time>2019-05-31T12:51:32.000Z</time>
      </trkpt>
      <trkpt lat="43.45527" lon="3.81113">
        <ele>0.7</ele>
        <time>2019-05-31T12:51:37.000Z</time>
      </trkpt>
      <trkpt lat="43.45528" lon="3.81098">
        <ele>2</ele>
        <time>2019-05-31T12:51:52.000Z</time>
      </trkpt>
      <trkpt lat="43.45517" lon="3.81072">
        <ele>2</ele>
        <time>2019-05-31T12:51:57.000Z</time>
      </trkpt>
      <trkpt lat="43.45503" lon="3.81045">
        <ele>0.77</ele>
        <time>2019-05-31T12:52:02.000Z</time>
      </trkpt>
      <trkpt lat="43.45489" lon="3.81017">
        <ele>1</ele>
        <time>2019-05-31T12:52:07.000Z</time>
      </trkpt>
      <trkpt lat="43.45474" lon="3.80987">
        <ele>1.5</ele>
        <time>2019-05-31T12:52:12.000Z</time>
      </trkpt>
      <trkpt lat="43.45458" lon="3.80958">
        <ele>0.7</ele>
        <time>2019-05-31T12:52:17.000Z</time>
      </trkpt>
      <trkpt lat="43.45443" lon="3.80928">
        <ele>1.6</ele>
        <time>2019-05-31T12:52:22.000Z</time>
      </trkpt>
      <trkpt lat="43.45428" lon="3.80897">
        <ele>1.8</ele>
        <time>2019-05-31T12:52:27.000Z</time>
      </trkpt>
      <trkpt lat="43.45413" lon="3.80865">
        <ele>1.9</ele>
        <time>2019-05-31T12:52:32.000Z</time>
      </trkpt>
      <trkpt lat="43.45397" lon="3.80834">
        <ele>2</ele>
        <time>2019-05-31T12:52:37.000Z</time>
      </trkpt>
      <trkpt lat="43.45381" lon="3.80803">
        <ele>1</ele>
        <time>2019-05-31T12:52:42.000Z</time>
      </trkpt>
      <trkpt lat="43.45365" lon="3.80772">
        <ele>0.76</ele>
        <time>2019-05-31T12:52:47.000Z</time>
      </trkpt>
      <trkpt lat="43.4535" lon="3.8074">
        <ele>0.77</ele>
        <time>2019-05-31T12:52:52.000Z</time>
      </trkpt>
      <trkpt lat="43.45335" lon="3.80709">
        <ele>1.52</ele>
        <time>2019-05-31T12:52:57.000Z</time>
      </trkpt>
      <trkpt lat="43.45319" lon="3.80678">
        <ele>0.78</ele>
        <time>2019-05-31T12:53:02.000Z</time>
      </trkpt>
      <trkpt lat="43.45301" lon="3.80649">
        <ele>1.71</ele>
        <time>2019-05-31T12:53:07.000Z</time>
      </trkpt>
      <trkpt lat="43.45288" lon="3.80619">
        <ele>1.53</ele>
        <time>2019-05-31T12:53:12.000Z</time>
      </trkpt>
      <trkpt lat="43.45275" lon="3.8059">
        <ele>1.02</ele>
        <time>2019-05-31T12:53:17.000Z</time>
      </trkpt>
      <trkpt lat="43.45261" lon="3.80559">
        <ele>1.9</ele>
        <time>2019-05-31T12:53:22.000Z</time>
      </trkpt>
      <trkpt lat="43.45247" lon="3.80529">
        <ele>1.1</ele>
        <time>2019-05-31T12:53:27.000Z</time>
      </trkpt>
      <trkpt lat="43.45234" lon="3.80497">
        <ele>1</ele>
        <time>2019-05-31T12:53:32.000Z</time>
      </trkpt>
      <trkpt lat="43.4522" lon="3.80468">
        <ele>1</ele>
        <time>2019-05-31T12:53:37.000Z</time>
      </trkpt>
      <trkpt lat="43.45206" lon="3.80439">
        <ele>1</ele>
        <time>2019-05-31T12:53:42.000Z</time>
      </trkpt>
      <trkpt lat="43.45193" lon="3.8041">
        <ele>1</ele>
        <time>2019-05-31T12:53:47.000Z</time>
      </trkpt>
      <trkpt lat="43.45178" lon="3.80381">
        <ele>0.52</ele>
        <time>2019-05-31T12:53:52.000Z</time>
      </trkpt>
      <trkpt lat="43.45164" lon="3.80351">
        <ele>0.75</ele>
        <time>2019-05-31T12:53:57.000Z</time>
      </trkpt>
      <trkpt lat="43.45151" lon="3.80322">
        <ele>0.77</ele>
        <time>2019-05-31T12:54:02.000Z</time>
      </trkpt>
      <trkpt lat="43.45138" lon="3.80294">
        <ele>1</ele>
        <time>2019-05-31T12:54:07.000Z</time>
      </trkpt>
      <trkpt lat="43.45125" lon="3.80265">
        <ele>1</ele>
        <time>2019-05-31T12:54:12.000Z</time>
      </trkpt>
      <trkpt lat="43.45112" lon="3.80235">
        <ele>1</ele>
        <time>2019-05-31T12:54:17.000Z</time>
      </trkpt>
      <trkpt lat="43.45097" lon="3.80206">
        <ele>1</ele>
        <time>2019-05-31T12:54:22.000Z</time>
      </trkpt>
      <trkpt lat="43.45085" lon="3.80176">
        <ele>1</ele>
        <time>2019-05-31T12:54:27.000Z</time>
      </trkpt>
      <trkpt lat="43.45071" lon="3.80147">
        <ele>1</ele>
        <time>2019-05-31T12:54:32.000Z</time>
      </trkpt>
      <trkpt lat="43.45057" lon="3.80118">
        <ele>1</ele>
        <time>2019-05-31T12:54:37.000Z</time>
      </trkpt>
      <trkpt lat="43.45044" lon="3.80088">
        <ele>1</ele>
        <time>2019-05-31T12:54:42.000Z</time>
      </trkpt>
      <trkpt lat="43.45029" lon="3.80058">
        <ele>1</ele>
        <time>2019-05-31T12:54:47.000Z</time>
      </trkpt>
      <trkpt lat="43.45015" lon="3.80027">
        <ele>1</ele>
        <time>2019-05-31T12:54:52.000Z</time>
      </trkpt>
      <trkpt lat="43.45001" lon="3.79996">
        <ele>1</ele>
        <time>2019-05-31T12:54:57.000Z</time>
      </trkpt>
      <trkpt lat="43.44986" lon="3.79965">
        <ele>1</ele>
        <time>2019-05-31T12:55:02.000Z</time>
      </trkpt>
      <trkpt lat="43.44972" lon="3.79936">
        <ele>1</ele>
        <time>2019-05-31T12:55:07.000Z</time>
      </trkpt>
      <trkpt lat="43.44957" lon="3.79907">
        <ele>1</ele>
        <time>2019-05-31T12:55:12.000Z</time>
      </trkpt>
      <trkpt lat="43.44943" lon="3.79879">
        <ele>1</ele>
        <time>2019-05-31T12:55:17.000Z</time>
      </trkpt>
      <trkpt lat="43.44927" lon="3.79851">
        <ele>1</ele>
        <time>2019-05-31T12:55:22.000Z</time>
      </trkpt>
      <trkpt lat="43.44909" lon="3.79825">
        <ele>2</ele>
        <time>2019-05-31T12:55:27.000Z</time>
      </trkpt>
      <trkpt lat="43.44891" lon="3.798">
        <ele>2</ele>
        <time>2019-05-31T12:55:32.000Z</time>
      </trkpt>
      <trkpt lat="43.44872" lon="3.79776">
        <ele>0.75</ele>
        <time>2019-05-31T12:55:37.000Z</time>
      </trkpt>
      <trkpt lat="43.44852" lon="3.79754">
        <ele>0.77</ele>
        <time>2019-05-31T12:55:42.000Z</time>
      </trkpt>
      <trkpt lat="43.44832" lon="3.79734">
        <ele>0.71</ele>
        <time>2019-05-31T12:55:47.000Z</time>
      </trkpt>
      <trkpt lat="43.44812" lon="3.79716">
        <ele>0.77</ele>
        <time>2019-05-31T12:55:52.000Z</time>
      </trkpt>
      <trkpt lat="43.44791" lon="3.79698">
        <ele>0.71</ele>
        <time>2019-05-31T12:55:57.000Z</time>
      </trkpt>
      <trkpt lat="43.4477" lon="3.7968">
        <ele>1</ele>
        <time>2019-05-31T12:56:02.000Z</time>
      </trkpt>
      <trkpt lat="43.44749" lon="3.79663">
        <ele>0.77</ele>
        <time>2019-05-31T12:56:07.000Z</time>
      </trkpt>
      <trkpt lat="43.44728" lon="3.79646">
        <ele>0.77</ele>
        <time>2019-05-31T12:56:12.000Z</time>
      </trkpt>
      <trkpt lat="43.44707" lon="3.79628">
        <ele>0.72</ele>
        <time>2019-05-31T12:56:17.000Z</time>
      </trkpt>
      <trkpt lat="43.44687" lon="3.79611">
        <ele>0.77</ele>
        <time>2019-05-31T12:56:22.000Z</time>
      </trkpt>
      <trkpt lat="43.44666" lon="3.79594">
        <ele>0.78</ele>
        <time>2019-05-31T12:56:27.000Z</time>
      </trkpt>
      <trkpt lat="43.44646" lon="3.79576">
        <ele>0.77</ele>
        <time>2019-05-31T12:56:32.000Z</time>
      </trkpt>
      <trkpt lat="43.44626" lon="3.7956">
        <ele>0.77</ele>
        <time>2019-05-31T12:56:37.000Z</time>
      </trkpt>
      <trkpt lat="43.44606" lon="3.79543">
        <ele>0.71</ele>
        <time>2019-05-31T12:56:42.000Z</time>
      </trkpt>
      <trkpt lat="43.44587" lon="3.79526">
        <ele>1.77</ele>
        <time>2019-05-31T12:56:47.000Z</time>
      </trkpt>
      <trkpt lat="43.44568" lon="3.79511">
        <ele>1.79</ele>
        <time>2019-05-31T12:56:52.000Z</time>
      </trkpt>
      <trkpt lat="43.44549" lon="3.79494">
        <ele>1.79</ele>
        <time>2019-05-31T12:56:57.000Z</time>
      </trkpt>
      <trkpt lat="43.44527" lon="3.79477">
        <ele>1.02</ele>
        <time>2019-05-31T12:57:02.000Z</time>
      </trkpt>
      <trkpt lat="43.44505" lon="3.79458">
        <ele>0.77</ele>
        <time>2019-05-31T12:57:07.000Z</time>
      </trkpt>
      <trkpt lat="43.44482" lon="3.79439">
        <ele>0.77</ele>
        <time>2019-05-31T12:57:12.000Z</time>
      </trkpt>
      <trkpt lat="43.44458" lon="3.7942">
        <ele>0.72</ele>
        <time>2019-05-31T12:57:17.000Z</time>
      </trkpt>
      <trkpt lat="43.44436" lon="3.79402">
        <ele>0.02</ele>
        <time>2019-05-31T12:57:22.000Z</time>
      </trkpt>
      <trkpt lat="43.44415" lon="3.79383">
        <ele>1.76</ele>
        <time>2019-05-31T12:57:27.000Z</time>
      </trkpt>
      <trkpt lat="43.44394" lon="3.79366">
        <ele>1.77</ele>
        <time>2019-05-31T12:57:32.000Z</time>
      </trkpt>
      <trkpt lat="43.44374" lon="3.79348">
        <ele>1.77</ele>
        <time>2019-05-31T12:57:37.000Z</time>
      </trkpt>
      <trkpt lat="43.44352" lon="3.7933">
        <ele>0.78</ele>
        <time>2019-05-31T12:57:42.000Z</time>
      </trkpt>
      <trkpt lat="43.44332" lon="3.79312">
        <ele>1.77</ele>
        <time>2019-05-31T12:57:47.000Z</time>
      </trkpt>
      <trkpt lat="43.44311" lon="3.79294">
        <ele>0.98</ele>
        <time>2019-05-31T12:57:52.000Z</time>
      </trkpt>
      <trkpt lat="43.4429" lon="3.79276">
        <ele>1</ele>
        <time>2019-05-31T12:57:57.000Z</time>
      </trkpt>
      <trkpt lat="43.44269" lon="3.79255">
        <ele>1</ele>
        <time>2019-05-31T12:58:02.000Z</time>
      </trkpt>
      <trkpt lat="43.4425" lon="3.79232">
        <ele>1</ele>
        <time>2019-05-31T12:58:07.000Z</time>
      </trkpt>
      <trkpt lat="43.44232" lon="3.79209">
        <ele>0.53</ele>
        <time>2019-05-31T12:58:12.000Z</time>
      </trkpt>
      <trkpt lat="43.44212" lon="3.7919">
        <ele>0.78</ele>
        <time>2019-05-31T12:58:17.000Z</time>
      </trkpt>
      <trkpt lat="43.4419" lon="3.79178">
        <ele>0.96</ele>
        <time>2019-05-31T12:58:22.000Z</time>
      </trkpt>
      <trkpt lat="43.44169" lon="3.79175">
        <ele>1.76</ele>
        <time>2019-05-31T12:58:27.000Z</time>
      </trkpt>
      <trkpt lat="43.44152" lon="3.79186">
        <ele>1.78</ele>
        <time>2019-05-31T12:58:32.000Z</time>
      </trkpt>
      <trkpt lat="43.44138" lon="3.79201">
        <ele>1.78</ele>
        <time>2019-05-31T12:58:37.000Z</time>
      </trkpt>
      <trkpt lat="43.44129" lon="3.79204">
        <ele>1</ele>
        <time>2019-05-31T12:58:49.000Z</time>
      </trkpt>
      <trkpt lat="43.44116" lon="3.79191">
        <ele>0.78</ele>
        <time>2019-05-31T12:58:54.000Z</time>
      </trkpt>
      <trkpt lat="43.44104" lon="3.79174">
        <ele>0.78</ele>
        <time>2019-05-31T12:58:59.000Z</time>
      </trkpt>
      <trkpt lat="43.44093" lon="3.79161">
        <ele>1.77</ele>
        <time>2019-05-31T12:59:04.000Z</time>
      </trkpt>
      <trkpt lat="43.44097" lon="3.79141">
        <ele>1.77</ele>
        <time>2019-05-31T12:59:09.000Z</time>
      </trkpt>
      <trkpt lat="43.4411" lon="3.79122">
        <ele>1.78</ele>
        <time>2019-05-31T12:59:14.000Z</time>
      </trkpt>
      <trkpt lat="43.44109" lon="3.79094">
        <ele>1.78</ele>
        <time>2019-05-31T12:59:19.000Z</time>
      </trkpt>
      <trkpt lat="43.44106" lon="3.79064">
        <ele>1.73</ele>
        <time>2019-05-31T12:59:24.000Z</time>
      </trkpt>
      <trkpt lat="43.44103" lon="3.79031">
        <ele>1.53</ele>
        <time>2019-05-31T12:59:29.000Z</time>
      </trkpt>
      <trkpt lat="43.44099" lon="3.78999">
        <ele>1.78</ele>
        <time>2019-05-31T12:59:34.000Z</time>
      </trkpt>
      <trkpt lat="43.4409" lon="3.7897">
        <ele>1.76</ele>
        <time>2019-05-31T12:59:39.000Z</time>
      </trkpt>
      <trkpt lat="43.44077" lon="3.78942">
        <ele>1.03</ele>
        <time>2019-05-31T12:59:44.000Z</time>
      </trkpt>
      <trkpt lat="43.44064" lon="3.78911">
        <ele>1.78</ele>
        <time>2019-05-31T12:59:49.000Z</time>
      </trkpt>
      <trkpt lat="43.4405" lon="3.78884">
        <ele>0.84</ele>
        <time>2019-05-31T12:59:54.000Z</time>
      </trkpt>
      <trkpt lat="43.44037" lon="3.78854">
        <ele>0.78</ele>
        <time>2019-05-31T12:59:59.000Z</time>
      </trkpt>
      <trkpt lat="43.44023" lon="3.78826">
        <ele>0.78</ele>
        <time>2019-05-31T13:00:04.000Z</time>
      </trkpt>
      <trkpt lat="43.4401" lon="3.78798">
        <ele>0.78</ele>
        <time>2019-05-31T13:00:09.000Z</time>
      </trkpt>
      <trkpt lat="43.43997" lon="3.78769">
        <ele>1.78</ele>
        <time>2019-05-31T13:00:14.000Z</time>
      </trkpt>
      <trkpt lat="43.43984" lon="3.7874">
        <ele>1.78</ele>
        <time>2019-05-31T13:00:19.000Z</time>
      </trkpt>
      <trkpt lat="43.43971" lon="3.78711">
        <ele>1.78</ele>
        <time>2019-05-31T13:00:24.000Z</time>
      </trkpt>
      <trkpt lat="43.43958" lon="3.78682">
        <ele>1.53</ele>
        <time>2019-05-31T13:00:29.000Z</time>
      </trkpt>
      <trkpt lat="43.43944" lon="3.78654">
        <ele>0.78</ele>
        <time>2019-05-31T13:00:34.000Z</time>
      </trkpt>
      <trkpt lat="43.4393" lon="3.78625">
        <ele>1.54</ele>
        <time>2019-05-31T13:00:39.000Z</time>
      </trkpt>
      <trkpt lat="43.43917" lon="3.78596">
        <ele>1.78</ele>
        <time>2019-05-31T13:00:44.000Z</time>
      </trkpt>
      <trkpt lat="43.43904" lon="3.78567">
        <ele>1.78</ele>
        <time>2019-05-31T13:00:49.000Z</time>
      </trkpt>
      <trkpt lat="43.4389" lon="3.78538">
        <ele>1.78</ele>
        <time>2019-05-31T13:00:54.000Z</time>
      </trkpt>
      <trkpt lat="43.43877" lon="3.78507">
        <ele>0.83</ele>
        <time>2019-05-31T13:00:59.000Z</time>
      </trkpt>
      <trkpt lat="43.43864" lon="3.78477">
        <ele>0.78</ele>
        <time>2019-05-31T13:01:04.000Z</time>
      </trkpt>
      <trkpt lat="43.43849" lon="3.78448">
        <ele>1.53</ele>
        <time>2019-05-31T13:01:09.000Z</time>
      </trkpt>
      <trkpt lat="43.43836" lon="3.78419">
        <ele>0.78</ele>
        <time>2019-05-31T13:01:14.000Z</time>
      </trkpt>
      <trkpt lat="43.43822" lon="3.78391">
        <ele>1.53</ele>
        <time>2019-05-31T13:01:19.000Z</time>
      </trkpt>
      <trkpt lat="43.4381" lon="3.78361">
        <ele>1.01</ele>
        <time>2019-05-31T13:01:24.000Z</time>
      </trkpt>
      <trkpt lat="43.43797" lon="3.78333">
        <ele>1.54</ele>
        <time>2019-05-31T13:01:29.000Z</time>
      </trkpt>
      <trkpt lat="43.43784" lon="3.78305">
        <ele>0.98</ele>
        <time>2019-05-31T13:01:34.000Z</time>
      </trkpt>
      <trkpt lat="43.4377" lon="3.78276">
        <ele>1.76</ele>
        <time>2019-05-31T13:01:39.000Z</time>
      </trkpt>
      <trkpt lat="43.43757" lon="3.78246">
        <ele>1.79</ele>
        <time>2019-05-31T13:01:44.000Z</time>
      </trkpt>
      <trkpt lat="43.43743" lon="3.78217">
        <ele>1.59</ele>
        <time>2019-05-31T13:01:49.000Z</time>
      </trkpt>
      <trkpt lat="43.43729" lon="3.78187">
        <ele>1.03</ele>
        <time>2019-05-31T13:01:54.000Z</time>
      </trkpt>
      <trkpt lat="43.43715" lon="3.78157">
        <ele>0.78</ele>
        <time>2019-05-31T13:01:59.000Z</time>
      </trkpt>
      <trkpt lat="43.43702" lon="3.78127">
        <ele>2</ele>
        <time>2019-05-31T13:02:04.000Z</time>
      </trkpt>
      <trkpt lat="43.43688" lon="3.78097">
        <ele>0.78</ele>
        <time>2019-05-31T13:02:09.000Z</time>
      </trkpt>
      <trkpt lat="43.43673" lon="3.78067">
        <ele>0.78</ele>
        <time>2019-05-31T13:02:14.000Z</time>
      </trkpt>
      <trkpt lat="43.43659" lon="3.78037">
        <ele>0.78</ele>
        <time>2019-05-31T13:02:19.000Z</time>
      </trkpt>
      <trkpt lat="43.43645" lon="3.78007">
        <ele>0.78</ele>
        <time>2019-05-31T13:02:24.000Z</time>
      </trkpt>
      <trkpt lat="43.43632" lon="3.77977">
        <ele>1</ele>
        <time>2019-05-31T13:02:29.000Z</time>
      </trkpt>
      <trkpt lat="43.43617" lon="3.77946">
        <ele>0.58</ele>
        <time>2019-05-31T13:02:34.000Z</time>
      </trkpt>
      <trkpt lat="43.43603" lon="3.77916">
        <ele>0.78</ele>
        <time>2019-05-31T13:02:39.000Z</time>
      </trkpt>
      <trkpt lat="43.43591" lon="3.77888">
        <ele>0.84</ele>
        <time>2019-05-31T13:02:44.000Z</time>
      </trkpt>
      <trkpt lat="43.43577" lon="3.77861">
        <ele>0.03</ele>
        <time>2019-05-31T13:02:49.000Z</time>
      </trkpt>
      <trkpt lat="43.43562" lon="3.77837">
        <ele>0.72</ele>
        <time>2019-05-31T13:02:54.000Z</time>
      </trkpt>
      <trkpt lat="43.43545" lon="3.77826">
        <ele>1.53</ele>
        <time>2019-05-31T13:02:59.000Z</time>
      </trkpt>
      <trkpt lat="43.43537" lon="3.77808">
        <ele>2.03</ele>
        <time>2019-05-31T13:03:04.000Z</time>
      </trkpt>
      <trkpt lat="43.43537" lon="3.77785">
        <ele>2.78</ele>
        <time>2019-05-31T13:03:09.000Z</time>
      </trkpt>
      <trkpt lat="43.43546" lon="3.77765">
        <ele>3.78</ele>
        <time>2019-05-31T13:03:14.000Z</time>
      </trkpt>
      <trkpt lat="43.43545" lon="3.7774">
        <ele>4.78</ele>
        <time>2019-05-31T13:03:19.000Z</time>
      </trkpt>
      <trkpt lat="43.43541" lon="3.77717">
        <ele>3.78</ele>
        <time>2019-05-31T13:03:24.000Z</time>
      </trkpt>
      <trkpt lat="43.4354" lon="3.77693">
        <ele>4.78</ele>
        <time>2019-05-31T13:03:29.000Z</time>
      </trkpt>
      <trkpt lat="43.43537" lon="3.7767">
        <ele>5.78</ele>
        <time>2019-05-31T13:03:34.000Z</time>
      </trkpt>
      <trkpt lat="43.43535" lon="3.77648">
        <ele>5.79</ele>
        <time>2019-05-31T13:03:39.000Z</time>
      </trkpt>
      <trkpt lat="43.43532" lon="3.77626">
        <ele>7.53</ele>
        <time>2019-05-31T13:03:44.000Z</time>
      </trkpt>
      <trkpt lat="43.4353" lon="3.776">
        <ele>6.98</ele>
        <time>2019-05-31T13:03:49.000Z</time>
      </trkpt>
      <trkpt lat="43.43526" lon="3.77572">
        <ele>7.03</ele>
        <time>2019-05-31T13:03:54.000Z</time>
      </trkpt>
      <trkpt lat="43.43524" lon="3.77537">
        <ele>4.3</ele>
        <time>2019-05-31T13:03:59.000Z</time>
      </trkpt>
      <trkpt lat="43.43521" lon="3.77497">
        <ele>3.03</ele>
        <time>2019-05-31T13:04:04.000Z</time>
      </trkpt>
      <trkpt lat="43.4352" lon="3.7746">
        <ele>2.03</ele>
        <time>2019-05-31T13:04:09.000Z</time>
      </trkpt>
      <trkpt lat="43.43514" lon="3.77429">
        <ele>1.78</ele>
        <time>2019-05-31T13:04:14.000Z</time>
      </trkpt>
      <trkpt lat="43.43518" lon="3.77402">
        <ele>1.78</ele>
        <time>2019-05-31T13:04:19.000Z</time>
      </trkpt>
      <trkpt lat="43.43522" lon="3.77374">
        <ele>2.78</ele>
        <time>2019-05-31T13:04:24.000Z</time>
      </trkpt>
      <trkpt lat="43.43525" lon="3.77341">
        <ele>3.53</ele>
        <time>2019-05-31T13:04:29.000Z</time>
      </trkpt>
      <trkpt lat="43.43528" lon="3.77306">
        <ele>3.78</ele>
        <time>2019-05-31T13:04:34.000Z</time>
      </trkpt>
      <trkpt lat="43.4353" lon="3.77272">
        <ele>3.72</ele>
        <time>2019-05-31T13:04:39.000Z</time>
      </trkpt>
      <trkpt lat="43.43532" lon="3.77238">
        <ele>4.78</ele>
        <time>2019-05-31T13:04:44.000Z</time>
      </trkpt>
      <trkpt lat="43.43533" lon="3.77202">
        <ele>5.53</ele>
        <time>2019-05-31T13:04:49.000Z</time>
      </trkpt>
      <trkpt lat="43.43533" lon="3.77167">
        <ele>5.78</ele>
        <time>2019-05-31T13:04:54.000Z</time>
      </trkpt>
      <trkpt lat="43.43518" lon="3.77146">
        <ele>4.79</ele>
        <time>2019-05-31T13:04:59.000Z</time>
      </trkpt>
      <trkpt lat="43.43513" lon="3.77126">
        <ele>3.55</ele>
        <time>2019-05-31T13:05:04.000Z</time>
      </trkpt>
      <trkpt lat="43.43518" lon="3.77105">
        <ele>2.79</ele>
        <time>2019-05-31T13:05:09.000Z</time>
      </trkpt>
      <trkpt lat="43.43535" lon="3.77082">
        <ele>2.78</ele>
        <time>2019-05-31T13:05:14.000Z</time>
      </trkpt>
      <trkpt lat="43.43542" lon="3.77051">
        <ele>2.78</ele>
        <time>2019-05-31T13:05:19.000Z</time>
      </trkpt>
      <trkpt lat="43.43545" lon="3.77016">
        <ele>2.78</ele>
        <time>2019-05-31T13:05:24.000Z</time>
      </trkpt>
      <trkpt lat="43.43546" lon="3.76983">
        <ele>2.97</ele>
        <time>2019-05-31T13:05:29.000Z</time>
      </trkpt>
      <trkpt lat="43.43547" lon="3.76949">
        <ele>2.79</ele>
        <time>2019-05-31T13:05:34.000Z</time>
      </trkpt>
      <trkpt lat="43.43549" lon="3.76916">
        <ele>3.72</ele>
        <time>2019-05-31T13:05:39.000Z</time>
      </trkpt>
      <trkpt lat="43.43552" lon="3.76883">
        <ele>2.79</ele>
        <time>2019-05-31T13:05:44.000Z</time>
      </trkpt>
      <trkpt lat="43.43554" lon="3.76848">
        <ele>2.54</ele>
        <time>2019-05-31T13:05:49.000Z</time>
      </trkpt>
      <trkpt lat="43.43557" lon="3.76814">
        <ele>1.78</ele>
        <time>2019-05-31T13:05:54.000Z</time>
      </trkpt>
      <trkpt lat="43.43559" lon="3.76778">
        <ele>1.79</ele>
        <time>2019-05-31T13:05:59.000Z</time>
      </trkpt>
      <trkpt lat="43.43561" lon="3.7674">
        <ele>1.77</ele>
        <time>2019-05-31T13:06:04.000Z</time>
      </trkpt>
      <trkpt lat="43.43563" lon="3.76703">
        <ele>1.78</ele>
        <time>2019-05-31T13:06:09.000Z</time>
      </trkpt>
      <trkpt lat="43.43565" lon="3.76667">
        <ele>1.78</ele>
        <time>2019-05-31T13:06:14.000Z</time>
      </trkpt>
      <trkpt lat="43.43567" lon="3.7663">
        <ele>1.73</ele>
        <time>2019-05-31T13:06:19.000Z</time>
      </trkpt>
      <trkpt lat="43.43569" lon="3.76596">
        <ele>1.78</ele>
        <time>2019-05-31T13:06:24.000Z</time>
      </trkpt>
      <trkpt lat="43.43571" lon="3.7656">
        <ele>1.78</ele>
        <time>2019-05-31T13:06:29.000Z</time>
      </trkpt>
      <trkpt lat="43.43573" lon="3.76524">
        <ele>1.78</ele>
        <time>2019-05-31T13:06:34.000Z</time>
      </trkpt>
      <trkpt lat="43.4357" lon="3.76488">
        <ele>0.79</ele>
        <time>2019-05-31T13:06:39.000Z</time>
      </trkpt>
      <trkpt lat="43.43571" lon="3.76452">
        <ele>1.53</ele>
        <time>2019-05-31T13:06:44.000Z</time>
      </trkpt>
      <trkpt lat="43.43573" lon="3.76417">
        <ele>0.78</ele>
        <time>2019-05-31T13:06:49.000Z</time>
      </trkpt>
      <trkpt lat="43.43575" lon="3.7638">
        <ele>1.7</ele>
        <time>2019-05-31T13:06:54.000Z</time>
      </trkpt>
      <trkpt lat="43.43576" lon="3.76345">
        <ele>0.54</ele>
        <time>2019-05-31T13:06:59.000Z</time>
      </trkpt>
      <trkpt lat="43.43578" lon="3.76312">
        <ele>0.78</ele>
        <time>2019-05-31T13:07:04.000Z</time>
      </trkpt>
      <trkpt lat="43.43578" lon="3.76281">
        <ele>1.53</ele>
        <time>2019-05-31T13:07:09.000Z</time>
      </trkpt>
      <trkpt lat="43.43587" lon="3.76278">
        <ele>1.73</ele>
        <time>2019-05-31T13:07:14.000Z</time>
      </trkpt>
      <trkpt lat="43.43593" lon="3.76266">
        <ele>2.77</ele>
        <time>2019-05-31T13:07:25.000Z</time>
      </trkpt>
      <trkpt lat="43.43598" lon="3.76243">
        <ele>2.78</ele>
        <time>2019-05-31T13:07:30.000Z</time>
      </trkpt>
      <trkpt lat="43.43606" lon="3.76218">
        <ele>2.78</ele>
        <time>2019-05-31T13:07:35.000Z</time>
      </trkpt>
      <trkpt lat="43.43613" lon="3.76209">
        <ele>2.78</ele>
        <time>2019-05-31T13:07:40.000Z</time>
      </trkpt>
      <trkpt lat="43.43627" lon="3.76225">
        <ele>2.77</ele>
        <time>2019-05-31T13:07:45.000Z</time>
      </trkpt>
      <trkpt lat="43.43645" lon="3.76244">
        <ele>2.77</ele>
        <time>2019-05-31T13:07:50.000Z</time>
      </trkpt>
      <trkpt lat="43.43662" lon="3.76266">
        <ele>2.77</ele>
        <time>2019-05-31T13:07:55.000Z</time>
      </trkpt>
      <trkpt lat="43.43667" lon="3.76298">
        <ele>2.02</ele>
        <time>2019-05-31T13:08:00.000Z</time>
      </trkpt>
      <trkpt lat="43.43661" lon="3.76332">
        <ele>2.53</ele>
        <time>2019-05-31T13:08:05.000Z</time>
      </trkpt>
      <trkpt lat="43.43651" lon="3.76367">
        <ele>3.76</ele>
        <time>2019-05-31T13:08:10.000Z</time>
      </trkpt>
      <trkpt lat="43.43635" lon="3.76391">
        <ele>3.03</ele>
        <time>2019-05-31T13:08:15.000Z</time>
      </trkpt>
      <trkpt lat="43.43622" lon="3.76375">
        <ele>2.79</ele>
        <time>2019-05-31T13:08:20.000Z</time>
      </trkpt>
      <trkpt lat="43.43627" lon="3.76355">
        <ele>4.71</ele>
        <time>2019-05-31T13:08:25.000Z</time>
      </trkpt>
      <trkpt lat="43.43634" lon="3.76337">
        <ele>5.71</ele>
        <time>2019-05-31T13:08:30.000Z</time>
      </trkpt>
      <trkpt lat="43.43644" lon="3.7632">
        <ele>6.52</ele>
        <time>2019-05-31T13:08:35.000Z</time>
      </trkpt>
      <trkpt lat="43.43652" lon="3.76304">
        <ele>7.52</ele>
        <time>2019-05-31T13:08:40.000Z</time>
      </trkpt>
      <trkpt lat="43.4366" lon="3.76286">
        <ele>8.77</ele>
        <time>2019-05-31T13:08:45.000Z</time>
      </trkpt>
      <trkpt lat="43.43668" lon="3.76269">
        <ele>9.77</ele>
        <time>2019-05-31T13:08:50.000Z</time>
      </trkpt>
      <trkpt lat="43.43677" lon="3.76253">
        <ele>9.77</ele>
        <time>2019-05-31T13:08:55.000Z</time>
      </trkpt>
      <trkpt lat="43.43686" lon="3.76236">
        <ele>9.77</ele>
        <time>2019-05-31T13:09:00.000Z</time>
      </trkpt>
      <trkpt lat="43.43695" lon="3.76219">
        <ele>10.01</ele>
        <time>2019-05-31T13:09:05.000Z</time>
      </trkpt>
      <trkpt lat="43.43705" lon="3.762">
        <ele>8.78</ele>
        <time>2019-05-31T13:09:10.000Z</time>
      </trkpt>
      <trkpt lat="43.43715" lon="3.76182">
        <ele>9.71</ele>
        <time>2019-05-31T13:09:15.000Z</time>
      </trkpt>
      <trkpt lat="43.43728" lon="3.76163">
        <ele>9.02</ele>
        <time>2019-05-31T13:09:20.000Z</time>
      </trkpt>
      <trkpt lat="43.43745" lon="3.76155">
        <ele>9.71</ele>
        <time>2019-05-31T13:09:25.000Z</time>
      </trkpt>
      <trkpt lat="43.43761" lon="3.76157">
        <ele>8.77</ele>
        <time>2019-05-31T13:09:30.000Z</time>
      </trkpt>
      <trkpt lat="43.43772" lon="3.7616">
        <ele>8.77</ele>
        <time>2019-05-31T13:09:35.000Z</time>
      </trkpt>
      <trkpt lat="43.43783" lon="3.76139">
        <ele>8.77</ele>
        <time>2019-05-31T13:09:40.000Z</time>
      </trkpt>
      <trkpt lat="43.43793" lon="3.76115">
        <ele>8.73</ele>
        <time>2019-05-31T13:09:45.000Z</time>
      </trkpt>
      <trkpt lat="43.43803" lon="3.76099">
        <ele>7.83</ele>
        <time>2019-05-31T13:09:50.000Z</time>
      </trkpt>
      <trkpt lat="43.43799" lon="3.76063">
        <ele>5.79</ele>
        <time>2019-05-31T13:09:55.000Z</time>
      </trkpt>
      <trkpt lat="43.43831" lon="3.76037">
        <ele>2.84</ele>
        <time>2019-05-31T13:10:00.000Z</time>
      </trkpt>
      <trkpt lat="43.43865" lon="3.7602">
        <ele>3.77</ele>
        <time>2019-05-31T13:10:05.000Z</time>
      </trkpt>
      <trkpt lat="43.43897" lon="3.76004">
        <ele>2.77</ele>
        <time>2019-05-31T13:10:10.000Z</time>
      </trkpt>
      <trkpt lat="43.43926" lon="3.7599">
        <ele>3.77</ele>
        <time>2019-05-31T13:10:15.000Z</time>
      </trkpt>
      <trkpt lat="43.43953" lon="3.75978">
        <ele>3.71</ele>
        <time>2019-05-31T13:10:20.000Z</time>
      </trkpt>
      <trkpt lat="43.43981" lon="3.75965">
        <ele>3.77</ele>
        <time>2019-05-31T13:10:25.000Z</time>
      </trkpt>
      <trkpt lat="43.4401" lon="3.75951">
        <ele>4.77</ele>
        <time>2019-05-31T13:10:30.000Z</time>
      </trkpt>
      <trkpt lat="43.44038" lon="3.75944">
        <ele>4.76</ele>
        <time>2019-05-31T13:10:35.000Z</time>
      </trkpt>
      <trkpt lat="43.44065" lon="3.75931">
        <ele>4.58</ele>
        <time>2019-05-31T13:10:40.000Z</time>
      </trkpt>
      <trkpt lat="43.44093" lon="3.7592">
        <ele>4.78</ele>
        <time>2019-05-31T13:10:45.000Z</time>
      </trkpt>
      <trkpt lat="43.44121" lon="3.7591">
        <ele>5.76</ele>
        <time>2019-05-31T13:10:50.000Z</time>
      </trkpt>
      <trkpt lat="43.44147" lon="3.75903">
        <ele>5.02</ele>
        <time>2019-05-31T13:10:55.000Z</time>
      </trkpt>
      <trkpt lat="43.44173" lon="3.75897">
        <ele>4.72</ele>
        <time>2019-05-31T13:11:00.000Z</time>
      </trkpt>
      <trkpt lat="43.44201" lon="3.75888">
        <ele>5.7</ele>
        <time>2019-05-31T13:11:05.000Z</time>
      </trkpt>
      <trkpt lat="43.4423" lon="3.75889">
        <ele>4.02</ele>
        <time>2019-05-31T13:11:10.000Z</time>
      </trkpt>
      <trkpt lat="43.4426" lon="3.75894">
        <ele>3.72</ele>
        <time>2019-05-31T13:11:15.000Z</time>
      </trkpt>
      <trkpt lat="43.44289" lon="3.75901">
        <ele>3.77</ele>
        <time>2019-05-31T13:11:20.000Z</time>
      </trkpt>
      <trkpt lat="43.44299" lon="3.75903">
        <ele>4.52</ele>
        <time>2019-05-31T13:11:59.000Z</time>
      </trkpt>
      <trkpt lat="43.44312" lon="3.75908">
        <ele>5.52</ele>
        <time>2019-05-31T13:12:04.000Z</time>
      </trkpt>
      <trkpt lat="43.44333" lon="3.75913">
        <ele>5.76</ele>
        <time>2019-05-31T13:12:09.000Z</time>
      </trkpt>
      <trkpt lat="43.44356" lon="3.75915">
        <ele>6.7</ele>
        <time>2019-05-31T13:12:14.000Z</time>
      </trkpt>
      <trkpt lat="43.44379" lon="3.75919">
        <ele>6.01</ele>
        <time>2019-05-31T13:12:19.000Z</time>
      </trkpt>
      <trkpt lat="43.44402" lon="3.75925">
        <ele>4.83</ele>
        <time>2019-05-31T13:12:24.000Z</time>
      </trkpt>
      <trkpt lat="43.44413" lon="3.75921">
        <ele>4.75</ele>
        <time>2019-05-31T13:12:29.000Z</time>
      </trkpt>
      <trkpt lat="43.44416" lon="3.75906">
        <ele>5.7</ele>
        <time>2019-05-31T13:12:34.000Z</time>
      </trkpt>
      <trkpt lat="43.44412" lon="3.75881">
        <ele>5.76</ele>
        <time>2019-05-31T13:12:39.000Z</time>
      </trkpt>
      <trkpt lat="43.44404" lon="3.7586">
        <ele>4.97</ele>
        <time>2019-05-31T13:12:44.000Z</time>
      </trkpt>
      <trkpt lat="43.44397" lon="3.75845">
        <ele>4.95</ele>
        <time>2019-05-31T13:12:49.000Z</time>
      </trkpt>
      <trkpt lat="43.44404" lon="3.75836">
        <ele>7.76</ele>
        <time>2019-05-31T13:13:02.000Z</time>
      </trkpt>
      <trkpt lat="43.44415" lon="3.75838">
        <ele>5.83</ele>
        <time>2019-05-31T13:13:09.000Z</time>
      </trkpt>
      <trkpt lat="43.44424" lon="3.75843">
        <ele>4.76</ele>
        <time>2019-05-31T13:13:19.000Z</time>
      </trkpt>
      <trkpt lat="43.4443" lon="3.75833">
        <ele>2.7</ele>
        <time>2019-05-31T13:13:45.000Z</time>
      </trkpt>
      <trkpt lat="43.44427" lon="3.75808">
        <ele>1.76</ele>
        <time>2019-05-31T13:13:50.000Z</time>
      </trkpt>
      <trkpt lat="43.44421" lon="3.75776">
        <ele>1.82</ele>
        <time>2019-05-31T13:13:55.000Z</time>
      </trkpt>
      <trkpt lat="43.44415" lon="3.75747">
        <ele>3.51</ele>
        <time>2019-05-31T13:14:00.000Z</time>
      </trkpt>
      <trkpt lat="43.44408" lon="3.75719">
        <ele>4.72</ele>
        <time>2019-05-31T13:14:05.000Z</time>
      </trkpt>
      <trkpt lat="43.44406" lon="3.75706">
        <ele>2.78</ele>
        <time>2019-05-31T13:14:10.000Z</time>
      </trkpt>
      <trkpt lat="43.44405" lon="3.75692">
        <ele>2.03</ele>
        <time>2019-05-31T13:14:20.000Z</time>
      </trkpt>
      <trkpt lat="43.44401" lon="3.75676">
        <ele>3.56</ele>
        <time>2019-05-31T13:14:25.000Z</time>
      </trkpt>
      <trkpt lat="43.44392" lon="3.75652">
        <ele>2.76</ele>
        <time>2019-05-31T13:14:30.000Z</time>
      </trkpt>
      <trkpt lat="43.44383" lon="3.75628">
        <ele>5.68</ele>
        <time>2019-05-31T13:14:35.000Z</time>
      </trkpt>
      <trkpt lat="43.44373" lon="3.75605">
        <ele>6.58</ele>
        <time>2019-05-31T13:14:40.000Z</time>
      </trkpt>
      <trkpt lat="43.44368" lon="3.75587">
        <ele>5.76</ele>
        <time>2019-05-31T13:14:45.000Z</time>
      </trkpt>
      <trkpt lat="43.44377" lon="3.75583">
        <ele>5.01</ele>
        <time>2019-05-31T13:14:50.000Z</time>
      </trkpt>
      <trkpt lat="43.44386" lon="3.75571">
        <ele>4.01</ele>
        <time>2019-05-31T13:14:55.000Z</time>
      </trkpt>
      <trkpt lat="43.44381" lon="3.75545">
        <ele>5.01</ele>
        <time>2019-05-31T13:15:00.000Z</time>
      </trkpt>
      <trkpt lat="43.44369" lon="3.75513">
        <ele>4.01</ele>
        <time>2019-05-31T13:15:05.000Z</time>
      </trkpt>
      <trkpt lat="43.44359" lon="3.75483">
        <ele>1.78</ele>
        <time>2019-05-31T13:15:10.000Z</time>
      </trkpt>
      <trkpt lat="43.44351" lon="3.75456">
        <ele>2.51</ele>
        <time>2019-05-31T13:15:15.000Z</time>
      </trkpt>
      <trkpt lat="43.44341" lon="3.75444">
        <ele>3.5</ele>
        <time>2019-05-31T13:15:20.000Z</time>
      </trkpt>
      <trkpt lat="43.44326" lon="3.7543">
        <ele>2.77</ele>
        <time>2019-05-31T13:15:25.000Z</time>
      </trkpt>
      <trkpt lat="43.44308" lon="3.75409">
        <ele>2.78</ele>
        <time>2019-05-31T13:15:30.000Z</time>
      </trkpt>
      <trkpt lat="43.44291" lon="3.75389">
        <ele>2.81</ele>
        <time>2019-05-31T13:15:35.000Z</time>
      </trkpt>
      <trkpt lat="43.44273" lon="3.75365">
        <ele>1.78</ele>
        <time>2019-05-31T13:15:40.000Z</time>
      </trkpt>
      <trkpt lat="43.44255" lon="3.75343">
        <ele>1.75</ele>
        <time>2019-05-31T13:15:45.000Z</time>
      </trkpt>
      <trkpt lat="43.44236" lon="3.75323">
        <ele>3.51</ele>
        <time>2019-05-31T13:15:50.000Z</time>
      </trkpt>
      <trkpt lat="43.44218" lon="3.75305">
        <ele>3.75</ele>
        <time>2019-05-31T13:15:55.000Z</time>
      </trkpt>
      <trkpt lat="43.44207" lon="3.75287">
        <ele>3.01</ele>
        <time>2019-05-31T13:16:00.000Z</time>
      </trkpt>
      <trkpt lat="43.44194" lon="3.75264">
        <ele>3.53</ele>
        <time>2019-05-31T13:16:05.000Z</time>
      </trkpt>
      <trkpt lat="43.4418" lon="3.75239">
        <ele>2.78</ele>
        <time>2019-05-31T13:16:10.000Z</time>
      </trkpt>
      <trkpt lat="43.44164" lon="3.75213">
        <ele>2.77</ele>
        <time>2019-05-31T13:16:15.000Z</time>
      </trkpt>
      <trkpt lat="43.4415" lon="3.75187">
        <ele>2.77</ele>
        <time>2019-05-31T13:16:20.000Z</time>
      </trkpt>
      <trkpt lat="43.44135" lon="3.75162">
        <ele>1.78</ele>
        <time>2019-05-31T13:16:25.000Z</time>
      </trkpt>
      <trkpt lat="43.44118" lon="3.75136">
        <ele>2.57</ele>
        <time>2019-05-31T13:16:30.000Z</time>
      </trkpt>
      <trkpt lat="43.44098" lon="3.75112">
        <ele>3.95</ele>
        <time>2019-05-31T13:16:35.000Z</time>
      </trkpt>
      <trkpt lat="43.44077" lon="3.7509">
        <ele>3.81</ele>
        <time>2019-05-31T13:16:40.000Z</time>
      </trkpt>
      <trkpt lat="43.44055" lon="3.75067">
        <ele>3.02</ele>
        <time>2019-05-31T13:16:45.000Z</time>
      </trkpt>
      <trkpt lat="43.44035" lon="3.75044">
        <ele>3.01</ele>
        <time>2019-05-31T13:16:50.000Z</time>
      </trkpt>
      <trkpt lat="43.44016" lon="3.7502">
        <ele>3.77</ele>
        <time>2019-05-31T13:16:55.000Z</time>
      </trkpt>
      <trkpt lat="43.44013" lon="3.74987">
        <ele>3.77</ele>
        <time>2019-05-31T13:17:00.000Z</time>
      </trkpt>
      <trkpt lat="43.44032" lon="3.74964">
        <ele>5.52</ele>
        <time>2019-05-31T13:17:05.000Z</time>
      </trkpt>
      <trkpt lat="43.44052" lon="3.74942">
        <ele>5.02</ele>
        <time>2019-05-31T13:17:10.000Z</time>
      </trkpt>
      <trkpt lat="43.44074" lon="3.74922">
        <ele>5.7</ele>
        <time>2019-05-31T13:17:15.000Z</time>
      </trkpt>
      <trkpt lat="43.44098" lon="3.74903">
        <ele>5.76</ele>
        <time>2019-05-31T13:17:20.000Z</time>
      </trkpt>
      <trkpt lat="43.44121" lon="3.74886">
        <ele>5.58</ele>
        <time>2019-05-31T13:17:25.000Z</time>
      </trkpt>
      <trkpt lat="43.44118" lon="3.7486">
        <ele>5.76</ele>
        <time>2019-05-31T13:17:30.000Z</time>
      </trkpt>
      <trkpt lat="43.44101" lon="3.74838">
        <ele>4.75</ele>
        <time>2019-05-31T13:17:35.000Z</time>
      </trkpt>
      <trkpt lat="43.44083" lon="3.74815">
        <ele>3.83</ele>
        <time>2019-05-31T13:17:40.000Z</time>
      </trkpt>
      <trkpt lat="43.44066" lon="3.7479">
        <ele>3.95</ele>
        <time>2019-05-31T13:17:45.000Z</time>
      </trkpt>
      <trkpt lat="43.44048" lon="3.74765">
        <ele>2.97</ele>
        <time>2019-05-31T13:17:50.000Z</time>
      </trkpt>
      <trkpt lat="43.44031" lon="3.74738">
        <ele>2.52</ele>
        <time>2019-05-31T13:17:55.000Z</time>
      </trkpt>
      <trkpt lat="43.44016" lon="3.7471">
        <ele>2.01</ele>
        <time>2019-05-31T13:18:00.000Z</time>
      </trkpt>
      <trkpt lat="43.44001" lon="3.74679">
        <ele>2.76</ele>
        <time>2019-05-31T13:18:05.000Z</time>
      </trkpt>
      <trkpt lat="43.43985" lon="3.74652">
        <ele>2.95</ele>
        <time>2019-05-31T13:18:10.000Z</time>
      </trkpt>
      <trkpt lat="43.43967" lon="3.74627">
        <ele>3.76</ele>
        <time>2019-05-31T13:18:15.000Z</time>
      </trkpt>
      <trkpt lat="43.43949" lon="3.74605">
        <ele>2.77</ele>
        <time>2019-05-31T13:18:20.000Z</time>
      </trkpt>
      <trkpt lat="43.43931" lon="3.74583">
        <ele>3.52</ele>
        <time>2019-05-31T13:18:25.000Z</time>
      </trkpt>
      <trkpt lat="43.4391" lon="3.74566">
        <ele>3.7</ele>
        <time>2019-05-31T13:18:30.000Z</time>
      </trkpt>
      <trkpt lat="43.43887" lon="3.74552">
        <ele>2.77</ele>
        <time>2019-05-31T13:18:35.000Z</time>
      </trkpt>
      <trkpt lat="43.43865" lon="3.74543">
        <ele>2.77</ele>
        <time>2019-05-31T13:18:40.000Z</time>
      </trkpt>
      <trkpt lat="43.43846" lon="3.74531">
        <ele>2.97</ele>
        <time>2019-05-31T13:18:45.000Z</time>
      </trkpt>
      <trkpt lat="43.4385" lon="3.74545">
        <ele>3.75</ele>
        <time>2019-05-31T13:18:54.000Z</time>
      </trkpt>
      <trkpt lat="43.43871" lon="3.74552">
        <ele>2.78</ele>
        <time>2019-05-31T13:18:59.000Z</time>
      </trkpt>
      <trkpt lat="43.43894" lon="3.74563">
        <ele>2.77</ele>
        <time>2019-05-31T13:19:04.000Z</time>
      </trkpt>
      <trkpt lat="43.43917" lon="3.74576">
        <ele>2.77</ele>
        <time>2019-05-31T13:19:09.000Z</time>
      </trkpt>
      <trkpt lat="43.43938" lon="3.74599">
        <ele>3.7</ele>
        <time>2019-05-31T13:19:14.000Z</time>
      </trkpt>
      <trkpt lat="43.43957" lon="3.74623">
        <ele>3.77</ele>
        <time>2019-05-31T13:19:19.000Z</time>
      </trkpt>
      <trkpt lat="43.43977" lon="3.7465">
        <ele>4.58</ele>
        <time>2019-05-31T13:19:24.000Z</time>
      </trkpt>
      <trkpt lat="43.43997" lon="3.74678">
        <ele>4.53</ele>
        <time>2019-05-31T13:19:29.000Z</time>
      </trkpt>
      <trkpt lat="43.44014" lon="3.7471">
        <ele>6.7</ele>
        <time>2019-05-31T13:19:34.000Z</time>
      </trkpt>
      <trkpt lat="43.4403" lon="3.74741">
        <ele>6</ele>
        <time>2019-05-31T13:19:39.000Z</time>
      </trkpt>
      <trkpt lat="43.44048" lon="3.74769">
        <ele>5.77</ele>
        <time>2019-05-31T13:19:44.000Z</time>
      </trkpt>
      <trkpt lat="43.44068" lon="3.74797">
        <ele>4.96</ele>
        <time>2019-05-31T13:19:49.000Z</time>
      </trkpt>
      <trkpt lat="43.44087" lon="3.74825">
        <ele>4.76</ele>
        <time>2019-05-31T13:19:54.000Z</time>
      </trkpt>
      <trkpt lat="43.44106" lon="3.74851">
        <ele>2.78</ele>
        <time>2019-05-31T13:19:59.000Z</time>
      </trkpt>
      <trkpt lat="43.44113" lon="3.74881">
        <ele>4.69</ele>
        <time>2019-05-31T13:20:04.000Z</time>
      </trkpt>
      <trkpt lat="43.44095" lon="3.74905">
        <ele>4.78</ele>
        <time>2019-05-31T13:20:09.000Z</time>
      </trkpt>
      <trkpt lat="43.44073" lon="3.7492">
        <ele>5.82</ele>
        <time>2019-05-31T13:20:14.000Z</time>
      </trkpt>
      <trkpt lat="43.44051" lon="3.74936">
        <ele>6.52</ele>
        <time>2019-05-31T13:20:19.000Z</time>
      </trkpt>
      <trkpt lat="43.44034" lon="3.74955">
        <ele>5.02</ele>
        <time>2019-05-31T13:20:24.000Z</time>
      </trkpt>
      <trkpt lat="43.44013" lon="3.74977">
        <ele>4.52</ele>
        <time>2019-05-31T13:20:29.000Z</time>
      </trkpt>
      <trkpt lat="43.44005" lon="3.75009">
        <ele>4.77</ele>
        <time>2019-05-31T13:20:34.000Z</time>
      </trkpt>
      <trkpt lat="43.44021" lon="3.75036">
        <ele>3.08</ele>
        <time>2019-05-31T13:20:39.000Z</time>
      </trkpt>
      <trkpt lat="43.44042" lon="3.7506">
        <ele>2.77</ele>
        <time>2019-05-31T13:20:44.000Z</time>
      </trkpt>
      <trkpt lat="43.44064" lon="3.75085">
        <ele>2.02</ele>
        <time>2019-05-31T13:20:49.000Z</time>
      </trkpt>
      <trkpt lat="43.44087" lon="3.75109">
        <ele>1.77</ele>
        <time>2019-05-31T13:20:54.000Z</time>
      </trkpt>
      <trkpt lat="43.44108" lon="3.75133">
        <ele>1.77</ele>
        <time>2019-05-31T13:20:59.000Z</time>
      </trkpt>
      <trkpt lat="43.44127" lon="3.7516">
        <ele>1.95</ele>
        <time>2019-05-31T13:21:04.000Z</time>
      </trkpt>
      <trkpt lat="43.44145" lon="3.75188">
        <ele>2.76</ele>
        <time>2019-05-31T13:21:09.000Z</time>
      </trkpt>
      <trkpt lat="43.44162" lon="3.75217">
        <ele>2.95</ele>
        <time>2019-05-31T13:21:14.000Z</time>
      </trkpt>
      <trkpt lat="43.44178" lon="3.75246">
        <ele>4.51</ele>
        <time>2019-05-31T13:21:19.000Z</time>
      </trkpt>
      <trkpt lat="43.44196" lon="3.75275">
        <ele>6.45</ele>
        <time>2019-05-31T13:21:24.000Z</time>
      </trkpt>
      <trkpt lat="43.44211" lon="3.75302">
        <ele>4.78</ele>
        <time>2019-05-31T13:21:29.000Z</time>
      </trkpt>
      <trkpt lat="43.44204" lon="3.75316">
        <ele>5.45</ele>
        <time>2019-05-31T13:21:34.000Z</time>
      </trkpt>
      <trkpt lat="43.44195" lon="3.75324">
        <ele>5.75</ele>
        <time>2019-05-31T13:21:58.000Z</time>
      </trkpt>
      <trkpt lat="43.44185" lon="3.75336">
        <ele>3.83</ele>
        <time>2019-05-31T13:22:03.000Z</time>
      </trkpt>
      <trkpt lat="43.44169" lon="3.75354">
        <ele>5.51</ele>
        <time>2019-05-31T13:22:08.000Z</time>
      </trkpt>
      <trkpt lat="43.44157" lon="3.75382">
        <ele>4.95</ele>
        <time>2019-05-31T13:22:13.000Z</time>
      </trkpt>
      <trkpt lat="43.44147" lon="3.75411">
        <ele>6.5</ele>
        <time>2019-05-31T13:22:18.000Z</time>
      </trkpt>
      <trkpt lat="43.44137" lon="3.75429">
        <ele>7.75</ele>
        <time>2019-05-31T13:22:23.000Z</time>
      </trkpt>
      <trkpt lat="43.44122" lon="3.75423">
        <ele>6.02</ele>
        <time>2019-05-31T13:22:28.000Z</time>
      </trkpt>
      <trkpt lat="43.44104" lon="3.7541">
        <ele>5.02</ele>
        <time>2019-05-31T13:22:33.000Z</time>
      </trkpt>
      <trkpt lat="43.44086" lon="3.75397">
        <ele>4.77</ele>
        <time>2019-05-31T13:22:38.000Z</time>
      </trkpt>
      <trkpt lat="43.44068" lon="3.75384">
        <ele>4.77</ele>
        <time>2019-05-31T13:22:43.000Z</time>
      </trkpt>
      <trkpt lat="43.44049" lon="3.75373">
        <ele>5.75</ele>
        <time>2019-05-31T13:22:48.000Z</time>
      </trkpt>
      <trkpt lat="43.44029" lon="3.75361">
        <ele>4.79</ele>
        <time>2019-05-31T13:22:53.000Z</time>
      </trkpt>
      <trkpt lat="43.44009" lon="3.7535">
        <ele>4.77</ele>
        <time>2019-05-31T13:22:58.000Z</time>
      </trkpt>
      <trkpt lat="43.43988" lon="3.75344">
        <ele>3.77</ele>
        <time>2019-05-31T13:23:03.000Z</time>
      </trkpt>
      <trkpt lat="43.43968" lon="3.75334">
        <ele>2.78</ele>
        <time>2019-05-31T13:23:08.000Z</time>
      </trkpt>
      <trkpt lat="43.43949" lon="3.75323">
        <ele>2.96</ele>
        <time>2019-05-31T13:23:13.000Z</time>
      </trkpt>
      <trkpt lat="43.43929" lon="3.75312">
        <ele>3.76</ele>
        <time>2019-05-31T13:23:18.000Z</time>
      </trkpt>
      <trkpt lat="43.43909" lon="3.75299">
        <ele>2.78</ele>
        <time>2019-05-31T13:23:23.000Z</time>
      </trkpt>
      <trkpt lat="43.4389" lon="3.75288">
        <ele>3.77</ele>
        <time>2019-05-31T13:23:28.000Z</time>
      </trkpt>
      <trkpt lat="43.43872" lon="3.75277">
        <ele>2.83</ele>
        <time>2019-05-31T13:23:33.000Z</time>
      </trkpt>
      <trkpt lat="43.43853" lon="3.75265">
        <ele>1.83</ele>
        <time>2019-05-31T13:23:38.000Z</time>
      </trkpt>
      <trkpt lat="43.43834" lon="3.75253">
        <ele>2.58</ele>
        <time>2019-05-31T13:23:43.000Z</time>
      </trkpt>
      <trkpt lat="43.43815" lon="3.75242">
        <ele>1.82</ele>
        <time>2019-05-31T13:23:48.000Z</time>
      </trkpt>
      <trkpt lat="43.43797" lon="3.75231">
        <ele>1.77</ele>
        <time>2019-05-31T13:23:53.000Z</time>
      </trkpt>
      <trkpt lat="43.43779" lon="3.7522">
        <ele>2.77</ele>
        <time>2019-05-31T13:23:58.000Z</time>
      </trkpt>
      <trkpt lat="43.43762" lon="3.7521">
        <ele>3.52</ele>
        <time>2019-05-31T13:24:03.000Z</time>
      </trkpt>
      <trkpt lat="43.43743" lon="3.75199">
        <ele>2.77</ele>
        <time>2019-05-31T13:24:08.000Z</time>
      </trkpt>
      <trkpt lat="43.43723" lon="3.75188">
        <ele>3.77</ele>
        <time>2019-05-31T13:24:13.000Z</time>
      </trkpt>
      <trkpt lat="43.43705" lon="3.75178">
        <ele>2.77</ele>
        <time>2019-05-31T13:24:18.000Z</time>
      </trkpt>
      <trkpt lat="43.43686" lon="3.75166">
        <ele>2.52</ele>
        <time>2019-05-31T13:24:23.000Z</time>
      </trkpt>
      <trkpt lat="43.43668" lon="3.75155">
        <ele>2.77</ele>
        <time>2019-05-31T13:24:28.000Z</time>
      </trkpt>
      <trkpt lat="43.43649" lon="3.75143">
        <ele>3.52</ele>
        <time>2019-05-31T13:24:33.000Z</time>
      </trkpt>
      <trkpt lat="43.4363" lon="3.75132">
        <ele>3.52</ele>
        <time>2019-05-31T13:24:38.000Z</time>
      </trkpt>
      <trkpt lat="43.4361" lon="3.75122">
        <ele>3.77</ele>
        <time>2019-05-31T13:24:43.000Z</time>
      </trkpt>
      <trkpt lat="43.43592" lon="3.75111">
        <ele>3.77</ele>
        <time>2019-05-31T13:24:48.000Z</time>
      </trkpt>
      <trkpt lat="43.43577" lon="3.75095">
        <ele>2.77</ele>
        <time>2019-05-31T13:24:53.000Z</time>
      </trkpt>
      <trkpt lat="43.43561" lon="3.75093">
        <ele>2.77</ele>
        <time>2019-05-31T13:24:58.000Z</time>
      </trkpt>
      <trkpt lat="43.43544" lon="3.7508">
        <ele>1.78</ele>
        <time>2019-05-31T13:25:03.000Z</time>
      </trkpt>
      <trkpt lat="43.43525" lon="3.7507">
        <ele>1.02</ele>
        <time>2019-05-31T13:25:08.000Z</time>
      </trkpt>
      <trkpt lat="43.43506" lon="3.75058">
        <ele>1.77</ele>
        <time>2019-05-31T13:25:13.000Z</time>
      </trkpt>
      <trkpt lat="43.43487" lon="3.75046">
        <ele>1.02</ele>
        <time>2019-05-31T13:25:18.000Z</time>
      </trkpt>
      <trkpt lat="43.43467" lon="3.75033">
        <ele>2.52</ele>
        <time>2019-05-31T13:25:23.000Z</time>
      </trkpt>
      <trkpt lat="43.43447" lon="3.75023">
        <ele>2.71</ele>
        <time>2019-05-31T13:25:28.000Z</time>
      </trkpt>
      <trkpt lat="43.43429" lon="3.7501">
        <ele>2.77</ele>
        <time>2019-05-31T13:25:33.000Z</time>
      </trkpt>
      <trkpt lat="43.43412" lon="3.74993">
        <ele>3.76</ele>
        <time>2019-05-31T13:25:38.000Z</time>
      </trkpt>
      <trkpt lat="43.43394" lon="3.74977">
        <ele>3.73</ele>
        <time>2019-05-31T13:25:43.000Z</time>
      </trkpt>
      <trkpt lat="43.43377" lon="3.7496">
        <ele>2.78</ele>
        <time>2019-05-31T13:25:48.000Z</time>
      </trkpt>
      <trkpt lat="43.43361" lon="3.7494">
        <ele>2.78</ele>
        <time>2019-05-31T13:25:53.000Z</time>
      </trkpt>
      <trkpt lat="43.43346" lon="3.7492">
        <ele>1.78</ele>
        <time>2019-05-31T13:25:58.000Z</time>
      </trkpt>
      <trkpt lat="43.43332" lon="3.74899">
        <ele>0.79</ele>
        <time>2019-05-31T13:26:03.000Z</time>
      </trkpt>
      <trkpt lat="43.43319" lon="3.74878">
        <ele>0.72</ele>
        <time>2019-05-31T13:26:08.000Z</time>
      </trkpt>
      <trkpt lat="43.43304" lon="3.74857">
        <ele>3</ele>
        <time>2019-05-31T13:26:13.000Z</time>
      </trkpt>
      <trkpt lat="43.43289" lon="3.74835">
        <ele>3</ele>
        <time>2019-05-31T13:26:18.000Z</time>
      </trkpt>
      <trkpt lat="43.43275" lon="3.74815">
        <ele>1</ele>
        <time>2019-05-31T13:26:23.000Z</time>
      </trkpt>
      <trkpt lat="43.4326" lon="3.74792">
        <ele>1</ele>
        <time>2019-05-31T13:26:28.000Z</time>
      </trkpt>
      <trkpt lat="43.43244" lon="3.7477">
        <ele>4</ele>
        <time>2019-05-31T13:26:33.000Z</time>
      </trkpt>
      <trkpt lat="43.43228" lon="3.74747">
        <time>2019-05-31T13:26:38.000Z</time>
      </trkpt>
      <trkpt lat="43.43211" lon="3.74724">
        <ele>0.76</ele>
        <time>2019-05-31T13:26:43.000Z</time>
      </trkpt>
      <trkpt lat="43.43195" lon="3.74702">
        <ele>0.97</ele>
        <time>2019-05-31T13:26:48.000Z</time>
      </trkpt>
      <trkpt lat="43.43177" lon="3.74676">
        <ele>2.51</ele>
        <time>2019-05-31T13:26:53.000Z</time>
      </trkpt>
      <trkpt lat="43.43161" lon="3.74651">
        <ele>2.78</ele>
        <time>2019-05-31T13:26:58.000Z</time>
      </trkpt>
      <trkpt lat="43.43144" lon="3.74627">
        <ele>3.71</ele>
        <time>2019-05-31T13:27:03.000Z</time>
      </trkpt>
      <trkpt lat="43.43128" lon="3.74605">
        <ele>2.78</ele>
        <time>2019-05-31T13:27:08.000Z</time>
      </trkpt>
      <trkpt lat="43.43112" lon="3.7458">
        <ele>1.84</ele>
        <time>2019-05-31T13:27:13.000Z</time>
      </trkpt>
      <trkpt lat="43.43096" lon="3.74556">
        <ele>1.84</ele>
        <time>2019-05-31T13:27:18.000Z</time>
      </trkpt>
      <trkpt lat="43.43079" lon="3.74533">
        <ele>2.77</ele>
        <time>2019-05-31T13:27:23.000Z</time>
      </trkpt>
      <trkpt lat="43.43062" lon="3.74509">
        <ele>2.78</ele>
        <time>2019-05-31T13:27:28.000Z</time>
      </trkpt>
      <trkpt lat="43.43045" lon="3.74485">
        <ele>2.78</ele>
        <time>2019-05-31T13:27:33.000Z</time>
      </trkpt>
      <trkpt lat="43.43029" lon="3.74461">
        <ele>1.78</ele>
        <time>2019-05-31T13:27:38.000Z</time>
      </trkpt>
      <trkpt lat="43.43012" lon="3.74437">
        <ele>1.76</ele>
        <time>2019-05-31T13:27:43.000Z</time>
      </trkpt>
      <trkpt lat="43.42997" lon="3.74414">
        <ele>2.78</ele>
        <time>2019-05-31T13:27:48.000Z</time>
      </trkpt>
      <trkpt lat="43.42981" lon="3.74392">
        <ele>2.78</ele>
        <time>2019-05-31T13:27:53.000Z</time>
      </trkpt>
      <trkpt lat="43.42965" lon="3.74371">
        <ele>2.79</ele>
        <time>2019-05-31T13:27:58.000Z</time>
      </trkpt>
      <trkpt lat="43.4295" lon="3.74349">
        <ele>2.02</ele>
        <time>2019-05-31T13:28:03.000Z</time>
      </trkpt>
      <trkpt lat="43.42935" lon="3.74326">
        <ele>1.78</ele>
        <time>2019-05-31T13:28:08.000Z</time>
      </trkpt>
      <trkpt lat="43.42918" lon="3.74303">
        <ele>1.78</ele>
        <time>2019-05-31T13:28:13.000Z</time>
      </trkpt>
      <trkpt lat="43.42903" lon="3.74279">
        <ele>1.78</ele>
        <time>2019-05-31T13:28:18.000Z</time>
      </trkpt>
      <trkpt lat="43.42888" lon="3.74256">
        <ele>0.78</ele>
        <time>2019-05-31T13:28:23.000Z</time>
      </trkpt>
      <trkpt lat="43.42871" lon="3.74235">
        <ele>1.76</ele>
        <time>2019-05-31T13:28:28.000Z</time>
      </trkpt>
      <trkpt lat="43.42856" lon="3.74212">
        <ele>3.52</ele>
        <time>2019-05-31T13:28:33.000Z</time>
      </trkpt>
      <trkpt lat="43.4284" lon="3.74189">
        <ele>3.01</ele>
        <time>2019-05-31T13:28:38.000Z</time>
      </trkpt>
      <trkpt lat="43.42826" lon="3.74166">
        <ele>2.03</ele>
        <time>2019-05-31T13:28:43.000Z</time>
      </trkpt>
      <trkpt lat="43.42811" lon="3.74145">
        <ele>2.76</ele>
        <time>2019-05-31T13:28:48.000Z</time>
      </trkpt>
      <trkpt lat="43.42795" lon="3.74123">
        <ele>2.78</ele>
        <time>2019-05-31T13:28:53.000Z</time>
      </trkpt>
      <trkpt lat="43.42777" lon="3.74099">
        <ele>2.78</ele>
        <time>2019-05-31T13:28:58.000Z</time>
      </trkpt>
      <trkpt lat="43.42761" lon="3.74076">
        <ele>1.04</ele>
        <time>2019-05-31T13:29:03.000Z</time>
      </trkpt>
      <trkpt lat="43.42745" lon="3.74052">
        <ele>1.73</ele>
        <time>2019-05-31T13:29:08.000Z</time>
      </trkpt>
      <trkpt lat="43.4273" lon="3.74029">
        <ele>2.52</ele>
        <time>2019-05-31T13:29:13.000Z</time>
      </trkpt>
      <trkpt lat="43.42715" lon="3.74009">
        <ele>1.04</ele>
        <time>2019-05-31T13:29:18.000Z</time>
      </trkpt>
      <trkpt lat="43.42701" lon="3.73987">
        <ele>0.84</ele>
        <time>2019-05-31T13:29:23.000Z</time>
      </trkpt>
      <trkpt lat="43.42685" lon="3.73967">
        <ele>0.78</ele>
        <time>2019-05-31T13:29:28.000Z</time>
      </trkpt>
      <trkpt lat="43.42671" lon="3.73944">
        <ele>0.78</ele>
        <time>2019-05-31T13:29:33.000Z</time>
      </trkpt>
      <trkpt lat="43.42656" lon="3.73921">
        <ele>1.72</ele>
        <time>2019-05-31T13:29:38.000Z</time>
      </trkpt>
      <trkpt lat="43.42641" lon="3.73896">
        <ele>0.79</ele>
        <time>2019-05-31T13:29:43.000Z</time>
      </trkpt>
      <trkpt lat="43.42632" lon="3.73869">
        <ele>0.78</ele>
        <time>2019-05-31T13:29:48.000Z</time>
      </trkpt>
      <trkpt lat="43.42622" lon="3.73841">
        <time>2019-05-31T13:29:53.000Z</time>
      </trkpt>
      <trkpt lat="43.42611" lon="3.73812">
        <ele>1</ele>
        <time>2019-05-31T13:29:58.000Z</time>
      </trkpt>
      <trkpt lat="43.426" lon="3.73783">
        <ele>1</ele>
        <time>2019-05-31T13:30:03.000Z</time>
      </trkpt>
      <trkpt lat="43.42589" lon="3.73756">
        <time>2019-05-31T13:30:08.000Z</time>
      </trkpt>
      <trkpt lat="43.42578" lon="3.73729">
        <ele>1</ele>
        <time>2019-05-31T13:30:13.000Z</time>
      </trkpt>
      <trkpt lat="43.42565" lon="3.73704">
        <ele>0.76</ele>
        <time>2019-05-31T13:30:18.000Z</time>
      </trkpt>
      <trkpt lat="43.42554" lon="3.73676">
        <ele>1</ele>
        <time>2019-05-31T13:30:23.000Z</time>
      </trkpt>
      <trkpt lat="43.42544" lon="3.73648">
        <ele>1</ele>
        <time>2019-05-31T13:30:28.000Z</time>
      </trkpt>
      <trkpt lat="43.42534" lon="3.7362">
        <ele>1</ele>
        <time>2019-05-31T13:30:33.000Z</time>
      </trkpt>
      <trkpt lat="43.42523" lon="3.73592">
        <ele>1</ele>
        <time>2019-05-31T13:30:38.000Z</time>
      </trkpt>
      <trkpt lat="43.42512" lon="3.73565">
        <time>2019-05-31T13:30:43.000Z</time>
      </trkpt>
      <trkpt lat="43.42501" lon="3.73538">
        <ele>0.01</ele>
        <time>2019-05-31T13:30:48.000Z</time>
      </trkpt>
      <trkpt lat="43.42492" lon="3.73508">
        <ele>1</ele>
        <time>2019-05-31T13:30:53.000Z</time>
      </trkpt>
      <trkpt lat="43.42486" lon="3.73477">
        <time>2019-05-31T13:30:58.000Z</time>
      </trkpt>
      <trkpt lat="43.42481" lon="3.73447">
        <time>2019-05-31T13:31:03.000Z</time>
      </trkpt>
      <trkpt lat="43.42475" lon="3.73416">
        <ele>1</ele>
        <time>2019-05-31T13:31:08.000Z</time>
      </trkpt>
      <trkpt lat="43.42469" lon="3.73385">
        <ele>1</ele>
        <time>2019-05-31T13:31:13.000Z</time>
      </trkpt>
      <trkpt lat="43.42463" lon="3.73353">
        <time>2019-05-31T13:31:18.000Z</time>
      </trkpt>
      <trkpt lat="43.42456" lon="3.73323">
        <time>2019-05-31T13:31:23.000Z</time>
      </trkpt>
      <trkpt lat="43.42451" lon="3.73292">
        <ele>1</ele>
        <time>2019-05-31T13:31:28.000Z</time>
      </trkpt>
      <trkpt lat="43.42445" lon="3.73265">
        <ele>0.53</ele>
        <time>2019-05-31T13:31:33.000Z</time>
      </trkpt>
      <trkpt lat="43.42446" lon="3.73244">
        <ele>0.03</ele>
        <time>2019-05-31T13:31:38.000Z</time>
      </trkpt>
      <trkpt lat="43.42438" lon="3.73225">
        <ele>0.53</ele>
        <time>2019-05-31T13:31:43.000Z</time>
      </trkpt>
      <trkpt lat="43.42434" lon="3.73208">
        <ele>1.71</ele>
        <time>2019-05-31T13:31:48.000Z</time>
      </trkpt>
      <trkpt lat="43.42433" lon="3.73189">
        <ele>0.78</ele>
        <time>2019-05-31T13:31:53.000Z</time>
      </trkpt>
      <trkpt lat="43.42443" lon="3.73171">
        <ele>1.71</ele>
        <time>2019-05-31T13:31:58.000Z</time>
      </trkpt>
      <trkpt lat="43.42436" lon="3.73147">
        <ele>0.78</ele>
        <time>2019-05-31T13:32:03.000Z</time>
      </trkpt>
      <trkpt lat="43.42428" lon="3.73119">
        <ele>0.78</ele>
        <time>2019-05-31T13:32:08.000Z</time>
      </trkpt>
      <trkpt lat="43.42422" lon="3.73092">
        <ele>0.78</ele>
        <time>2019-05-31T13:32:13.000Z</time>
      </trkpt>
      <trkpt lat="43.42416" lon="3.73079">
        <ele>1.53</ele>
        <time>2019-05-31T13:32:18.000Z</time>
      </trkpt>
      <trkpt lat="43.42407" lon="3.7307">
        <ele>1.78</ele>
        <time>2019-05-31T13:32:24.000Z</time>
      </trkpt>
      <trkpt lat="43.42405" lon="3.73048">
        <ele>1.76</ele>
        <time>2019-05-31T13:32:29.000Z</time>
      </trkpt>
      <trkpt lat="43.42404" lon="3.73028">
        <ele>1.78</ele>
        <time>2019-05-31T13:32:34.000Z</time>
      </trkpt>
      <trkpt lat="43.42399" lon="3.73009">
        <ele>1.78</ele>
        <time>2019-05-31T13:32:39.000Z</time>
      </trkpt>
      <trkpt lat="43.42394" lon="3.72992">
        <ele>1.78</ele>
        <time>2019-05-31T13:32:44.000Z</time>
      </trkpt>
      <trkpt lat="43.4239" lon="3.72969">
        <ele>2.53</ele>
        <time>2019-05-31T13:32:49.000Z</time>
      </trkpt>
      <trkpt lat="43.42384" lon="3.72945">
        <ele>2.78</ele>
        <time>2019-05-31T13:32:54.000Z</time>
      </trkpt>
      <trkpt lat="43.42379" lon="3.72922">
        <ele>2.59</ele>
        <time>2019-05-31T13:32:59.000Z</time>
      </trkpt>
      <trkpt lat="43.42374" lon="3.72901">
        <ele>1.79</ele>
        <time>2019-05-31T13:33:04.000Z</time>
      </trkpt>
      <trkpt lat="43.42371" lon="3.72877">
        <ele>1.78</ele>
        <time>2019-05-31T13:33:09.000Z</time>
      </trkpt>
      <trkpt lat="43.42367" lon="3.72852">
        <ele>1.78</ele>
        <time>2019-05-31T13:33:14.000Z</time>
      </trkpt>
      <trkpt lat="43.42361" lon="3.72826">
        <ele>0.79</ele>
        <time>2019-05-31T13:33:19.000Z</time>
      </trkpt>
      <trkpt lat="43.42356" lon="3.728">
        <ele>1.59</ele>
        <time>2019-05-31T13:33:24.000Z</time>
      </trkpt>
      <trkpt lat="43.42351" lon="3.72772">
        <ele>0.79</ele>
        <time>2019-05-31T13:33:29.000Z</time>
      </trkpt>
      <trkpt lat="43.42346" lon="3.72745">
        <ele>0.78</ele>
        <time>2019-05-31T13:33:34.000Z</time>
      </trkpt>
      <trkpt lat="43.4234" lon="3.7272">
        <ele>0.73</ele>
        <time>2019-05-31T13:33:39.000Z</time>
      </trkpt>
      <trkpt lat="43.42335" lon="3.72694">
        <ele>0.77</ele>
        <time>2019-05-31T13:33:44.000Z</time>
      </trkpt>
      <trkpt lat="43.4233" lon="3.72669">
        <ele>1</ele>
        <time>2019-05-31T13:33:49.000Z</time>
      </trkpt>
      <trkpt lat="43.42324" lon="3.72643">
        <ele>1</ele>
        <time>2019-05-31T13:33:54.000Z</time>
      </trkpt>
      <trkpt lat="43.42319" lon="3.72615">
        <ele>1</ele>
        <time>2019-05-31T13:33:59.000Z</time>
      </trkpt>
      <trkpt lat="43.42313" lon="3.72588">
        <ele>1</ele>
        <time>2019-05-31T13:34:04.000Z</time>
      </trkpt>
      <trkpt lat="43.42308" lon="3.7256">
        <ele>0.71</ele>
        <time>2019-05-31T13:34:09.000Z</time>
      </trkpt>
      <trkpt lat="43.42303" lon="3.72533">
        <ele>0.77</ele>
        <time>2019-05-31T13:34:14.000Z</time>
      </trkpt>
      <trkpt lat="43.423" lon="3.72504">
        <ele>0.77</ele>
        <time>2019-05-31T13:34:19.000Z</time>
      </trkpt>
      <trkpt lat="43.42298" lon="3.72478">
        <ele>0.77</ele>
        <time>2019-05-31T13:34:24.000Z</time>
      </trkpt>
      <trkpt lat="43.42291" lon="3.72448">
        <ele>1.01</ele>
        <time>2019-05-31T13:34:29.000Z</time>
      </trkpt>
      <trkpt lat="43.42284" lon="3.72419">
        <ele>2.48</ele>
        <time>2019-05-31T13:34:34.000Z</time>
      </trkpt>
      <trkpt lat="43.42279" lon="3.72392">
        <ele>2.77</ele>
        <time>2019-05-31T13:34:39.000Z</time>
      </trkpt>
      <trkpt lat="43.42272" lon="3.72367">
        <ele>2.02</ele>
        <time>2019-05-31T13:34:44.000Z</time>
      </trkpt>
      <trkpt lat="43.42265" lon="3.72345">
        <ele>1.78</ele>
        <time>2019-05-31T13:34:49.000Z</time>
      </trkpt>
      <trkpt lat="43.42262" lon="3.72325">
        <ele>2.71</ele>
        <time>2019-05-31T13:34:54.000Z</time>
      </trkpt>
      <trkpt lat="43.42265" lon="3.72302">
        <ele>4.94</ele>
        <time>2019-05-31T13:34:59.000Z</time>
      </trkpt>
      <trkpt lat="43.42264" lon="3.72279">
        <ele>5.77</ele>
        <time>2019-05-31T13:35:04.000Z</time>
      </trkpt>
      <trkpt lat="43.42261" lon="3.7226">
        <ele>6.71</ele>
        <time>2019-05-31T13:35:09.000Z</time>
      </trkpt>
      <trkpt lat="43.42262" lon="3.72243">
        <ele>7.71</ele>
        <time>2019-05-31T13:35:14.000Z</time>
      </trkpt>
      <trkpt lat="43.42258" lon="3.72225">
        <ele>6.82</ele>
        <time>2019-05-31T13:35:19.000Z</time>
      </trkpt>
      <trkpt lat="43.42242" lon="3.72227">
        <ele>6.78</ele>
        <time>2019-05-31T13:35:24.000Z</time>
      </trkpt>
      <trkpt lat="43.42227" lon="3.72232">
        <ele>7.77</ele>
        <time>2019-05-31T13:35:29.000Z</time>
      </trkpt>
      <trkpt lat="43.42209" lon="3.72238">
        <ele>6.78</ele>
        <time>2019-05-31T13:35:34.000Z</time>
      </trkpt>
      <trkpt lat="43.42189" lon="3.72243">
        <ele>5.79</ele>
        <time>2019-05-31T13:35:39.000Z</time>
      </trkpt>
      <trkpt lat="43.42167" lon="3.7225">
        <ele>4.79</ele>
        <time>2019-05-31T13:35:44.000Z</time>
      </trkpt>
      <trkpt lat="43.42146" lon="3.72258">
        <ele>4.77</ele>
        <time>2019-05-31T13:35:49.000Z</time>
      </trkpt>
      <trkpt lat="43.42125" lon="3.72267">
        <ele>3.78</ele>
        <time>2019-05-31T13:35:54.000Z</time>
      </trkpt>
      <trkpt lat="43.42107" lon="3.72273">
        <ele>4.77</ele>
        <time>2019-05-31T13:35:59.000Z</time>
      </trkpt>
      <trkpt lat="43.42097" lon="3.72273">
        <ele>4.78</ele>
        <time>2019-05-31T13:36:04.000Z</time>
      </trkpt>
      <trkpt lat="43.42085" lon="3.72268">
        <ele>5.71</ele>
        <time>2019-05-31T13:36:09.000Z</time>
      </trkpt>
      <trkpt lat="43.42086" lon="3.72244">
        <ele>4.79</ele>
        <time>2019-05-31T13:36:14.000Z</time>
      </trkpt>
      <trkpt lat="43.42084" lon="3.72226">
        <ele>3.04</ele>
        <time>2019-05-31T13:36:19.000Z</time>
      </trkpt>
      <trkpt lat="43.42081" lon="3.72209">
        <ele>2.78</ele>
        <time>2019-05-31T13:36:24.000Z</time>
      </trkpt>
      <trkpt lat="43.42075" lon="3.72198">
        <ele>2.78</ele>
        <time>2019-05-31T13:36:29.000Z</time>
      </trkpt>
      <trkpt lat="43.42081" lon="3.72182">
        <ele>1.79</ele>
        <time>2019-05-31T13:36:34.000Z</time>
      </trkpt>
      <trkpt lat="43.42087" lon="3.72163">
        <ele>2.01</ele>
        <time>2019-05-31T13:36:39.000Z</time>
      </trkpt>
      <trkpt lat="43.42092" lon="3.72152">
        <ele>1.78</ele>
        <time>2019-05-31T13:36:44.000Z</time>
      </trkpt>
      <trkpt lat="43.42092" lon="3.72174">
        <ele>3.71</ele>
        <time>2019-05-31T13:36:49.000Z</time>
      </trkpt>
      <trkpt lat="43.42089" lon="3.72199">
        <ele>4.71</ele>
        <time>2019-05-31T13:36:54.000Z</time>
      </trkpt>
      <trkpt lat="43.42091" lon="3.7222">
        <ele>4.78</ele>
        <time>2019-05-31T13:36:59.000Z</time>
      </trkpt>
      <trkpt lat="43.42095" lon="3.72236">
        <ele>4.82</ele>
        <time>2019-05-31T13:37:04.000Z</time>
      </trkpt>
      <trkpt lat="43.42094" lon="3.7222">
        <ele>1.03</ele>
        <time>2019-05-31T13:40:37.000Z</time>
      </trkpt>
      <trkpt lat="43.42091" lon="3.72189">
        <ele>2</ele>
        <time>2019-05-31T13:40:42.000Z</time>
      </trkpt>
      <trkpt lat="43.42094" lon="3.72162">
        <ele>2</ele>
        <time>2019-05-31T13:40:47.000Z</time>
      </trkpt>
      <trkpt lat="43.42093" lon="3.72138">
        <ele>0.77</ele>
        <time>2019-05-31T13:40:52.000Z</time>
      </trkpt>
      <trkpt lat="43.42095" lon="3.72107">
        <ele>1.71</ele>
        <time>2019-05-31T13:40:57.000Z</time>
      </trkpt>
      <trkpt lat="43.42094" lon="3.72075">
        <ele>2.51</ele>
        <time>2019-05-31T13:41:02.000Z</time>
      </trkpt>
      <trkpt lat="43.42088" lon="3.72042">
        <ele>4.75</ele>
        <time>2019-05-31T13:41:07.000Z</time>
      </trkpt>
      <trkpt lat="43.42081" lon="3.7201">
        <ele>3.78</ele>
        <time>2019-05-31T13:41:12.000Z</time>
      </trkpt>
      <trkpt lat="43.42074" lon="3.71978">
        <ele>3.76</ele>
        <time>2019-05-31T13:41:17.000Z</time>
      </trkpt>
      <trkpt lat="43.42068" lon="3.71944">
        <ele>5.51</ele>
        <time>2019-05-31T13:41:22.000Z</time>
      </trkpt>
      <trkpt lat="43.4206" lon="3.71909">
        <ele>5.77</ele>
        <time>2019-05-31T13:41:27.000Z</time>
      </trkpt>
      <trkpt lat="43.42053" lon="3.71876">
        <ele>5.02</ele>
        <time>2019-05-31T13:41:32.000Z</time>
      </trkpt>
      <trkpt lat="43.42047" lon="3.71845">
        <ele>3.98</ele>
        <time>2019-05-31T13:41:37.000Z</time>
      </trkpt>
      <trkpt lat="43.42041" lon="3.71811">
        <ele>2.77</ele>
        <time>2019-05-31T13:41:42.000Z</time>
      </trkpt>
      <trkpt lat="43.42035" lon="3.71778">
        <ele>3.77</ele>
        <time>2019-05-31T13:41:47.000Z</time>
      </trkpt>
      <trkpt lat="43.42028" lon="3.71744">
        <ele>3.77</ele>
        <time>2019-05-31T13:41:52.000Z</time>
      </trkpt>
      <trkpt lat="43.42022" lon="3.71712">
        <ele>3.77</ele>
        <time>2019-05-31T13:41:57.000Z</time>
      </trkpt>
      <trkpt lat="43.42014" lon="3.71678">
        <ele>4.77</ele>
        <time>2019-05-31T13:42:02.000Z</time>
      </trkpt>
      <trkpt lat="43.42008" lon="3.71643">
        <ele>5.02</ele>
        <time>2019-05-31T13:42:07.000Z</time>
      </trkpt>
      <trkpt lat="43.42001" lon="3.71608">
        <ele>4.02</ele>
        <time>2019-05-31T13:42:12.000Z</time>
      </trkpt>
      <trkpt lat="43.41994" lon="3.71575">
        <ele>3.59</ele>
        <time>2019-05-31T13:42:17.000Z</time>
      </trkpt>
      <trkpt lat="43.41987" lon="3.7154">
        <ele>3.77</ele>
        <time>2019-05-31T13:42:22.000Z</time>
      </trkpt>
      <trkpt lat="43.41981" lon="3.71506">
        <ele>3.77</ele>
        <time>2019-05-31T13:42:27.000Z</time>
      </trkpt>
      <trkpt lat="43.41974" lon="3.71474">
        <ele>2.77</ele>
        <time>2019-05-31T13:42:32.000Z</time>
      </trkpt>
      <trkpt lat="43.41967" lon="3.71442">
        <ele>1.84</ele>
        <time>2019-05-31T13:42:37.000Z</time>
      </trkpt>
      <trkpt lat="43.41959" lon="3.71407">
        <ele>2.52</ele>
        <time>2019-05-31T13:42:42.000Z</time>
      </trkpt>
      <trkpt lat="43.41955" lon="3.71373">
        <ele>3.96</ele>
        <time>2019-05-31T13:42:47.000Z</time>
      </trkpt>
      <trkpt lat="43.41947" lon="3.7134">
        <ele>5.52</ele>
        <time>2019-05-31T13:42:52.000Z</time>
      </trkpt>
      <trkpt lat="43.4194" lon="3.71304">
        <ele>4.02</ele>
        <time>2019-05-31T13:42:57.000Z</time>
      </trkpt>
      <trkpt lat="43.41933" lon="3.7127">
        <ele>4.71</ele>
        <time>2019-05-31T13:43:02.000Z</time>
      </trkpt>
      <trkpt lat="43.41925" lon="3.71233">
        <ele>5.71</ele>
        <time>2019-05-31T13:43:07.000Z</time>
      </trkpt>
      <trkpt lat="43.41919" lon="3.712">
        <ele>5.77</ele>
        <time>2019-05-31T13:43:12.000Z</time>
      </trkpt>
      <trkpt lat="43.41911" lon="3.7117">
        <ele>4.59</ele>
        <time>2019-05-31T13:43:17.000Z</time>
      </trkpt>
      <trkpt lat="43.41905" lon="3.71137">
        <ele>3.78</ele>
        <time>2019-05-31T13:43:22.000Z</time>
      </trkpt>
      <trkpt lat="43.419" lon="3.71104">
        <ele>3.77</ele>
        <time>2019-05-31T13:43:27.000Z</time>
      </trkpt>
      <trkpt lat="43.41894" lon="3.71072">
        <ele>3.02</ele>
        <time>2019-05-31T13:43:32.000Z</time>
      </trkpt>
      <trkpt lat="43.41888" lon="3.71039">
        <ele>3.76</ele>
        <time>2019-05-31T13:43:37.000Z</time>
      </trkpt>
      <trkpt lat="43.41879" lon="3.71013">
        <ele>3.58</ele>
        <time>2019-05-31T13:43:42.000Z</time>
      </trkpt>
      <trkpt lat="43.41872" lon="3.71001">
        <ele>3.72</ele>
        <time>2019-05-31T13:43:49.000Z</time>
      </trkpt>
      <trkpt lat="43.41861" lon="3.70981">
        <ele>3.77</ele>
        <time>2019-05-31T13:43:54.000Z</time>
      </trkpt>
      <trkpt lat="43.41842" lon="3.70961">
        <ele>1.84</ele>
        <time>2019-05-31T13:43:59.000Z</time>
      </trkpt>
      <trkpt lat="43.41818" lon="3.70947">
        <ele>2.77</ele>
        <time>2019-05-31T13:44:04.000Z</time>
      </trkpt>
      <trkpt lat="43.41793" lon="3.70934">
        <ele>2.77</ele>
        <time>2019-05-31T13:44:09.000Z</time>
      </trkpt>
      <trkpt lat="43.41772" lon="3.70919">
        <ele>2.73</ele>
        <time>2019-05-31T13:44:14.000Z</time>
      </trkpt>
      <trkpt lat="43.41751" lon="3.70902">
        <ele>3.52</ele>
        <time>2019-05-31T13:44:19.000Z</time>
      </trkpt>
      <trkpt lat="43.4173" lon="3.70884">
        <ele>2.77</ele>
        <time>2019-05-31T13:44:24.000Z</time>
      </trkpt>
      <trkpt lat="43.41712" lon="3.70865">
        <ele>1.78</ele>
        <time>2019-05-31T13:44:29.000Z</time>
      </trkpt>
      <trkpt lat="43.41692" lon="3.70844">
        <ele>1.57</ele>
        <time>2019-05-31T13:44:34.000Z</time>
      </trkpt>
      <trkpt lat="43.41682" lon="3.70813">
        <ele>1.76</ele>
        <time>2019-05-31T13:44:39.000Z</time>
      </trkpt>
      <trkpt lat="43.41673" lon="3.7078">
        <ele>1.77</ele>
        <time>2019-05-31T13:44:44.000Z</time>
      </trkpt>
      <trkpt lat="43.41658" lon="3.70752">
        <ele>1.83</ele>
        <time>2019-05-31T13:44:49.000Z</time>
      </trkpt>
      <trkpt lat="43.41643" lon="3.70729">
        <ele>3.52</ele>
        <time>2019-05-31T13:44:54.000Z</time>
      </trkpt>
      <trkpt lat="43.4163" lon="3.70709">
        <ele>2.77</ele>
        <time>2019-05-31T13:44:59.000Z</time>
      </trkpt>
      <trkpt lat="43.4162" lon="3.70695">
        <ele>2.77</ele>
        <time>2019-05-31T13:45:04.000Z</time>
      </trkpt>
      <trkpt lat="43.41616" lon="3.70683">
        <ele>1.76</ele>
        <time>2019-05-31T13:45:22.000Z</time>
      </trkpt>
      <trkpt lat="43.41612" lon="3.70661">
        <ele>1.82</ele>
        <time>2019-05-31T13:45:27.000Z</time>
      </trkpt>
      <trkpt lat="43.41624" lon="3.70641">
        <ele>2.77</ele>
        <time>2019-05-31T13:45:32.000Z</time>
      </trkpt>
      <trkpt lat="43.4164" lon="3.70624">
        <ele>2.02</ele>
        <time>2019-05-31T13:45:37.000Z</time>
      </trkpt>
      <trkpt lat="43.41631" lon="3.70601">
        <ele>1.77</ele>
        <time>2019-05-31T13:45:42.000Z</time>
      </trkpt>
      <trkpt lat="43.41615" lon="3.70574">
        <ele>0.78</ele>
        <time>2019-05-31T13:45:47.000Z</time>
      </trkpt>
      <trkpt lat="43.41602" lon="3.70543">
        <ele>0.77</ele>
        <time>2019-05-31T13:45:52.000Z</time>
      </trkpt>
      <trkpt lat="43.41589" lon="3.70509">
        <ele>0.77</ele>
        <time>2019-05-31T13:45:57.000Z</time>
      </trkpt>
      <trkpt lat="43.41576" lon="3.70473">
        <ele>0.77</ele>
        <time>2019-05-31T13:46:02.000Z</time>
      </trkpt>
      <trkpt lat="43.41566" lon="3.70435">
        <ele>0.77</ele>
        <time>2019-05-31T13:46:07.000Z</time>
      </trkpt>
      <trkpt lat="43.41557" lon="3.70397">
        <ele>0.77</ele>
        <time>2019-05-31T13:46:12.000Z</time>
      </trkpt>
      <trkpt lat="43.41549" lon="3.70358">
        <ele>0.77</ele>
        <time>2019-05-31T13:46:17.000Z</time>
      </trkpt>
      <trkpt lat="43.4154" lon="3.70318">
        <ele>0.77</ele>
        <time>2019-05-31T13:46:22.000Z</time>
      </trkpt>
      <trkpt lat="43.41531" lon="3.70278">
        <ele>1</ele>
        <time>2019-05-31T13:46:27.000Z</time>
      </trkpt>
      <trkpt lat="43.41522" lon="3.70239">
        <ele>1</ele>
        <time>2019-05-31T13:46:32.000Z</time>
      </trkpt>
      <trkpt lat="43.41513" lon="3.70201">
        <ele>2</ele>
        <time>2019-05-31T13:46:37.000Z</time>
      </trkpt>
      <trkpt lat="43.41504" lon="3.70162">
        <ele>0.71</ele>
        <time>2019-05-31T13:46:42.000Z</time>
      </trkpt>
      <trkpt lat="43.41497" lon="3.70125">
        <ele>3</ele>
        <time>2019-05-31T13:46:47.000Z</time>
      </trkpt>
      <trkpt lat="43.41491" lon="3.70088">
        <ele>3</ele>
        <time>2019-05-31T13:46:52.000Z</time>
      </trkpt>
      <trkpt lat="43.41483" lon="3.70051">
        <ele>0.52</ele>
        <time>2019-05-31T13:46:57.000Z</time>
      </trkpt>
      <trkpt lat="43.41475" lon="3.70013">
        <ele>0.77</ele>
        <time>2019-05-31T13:47:02.000Z</time>
      </trkpt>
      <trkpt lat="43.41468" lon="3.69973">
        <ele>0.83</ele>
        <time>2019-05-31T13:47:07.000Z</time>
      </trkpt>
      <trkpt lat="43.41461" lon="3.69934">
        <ele>1.52</ele>
        <time>2019-05-31T13:47:12.000Z</time>
      </trkpt>
      <trkpt lat="43.41454" lon="3.69894">
        <ele>1.77</ele>
        <time>2019-05-31T13:47:17.000Z</time>
      </trkpt>
      <trkpt lat="43.41444" lon="3.69851">
        <ele>0.83</ele>
        <time>2019-05-31T13:47:22.000Z</time>
      </trkpt>
      <trkpt lat="43.41434" lon="3.69811">
        <ele>0.77</ele>
        <time>2019-05-31T13:47:27.000Z</time>
      </trkpt>
      <trkpt lat="43.41428" lon="3.6977">
        <ele>0.76</ele>
        <time>2019-05-31T13:47:32.000Z</time>
      </trkpt>
      <trkpt lat="43.41421" lon="3.69731">
        <ele>2</ele>
        <time>2019-05-31T13:47:37.000Z</time>
      </trkpt>
      <trkpt lat="43.41412" lon="3.69689">
        <ele>0.77</ele>
        <time>2019-05-31T13:47:42.000Z</time>
      </trkpt>
      <trkpt lat="43.41405" lon="3.69652">
        <ele>0.78</ele>
        <time>2019-05-31T13:47:47.000Z</time>
      </trkpt>
      <trkpt lat="43.41396" lon="3.69615">
        <ele>1.71</ele>
        <time>2019-05-31T13:47:52.000Z</time>
      </trkpt>
      <trkpt lat="43.41389" lon="3.69579">
        <ele>1.77</ele>
        <time>2019-05-31T13:47:57.000Z</time>
      </trkpt>
      <trkpt lat="43.41381" lon="3.6954">
        <ele>2.77</ele>
        <time>2019-05-31T13:48:02.000Z</time>
      </trkpt>
      <trkpt lat="43.41373" lon="3.69501">
        <ele>2.77</ele>
        <time>2019-05-31T13:48:07.000Z</time>
      </trkpt>
      <trkpt lat="43.41365" lon="3.69463">
        <ele>2.77</ele>
        <time>2019-05-31T13:48:12.000Z</time>
      </trkpt>
      <trkpt lat="43.4136" lon="3.69432">
        <ele>1.83</ele>
        <time>2019-05-31T13:48:17.000Z</time>
      </trkpt>
      <trkpt lat="43.41368" lon="3.69413">
        <ele>1.77</ele>
        <time>2019-05-31T13:48:22.000Z</time>
      </trkpt>
      <trkpt lat="43.41358" lon="3.69408">
        <ele>2.58</ele>
        <time>2019-05-31T13:48:28.000Z</time>
      </trkpt>
      <trkpt lat="43.4135" lon="3.69398">
        <ele>1.52</ele>
        <time>2019-05-31T13:49:07.000Z</time>
      </trkpt>
      <trkpt lat="43.41345" lon="3.69381">
        <ele>3.5</ele>
        <time>2019-05-31T13:49:12.000Z</time>
      </trkpt>
      <trkpt lat="43.4134" lon="3.69356">
        <ele>4.52</ele>
        <time>2019-05-31T13:49:17.000Z</time>
      </trkpt>
      <trkpt lat="43.41334" lon="3.69333">
        <ele>5.75</ele>
        <time>2019-05-31T13:49:22.000Z</time>
      </trkpt>
      <trkpt lat="43.41326" lon="3.69314">
        <ele>7.75</ele>
        <time>2019-05-31T13:49:27.000Z</time>
      </trkpt>
      <trkpt lat="43.41315" lon="3.69298">
        <ele>8.71</ele>
        <time>2019-05-31T13:49:32.000Z</time>
      </trkpt>
      <trkpt lat="43.41301" lon="3.69286">
        <ele>8.77</ele>
        <time>2019-05-31T13:49:37.000Z</time>
      </trkpt>
      <trkpt lat="43.41284" lon="3.6928">
        <ele>9.71</ele>
        <time>2019-05-31T13:49:42.000Z</time>
      </trkpt>
      <trkpt lat="43.41265" lon="3.69281">
        <ele>9.77</ele>
        <time>2019-05-31T13:49:47.000Z</time>
      </trkpt>
      <trkpt lat="43.41245" lon="3.69287">
        <ele>9.57</ele>
        <time>2019-05-31T13:49:52.000Z</time>
      </trkpt>
      <trkpt lat="43.41225" lon="3.69295">
        <ele>9.77</ele>
        <time>2019-05-31T13:49:57.000Z</time>
      </trkpt>
      <trkpt lat="43.41206" lon="3.69306">
        <ele>9.77</ele>
        <time>2019-05-31T13:50:02.000Z</time>
      </trkpt>
      <trkpt lat="43.41188" lon="3.69326">
        <ele>9.77</ele>
        <time>2019-05-31T13:50:07.000Z</time>
      </trkpt>
      <trkpt lat="43.41175" lon="3.6936">
        <ele>9.77</ele>
        <time>2019-05-31T13:50:12.000Z</time>
      </trkpt>
      <trkpt lat="43.41172" lon="3.69401">
        <ele>9.02</ele>
        <time>2019-05-31T13:50:17.000Z</time>
      </trkpt>
      <trkpt lat="43.41174" lon="3.69448">
        <ele>7.04</ele>
        <time>2019-05-31T13:50:22.000Z</time>
      </trkpt>
      <trkpt lat="43.41176" lon="3.695">
        <ele>5.84</ele>
        <time>2019-05-31T13:50:27.000Z</time>
      </trkpt>
      <trkpt lat="43.41183" lon="3.69541">
        <ele>3.79</ele>
        <time>2019-05-31T13:50:32.000Z</time>
      </trkpt>
      <trkpt lat="43.41186" lon="3.69555">
        <ele>3.77</ele>
        <time>2019-05-31T13:50:37.000Z</time>
      </trkpt>
      <trkpt lat="43.41189" lon="3.69571">
        <ele>5.51</ele>
        <time>2019-05-31T13:50:42.000Z</time>
      </trkpt>
      <trkpt lat="43.41194" lon="3.69597">
        <ele>5.59</ele>
        <time>2019-05-31T13:50:47.000Z</time>
      </trkpt>
      <trkpt lat="43.41201" lon="3.69628">
        <ele>5.76</ele>
        <time>2019-05-31T13:50:52.000Z</time>
      </trkpt>
      <trkpt lat="43.41204" lon="3.6964">
        <ele>3.84</ele>
        <time>2019-05-31T13:51:00.000Z</time>
      </trkpt>
      <trkpt lat="43.41207" lon="3.69657">
        <ele>3.77</ele>
        <time>2019-05-31T13:51:05.000Z</time>
      </trkpt>
      <trkpt lat="43.41205" lon="3.69669">
        <ele>5.77</ele>
        <time>2019-05-31T13:51:16.000Z</time>
      </trkpt>
      <trkpt lat="43.41198" lon="3.69679">
        <ele>4.78</ele>
        <time>2019-05-31T13:51:21.000Z</time>
      </trkpt>
      <trkpt lat="43.41188" lon="3.69684">
        <ele>3.76</ele>
        <time>2019-05-31T13:51:46.000Z</time>
      </trkpt>
      <trkpt lat="43.4117" lon="3.69691">
        <ele>3.77</ele>
        <time>2019-05-31T13:51:51.000Z</time>
      </trkpt>
      <trkpt lat="43.41146" lon="3.69699">
        <ele>2.84</ele>
        <time>2019-05-31T13:51:56.000Z</time>
      </trkpt>
      <trkpt lat="43.41131" lon="3.69704">
        <ele>2.02</ele>
        <time>2019-05-31T13:52:01.000Z</time>
      </trkpt>
      <trkpt lat="43.41117" lon="3.69709">
        <ele>2.77</ele>
        <time>2019-05-31T13:52:06.000Z</time>
      </trkpt>
      <trkpt lat="43.41104" lon="3.69714">
        <ele>2.77</ele>
        <time>2019-05-31T13:52:11.000Z</time>
      </trkpt>
      <trkpt lat="43.41089" lon="3.69716">
        <ele>2.78</ele>
        <time>2019-05-31T13:52:16.000Z</time>
      </trkpt>
      <trkpt lat="43.41068" lon="3.69725">
        <ele>1.03</ele>
        <time>2019-05-31T13:52:21.000Z</time>
      </trkpt>
      <trkpt lat="43.41055" lon="3.6973">
        <ele>0.71</ele>
        <time>2019-05-31T13:52:26.000Z</time>
      </trkpt>
      <trkpt lat="43.41045" lon="3.69733">
        <ele>0.01</ele>
        <time>2019-05-31T13:52:38.000Z</time>
      </trkpt>
      <trkpt lat="43.41024" lon="3.6974">
        <ele>0.96</ele>
        <time>2019-05-31T13:52:43.000Z</time>
      </trkpt>
      <trkpt lat="43.41" lon="3.69747">
        <ele>0.79</ele>
        <time>2019-05-31T13:52:48.000Z</time>
      </trkpt>
      <trkpt lat="43.40975" lon="3.69761">
        <ele>3.45</ele>
        <time>2019-05-31T13:52:53.000Z</time>
      </trkpt>
      <trkpt lat="43.40954" lon="3.69772">
        <ele>2.1</ele>
        <time>2019-05-31T13:52:58.000Z</time>
      </trkpt>
      <trkpt lat="43.4093" lon="3.69781">
        <ele>2.78</ele>
        <time>2019-05-31T13:53:03.000Z</time>
      </trkpt>
      <trkpt lat="43.40907" lon="3.69786">
        <ele>3.54</ele>
        <time>2019-05-31T13:53:08.000Z</time>
      </trkpt>
      <trkpt lat="43.40887" lon="3.69793">
        <ele>3.03</ele>
        <time>2019-05-31T13:53:13.000Z</time>
      </trkpt>
      <trkpt lat="43.40865" lon="3.69798">
        <ele>3.03</ele>
        <time>2019-05-31T13:53:18.000Z</time>
      </trkpt>
      <trkpt lat="43.40841" lon="3.69805">
        <ele>2.95</ele>
        <time>2019-05-31T13:53:23.000Z</time>
      </trkpt>
      <trkpt lat="43.40818" lon="3.69815">
        <ele>2.84</ele>
        <time>2019-05-31T13:53:28.000Z</time>
      </trkpt>
      <trkpt lat="43.40792" lon="3.69822">
        <ele>2.54</ele>
        <time>2019-05-31T13:53:33.000Z</time>
      </trkpt>
      <trkpt lat="43.40769" lon="3.69833">
        <ele>2.84</ele>
        <time>2019-05-31T13:53:38.000Z</time>
      </trkpt>
      <trkpt lat="43.40748" lon="3.69843">
        <ele>1.78</ele>
        <time>2019-05-31T13:53:43.000Z</time>
      </trkpt>
      <trkpt lat="43.40739" lon="3.69848">
        <ele>1.56</ele>
        <time>2019-05-31T13:53:48.000Z</time>
      </trkpt>
      <trkpt lat="43.40727" lon="3.69851">
        <ele>1.86</ele>
        <time>2019-05-31T13:54:21.000Z</time>
      </trkpt>
      <trkpt lat="43.40707" lon="3.69859">
        <ele>4.71</ele>
        <time>2019-05-31T13:54:26.000Z</time>
      </trkpt>
      <trkpt lat="43.4069" lon="3.69863">
        <ele>5.77</ele>
        <time>2019-05-31T13:54:31.000Z</time>
      </trkpt>
      <trkpt lat="43.40675" lon="3.69852">
        <ele>6.95</ele>
        <time>2019-05-31T13:54:36.000Z</time>
      </trkpt>
      <trkpt lat="43.40665" lon="3.69821">
        <ele>6.79</ele>
        <time>2019-05-31T13:54:41.000Z</time>
      </trkpt>
      <trkpt lat="43.40651" lon="3.69791">
        <ele>5.78</ele>
        <time>2019-05-31T13:54:46.000Z</time>
      </trkpt>
      <trkpt lat="43.40638" lon="3.69761">
        <ele>6.84</ele>
        <time>2019-05-31T13:54:51.000Z</time>
      </trkpt>
      <trkpt lat="43.40628" lon="3.69726">
        <ele>6.03</ele>
        <time>2019-05-31T13:54:56.000Z</time>
      </trkpt>
      <trkpt lat="43.40637" lon="3.69696">
        <ele>1.91</ele>
        <time>2019-05-31T13:55:01.000Z</time>
      </trkpt>
      <trkpt lat="43.40645" lon="3.69691">
        <ele>4.51</ele>
        <time>2019-05-31T13:55:15.000Z</time>
      </trkpt>
      <trkpt lat="43.40656" lon="3.69687">
        <ele>4.77</ele>
        <time>2019-05-31T13:55:20.000Z</time>
      </trkpt>
      <trkpt lat="43.40671" lon="3.6968">
        <ele>6.95</ele>
        <time>2019-05-31T13:55:25.000Z</time>
      </trkpt>
      <trkpt lat="43.40683" lon="3.69671">
        <ele>5.78</ele>
        <time>2019-05-31T13:55:30.000Z</time>
      </trkpt>
      <trkpt lat="43.40684" lon="3.69646">
        <ele>5.78</ele>
        <time>2019-05-31T13:55:35.000Z</time>
      </trkpt>
      <trkpt lat="43.40681" lon="3.69631">
        <ele>5.55</ele>
        <time>2019-05-31T13:55:40.000Z</time>
      </trkpt>
      <trkpt lat="43.40675" lon="3.6962">
        <ele>5.83</ele>
        <time>2019-05-31T13:55:48.000Z</time>
      </trkpt>
      <trkpt lat="43.40651" lon="3.69619">
        <ele>3.8</ele>
        <time>2019-05-31T13:55:53.000Z</time>
      </trkpt>
      <trkpt lat="43.40629" lon="3.69625">
        <ele>3.78</ele>
        <time>2019-05-31T13:55:58.000Z</time>
      </trkpt>
      <trkpt lat="43.40608" lon="3.69632">
        <ele>3.02</ele>
        <time>2019-05-31T13:56:03.000Z</time>
      </trkpt>
      <trkpt lat="43.40585" lon="3.69639">
        <ele>1.8</ele>
        <time>2019-05-31T13:56:08.000Z</time>
      </trkpt>
      <trkpt lat="43.40563" lon="3.69646">
        <ele>1.78</ele>
        <time>2019-05-31T13:56:13.000Z</time>
      </trkpt>
      <trkpt lat="43.40542" lon="3.69653">
        <ele>6</ele>
        <time>2019-05-31T13:56:18.000Z</time>
      </trkpt>
      <trkpt lat="43.40521" lon="3.6965">
        <ele>6</ele>
        <time>2019-05-31T13:56:23.000Z</time>
      </trkpt>
      <trkpt lat="43.40496" lon="3.69651">
        <ele>6</ele>
        <time>2019-05-31T13:56:28.000Z</time>
      </trkpt>
      <trkpt lat="43.4047" lon="3.69658">
        <ele>7</ele>
        <time>2019-05-31T13:56:33.000Z</time>
      </trkpt>
      <trkpt lat="43.40445" lon="3.69662">
        <ele>7</ele>
        <time>2019-05-31T13:56:38.000Z</time>
      </trkpt>
      <trkpt lat="43.40426" lon="3.69666">
        <ele>7</ele>
        <time>2019-05-31T13:56:43.000Z</time>
      </trkpt>
      <trkpt lat="43.4041" lon="3.6967">
        <ele>0.71</ele>
        <time>2019-05-31T13:56:48.000Z</time>
      </trkpt>
      <trkpt lat="43.40401" lon="3.69673">
        <ele>3.53</ele>
        <time>2019-05-31T13:57:01.000Z</time>
      </trkpt>
      <trkpt lat="43.40392" lon="3.6967">
        <ele>2.8</ele>
        <time>2019-05-31T13:57:35.000Z</time>
      </trkpt>
      <trkpt lat="43.40383" lon="3.69671">
        <ele>4.78</ele>
        <time>2019-05-31T13:57:45.000Z</time>
      </trkpt>
      <trkpt lat="43.40375" lon="3.6968">
        <ele>7.8</ele>
        <time>2019-05-31T13:57:59.000Z</time>
      </trkpt>
      <trkpt lat="43.4036" lon="3.69686">
        <ele>6.85</ele>
        <time>2019-05-31T13:58:04.000Z</time>
      </trkpt>
      <trkpt lat="43.40341" lon="3.6969">
        <ele>6.52</ele>
        <time>2019-05-31T13:58:09.000Z</time>
      </trkpt>
      <trkpt lat="43.40324" lon="3.69693">
        <ele>9.7</ele>
        <time>2019-05-31T13:58:14.000Z</time>
      </trkpt>
      <trkpt lat="43.40309" lon="3.69696">
        <ele>12.71</ele>
        <time>2019-05-31T13:58:19.000Z</time>
      </trkpt>
      <trkpt lat="43.40292" lon="3.69697">
        <ele>11.79</ele>
        <time>2019-05-31T13:58:24.000Z</time>
      </trkpt>
      <trkpt lat="43.40271" lon="3.69704">
        <ele>11.03</ele>
        <time>2019-05-31T13:58:29.000Z</time>
      </trkpt>
      <trkpt lat="43.40248" lon="3.69711">
        <ele>11.55</ele>
        <time>2019-05-31T13:58:34.000Z</time>
      </trkpt>
      <trkpt lat="43.40229" lon="3.69716">
        <ele>11.04</ele>
        <time>2019-05-31T13:58:39.000Z</time>
      </trkpt>
      <trkpt lat="43.40208" lon="3.69713">
        <ele>10.04</ele>
        <time>2019-05-31T13:58:44.000Z</time>
      </trkpt>
      <trkpt lat="43.40191" lon="3.69709">
        <ele>8.85</ele>
        <time>2019-05-31T13:58:49.000Z</time>
      </trkpt>
      <trkpt lat="43.40178" lon="3.6971">
        <ele>6.99</ele>
        <time>2019-05-31T13:58:54.000Z</time>
      </trkpt>
      <trkpt lat="43.40164" lon="3.69716">
        <ele>9.33</ele>
        <time>2019-05-31T13:58:59.000Z</time>
      </trkpt>
      <trkpt lat="43.40164" lon="3.69735">
        <ele>9.05</ele>
        <time>2019-05-31T13:59:04.000Z</time>
      </trkpt>
      <trkpt lat="43.40172" lon="3.69739">
        <ele>4.77</ele>
        <time>2019-05-31T13:59:40.000Z</time>
      </trkpt>
      <trkpt lat="43.40169" lon="3.69727">
        <ele>1.79</ele>
        <time>2019-05-31T14:01:32.000Z</time>
      </trkpt>
      <trkpt lat="43.40165" lon="3.69714">
        <ele>2.79</ele>
        <time>2019-05-31T14:01:40.000Z</time>
      </trkpt>
      <trkpt lat="43.40157" lon="3.69703">
        <ele>4.6</ele>
        <time>2019-05-31T14:01:45.000Z</time>
      </trkpt>
      <trkpt lat="43.4014" lon="3.69699">
        <ele>4.04</ele>
        <time>2019-05-31T14:01:50.000Z</time>
      </trkpt>
      <trkpt lat="43.40125" lon="3.69694">
        <ele>4.54</ele>
        <time>2019-05-31T14:01:55.000Z</time>
      </trkpt>
      <trkpt lat="43.40108" lon="3.69689">
        <ele>2.8</ele>
        <time>2019-05-31T14:02:00.000Z</time>
      </trkpt>
      <trkpt lat="43.40099" lon="3.69687">
        <ele>1.79</ele>
        <time>2019-05-31T14:02:07.000Z</time>
      </trkpt>
      <trkpt lat="43.40079" lon="3.69682">
        <ele>2.78</ele>
        <time>2019-05-31T14:02:12.000Z</time>
      </trkpt>
      <trkpt lat="43.40059" lon="3.69675">
        <ele>2.78</ele>
        <time>2019-05-31T14:02:17.000Z</time>
      </trkpt>
      <trkpt lat="43.40038" lon="3.6967">
        <ele>0.3</ele>
        <time>2019-05-31T14:02:22.000Z</time>
      </trkpt>
      <trkpt lat="43.40018" lon="3.69665">
        <ele>1.54</ele>
        <time>2019-05-31T14:02:27.000Z</time>
      </trkpt>
      <trkpt lat="43.39998" lon="3.6966">
        <ele>0.04</ele>
        <time>2019-05-31T14:02:32.000Z</time>
      </trkpt>
      <trkpt lat="43.39978" lon="3.69655">
        <ele>0.55</ele>
        <time>2019-05-31T14:02:37.000Z</time>
      </trkpt>
      <trkpt lat="43.39958" lon="3.69652">
        <ele>0.79</ele>
        <time>2019-05-31T14:02:42.000Z</time>
      </trkpt>
      <trkpt lat="43.39938" lon="3.69656">
        <ele>1.79</ele>
        <time>2019-05-31T14:02:47.000Z</time>
      </trkpt>
      <trkpt lat="43.39919" lon="3.69661">
        <ele>1.79</ele>
        <time>2019-05-31T14:02:52.000Z</time>
      </trkpt>
      <trkpt lat="43.39901" lon="3.69667">
        <ele>0.05</ele>
        <time>2019-05-31T14:02:57.000Z</time>
      </trkpt>
      <trkpt lat="43.39883" lon="3.69675">
        <ele>0.73</ele>
        <time>2019-05-31T14:03:02.000Z</time>
      </trkpt>
      <trkpt lat="43.39865" lon="3.69681">
        <ele>0.79</ele>
        <time>2019-05-31T14:03:07.000Z</time>
      </trkpt>
      <trkpt lat="43.39848" lon="3.69679">
        <ele>4</ele>
        <time>2019-05-31T14:03:12.000Z</time>
      </trkpt>
      <trkpt lat="43.39839" lon="3.69676">
        <ele>4</ele>
        <time>2019-05-31T14:03:17.000Z</time>
      </trkpt>
      <trkpt lat="43.39829" lon="3.69679">
        <ele>1.79</ele>
        <time>2019-05-31T14:03:23.000Z</time>
      </trkpt>
      <trkpt lat="43.39816" lon="3.69676">
        <ele>1.79</ele>
        <time>2019-05-31T14:03:28.000Z</time>
      </trkpt>
      <trkpt lat="43.39803" lon="3.6967">
        <ele>2.78</ele>
        <time>2019-05-31T14:03:33.000Z</time>
      </trkpt>
      <trkpt lat="43.3979" lon="3.69669">
        <ele>3.54</ele>
        <time>2019-05-31T14:03:38.000Z</time>
      </trkpt>
      <trkpt lat="43.39799" lon="3.69672">
        <ele>6.61</ele>
        <time>2019-05-31T14:04:00.000Z</time>
      </trkpt>
      <trkpt lat="43.39809" lon="3.69675">
        <ele>6.8</ele>
        <time>2019-05-31T14:04:06.000Z</time>
      </trkpt>
      <trkpt lat="43.39818" lon="3.69678">
        <ele>5.85</ele>
        <time>2019-05-31T14:04:13.000Z</time>
      </trkpt>
      <trkpt lat="43.3981" lon="3.69674">
        <ele>7.48</ele>
        <time>2019-05-31T14:05:02.000Z</time>
      </trkpt>
      <trkpt lat="43.39813" lon="3.69685">
        <ele>5.6</ele>
        <time>2019-05-31T14:05:51.000Z</time>
      </trkpt>
      <trkpt lat="43.39818" lon="3.69678">
        <ele>4</ele>
        <time>2019-05-31T14:10:15.000Z</time>
      </trkpt>
    </trkseg>
  </trk>
  <trk>
    <name><![CDATA[2019-06-01 10:22:53]]></name>
    <trkseg>
      <trkpt lat="43.45483" lon="3.68946">
        <ele>9.71</ele>
        <time>2019-06-01T08:22:53.000Z</time>
      </trkpt>
      <trkpt lat="43.45475" lon="3.68954">
        <ele>9.65</ele>
        <time>2019-06-01T08:23:08.000Z</time>
      </trkpt>
      <trkpt lat="43.4547" lon="3.6897">
        <ele>9.71</ele>
        <time>2019-06-01T08:23:13.000Z</time>
      </trkpt>
      <trkpt lat="43.45462" lon="3.68985">
        <ele>9.71</ele>
        <time>2019-06-01T08:23:18.000Z</time>
      </trkpt>
      <trkpt lat="43.45453" lon="3.68993">
        <ele>10.94</ele>
        <time>2019-06-01T08:23:23.000Z</time>
      </trkpt>
      <trkpt lat="43.45445" lon="3.68976">
        <ele>10.71</ele>
        <time>2019-06-01T08:23:28.000Z</time>
      </trkpt>
      <trkpt lat="43.45441" lon="3.68956">
        <ele>9.96</ele>
        <time>2019-06-01T08:23:33.000Z</time>
      </trkpt>
      <trkpt lat="43.45425" lon="3.68946">
        <ele>10.69</ele>
        <time>2019-06-01T08:23:38.000Z</time>
      </trkpt>
      <trkpt lat="43.45407" lon="3.68936">
        <ele>10.71</ele>
        <time>2019-06-01T08:23:43.000Z</time>
      </trkpt>
      <trkpt lat="43.45392" lon="3.68925">
        <ele>12.41</ele>
        <time>2019-06-01T08:23:48.000Z</time>
      </trkpt>
      <trkpt lat="43.4538" lon="3.68918">
        <ele>11.71</ele>
        <time>2019-06-01T08:23:53.000Z</time>
      </trkpt>
      <trkpt lat="43.45369" lon="3.68909">
        <ele>12.7</ele>
        <time>2019-06-01T08:23:58.000Z</time>
      </trkpt>
      <trkpt lat="43.45369" lon="3.68892">
        <ele>11.77</ele>
        <time>2019-06-01T08:24:03.000Z</time>
      </trkpt>
      <trkpt lat="43.4538" lon="3.68873">
        <ele>9.98</ele>
        <time>2019-06-01T08:24:08.000Z</time>
      </trkpt>
      <trkpt lat="43.45391" lon="3.68856">
        <ele>9.77</ele>
        <time>2019-06-01T08:24:13.000Z</time>
      </trkpt>
      <trkpt lat="43.45396" lon="3.68844">
        <ele>8.77</ele>
        <time>2019-06-01T08:24:18.000Z</time>
      </trkpt>
      <trkpt lat="43.454" lon="3.68831">
        <ele>8.65</ele>
        <time>2019-06-01T08:25:13.000Z</time>
      </trkpt>
      <trkpt lat="43.45393" lon="3.68822">
        <ele>7.96</ele>
        <time>2019-06-01T08:25:18.000Z</time>
      </trkpt>
      <trkpt lat="43.45399" lon="3.68832">
        <ele>11.52</ele>
        <time>2019-06-01T08:26:55.000Z</time>
      </trkpt>
      <trkpt lat="43.45395" lon="3.68846">
        <ele>11.66</ele>
        <time>2019-06-01T08:27:00.000Z</time>
      </trkpt>
      <trkpt lat="43.45384" lon="3.68838">
        <ele>11.7</ele>
        <time>2019-06-01T08:27:05.000Z</time>
      </trkpt>
      <trkpt lat="43.45377" lon="3.68829">
        <ele>9.77</ele>
        <time>2019-06-01T08:27:12.000Z</time>
      </trkpt>
      <trkpt lat="43.4537" lon="3.68814">
        <ele>7.96</ele>
        <time>2019-06-01T08:27:17.000Z</time>
      </trkpt>
      <trkpt lat="43.45357" lon="3.68804">
        <ele>7.71</ele>
        <time>2019-06-01T08:27:22.000Z</time>
      </trkpt>
      <trkpt lat="43.45357" lon="3.68791">
        <ele>10.69</ele>
        <time>2019-06-01T08:28:06.000Z</time>
      </trkpt>
      <trkpt lat="43.45348" lon="3.68789">
        <ele>10.46</ele>
        <time>2019-06-01T08:28:49.000Z</time>
      </trkpt>
      <trkpt lat="43.45335" lon="3.68808">
        <ele>10.7</ele>
        <time>2019-06-01T08:28:54.000Z</time>
      </trkpt>
      <trkpt lat="43.45324" lon="3.68825">
        <ele>11.51</ele>
        <time>2019-06-01T08:28:59.000Z</time>
      </trkpt>
      <trkpt lat="43.45313" lon="3.68839">
        <ele>12.52</ele>
        <time>2019-06-01T08:29:04.000Z</time>
      </trkpt>
      <trkpt lat="43.45304" lon="3.68853">
        <ele>13.65</ele>
        <time>2019-06-01T08:29:09.000Z</time>
      </trkpt>
      <trkpt lat="43.45296" lon="3.68864">
        <ele>14.71</ele>
        <time>2019-06-01T08:29:14.000Z</time>
      </trkpt>
      <trkpt lat="43.45288" lon="3.68873">
        <ele>15.71</ele>
        <time>2019-06-01T08:29:19.000Z</time>
      </trkpt>
      <trkpt lat="43.4528" lon="3.68883">
        <ele>15.71</ele>
        <time>2019-06-01T08:29:24.000Z</time>
      </trkpt>
      <trkpt lat="43.45274" lon="3.68892">
        <ele>16.65</ele>
        <time>2019-06-01T08:29:29.000Z</time>
      </trkpt>
      <trkpt lat="43.45267" lon="3.68904">
        <ele>18.65</ele>
        <time>2019-06-01T08:29:34.000Z</time>
      </trkpt>
      <trkpt lat="43.45259" lon="3.68913">
        <ele>20.71</ele>
        <time>2019-06-01T08:29:39.000Z</time>
      </trkpt>
      <trkpt lat="43.45248" lon="3.68915">
        <ele>21.65</ele>
        <time>2019-06-01T08:29:44.000Z</time>
      </trkpt>
      <trkpt lat="43.45236" lon="3.6891">
        <ele>21.71</ele>
        <time>2019-06-01T08:29:49.000Z</time>
      </trkpt>
      <trkpt lat="43.45228" lon="3.68899">
        <ele>21.71</ele>
        <time>2019-06-01T08:29:54.000Z</time>
      </trkpt>
      <trkpt lat="43.4522" lon="3.68887">
        <ele>21.71</ele>
        <time>2019-06-01T08:29:59.000Z</time>
      </trkpt>
      <trkpt lat="43.45212" lon="3.68875">
        <ele>19.96</ele>
        <time>2019-06-01T08:30:04.000Z</time>
      </trkpt>
      <trkpt lat="43.45204" lon="3.68861">
        <ele>19.71</ele>
        <time>2019-06-01T08:30:09.000Z</time>
      </trkpt>
      <trkpt lat="43.45195" lon="3.68848">
        <ele>19.71</ele>
        <time>2019-06-01T08:30:14.000Z</time>
      </trkpt>
      <trkpt lat="43.45183" lon="3.68837">
        <ele>20.7</ele>
        <time>2019-06-01T08:30:19.000Z</time>
      </trkpt>
      <trkpt lat="43.45172" lon="3.68837">
        <ele>20.77</ele>
        <time>2019-06-01T08:30:24.000Z</time>
      </trkpt>
      <trkpt lat="43.45163" lon="3.68852">
        <ele>22.7</ele>
        <time>2019-06-01T08:30:29.000Z</time>
      </trkpt>
      <trkpt lat="43.45166" lon="3.68878">
        <ele>22.71</ele>
        <time>2019-06-01T08:30:34.000Z</time>
      </trkpt>
      <trkpt lat="43.45174" lon="3.68901">
        <ele>22.71</ele>
        <time>2019-06-01T08:30:39.000Z</time>
      </trkpt>
      <trkpt lat="43.45182" lon="3.68925">
        <ele>22.76</ele>
        <time>2019-06-01T08:30:44.000Z</time>
      </trkpt>
      <trkpt lat="43.4519" lon="3.68949">
        <ele>21.96</ele>
        <time>2019-06-01T08:30:49.000Z</time>
      </trkpt>
      <trkpt lat="43.45194" lon="3.68979">
        <ele>20.73</ele>
        <time>2019-06-01T08:30:54.000Z</time>
      </trkpt>
      <trkpt lat="43.45198" lon="3.69012">
        <ele>21.71</ele>
        <time>2019-06-01T08:30:59.000Z</time>
      </trkpt>
      <trkpt lat="43.45205" lon="3.69049">
        <ele>19.78</ele>
        <time>2019-06-01T08:31:04.000Z</time>
      </trkpt>
      <trkpt lat="43.45198" lon="3.69083">
        <ele>19.71</ele>
        <time>2019-06-01T08:31:09.000Z</time>
      </trkpt>
      <trkpt lat="43.45183" lon="3.69095">
        <ele>21.46</ele>
        <time>2019-06-01T08:31:14.000Z</time>
      </trkpt>
      <trkpt lat="43.45168" lon="3.69104">
        <ele>24.4</ele>
        <time>2019-06-01T08:31:19.000Z</time>
      </trkpt>
      <trkpt lat="43.45153" lon="3.69114">
        <ele>26.65</ele>
        <time>2019-06-01T08:31:24.000Z</time>
      </trkpt>
      <trkpt lat="43.45132" lon="3.69127">
        <ele>27.96</ele>
        <time>2019-06-01T08:31:30.000Z</time>
      </trkpt>
      <trkpt lat="43.45114" lon="3.69136">
        <ele>27.76</ele>
        <time>2019-06-01T08:31:35.000Z</time>
      </trkpt>
      <trkpt lat="43.45109" lon="3.69149">
        <ele>27.03</ele>
        <time>2019-06-01T08:31:40.000Z</time>
      </trkpt>
      <trkpt lat="43.45119" lon="3.69175">
        <ele>25.97</ele>
        <time>2019-06-01T08:31:45.000Z</time>
      </trkpt>
      <trkpt lat="43.45126" lon="3.69197">
        <ele>25.72</ele>
        <time>2019-06-01T08:31:50.000Z</time>
      </trkpt>
      <trkpt lat="43.45132" lon="3.69219">
        <ele>24.72</ele>
        <time>2019-06-01T08:31:55.000Z</time>
      </trkpt>
      <trkpt lat="43.45136" lon="3.69241">
        <ele>23.72</ele>
        <time>2019-06-01T08:32:00.000Z</time>
      </trkpt>
      <trkpt lat="43.45134" lon="3.69257">
        <ele>23.47</ele>
        <time>2019-06-01T08:32:05.000Z</time>
      </trkpt>
      <trkpt lat="43.45126" lon="3.69269">
        <ele>22.72</ele>
        <time>2019-06-01T08:32:17.000Z</time>
      </trkpt>
      <trkpt lat="43.45107" lon="3.69286">
        <ele>22.72</ele>
        <time>2019-06-01T08:32:22.000Z</time>
      </trkpt>
      <trkpt lat="43.45077" lon="3.69288">
        <ele>21.78</ele>
        <time>2019-06-01T08:32:27.000Z</time>
      </trkpt>
      <trkpt lat="43.45043" lon="3.69291">
        <ele>18.8</ele>
        <time>2019-06-01T08:32:32.000Z</time>
      </trkpt>
      <trkpt lat="43.45009" lon="3.69309">
        <ele>15.79</ele>
        <time>2019-06-01T08:32:37.000Z</time>
      </trkpt>
      <trkpt lat="43.44981" lon="3.69334">
        <ele>11.86</ele>
        <time>2019-06-01T08:32:42.000Z</time>
      </trkpt>
      <trkpt lat="43.44949" lon="3.69362">
        <ele>8.99</ele>
        <time>2019-06-01T08:32:47.000Z</time>
      </trkpt>
      <trkpt lat="43.44921" lon="3.69385">
        <ele>9.48</ele>
        <time>2019-06-01T08:32:52.000Z</time>
      </trkpt>
      <trkpt lat="43.44896" lon="3.69408">
        <ele>10.7</ele>
        <time>2019-06-01T08:32:57.000Z</time>
      </trkpt>
      <trkpt lat="43.44872" lon="3.69429">
        <ele>11.47</ele>
        <time>2019-06-01T08:33:02.000Z</time>
      </trkpt>
      <trkpt lat="43.44849" lon="3.6945">
        <ele>11.72</ele>
        <time>2019-06-01T08:33:07.000Z</time>
      </trkpt>
      <trkpt lat="43.44827" lon="3.69464">
        <ele>10.73</ele>
        <time>2019-06-01T08:33:12.000Z</time>
      </trkpt>
      <trkpt lat="43.44804" lon="3.69483">
        <ele>10.72</ele>
        <time>2019-06-01T08:33:17.000Z</time>
      </trkpt>
      <trkpt lat="43.44782" lon="3.69499">
        <ele>11.72</ele>
        <time>2019-06-01T08:33:22.000Z</time>
      </trkpt>
      <trkpt lat="43.44761" lon="3.69519">
        <ele>13.46</ele>
        <time>2019-06-01T08:33:27.000Z</time>
      </trkpt>
      <trkpt lat="43.44742" lon="3.6954">
        <ele>13.72</ele>
        <time>2019-06-01T08:33:32.000Z</time>
      </trkpt>
      <trkpt lat="43.44723" lon="3.69561">
        <ele>12.74</ele>
        <time>2019-06-01T08:33:37.000Z</time>
      </trkpt>
      <trkpt lat="43.44705" lon="3.69581">
        <ele>10.98</ele>
        <time>2019-06-01T08:33:42.000Z</time>
      </trkpt>
      <trkpt lat="43.44686" lon="3.69589">
        <ele>10.72</ele>
        <time>2019-06-01T08:33:47.000Z</time>
      </trkpt>
      <trkpt lat="43.44674" lon="3.6959">
        <ele>10.72</ele>
        <time>2019-06-01T08:33:52.000Z</time>
      </trkpt>
      <trkpt lat="43.44664" lon="3.69589">
        <ele>10.72</ele>
        <time>2019-06-01T08:33:57.000Z</time>
      </trkpt>
      <trkpt lat="43.44652" lon="3.6958">
        <ele>11.66</ele>
        <time>2019-06-01T08:34:02.000Z</time>
      </trkpt>
      <trkpt lat="43.44638" lon="3.69565">
        <ele>11.67</ele>
        <time>2019-06-01T08:34:07.000Z</time>
      </trkpt>
      <trkpt lat="43.44634" lon="3.69535">
        <ele>8.06</ele>
        <time>2019-06-01T08:34:12.000Z</time>
      </trkpt>
      <trkpt lat="43.44631" lon="3.69489">
        <ele>5.98</ele>
        <time>2019-06-01T08:34:17.000Z</time>
      </trkpt>
      <trkpt lat="43.44627" lon="3.69443">
        <ele>5.72</ele>
        <time>2019-06-01T08:34:22.000Z</time>
      </trkpt>
      <trkpt lat="43.44625" lon="3.69419">
        <ele>5.72</ele>
        <time>2019-06-01T08:34:27.000Z</time>
      </trkpt>
      <trkpt lat="43.44633" lon="3.6939">
        <ele>4.97</ele>
        <time>2019-06-01T08:34:32.000Z</time>
      </trkpt>
      <trkpt lat="43.4461" lon="3.69372">
        <ele>4.72</ele>
        <time>2019-06-01T08:34:37.000Z</time>
      </trkpt>
      <trkpt lat="43.44595" lon="3.69405">
        <ele>3.97</ele>
        <time>2019-06-01T08:34:42.000Z</time>
      </trkpt>
      <trkpt lat="43.44575" lon="3.69434">
        <ele>5.47</ele>
        <time>2019-06-01T08:34:47.000Z</time>
      </trkpt>
      <trkpt lat="43.44551" lon="3.6946">
        <ele>5.73</ele>
        <time>2019-06-01T08:34:52.000Z</time>
      </trkpt>
      <trkpt lat="43.44527" lon="3.69485">
        <ele>5.73</ele>
        <time>2019-06-01T08:34:57.000Z</time>
      </trkpt>
      <trkpt lat="43.44504" lon="3.69509">
        <ele>5.73</ele>
        <time>2019-06-01T08:35:02.000Z</time>
      </trkpt>
      <trkpt lat="43.44479" lon="3.69534">
        <ele>5.73</ele>
        <time>2019-06-01T08:35:07.000Z</time>
      </trkpt>
      <trkpt lat="43.44455" lon="3.69555">
        <ele>6.72</ele>
        <time>2019-06-01T08:35:12.000Z</time>
      </trkpt>
      <trkpt lat="43.44433" lon="3.69576">
        <ele>6.73</ele>
        <time>2019-06-01T08:35:17.000Z</time>
      </trkpt>
      <trkpt lat="43.4441" lon="3.69599">
        <ele>6.73</ele>
        <time>2019-06-01T08:35:22.000Z</time>
      </trkpt>
      <trkpt lat="43.44388" lon="3.69622">
        <ele>8.23</ele>
        <time>2019-06-01T08:35:27.000Z</time>
      </trkpt>
      <trkpt lat="43.44366" lon="3.69641">
        <ele>7.73</ele>
        <time>2019-06-01T08:35:32.000Z</time>
      </trkpt>
      <trkpt lat="43.44349" lon="3.69655">
        <ele>7.74</ele>
        <time>2019-06-01T08:35:37.000Z</time>
      </trkpt>
      <trkpt lat="43.4434" lon="3.6966">
        <ele>6.71</ele>
        <time>2019-06-01T08:36:23.000Z</time>
      </trkpt>
      <trkpt lat="43.44323" lon="3.69677">
        <ele>6.73</ele>
        <time>2019-06-01T08:36:28.000Z</time>
      </trkpt>
      <trkpt lat="43.44301" lon="3.69698">
        <ele>5.73</ele>
        <time>2019-06-01T08:36:33.000Z</time>
      </trkpt>
      <trkpt lat="43.44278" lon="3.69719">
        <ele>5.73</ele>
        <time>2019-06-01T08:36:38.000Z</time>
      </trkpt>
      <trkpt lat="43.44255" lon="3.69741">
        <ele>6.73</ele>
        <time>2019-06-01T08:36:43.000Z</time>
      </trkpt>
      <trkpt lat="43.44231" lon="3.69762">
        <ele>7.68</ele>
        <time>2019-06-01T08:36:48.000Z</time>
      </trkpt>
      <trkpt lat="43.44207" lon="3.69782">
        <ele>6.5</ele>
        <time>2019-06-01T08:36:53.000Z</time>
      </trkpt>
      <trkpt lat="43.44183" lon="3.69799">
        <ele>7.49</ele>
        <time>2019-06-01T08:36:58.000Z</time>
      </trkpt>
      <trkpt lat="43.44157" lon="3.69813">
        <ele>7.92</ele>
        <time>2019-06-01T08:37:03.000Z</time>
      </trkpt>
      <trkpt lat="43.44131" lon="3.69828">
        <ele>6.8</ele>
        <time>2019-06-01T08:37:08.000Z</time>
      </trkpt>
      <trkpt lat="43.44106" lon="3.69843">
        <ele>5.74</ele>
        <time>2019-06-01T08:37:13.000Z</time>
      </trkpt>
      <trkpt lat="43.44082" lon="3.69857">
        <ele>4.98</ele>
        <time>2019-06-01T08:37:18.000Z</time>
      </trkpt>
      <trkpt lat="43.44059" lon="3.69872">
        <ele>4.74</ele>
        <time>2019-06-01T08:37:23.000Z</time>
      </trkpt>
      <trkpt lat="43.44038" lon="3.69881">
        <ele>4.69</ele>
        <time>2019-06-01T08:37:28.000Z</time>
      </trkpt>
      <trkpt lat="43.44028" lon="3.69885">
        <ele>2.74</ele>
        <time>2019-06-01T08:40:38.000Z</time>
      </trkpt>
      <trkpt lat="43.44015" lon="3.69892">
        <ele>3.49</ele>
        <time>2019-06-01T08:40:43.000Z</time>
      </trkpt>
      <trkpt lat="43.43999" lon="3.69902">
        <ele>2.97</ele>
        <time>2019-06-01T08:40:48.000Z</time>
      </trkpt>
      <trkpt lat="43.43983" lon="3.69912">
        <ele>3.73</ele>
        <time>2019-06-01T08:40:53.000Z</time>
      </trkpt>
      <trkpt lat="43.43963" lon="3.69922">
        <ele>3.74</ele>
        <time>2019-06-01T08:40:58.000Z</time>
      </trkpt>
      <trkpt lat="43.4394" lon="3.69932">
        <ele>4.63</ele>
        <time>2019-06-01T08:41:03.000Z</time>
      </trkpt>
      <trkpt lat="43.43917" lon="3.69944">
        <ele>3.74</ele>
        <time>2019-06-01T08:41:08.000Z</time>
      </trkpt>
      <trkpt lat="43.43894" lon="3.69956">
        <ele>3.97</ele>
        <time>2019-06-01T08:41:13.000Z</time>
      </trkpt>
      <trkpt lat="43.4387" lon="3.69968">
        <ele>2.8</ele>
        <time>2019-06-01T08:41:18.000Z</time>
      </trkpt>
      <trkpt lat="43.43847" lon="3.69979">
        <ele>1.99</ele>
        <time>2019-06-01T08:41:23.000Z</time>
      </trkpt>
      <trkpt lat="43.43822" lon="3.69992">
        <ele>1.74</ele>
        <time>2019-06-01T08:41:28.000Z</time>
      </trkpt>
      <trkpt lat="43.43797" lon="3.70004">
        <ele>1.5</ele>
        <time>2019-06-01T08:41:33.000Z</time>
      </trkpt>
      <trkpt lat="43.43773" lon="3.70016">
        <ele>2.74</ele>
        <time>2019-06-01T08:41:38.000Z</time>
      </trkpt>
      <trkpt lat="43.4375" lon="3.70028">
        <ele>3.68</ele>
        <time>2019-06-01T08:41:43.000Z</time>
      </trkpt>
      <trkpt lat="43.43728" lon="3.70038">
        <ele>3.74</ele>
        <time>2019-06-01T08:41:48.000Z</time>
      </trkpt>
      <trkpt lat="43.43704" lon="3.7005">
        <ele>3.55</ele>
        <time>2019-06-01T08:41:53.000Z</time>
      </trkpt>
      <trkpt lat="43.4368" lon="3.70061">
        <ele>2.99</ele>
        <time>2019-06-01T08:41:58.000Z</time>
      </trkpt>
      <trkpt lat="43.43656" lon="3.70073">
        <ele>2.74</ele>
        <time>2019-06-01T08:42:03.000Z</time>
      </trkpt>
      <trkpt lat="43.43632" lon="3.70086">
        <ele>1.8</ele>
        <time>2019-06-01T08:42:08.000Z</time>
      </trkpt>
      <trkpt lat="43.43607" lon="3.70098">
        <ele>2.73</ele>
        <time>2019-06-01T08:42:13.000Z</time>
      </trkpt>
      <trkpt lat="43.43581" lon="3.70111">
        <ele>2.74</ele>
        <time>2019-06-01T08:42:18.000Z</time>
      </trkpt>
      <trkpt lat="43.43556" lon="3.70123">
        <ele>2.74</ele>
        <time>2019-06-01T08:42:23.000Z</time>
      </trkpt>
      <trkpt lat="43.43529" lon="3.70136">
        <ele>2.74</ele>
        <time>2019-06-01T08:42:28.000Z</time>
      </trkpt>
      <trkpt lat="43.43502" lon="3.7015">
        <ele>1.76</ele>
        <time>2019-06-01T08:42:33.000Z</time>
      </trkpt>
      <trkpt lat="43.43475" lon="3.70164">
        <ele>2.69</ele>
        <time>2019-06-01T08:42:38.000Z</time>
      </trkpt>
      <trkpt lat="43.43449" lon="3.70179">
        <ele>2.75</ele>
        <time>2019-06-01T08:42:43.000Z</time>
      </trkpt>
      <trkpt lat="43.43424" lon="3.7019">
        <ele>1.75</ele>
        <time>2019-06-01T08:42:48.000Z</time>
      </trkpt>
      <trkpt lat="43.43399" lon="3.70201">
        <ele>0.75</ele>
        <time>2019-06-01T08:42:53.000Z</time>
      </trkpt>
      <trkpt lat="43.43374" lon="3.70213">
        <ele>1.88</ele>
        <time>2019-06-01T08:42:58.000Z</time>
      </trkpt>
      <trkpt lat="43.4335" lon="3.70227">
        <ele>1.75</ele>
        <time>2019-06-01T08:43:03.000Z</time>
      </trkpt>
      <trkpt lat="43.43326" lon="3.7024">
        <ele>1.75</ele>
        <time>2019-06-01T08:43:08.000Z</time>
      </trkpt>
      <trkpt lat="43.43302" lon="3.70252">
        <ele>2.7</ele>
        <time>2019-06-01T08:43:13.000Z</time>
      </trkpt>
      <trkpt lat="43.43276" lon="3.70265">
        <ele>2.75</ele>
        <time>2019-06-01T08:43:18.000Z</time>
      </trkpt>
      <trkpt lat="43.43251" lon="3.70278">
        <ele>2.75</ele>
        <time>2019-06-01T08:43:23.000Z</time>
      </trkpt>
      <trkpt lat="43.43228" lon="3.70295">
        <ele>2.75</ele>
        <time>2019-06-01T08:43:28.000Z</time>
      </trkpt>
      <trkpt lat="43.43206" lon="3.70313">
        <ele>2.75</ele>
        <time>2019-06-01T08:43:33.000Z</time>
      </trkpt>
      <trkpt lat="43.43184" lon="3.70334">
        <ele>3.69</ele>
        <time>2019-06-01T08:43:38.000Z</time>
      </trkpt>
      <trkpt lat="43.43163" lon="3.70355">
        <ele>3.75</ele>
        <time>2019-06-01T08:43:43.000Z</time>
      </trkpt>
      <trkpt lat="43.43141" lon="3.70377">
        <ele>3.75</ele>
        <time>2019-06-01T08:43:48.000Z</time>
      </trkpt>
      <trkpt lat="43.4312" lon="3.704">
        <ele>2.75</ele>
        <time>2019-06-01T08:43:53.000Z</time>
      </trkpt>
      <trkpt lat="43.43098" lon="3.70423">
        <ele>2.75</ele>
        <time>2019-06-01T08:43:58.000Z</time>
      </trkpt>
      <trkpt lat="43.43075" lon="3.70446">
        <ele>3.5</ele>
        <time>2019-06-01T08:44:03.000Z</time>
      </trkpt>
      <trkpt lat="43.43052" lon="3.70466">
        <ele>1.82</ele>
        <time>2019-06-01T08:44:08.000Z</time>
      </trkpt>
      <trkpt lat="43.43027" lon="3.70482">
        <ele>2.75</ele>
        <time>2019-06-01T08:44:13.000Z</time>
      </trkpt>
      <trkpt lat="43.43002" lon="3.70496">
        <ele>1.75</ele>
        <time>2019-06-01T08:44:18.000Z</time>
      </trkpt>
      <trkpt lat="43.42977" lon="3.70512">
        <ele>2.75</ele>
        <time>2019-06-01T08:44:23.000Z</time>
      </trkpt>
      <trkpt lat="43.42952" lon="3.70527">
        <ele>3.5</ele>
        <time>2019-06-01T08:44:28.000Z</time>
      </trkpt>
      <trkpt lat="43.42926" lon="3.70542">
        <ele>3.77</ele>
        <time>2019-06-01T08:44:33.000Z</time>
      </trkpt>
      <trkpt lat="43.42901" lon="3.70557">
        <ele>2.76</ele>
        <time>2019-06-01T08:44:38.000Z</time>
      </trkpt>
      <trkpt lat="43.42876" lon="3.7057">
        <ele>1.02</ele>
        <time>2019-06-01T08:44:43.000Z</time>
      </trkpt>
      <trkpt lat="43.4285" lon="3.70586">
        <ele>1.51</ele>
        <time>2019-06-01T08:44:48.000Z</time>
      </trkpt>
      <trkpt lat="43.42824" lon="3.70601">
        <ele>1.76</ele>
        <time>2019-06-01T08:44:53.000Z</time>
      </trkpt>
      <trkpt lat="43.42799" lon="3.70615">
        <ele>1.76</ele>
        <time>2019-06-01T08:44:58.000Z</time>
      </trkpt>
      <trkpt lat="43.42774" lon="3.70631">
        <ele>0.01</ele>
        <time>2019-06-01T08:45:03.000Z</time>
      </trkpt>
      <trkpt lat="43.42749" lon="3.70647">
        <ele>2</ele>
        <time>2019-06-01T08:45:08.000Z</time>
      </trkpt>
      <trkpt lat="43.42723" lon="3.70661">
        <ele>1.74</ele>
        <time>2019-06-01T08:45:13.000Z</time>
      </trkpt>
      <trkpt lat="43.42699" lon="3.70677">
        <ele>1.76</ele>
        <time>2019-06-01T08:45:18.000Z</time>
      </trkpt>
      <trkpt lat="43.42673" lon="3.70691">
        <ele>0.76</ele>
        <time>2019-06-01T08:45:23.000Z</time>
      </trkpt>
      <trkpt lat="43.4265" lon="3.70706">
        <ele>1.76</ele>
        <time>2019-06-01T08:45:28.000Z</time>
      </trkpt>
      <trkpt lat="43.42628" lon="3.70717">
        <ele>1.01</ele>
        <time>2019-06-01T08:45:33.000Z</time>
      </trkpt>
      <trkpt lat="43.42606" lon="3.7073">
        <ele>0.76</ele>
        <time>2019-06-01T08:45:38.000Z</time>
      </trkpt>
      <trkpt lat="43.42584" lon="3.70743">
        <ele>1</ele>
        <time>2019-06-01T08:45:43.000Z</time>
      </trkpt>
      <trkpt lat="43.42561" lon="3.70753">
        <ele>1.51</ele>
        <time>2019-06-01T08:45:48.000Z</time>
      </trkpt>
      <trkpt lat="43.42538" lon="3.70759">
        <ele>1.71</ele>
        <time>2019-06-01T08:45:53.000Z</time>
      </trkpt>
      <trkpt lat="43.42515" lon="3.70767">
        <ele>2.71</ele>
        <time>2019-06-01T08:45:58.000Z</time>
      </trkpt>
      <trkpt lat="43.42492" lon="3.70776">
        <ele>2.76</ele>
        <time>2019-06-01T08:46:03.000Z</time>
      </trkpt>
      <trkpt lat="43.42468" lon="3.70786">
        <ele>2.76</ele>
        <time>2019-06-01T08:46:08.000Z</time>
      </trkpt>
      <trkpt lat="43.42443" lon="3.70795">
        <ele>2.76</ele>
        <time>2019-06-01T08:46:13.000Z</time>
      </trkpt>
      <trkpt lat="43.4242" lon="3.70805">
        <ele>2.76</ele>
        <time>2019-06-01T08:46:18.000Z</time>
      </trkpt>
      <trkpt lat="43.42396" lon="3.70814">
        <ele>3.75</ele>
        <time>2019-06-01T08:46:23.000Z</time>
      </trkpt>
      <trkpt lat="43.42372" lon="3.70825">
        <ele>4.76</ele>
        <time>2019-06-01T08:46:28.000Z</time>
      </trkpt>
      <trkpt lat="43.42346" lon="3.70835">
        <ele>5.01</ele>
        <time>2019-06-01T08:46:33.000Z</time>
      </trkpt>
      <trkpt lat="43.42322" lon="3.70844">
        <ele>5</ele>
        <time>2019-06-01T08:46:38.000Z</time>
      </trkpt>
      <trkpt lat="43.42297" lon="3.70854">
        <ele>4.77</ele>
        <time>2019-06-01T08:46:43.000Z</time>
      </trkpt>
      <trkpt lat="43.4227" lon="3.70863">
        <ele>5.76</ele>
        <time>2019-06-01T08:46:48.000Z</time>
      </trkpt>
      <trkpt lat="43.42241" lon="3.70872">
        <ele>5.02</ele>
        <time>2019-06-01T08:46:53.000Z</time>
      </trkpt>
      <trkpt lat="43.4221" lon="3.70882">
        <ele>4.81</ele>
        <time>2019-06-01T08:46:58.000Z</time>
      </trkpt>
      <trkpt lat="43.42176" lon="3.70894">
        <ele>3.82</ele>
        <time>2019-06-01T08:47:03.000Z</time>
      </trkpt>
      <trkpt lat="43.42143" lon="3.70904">
        <ele>4.52</ele>
        <time>2019-06-01T08:47:08.000Z</time>
      </trkpt>
      <trkpt lat="43.42112" lon="3.70909">
        <ele>3.78</ele>
        <time>2019-06-01T08:47:13.000Z</time>
      </trkpt>
      <trkpt lat="43.42081" lon="3.70912">
        <ele>2.83</ele>
        <time>2019-06-01T08:47:18.000Z</time>
      </trkpt>
      <trkpt lat="43.42051" lon="3.70912">
        <ele>3.52</ele>
        <time>2019-06-01T08:47:23.000Z</time>
      </trkpt>
      <trkpt lat="43.42024" lon="3.70909">
        <ele>3.58</ele>
        <time>2019-06-01T08:47:28.000Z</time>
      </trkpt>
      <trkpt lat="43.41996" lon="3.70905">
        <ele>2.77</ele>
        <time>2019-06-01T08:47:33.000Z</time>
      </trkpt>
      <trkpt lat="43.41969" lon="3.70901">
        <ele>3.52</ele>
        <time>2019-06-01T08:47:38.000Z</time>
      </trkpt>
      <trkpt lat="43.41942" lon="3.70892">
        <ele>3.77</ele>
        <time>2019-06-01T08:47:43.000Z</time>
      </trkpt>
      <trkpt lat="43.41914" lon="3.70883">
        <ele>3.77</ele>
        <time>2019-06-01T08:47:48.000Z</time>
      </trkpt>
      <trkpt lat="43.41886" lon="3.70872">
        <ele>2.77</ele>
        <time>2019-06-01T08:47:53.000Z</time>
      </trkpt>
      <trkpt lat="43.41857" lon="3.7086">
        <ele>3.52</ele>
        <time>2019-06-01T08:47:58.000Z</time>
      </trkpt>
      <trkpt lat="43.4183" lon="3.70846">
        <ele>2.77</ele>
        <time>2019-06-01T08:48:03.000Z</time>
      </trkpt>
      <trkpt lat="43.41803" lon="3.70829">
        <ele>2.58</ele>
        <time>2019-06-01T08:48:08.000Z</time>
      </trkpt>
      <trkpt lat="43.41776" lon="3.70808">
        <ele>2.77</ele>
        <time>2019-06-01T08:48:13.000Z</time>
      </trkpt>
      <trkpt lat="43.41752" lon="3.70786">
        <ele>1.78</ele>
        <time>2019-06-01T08:48:18.000Z</time>
      </trkpt>
      <trkpt lat="43.41728" lon="3.70762">
        <ele>2.77</ele>
        <time>2019-06-01T08:48:23.000Z</time>
      </trkpt>
      <trkpt lat="43.41705" lon="3.70735">
        <ele>1.79</ele>
        <time>2019-06-01T08:48:28.000Z</time>
      </trkpt>
      <trkpt lat="43.41686" lon="3.70706">
        <ele>1.77</ele>
        <time>2019-06-01T08:48:33.000Z</time>
      </trkpt>
      <trkpt lat="43.41667" lon="3.70675">
        <ele>1.82</ele>
        <time>2019-06-01T08:48:38.000Z</time>
      </trkpt>
      <trkpt lat="43.4165" lon="3.70643">
        <ele>1.77</ele>
        <time>2019-06-01T08:48:43.000Z</time>
      </trkpt>
      <trkpt lat="43.41633" lon="3.70609">
        <ele>0.77</ele>
        <time>2019-06-01T08:48:48.000Z</time>
      </trkpt>
      <trkpt lat="43.41617" lon="3.70575">
        <ele>1</ele>
        <time>2019-06-01T08:48:53.000Z</time>
      </trkpt>
      <trkpt lat="43.416" lon="3.70537">
        <ele>1</ele>
        <time>2019-06-01T08:48:58.000Z</time>
      </trkpt>
      <trkpt lat="43.41585" lon="3.70499">
        <ele>1</ele>
        <time>2019-06-01T08:49:03.000Z</time>
      </trkpt>
      <trkpt lat="43.41572" lon="3.7046">
        <ele>1</ele>
        <time>2019-06-01T08:49:08.000Z</time>
      </trkpt>
      <trkpt lat="43.41562" lon="3.70418">
        <ele>1</ele>
        <time>2019-06-01T08:49:13.000Z</time>
      </trkpt>
      <trkpt lat="43.41552" lon="3.70376">
        <ele>1.1</ele>
        <time>2019-06-01T08:49:18.000Z</time>
      </trkpt>
      <trkpt lat="43.41543" lon="3.70335">
        <ele>1.5</ele>
        <time>2019-06-01T08:49:23.000Z</time>
      </trkpt>
      <trkpt lat="43.41534" lon="3.7029">
        <ele>1</ele>
        <time>2019-06-01T08:49:28.000Z</time>
      </trkpt>
      <trkpt lat="43.41525" lon="3.70245">
        <ele>1</ele>
        <time>2019-06-01T08:49:33.000Z</time>
      </trkpt>
      <trkpt lat="43.41514" lon="3.70201">
        <ele>2</ele>
        <time>2019-06-01T08:49:38.000Z</time>
      </trkpt>
      <trkpt lat="43.41505" lon="3.70156">
        <ele>2</ele>
        <time>2019-06-01T08:49:43.000Z</time>
      </trkpt>
      <trkpt lat="43.41496" lon="3.7011">
        <ele>3</ele>
        <time>2019-06-01T08:49:48.000Z</time>
      </trkpt>
      <trkpt lat="43.41486" lon="3.70064">
        <ele>3</ele>
        <time>2019-06-01T08:49:53.000Z</time>
      </trkpt>
      <trkpt lat="43.41477" lon="3.7002">
        <ele>3</ele>
        <time>2019-06-01T08:49:58.000Z</time>
      </trkpt>
      <trkpt lat="43.41468" lon="3.69974">
        <ele>4</ele>
        <time>2019-06-01T08:50:03.000Z</time>
      </trkpt>
      <trkpt lat="43.41459" lon="3.69928">
        <ele>4</ele>
        <time>2019-06-01T08:50:08.000Z</time>
      </trkpt>
      <trkpt lat="43.4145" lon="3.69881">
        <ele>3</ele>
        <time>2019-06-01T08:50:13.000Z</time>
      </trkpt>
      <trkpt lat="43.4144" lon="3.69834">
        <ele>3</ele>
        <time>2019-06-01T08:50:18.000Z</time>
      </trkpt>
      <trkpt lat="43.4143" lon="3.69787">
        <ele>1</ele>
        <time>2019-06-01T08:50:23.000Z</time>
      </trkpt>
      <trkpt lat="43.4142" lon="3.69741">
        <ele>0.04</ele>
        <time>2019-06-01T08:50:28.000Z</time>
      </trkpt>
      <trkpt lat="43.41411" lon="3.69695">
        <ele>0.02</ele>
        <time>2019-06-01T08:50:33.000Z</time>
      </trkpt>
      <trkpt lat="43.41403" lon="3.69652">
        <ele>1</ele>
        <time>2019-06-01T08:50:38.000Z</time>
      </trkpt>
      <trkpt lat="43.41393" lon="3.69608">
        <ele>1</ele>
        <time>2019-06-01T08:50:43.000Z</time>
      </trkpt>
      <trkpt lat="43.41384" lon="3.69565">
        <ele>2</ele>
        <time>2019-06-01T08:50:48.000Z</time>
      </trkpt>
      <trkpt lat="43.41373" lon="3.6952">
        <ele>2</ele>
        <time>2019-06-01T08:50:53.000Z</time>
      </trkpt>
      <trkpt lat="43.41363" lon="3.69475">
        <ele>3</ele>
        <time>2019-06-01T08:50:58.000Z</time>
      </trkpt>
      <trkpt lat="43.41358" lon="3.69437">
        <ele>2</ele>
        <time>2019-06-01T08:51:03.000Z</time>
      </trkpt>
      <trkpt lat="43.4136" lon="3.69415">
        <ele>0.96</ele>
        <time>2019-06-01T08:51:08.000Z</time>
      </trkpt>
      <trkpt lat="43.41353" lon="3.69404">
        <ele>1.52</ele>
        <time>2019-06-01T08:51:13.000Z</time>
      </trkpt>
      <trkpt lat="43.41343" lon="3.69391">
        <ele>2.77</ele>
        <time>2019-06-01T08:51:18.000Z</time>
      </trkpt>
      <trkpt lat="43.4134" lon="3.69367">
        <ele>3.52</ele>
        <time>2019-06-01T08:51:23.000Z</time>
      </trkpt>
      <trkpt lat="43.41335" lon="3.69341">
        <ele>4.75</ele>
        <time>2019-06-01T08:51:28.000Z</time>
      </trkpt>
      <trkpt lat="43.41327" lon="3.69317">
        <ele>6.52</ele>
        <time>2019-06-01T08:51:33.000Z</time>
      </trkpt>
      <trkpt lat="43.41314" lon="3.69296">
        <ele>6.82</ele>
        <time>2019-06-01T08:51:38.000Z</time>
      </trkpt>
      <trkpt lat="43.41296" lon="3.69283">
        <ele>8.52</ele>
        <time>2019-06-01T08:51:43.000Z</time>
      </trkpt>
      <trkpt lat="43.41274" lon="3.69279">
        <ele>9.75</ele>
        <time>2019-06-01T08:51:48.000Z</time>
      </trkpt>
      <trkpt lat="43.41252" lon="3.69283">
        <ele>10.75</ele>
        <time>2019-06-01T08:51:53.000Z</time>
      </trkpt>
      <trkpt lat="43.41229" lon="3.69294">
        <ele>11.77</ele>
        <time>2019-06-01T08:51:58.000Z</time>
      </trkpt>
      <trkpt lat="43.41205" lon="3.69306">
        <ele>10.78</ele>
        <time>2019-06-01T08:52:03.000Z</time>
      </trkpt>
      <trkpt lat="43.41184" lon="3.69329">
        <ele>9.79</ele>
        <time>2019-06-01T08:52:08.000Z</time>
      </trkpt>
      <trkpt lat="43.41169" lon="3.69364">
        <ele>8.77</ele>
        <time>2019-06-01T08:52:13.000Z</time>
      </trkpt>
      <trkpt lat="43.41162" lon="3.69408">
        <ele>6.84</ele>
        <time>2019-06-01T08:52:18.000Z</time>
      </trkpt>
      <trkpt lat="43.41167" lon="3.69454">
        <ele>4.84</ele>
        <time>2019-06-01T08:52:23.000Z</time>
      </trkpt>
      <trkpt lat="43.41176" lon="3.69502">
        <ele>2.79</ele>
        <time>2019-06-01T08:52:28.000Z</time>
      </trkpt>
      <trkpt lat="43.41186" lon="3.69553">
        <ele>1.04</ele>
        <time>2019-06-01T08:52:33.000Z</time>
      </trkpt>
      <trkpt lat="43.41195" lon="3.69599">
        <ele>1.71</ele>
        <time>2019-06-01T08:52:38.000Z</time>
      </trkpt>
      <trkpt lat="43.41204" lon="3.69643">
        <ele>3</ele>
        <time>2019-06-01T08:52:43.000Z</time>
      </trkpt>
      <trkpt lat="43.41201" lon="3.69679">
        <ele>2.76</ele>
        <time>2019-06-01T08:52:48.000Z</time>
      </trkpt>
      <trkpt lat="43.41176" lon="3.69688">
        <ele>2.76</ele>
        <time>2019-06-01T08:52:53.000Z</time>
      </trkpt>
      <trkpt lat="43.4115" lon="3.69696">
        <ele>3.52</ele>
        <time>2019-06-01T08:52:58.000Z</time>
      </trkpt>
      <trkpt lat="43.41122" lon="3.69707">
        <ele>3.77</ele>
        <time>2019-06-01T08:53:03.000Z</time>
      </trkpt>
      <trkpt lat="43.41093" lon="3.69717">
        <ele>3.77</ele>
        <time>2019-06-01T08:53:08.000Z</time>
      </trkpt>
      <trkpt lat="43.41065" lon="3.69725">
        <ele>4.76</ele>
        <time>2019-06-01T08:53:13.000Z</time>
      </trkpt>
      <trkpt lat="43.4104" lon="3.69733">
        <ele>3.77</ele>
        <time>2019-06-01T08:53:18.000Z</time>
      </trkpt>
      <trkpt lat="43.41031" lon="3.69742">
        <ele>6</ele>
        <time>2019-06-01T08:53:39.000Z</time>
      </trkpt>
      <trkpt lat="43.41019" lon="3.69749">
        <ele>7</ele>
        <time>2019-06-01T08:53:44.000Z</time>
      </trkpt>
      <trkpt lat="43.40998" lon="3.69757">
        <ele>1.82</ele>
        <time>2019-06-01T08:53:49.000Z</time>
      </trkpt>
      <trkpt lat="43.40973" lon="3.69763">
        <ele>5.57</ele>
        <time>2019-06-01T08:53:54.000Z</time>
      </trkpt>
      <trkpt lat="43.40947" lon="3.69771">
        <ele>3.48</ele>
        <time>2019-06-01T08:53:59.000Z</time>
      </trkpt>
      <trkpt lat="43.4092" lon="3.69779">
        <ele>2.08</ele>
        <time>2019-06-01T08:54:04.000Z</time>
      </trkpt>
      <trkpt lat="43.40892" lon="3.69791">
        <ele>2.59</ele>
        <time>2019-06-01T08:54:09.000Z</time>
      </trkpt>
      <trkpt lat="43.40864" lon="3.69802">
        <ele>2.78</ele>
        <time>2019-06-01T08:54:14.000Z</time>
      </trkpt>
      <trkpt lat="43.40836" lon="3.69811">
        <ele>2.77</ele>
        <time>2019-06-01T08:54:19.000Z</time>
      </trkpt>
      <trkpt lat="43.4081" lon="3.69828">
        <ele>3.72</ele>
        <time>2019-06-01T08:54:24.000Z</time>
      </trkpt>
      <trkpt lat="43.40782" lon="3.69833">
        <ele>3.09</ele>
        <time>2019-06-01T08:54:29.000Z</time>
      </trkpt>
      <trkpt lat="43.40754" lon="3.69843">
        <ele>2.78</ele>
        <time>2019-06-01T08:54:34.000Z</time>
      </trkpt>
      <trkpt lat="43.40731" lon="3.69846">
        <ele>2.02</ele>
        <time>2019-06-01T08:54:39.000Z</time>
      </trkpt>
      <trkpt lat="43.40722" lon="3.69855">
        <ele>3.53</ele>
        <time>2019-06-01T08:54:44.000Z</time>
      </trkpt>
      <trkpt lat="43.40713" lon="3.69861">
        <ele>11.75</ele>
        <time>2019-06-01T08:55:37.000Z</time>
      </trkpt>
      <trkpt lat="43.40696" lon="3.69869">
        <ele>7.21</ele>
        <time>2019-06-01T08:55:42.000Z</time>
      </trkpt>
      <trkpt lat="43.4068" lon="3.69876">
        <ele>4.8</ele>
        <time>2019-06-01T08:55:47.000Z</time>
      </trkpt>
      <trkpt lat="43.40664" lon="3.69886">
        <ele>5.79</ele>
        <time>2019-06-01T08:55:52.000Z</time>
      </trkpt>
      <trkpt lat="43.40648" lon="3.69899">
        <ele>6.78</ele>
        <time>2019-06-01T08:55:57.000Z</time>
      </trkpt>
      <trkpt lat="43.40638" lon="3.69919">
        <ele>4.85</ele>
        <time>2019-06-01T08:56:02.000Z</time>
      </trkpt>
      <trkpt lat="43.4064" lon="3.69939">
        <ele>3.03</ele>
        <time>2019-06-01T08:56:07.000Z</time>
      </trkpt>
      <trkpt lat="43.40656" lon="3.69966">
        <ele>2.54</ele>
        <time>2019-06-01T08:56:12.000Z</time>
      </trkpt>
      <trkpt lat="43.40667" lon="3.69993">
        <ele>3.78</ele>
        <time>2019-06-01T08:56:17.000Z</time>
      </trkpt>
      <trkpt lat="43.40677" lon="3.7002">
        <ele>4.91</ele>
        <time>2019-06-01T08:56:22.000Z</time>
      </trkpt>
      <trkpt lat="43.40683" lon="3.70042">
        <ele>4.78</ele>
        <time>2019-06-01T08:56:27.000Z</time>
      </trkpt>
      <trkpt lat="43.40673" lon="3.70056">
        <ele>3.04</ele>
        <time>2019-06-01T08:56:32.000Z</time>
      </trkpt>
      <trkpt lat="43.40659" lon="3.70063">
        <ele>0.87</ele>
        <time>2019-06-01T08:56:37.000Z</time>
      </trkpt>
      <trkpt lat="43.40648" lon="3.70054">
        <ele>0.78</ele>
        <time>2019-06-01T08:56:42.000Z</time>
      </trkpt>
      <trkpt lat="43.40636" lon="3.70046">
        <ele>7</ele>
        <time>2019-06-01T08:56:47.000Z</time>
      </trkpt>
      <trkpt lat="43.40623" lon="3.70041">
        <ele>7</ele>
        <time>2019-06-01T08:56:52.000Z</time>
      </trkpt>
      <trkpt lat="43.4061" lon="3.70038">
        <ele>7</ele>
        <time>2019-06-01T08:56:57.000Z</time>
      </trkpt>
      <trkpt lat="43.40595" lon="3.70032">
        <ele>7</ele>
        <time>2019-06-01T08:57:02.000Z</time>
      </trkpt>
      <trkpt lat="43.40581" lon="3.70025">
        <ele>9</ele>
        <time>2019-06-01T08:57:07.000Z</time>
      </trkpt>
      <trkpt lat="43.40573" lon="3.70019">
        <ele>4.02</ele>
        <time>2019-06-01T08:57:22.000Z</time>
      </trkpt>
      <trkpt lat="43.40558" lon="3.70016">
        <ele>3.83</ele>
        <time>2019-06-01T08:57:27.000Z</time>
      </trkpt>
      <trkpt lat="43.4054" lon="3.70012">
        <ele>4.53</ele>
        <time>2019-06-01T08:57:32.000Z</time>
      </trkpt>
      <trkpt lat="43.40523" lon="3.70006">
        <ele>3.85</ele>
        <time>2019-06-01T08:57:37.000Z</time>
      </trkpt>
      <trkpt lat="43.40505" lon="3.69997">
        <ele>2.8</ele>
        <time>2019-06-01T08:57:42.000Z</time>
      </trkpt>
      <trkpt lat="43.40487" lon="3.69988">
        <ele>4.47</ele>
        <time>2019-06-01T08:57:47.000Z</time>
      </trkpt>
      <trkpt lat="43.40473" lon="3.69977">
        <ele>3.89</ele>
        <time>2019-06-01T08:57:52.000Z</time>
      </trkpt>
      <trkpt lat="43.40464" lon="3.69974">
        <ele>3.74</ele>
        <time>2019-06-01T08:58:07.000Z</time>
      </trkpt>
      <trkpt lat="43.40457" lon="3.69957">
        <ele>4.31</ele>
        <time>2019-06-01T08:58:12.000Z</time>
      </trkpt>
      <trkpt lat="43.40456" lon="3.69928">
        <ele>4.78</ele>
        <time>2019-06-01T08:58:17.000Z</time>
      </trkpt>
      <trkpt lat="43.40454" lon="3.699">
        <ele>1.74</ele>
        <time>2019-06-01T08:58:22.000Z</time>
      </trkpt>
      <trkpt lat="43.40451" lon="3.69878">
        <ele>3.52</ele>
        <time>2019-06-01T08:58:27.000Z</time>
      </trkpt>
      <trkpt lat="43.40453" lon="3.69864">
        <ele>0.3</ele>
        <time>2019-06-01T08:58:56.000Z</time>
      </trkpt>
      <trkpt lat="43.40445" lon="3.69855">
        <ele>3.8</ele>
        <time>2019-06-01T08:59:05.000Z</time>
      </trkpt>
      <trkpt lat="43.40441" lon="3.6984">
        <ele>1.79</ele>
        <time>2019-06-01T08:59:10.000Z</time>
      </trkpt>
      <trkpt lat="43.40441" lon="3.6982">
        <ele>1.84</ele>
        <time>2019-06-01T08:59:15.000Z</time>
      </trkpt>
      <trkpt lat="43.40441" lon="3.69795">
        <ele>4.47</ele>
        <time>2019-06-01T08:59:20.000Z</time>
      </trkpt>
      <trkpt lat="43.40441" lon="3.69773">
        <ele>6.61</ele>
        <time>2019-06-01T08:59:25.000Z</time>
      </trkpt>
      <trkpt lat="43.40442" lon="3.6976">
        <ele>8.8</ele>
        <time>2019-06-01T08:59:35.000Z</time>
      </trkpt>
      <trkpt lat="43.40442" lon="3.69747">
        <ele>5</ele>
        <time>2019-06-01T09:00:09.000Z</time>
      </trkpt>
      <trkpt lat="43.40435" lon="3.69724">
        <ele>1.01</ele>
        <time>2019-06-01T09:00:14.000Z</time>
      </trkpt>
      <trkpt lat="43.4043" lon="3.69701">
        <ele>1.78</ele>
        <time>2019-06-01T09:00:19.000Z</time>
      </trkpt>
      <trkpt lat="43.40429" lon="3.69689">
        <ele>2.53</ele>
        <time>2019-06-01T09:00:24.000Z</time>
      </trkpt>
      <trkpt lat="43.40421" lon="3.69679">
        <ele>1.74</ele>
        <time>2019-06-01T09:00:30.000Z</time>
      </trkpt>
      <trkpt lat="43.404" lon="3.69678">
        <ele>6</ele>
        <time>2019-06-01T09:00:35.000Z</time>
      </trkpt>
      <trkpt lat="43.40375" lon="3.69684">
        <ele>1.78</ele>
        <time>2019-06-01T09:00:40.000Z</time>
      </trkpt>
      <trkpt lat="43.40354" lon="3.69689">
        <ele>2.78</ele>
        <time>2019-06-01T09:00:45.000Z</time>
      </trkpt>
      <trkpt lat="43.40332" lon="3.69693">
        <ele>3.59</ele>
        <time>2019-06-01T09:00:50.000Z</time>
      </trkpt>
      <trkpt lat="43.40308" lon="3.69697">
        <ele>4.02</ele>
        <time>2019-06-01T09:00:55.000Z</time>
      </trkpt>
      <trkpt lat="43.40282" lon="3.69702">
        <ele>5.52</ele>
        <time>2019-06-01T09:01:00.000Z</time>
      </trkpt>
      <trkpt lat="43.40256" lon="3.69709">
        <ele>6.54</ele>
        <time>2019-06-01T09:01:05.000Z</time>
      </trkpt>
      <trkpt lat="43.40228" lon="3.69714">
        <ele>5.8</ele>
        <time>2019-06-01T09:01:10.000Z</time>
      </trkpt>
      <trkpt lat="43.40207" lon="3.69712">
        <ele>3.81</ele>
        <time>2019-06-01T09:01:15.000Z</time>
      </trkpt>
      <trkpt lat="43.40183" lon="3.6971">
        <ele>5.72</ele>
        <time>2019-06-01T09:01:20.000Z</time>
      </trkpt>
      <trkpt lat="43.40174" lon="3.69706">
        <ele>1.89</ele>
        <time>2019-06-01T09:01:25.000Z</time>
      </trkpt>
      <trkpt lat="43.40163" lon="3.69706">
        <ele>2.97</ele>
        <time>2019-06-01T09:01:31.000Z</time>
      </trkpt>
      <trkpt lat="43.40147" lon="3.69702">
        <ele>2.79</ele>
        <time>2019-06-01T09:01:36.000Z</time>
      </trkpt>
      <trkpt lat="43.40128" lon="3.69696">
        <ele>2.04</ele>
        <time>2019-06-01T09:01:41.000Z</time>
      </trkpt>
      <trkpt lat="43.40108" lon="3.69691">
        <ele>3.58</ele>
        <time>2019-06-01T09:01:46.000Z</time>
      </trkpt>
      <trkpt lat="43.40086" lon="3.69685">
        <ele>4.73</ele>
        <time>2019-06-01T09:01:51.000Z</time>
      </trkpt>
      <trkpt lat="43.40067" lon="3.6968">
        <ele>6.54</ele>
        <time>2019-06-01T09:01:56.000Z</time>
      </trkpt>
      <trkpt lat="43.40048" lon="3.69675">
        <ele>6.03</ele>
        <time>2019-06-01T09:02:01.000Z</time>
      </trkpt>
      <trkpt lat="43.40028" lon="3.69668">
        <ele>4.85</ele>
        <time>2019-06-01T09:02:06.000Z</time>
      </trkpt>
      <trkpt lat="43.40006" lon="3.69662">
        <ele>6.73</ele>
        <time>2019-06-01T09:02:11.000Z</time>
      </trkpt>
      <trkpt lat="43.39985" lon="3.69657">
        <ele>6.79</ele>
        <time>2019-06-01T09:02:16.000Z</time>
      </trkpt>
      <trkpt lat="43.39965" lon="3.69654">
        <ele>7.6</ele>
        <time>2019-06-01T09:02:21.000Z</time>
      </trkpt>
      <trkpt lat="43.39955" lon="3.69651">
        <ele>7.56</ele>
        <time>2019-06-01T09:02:26.000Z</time>
      </trkpt>
      <trkpt lat="43.39943" lon="3.69643">
        <ele>8.77</ele>
        <time>2019-06-01T09:02:31.000Z</time>
      </trkpt>
      <trkpt lat="43.3993" lon="3.69634">
        <ele>9.83</ele>
        <time>2019-06-01T09:02:36.000Z</time>
      </trkpt>
      <trkpt lat="43.39922" lon="3.69625">
        <ele>10.54</ele>
        <time>2019-06-01T09:02:41.000Z</time>
      </trkpt>
      <trkpt lat="43.39927" lon="3.69612">
        <ele>11.79</ele>
        <time>2019-06-01T09:02:46.000Z</time>
      </trkpt>
      <trkpt lat="43.39937" lon="3.6961">
        <ele>9.56</ele>
        <time>2019-06-01T09:02:53.000Z</time>
      </trkpt>
      <trkpt lat="43.39945" lon="3.69603">
        <ele>11.72</ele>
        <time>2019-06-01T09:02:59.000Z</time>
      </trkpt>
      <trkpt lat="43.39954" lon="3.69605">
        <ele>9.74</ele>
        <time>2019-06-01T09:03:08.000Z</time>
      </trkpt>
      <trkpt lat="43.39963" lon="3.69608">
        <ele>7.65</ele>
        <time>2019-06-01T09:03:14.000Z</time>
      </trkpt>
      <trkpt lat="43.39973" lon="3.69613">
        <ele>7.04</ele>
        <time>2019-06-01T09:03:21.000Z</time>
      </trkpt>
      <trkpt lat="43.39982" lon="3.69617">
        <ele>7.98</ele>
        <time>2019-06-01T09:03:49.000Z</time>
      </trkpt>
      <trkpt lat="43.39981" lon="3.69604">
        <ele>7.83</ele>
        <time>2019-06-01T09:04:17.000Z</time>
      </trkpt>
      <trkpt lat="43.39987" lon="3.69614">
        <ele>6.48</ele>
        <time>2019-06-01T09:10:05.000Z</time>
      </trkpt>
      <trkpt lat="43.39979" lon="3.6962">
        <ele>8.7</ele>
        <time>2019-06-01T09:10:17.000Z</time>
      </trkpt>
      <trkpt lat="43.39973" lon="3.69607">
        <ele>3.77</ele>
        <time>2019-06-01T09:14:00.000Z</time>
      </trkpt>
      <trkpt lat="43.39952" lon="3.69605">
        <ele>5.48</ele>
        <time>2019-06-01T09:14:05.000Z</time>
      </trkpt>
      <trkpt lat="43.39943" lon="3.69608">
        <ele>5.85</ele>
        <time>2019-06-01T09:14:13.000Z</time>
      </trkpt>
      <trkpt lat="43.39932" lon="3.69606">
        <ele>5.81</ele>
        <time>2019-06-01T09:14:18.000Z</time>
      </trkpt>
      <trkpt lat="43.39912" lon="3.69607">
        <ele>5.48</ele>
        <time>2019-06-01T09:14:23.000Z</time>
      </trkpt>
      <trkpt lat="43.39895" lon="3.6961">
        <ele>5.79</ele>
        <time>2019-06-01T09:14:28.000Z</time>
      </trkpt>
      <trkpt lat="43.39873" lon="3.69614">
        <ele>6.79</ele>
        <time>2019-06-01T09:14:33.000Z</time>
      </trkpt>
      <trkpt lat="43.39852" lon="3.69621">
        <ele>7.73</ele>
        <time>2019-06-01T09:14:38.000Z</time>
      </trkpt>
      <trkpt lat="43.39826" lon="3.69622">
        <ele>9.53</ele>
        <time>2019-06-01T09:14:43.000Z</time>
      </trkpt>
      <trkpt lat="43.39805" lon="3.69621">
        <ele>9.79</ele>
        <time>2019-06-01T09:14:48.000Z</time>
      </trkpt>
      <trkpt lat="43.39784" lon="3.69614">
        <ele>10.73</ele>
        <time>2019-06-01T09:14:53.000Z</time>
      </trkpt>
      <trkpt lat="43.39765" lon="3.69606">
        <ele>8.17</ele>
        <time>2019-06-01T09:14:58.000Z</time>
      </trkpt>
      <trkpt lat="43.39741" lon="3.69597">
        <ele>4.05</ele>
        <time>2019-06-01T09:15:03.000Z</time>
      </trkpt>
      <trkpt lat="43.39714" lon="3.69586">
        <ele>4.79</ele>
        <time>2019-06-01T09:15:08.000Z</time>
      </trkpt>
      <trkpt lat="43.39697" lon="3.69577">
        <ele>2.87</ele>
        <time>2019-06-01T09:15:13.000Z</time>
      </trkpt>
      <trkpt lat="43.39683" lon="3.6957">
        <ele>2.79</ele>
        <time>2019-06-01T09:15:18.000Z</time>
      </trkpt>
      <trkpt lat="43.39664" lon="3.69561">
        <ele>2</ele>
        <time>2019-06-01T09:15:23.000Z</time>
      </trkpt>
      <trkpt lat="43.39644" lon="3.69552">
        <ele>1.04</ele>
        <time>2019-06-01T09:15:28.000Z</time>
      </trkpt>
      <trkpt lat="43.39625" lon="3.69543">
        <ele>0.79</ele>
        <time>2019-06-01T09:15:33.000Z</time>
      </trkpt>
      <trkpt lat="43.39609" lon="3.69531">
        <ele>3.48</ele>
        <time>2019-06-01T09:15:38.000Z</time>
      </trkpt>
      <trkpt lat="43.39594" lon="3.69515">
        <ele>5.47</ele>
        <time>2019-06-01T09:15:43.000Z</time>
      </trkpt>
      <trkpt lat="43.39574" lon="3.69496">
        <ele>4.05</ele>
        <time>2019-06-01T09:15:48.000Z</time>
      </trkpt>
      <trkpt lat="43.3955" lon="3.69487">
        <ele>4.73</ele>
        <time>2019-06-01T09:15:53.000Z</time>
      </trkpt>
      <trkpt lat="43.39541" lon="3.69488">
        <ele>3.75</ele>
        <time>2019-06-01T09:16:04.000Z</time>
      </trkpt>
      <trkpt lat="43.39529" lon="3.69483">
        <ele>4.73</ele>
        <time>2019-06-01T09:16:12.000Z</time>
      </trkpt>
      <trkpt lat="43.39513" lon="3.69472">
        <ele>4.8</ele>
        <time>2019-06-01T09:16:17.000Z</time>
      </trkpt>
      <trkpt lat="43.39501" lon="3.69492">
        <ele>4.85</ele>
        <time>2019-06-01T09:16:22.000Z</time>
      </trkpt>
      <trkpt lat="43.39503" lon="3.6952">
        <ele>4.61</ele>
        <time>2019-06-01T09:16:27.000Z</time>
      </trkpt>
      <trkpt lat="43.39508" lon="3.69544">
        <ele>4.8</ele>
        <time>2019-06-01T09:16:32.000Z</time>
      </trkpt>
      <trkpt lat="43.39509" lon="3.69564">
        <ele>4.8</ele>
        <time>2019-06-01T09:16:37.000Z</time>
      </trkpt>
      <trkpt lat="43.39512" lon="3.69585">
        <ele>4.8</ele>
        <time>2019-06-01T09:16:42.000Z</time>
      </trkpt>
      <trkpt lat="43.39515" lon="3.69606">
        <ele>4.75</ele>
        <time>2019-06-01T09:16:47.000Z</time>
      </trkpt>
      <trkpt lat="43.39519" lon="3.69627">
        <ele>4.03</ele>
        <time>2019-06-01T09:16:52.000Z</time>
      </trkpt>
      <trkpt lat="43.39522" lon="3.69645">
        <ele>2.81</ele>
        <time>2019-06-01T09:16:57.000Z</time>
      </trkpt>
      <trkpt lat="43.39524" lon="3.69665">
        <ele>3.73</ele>
        <time>2019-06-01T09:17:02.000Z</time>
      </trkpt>
      <trkpt lat="43.39526" lon="3.69684">
        <ele>3.81</ele>
        <time>2019-06-01T09:17:07.000Z</time>
      </trkpt>
      <trkpt lat="43.39529" lon="3.69704">
        <ele>3.8</ele>
        <time>2019-06-01T09:17:12.000Z</time>
      </trkpt>
      <trkpt lat="43.39532" lon="3.69724">
        <ele>2.86</ele>
        <time>2019-06-01T09:17:17.000Z</time>
      </trkpt>
      <trkpt lat="43.39537" lon="3.69743">
        <ele>3.8</ele>
        <time>2019-06-01T09:17:22.000Z</time>
      </trkpt>
      <trkpt lat="43.3954" lon="3.6976">
        <ele>3.8</ele>
        <time>2019-06-01T09:17:27.000Z</time>
      </trkpt>
      <trkpt lat="43.39543" lon="3.69778">
        <ele>3.8</ele>
        <time>2019-06-01T09:17:32.000Z</time>
      </trkpt>
      <trkpt lat="43.39546" lon="3.69796">
        <ele>3.8</ele>
        <time>2019-06-01T09:17:37.000Z</time>
      </trkpt>
      <trkpt lat="43.39552" lon="3.69812">
        <ele>4.79</ele>
        <time>2019-06-01T09:17:42.000Z</time>
      </trkpt>
      <trkpt lat="43.39558" lon="3.69826">
        <ele>5.79</ele>
        <time>2019-06-01T09:17:47.000Z</time>
      </trkpt>
      <trkpt lat="43.3956" lon="3.69842">
        <ele>3.05</ele>
        <time>2019-06-01T09:17:52.000Z</time>
      </trkpt>
      <trkpt lat="43.39564" lon="3.69863">
        <ele>2.8</ele>
        <time>2019-06-01T09:17:57.000Z</time>
      </trkpt>
      <trkpt lat="43.39569" lon="3.69891">
        <ele>2.8</ele>
        <time>2019-06-01T09:18:02.000Z</time>
      </trkpt>
      <trkpt lat="43.39572" lon="3.69915">
        <ele>1.09</ele>
        <time>2019-06-01T09:18:07.000Z</time>
      </trkpt>
      <trkpt lat="43.39574" lon="3.69937">
        <ele>1.6</ele>
        <time>2019-06-01T09:18:12.000Z</time>
      </trkpt>
      <trkpt lat="43.39578" lon="3.69955">
        <ele>2.55</ele>
        <time>2019-06-01T09:18:17.000Z</time>
      </trkpt>
      <trkpt lat="43.39581" lon="3.69973">
        <ele>1.8</ele>
        <time>2019-06-01T09:18:22.000Z</time>
      </trkpt>
      <trkpt lat="43.39584" lon="3.69993">
        <ele>1.8</ele>
        <time>2019-06-01T09:18:27.000Z</time>
      </trkpt>
      <trkpt lat="43.39586" lon="3.70011">
        <ele>2.55</ele>
        <time>2019-06-01T09:18:32.000Z</time>
      </trkpt>
      <trkpt lat="43.39589" lon="3.70029">
        <ele>4.79</ele>
        <time>2019-06-01T09:18:37.000Z</time>
      </trkpt>
      <trkpt lat="43.3959" lon="3.70046">
        <ele>6.73</ele>
        <time>2019-06-01T09:18:42.000Z</time>
      </trkpt>
      <trkpt lat="43.39587" lon="3.70063">
        <ele>5.05</ele>
        <time>2019-06-01T09:18:47.000Z</time>
      </trkpt>
      <trkpt lat="43.39587" lon="3.70077">
        <ele>4.81</ele>
        <time>2019-06-01T09:18:52.000Z</time>
      </trkpt>
      <trkpt lat="43.39589" lon="3.70095">
        <ele>4.8</ele>
        <time>2019-06-01T09:18:57.000Z</time>
      </trkpt>
      <trkpt lat="43.39595" lon="3.70111">
        <ele>4.8</ele>
        <time>2019-06-01T09:19:02.000Z</time>
      </trkpt>
      <trkpt lat="43.39605" lon="3.70124">
        <ele>5.03</ele>
        <time>2019-06-01T09:19:07.000Z</time>
      </trkpt>
      <trkpt lat="43.39618" lon="3.70134">
        <ele>5.74</ele>
        <time>2019-06-01T09:19:12.000Z</time>
      </trkpt>
      <trkpt lat="43.39627" lon="3.70146">
        <ele>4.8</ele>
        <time>2019-06-01T09:19:17.000Z</time>
      </trkpt>
      <trkpt lat="43.39637" lon="3.70154">
        <ele>4.8</ele>
        <time>2019-06-01T09:19:22.000Z</time>
      </trkpt>
      <trkpt lat="43.39643" lon="3.70145">
        <ele>2.06</ele>
        <time>2019-06-01T09:22:24.000Z</time>
      </trkpt>
      <trkpt lat="43.39636" lon="3.70154">
        <ele>1.8</ele>
        <time>2019-06-01T09:22:52.000Z</time>
      </trkpt>
      <trkpt lat="43.39641" lon="3.70143">
        <ele>4.8</ele>
        <time>2019-06-01T09:23:42.000Z</time>
      </trkpt>
      <trkpt lat="43.39633" lon="3.70138">
        <ele>5.8</ele>
        <time>2019-06-01T09:23:57.000Z</time>
      </trkpt>
      <trkpt lat="43.39624" lon="3.70129">
        <ele>5.05</ele>
        <time>2019-06-01T09:24:02.000Z</time>
      </trkpt>
      <trkpt lat="43.39615" lon="3.70122">
        <ele>4.66</ele>
        <time>2019-06-01T09:24:07.000Z</time>
      </trkpt>
      <trkpt lat="43.39606" lon="3.70115">
        <ele>5.84</ele>
        <time>2019-06-01T09:24:12.000Z</time>
      </trkpt>
      <trkpt lat="43.39599" lon="3.70104">
        <ele>5.8</ele>
        <time>2019-06-01T09:24:17.000Z</time>
      </trkpt>
      <trkpt lat="43.39592" lon="3.70092">
        <ele>6.8</ele>
        <time>2019-06-01T09:24:23.000Z</time>
      </trkpt>
      <trkpt lat="43.39588" lon="3.70078">
        <ele>6.8</ele>
        <time>2019-06-01T09:24:28.000Z</time>
      </trkpt>
      <trkpt lat="43.39584" lon="3.70062">
        <ele>6.8</ele>
        <time>2019-06-01T09:24:33.000Z</time>
      </trkpt>
      <trkpt lat="43.3958" lon="3.70046">
        <ele>5.8</ele>
        <time>2019-06-01T09:24:38.000Z</time>
      </trkpt>
      <trkpt lat="43.39578" lon="3.70027">
        <ele>4.85</ele>
        <time>2019-06-01T09:24:43.000Z</time>
      </trkpt>
      <trkpt lat="43.39575" lon="3.7001">
        <ele>4.8</ele>
        <time>2019-06-01T09:24:48.000Z</time>
      </trkpt>
      <trkpt lat="43.39573" lon="3.69993">
        <ele>3.86</ele>
        <time>2019-06-01T09:24:53.000Z</time>
      </trkpt>
      <trkpt lat="43.3957" lon="3.69977">
        <ele>2.87</ele>
        <time>2019-06-01T09:24:58.000Z</time>
      </trkpt>
      <trkpt lat="43.39568" lon="3.6996">
        <ele>2.81</ele>
        <time>2019-06-01T09:25:03.000Z</time>
      </trkpt>
      <trkpt lat="43.39566" lon="3.69943">
        <ele>3.55</ele>
        <time>2019-06-01T09:25:08.000Z</time>
      </trkpt>
      <trkpt lat="43.39565" lon="3.69924">
        <ele>2.8</ele>
        <time>2019-06-01T09:25:13.000Z</time>
      </trkpt>
      <trkpt lat="43.39562" lon="3.69908">
        <ele>1.86</ele>
        <time>2019-06-01T09:25:18.000Z</time>
      </trkpt>
      <trkpt lat="43.3956" lon="3.69891">
        <ele>2.55</ele>
        <time>2019-06-01T09:25:23.000Z</time>
      </trkpt>
      <trkpt lat="43.39557" lon="3.69872">
        <ele>2.78</ele>
        <time>2019-06-01T09:25:28.000Z</time>
      </trkpt>
      <trkpt lat="43.39555" lon="3.69858">
        <ele>3.04</ele>
        <time>2019-06-01T09:25:33.000Z</time>
      </trkpt>
      <trkpt lat="43.39551" lon="3.6984">
        <ele>3.8</ele>
        <time>2019-06-01T09:25:38.000Z</time>
      </trkpt>
      <trkpt lat="43.39548" lon="3.69821">
        <ele>4.05</ele>
        <time>2019-06-01T09:25:43.000Z</time>
      </trkpt>
      <trkpt lat="43.39546" lon="3.69805">
        <ele>4.79</ele>
        <time>2019-06-01T09:25:48.000Z</time>
      </trkpt>
      <trkpt lat="43.39544" lon="3.69789">
        <ele>4.8</ele>
        <time>2019-06-01T09:25:53.000Z</time>
      </trkpt>
      <trkpt lat="43.39542" lon="3.69772">
        <ele>5.8</ele>
        <time>2019-06-01T09:25:58.000Z</time>
      </trkpt>
      <trkpt lat="43.3954" lon="3.69757">
        <ele>5.04</ele>
        <time>2019-06-01T09:26:03.000Z</time>
      </trkpt>
      <trkpt lat="43.39538" lon="3.69742">
        <ele>5.8</ele>
        <time>2019-06-01T09:26:08.000Z</time>
      </trkpt>
      <trkpt lat="43.39537" lon="3.69729">
        <ele>5.05</ele>
        <time>2019-06-01T09:26:13.000Z</time>
      </trkpt>
      <trkpt lat="43.39533" lon="3.69716">
        <ele>3.8</ele>
        <time>2019-06-01T09:26:22.000Z</time>
      </trkpt>
      <trkpt lat="43.39531" lon="3.69704">
        <ele>4.78</ele>
        <time>2019-06-01T09:26:27.000Z</time>
      </trkpt>
      <trkpt lat="43.3953" lon="3.6969">
        <ele>4.8</ele>
        <time>2019-06-01T09:26:32.000Z</time>
      </trkpt>
      <trkpt lat="43.39528" lon="3.69675">
        <ele>4.8</ele>
        <time>2019-06-01T09:26:37.000Z</time>
      </trkpt>
      <trkpt lat="43.39526" lon="3.69661">
        <ele>5.79</ele>
        <time>2019-06-01T09:26:42.000Z</time>
      </trkpt>
      <trkpt lat="43.39525" lon="3.69646">
        <ele>5.84</ele>
        <time>2019-06-01T09:26:47.000Z</time>
      </trkpt>
      <trkpt lat="43.39521" lon="3.69634">
        <ele>4.81</ele>
        <time>2019-06-01T09:26:52.000Z</time>
      </trkpt>
      <trkpt lat="43.39517" lon="3.69622">
        <ele>5.79</ele>
        <time>2019-06-01T09:27:18.000Z</time>
      </trkpt>
      <trkpt lat="43.39516" lon="3.69608">
        <ele>4.55</ele>
        <time>2019-06-01T09:27:23.000Z</time>
      </trkpt>
      <trkpt lat="43.39517" lon="3.69595">
        <ele>4.78</ele>
        <time>2019-06-01T09:27:28.000Z</time>
      </trkpt>
      <trkpt lat="43.39516" lon="3.69581">
        <ele>4.8</ele>
        <time>2019-06-01T09:27:34.000Z</time>
      </trkpt>
      <trkpt lat="43.39513" lon="3.69567">
        <ele>5.8</ele>
        <time>2019-06-01T09:27:48.000Z</time>
      </trkpt>
      <trkpt lat="43.39511" lon="3.69554">
        <ele>4.86</ele>
        <time>2019-06-01T09:27:54.000Z</time>
      </trkpt>
      <trkpt lat="43.39508" lon="3.69541">
        <ele>4.8</ele>
        <time>2019-06-01T09:28:00.000Z</time>
      </trkpt>
      <trkpt lat="43.39507" lon="3.69528">
        <ele>6.03</ele>
        <time>2019-06-01T09:28:05.000Z</time>
      </trkpt>
      <trkpt lat="43.39508" lon="3.69515">
        <ele>5.8</ele>
        <time>2019-06-01T09:28:10.000Z</time>
      </trkpt>
      <trkpt lat="43.39516" lon="3.69504">
        <ele>5.8</ele>
        <time>2019-06-01T09:28:15.000Z</time>
      </trkpt>
      <trkpt lat="43.39526" lon="3.69489">
        <ele>6.79</ele>
        <time>2019-06-01T09:28:20.000Z</time>
      </trkpt>
      <trkpt lat="43.3952" lon="3.6947">
        <ele>6.75</ele>
        <time>2019-06-01T09:28:25.000Z</time>
      </trkpt>
      <trkpt lat="43.39502" lon="3.69462">
        <ele>6.8</ele>
        <time>2019-06-01T09:28:30.000Z</time>
      </trkpt>
      <trkpt lat="43.39491" lon="3.69439">
        <ele>5.8</ele>
        <time>2019-06-01T09:28:35.000Z</time>
      </trkpt>
      <trkpt lat="43.39481" lon="3.69412">
        <ele>5.79</ele>
        <time>2019-06-01T09:28:40.000Z</time>
      </trkpt>
      <trkpt lat="43.39471" lon="3.69405">
        <ele>4.81</ele>
        <time>2019-06-01T09:28:45.000Z</time>
      </trkpt>
      <trkpt lat="43.3947" lon="3.6939">
        <ele>5.8</ele>
        <time>2019-06-01T09:28:56.000Z</time>
      </trkpt>
      <trkpt lat="43.39464" lon="3.69374">
        <ele>5.8</ele>
        <time>2019-06-01T09:29:01.000Z</time>
      </trkpt>
      <trkpt lat="43.39458" lon="3.69357">
        <ele>5.8</ele>
        <time>2019-06-01T09:29:06.000Z</time>
      </trkpt>
      <trkpt lat="43.39453" lon="3.6934">
        <ele>5.8</ele>
        <time>2019-06-01T09:29:11.000Z</time>
      </trkpt>
      <trkpt lat="43.39445" lon="3.69318">
        <ele>6.79</ele>
        <time>2019-06-01T09:29:16.000Z</time>
      </trkpt>
      <trkpt lat="43.39437" lon="3.69294">
        <ele>7.78</ele>
        <time>2019-06-01T09:29:21.000Z</time>
      </trkpt>
      <trkpt lat="43.39428" lon="3.69271">
        <ele>7.55</ele>
        <time>2019-06-01T09:29:26.000Z</time>
      </trkpt>
      <trkpt lat="43.3942" lon="3.69256">
        <ele>7.8</ele>
        <time>2019-06-01T09:29:31.000Z</time>
      </trkpt>
      <trkpt lat="43.39414" lon="3.69246">
        <ele>7.05</ele>
        <time>2019-06-01T09:29:37.000Z</time>
      </trkpt>
      <trkpt lat="43.39407" lon="3.69236">
        <ele>7.8</ele>
        <time>2019-06-01T09:29:45.000Z</time>
      </trkpt>
      <trkpt lat="43.39398" lon="3.69229">
        <ele>8.79</ele>
        <time>2019-06-01T09:29:51.000Z</time>
      </trkpt>
      <trkpt lat="43.3938" lon="3.6922">
        <ele>10.73</ele>
        <time>2019-06-01T09:29:56.000Z</time>
      </trkpt>
      <trkpt lat="43.3936" lon="3.69206">
        <ele>11.79</ele>
        <time>2019-06-01T09:30:01.000Z</time>
      </trkpt>
      <trkpt lat="43.39341" lon="3.6919">
        <ele>14.48</ele>
        <time>2019-06-01T09:30:06.000Z</time>
      </trkpt>
      <trkpt lat="43.39329" lon="3.69181">
        <ele>19.4</ele>
        <time>2019-06-01T09:30:11.000Z</time>
      </trkpt>
      <trkpt lat="43.39314" lon="3.69172">
        <ele>15.14</ele>
        <time>2019-06-01T09:30:16.000Z</time>
      </trkpt>
      <trkpt lat="43.393" lon="3.69159">
        <ele>15.8</ele>
        <time>2019-06-01T09:30:21.000Z</time>
      </trkpt>
      <trkpt lat="43.39289" lon="3.6914">
        <ele>12.86</ele>
        <time>2019-06-01T09:30:26.000Z</time>
      </trkpt>
      <trkpt lat="43.39274" lon="3.69128">
        <ele>11.55</ele>
        <time>2019-06-01T09:30:31.000Z</time>
      </trkpt>
      <trkpt lat="43.39263" lon="3.69146">
        <ele>13.78</ele>
        <time>2019-06-01T09:30:36.000Z</time>
      </trkpt>
      <trkpt lat="43.39269" lon="3.69166">
        <ele>12.86</ele>
        <time>2019-06-01T09:30:41.000Z</time>
      </trkpt>
      <trkpt lat="43.39267" lon="3.69154">
        <ele>8.78</ele>
        <time>2019-06-01T09:36:21.000Z</time>
      </trkpt>
      <trkpt lat="43.39266" lon="3.69141">
        <ele>8.8</ele>
        <time>2019-06-01T09:36:26.000Z</time>
      </trkpt>
      <trkpt lat="43.39264" lon="3.69129">
        <ele>8.8</ele>
        <time>2019-06-01T09:36:31.000Z</time>
      </trkpt>
      <trkpt lat="43.3926" lon="3.69114">
        <ele>8.85</ele>
        <time>2019-06-01T09:36:36.000Z</time>
      </trkpt>
      <trkpt lat="43.39258" lon="3.69099">
        <ele>9.8</ele>
        <time>2019-06-01T09:36:41.000Z</time>
      </trkpt>
      <trkpt lat="43.39255" lon="3.69114">
        <ele>8.61</ele>
        <time>2019-06-01T09:36:50.000Z</time>
      </trkpt>
      <trkpt lat="43.39264" lon="3.69133">
        <ele>8.8</ele>
        <time>2019-06-01T09:36:55.000Z</time>
      </trkpt>
      <trkpt lat="43.39264" lon="3.69148">
        <ele>9.78</ele>
        <time>2019-06-01T09:37:00.000Z</time>
      </trkpt>
      <trkpt lat="43.39251" lon="3.6914">
        <ele>10.8</ele>
        <time>2019-06-01T09:37:05.000Z</time>
      </trkpt>
      <trkpt lat="43.39242" lon="3.69117">
        <ele>10.86</ele>
        <time>2019-06-01T09:37:10.000Z</time>
      </trkpt>
      <trkpt lat="43.39243" lon="3.69103">
        <ele>10.8</ele>
        <time>2019-06-01T09:37:15.000Z</time>
      </trkpt>
      <trkpt lat="43.39246" lon="3.69088">
        <ele>10.8</ele>
        <time>2019-06-01T09:37:21.000Z</time>
      </trkpt>
      <trkpt lat="43.39246" lon="3.69072">
        <ele>10.81</ele>
        <time>2019-06-01T09:37:26.000Z</time>
      </trkpt>
      <trkpt lat="43.39255" lon="3.69077">
        <ele>9.56</ele>
        <time>2019-06-01T09:37:50.000Z</time>
      </trkpt>
      <trkpt lat="43.3926" lon="3.69096">
        <ele>9.78</ele>
        <time>2019-06-01T09:37:55.000Z</time>
      </trkpt>
      <trkpt lat="43.39267" lon="3.69113">
        <ele>8.81</ele>
        <time>2019-06-01T09:38:00.000Z</time>
      </trkpt>
      <trkpt lat="43.39274" lon="3.69129">
        <ele>8.8</ele>
        <time>2019-06-01T09:38:05.000Z</time>
      </trkpt>
      <trkpt lat="43.39286" lon="3.69146">
        <ele>8.98</ele>
        <time>2019-06-01T09:38:10.000Z</time>
      </trkpt>
      <trkpt lat="43.39294" lon="3.69164">
        <ele>8.8</ele>
        <time>2019-06-01T09:38:15.000Z</time>
      </trkpt>
      <trkpt lat="43.39306" lon="3.69177">
        <ele>7.81</ele>
        <time>2019-06-01T09:38:20.000Z</time>
      </trkpt>
      <trkpt lat="43.39323" lon="3.6919">
        <ele>7.8</ele>
        <time>2019-06-01T09:38:25.000Z</time>
      </trkpt>
      <trkpt lat="43.39344" lon="3.69202">
        <ele>9.73</ele>
        <time>2019-06-01T09:38:30.000Z</time>
      </trkpt>
      <trkpt lat="43.39365" lon="3.6922">
        <ele>12.54</ele>
        <time>2019-06-01T09:38:35.000Z</time>
      </trkpt>
      <trkpt lat="43.39388" lon="3.69232">
        <ele>17.34</ele>
        <time>2019-06-01T09:38:40.000Z</time>
      </trkpt>
      <trkpt lat="43.3941" lon="3.69244">
        <ele>17.09</ele>
        <time>2019-06-01T09:38:45.000Z</time>
      </trkpt>
      <trkpt lat="43.39423" lon="3.69258">
        <ele>14.3</ele>
        <time>2019-06-01T09:38:50.000Z</time>
      </trkpt>
      <trkpt lat="43.39433" lon="3.69282">
        <ele>12.58</ele>
        <time>2019-06-01T09:38:55.000Z</time>
      </trkpt>
      <trkpt lat="43.39443" lon="3.69309">
        <ele>12.05</ele>
        <time>2019-06-01T09:39:00.000Z</time>
      </trkpt>
      <trkpt lat="43.39451" lon="3.69337">
        <ele>9.86</ele>
        <time>2019-06-01T09:39:05.000Z</time>
      </trkpt>
      <trkpt lat="43.3946" lon="3.69364">
        <ele>9.8</ele>
        <time>2019-06-01T09:39:10.000Z</time>
      </trkpt>
      <trkpt lat="43.39469" lon="3.69391">
        <ele>10.79</ele>
        <time>2019-06-01T09:39:15.000Z</time>
      </trkpt>
      <trkpt lat="43.39478" lon="3.69416">
        <ele>8.82</ele>
        <time>2019-06-01T09:39:20.000Z</time>
      </trkpt>
      <trkpt lat="43.39482" lon="3.6943">
        <ele>7.8</ele>
        <time>2019-06-01T09:39:25.000Z</time>
      </trkpt>
      <trkpt lat="43.39485" lon="3.69442">
        <ele>8.61</ele>
        <time>2019-06-01T09:39:44.000Z</time>
      </trkpt>
      <trkpt lat="43.39488" lon="3.69454">
        <ele>7.81</ele>
        <time>2019-06-01T09:39:57.000Z</time>
      </trkpt>
      <trkpt lat="43.39493" lon="3.69467">
        <ele>8.8</ele>
        <time>2019-06-01T09:40:03.000Z</time>
      </trkpt>
      <trkpt lat="43.39498" lon="3.69477">
        <ele>7.8</ele>
        <time>2019-06-01T09:40:17.000Z</time>
      </trkpt>
      <trkpt lat="43.39501" lon="3.69489">
        <ele>7.05</ele>
        <time>2019-06-01T09:40:25.000Z</time>
      </trkpt>
      <trkpt lat="43.39513" lon="3.69507">
        <ele>7.79</ele>
        <time>2019-06-01T09:40:30.000Z</time>
      </trkpt>
      <trkpt lat="43.39537" lon="3.69501">
        <ele>6.8</ele>
        <time>2019-06-01T09:40:35.000Z</time>
      </trkpt>
      <trkpt lat="43.39561" lon="3.69504">
        <ele>6.8</ele>
        <time>2019-06-01T09:40:40.000Z</time>
      </trkpt>
      <trkpt lat="43.39572" lon="3.69508">
        <ele>7.54</ele>
        <time>2019-06-01T09:40:45.000Z</time>
      </trkpt>
      <trkpt lat="43.39568" lon="3.69494">
        <ele>1.72</ele>
        <time>2019-06-01T09:41:55.000Z</time>
      </trkpt>
      <trkpt lat="43.39548" lon="3.69487">
        <ele>3.73</ele>
        <time>2019-06-01T09:42:00.000Z</time>
      </trkpt>
      <trkpt lat="43.39528" lon="3.69474">
        <ele>5.54</ele>
        <time>2019-06-01T09:42:05.000Z</time>
      </trkpt>
      <trkpt lat="43.39514" lon="3.6945">
        <ele>6.79</ele>
        <time>2019-06-01T09:42:10.000Z</time>
      </trkpt>
      <trkpt lat="43.39501" lon="3.69428">
        <ele>7.81</ele>
        <time>2019-06-01T09:42:15.000Z</time>
      </trkpt>
      <trkpt lat="43.39495" lon="3.69404">
        <ele>8.73</ele>
        <time>2019-06-01T09:42:20.000Z</time>
      </trkpt>
      <trkpt lat="43.39491" lon="3.69387">
        <ele>9.55</ele>
        <time>2019-06-01T09:42:25.000Z</time>
      </trkpt>
      <trkpt lat="43.39487" lon="3.6937">
        <ele>10.79</ele>
        <time>2019-06-01T09:42:30.000Z</time>
      </trkpt>
      <trkpt lat="43.39483" lon="3.69354">
        <ele>12.54</ele>
        <time>2019-06-01T09:42:35.000Z</time>
      </trkpt>
      <trkpt lat="43.3948" lon="3.69337">
        <ele>13.79</ele>
        <time>2019-06-01T09:42:40.000Z</time>
      </trkpt>
      <trkpt lat="43.39476" lon="3.6932">
        <ele>14.75</ele>
        <time>2019-06-01T09:42:45.000Z</time>
      </trkpt>
      <trkpt lat="43.39473" lon="3.69306">
        <ele>15.75</ele>
        <time>2019-06-01T09:42:50.000Z</time>
      </trkpt>
      <trkpt lat="43.39468" lon="3.6929">
        <ele>17.54</ele>
        <time>2019-06-01T09:42:55.000Z</time>
      </trkpt>
      <trkpt lat="43.39462" lon="3.69276">
        <ele>18.79</ele>
        <time>2019-06-01T09:43:00.000Z</time>
      </trkpt>
      <trkpt lat="43.39455" lon="3.69265">
        <ele>20.78</ele>
        <time>2019-06-01T09:43:05.000Z</time>
      </trkpt>
      <trkpt lat="43.39443" lon="3.69255">
        <ele>22.79</ele>
        <time>2019-06-01T09:43:10.000Z</time>
      </trkpt>
      <trkpt lat="43.39435" lon="3.69249">
        <ele>25.54</ele>
        <time>2019-06-01T09:43:15.000Z</time>
      </trkpt>
      <trkpt lat="43.39444" lon="3.69246">
        <ele>26.78</ele>
        <time>2019-06-01T09:43:25.000Z</time>
      </trkpt>
      <trkpt lat="43.39454" lon="3.69255">
        <ele>27.98</ele>
        <time>2019-06-01T09:43:30.000Z</time>
      </trkpt>
      <trkpt lat="43.39465" lon="3.69262">
        <ele>29.73</ele>
        <time>2019-06-01T09:43:35.000Z</time>
      </trkpt>
      <trkpt lat="43.39475" lon="3.69268">
        <ele>30.73</ele>
        <time>2019-06-01T09:43:40.000Z</time>
      </trkpt>
      <trkpt lat="43.39486" lon="3.69276">
        <ele>31.79</ele>
        <time>2019-06-01T09:43:45.000Z</time>
      </trkpt>
      <trkpt lat="43.39497" lon="3.69285">
        <ele>32.54</ele>
        <time>2019-06-01T09:43:50.000Z</time>
      </trkpt>
      <trkpt lat="43.39508" lon="3.69294">
        <ele>33.78</ele>
        <time>2019-06-01T09:43:55.000Z</time>
      </trkpt>
      <trkpt lat="43.3952" lon="3.69304">
        <ele>33.79</ele>
        <time>2019-06-01T09:44:00.000Z</time>
      </trkpt>
      <trkpt lat="43.39529" lon="3.69312">
        <ele>33.04</ele>
        <time>2019-06-01T09:44:05.000Z</time>
      </trkpt>
      <trkpt lat="43.39538" lon="3.69311">
        <ele>33.79</ele>
        <time>2019-06-01T09:45:18.000Z</time>
      </trkpt>
      <trkpt lat="43.39549" lon="3.69298">
        <ele>34.03</ele>
        <time>2019-06-01T09:45:23.000Z</time>
      </trkpt>
      <trkpt lat="43.39558" lon="3.69286">
        <ele>36.48</ele>
        <time>2019-06-01T09:45:28.000Z</time>
      </trkpt>
      <trkpt lat="43.39567" lon="3.69274">
        <ele>39.71</ele>
        <time>2019-06-01T09:45:33.000Z</time>
      </trkpt>
      <trkpt lat="43.39573" lon="3.69259">
        <ele>41.78</ele>
        <time>2019-06-01T09:45:38.000Z</time>
      </trkpt>
      <trkpt lat="43.39576" lon="3.69245">
        <ele>44.78</ele>
        <time>2019-06-01T09:45:43.000Z</time>
      </trkpt>
      <trkpt lat="43.39578" lon="3.69231">
        <ele>46.78</ele>
        <time>2019-06-01T09:45:48.000Z</time>
      </trkpt>
      <trkpt lat="43.39588" lon="3.69227">
        <ele>47.55</ele>
        <time>2019-06-01T09:45:54.000Z</time>
      </trkpt>
      <trkpt lat="43.39598" lon="3.69227">
        <ele>49.78</ele>
        <time>2019-06-01T09:46:00.000Z</time>
      </trkpt>
      <trkpt lat="43.39606" lon="3.69235">
        <ele>50.53</ele>
        <time>2019-06-01T09:46:06.000Z</time>
      </trkpt>
      <trkpt lat="43.39614" lon="3.69242">
        <ele>51.79</ele>
        <time>2019-06-01T09:46:11.000Z</time>
      </trkpt>
      <trkpt lat="43.39622" lon="3.69251">
        <ele>53.78</ele>
        <time>2019-06-01T09:46:16.000Z</time>
      </trkpt>
      <trkpt lat="43.3963" lon="3.6926">
        <ele>54.79</ele>
        <time>2019-06-01T09:46:21.000Z</time>
      </trkpt>
      <trkpt lat="43.39638" lon="3.69269">
        <ele>56.54</ele>
        <time>2019-06-01T09:46:26.000Z</time>
      </trkpt>
      <trkpt lat="43.39646" lon="3.69278">
        <ele>57.78</ele>
        <time>2019-06-01T09:46:31.000Z</time>
      </trkpt>
      <trkpt lat="43.39652" lon="3.69289">
        <ele>57.73</ele>
        <time>2019-06-01T09:46:36.000Z</time>
      </trkpt>
      <trkpt lat="43.39661" lon="3.69298">
        <ele>57.79</ele>
        <time>2019-06-01T09:46:41.000Z</time>
      </trkpt>
      <trkpt lat="43.3967" lon="3.69306">
        <ele>57.79</ele>
        <time>2019-06-01T09:46:46.000Z</time>
      </trkpt>
      <trkpt lat="43.3968" lon="3.69312">
        <ele>59.73</ele>
        <time>2019-06-01T09:46:51.000Z</time>
      </trkpt>
      <trkpt lat="43.39691" lon="3.69317">
        <ele>59.79</ele>
        <time>2019-06-01T09:46:56.000Z</time>
      </trkpt>
      <trkpt lat="43.39701" lon="3.69321">
        <ele>60.79</ele>
        <time>2019-06-01T09:47:01.000Z</time>
      </trkpt>
      <trkpt lat="43.39711" lon="3.69325">
        <ele>61.54</ele>
        <time>2019-06-01T09:47:06.000Z</time>
      </trkpt>
      <trkpt lat="43.39723" lon="3.69329">
        <ele>61.79</ele>
        <time>2019-06-01T09:47:11.000Z</time>
      </trkpt>
      <trkpt lat="43.3974" lon="3.69333">
        <ele>61.79</ele>
        <time>2019-06-01T09:47:16.000Z</time>
      </trkpt>
      <trkpt lat="43.39764" lon="3.69336">
        <ele>61.8</ele>
        <time>2019-06-01T09:47:21.000Z</time>
      </trkpt>
      <trkpt lat="43.39783" lon="3.69324">
        <ele>61.79</ele>
        <time>2019-06-01T09:47:26.000Z</time>
      </trkpt>
      <trkpt lat="43.39793" lon="3.69305">
        <ele>63.53</ele>
        <time>2019-06-01T09:47:31.000Z</time>
      </trkpt>
      <trkpt lat="43.39799" lon="3.69287">
        <ele>64.79</ele>
        <time>2019-06-01T09:47:36.000Z</time>
      </trkpt>
      <trkpt lat="43.39802" lon="3.69269">
        <ele>64.79</ele>
        <time>2019-06-01T09:47:41.000Z</time>
      </trkpt>
      <trkpt lat="43.398" lon="3.69255">
        <ele>66.54</ele>
        <time>2019-06-01T09:47:46.000Z</time>
      </trkpt>
      <trkpt lat="43.39798" lon="3.69242">
        <ele>66.79</ele>
        <time>2019-06-01T09:47:51.000Z</time>
      </trkpt>
      <trkpt lat="43.39796" lon="3.69228">
        <ele>68.72</ele>
        <time>2019-06-01T09:47:56.000Z</time>
      </trkpt>
      <trkpt lat="43.39794" lon="3.69216">
        <ele>70.77</ele>
        <time>2019-06-01T09:48:01.000Z</time>
      </trkpt>
      <trkpt lat="43.39792" lon="3.69203">
        <ele>72.77</ele>
        <time>2019-06-01T09:48:06.000Z</time>
      </trkpt>
      <trkpt lat="43.3979" lon="3.69188">
        <ele>74.73</ele>
        <time>2019-06-01T09:48:12.000Z</time>
      </trkpt>
      <trkpt lat="43.39786" lon="3.69175">
        <ele>75.6</ele>
        <time>2019-06-01T09:48:18.000Z</time>
      </trkpt>
      <trkpt lat="43.39786" lon="3.69162">
        <ele>77.54</ele>
        <time>2019-06-01T09:48:25.000Z</time>
      </trkpt>
      <trkpt lat="43.39782" lon="3.6915">
        <ele>78.79</ele>
        <time>2019-06-01T09:50:26.000Z</time>
      </trkpt>
      <trkpt lat="43.39785" lon="3.69137">
        <ele>81.72</ele>
        <time>2019-06-01T09:50:31.000Z</time>
      </trkpt>
      <trkpt lat="43.39787" lon="3.69124">
        <ele>82.55</ele>
        <time>2019-06-01T09:50:36.000Z</time>
      </trkpt>
      <trkpt lat="43.39787" lon="3.69111">
        <ele>82.79</ele>
        <time>2019-06-01T09:50:41.000Z</time>
      </trkpt>
      <trkpt lat="43.39781" lon="3.691">
        <ele>84.73</ele>
        <time>2019-06-01T09:50:46.000Z</time>
      </trkpt>
      <trkpt lat="43.39774" lon="3.6909">
        <ele>87.72</ele>
        <time>2019-06-01T09:50:52.000Z</time>
      </trkpt>
      <trkpt lat="43.39765" lon="3.6908">
        <ele>89.54</ele>
        <time>2019-06-01T09:50:58.000Z</time>
      </trkpt>
      <trkpt lat="43.39758" lon="3.6907">
        <ele>91.72</ele>
        <time>2019-06-01T09:51:04.000Z</time>
      </trkpt>
      <trkpt lat="43.39761" lon="3.69057">
        <ele>92.77</ele>
        <time>2019-06-01T09:51:09.000Z</time>
      </trkpt>
      <trkpt lat="43.39765" lon="3.69043">
        <ele>95.52</ele>
        <time>2019-06-01T09:51:15.000Z</time>
      </trkpt>
      <trkpt lat="43.39768" lon="3.6903">
        <ele>96.73</ele>
        <time>2019-06-01T09:51:21.000Z</time>
      </trkpt>
      <trkpt lat="43.39772" lon="3.69018">
        <ele>99.52</ele>
        <time>2019-06-01T09:51:27.000Z</time>
      </trkpt>
      <trkpt lat="43.39779" lon="3.69007">
        <ele>100.77</ele>
        <time>2019-06-01T09:51:33.000Z</time>
      </trkpt>
      <trkpt lat="43.39789" lon="3.69002">
        <ele>103.72</ele>
        <time>2019-06-01T09:51:39.000Z</time>
      </trkpt>
      <trkpt lat="43.39799" lon="3.68999">
        <ele>106.48</ele>
        <time>2019-06-01T09:51:45.000Z</time>
      </trkpt>
      <trkpt lat="43.3981" lon="3.68996">
        <ele>106.79</ele>
        <time>2019-06-01T09:51:51.000Z</time>
      </trkpt>
      <trkpt lat="43.39818" lon="3.68989">
        <ele>103.54</ele>
        <time>2019-06-01T09:54:55.000Z</time>
      </trkpt>
      <trkpt lat="43.39822" lon="3.68977">
        <ele>104.78</ele>
        <time>2019-06-01T09:55:00.000Z</time>
      </trkpt>
      <trkpt lat="43.39827" lon="3.68967">
        <ele>106.53</ele>
        <time>2019-06-01T09:55:05.000Z</time>
      </trkpt>
      <trkpt lat="43.39833" lon="3.68955">
        <ele>108.72</ele>
        <time>2019-06-01T09:55:11.000Z</time>
      </trkpt>
      <trkpt lat="43.39835" lon="3.68941">
        <ele>110.53</ele>
        <time>2019-06-01T09:55:16.000Z</time>
      </trkpt>
      <trkpt lat="43.3984" lon="3.6893">
        <ele>113.53</ele>
        <time>2019-06-01T09:55:21.000Z</time>
      </trkpt>
      <trkpt lat="43.3985" lon="3.68922">
        <ele>116.52</ele>
        <time>2019-06-01T09:55:26.000Z</time>
      </trkpt>
      <trkpt lat="43.39857" lon="3.68912">
        <ele>117.54</ele>
        <time>2019-06-01T09:55:31.000Z</time>
      </trkpt>
      <trkpt lat="43.39864" lon="3.68901">
        <ele>119.72</ele>
        <time>2019-06-01T09:55:37.000Z</time>
      </trkpt>
      <trkpt lat="43.39871" lon="3.68894">
        <ele>120.79</ele>
        <time>2019-06-01T09:55:56.000Z</time>
      </trkpt>
      <trkpt lat="43.39877" lon="3.68884">
        <ele>121.54</ele>
        <time>2019-06-01T09:56:04.000Z</time>
      </trkpt>
      <trkpt lat="43.39882" lon="3.68871">
        <ele>122.04</ele>
        <time>2019-06-01T09:56:12.000Z</time>
      </trkpt>
      <trkpt lat="43.39888" lon="3.68861">
        <ele>124.78</ele>
        <time>2019-06-01T09:56:20.000Z</time>
      </trkpt>
      <trkpt lat="43.39895" lon="3.68852">
        <ele>127.72</ele>
        <time>2019-06-01T09:56:28.000Z</time>
      </trkpt>
      <trkpt lat="43.39902" lon="3.68844">
        <ele>128.79</ele>
        <time>2019-06-01T09:56:36.000Z</time>
      </trkpt>
      <trkpt lat="43.3991" lon="3.68835">
        <ele>130.77</ele>
        <time>2019-06-01T09:56:45.000Z</time>
      </trkpt>
      <trkpt lat="43.39916" lon="3.68826">
        <ele>131.79</ele>
        <time>2019-06-01T09:56:52.000Z</time>
      </trkpt>
      <trkpt lat="43.39923" lon="3.68816">
        <ele>133.77</ele>
        <time>2019-06-01T09:57:00.000Z</time>
      </trkpt>
      <trkpt lat="43.39925" lon="3.68803">
        <ele>133.54</ele>
        <time>2019-06-01T09:58:12.000Z</time>
      </trkpt>
      <trkpt lat="43.39932" lon="3.68795">
        <ele>133.78</ele>
        <time>2019-06-01T09:58:21.000Z</time>
      </trkpt>
      <trkpt lat="43.39939" lon="3.68787">
        <ele>134.79</ele>
        <time>2019-06-01T09:58:29.000Z</time>
      </trkpt>
      <trkpt lat="43.39947" lon="3.68779">
        <ele>136.78</ele>
        <time>2019-06-01T09:58:37.000Z</time>
      </trkpt>
      <trkpt lat="43.39955" lon="3.68771">
        <ele>139.53</ele>
        <time>2019-06-01T09:58:46.000Z</time>
      </trkpt>
      <trkpt lat="43.39962" lon="3.68763">
        <ele>139.79</ele>
        <time>2019-06-01T09:58:54.000Z</time>
      </trkpt>
      <trkpt lat="43.39969" lon="3.68755">
        <ele>140.79</ele>
        <time>2019-06-01T09:59:03.000Z</time>
      </trkpt>
      <trkpt lat="43.39976" lon="3.68746">
        <ele>141.77</ele>
        <time>2019-06-01T09:59:13.000Z</time>
      </trkpt>
      <trkpt lat="43.39983" lon="3.68737">
        <ele>142.77</ele>
        <time>2019-06-01T09:59:22.000Z</time>
      </trkpt>
      <trkpt lat="43.3999" lon="3.68729">
        <ele>143.77</ele>
        <time>2019-06-01T09:59:31.000Z</time>
      </trkpt>
      <trkpt lat="43.39998" lon="3.6872">
        <ele>144.78</ele>
        <time>2019-06-01T09:59:40.000Z</time>
      </trkpt>
      <trkpt lat="43.40004" lon="3.6871">
        <ele>145.78</ele>
        <time>2019-06-01T09:59:50.000Z</time>
      </trkpt>
      <trkpt lat="43.40012" lon="3.68702">
        <ele>147.72</ele>
        <time>2019-06-01T09:59:59.000Z</time>
      </trkpt>
      <trkpt lat="43.40019" lon="3.68692">
        <ele>147.77</ele>
        <time>2019-06-01T10:00:09.000Z</time>
      </trkpt>
      <trkpt lat="43.40024" lon="3.68681">
        <ele>150.52</ele>
        <time>2019-06-01T10:00:20.000Z</time>
      </trkpt>
      <trkpt lat="43.40032" lon="3.68673">
        <ele>148.6</ele>
        <time>2019-06-01T10:00:29.000Z</time>
      </trkpt>
      <trkpt lat="43.40041" lon="3.68667">
        <ele>149.78</ele>
        <time>2019-06-01T10:00:38.000Z</time>
      </trkpt>
      <trkpt lat="43.40048" lon="3.68659">
        <ele>150.8</ele>
        <time>2019-06-01T10:00:48.000Z</time>
      </trkpt>
      <trkpt lat="43.40056" lon="3.68651">
        <ele>154.77</ele>
        <time>2019-06-01T10:00:58.000Z</time>
      </trkpt>
      <trkpt lat="43.40063" lon="3.68643">
        <ele>156.77</ele>
        <time>2019-06-01T10:01:08.000Z</time>
      </trkpt>
      <trkpt lat="43.40071" lon="3.68635">
        <ele>158.77</ele>
        <time>2019-06-01T10:01:17.000Z</time>
      </trkpt>
      <trkpt lat="43.40077" lon="3.68625">
        <ele>158.78</ele>
        <time>2019-06-01T10:01:27.000Z</time>
      </trkpt>
      <trkpt lat="43.40085" lon="3.68618">
        <ele>160.53</ele>
        <time>2019-06-01T10:01:37.000Z</time>
      </trkpt>
      <trkpt lat="43.40092" lon="3.68609">
        <ele>162.77</ele>
        <time>2019-06-01T10:01:47.000Z</time>
      </trkpt>
      <trkpt lat="43.40101" lon="3.68602">
        <ele>165.77</ele>
        <time>2019-06-01T10:01:57.000Z</time>
      </trkpt>
      <trkpt lat="43.40109" lon="3.68595">
        <ele>166.79</ele>
        <time>2019-06-01T10:02:07.000Z</time>
      </trkpt>
      <trkpt lat="43.40116" lon="3.68588">
        <ele>168.53</ele>
        <time>2019-06-01T10:02:15.000Z</time>
      </trkpt>
      <trkpt lat="43.40125" lon="3.6858">
        <ele>167.78</ele>
        <time>2019-06-01T10:02:23.000Z</time>
      </trkpt>
      <trkpt lat="43.40133" lon="3.68572">
        <ele>168.78</ele>
        <time>2019-06-01T10:02:31.000Z</time>
      </trkpt>
      <trkpt lat="43.4014" lon="3.68564">
        <ele>168.78</ele>
        <time>2019-06-01T10:02:39.000Z</time>
      </trkpt>
      <trkpt lat="43.40147" lon="3.68555">
        <ele>171.72</ele>
        <time>2019-06-01T10:02:47.000Z</time>
      </trkpt>
      <trkpt lat="43.40154" lon="3.68546">
        <ele>172.71</ele>
        <time>2019-06-01T10:02:56.000Z</time>
      </trkpt>
      <trkpt lat="43.40163" lon="3.68539">
        <ele>174.72</ele>
        <time>2019-06-01T10:03:05.000Z</time>
      </trkpt>
      <trkpt lat="43.4017" lon="3.68531">
        <ele>175.53</ele>
        <time>2019-06-01T10:03:14.000Z</time>
      </trkpt>
      <trkpt lat="43.40178" lon="3.68525">
        <ele>178.53</ele>
        <time>2019-06-01T10:03:22.000Z</time>
      </trkpt>
      <trkpt lat="43.40185" lon="3.68516">
        <ele>177.78</ele>
        <time>2019-06-01T10:03:30.000Z</time>
      </trkpt>
      <trkpt lat="43.40193" lon="3.68509">
        <ele>178.77</ele>
        <time>2019-06-01T10:03:37.000Z</time>
      </trkpt>
      <trkpt lat="43.402" lon="3.685">
        <ele>178.78</ele>
        <time>2019-06-01T10:03:44.000Z</time>
      </trkpt>
      <trkpt lat="43.40208" lon="3.68493">
        <ele>179.78</ele>
        <time>2019-06-01T10:03:51.000Z</time>
      </trkpt>
      <trkpt lat="43.40218" lon="3.68488">
        <ele>179.78</ele>
        <time>2019-06-01T10:03:58.000Z</time>
      </trkpt>
      <trkpt lat="43.40223" lon="3.68499">
        <ele>179.03</ele>
        <time>2019-06-01T10:04:04.000Z</time>
      </trkpt>
      <trkpt lat="43.40221" lon="3.68512">
        <ele>179.02</ele>
        <time>2019-06-01T10:04:11.000Z</time>
      </trkpt>
      <trkpt lat="43.40224" lon="3.68525">
        <ele>178.78</ele>
        <time>2019-06-01T10:04:18.000Z</time>
      </trkpt>
      <trkpt lat="43.40228" lon="3.68537">
        <ele>177.73</ele>
        <time>2019-06-01T10:04:58.000Z</time>
      </trkpt>
      <trkpt lat="43.40221" lon="3.68545">
        <ele>178.7</ele>
        <time>2019-06-01T10:05:59.000Z</time>
      </trkpt>
      <trkpt lat="43.40221" lon="3.68559">
        <ele>178.78</ele>
        <time>2019-06-01T10:07:23.000Z</time>
      </trkpt>
      <trkpt lat="43.40213" lon="3.68568">
        <ele>176.84</ele>
        <time>2019-06-01T10:07:32.000Z</time>
      </trkpt>
      <trkpt lat="43.40205" lon="3.68574">
        <ele>175.86</ele>
        <time>2019-06-01T10:07:40.000Z</time>
      </trkpt>
      <trkpt lat="43.40212" lon="3.68565">
        <ele>175.77</ele>
        <time>2019-06-01T10:08:02.000Z</time>
      </trkpt>
      <trkpt lat="43.40221" lon="3.68558">
        <ele>176</ele>
        <time>2019-06-01T10:08:10.000Z</time>
      </trkpt>
      <trkpt lat="43.40228" lon="3.6855">
        <ele>177.52</ele>
        <time>2019-06-01T10:08:46.000Z</time>
      </trkpt>
      <trkpt lat="43.40227" lon="3.68536">
        <ele>178.77</ele>
        <time>2019-06-01T10:08:57.000Z</time>
      </trkpt>
      <trkpt lat="43.40226" lon="3.68523">
        <ele>179.78</ele>
        <time>2019-06-01T10:25:56.000Z</time>
      </trkpt>
      <trkpt lat="43.40222" lon="3.68511">
        <ele>179.78</ele>
        <time>2019-06-01T10:26:02.000Z</time>
      </trkpt>
      <trkpt lat="43.40222" lon="3.68496">
        <ele>179.78</ele>
        <time>2019-06-01T10:26:07.000Z</time>
      </trkpt>
      <trkpt lat="43.40227" lon="3.68484">
        <ele>179.78</ele>
        <time>2019-06-01T10:26:13.000Z</time>
      </trkpt>
      <trkpt lat="43.40235" lon="3.68476">
        <ele>180.78</ele>
        <time>2019-06-01T10:26:19.000Z</time>
      </trkpt>
      <trkpt lat="43.4023" lon="3.68464">
        <ele>180.78</ele>
        <time>2019-06-01T10:26:25.000Z</time>
      </trkpt>
      <trkpt lat="43.40231" lon="3.6845">
        <ele>176.64</ele>
        <time>2019-06-01T10:27:21.000Z</time>
      </trkpt>
      <trkpt lat="43.40224" lon="3.68459">
        <ele>183.59</ele>
        <time>2019-06-01T10:27:41.000Z</time>
      </trkpt>
      <trkpt lat="43.40234" lon="3.68462">
        <ele>181.48</ele>
        <time>2019-06-01T10:33:47.000Z</time>
      </trkpt>
      <trkpt lat="43.40228" lon="3.68473">
        <ele>183.51</ele>
        <time>2019-06-01T10:34:30.000Z</time>
      </trkpt>
      <trkpt lat="43.40215" lon="3.68484">
        <ele>183.72</ele>
        <time>2019-06-01T10:34:35.000Z</time>
      </trkpt>
      <trkpt lat="43.40201" lon="3.68494">
        <ele>184.96</ele>
        <time>2019-06-01T10:34:40.000Z</time>
      </trkpt>
      <trkpt lat="43.40188" lon="3.68506">
        <ele>185.02</ele>
        <time>2019-06-01T10:34:45.000Z</time>
      </trkpt>
      <trkpt lat="43.40174" lon="3.6852">
        <ele>184.78</ele>
        <time>2019-06-01T10:34:50.000Z</time>
      </trkpt>
      <trkpt lat="43.4016" lon="3.68536">
        <ele>182.05</ele>
        <time>2019-06-01T10:34:55.000Z</time>
      </trkpt>
      <trkpt lat="43.40144" lon="3.68554">
        <ele>180.78</ele>
        <time>2019-06-01T10:35:00.000Z</time>
      </trkpt>
      <trkpt lat="43.40129" lon="3.68568">
        <ele>178.11</ele>
        <time>2019-06-01T10:35:05.000Z</time>
      </trkpt>
      <trkpt lat="43.40112" lon="3.68583">
        <ele>175.05</ele>
        <time>2019-06-01T10:35:10.000Z</time>
      </trkpt>
      <trkpt lat="43.40093" lon="3.68602">
        <ele>172.3</ele>
        <time>2019-06-01T10:35:15.000Z</time>
      </trkpt>
      <trkpt lat="43.40074" lon="3.68624">
        <ele>168.05</ele>
        <time>2019-06-01T10:35:20.000Z</time>
      </trkpt>
      <trkpt lat="43.40053" lon="3.68644">
        <ele>163.93</ele>
        <time>2019-06-01T10:35:25.000Z</time>
      </trkpt>
      <trkpt lat="43.40033" lon="3.68668">
        <ele>164.29</ele>
        <time>2019-06-01T10:35:30.000Z</time>
      </trkpt>
      <trkpt lat="43.40012" lon="3.68693">
        <ele>157.08</ele>
        <time>2019-06-01T10:35:35.000Z</time>
      </trkpt>
      <trkpt lat="43.39996" lon="3.68716">
        <ele>150.18</ele>
        <time>2019-06-01T10:35:40.000Z</time>
      </trkpt>
      <trkpt lat="43.39977" lon="3.68741">
        <ele>146.06</ele>
        <time>2019-06-01T10:35:45.000Z</time>
      </trkpt>
      <trkpt lat="43.39955" lon="3.68767">
        <ele>142.06</ele>
        <time>2019-06-01T10:35:50.000Z</time>
      </trkpt>
      <trkpt lat="43.39934" lon="3.68793">
        <ele>138.85</ele>
        <time>2019-06-01T10:35:55.000Z</time>
      </trkpt>
      <trkpt lat="43.39915" lon="3.68819">
        <ele>135.35</ele>
        <time>2019-06-01T10:36:00.000Z</time>
      </trkpt>
      <trkpt lat="43.39898" lon="3.68845">
        <ele>132.8</ele>
        <time>2019-06-01T10:36:05.000Z</time>
      </trkpt>
      <trkpt lat="43.39879" lon="3.68873">
        <ele>128.12</ele>
        <time>2019-06-01T10:36:10.000Z</time>
      </trkpt>
      <trkpt lat="43.39858" lon="3.68902">
        <ele>122.14</ele>
        <time>2019-06-01T10:36:15.000Z</time>
      </trkpt>
      <trkpt lat="43.3984" lon="3.68926">
        <ele>118.81</ele>
        <time>2019-06-01T10:36:20.000Z</time>
      </trkpt>
      <trkpt lat="43.39828" lon="3.68952">
        <ele>116.79</ele>
        <time>2019-06-01T10:36:25.000Z</time>
      </trkpt>
      <trkpt lat="43.39819" lon="3.68983">
        <ele>113.12</ele>
        <time>2019-06-01T10:36:30.000Z</time>
      </trkpt>
      <trkpt lat="43.39798" lon="3.68995">
        <ele>110.11</ele>
        <time>2019-06-01T10:36:35.000Z</time>
      </trkpt>
      <trkpt lat="43.39777" lon="3.69009">
        <ele>107.86</ele>
        <time>2019-06-01T10:36:40.000Z</time>
      </trkpt>
      <trkpt lat="43.39766" lon="3.69034">
        <ele>102.12</ele>
        <time>2019-06-01T10:36:45.000Z</time>
      </trkpt>
      <trkpt lat="43.39758" lon="3.69059">
        <ele>96.87</ele>
        <time>2019-06-01T10:36:50.000Z</time>
      </trkpt>
      <trkpt lat="43.39752" lon="3.69075">
        <ele>93.87</ele>
        <time>2019-06-01T10:36:55.000Z</time>
      </trkpt>
      <trkpt lat="43.39759" lon="3.69085">
        <ele>91.04</ele>
        <time>2019-06-01T10:37:05.000Z</time>
      </trkpt>
      <trkpt lat="43.39776" lon="3.69106">
        <ele>88.11</ele>
        <time>2019-06-01T10:37:10.000Z</time>
      </trkpt>
      <trkpt lat="43.39782" lon="3.69134">
        <ele>83.11</ele>
        <time>2019-06-01T10:37:15.000Z</time>
      </trkpt>
      <trkpt lat="43.39779" lon="3.69171">
        <ele>77.94</ele>
        <time>2019-06-01T10:37:20.000Z</time>
      </trkpt>
      <trkpt lat="43.39788" lon="3.69208">
        <ele>73.11</ele>
        <time>2019-06-01T10:37:25.000Z</time>
      </trkpt>
      <trkpt lat="43.39796" lon="3.69248">
        <ele>69.12</ele>
        <time>2019-06-01T10:37:30.000Z</time>
      </trkpt>
      <trkpt lat="43.39795" lon="3.69287">
        <ele>65.08</ele>
        <time>2019-06-01T10:37:35.000Z</time>
      </trkpt>
      <trkpt lat="43.39777" lon="3.69321">
        <ele>61.87</ele>
        <time>2019-06-01T10:37:40.000Z</time>
      </trkpt>
      <trkpt lat="43.39746" lon="3.69327">
        <ele>60.79</ele>
        <time>2019-06-01T10:37:45.000Z</time>
      </trkpt>
      <trkpt lat="43.39724" lon="3.69321">
        <ele>61.79</ele>
        <time>2019-06-01T10:37:50.000Z</time>
      </trkpt>
      <trkpt lat="43.39707" lon="3.69316">
        <ele>62.79</ele>
        <time>2019-06-01T10:37:55.000Z</time>
      </trkpt>
      <trkpt lat="43.39685" lon="3.69306">
        <ele>61.81</ele>
        <time>2019-06-01T10:38:00.000Z</time>
      </trkpt>
      <trkpt lat="43.39664" lon="3.69293">
        <ele>59.86</ele>
        <time>2019-06-01T10:38:05.000Z</time>
      </trkpt>
      <trkpt lat="43.39646" lon="3.69286">
        <ele>57.86</ele>
        <time>2019-06-01T10:38:10.000Z</time>
      </trkpt>
      <trkpt lat="43.39637" lon="3.69283">
        <ele>58.04</ele>
        <time>2019-06-01T10:38:17.000Z</time>
      </trkpt>
      <trkpt lat="43.39646" lon="3.69287">
        <ele>54.81</ele>
        <time>2019-06-01T10:41:14.000Z</time>
      </trkpt>
      <trkpt lat="43.39645" lon="3.69271">
        <ele>55.79</ele>
        <time>2019-06-01T10:41:56.000Z</time>
      </trkpt>
      <trkpt lat="43.39625" lon="3.69249">
        <ele>54.05</ele>
        <time>2019-06-01T10:42:01.000Z</time>
      </trkpt>
      <trkpt lat="43.3961" lon="3.6923">
        <ele>51.07</ele>
        <time>2019-06-01T10:42:06.000Z</time>
      </trkpt>
      <trkpt lat="43.39589" lon="3.6922">
        <ele>48.06</ele>
        <time>2019-06-01T10:42:11.000Z</time>
      </trkpt>
      <trkpt lat="43.39571" lon="3.69239">
        <ele>44.12</ele>
        <time>2019-06-01T10:42:16.000Z</time>
      </trkpt>
      <trkpt lat="43.39564" lon="3.6927">
        <ele>40.12</ele>
        <time>2019-06-01T10:42:21.000Z</time>
      </trkpt>
      <trkpt lat="43.39548" lon="3.69294">
        <ele>37.81</ele>
        <time>2019-06-01T10:42:26.000Z</time>
      </trkpt>
      <trkpt lat="43.39536" lon="3.6931">
        <ele>36.81</ele>
        <time>2019-06-01T10:42:31.000Z</time>
      </trkpt>
      <trkpt lat="43.39543" lon="3.69323">
        <ele>35.81</ele>
        <time>2019-06-01T10:42:46.000Z</time>
      </trkpt>
      <trkpt lat="43.39557" lon="3.69336">
        <ele>35.79</ele>
        <time>2019-06-01T10:42:51.000Z</time>
      </trkpt>
      <trkpt lat="43.39569" lon="3.69345">
        <ele>34.34</ele>
        <time>2019-06-01T10:42:56.000Z</time>
      </trkpt>
      <trkpt lat="43.39578" lon="3.6935">
        <ele>33.54</ele>
        <time>2019-06-01T10:43:18.000Z</time>
      </trkpt>
      <trkpt lat="43.39588" lon="3.69362">
        <ele>33.79</ele>
        <time>2019-06-01T10:43:23.000Z</time>
      </trkpt>
      <trkpt lat="43.39602" lon="3.69375">
        <ele>33.79</ele>
        <time>2019-06-01T10:43:28.000Z</time>
      </trkpt>
      <trkpt lat="43.39618" lon="3.69388">
        <ele>33.79</ele>
        <time>2019-06-01T10:43:33.000Z</time>
      </trkpt>
      <trkpt lat="43.39636" lon="3.69403">
        <ele>33.79</ele>
        <time>2019-06-01T10:43:38.000Z</time>
      </trkpt>
      <trkpt lat="43.39654" lon="3.69419">
        <ele>33.54</ele>
        <time>2019-06-01T10:43:43.000Z</time>
      </trkpt>
      <trkpt lat="43.39664" lon="3.69422">
        <ele>31.8</ele>
        <time>2019-06-01T10:43:48.000Z</time>
      </trkpt>
      <trkpt lat="43.39672" lon="3.69432">
        <ele>32.48</ele>
        <time>2019-06-01T10:43:53.000Z</time>
      </trkpt>
      <trkpt lat="43.39688" lon="3.69446">
        <ele>32.79</ele>
        <time>2019-06-01T10:43:58.000Z</time>
      </trkpt>
      <trkpt lat="43.39709" lon="3.69459">
        <ele>34.53</ele>
        <time>2019-06-01T10:44:03.000Z</time>
      </trkpt>
      <trkpt lat="43.3973" lon="3.6947">
        <ele>34.6</ele>
        <time>2019-06-01T10:44:08.000Z</time>
      </trkpt>
      <trkpt lat="43.39748" lon="3.69474">
        <ele>34.56</ele>
        <time>2019-06-01T10:44:13.000Z</time>
      </trkpt>
      <trkpt lat="43.39763" lon="3.69473">
        <ele>36.54</ele>
        <time>2019-06-01T10:44:18.000Z</time>
      </trkpt>
      <trkpt lat="43.39764" lon="3.69494">
        <ele>34.17</ele>
        <time>2019-06-01T10:44:23.000Z</time>
      </trkpt>
      <trkpt lat="43.39771" lon="3.69507">
        <ele>30.86</ele>
        <time>2019-06-01T10:44:28.000Z</time>
      </trkpt>
      <trkpt lat="43.39796" lon="3.69505">
        <ele>29.79</ele>
        <time>2019-06-01T10:44:33.000Z</time>
      </trkpt>
      <trkpt lat="43.39816" lon="3.695">
        <ele>28.85</ele>
        <time>2019-06-01T10:44:38.000Z</time>
      </trkpt>
      <trkpt lat="43.39837" lon="3.69495">
        <ele>28.73</ele>
        <time>2019-06-01T10:44:43.000Z</time>
      </trkpt>
      <trkpt lat="43.39855" lon="3.69493">
        <ele>29.73</ele>
        <time>2019-06-01T10:44:48.000Z</time>
      </trkpt>
      <trkpt lat="43.39872" lon="3.69491">
        <ele>30.54</ele>
        <time>2019-06-01T10:44:53.000Z</time>
      </trkpt>
      <trkpt lat="43.3989" lon="3.69488">
        <ele>31.78</ele>
        <time>2019-06-01T10:44:58.000Z</time>
      </trkpt>
      <trkpt lat="43.39908" lon="3.69485">
        <ele>31.79</ele>
        <time>2019-06-01T10:45:03.000Z</time>
      </trkpt>
      <trkpt lat="43.39926" lon="3.69483">
        <ele>30.81</ele>
        <time>2019-06-01T10:45:08.000Z</time>
      </trkpt>
      <trkpt lat="43.39939" lon="3.69479">
        <ele>31.04</ele>
        <time>2019-06-01T10:45:13.000Z</time>
      </trkpt>
      <trkpt lat="43.39954" lon="3.69486">
        <ele>29.85</ele>
        <time>2019-06-01T10:45:18.000Z</time>
      </trkpt>
      <trkpt lat="43.39969" lon="3.69503">
        <ele>27.87</ele>
        <time>2019-06-01T10:45:23.000Z</time>
      </trkpt>
      <trkpt lat="43.39985" lon="3.6951">
        <ele>29.71</ele>
        <time>2019-06-01T10:45:28.000Z</time>
      </trkpt>
      <trkpt lat="43.4" lon="3.69516">
        <ele>29.79</ele>
        <time>2019-06-01T10:45:33.000Z</time>
      </trkpt>
      <trkpt lat="43.40012" lon="3.69515">
        <ele>27.57</ele>
        <time>2019-06-01T10:45:38.000Z</time>
      </trkpt>
      <trkpt lat="43.40017" lon="3.6953">
        <ele>25.87</ele>
        <time>2019-06-01T10:45:48.000Z</time>
      </trkpt>
      <trkpt lat="43.4002" lon="3.69555">
        <ele>23.81</ele>
        <time>2019-06-01T10:45:53.000Z</time>
      </trkpt>
      <trkpt lat="43.40026" lon="3.69575">
        <ele>22.79</ele>
        <time>2019-06-01T10:45:58.000Z</time>
      </trkpt>
      <trkpt lat="43.40024" lon="3.69587">
        <ele>22.97</ele>
        <time>2019-06-01T10:46:03.000Z</time>
      </trkpt>
      <trkpt lat="43.40033" lon="3.69583">
        <ele>23.74</ele>
        <time>2019-06-01T10:46:08.000Z</time>
      </trkpt>
      <trkpt lat="43.40049" lon="3.69577">
        <ele>25.77</ele>
        <time>2019-06-01T10:46:13.000Z</time>
      </trkpt>
      <trkpt lat="43.40069" lon="3.69574">
        <ele>26.03</ele>
        <time>2019-06-01T10:46:18.000Z</time>
      </trkpt>
      <trkpt lat="43.40083" lon="3.69573">
        <ele>24.55</ele>
        <time>2019-06-01T10:46:23.000Z</time>
      </trkpt>
      <trkpt lat="43.40096" lon="3.69574">
        <ele>18.18</ele>
        <time>2019-06-01T10:46:28.000Z</time>
      </trkpt>
      <trkpt lat="43.40117" lon="3.69573">
        <ele>15.9</ele>
        <time>2019-06-01T10:46:33.000Z</time>
      </trkpt>
      <trkpt lat="43.40137" lon="3.69571">
        <ele>15.04</ele>
        <time>2019-06-01T10:46:38.000Z</time>
      </trkpt>
      <trkpt lat="43.40155" lon="3.69569">
        <ele>14.79</ele>
        <time>2019-06-01T10:46:43.000Z</time>
      </trkpt>
      <trkpt lat="43.40164" lon="3.69566">
        <ele>14.8</ele>
        <time>2019-06-01T10:46:49.000Z</time>
      </trkpt>
      <trkpt lat="43.40174" lon="3.69569">
        <ele>14.56</ele>
        <time>2019-06-01T10:46:54.000Z</time>
      </trkpt>
      <trkpt lat="43.40182" lon="3.69563">
        <ele>18.52</ele>
        <time>2019-06-01T10:47:06.000Z</time>
      </trkpt>
      <trkpt lat="43.40191" lon="3.69559">
        <ele>18.31</ele>
        <time>2019-06-01T10:47:12.000Z</time>
      </trkpt>
      <trkpt lat="43.402" lon="3.69556">
        <ele>17.1</ele>
        <time>2019-06-01T10:47:18.000Z</time>
      </trkpt>
      <trkpt lat="43.4021" lon="3.69554">
        <ele>17.77</ele>
        <time>2019-06-01T10:47:23.000Z</time>
      </trkpt>
      <trkpt lat="43.4022" lon="3.69553">
        <ele>19.52</ele>
        <time>2019-06-01T10:47:28.000Z</time>
      </trkpt>
      <trkpt lat="43.40229" lon="3.69558">
        <ele>14.14</ele>
        <time>2019-06-01T10:47:35.000Z</time>
      </trkpt>
      <trkpt lat="43.40234" lon="3.69571">
        <ele>8.87</ele>
        <time>2019-06-01T10:47:40.000Z</time>
      </trkpt>
      <trkpt lat="43.40236" lon="3.69584">
        <ele>8.77</ele>
        <time>2019-06-01T10:47:45.000Z</time>
      </trkpt>
      <trkpt lat="43.40241" lon="3.69595">
        <ele>8.04</ele>
        <time>2019-06-01T10:47:50.000Z</time>
      </trkpt>
      <trkpt lat="43.40247" lon="3.69606">
        <ele>7.78</ele>
        <time>2019-06-01T10:47:58.000Z</time>
      </trkpt>
      <trkpt lat="43.40244" lon="3.69618">
        <ele>8.83</ele>
        <time>2019-06-01T10:48:04.000Z</time>
      </trkpt>
      <trkpt lat="43.40245" lon="3.69631">
        <ele>9.56</ele>
        <time>2019-06-01T10:48:12.000Z</time>
      </trkpt>
      <trkpt lat="43.40245" lon="3.69644">
        <ele>9.54</ele>
        <time>2019-06-01T10:48:22.000Z</time>
      </trkpt>
      <trkpt lat="43.40246" lon="3.69656">
        <ele>10.97</ele>
        <time>2019-06-01T10:48:33.000Z</time>
      </trkpt>
      <trkpt lat="43.40246" lon="3.69669">
        <ele>10.79</ele>
        <time>2019-06-01T10:48:40.000Z</time>
      </trkpt>
      <trkpt lat="43.40248" lon="3.69681">
        <ele>12.83</ele>
        <time>2019-06-01T10:48:50.000Z</time>
      </trkpt>
      <trkpt lat="43.4024" lon="3.69688">
        <ele>20.89</ele>
        <time>2019-06-01T10:49:08.000Z</time>
      </trkpt>
      <trkpt lat="43.4023" lon="3.69684">
        <ele>22.95</ele>
        <time>2019-06-01T10:49:14.000Z</time>
      </trkpt>
      <trkpt lat="43.40209" lon="3.69679">
        <ele>19.53</ele>
        <time>2019-06-01T10:49:19.000Z</time>
      </trkpt>
      <trkpt lat="43.402" lon="3.69677">
        <ele>22.47</ele>
        <time>2019-06-01T10:49:24.000Z</time>
      </trkpt>
      <trkpt lat="43.40191" lon="3.69673">
        <ele>25.01</ele>
        <time>2019-06-01T10:49:29.000Z</time>
      </trkpt>
      <trkpt lat="43.40181" lon="3.69669">
        <ele>23.29</ele>
        <time>2019-06-01T10:49:35.000Z</time>
      </trkpt>
      <trkpt lat="43.40168" lon="3.69666">
        <ele>18.81</ele>
        <time>2019-06-01T10:49:40.000Z</time>
      </trkpt>
      <trkpt lat="43.40158" lon="3.69662">
        <ele>24.02</ele>
        <time>2019-06-01T10:49:49.000Z</time>
      </trkpt>
      <trkpt lat="43.40147" lon="3.69659">
        <ele>20.61</ele>
        <time>2019-06-01T10:49:54.000Z</time>
      </trkpt>
      <trkpt lat="43.40136" lon="3.69653">
        <ele>15.89</ele>
        <time>2019-06-01T10:50:00.000Z</time>
      </trkpt>
      <trkpt lat="43.40126" lon="3.69652">
        <ele>15.79</ele>
        <time>2019-06-01T10:50:05.000Z</time>
      </trkpt>
      <trkpt lat="43.40112" lon="3.69648">
        <ele>17.78</ele>
        <time>2019-06-01T10:50:10.000Z</time>
      </trkpt>
      <trkpt lat="43.40094" lon="3.69645">
        <ele>18.77</ele>
        <time>2019-06-01T10:50:15.000Z</time>
      </trkpt>
      <trkpt lat="43.40071" lon="3.69637">
        <ele>11.8</ele>
        <time>2019-06-01T10:50:20.000Z</time>
      </trkpt>
      <trkpt lat="43.40054" lon="3.6963">
        <ele>12.98</ele>
        <time>2019-06-01T10:50:25.000Z</time>
      </trkpt>
      <trkpt lat="43.40044" lon="3.69633">
        <ele>14.77</ele>
        <time>2019-06-01T10:50:37.000Z</time>
      </trkpt>
      <trkpt lat="43.40035" lon="3.69631">
        <ele>15.73</ele>
        <time>2019-06-01T10:50:45.000Z</time>
      </trkpt>
      <trkpt lat="43.40019" lon="3.69629">
        <ele>14.29</ele>
        <time>2019-06-01T10:50:50.000Z</time>
      </trkpt>
      <trkpt lat="43.40002" lon="3.69622">
        <ele>14.97</ele>
        <time>2019-06-01T10:50:55.000Z</time>
      </trkpt>
      <trkpt lat="43.39984" lon="3.69616">
        <ele>15.79</ele>
        <time>2019-06-01T10:51:00.000Z</time>
      </trkpt>
      <trkpt lat="43.39964" lon="3.69611">
        <ele>14.85</ele>
        <time>2019-06-01T10:51:05.000Z</time>
      </trkpt>
      <trkpt lat="43.39938" lon="3.69602">
        <ele>14.54</ele>
        <time>2019-06-01T10:51:10.000Z</time>
      </trkpt>
      <trkpt lat="43.39923" lon="3.69611">
        <ele>11.59</ele>
        <time>2019-06-01T10:51:15.000Z</time>
      </trkpt>
      <trkpt lat="43.3994" lon="3.69634">
        <ele>8.81</ele>
        <time>2019-06-01T10:51:20.000Z</time>
      </trkpt>
      <trkpt lat="43.3995" lon="3.69642">
        <ele>7.55</ele>
        <time>2019-06-01T10:51:25.000Z</time>
      </trkpt>
      <trkpt lat="43.39957" lon="3.69652">
        <ele>7.79</ele>
        <time>2019-06-01T10:51:30.000Z</time>
      </trkpt>
      <trkpt lat="43.39949" lon="3.69662">
        <ele>7.73</ele>
        <time>2019-06-01T10:51:35.000Z</time>
      </trkpt>
      <trkpt lat="43.39934" lon="3.6966">
        <ele>8.54</ele>
        <time>2019-06-01T10:51:40.000Z</time>
      </trkpt>
      <trkpt lat="43.39923" lon="3.69663">
        <ele>9.73</ele>
        <time>2019-06-01T10:51:45.000Z</time>
      </trkpt>
      <trkpt lat="43.39914" lon="3.69664">
        <ele>9.54</ele>
        <time>2019-06-01T10:51:51.000Z</time>
      </trkpt>
      <trkpt lat="43.39903" lon="3.69667">
        <ele>10.55</ele>
        <time>2019-06-01T10:51:58.000Z</time>
      </trkpt>
      <trkpt lat="43.39892" lon="3.69673">
        <ele>12.58</ele>
        <time>2019-06-01T10:52:03.000Z</time>
      </trkpt>
      <trkpt lat="43.39882" lon="3.69677">
        <ele>12.59</ele>
        <time>2019-06-01T10:52:09.000Z</time>
      </trkpt>
      <trkpt lat="43.39873" lon="3.69677">
        <ele>9.73</ele>
        <time>2019-06-01T10:52:24.000Z</time>
      </trkpt>
      <trkpt lat="43.39863" lon="3.69675">
        <ele>4.86</ele>
        <time>2019-06-01T10:52:41.000Z</time>
      </trkpt>
      <trkpt lat="43.39854" lon="3.69675">
        <ele>4.79</ele>
        <time>2019-06-01T10:53:14.000Z</time>
      </trkpt>
      <trkpt lat="43.39844" lon="3.69677">
        <ele>5.73</ele>
        <time>2019-06-01T10:54:17.000Z</time>
      </trkpt>
      <trkpt lat="43.39835" lon="3.69677">
        <ele>7.73</ele>
        <time>2019-06-01T10:54:28.000Z</time>
      </trkpt>
      <trkpt lat="43.39826" lon="3.69682">
        <ele>6.8</ele>
        <time>2019-06-01T10:54:49.000Z</time>
      </trkpt>
      <trkpt lat="43.39818" lon="3.69675">
        <ele>4.73</ele>
        <time>2019-06-01T10:55:18.000Z</time>
      </trkpt>
      <trkpt lat="43.39808" lon="3.69675">
        <ele>7.78</ele>
        <time>2019-06-01T10:56:11.000Z</time>
      </trkpt>
      <trkpt lat="43.39797" lon="3.69671">
        <ele>7.79</ele>
        <time>2019-06-01T10:56:16.000Z</time>
      </trkpt>
      <trkpt lat="43.39786" lon="3.69667">
        <ele>5.99</ele>
        <time>2019-06-01T10:56:21.000Z</time>
      </trkpt>
      <trkpt lat="43.39779" lon="3.69657">
        <ele>5.79</ele>
        <time>2019-06-01T10:56:28.000Z</time>
      </trkpt>
      <trkpt lat="43.39775" lon="3.69662">
        <ele>6.79</ele>
        <time>2019-06-01T10:56:58.000Z</time>
      </trkpt>
      <trkpt lat="43.39757" lon="3.69636">
        <ele>6</ele>
        <time>2019-06-01T12:54:25.000Z</time>
      </trkpt>
      <trkpt lat="43.39779" lon="3.69616">
        <ele>7</ele>
        <time>2019-06-01T12:54:58.000Z</time>
      </trkpt>
      <trkpt lat="43.39635" lon="3.69556">
        <ele>10</ele>
        <time>2019-06-01T12:55:03.000Z</time>
      </trkpt>
      <trkpt lat="43.39543" lon="3.69497">
        <ele>7</ele>
        <time>2019-06-01T12:55:08.000Z</time>
      </trkpt>
      <trkpt lat="43.39494" lon="3.69461">
        <ele>4</ele>
        <time>2019-06-01T12:55:13.000Z</time>
      </trkpt>
      <trkpt lat="43.39424" lon="3.69275">
        <ele>17</ele>
        <time>2019-06-01T12:55:18.000Z</time>
      </trkpt>
      <trkpt lat="43.39309" lon="3.69181">
        <ele>10</ele>
        <time>2019-06-01T12:55:23.000Z</time>
      </trkpt>
      <trkpt lat="43.39247" lon="3.6904">
        <ele>10</ele>
        <time>2019-06-01T12:55:31.000Z</time>
      </trkpt>
      <trkpt lat="43.39244" lon="3.68976">
        <ele>12</ele>
        <time>2019-06-01T12:55:36.000Z</time>
      </trkpt>
      <trkpt lat="43.39262" lon="3.68717">
        <ele>13</ele>
        <time>2019-06-01T12:55:41.000Z</time>
      </trkpt>
      <trkpt lat="43.39259" lon="3.68622">
        <ele>13</ele>
        <time>2019-06-01T12:55:46.000Z</time>
      </trkpt>
      <trkpt lat="43.39286" lon="3.68525">
        <ele>16</ele>
        <time>2019-06-01T12:55:51.000Z</time>
      </trkpt>
      <trkpt lat="43.39344" lon="3.68378">
        <ele>15</ele>
        <time>2019-06-01T12:55:56.000Z</time>
      </trkpt>
      <trkpt lat="43.3938" lon="3.68284">
        <ele>13</ele>
        <time>2019-06-01T12:56:01.000Z</time>
      </trkpt>
      <trkpt lat="43.39372" lon="3.67992">
        <ele>19</ele>
        <time>2019-06-01T12:56:06.000Z</time>
      </trkpt>
      <trkpt lat="43.39409" lon="3.67863">
        <ele>20</ele>
        <time>2019-06-01T12:56:11.000Z</time>
      </trkpt>
      <trkpt lat="43.39432" lon="3.67768">
        <ele>23</ele>
        <time>2019-06-01T12:56:16.000Z</time>
      </trkpt>
      <trkpt lat="43.39452" lon="3.67715">
        <ele>23</ele>
        <time>2019-06-01T12:56:21.000Z</time>
      </trkpt>
      <trkpt lat="43.3939" lon="3.67654">
        <ele>21</ele>
        <time>2019-06-01T12:56:26.000Z</time>
      </trkpt>
      <trkpt lat="43.3932" lon="3.67572">
        <ele>17</ele>
        <time>2019-06-01T12:56:31.000Z</time>
      </trkpt>
      <trkpt lat="43.39273" lon="3.67479">
        <ele>14</ele>
        <time>2019-06-01T12:56:36.000Z</time>
      </trkpt>
      <trkpt lat="43.39262" lon="3.67423">
        <ele>13</ele>
        <time>2019-06-01T12:56:41.000Z</time>
      </trkpt>
      <trkpt lat="43.39285" lon="3.67334">
        <ele>10</ele>
        <time>2019-06-01T12:56:46.000Z</time>
      </trkpt>
      <trkpt lat="43.39319" lon="3.6726">
        <ele>8.53</ele>
        <time>2019-06-01T12:56:51.000Z</time>
      </trkpt>
      <trkpt lat="43.3933" lon="3.67255">
        <ele>9.79</ele>
        <time>2019-06-01T12:56:56.000Z</time>
      </trkpt>
      <trkpt lat="43.3934" lon="3.67234">
        <ele>10.79</ele>
        <time>2019-06-01T12:57:01.000Z</time>
      </trkpt>
      <trkpt lat="43.39351" lon="3.67211">
        <ele>10.79</ele>
        <time>2019-06-01T12:57:06.000Z</time>
      </trkpt>
      <trkpt lat="43.39362" lon="3.67191">
        <ele>10.97</ele>
        <time>2019-06-01T12:57:11.000Z</time>
      </trkpt>
      <trkpt lat="43.39371" lon="3.67171">
        <ele>11.73</ele>
        <time>2019-06-01T12:57:16.000Z</time>
      </trkpt>
      <trkpt lat="43.39379" lon="3.67151">
        <ele>11.79</ele>
        <time>2019-06-01T12:57:21.000Z</time>
      </trkpt>
      <trkpt lat="43.39382" lon="3.67139">
        <ele>12.54</ele>
        <time>2019-06-01T12:57:26.000Z</time>
      </trkpt>
      <trkpt lat="43.39394" lon="3.67133">
        <ele>8.85</ele>
        <time>2019-06-01T12:57:31.000Z</time>
      </trkpt>
      <trkpt lat="43.39413" lon="3.67133">
        <ele>9.78</ele>
        <time>2019-06-01T12:57:36.000Z</time>
      </trkpt>
      <trkpt lat="43.39432" lon="3.6714">
        <ele>12.71</ele>
        <time>2019-06-01T12:57:41.000Z</time>
      </trkpt>
      <trkpt lat="43.3945" lon="3.6715">
        <ele>12.78</ele>
        <time>2019-06-01T12:57:46.000Z</time>
      </trkpt>
      <trkpt lat="43.39467" lon="3.67158">
        <ele>13.72</ele>
        <time>2019-06-01T12:57:51.000Z</time>
      </trkpt>
      <trkpt lat="43.39484" lon="3.67165">
        <ele>14.78</ele>
        <time>2019-06-01T12:57:56.000Z</time>
      </trkpt>
      <trkpt lat="43.39501" lon="3.67172">
        <ele>16.77</ele>
        <time>2019-06-01T12:58:01.000Z</time>
      </trkpt>
      <trkpt lat="43.39516" lon="3.67179">
        <ele>18.75</ele>
        <time>2019-06-01T12:58:06.000Z</time>
      </trkpt>
      <trkpt lat="43.39532" lon="3.67185">
        <ele>19.52</ele>
        <time>2019-06-01T12:58:11.000Z</time>
      </trkpt>
      <trkpt lat="43.39546" lon="3.67189">
        <ele>20.77</ele>
        <time>2019-06-01T12:58:16.000Z</time>
      </trkpt>
      <trkpt lat="43.3956" lon="3.67188">
        <ele>21.72</ele>
        <time>2019-06-01T12:58:21.000Z</time>
      </trkpt>
      <trkpt lat="43.39565" lon="3.67162">
        <ele>20.79</ele>
        <time>2019-06-01T12:58:26.000Z</time>
      </trkpt>
      <trkpt lat="43.39566" lon="3.67137">
        <ele>20.78</ele>
        <time>2019-06-01T12:58:31.000Z</time>
      </trkpt>
      <trkpt lat="43.39568" lon="3.67111">
        <ele>19.78</ele>
        <time>2019-06-01T12:58:36.000Z</time>
      </trkpt>
      <trkpt lat="43.39576" lon="3.67083">
        <ele>18.84</ele>
        <time>2019-06-01T12:58:41.000Z</time>
      </trkpt>
      <trkpt lat="43.39585" lon="3.67053">
        <ele>17.79</ele>
        <time>2019-06-01T12:58:46.000Z</time>
      </trkpt>
      <trkpt lat="43.39593" lon="3.67023">
        <ele>18.53</ele>
        <time>2019-06-01T12:58:51.000Z</time>
      </trkpt>
      <trkpt lat="43.39599" lon="3.6699">
        <ele>17.84</ele>
        <time>2019-06-01T12:58:56.000Z</time>
      </trkpt>
      <trkpt lat="43.39605" lon="3.66954">
        <ele>15.8</ele>
        <time>2019-06-01T12:59:01.000Z</time>
      </trkpt>
      <trkpt lat="43.39612" lon="3.66914">
        <ele>15.78</ele>
        <time>2019-06-01T12:59:06.000Z</time>
      </trkpt>
      <trkpt lat="43.39617" lon="3.66881">
        <ele>15.78</ele>
        <time>2019-06-01T12:59:11.000Z</time>
      </trkpt>
      <trkpt lat="43.39623" lon="3.66852">
        <ele>15.78</ele>
        <time>2019-06-01T12:59:16.000Z</time>
      </trkpt>
      <trkpt lat="43.3963" lon="3.66818">
        <ele>15.03</ele>
        <time>2019-06-01T12:59:21.000Z</time>
      </trkpt>
      <trkpt lat="43.39637" lon="3.66784">
        <ele>15.78</ele>
        <time>2019-06-01T12:59:26.000Z</time>
      </trkpt>
      <trkpt lat="43.39645" lon="3.66749">
        <ele>15.03</ele>
        <time>2019-06-01T12:59:31.000Z</time>
      </trkpt>
      <trkpt lat="43.39657" lon="3.66717">
        <ele>14.78</ele>
        <time>2019-06-01T12:59:36.000Z</time>
      </trkpt>
      <trkpt lat="43.39671" lon="3.66687">
        <ele>14.78</ele>
        <time>2019-06-01T12:59:41.000Z</time>
      </trkpt>
      <trkpt lat="43.39688" lon="3.66657">
        <ele>15.77</ele>
        <time>2019-06-01T12:59:46.000Z</time>
      </trkpt>
      <trkpt lat="43.39701" lon="3.66627">
        <ele>14.79</ele>
        <time>2019-06-01T12:59:51.000Z</time>
      </trkpt>
      <trkpt lat="43.39714" lon="3.66603">
        <ele>13.84</ele>
        <time>2019-06-01T12:59:56.000Z</time>
      </trkpt>
      <trkpt lat="43.39721" lon="3.66585">
        <ele>12.78</ele>
        <time>2019-06-01T13:00:01.000Z</time>
      </trkpt>
      <trkpt lat="43.39733" lon="3.66565">
        <ele>11.98</ele>
        <time>2019-06-01T13:00:06.000Z</time>
      </trkpt>
      <trkpt lat="43.39747" lon="3.66534">
        <ele>11.78</ele>
        <time>2019-06-01T13:00:11.000Z</time>
      </trkpt>
      <trkpt lat="43.39763" lon="3.66503">
        <ele>11.78</ele>
        <time>2019-06-01T13:00:16.000Z</time>
      </trkpt>
      <trkpt lat="43.3978" lon="3.66473">
        <ele>11.78</ele>
        <time>2019-06-01T13:00:21.000Z</time>
      </trkpt>
      <trkpt lat="43.39797" lon="3.66441">
        <ele>12.71</ele>
        <time>2019-06-01T13:00:26.000Z</time>
      </trkpt>
      <trkpt lat="43.39813" lon="3.66407">
        <ele>11.79</ele>
        <time>2019-06-01T13:00:31.000Z</time>
      </trkpt>
      <trkpt lat="43.39832" lon="3.66377">
        <ele>11.77</ele>
        <time>2019-06-01T13:00:36.000Z</time>
      </trkpt>
      <trkpt lat="43.39853" lon="3.6635">
        <ele>11.96</ele>
        <time>2019-06-01T13:00:41.000Z</time>
      </trkpt>
      <trkpt lat="43.39872" lon="3.66331">
        <ele>11.02</ele>
        <time>2019-06-01T13:00:46.000Z</time>
      </trkpt>
      <trkpt lat="43.39869" lon="3.66303">
        <ele>9.03</ele>
        <time>2019-06-01T13:00:51.000Z</time>
      </trkpt>
      <trkpt lat="43.39855" lon="3.6628">
        <ele>8.02</ele>
        <time>2019-06-01T13:00:56.000Z</time>
      </trkpt>
      <trkpt lat="43.39859" lon="3.66263">
        <ele>7.78</ele>
        <time>2019-06-01T13:01:01.000Z</time>
      </trkpt>
      <trkpt lat="43.39864" lon="3.66279">
        <ele>8.71</ele>
        <time>2019-06-01T13:01:06.000Z</time>
      </trkpt>
      <trkpt lat="43.39868" lon="3.66297">
        <ele>10.71</ele>
        <time>2019-06-01T13:01:11.000Z</time>
      </trkpt>
      <trkpt lat="43.39878" lon="3.6631">
        <ele>10.77</ele>
        <time>2019-06-01T13:01:16.000Z</time>
      </trkpt>
      <trkpt lat="43.39894" lon="3.66317">
        <ele>12.51</ele>
        <time>2019-06-01T13:01:21.000Z</time>
      </trkpt>
      <trkpt lat="43.39914" lon="3.66309">
        <ele>12.59</ele>
        <time>2019-06-01T13:01:26.000Z</time>
      </trkpt>
      <trkpt lat="43.39935" lon="3.66288">
        <ele>11.77</ele>
        <time>2019-06-01T13:01:31.000Z</time>
      </trkpt>
      <trkpt lat="43.39957" lon="3.66271">
        <ele>10.77</ele>
        <time>2019-06-01T13:01:36.000Z</time>
      </trkpt>
      <trkpt lat="43.3998" lon="3.66251">
        <ele>10.78</ele>
        <time>2019-06-01T13:01:41.000Z</time>
      </trkpt>
      <trkpt lat="43.40002" lon="3.66229">
        <ele>9.85</ele>
        <time>2019-06-01T13:01:46.000Z</time>
      </trkpt>
      <trkpt lat="43.40017" lon="3.66207">
        <ele>10.76</ele>
        <time>2019-06-01T13:01:51.000Z</time>
      </trkpt>
      <trkpt lat="43.40037" lon="3.66192">
        <ele>10.83</ele>
        <time>2019-06-01T13:01:56.000Z</time>
      </trkpt>
      <trkpt lat="43.4006" lon="3.66179">
        <ele>11.72</ele>
        <time>2019-06-01T13:02:01.000Z</time>
      </trkpt>
      <trkpt lat="43.40084" lon="3.66173">
        <ele>13.46</ele>
        <time>2019-06-01T13:02:06.000Z</time>
      </trkpt>
      <trkpt lat="43.40106" lon="3.66173">
        <ele>12.09</ele>
        <time>2019-06-01T13:02:11.000Z</time>
      </trkpt>
      <trkpt lat="43.40119" lon="3.66192">
        <ele>12.52</ele>
        <time>2019-06-01T13:02:41.000Z</time>
      </trkpt>
      <trkpt lat="43.40135" lon="3.66214">
        <ele>11.83</ele>
        <time>2019-06-01T13:02:46.000Z</time>
      </trkpt>
      <trkpt lat="43.4016" lon="3.66213">
        <ele>11.82</ele>
        <time>2019-06-01T13:02:51.000Z</time>
      </trkpt>
      <trkpt lat="43.40187" lon="3.66217">
        <ele>10.77</ele>
        <time>2019-06-01T13:02:56.000Z</time>
      </trkpt>
      <trkpt lat="43.40214" lon="3.66217">
        <ele>12.76</ele>
        <time>2019-06-01T13:03:28.000Z</time>
      </trkpt>
      <trkpt lat="43.40239" lon="3.66214">
        <ele>14.75</ele>
        <time>2019-06-01T13:05:36.000Z</time>
      </trkpt>
      <trkpt lat="43.40263" lon="3.66212">
        <ele>15.77</ele>
        <time>2019-06-01T13:55:44.000Z</time>
      </trkpt>
      <trkpt lat="43.40285" lon="3.6622">
        <ele>15.96</ele>
        <time>2019-06-01T13:55:53.000Z</time>
      </trkpt>
      <trkpt lat="43.40306" lon="3.66229">
        <ele>16.77</ele>
        <time>2019-06-01T13:55:58.000Z</time>
      </trkpt>
      <trkpt lat="43.40322" lon="3.66236">
        <ele>16.77</ele>
        <time>2019-06-01T13:58:23.000Z</time>
      </trkpt>
      <trkpt lat="43.40337" lon="3.6624">
        <ele>17.78</ele>
        <time>2019-06-01T13:58:37.000Z</time>
      </trkpt>
      <trkpt lat="43.40357" lon="3.66247">
        <ele>18.81</ele>
        <time>2019-06-01T13:58:42.000Z</time>
      </trkpt>
      <trkpt lat="43.40379" lon="3.66253">
        <ele>21.75</ele>
        <time>2019-06-01T13:58:47.000Z</time>
      </trkpt>
      <trkpt lat="43.40401" lon="3.66263">
        <ele>22.76</ele>
        <time>2019-06-01T13:58:52.000Z</time>
      </trkpt>
      <trkpt lat="43.40422" lon="3.66272">
        <ele>21.77</ele>
        <time>2019-06-01T13:58:57.000Z</time>
      </trkpt>
      <trkpt lat="43.40442" lon="3.66284">
        <ele>22</ele>
        <time>2019-06-01T13:59:02.000Z</time>
      </trkpt>
      <trkpt lat="43.40463" lon="3.663">
        <ele>22.7</ele>
        <time>2019-06-01T13:59:07.000Z</time>
      </trkpt>
      <trkpt lat="43.40482" lon="3.66316">
        <ele>22.77</ele>
        <time>2019-06-01T13:59:12.000Z</time>
      </trkpt>
      <trkpt lat="43.405" lon="3.66333">
        <ele>22.77</ele>
        <time>2019-06-01T13:59:17.000Z</time>
      </trkpt>
      <trkpt lat="43.40516" lon="3.66352">
        <ele>23.75</ele>
        <time>2019-06-01T13:59:22.000Z</time>
      </trkpt>
      <trkpt lat="43.40532" lon="3.66368">
        <ele>24.7</ele>
        <time>2019-06-01T13:59:27.000Z</time>
      </trkpt>
      <trkpt lat="43.40545" lon="3.66383">
        <ele>23.83</ele>
        <time>2019-06-01T13:59:32.000Z</time>
      </trkpt>
      <trkpt lat="43.40553" lon="3.66392">
        <ele>23.77</ele>
        <time>2019-06-01T13:59:37.000Z</time>
      </trkpt>
      <trkpt lat="43.4056" lon="3.66401">
        <ele>24.76</ele>
        <time>2019-06-01T13:59:42.000Z</time>
      </trkpt>
      <trkpt lat="43.40571" lon="3.66416">
        <ele>23.77</ele>
        <time>2019-06-01T13:59:47.000Z</time>
      </trkpt>
      <trkpt lat="43.40588" lon="3.66436">
        <ele>24.51</ele>
        <time>2019-06-01T13:59:52.000Z</time>
      </trkpt>
      <trkpt lat="43.40597" lon="3.66457">
        <ele>24.75</ele>
        <time>2019-06-01T13:59:57.000Z</time>
      </trkpt>
      <trkpt lat="43.40601" lon="3.66468">
        <ele>25.51</ele>
        <time>2019-06-01T14:00:02.000Z</time>
      </trkpt>
      <trkpt lat="43.40592" lon="3.66471">
        <ele>23.5</ele>
        <time>2019-06-01T14:00:07.000Z</time>
      </trkpt>
      <trkpt lat="43.40584" lon="3.66465">
        <ele>35.98</ele>
        <time>2019-06-01T14:00:12.000Z</time>
      </trkpt>
      <trkpt lat="43.40592" lon="3.66458">
        <ele>27.82</ele>
        <time>2019-06-01T14:00:17.000Z</time>
      </trkpt>
      <trkpt lat="43.40602" lon="3.66465">
        <ele>22.16</ele>
        <time>2019-06-01T14:00:22.000Z</time>
      </trkpt>
      <trkpt lat="43.40611" lon="3.66459">
        <ele>21.45</ele>
        <time>2019-06-01T14:00:27.000Z</time>
      </trkpt>
      <trkpt lat="43.40616" lon="3.66447">
        <ele>25.01</ele>
        <time>2019-06-01T14:00:32.000Z</time>
      </trkpt>
      <trkpt lat="43.40604" lon="3.66426">
        <ele>25.01</ele>
        <time>2019-06-01T14:00:37.000Z</time>
      </trkpt>
      <trkpt lat="43.40584" lon="3.66405">
        <ele>24.76</ele>
        <time>2019-06-01T14:00:42.000Z</time>
      </trkpt>
      <trkpt lat="43.40563" lon="3.66382">
        <ele>23.78</ele>
        <time>2019-06-01T14:00:47.000Z</time>
      </trkpt>
      <trkpt lat="43.4054" lon="3.66359">
        <ele>22.77</ele>
        <time>2019-06-01T14:00:52.000Z</time>
      </trkpt>
      <trkpt lat="43.40517" lon="3.66336">
        <ele>22.76</ele>
        <time>2019-06-01T14:00:57.000Z</time>
      </trkpt>
      <trkpt lat="43.40494" lon="3.6631">
        <ele>20.78</ele>
        <time>2019-06-01T14:01:02.000Z</time>
      </trkpt>
      <trkpt lat="43.40468" lon="3.66286">
        <ele>18.77</ele>
        <time>2019-06-01T14:01:07.000Z</time>
      </trkpt>
      <trkpt lat="43.40441" lon="3.66266">
        <ele>17.97</ele>
        <time>2019-06-01T14:01:12.000Z</time>
      </trkpt>
      <trkpt lat="43.40411" lon="3.66251">
        <ele>18.71</ele>
        <time>2019-06-01T14:01:17.000Z</time>
      </trkpt>
      <trkpt lat="43.40381" lon="3.66238">
        <ele>17.78</ele>
        <time>2019-06-01T14:01:22.000Z</time>
      </trkpt>
      <trkpt lat="43.40349" lon="3.66226">
        <ele>18.58</ele>
        <time>2019-06-01T14:02:12.000Z</time>
      </trkpt>
      <trkpt lat="43.40316" lon="3.66216">
        <ele>17.78</ele>
        <time>2019-06-01T14:02:17.000Z</time>
      </trkpt>
      <trkpt lat="43.40284" lon="3.66203">
        <ele>16.08</ele>
        <time>2019-06-01T14:02:22.000Z</time>
      </trkpt>
      <trkpt lat="43.40251" lon="3.66194">
        <ele>13.97</ele>
        <time>2019-06-01T14:02:27.000Z</time>
      </trkpt>
      <trkpt lat="43.40218" lon="3.66201">
        <ele>13.77</ele>
        <time>2019-06-01T14:02:32.000Z</time>
      </trkpt>
      <trkpt lat="43.40187" lon="3.662">
        <ele>12.77</ele>
        <time>2019-06-01T14:02:37.000Z</time>
      </trkpt>
      <trkpt lat="43.40176" lon="3.66174">
        <ele>12.77</ele>
        <time>2019-06-01T14:02:42.000Z</time>
      </trkpt>
      <trkpt lat="43.40165" lon="3.66141">
        <ele>11.97</ele>
        <time>2019-06-01T14:02:47.000Z</time>
      </trkpt>
      <trkpt lat="43.40152" lon="3.66105">
        <ele>10.83</ele>
        <time>2019-06-01T14:02:52.000Z</time>
      </trkpt>
      <trkpt lat="43.40147" lon="3.66059">
        <ele>9.78</ele>
        <time>2019-06-01T14:02:57.000Z</time>
      </trkpt>
      <trkpt lat="43.40133" lon="3.66014">
        <ele>8.02</ele>
        <time>2019-06-01T14:03:03.000Z</time>
      </trkpt>
      <trkpt lat="43.40111" lon="3.65972">
        <ele>6.77</ele>
        <time>2019-06-01T14:03:08.000Z</time>
      </trkpt>
      <trkpt lat="43.40089" lon="3.6593">
        <ele>5.77</ele>
        <time>2019-06-01T14:03:13.000Z</time>
      </trkpt>
      <trkpt lat="43.40063" lon="3.65895">
        <ele>4.77</ele>
        <time>2019-06-01T14:03:18.000Z</time>
      </trkpt>
      <trkpt lat="43.4003" lon="3.65875">
        <ele>3.02</ele>
        <time>2019-06-01T14:03:25.000Z</time>
      </trkpt>
      <trkpt lat="43.39993" lon="3.65873">
        <ele>2.77</ele>
        <time>2019-06-01T14:03:30.000Z</time>
      </trkpt>
      <trkpt lat="43.39959" lon="3.65863">
        <ele>1.79</ele>
        <time>2019-06-01T14:03:38.000Z</time>
      </trkpt>
      <trkpt lat="43.39938" lon="3.65826">
        <ele>2.56</ele>
        <time>2019-06-01T14:03:43.000Z</time>
      </trkpt>
      <trkpt lat="43.39917" lon="3.65787">
        <ele>5.45</ele>
        <time>2019-06-01T14:03:48.000Z</time>
      </trkpt>
      <trkpt lat="43.39895" lon="3.65745">
        <ele>7.52</ele>
        <time>2019-06-01T14:03:53.000Z</time>
      </trkpt>
      <trkpt lat="43.39877" lon="3.65711">
        <ele>7.72</ele>
        <time>2019-06-01T14:03:58.000Z</time>
      </trkpt>
      <trkpt lat="43.39858" lon="3.65672">
        <ele>6.84</ele>
        <time>2019-06-01T14:04:03.000Z</time>
      </trkpt>
      <trkpt lat="43.39847" lon="3.65647">
        <ele>5.77</ele>
        <time>2019-06-01T14:04:08.000Z</time>
      </trkpt>
      <trkpt lat="43.39839" lon="3.65643">
        <ele>7.5</ele>
        <time>2019-06-01T14:04:13.000Z</time>
      </trkpt>
      <trkpt lat="43.39821" lon="3.65619">
        <ele>8.76</ele>
        <time>2019-06-01T14:04:18.000Z</time>
      </trkpt>
      <trkpt lat="43.39798" lon="3.65596">
        <ele>7.78</ele>
        <time>2019-06-01T14:04:23.000Z</time>
      </trkpt>
      <trkpt lat="43.39773" lon="3.65573">
        <ele>5.79</ele>
        <time>2019-06-01T14:04:28.000Z</time>
      </trkpt>
      <trkpt lat="43.39745" lon="3.65557">
        <ele>5.77</ele>
        <time>2019-06-01T14:04:33.000Z</time>
      </trkpt>
      <trkpt lat="43.39716" lon="3.65554">
        <ele>4.08</ele>
        <time>2019-06-01T14:04:38.000Z</time>
      </trkpt>
      <trkpt lat="43.39685" lon="3.65542">
        <ele>4.72</ele>
        <time>2019-06-01T14:04:43.000Z</time>
      </trkpt>
      <trkpt lat="43.39657" lon="3.65521">
        <ele>3.78</ele>
        <time>2019-06-01T14:04:48.000Z</time>
      </trkpt>
      <trkpt lat="43.39634" lon="3.65491">
        <ele>2.77</ele>
        <time>2019-06-01T14:04:53.000Z</time>
      </trkpt>
      <trkpt lat="43.39612" lon="3.6547">
        <ele>2.54</ele>
        <time>2019-06-01T14:04:58.000Z</time>
      </trkpt>
      <trkpt lat="43.39622" lon="3.65471">
        <ele>1.77</ele>
        <time>2019-06-01T14:05:03.000Z</time>
      </trkpt>
      <trkpt lat="43.39633" lon="3.65465">
        <ele>1.97</ele>
        <time>2019-06-01T14:05:08.000Z</time>
      </trkpt>
      <trkpt lat="43.39635" lon="3.65445">
        <ele>2.02</ele>
        <time>2019-06-01T14:05:13.000Z</time>
      </trkpt>
      <trkpt lat="43.39641" lon="3.65434">
        <ele>2.53</ele>
        <time>2019-06-01T14:05:18.000Z</time>
      </trkpt>
      <trkpt lat="43.39636" lon="3.65448">
        <ele>2.71</ele>
        <time>2019-06-01T14:05:23.000Z</time>
      </trkpt>
      <trkpt lat="43.39631" lon="3.65468">
        <ele>3.77</ele>
        <time>2019-06-01T14:05:28.000Z</time>
      </trkpt>
      <trkpt lat="43.39621" lon="3.65471">
        <ele>2.03</ele>
        <time>2019-06-01T14:05:33.000Z</time>
      </trkpt>
      <trkpt lat="43.39603" lon="3.65465">
        <ele>1.77</ele>
        <time>2019-06-01T14:05:38.000Z</time>
      </trkpt>
      <trkpt lat="43.39581" lon="3.65449">
        <ele>2.77</ele>
        <time>2019-06-01T14:05:43.000Z</time>
      </trkpt>
      <trkpt lat="43.39557" lon="3.65432">
        <ele>2.77</ele>
        <time>2019-06-01T14:05:48.000Z</time>
      </trkpt>
      <trkpt lat="43.3953" lon="3.65415">
        <ele>2.77</ele>
        <time>2019-06-01T14:05:57.000Z</time>
      </trkpt>
      <trkpt lat="43.39502" lon="3.65395">
        <ele>2.77</ele>
        <time>2019-06-01T14:06:02.000Z</time>
      </trkpt>
      <trkpt lat="43.39472" lon="3.65375">
        <ele>2.77</ele>
        <time>2019-06-01T14:06:07.000Z</time>
      </trkpt>
      <trkpt lat="43.39441" lon="3.65353">
        <ele>1.79</ele>
        <time>2019-06-01T14:06:12.000Z</time>
      </trkpt>
      <trkpt lat="43.39411" lon="3.65332">
        <ele>1.78</ele>
        <time>2019-06-01T14:06:17.000Z</time>
      </trkpt>
      <trkpt lat="43.39382" lon="3.65312">
        <ele>1.76</ele>
        <time>2019-06-01T14:06:23.000Z</time>
      </trkpt>
      <trkpt lat="43.39354" lon="3.65292">
        <ele>1.78</ele>
        <time>2019-06-01T14:06:28.000Z</time>
      </trkpt>
      <trkpt lat="43.39326" lon="3.65272">
        <ele>0.78</ele>
        <time>2019-06-01T14:06:33.000Z</time>
      </trkpt>
      <trkpt lat="43.39298" lon="3.65251">
        <ele>2.71</ele>
        <time>2019-06-01T14:06:38.000Z</time>
      </trkpt>
      <trkpt lat="43.39271" lon="3.65231">
        <ele>2.78</ele>
        <time>2019-06-01T14:06:43.000Z</time>
      </trkpt>
      <trkpt lat="43.39243" lon="3.65213">
        <ele>2.78</ele>
        <time>2019-06-01T14:06:48.000Z</time>
      </trkpt>
      <trkpt lat="43.39217" lon="3.65194">
        <ele>3.77</ele>
        <time>2019-06-01T14:06:53.000Z</time>
      </trkpt>
      <trkpt lat="43.39189" lon="3.65174">
        <ele>1.79</ele>
        <time>2019-06-01T14:06:58.000Z</time>
      </trkpt>
      <trkpt lat="43.39162" lon="3.65154">
        <ele>2.77</ele>
        <time>2019-06-01T14:07:03.000Z</time>
      </trkpt>
      <trkpt lat="43.39135" lon="3.65134">
        <ele>1.84</ele>
        <time>2019-06-01T14:07:08.000Z</time>
      </trkpt>
      <trkpt lat="43.39108" lon="3.65113">
        <ele>1.03</ele>
        <time>2019-06-01T14:07:13.000Z</time>
      </trkpt>
      <trkpt lat="43.39081" lon="3.65092">
        <ele>1.78</ele>
        <time>2019-06-01T14:07:18.000Z</time>
      </trkpt>
      <trkpt lat="43.39055" lon="3.65068">
        <ele>1.03</ele>
        <time>2019-06-01T14:07:23.000Z</time>
      </trkpt>
      <trkpt lat="43.39029" lon="3.65042">
        <ele>0.79</ele>
        <time>2019-06-01T14:07:28.000Z</time>
      </trkpt>
      <trkpt lat="43.39003" lon="3.65017">
        <ele>0.78</ele>
        <time>2019-06-01T14:07:33.000Z</time>
      </trkpt>
      <trkpt lat="43.38982" lon="3.64987">
        <ele>0.78</ele>
        <time>2019-06-01T14:07:38.000Z</time>
      </trkpt>
      <trkpt lat="43.38959" lon="3.65007">
        <ele>0.84</ele>
        <time>2019-06-01T14:07:43.000Z</time>
      </trkpt>
      <trkpt lat="43.38944" lon="3.6501">
        <ele>0.03</ele>
        <time>2019-06-01T14:07:48.000Z</time>
      </trkpt>
      <trkpt lat="43.38944" lon="3.65024">
        <ele>2.53</ele>
        <time>2019-06-01T14:07:53.000Z</time>
      </trkpt>
      <trkpt lat="43.38929" lon="3.6503">
        <ele>2.78</ele>
        <time>2019-06-01T14:07:58.000Z</time>
      </trkpt>
      <trkpt lat="43.38907" lon="3.65022">
        <ele>2.78</ele>
        <time>2019-06-01T14:08:03.000Z</time>
      </trkpt>
      <trkpt lat="43.38889" lon="3.65016">
        <ele>2.78</ele>
        <time>2019-06-01T14:08:08.000Z</time>
      </trkpt>
      <trkpt lat="43.38881" lon="3.64997">
        <ele>2.78</ele>
        <time>2019-06-01T14:08:13.000Z</time>
      </trkpt>
      <trkpt lat="43.38875" lon="3.64985">
        <ele>2.78</ele>
        <time>2019-06-01T14:08:18.000Z</time>
      </trkpt>
      <trkpt lat="43.38869" lon="3.6497">
        <ele>1.8</ele>
        <time>2019-06-01T14:08:23.000Z</time>
      </trkpt>
      <trkpt lat="43.38854" lon="3.64945">
        <ele>2.03</ele>
        <time>2019-06-01T14:08:28.000Z</time>
      </trkpt>
      <trkpt lat="43.38837" lon="3.64915">
        <ele>1.78</ele>
        <time>2019-06-01T14:08:33.000Z</time>
      </trkpt>
      <trkpt lat="43.38818" lon="3.64881">
        <ele>1.78</ele>
        <time>2019-06-01T14:08:38.000Z</time>
      </trkpt>
      <trkpt lat="43.388" lon="3.64846">
        <ele>0.79</ele>
        <time>2019-06-01T14:08:43.000Z</time>
      </trkpt>
      <trkpt lat="43.38778" lon="3.64813">
        <ele>0.78</ele>
        <time>2019-06-01T14:08:48.000Z</time>
      </trkpt>
      <trkpt lat="43.38755" lon="3.64783">
        <ele>0.78</ele>
        <time>2019-06-01T14:08:53.000Z</time>
      </trkpt>
      <trkpt lat="43.3873" lon="3.64755">
        <ele>0.78</ele>
        <time>2019-06-01T14:08:58.000Z</time>
      </trkpt>
      <trkpt lat="43.38709" lon="3.64721">
        <ele>1.53</ele>
        <time>2019-06-01T14:09:03.000Z</time>
      </trkpt>
      <trkpt lat="43.38687" lon="3.64687">
        <ele>0.79</ele>
        <time>2019-06-01T14:09:08.000Z</time>
      </trkpt>
      <trkpt lat="43.38664" lon="3.64652">
        <ele>1.72</ele>
        <time>2019-06-01T14:09:13.000Z</time>
      </trkpt>
      <trkpt lat="43.38642" lon="3.64615">
        <ele>1.78</ele>
        <time>2019-06-01T14:09:18.000Z</time>
      </trkpt>
      <trkpt lat="43.38619" lon="3.6458">
        <ele>1.74</ele>
        <time>2019-06-01T14:09:23.000Z</time>
      </trkpt>
      <trkpt lat="43.38596" lon="3.64544">
        <ele>1.78</ele>
        <time>2019-06-01T14:09:28.000Z</time>
      </trkpt>
      <trkpt lat="43.38574" lon="3.64508">
        <ele>1.78</ele>
        <time>2019-06-01T14:09:33.000Z</time>
      </trkpt>
      <trkpt lat="43.38553" lon="3.64473">
        <ele>1.78</ele>
        <time>2019-06-01T14:09:38.000Z</time>
      </trkpt>
      <trkpt lat="43.38531" lon="3.64439">
        <ele>0.85</ele>
        <time>2019-06-01T14:09:43.000Z</time>
      </trkpt>
      <trkpt lat="43.38509" lon="3.64403">
        <ele>0.78</ele>
        <time>2019-06-01T14:09:48.000Z</time>
      </trkpt>
      <trkpt lat="43.38487" lon="3.64368">
        <ele>1.77</ele>
        <time>2019-06-01T14:09:53.000Z</time>
      </trkpt>
      <trkpt lat="43.38465" lon="3.64332">
        <ele>1.54</ele>
        <time>2019-06-01T14:09:58.000Z</time>
      </trkpt>
      <trkpt lat="43.38444" lon="3.64297">
        <ele>1.78</ele>
        <time>2019-06-01T14:10:03.000Z</time>
      </trkpt>
      <trkpt lat="43.38421" lon="3.64262">
        <ele>0.85</ele>
        <time>2019-06-01T14:10:08.000Z</time>
      </trkpt>
      <trkpt lat="43.384" lon="3.64226">
        <ele>1.03</ele>
        <time>2019-06-01T14:10:13.000Z</time>
      </trkpt>
      <trkpt lat="43.38378" lon="3.64191">
        <ele>1.78</ele>
        <time>2019-06-01T14:10:18.000Z</time>
      </trkpt>
      <trkpt lat="43.38355" lon="3.64157">
        <ele>0.79</ele>
        <time>2019-06-01T14:10:23.000Z</time>
      </trkpt>
      <trkpt lat="43.38335" lon="3.64126">
        <ele>0.79</ele>
        <time>2019-06-01T14:10:28.000Z</time>
      </trkpt>
      <trkpt lat="43.38323" lon="3.64103">
        <ele>0.79</ele>
        <time>2019-06-01T14:10:33.000Z</time>
      </trkpt>
      <trkpt lat="43.3831" lon="3.64082">
        <ele>0.79</ele>
        <time>2019-06-01T14:10:38.000Z</time>
      </trkpt>
      <trkpt lat="43.38293" lon="3.64054">
        <ele>0.79</ele>
        <time>2019-06-01T14:10:43.000Z</time>
      </trkpt>
      <trkpt lat="43.38273" lon="3.64023">
        <ele>0.79</ele>
        <time>2019-06-01T14:10:48.000Z</time>
      </trkpt>
      <trkpt lat="43.38253" lon="3.63991">
        <ele>1.77</ele>
        <time>2019-06-01T14:10:53.000Z</time>
      </trkpt>
      <trkpt lat="43.38232" lon="3.63958">
        <ele>0.85</ele>
        <time>2019-06-01T14:10:58.000Z</time>
      </trkpt>
      <trkpt lat="43.38211" lon="3.63923">
        <ele>0.79</ele>
        <time>2019-06-01T14:11:03.000Z</time>
      </trkpt>
      <trkpt lat="43.38189" lon="3.63889">
        <ele>0.79</ele>
        <time>2019-06-01T14:11:08.000Z</time>
      </trkpt>
      <trkpt lat="43.38167" lon="3.63854">
        <ele>1.02</ele>
        <time>2019-06-01T14:11:13.000Z</time>
      </trkpt>
      <trkpt lat="43.38146" lon="3.63819">
        <ele>1.77</ele>
        <time>2019-06-01T14:11:18.000Z</time>
      </trkpt>
      <trkpt lat="43.38124" lon="3.63784">
        <ele>1.79</ele>
        <time>2019-06-01T14:11:23.000Z</time>
      </trkpt>
      <trkpt lat="43.38102" lon="3.63749">
        <ele>1.79</ele>
        <time>2019-06-01T14:11:28.000Z</time>
      </trkpt>
      <trkpt lat="43.38081" lon="3.63715">
        <ele>1.79</ele>
        <time>2019-06-01T14:11:33.000Z</time>
      </trkpt>
      <trkpt lat="43.38059" lon="3.6368">
        <ele>1.79</ele>
        <time>2019-06-01T14:11:38.000Z</time>
      </trkpt>
      <trkpt lat="43.38037" lon="3.63645">
        <ele>1.79</ele>
        <time>2019-06-01T14:11:43.000Z</time>
      </trkpt>
      <trkpt lat="43.38015" lon="3.6361">
        <ele>1.79</ele>
        <time>2019-06-01T14:11:48.000Z</time>
      </trkpt>
      <trkpt lat="43.37993" lon="3.63574">
        <ele>1.79</ele>
        <time>2019-06-01T14:11:53.000Z</time>
      </trkpt>
      <trkpt lat="43.37972" lon="3.6354">
        <ele>1.79</ele>
        <time>2019-06-01T14:11:58.000Z</time>
      </trkpt>
      <trkpt lat="43.3795" lon="3.63507">
        <ele>1.79</ele>
        <time>2019-06-01T14:12:03.000Z</time>
      </trkpt>
      <trkpt lat="43.37928" lon="3.63473">
        <ele>1.79</ele>
        <time>2019-06-01T14:12:08.000Z</time>
      </trkpt>
      <trkpt lat="43.37907" lon="3.63439">
        <ele>1.79</ele>
        <time>2019-06-01T14:12:13.000Z</time>
      </trkpt>
      <trkpt lat="43.37887" lon="3.63406">
        <ele>2.03</ele>
        <time>2019-06-01T14:12:18.000Z</time>
      </trkpt>
      <trkpt lat="43.37865" lon="3.6337">
        <ele>2.04</ele>
        <time>2019-06-01T14:12:23.000Z</time>
      </trkpt>
      <trkpt lat="43.37843" lon="3.63335">
        <ele>1.79</ele>
        <time>2019-06-01T14:12:28.000Z</time>
      </trkpt>
      <trkpt lat="43.37821" lon="3.63301">
        <ele>1.79</ele>
        <time>2019-06-01T14:12:33.000Z</time>
      </trkpt>
      <trkpt lat="43.378" lon="3.63267">
        <ele>0.85</ele>
        <time>2019-06-01T14:12:38.000Z</time>
      </trkpt>
      <trkpt lat="43.37779" lon="3.63235">
        <ele>0.79</ele>
        <time>2019-06-01T14:12:43.000Z</time>
      </trkpt>
      <trkpt lat="43.37757" lon="3.63202">
        <ele>0.79</ele>
        <time>2019-06-01T14:12:48.000Z</time>
      </trkpt>
      <trkpt lat="43.37734" lon="3.63169">
        <ele>1.77</ele>
        <time>2019-06-01T14:12:53.000Z</time>
      </trkpt>
      <trkpt lat="43.37713" lon="3.63134">
        <ele>2.54</ele>
        <time>2019-06-01T14:12:58.000Z</time>
      </trkpt>
      <trkpt lat="43.37691" lon="3.63102">
        <ele>2.79</ele>
        <time>2019-06-01T14:13:03.000Z</time>
      </trkpt>
      <trkpt lat="43.37671" lon="3.6307">
        <ele>2.79</ele>
        <time>2019-06-01T14:13:08.000Z</time>
      </trkpt>
      <trkpt lat="43.37649" lon="3.63038">
        <ele>2.79</ele>
        <time>2019-06-01T14:13:13.000Z</time>
      </trkpt>
      <trkpt lat="43.37628" lon="3.63005">
        <ele>1.79</ele>
        <time>2019-06-01T14:13:18.000Z</time>
      </trkpt>
      <trkpt lat="43.37608" lon="3.62974">
        <ele>1.79</ele>
        <time>2019-06-01T14:13:23.000Z</time>
      </trkpt>
      <trkpt lat="43.37592" lon="3.62947">
        <ele>1.04</ele>
        <time>2019-06-01T14:13:28.000Z</time>
      </trkpt>
      <trkpt lat="43.37575" lon="3.62919">
        <ele>1.6</ele>
        <time>2019-06-01T14:13:33.000Z</time>
      </trkpt>
      <trkpt lat="43.37558" lon="3.6289">
        <ele>0.79</ele>
        <time>2019-06-01T14:13:38.000Z</time>
      </trkpt>
      <trkpt lat="43.3754" lon="3.62864">
        <ele>0.79</ele>
        <time>2019-06-01T14:13:43.000Z</time>
      </trkpt>
      <trkpt lat="43.37519" lon="3.62839">
        <ele>0.79</ele>
        <time>2019-06-01T14:13:48.000Z</time>
      </trkpt>
      <trkpt lat="43.37499" lon="3.62812">
        <ele>0.79</ele>
        <time>2019-06-01T14:13:53.000Z</time>
      </trkpt>
      <trkpt lat="43.37475" lon="3.62779">
        <ele>1.54</ele>
        <time>2019-06-01T14:13:58.000Z</time>
      </trkpt>
      <trkpt lat="43.37452" lon="3.62746">
        <ele>1.79</ele>
        <time>2019-06-01T14:14:03.000Z</time>
      </trkpt>
      <trkpt lat="43.37429" lon="3.62712">
        <ele>1.79</ele>
        <time>2019-06-01T14:14:08.000Z</time>
      </trkpt>
      <trkpt lat="43.37406" lon="3.62677">
        <ele>1.79</ele>
        <time>2019-06-01T14:14:13.000Z</time>
      </trkpt>
      <trkpt lat="43.37383" lon="3.62643">
        <ele>1.79</ele>
        <time>2019-06-01T14:14:18.000Z</time>
      </trkpt>
      <trkpt lat="43.37361" lon="3.62609">
        <ele>1.79</ele>
        <time>2019-06-01T14:14:23.000Z</time>
      </trkpt>
      <trkpt lat="43.37337" lon="3.62575">
        <ele>1.79</ele>
        <time>2019-06-01T14:14:28.000Z</time>
      </trkpt>
      <trkpt lat="43.37314" lon="3.62543">
        <ele>1.04</ele>
        <time>2019-06-01T14:14:33.000Z</time>
      </trkpt>
      <trkpt lat="43.37291" lon="3.6251">
        <ele>1.59</ele>
        <time>2019-06-01T14:14:38.000Z</time>
      </trkpt>
      <trkpt lat="43.37269" lon="3.62479">
        <ele>1.79</ele>
        <time>2019-06-01T14:14:43.000Z</time>
      </trkpt>
      <trkpt lat="43.37246" lon="3.62446">
        <ele>1.79</ele>
        <time>2019-06-01T14:14:48.000Z</time>
      </trkpt>
      <trkpt lat="43.37223" lon="3.62414">
        <ele>1.79</ele>
        <time>2019-06-01T14:14:53.000Z</time>
      </trkpt>
      <trkpt lat="43.37201" lon="3.6238">
        <ele>0.86</ele>
        <time>2019-06-01T14:14:58.000Z</time>
      </trkpt>
      <trkpt lat="43.37178" lon="3.62347">
        <ele>0.79</ele>
        <time>2019-06-01T14:15:03.000Z</time>
      </trkpt>
      <trkpt lat="43.37155" lon="3.62316">
        <ele>0.79</ele>
        <time>2019-06-01T14:15:08.000Z</time>
      </trkpt>
      <trkpt lat="43.37133" lon="3.62284">
        <ele>0.79</ele>
        <time>2019-06-01T14:15:13.000Z</time>
      </trkpt>
      <trkpt lat="43.37111" lon="3.62252">
        <ele>0.79</ele>
        <time>2019-06-01T14:15:18.000Z</time>
      </trkpt>
      <trkpt lat="43.37088" lon="3.6222">
        <ele>1.79</ele>
        <time>2019-06-01T14:15:23.000Z</time>
      </trkpt>
      <trkpt lat="43.37066" lon="3.62187">
        <ele>1.03</ele>
        <time>2019-06-01T14:15:28.000Z</time>
      </trkpt>
      <trkpt lat="43.37043" lon="3.62155">
        <ele>1.79</ele>
        <time>2019-06-01T14:15:33.000Z</time>
      </trkpt>
      <trkpt lat="43.3702" lon="3.6212">
        <ele>1.8</ele>
        <time>2019-06-01T14:15:38.000Z</time>
      </trkpt>
      <trkpt lat="43.36996" lon="3.62088">
        <ele>1.8</ele>
        <time>2019-06-01T14:15:43.000Z</time>
      </trkpt>
      <trkpt lat="43.36972" lon="3.62057">
        <ele>2.73</ele>
        <time>2019-06-01T14:15:48.000Z</time>
      </trkpt>
      <trkpt lat="43.3695" lon="3.62026">
        <ele>1.8</ele>
        <time>2019-06-01T14:15:53.000Z</time>
      </trkpt>
      <trkpt lat="43.36928" lon="3.61994">
        <ele>1.8</ele>
        <time>2019-06-01T14:15:58.000Z</time>
      </trkpt>
      <trkpt lat="43.36907" lon="3.61961">
        <ele>1.8</ele>
        <time>2019-06-01T14:16:03.000Z</time>
      </trkpt>
      <trkpt lat="43.36885" lon="3.61928">
        <ele>1.8</ele>
        <time>2019-06-01T14:16:08.000Z</time>
      </trkpt>
      <trkpt lat="43.36862" lon="3.61896">
        <ele>1.8</ele>
        <time>2019-06-01T14:16:13.000Z</time>
      </trkpt>
      <trkpt lat="43.36837" lon="3.61868">
        <ele>1.8</ele>
        <time>2019-06-01T14:16:18.000Z</time>
      </trkpt>
      <trkpt lat="43.36811" lon="3.61838">
        <ele>1.8</ele>
        <time>2019-06-01T14:16:23.000Z</time>
      </trkpt>
      <trkpt lat="43.36789" lon="3.61807">
        <ele>1.81</ele>
        <time>2019-06-01T14:16:28.000Z</time>
      </trkpt>
      <trkpt lat="43.36769" lon="3.61775">
        <ele>2.78</ele>
        <time>2019-06-01T14:16:33.000Z</time>
      </trkpt>
      <trkpt lat="43.36746" lon="3.61743">
        <ele>2.8</ele>
        <time>2019-06-01T14:16:38.000Z</time>
      </trkpt>
      <trkpt lat="43.36722" lon="3.61715">
        <ele>2.8</ele>
        <time>2019-06-01T14:16:43.000Z</time>
      </trkpt>
      <trkpt lat="43.367" lon="3.61685">
        <ele>2.61</ele>
        <time>2019-06-01T14:16:48.000Z</time>
      </trkpt>
      <trkpt lat="43.36681" lon="3.61655">
        <ele>1.8</ele>
        <time>2019-06-01T14:16:53.000Z</time>
      </trkpt>
      <trkpt lat="43.3666" lon="3.61623">
        <ele>1.8</ele>
        <time>2019-06-01T14:16:58.000Z</time>
      </trkpt>
      <trkpt lat="43.36636" lon="3.61597">
        <ele>1.8</ele>
        <time>2019-06-01T14:17:03.000Z</time>
      </trkpt>
      <trkpt lat="43.36615" lon="3.61569">
        <ele>1.8</ele>
        <time>2019-06-01T14:17:08.000Z</time>
      </trkpt>
      <trkpt lat="43.366" lon="3.61538">
        <ele>2.55</ele>
        <time>2019-06-01T14:17:13.000Z</time>
      </trkpt>
      <trkpt lat="43.36581" lon="3.61507">
        <ele>1.8</ele>
        <time>2019-06-01T14:17:18.000Z</time>
      </trkpt>
      <trkpt lat="43.3656" lon="3.61476">
        <ele>2.74</ele>
        <time>2019-06-01T14:17:23.000Z</time>
      </trkpt>
      <trkpt lat="43.36539" lon="3.61445">
        <ele>2.57</ele>
        <time>2019-06-01T14:17:28.000Z</time>
      </trkpt>
      <trkpt lat="43.3652" lon="3.61412">
        <ele>1.8</ele>
        <time>2019-06-01T14:17:33.000Z</time>
      </trkpt>
      <trkpt lat="43.36502" lon="3.61378">
        <ele>0.82</ele>
        <time>2019-06-01T14:17:38.000Z</time>
      </trkpt>
      <trkpt lat="43.36484" lon="3.61343">
        <ele>0.99</ele>
        <time>2019-06-01T14:17:43.000Z</time>
      </trkpt>
      <trkpt lat="43.36464" lon="3.61312">
        <ele>1.57</ele>
        <time>2019-06-01T14:17:48.000Z</time>
      </trkpt>
      <trkpt lat="43.36443" lon="3.61279">
        <ele>0.8</ele>
        <time>2019-06-01T14:17:53.000Z</time>
      </trkpt>
      <trkpt lat="43.36423" lon="3.61247">
        <ele>1.55</ele>
        <time>2019-06-01T14:17:58.000Z</time>
      </trkpt>
      <trkpt lat="43.36403" lon="3.61213">
        <ele>1.8</ele>
        <time>2019-06-01T14:18:03.000Z</time>
      </trkpt>
      <trkpt lat="43.36383" lon="3.61181">
        <ele>1.8</ele>
        <time>2019-06-01T14:18:08.000Z</time>
      </trkpt>
      <trkpt lat="43.36363" lon="3.61148">
        <ele>2.74</ele>
        <time>2019-06-01T14:18:13.000Z</time>
      </trkpt>
      <trkpt lat="43.36342" lon="3.61117">
        <ele>2.05</ele>
        <time>2019-06-01T14:18:18.000Z</time>
      </trkpt>
      <trkpt lat="43.36321" lon="3.61085">
        <ele>1.8</ele>
        <time>2019-06-01T14:18:23.000Z</time>
      </trkpt>
      <trkpt lat="43.36302" lon="3.61053">
        <ele>1.75</ele>
        <time>2019-06-01T14:18:28.000Z</time>
      </trkpt>
      <trkpt lat="43.36282" lon="3.6102">
        <ele>1.8</ele>
        <time>2019-06-01T14:18:33.000Z</time>
      </trkpt>
      <trkpt lat="43.36262" lon="3.60988">
        <ele>1.05</ele>
        <time>2019-06-01T14:18:38.000Z</time>
      </trkpt>
      <trkpt lat="43.36242" lon="3.60955">
        <ele>0.86</ele>
        <time>2019-06-01T14:18:43.000Z</time>
      </trkpt>
      <trkpt lat="43.36222" lon="3.60922">
        <ele>0.8</ele>
        <time>2019-06-01T14:18:48.000Z</time>
      </trkpt>
      <trkpt lat="43.36202" lon="3.60889">
        <ele>0.8</ele>
        <time>2019-06-01T14:18:53.000Z</time>
      </trkpt>
      <trkpt lat="43.36182" lon="3.60856">
        <ele>1.74</ele>
        <time>2019-06-01T14:18:58.000Z</time>
      </trkpt>
      <trkpt lat="43.36161" lon="3.60824">
        <ele>1.8</ele>
        <time>2019-06-01T14:19:03.000Z</time>
      </trkpt>
      <trkpt lat="43.36141" lon="3.60793">
        <ele>0.8</ele>
        <time>2019-06-01T14:19:08.000Z</time>
      </trkpt>
      <trkpt lat="43.36121" lon="3.6076">
        <ele>1.04</ele>
        <time>2019-06-01T14:19:13.000Z</time>
      </trkpt>
      <trkpt lat="43.36101" lon="3.60728">
        <ele>1.8</ele>
        <time>2019-06-01T14:19:18.000Z</time>
      </trkpt>
      <trkpt lat="43.36079" lon="3.607">
        <ele>2.55</ele>
        <time>2019-06-01T14:19:23.000Z</time>
      </trkpt>
      <trkpt lat="43.36052" lon="3.60708">
        <ele>2.04</ele>
        <time>2019-06-01T14:19:28.000Z</time>
      </trkpt>
      <trkpt lat="43.3603" lon="3.60717">
        <ele>2.74</ele>
        <time>2019-06-01T14:19:33.000Z</time>
      </trkpt>
      <trkpt lat="43.36012" lon="3.60692">
        <ele>1.87</ele>
        <time>2019-06-01T14:19:38.000Z</time>
      </trkpt>
      <trkpt lat="43.35993" lon="3.60661">
        <ele>2.55</ele>
        <time>2019-06-01T14:19:43.000Z</time>
      </trkpt>
      <trkpt lat="43.35974" lon="3.6063">
        <ele>2.8</ele>
        <time>2019-06-01T14:19:48.000Z</time>
      </trkpt>
      <trkpt lat="43.35955" lon="3.60598">
        <ele>3.74</ele>
        <time>2019-06-01T14:19:53.000Z</time>
      </trkpt>
      <trkpt lat="43.35935" lon="3.60565">
        <ele>3.56</ele>
        <time>2019-06-01T14:19:58.000Z</time>
      </trkpt>
      <trkpt lat="43.35917" lon="3.60536">
        <ele>3.8</ele>
        <time>2019-06-01T14:20:03.000Z</time>
      </trkpt>
      <trkpt lat="43.35896" lon="3.60503">
        <ele>2.81</ele>
        <time>2019-06-01T14:20:08.000Z</time>
      </trkpt>
      <trkpt lat="43.35874" lon="3.60468">
        <ele>2.81</ele>
        <time>2019-06-01T14:20:13.000Z</time>
      </trkpt>
      <trkpt lat="43.35854" lon="3.60434">
        <ele>2.81</ele>
        <time>2019-06-01T14:20:18.000Z</time>
      </trkpt>
      <trkpt lat="43.35833" lon="3.60402">
        <ele>1.81</ele>
        <time>2019-06-01T14:20:23.000Z</time>
      </trkpt>
      <trkpt lat="43.35811" lon="3.60372">
        <ele>2.01</ele>
        <time>2019-06-01T14:20:28.000Z</time>
      </trkpt>
      <trkpt lat="43.35782" lon="3.60369">
        <ele>1.81</ele>
        <time>2019-06-01T14:20:33.000Z</time>
      </trkpt>
      <trkpt lat="43.35762" lon="3.60341">
        <ele>2.8</ele>
        <time>2019-06-01T14:20:38.000Z</time>
      </trkpt>
      <trkpt lat="43.35744" lon="3.60312">
        <ele>2.81</ele>
        <time>2019-06-01T14:20:43.000Z</time>
      </trkpt>
      <trkpt lat="43.35725" lon="3.60282">
        <ele>2.81</ele>
        <time>2019-06-01T14:20:48.000Z</time>
      </trkpt>
      <trkpt lat="43.35705" lon="3.60251">
        <ele>2.75</ele>
        <time>2019-06-01T14:20:53.000Z</time>
      </trkpt>
      <trkpt lat="43.35684" lon="3.60218">
        <ele>2.81</ele>
        <time>2019-06-01T14:20:58.000Z</time>
      </trkpt>
      <trkpt lat="43.35664" lon="3.60186">
        <ele>2</ele>
        <time>2019-06-01T14:21:03.000Z</time>
      </trkpt>
      <trkpt lat="43.35644" lon="3.60155">
        <ele>1.81</ele>
        <time>2019-06-01T14:21:08.000Z</time>
      </trkpt>
      <trkpt lat="43.35621" lon="3.60128">
        <ele>3.56</ele>
        <time>2019-06-01T14:21:13.000Z</time>
      </trkpt>
      <trkpt lat="43.35598" lon="3.60104">
        <ele>2.82</ele>
        <time>2019-06-01T14:21:18.000Z</time>
      </trkpt>
      <trkpt lat="43.35578" lon="3.60075">
        <ele>2.81</ele>
        <time>2019-06-01T14:21:23.000Z</time>
      </trkpt>
      <trkpt lat="43.35558" lon="3.60045">
        <ele>2.81</ele>
        <time>2019-06-01T14:21:28.000Z</time>
      </trkpt>
      <trkpt lat="43.35537" lon="3.60013">
        <ele>1.81</ele>
        <time>2019-06-01T14:21:33.000Z</time>
      </trkpt>
      <trkpt lat="43.35513" lon="3.59984">
        <ele>2.56</ele>
        <time>2019-06-01T14:21:38.000Z</time>
      </trkpt>
      <trkpt lat="43.35482" lon="3.59976">
        <ele>1.87</ele>
        <time>2019-06-01T14:21:43.000Z</time>
      </trkpt>
      <trkpt lat="43.35462" lon="3.59945">
        <ele>1.81</ele>
        <time>2019-06-01T14:21:48.000Z</time>
      </trkpt>
      <trkpt lat="43.35441" lon="3.59912">
        <ele>2</ele>
        <time>2019-06-01T14:21:53.000Z</time>
      </trkpt>
      <trkpt lat="43.35422" lon="3.59881">
        <ele>2.81</ele>
        <time>2019-06-01T14:21:58.000Z</time>
      </trkpt>
      <trkpt lat="43.35402" lon="3.5985">
        <ele>2.06</ele>
        <time>2019-06-01T14:22:03.000Z</time>
      </trkpt>
      <trkpt lat="43.35382" lon="3.59817">
        <ele>1.81</ele>
        <time>2019-06-01T14:22:08.000Z</time>
      </trkpt>
      <trkpt lat="43.3536" lon="3.59783">
        <ele>1.81</ele>
        <time>2019-06-01T14:22:13.000Z</time>
      </trkpt>
      <trkpt lat="43.35335" lon="3.59761">
        <ele>3.73</ele>
        <time>2019-06-01T14:22:18.000Z</time>
      </trkpt>
      <trkpt lat="43.35313" lon="3.59743">
        <ele>3.81</ele>
        <time>2019-06-01T14:22:23.000Z</time>
      </trkpt>
      <trkpt lat="43.35296" lon="3.59712">
        <ele>2.87</ele>
        <time>2019-06-01T14:22:28.000Z</time>
      </trkpt>
      <trkpt lat="43.35275" lon="3.59679">
        <ele>1.83</ele>
        <time>2019-06-01T14:22:33.000Z</time>
      </trkpt>
      <trkpt lat="43.35255" lon="3.59649">
        <ele>2.81</ele>
        <time>2019-06-01T14:22:38.000Z</time>
      </trkpt>
      <trkpt lat="43.35235" lon="3.59619">
        <ele>2.81</ele>
        <time>2019-06-01T14:22:43.000Z</time>
      </trkpt>
      <trkpt lat="43.35214" lon="3.59587">
        <ele>2.81</ele>
        <time>2019-06-01T14:22:48.000Z</time>
      </trkpt>
      <trkpt lat="43.35193" lon="3.59549">
        <ele>1.81</ele>
        <time>2019-06-01T14:22:53.000Z</time>
      </trkpt>
      <trkpt lat="43.35173" lon="3.59513">
        <ele>1.58</ele>
        <time>2019-06-01T14:22:58.000Z</time>
      </trkpt>
      <trkpt lat="43.35152" lon="3.59479">
        <ele>1.05</ele>
        <time>2019-06-01T14:23:03.000Z</time>
      </trkpt>
      <trkpt lat="43.35131" lon="3.59448">
        <ele>0.81</ele>
        <time>2019-06-01T14:23:08.000Z</time>
      </trkpt>
      <trkpt lat="43.35103" lon="3.59428">
        <ele>2</ele>
        <time>2019-06-01T14:23:13.000Z</time>
      </trkpt>
      <trkpt lat="43.35083" lon="3.59396">
        <ele>2</ele>
        <time>2019-06-01T14:23:18.000Z</time>
      </trkpt>
      <trkpt lat="43.35062" lon="3.59364">
        <ele>1</ele>
        <time>2019-06-01T14:23:23.000Z</time>
      </trkpt>
      <trkpt lat="43.35039" lon="3.59336">
        <ele>1</ele>
        <time>2019-06-01T14:23:28.000Z</time>
      </trkpt>
      <trkpt lat="43.35013" lon="3.59312">
        <ele>1</ele>
        <time>2019-06-01T14:23:33.000Z</time>
      </trkpt>
      <trkpt lat="43.34992" lon="3.59279">
        <ele>2</ele>
        <time>2019-06-01T14:23:38.000Z</time>
      </trkpt>
      <trkpt lat="43.34969" lon="3.5925">
        <ele>0.56</ele>
        <time>2019-06-01T14:23:43.000Z</time>
      </trkpt>
      <trkpt lat="43.34943" lon="3.59231">
        <ele>0.81</ele>
        <time>2019-06-01T14:23:48.000Z</time>
      </trkpt>
      <trkpt lat="43.34923" lon="3.592">
        <ele>2</ele>
        <time>2019-06-01T14:23:53.000Z</time>
      </trkpt>
      <trkpt lat="43.34903" lon="3.59168">
        <ele>2</ele>
        <time>2019-06-01T14:23:58.000Z</time>
      </trkpt>
      <trkpt lat="43.34881" lon="3.59134">
        <ele>2</ele>
        <time>2019-06-01T14:24:03.000Z</time>
      </trkpt>
      <trkpt lat="43.34862" lon="3.59103">
        <ele>2</ele>
        <time>2019-06-01T14:24:08.000Z</time>
      </trkpt>
      <trkpt lat="43.34844" lon="3.59073">
        <ele>1</ele>
        <time>2019-06-01T14:24:13.000Z</time>
      </trkpt>
      <trkpt lat="43.34818" lon="3.59058">
        <ele>1</ele>
        <time>2019-06-01T14:24:18.000Z</time>
      </trkpt>
      <trkpt lat="43.34794" lon="3.59034">
        <ele>2</ele>
        <time>2019-06-01T14:24:23.000Z</time>
      </trkpt>
      <trkpt lat="43.34767" lon="3.59032">
        <ele>2</ele>
        <time>2019-06-01T14:24:28.000Z</time>
      </trkpt>
      <trkpt lat="43.3475" lon="3.59055">
        <ele>2</ele>
        <time>2019-06-01T14:24:33.000Z</time>
      </trkpt>
      <trkpt lat="43.34732" lon="3.59063">
        <ele>2</ele>
        <time>2019-06-01T14:24:38.000Z</time>
      </trkpt>
      <trkpt lat="43.34712" lon="3.59048">
        <ele>2</ele>
        <time>2019-06-01T14:24:43.000Z</time>
      </trkpt>
      <trkpt lat="43.34693" lon="3.59024">
        <ele>1.07</ele>
        <time>2019-06-01T14:24:48.000Z</time>
      </trkpt>
      <trkpt lat="43.34673" lon="3.58998">
        <ele>1.8</ele>
        <time>2019-06-01T14:24:53.000Z</time>
      </trkpt>
      <trkpt lat="43.34653" lon="3.58972">
        <ele>1.82</ele>
        <time>2019-06-01T14:24:58.000Z</time>
      </trkpt>
      <trkpt lat="43.34633" lon="3.58946">
        <ele>2.05</ele>
        <time>2019-06-01T14:25:03.000Z</time>
      </trkpt>
      <trkpt lat="43.34612" lon="3.5892">
        <ele>2.01</ele>
        <time>2019-06-01T14:25:08.000Z</time>
      </trkpt>
      <trkpt lat="43.3459" lon="3.58893">
        <ele>2.77</ele>
        <time>2019-06-01T14:25:13.000Z</time>
      </trkpt>
      <trkpt lat="43.34567" lon="3.58866">
        <ele>3.76</ele>
        <time>2019-06-01T14:25:18.000Z</time>
      </trkpt>
      <trkpt lat="43.34545" lon="3.58839">
        <ele>3.81</ele>
        <time>2019-06-01T14:25:23.000Z</time>
      </trkpt>
      <trkpt lat="43.34524" lon="3.58811">
        <ele>3.82</ele>
        <time>2019-06-01T14:25:28.000Z</time>
      </trkpt>
      <trkpt lat="43.34502" lon="3.58782">
        <ele>2.88</ele>
        <time>2019-06-01T14:25:33.000Z</time>
      </trkpt>
      <trkpt lat="43.3448" lon="3.58755">
        <ele>3.07</ele>
        <time>2019-06-01T14:25:38.000Z</time>
      </trkpt>
      <trkpt lat="43.34459" lon="3.58727">
        <ele>3.05</ele>
        <time>2019-06-01T14:25:43.000Z</time>
      </trkpt>
      <trkpt lat="43.34436" lon="3.58699">
        <ele>3.82</ele>
        <time>2019-06-01T14:25:48.000Z</time>
      </trkpt>
      <trkpt lat="43.34415" lon="3.58671">
        <ele>4.76</ele>
        <time>2019-06-01T14:25:53.000Z</time>
      </trkpt>
      <trkpt lat="43.34392" lon="3.58644">
        <ele>3.82</ele>
        <time>2019-06-01T14:25:58.000Z</time>
      </trkpt>
      <trkpt lat="43.3437" lon="3.58616">
        <ele>3.82</ele>
        <time>2019-06-01T14:26:03.000Z</time>
      </trkpt>
      <trkpt lat="43.34347" lon="3.5859">
        <ele>1.88</ele>
        <time>2019-06-01T14:26:08.000Z</time>
      </trkpt>
      <trkpt lat="43.34325" lon="3.58562">
        <ele>1.82</ele>
        <time>2019-06-01T14:26:13.000Z</time>
      </trkpt>
      <trkpt lat="43.34302" lon="3.58534">
        <ele>1.82</ele>
        <time>2019-06-01T14:26:18.000Z</time>
      </trkpt>
      <trkpt lat="43.34279" lon="3.58508">
        <ele>1.63</ele>
        <time>2019-06-01T14:26:23.000Z</time>
      </trkpt>
      <trkpt lat="43.34258" lon="3.5848">
        <ele>1.62</ele>
        <time>2019-06-01T14:26:28.000Z</time>
      </trkpt>
      <trkpt lat="43.34236" lon="3.58454">
        <ele>1.82</ele>
        <time>2019-06-01T14:26:33.000Z</time>
      </trkpt>
      <trkpt lat="43.34215" lon="3.58426">
        <ele>2.81</ele>
        <time>2019-06-01T14:26:38.000Z</time>
      </trkpt>
      <trkpt lat="43.34193" lon="3.58399">
        <ele>2.82</ele>
        <time>2019-06-01T14:26:43.000Z</time>
      </trkpt>
      <trkpt lat="43.34172" lon="3.58372">
        <ele>3.62</ele>
        <time>2019-06-01T14:26:48.000Z</time>
      </trkpt>
      <trkpt lat="43.34147" lon="3.58343">
        <ele>3.06</ele>
        <time>2019-06-01T14:26:53.000Z</time>
      </trkpt>
      <trkpt lat="43.34124" lon="3.58316">
        <ele>2.84</ele>
        <time>2019-06-01T14:26:58.000Z</time>
      </trkpt>
      <trkpt lat="43.34102" lon="3.58288">
        <ele>2.82</ele>
        <time>2019-06-01T14:27:03.000Z</time>
      </trkpt>
      <trkpt lat="43.34079" lon="3.58262">
        <ele>2.83</ele>
        <time>2019-06-01T14:27:08.000Z</time>
      </trkpt>
      <trkpt lat="43.34058" lon="3.58235">
        <ele>2.82</ele>
        <time>2019-06-01T14:27:13.000Z</time>
      </trkpt>
      <trkpt lat="43.34036" lon="3.58209">
        <ele>2.82</ele>
        <time>2019-06-01T14:27:18.000Z</time>
      </trkpt>
      <trkpt lat="43.34015" lon="3.58186">
        <ele>1.83</ele>
        <time>2019-06-01T14:27:23.000Z</time>
      </trkpt>
      <trkpt lat="43.33995" lon="3.58161">
        <ele>0.83</ele>
        <time>2019-06-01T14:27:28.000Z</time>
      </trkpt>
      <trkpt lat="43.33973" lon="3.58133">
        <ele>1.06</ele>
        <time>2019-06-01T14:27:33.000Z</time>
      </trkpt>
      <trkpt lat="43.33952" lon="3.58106">
        <ele>0.87</ele>
        <time>2019-06-01T14:27:38.000Z</time>
      </trkpt>
      <trkpt lat="43.33931" lon="3.5808">
        <ele>1.76</ele>
        <time>2019-06-01T14:27:43.000Z</time>
      </trkpt>
      <trkpt lat="43.33911" lon="3.58055">
        <ele>1.83</ele>
        <time>2019-06-01T14:27:48.000Z</time>
      </trkpt>
      <trkpt lat="43.3389" lon="3.5803">
        <ele>1.83</ele>
        <time>2019-06-01T14:27:53.000Z</time>
      </trkpt>
      <trkpt lat="43.33868" lon="3.58006">
        <ele>1.08</ele>
        <time>2019-06-01T14:27:58.000Z</time>
      </trkpt>
      <trkpt lat="43.33847" lon="3.57981">
        <ele>0.83</ele>
        <time>2019-06-01T14:28:03.000Z</time>
      </trkpt>
      <trkpt lat="43.33825" lon="3.57954">
        <ele>2</ele>
        <time>2019-06-01T14:28:08.000Z</time>
      </trkpt>
      <trkpt lat="43.33805" lon="3.57929">
        <ele>0.81</ele>
        <time>2019-06-01T14:28:13.000Z</time>
      </trkpt>
      <trkpt lat="43.33784" lon="3.57903">
        <ele>1.82</ele>
        <time>2019-06-01T14:28:18.000Z</time>
      </trkpt>
      <trkpt lat="43.33764" lon="3.57879">
        <ele>1.83</ele>
        <time>2019-06-01T14:28:23.000Z</time>
      </trkpt>
      <trkpt lat="43.33744" lon="3.57854">
        <ele>2.58</ele>
        <time>2019-06-01T14:28:28.000Z</time>
      </trkpt>
      <trkpt lat="43.33726" lon="3.57831">
        <ele>3.83</ele>
        <time>2019-06-01T14:28:33.000Z</time>
      </trkpt>
      <trkpt lat="43.33707" lon="3.57809">
        <ele>3.08</ele>
        <time>2019-06-01T14:28:38.000Z</time>
      </trkpt>
      <trkpt lat="43.33716" lon="3.57786">
        <ele>1.84</ele>
        <time>2019-06-01T14:28:43.000Z</time>
      </trkpt>
      <trkpt lat="43.33728" lon="3.57758">
        <ele>0.83</ele>
        <time>2019-06-01T14:28:48.000Z</time>
      </trkpt>
      <trkpt lat="43.33741" lon="3.57737">
        <ele>0.84</ele>
        <time>2019-06-01T14:28:53.000Z</time>
      </trkpt>
      <trkpt lat="43.33728" lon="3.5771">
        <ele>2</ele>
        <time>2019-06-01T14:28:58.000Z</time>
      </trkpt>
      <trkpt lat="43.33707" lon="3.57681">
        <ele>2</ele>
        <time>2019-06-01T14:29:03.000Z</time>
      </trkpt>
      <trkpt lat="43.33685" lon="3.57652">
        <ele>0.83</ele>
        <time>2019-06-01T14:29:08.000Z</time>
      </trkpt>
      <trkpt lat="43.33663" lon="3.57623">
        <ele>0.64</ele>
        <time>2019-06-01T14:29:13.000Z</time>
      </trkpt>
      <trkpt lat="43.33641" lon="3.57593">
        <ele>1.81</ele>
        <time>2019-06-01T14:29:18.000Z</time>
      </trkpt>
      <trkpt lat="43.33618" lon="3.57565">
        <ele>0.83</ele>
        <time>2019-06-01T14:29:23.000Z</time>
      </trkpt>
      <trkpt lat="43.33596" lon="3.57536">
        <ele>0.83</ele>
        <time>2019-06-01T14:29:28.000Z</time>
      </trkpt>
      <trkpt lat="43.33574" lon="3.57508">
        <ele>1</ele>
        <time>2019-06-01T14:29:33.000Z</time>
      </trkpt>
      <trkpt lat="43.33553" lon="3.5748">
        <ele>1</ele>
        <time>2019-06-01T14:29:38.000Z</time>
      </trkpt>
      <trkpt lat="43.33532" lon="3.57452">
        <ele>2</ele>
        <time>2019-06-01T14:29:43.000Z</time>
      </trkpt>
      <trkpt lat="43.33514" lon="3.57462">
        <ele>2</ele>
        <time>2019-06-01T14:29:48.000Z</time>
      </trkpt>
      <trkpt lat="43.33498" lon="3.57486">
        <ele>3</ele>
        <time>2019-06-01T14:29:53.000Z</time>
      </trkpt>
      <trkpt lat="43.33481" lon="3.57504">
        <ele>3</ele>
        <time>2019-06-01T14:29:58.000Z</time>
      </trkpt>
      <trkpt lat="43.33457" lon="3.57492">
        <ele>3</ele>
        <time>2019-06-01T14:30:03.000Z</time>
      </trkpt>
      <trkpt lat="43.33433" lon="3.57474">
        <ele>3</ele>
        <time>2019-06-01T14:30:08.000Z</time>
      </trkpt>
      <trkpt lat="43.33413" lon="3.57449">
        <ele>3</ele>
        <time>2019-06-01T14:30:13.000Z</time>
      </trkpt>
      <trkpt lat="43.33392" lon="3.57421">
        <ele>0.63</ele>
        <time>2019-06-01T14:30:18.000Z</time>
      </trkpt>
      <trkpt lat="43.3337" lon="3.57397">
        <ele>0.04</ele>
        <time>2019-06-01T14:30:23.000Z</time>
      </trkpt>
      <trkpt lat="43.33349" lon="3.57372">
        <ele>1.58</ele>
        <time>2019-06-01T14:30:28.000Z</time>
      </trkpt>
      <trkpt lat="43.33327" lon="3.57346">
        <ele>1.07</ele>
        <time>2019-06-01T14:30:33.000Z</time>
      </trkpt>
      <trkpt lat="43.33305" lon="3.57318">
        <ele>1.83</ele>
        <time>2019-06-01T14:30:38.000Z</time>
      </trkpt>
      <trkpt lat="43.33283" lon="3.57292">
        <ele>1.83</ele>
        <time>2019-06-01T14:30:43.000Z</time>
      </trkpt>
      <trkpt lat="43.33261" lon="3.57267">
        <ele>2.77</ele>
        <time>2019-06-01T14:30:48.000Z</time>
      </trkpt>
      <trkpt lat="43.3324" lon="3.57242">
        <ele>2.83</ele>
        <time>2019-06-01T14:30:53.000Z</time>
      </trkpt>
      <trkpt lat="43.3322" lon="3.57218">
        <ele>3.83</ele>
        <time>2019-06-01T14:30:58.000Z</time>
      </trkpt>
      <trkpt lat="43.33199" lon="3.57192">
        <ele>3.83</ele>
        <time>2019-06-01T14:31:03.000Z</time>
      </trkpt>
      <trkpt lat="43.33175" lon="3.57165">
        <ele>3.04</ele>
        <time>2019-06-01T14:31:08.000Z</time>
      </trkpt>
      <trkpt lat="43.33152" lon="3.57136">
        <ele>2.89</ele>
        <time>2019-06-01T14:31:13.000Z</time>
      </trkpt>
      <trkpt lat="43.33129" lon="3.5711">
        <ele>2.65</ele>
        <time>2019-06-01T14:31:18.000Z</time>
      </trkpt>
      <trkpt lat="43.33108" lon="3.57089">
        <ele>3.77</ele>
        <time>2019-06-01T14:31:23.000Z</time>
      </trkpt>
      <trkpt lat="43.33088" lon="3.57064">
        <ele>3.88</ele>
        <time>2019-06-01T14:31:28.000Z</time>
      </trkpt>
      <trkpt lat="43.33067" lon="3.5704">
        <ele>4.82</ele>
        <time>2019-06-01T14:31:33.000Z</time>
      </trkpt>
      <trkpt lat="43.33045" lon="3.57015">
        <ele>4.59</ele>
        <time>2019-06-01T14:31:38.000Z</time>
      </trkpt>
      <trkpt lat="43.33024" lon="3.56988">
        <ele>3.84</ele>
        <time>2019-06-01T14:31:43.000Z</time>
      </trkpt>
      <trkpt lat="43.33002" lon="3.56964">
        <ele>2.85</ele>
        <time>2019-06-01T14:31:48.000Z</time>
      </trkpt>
      <trkpt lat="43.32979" lon="3.56937">
        <ele>1.85</ele>
        <time>2019-06-01T14:31:53.000Z</time>
      </trkpt>
      <trkpt lat="43.32957" lon="3.56912">
        <ele>2.09</ele>
        <time>2019-06-01T14:31:58.000Z</time>
      </trkpt>
      <trkpt lat="43.32936" lon="3.56886">
        <ele>1.84</ele>
        <time>2019-06-01T14:32:03.000Z</time>
      </trkpt>
      <trkpt lat="43.32914" lon="3.56859">
        <ele>1.84</ele>
        <time>2019-06-01T14:32:08.000Z</time>
      </trkpt>
      <trkpt lat="43.32892" lon="3.56834">
        <ele>1.84</ele>
        <time>2019-06-01T14:32:13.000Z</time>
      </trkpt>
      <trkpt lat="43.3287" lon="3.56807">
        <ele>1.84</ele>
        <time>2019-06-01T14:32:18.000Z</time>
      </trkpt>
      <trkpt lat="43.32849" lon="3.56778">
        <ele>1.83</ele>
        <time>2019-06-01T14:32:23.000Z</time>
      </trkpt>
      <trkpt lat="43.3283" lon="3.56748">
        <ele>1.84</ele>
        <time>2019-06-01T14:32:28.000Z</time>
      </trkpt>
      <trkpt lat="43.32811" lon="3.56717">
        <ele>1.84</ele>
        <time>2019-06-01T14:32:33.000Z</time>
      </trkpt>
      <trkpt lat="43.32793" lon="3.56686">
        <ele>0.84</ele>
        <time>2019-06-01T14:32:38.000Z</time>
      </trkpt>
      <trkpt lat="43.32777" lon="3.56655">
        <ele>1.59</ele>
        <time>2019-06-01T14:32:43.000Z</time>
      </trkpt>
      <trkpt lat="43.32762" lon="3.56624">
        <ele>1.82</ele>
        <time>2019-06-01T14:32:48.000Z</time>
      </trkpt>
      <trkpt lat="43.32747" lon="3.56591">
        <ele>0.9</ele>
        <time>2019-06-01T14:32:53.000Z</time>
      </trkpt>
      <trkpt lat="43.32731" lon="3.56557">
        <ele>1.84</ele>
        <time>2019-06-01T14:32:58.000Z</time>
      </trkpt>
      <trkpt lat="43.32717" lon="3.56523">
        <ele>2.82</ele>
        <time>2019-06-01T14:33:03.000Z</time>
      </trkpt>
      <trkpt lat="43.32702" lon="3.56488">
        <ele>1.9</ele>
        <time>2019-06-01T14:33:08.000Z</time>
      </trkpt>
      <trkpt lat="43.3269" lon="3.56451">
        <ele>3.59</ele>
        <time>2019-06-01T14:33:13.000Z</time>
      </trkpt>
      <trkpt lat="43.32674" lon="3.56414">
        <ele>2.84</ele>
        <time>2019-06-01T14:33:18.000Z</time>
      </trkpt>
      <trkpt lat="43.32661" lon="3.56377">
        <ele>2.83</ele>
        <time>2019-06-01T14:33:23.000Z</time>
      </trkpt>
      <trkpt lat="43.32646" lon="3.5634">
        <ele>2.84</ele>
        <time>2019-06-01T14:33:28.000Z</time>
      </trkpt>
      <trkpt lat="43.32632" lon="3.56305">
        <ele>1.09</ele>
        <time>2019-06-01T14:33:33.000Z</time>
      </trkpt>
      <trkpt lat="43.32618" lon="3.56271">
        <ele>0.84</ele>
        <time>2019-06-01T14:33:38.000Z</time>
      </trkpt>
      <trkpt lat="43.32606" lon="3.56254">
        <ele>0.09</ele>
        <time>2019-06-01T14:33:43.000Z</time>
      </trkpt>
      <trkpt lat="43.32601" lon="3.56231">
        <ele>0.59</ele>
        <time>2019-06-01T14:33:48.000Z</time>
      </trkpt>
      <trkpt lat="43.32591" lon="3.56203">
        <ele>1.59</ele>
        <time>2019-06-01T14:33:53.000Z</time>
      </trkpt>
      <trkpt lat="43.32577" lon="3.56174">
        <ele>2.84</ele>
        <time>2019-06-01T14:33:58.000Z</time>
      </trkpt>
      <trkpt lat="43.32562" lon="3.56145">
        <ele>3.59</ele>
        <time>2019-06-01T14:34:03.000Z</time>
      </trkpt>
      <trkpt lat="43.32546" lon="3.56118">
        <ele>4.03</ele>
        <time>2019-06-01T14:34:09.000Z</time>
      </trkpt>
      <trkpt lat="43.32531" lon="3.5609">
        <ele>3.84</ele>
        <time>2019-06-01T14:34:14.000Z</time>
      </trkpt>
      <trkpt lat="43.32514" lon="3.56062">
        <ele>3.84</ele>
        <time>2019-06-01T14:34:19.000Z</time>
      </trkpt>
      <trkpt lat="43.32498" lon="3.56035">
        <ele>3.84</ele>
        <time>2019-06-01T14:34:24.000Z</time>
      </trkpt>
      <trkpt lat="43.32484" lon="3.56026">
        <ele>3.09</ele>
        <time>2019-06-01T14:34:29.000Z</time>
      </trkpt>
      <trkpt lat="43.32475" lon="3.5601">
        <ele>4.84</ele>
        <time>2019-06-01T14:34:34.000Z</time>
      </trkpt>
      <trkpt lat="43.32467" lon="3.55984">
        <ele>3.9</ele>
        <time>2019-06-01T14:34:39.000Z</time>
      </trkpt>
      <trkpt lat="43.32454" lon="3.55957">
        <ele>4.83</ele>
        <time>2019-06-01T14:34:44.000Z</time>
      </trkpt>
      <trkpt lat="43.3244" lon="3.55929">
        <ele>3.85</ele>
        <time>2019-06-01T14:34:49.000Z</time>
      </trkpt>
      <trkpt lat="43.32423" lon="3.55904">
        <ele>4.03</ele>
        <time>2019-06-01T14:34:54.000Z</time>
      </trkpt>
      <trkpt lat="43.32416" lon="3.55885">
        <ele>3.86</ele>
        <time>2019-06-01T14:34:59.000Z</time>
      </trkpt>
      <trkpt lat="43.32407" lon="3.55869">
        <ele>3.84</ele>
        <time>2019-06-01T14:35:04.000Z</time>
      </trkpt>
      <trkpt lat="43.32395" lon="3.55849">
        <ele>2.86</ele>
        <time>2019-06-01T14:35:09.000Z</time>
      </trkpt>
      <trkpt lat="43.32382" lon="3.55822">
        <ele>4.82</ele>
        <time>2019-06-01T14:35:14.000Z</time>
      </trkpt>
      <trkpt lat="43.32368" lon="3.55795">
        <ele>3.84</ele>
        <time>2019-06-01T14:35:19.000Z</time>
      </trkpt>
      <trkpt lat="43.32353" lon="3.55766">
        <ele>4.59</ele>
        <time>2019-06-01T14:35:24.000Z</time>
      </trkpt>
      <trkpt lat="43.32336" lon="3.55736">
        <ele>4.84</ele>
        <time>2019-06-01T14:35:29.000Z</time>
      </trkpt>
      <trkpt lat="43.3232" lon="3.55707">
        <ele>3.86</ele>
        <time>2019-06-01T14:35:34.000Z</time>
      </trkpt>
      <trkpt lat="43.32303" lon="3.55679">
        <ele>2.89</ele>
        <time>2019-06-01T14:35:39.000Z</time>
      </trkpt>
      <trkpt lat="43.32287" lon="3.5565">
        <ele>2.83</ele>
        <time>2019-06-01T14:35:44.000Z</time>
      </trkpt>
      <trkpt lat="43.32272" lon="3.55621">
        <ele>4.77</ele>
        <time>2019-06-01T14:35:49.000Z</time>
      </trkpt>
      <trkpt lat="43.32256" lon="3.55597">
        <ele>2.91</ele>
        <time>2019-06-01T14:35:54.000Z</time>
      </trkpt>
      <trkpt lat="43.32249" lon="3.55583">
        <ele>2.84</ele>
        <time>2019-06-01T14:35:59.000Z</time>
      </trkpt>
      <trkpt lat="43.32242" lon="3.55573">
        <ele>3.78</ele>
        <time>2019-06-01T14:36:04.000Z</time>
      </trkpt>
      <trkpt lat="43.32233" lon="3.55555">
        <ele>3.84</ele>
        <time>2019-06-01T14:36:09.000Z</time>
      </trkpt>
      <trkpt lat="43.32221" lon="3.55531">
        <ele>2.84</ele>
        <time>2019-06-01T14:37:04.000Z</time>
      </trkpt>
      <trkpt lat="43.32208" lon="3.55507">
        <ele>2.84</ele>
        <time>2019-06-01T14:37:09.000Z</time>
      </trkpt>
      <trkpt lat="43.32195" lon="3.55482">
        <ele>2.84</ele>
        <time>2019-06-01T14:37:14.000Z</time>
      </trkpt>
      <trkpt lat="43.32182" lon="3.55457">
        <ele>2.84</ele>
        <time>2019-06-01T14:37:19.000Z</time>
      </trkpt>
      <trkpt lat="43.3217" lon="3.55433">
        <ele>2.84</ele>
        <time>2019-06-01T14:37:24.000Z</time>
      </trkpt>
      <trkpt lat="43.32159" lon="3.55408">
        <ele>2.6</ele>
        <time>2019-06-01T14:37:29.000Z</time>
      </trkpt>
      <trkpt lat="43.32148" lon="3.55382">
        <ele>2.83</ele>
        <time>2019-06-01T14:37:34.000Z</time>
      </trkpt>
      <trkpt lat="43.32138" lon="3.55355">
        <ele>2.91</ele>
        <time>2019-06-01T14:37:39.000Z</time>
      </trkpt>
      <trkpt lat="43.32129" lon="3.55327">
        <ele>2.61</ele>
        <time>2019-06-01T14:37:44.000Z</time>
      </trkpt>
      <trkpt lat="43.3212" lon="3.55298">
        <ele>2.09</ele>
        <time>2019-06-01T14:37:49.000Z</time>
      </trkpt>
      <trkpt lat="43.32111" lon="3.55274">
        <ele>2.09</ele>
        <time>2019-06-01T14:37:54.000Z</time>
      </trkpt>
      <trkpt lat="43.32106" lon="3.55255">
        <ele>1.84</ele>
        <time>2019-06-01T14:38:00.000Z</time>
      </trkpt>
      <trkpt lat="43.321" lon="3.55234">
        <ele>1.84</ele>
        <time>2019-06-01T14:38:05.000Z</time>
      </trkpt>
      <trkpt lat="43.32093" lon="3.55211">
        <ele>2.84</ele>
        <time>2019-06-01T14:38:10.000Z</time>
      </trkpt>
      <trkpt lat="43.32083" lon="3.55184">
        <ele>1.91</ele>
        <time>2019-06-01T14:38:15.000Z</time>
      </trkpt>
      <trkpt lat="43.32074" lon="3.55152">
        <ele>1.84</ele>
        <time>2019-06-01T14:38:20.000Z</time>
      </trkpt>
      <trkpt lat="43.32062" lon="3.55117">
        <ele>1.09</ele>
        <time>2019-06-01T14:38:25.000Z</time>
      </trkpt>
      <trkpt lat="43.32052" lon="3.55081">
        <ele>0.1</ele>
        <time>2019-06-01T14:38:30.000Z</time>
      </trkpt>
      <trkpt lat="43.32041" lon="3.55047">
        <ele>3</ele>
        <time>2019-06-01T14:38:35.000Z</time>
      </trkpt>
      <trkpt lat="43.3203" lon="3.55012">
        <ele>0.6</ele>
        <time>2019-06-01T14:38:40.000Z</time>
      </trkpt>
      <trkpt lat="43.32019" lon="3.54979">
        <ele>2.78</ele>
        <time>2019-06-01T14:38:45.000Z</time>
      </trkpt>
      <trkpt lat="43.32011" lon="3.54954">
        <ele>4.78</ele>
        <time>2019-06-01T14:38:50.000Z</time>
      </trkpt>
      <trkpt lat="43.32004" lon="3.54938">
        <ele>4.1</ele>
        <time>2019-06-01T14:38:55.000Z</time>
      </trkpt>
      <trkpt lat="43.32003" lon="3.54923">
        <ele>1.78</ele>
        <time>2019-06-01T14:39:00.000Z</time>
      </trkpt>
      <trkpt lat="43.31994" lon="3.54893">
        <ele>1.85</ele>
        <time>2019-06-01T14:39:05.000Z</time>
      </trkpt>
      <trkpt lat="43.31986" lon="3.54861">
        <ele>2.04</ele>
        <time>2019-06-01T14:39:10.000Z</time>
      </trkpt>
      <trkpt lat="43.31974" lon="3.54829">
        <ele>1.85</ele>
        <time>2019-06-01T14:39:15.000Z</time>
      </trkpt>
      <trkpt lat="43.31963" lon="3.54794">
        <ele>1.1</ele>
        <time>2019-06-01T14:39:20.000Z</time>
      </trkpt>
      <trkpt lat="43.31952" lon="3.54759">
        <ele>1.84</ele>
        <time>2019-06-01T14:39:25.000Z</time>
      </trkpt>
      <trkpt lat="43.31941" lon="3.54725">
        <ele>2.78</ele>
        <time>2019-06-01T14:39:30.000Z</time>
      </trkpt>
      <trkpt lat="43.31931" lon="3.54691">
        <ele>2.85</ele>
        <time>2019-06-01T14:39:35.000Z</time>
      </trkpt>
      <trkpt lat="43.3192" lon="3.5466">
        <ele>2.14</ele>
        <time>2019-06-01T14:39:40.000Z</time>
      </trkpt>
      <trkpt lat="43.31901" lon="3.5464">
        <ele>2.6</ele>
        <time>2019-06-01T14:39:45.000Z</time>
      </trkpt>
      <trkpt lat="43.31891" lon="3.54642">
        <ele>2.1</ele>
        <time>2019-06-01T14:39:50.000Z</time>
      </trkpt>
      <trkpt lat="43.31883" lon="3.54631">
        <ele>1.85</ele>
        <time>2019-06-01T14:39:55.000Z</time>
      </trkpt>
      <trkpt lat="43.31884" lon="3.54609">
        <ele>2.6</ele>
        <time>2019-06-01T14:40:00.000Z</time>
      </trkpt>
      <trkpt lat="43.31891" lon="3.5458">
        <ele>2.85</ele>
        <time>2019-06-01T14:40:05.000Z</time>
      </trkpt>
      <trkpt lat="43.31883" lon="3.54549">
        <ele>2.85</ele>
        <time>2019-06-01T14:40:10.000Z</time>
      </trkpt>
      <trkpt lat="43.31875" lon="3.54517">
        <ele>2.9</ele>
        <time>2019-06-01T14:40:15.000Z</time>
      </trkpt>
      <trkpt lat="43.31865" lon="3.54483">
        <ele>2.85</ele>
        <time>2019-06-01T14:40:20.000Z</time>
      </trkpt>
      <trkpt lat="43.31855" lon="3.54447">
        <ele>2.85</ele>
        <time>2019-06-01T14:40:25.000Z</time>
      </trkpt>
      <trkpt lat="43.31845" lon="3.54411">
        <ele>1.91</ele>
        <time>2019-06-01T14:40:30.000Z</time>
      </trkpt>
      <trkpt lat="43.31834" lon="3.54373">
        <ele>1.85</ele>
        <time>2019-06-01T14:40:35.000Z</time>
      </trkpt>
      <trkpt lat="43.31822" lon="3.54337">
        <ele>2</ele>
        <time>2019-06-01T14:40:40.000Z</time>
      </trkpt>
      <trkpt lat="43.31811" lon="3.54299">
        <ele>0.6</ele>
        <time>2019-06-01T14:40:47.000Z</time>
      </trkpt>
      <trkpt lat="43.318" lon="3.54262">
        <ele>0.8</ele>
        <time>2019-06-01T14:40:52.000Z</time>
      </trkpt>
      <trkpt lat="43.31789" lon="3.54225">
        <ele>0.85</ele>
        <time>2019-06-01T14:40:57.000Z</time>
      </trkpt>
      <trkpt lat="43.31778" lon="3.54186">
        <ele>0.85</ele>
        <time>2019-06-01T14:41:02.000Z</time>
      </trkpt>
      <trkpt lat="43.31765" lon="3.54149">
        <ele>0.85</ele>
        <time>2019-06-01T14:41:07.000Z</time>
      </trkpt>
      <trkpt lat="43.31754" lon="3.54111">
        <ele>0.85</ele>
        <time>2019-06-01T14:41:12.000Z</time>
      </trkpt>
      <trkpt lat="43.31743" lon="3.54073">
        <ele>1.78</ele>
        <time>2019-06-01T14:41:17.000Z</time>
      </trkpt>
      <trkpt lat="43.31731" lon="3.54038">
        <ele>2.6</ele>
        <time>2019-06-01T14:41:22.000Z</time>
      </trkpt>
      <trkpt lat="43.31721" lon="3.54003">
        <ele>2.66</ele>
        <time>2019-06-01T14:41:27.000Z</time>
      </trkpt>
      <trkpt lat="43.3171" lon="3.53967">
        <ele>2.85</ele>
        <time>2019-06-01T14:41:32.000Z</time>
      </trkpt>
      <trkpt lat="43.31698" lon="3.53931">
        <ele>2.85</ele>
        <time>2019-06-01T14:41:37.000Z</time>
      </trkpt>
      <trkpt lat="43.31686" lon="3.53894">
        <ele>1.86</ele>
        <time>2019-06-01T14:41:42.000Z</time>
      </trkpt>
      <trkpt lat="43.31674" lon="3.53856">
        <ele>1.85</ele>
        <time>2019-06-01T14:41:47.000Z</time>
      </trkpt>
      <trkpt lat="43.31662" lon="3.53818">
        <ele>1.85</ele>
        <time>2019-06-01T14:41:52.000Z</time>
      </trkpt>
      <trkpt lat="43.31652" lon="3.53781">
        <ele>1.85</ele>
        <time>2019-06-01T14:41:57.000Z</time>
      </trkpt>
      <trkpt lat="43.31641" lon="3.53744">
        <ele>2.78</ele>
        <time>2019-06-01T14:42:02.000Z</time>
      </trkpt>
      <trkpt lat="43.31629" lon="3.53709">
        <ele>2.85</ele>
        <time>2019-06-01T14:42:07.000Z</time>
      </trkpt>
      <trkpt lat="43.31618" lon="3.53674">
        <ele>1.86</ele>
        <time>2019-06-01T14:42:12.000Z</time>
      </trkpt>
      <trkpt lat="43.31607" lon="3.53638">
        <ele>0.86</ele>
        <time>2019-06-01T14:42:17.000Z</time>
      </trkpt>
      <trkpt lat="43.31594" lon="3.53602">
        <ele>0.85</ele>
        <time>2019-06-01T14:42:22.000Z</time>
      </trkpt>
      <trkpt lat="43.31583" lon="3.53566">
        <ele>1.08</ele>
        <time>2019-06-01T14:42:27.000Z</time>
      </trkpt>
      <trkpt lat="43.31569" lon="3.53536">
        <ele>1.83</ele>
        <time>2019-06-01T14:42:32.000Z</time>
      </trkpt>
      <trkpt lat="43.31555" lon="3.53532">
        <ele>1.11</ele>
        <time>2019-06-01T14:42:37.000Z</time>
      </trkpt>
      <trkpt lat="43.31546" lon="3.53522">
        <ele>1.85</ele>
        <time>2019-06-01T14:42:42.000Z</time>
      </trkpt>
      <trkpt lat="43.31548" lon="3.53498">
        <ele>1.85</ele>
        <time>2019-06-01T14:42:47.000Z</time>
      </trkpt>
      <trkpt lat="43.31553" lon="3.53473">
        <ele>1.85</ele>
        <time>2019-06-01T14:42:52.000Z</time>
      </trkpt>
      <trkpt lat="43.3155" lon="3.53446">
        <ele>2.85</ele>
        <time>2019-06-01T14:42:57.000Z</time>
      </trkpt>
      <trkpt lat="43.31539" lon="3.53417">
        <ele>1.91</ele>
        <time>2019-06-01T14:43:02.000Z</time>
      </trkpt>
      <trkpt lat="43.31529" lon="3.53385">
        <ele>2.85</ele>
        <time>2019-06-01T14:43:07.000Z</time>
      </trkpt>
      <trkpt lat="43.31518" lon="3.5335">
        <ele>1.85</ele>
        <time>2019-06-01T14:43:12.000Z</time>
      </trkpt>
      <trkpt lat="43.31507" lon="3.53314">
        <ele>2.79</ele>
        <time>2019-06-01T14:43:17.000Z</time>
      </trkpt>
      <trkpt lat="43.31496" lon="3.53278">
        <ele>2.83</ele>
        <time>2019-06-01T14:43:22.000Z</time>
      </trkpt>
      <trkpt lat="43.31485" lon="3.53241">
        <ele>2.85</ele>
        <time>2019-06-01T14:43:27.000Z</time>
      </trkpt>
      <trkpt lat="43.31473" lon="3.53204">
        <ele>2.85</ele>
        <time>2019-06-01T14:43:32.000Z</time>
      </trkpt>
      <trkpt lat="43.31462" lon="3.53168">
        <ele>2.85</ele>
        <time>2019-06-01T14:43:37.000Z</time>
      </trkpt>
      <trkpt lat="43.3145" lon="3.5313">
        <ele>2.1</ele>
        <time>2019-06-01T14:43:42.000Z</time>
      </trkpt>
      <trkpt lat="43.31438" lon="3.53093">
        <ele>1.85</ele>
        <time>2019-06-01T14:43:47.000Z</time>
      </trkpt>
      <trkpt lat="43.31427" lon="3.53057">
        <ele>2.85</ele>
        <time>2019-06-01T14:43:52.000Z</time>
      </trkpt>
      <trkpt lat="43.31417" lon="3.53019">
        <ele>2.85</ele>
        <time>2019-06-01T14:43:57.000Z</time>
      </trkpt>
      <trkpt lat="43.31405" lon="3.52984">
        <ele>1.85</ele>
        <time>2019-06-01T14:44:02.000Z</time>
      </trkpt>
      <trkpt lat="43.31394" lon="3.52948">
        <ele>1.85</ele>
        <time>2019-06-01T14:44:07.000Z</time>
      </trkpt>
      <trkpt lat="43.31383" lon="3.52912">
        <ele>2.84</ele>
        <time>2019-06-01T14:44:12.000Z</time>
      </trkpt>
      <trkpt lat="43.31371" lon="3.52873">
        <ele>1.85</ele>
        <time>2019-06-01T14:44:17.000Z</time>
      </trkpt>
      <trkpt lat="43.31359" lon="3.52835">
        <ele>1.6</ele>
        <time>2019-06-01T14:44:22.000Z</time>
      </trkpt>
      <trkpt lat="43.31347" lon="3.52797">
        <ele>0.85</ele>
        <time>2019-06-01T14:44:27.000Z</time>
      </trkpt>
      <trkpt lat="43.31336" lon="3.52759">
        <ele>0.85</ele>
        <time>2019-06-01T14:44:32.000Z</time>
      </trkpt>
      <trkpt lat="43.31323" lon="3.5272">
        <ele>0.79</ele>
        <time>2019-06-01T14:44:37.000Z</time>
      </trkpt>
      <trkpt lat="43.31311" lon="3.52682">
        <ele>0.85</ele>
        <time>2019-06-01T14:44:42.000Z</time>
      </trkpt>
      <trkpt lat="43.31299" lon="3.52644">
        <ele>0.85</ele>
        <time>2019-06-01T14:44:47.000Z</time>
      </trkpt>
      <trkpt lat="43.31288" lon="3.52604">
        <ele>2.6</ele>
        <time>2019-06-01T14:44:52.000Z</time>
      </trkpt>
      <trkpt lat="43.31275" lon="3.52565">
        <ele>2.85</ele>
        <time>2019-06-01T14:44:57.000Z</time>
      </trkpt>
      <trkpt lat="43.31263" lon="3.52526">
        <ele>1.86</ele>
        <time>2019-06-01T14:45:02.000Z</time>
      </trkpt>
      <trkpt lat="43.3125" lon="3.52488">
        <ele>0.1</ele>
        <time>2019-06-01T14:45:07.000Z</time>
      </trkpt>
      <trkpt lat="43.31238" lon="3.5245">
        <ele>0.85</ele>
        <time>2019-06-01T14:45:12.000Z</time>
      </trkpt>
      <trkpt lat="43.31227" lon="3.52412">
        <ele>0.85</ele>
        <time>2019-06-01T14:45:17.000Z</time>
      </trkpt>
      <trkpt lat="43.31214" lon="3.52374">
        <ele>1</ele>
        <time>2019-06-01T14:45:22.000Z</time>
      </trkpt>
      <trkpt lat="43.31203" lon="3.52337">
        <ele>1</ele>
        <time>2019-06-01T14:45:27.000Z</time>
      </trkpt>
      <trkpt lat="43.31191" lon="3.52299">
        <ele>0.66</ele>
        <time>2019-06-01T14:45:32.000Z</time>
      </trkpt>
      <trkpt lat="43.31178" lon="3.52264">
        <ele>0.85</ele>
        <time>2019-06-01T14:45:37.000Z</time>
      </trkpt>
      <trkpt lat="43.31169" lon="3.52225">
        <ele>0.86</ele>
        <time>2019-06-01T14:45:42.000Z</time>
      </trkpt>
      <trkpt lat="43.31157" lon="3.52187">
        <ele>0.62</ele>
        <time>2019-06-01T14:45:47.000Z</time>
      </trkpt>
      <trkpt lat="43.31145" lon="3.52149">
        <ele>0.85</ele>
        <time>2019-06-01T14:45:52.000Z</time>
      </trkpt>
      <trkpt lat="43.31134" lon="3.52111">
        <ele>0.85</ele>
        <time>2019-06-01T14:45:57.000Z</time>
      </trkpt>
      <trkpt lat="43.31122" lon="3.52072">
        <ele>1.79</ele>
        <time>2019-06-01T14:46:02.000Z</time>
      </trkpt>
      <trkpt lat="43.3111" lon="3.52034">
        <ele>0.87</ele>
        <time>2019-06-01T14:46:07.000Z</time>
      </trkpt>
      <trkpt lat="43.31096" lon="3.51994">
        <ele>0.85</ele>
        <time>2019-06-01T14:46:12.000Z</time>
      </trkpt>
      <trkpt lat="43.31084" lon="3.51955">
        <ele>0.85</ele>
        <time>2019-06-01T14:46:17.000Z</time>
      </trkpt>
      <trkpt lat="43.31071" lon="3.51914">
        <ele>0.85</ele>
        <time>2019-06-01T14:46:22.000Z</time>
      </trkpt>
      <trkpt lat="43.31058" lon="3.51875">
        <ele>1.85</ele>
        <time>2019-06-01T14:46:27.000Z</time>
      </trkpt>
      <trkpt lat="43.31044" lon="3.51837">
        <ele>1.85</ele>
        <time>2019-06-01T14:46:32.000Z</time>
      </trkpt>
      <trkpt lat="43.31031" lon="3.51798">
        <ele>2.1</ele>
        <time>2019-06-01T14:46:37.000Z</time>
      </trkpt>
      <trkpt lat="43.31019" lon="3.51758">
        <ele>1.85</ele>
        <time>2019-06-01T14:46:42.000Z</time>
      </trkpt>
      <trkpt lat="43.31007" lon="3.51721">
        <ele>1.85</ele>
        <time>2019-06-01T14:46:47.000Z</time>
      </trkpt>
      <trkpt lat="43.30995" lon="3.51683">
        <ele>0.85</ele>
        <time>2019-06-01T14:46:52.000Z</time>
      </trkpt>
      <trkpt lat="43.30984" lon="3.51646">
        <ele>0.85</ele>
        <time>2019-06-01T14:46:57.000Z</time>
      </trkpt>
      <trkpt lat="43.30972" lon="3.51609">
        <ele>1.79</ele>
        <time>2019-06-01T14:47:02.000Z</time>
      </trkpt>
      <trkpt lat="43.3096" lon="3.51572">
        <ele>1.85</ele>
        <time>2019-06-01T14:47:07.000Z</time>
      </trkpt>
      <trkpt lat="43.30949" lon="3.51535">
        <ele>1.85</ele>
        <time>2019-06-01T14:47:12.000Z</time>
      </trkpt>
      <trkpt lat="43.30939" lon="3.51499">
        <ele>2.79</ele>
        <time>2019-06-01T14:47:17.000Z</time>
      </trkpt>
      <trkpt lat="43.30926" lon="3.51463">
        <ele>1.86</ele>
        <time>2019-06-01T14:47:22.000Z</time>
      </trkpt>
      <trkpt lat="43.30915" lon="3.51428">
        <ele>1.62</ele>
        <time>2019-06-01T14:47:27.000Z</time>
      </trkpt>
      <trkpt lat="43.30904" lon="3.51392">
        <ele>0.85</ele>
        <time>2019-06-01T14:47:32.000Z</time>
      </trkpt>
      <trkpt lat="43.30893" lon="3.51356">
        <ele>1.09</ele>
        <time>2019-06-01T14:47:37.000Z</time>
      </trkpt>
      <trkpt lat="43.30879" lon="3.51328">
        <ele>0.1</ele>
        <time>2019-06-01T14:47:42.000Z</time>
      </trkpt>
      <trkpt lat="43.30865" lon="3.51301">
        <ele>0.85</ele>
        <time>2019-06-01T14:47:47.000Z</time>
      </trkpt>
      <trkpt lat="43.30855" lon="3.51267">
        <ele>0.1</ele>
        <time>2019-06-01T14:47:52.000Z</time>
      </trkpt>
      <trkpt lat="43.30846" lon="3.51234">
        <ele>0.6</ele>
        <time>2019-06-01T14:47:57.000Z</time>
      </trkpt>
      <trkpt lat="43.30835" lon="3.51201">
        <ele>0.85</ele>
        <time>2019-06-01T14:48:02.000Z</time>
      </trkpt>
      <trkpt lat="43.30825" lon="3.51168">
        <ele>0.85</ele>
        <time>2019-06-01T14:48:07.000Z</time>
      </trkpt>
      <trkpt lat="43.30816" lon="3.51137">
        <ele>1.85</ele>
        <time>2019-06-01T14:48:12.000Z</time>
      </trkpt>
      <trkpt lat="43.30808" lon="3.51107">
        <ele>1.85</ele>
        <time>2019-06-01T14:48:17.000Z</time>
      </trkpt>
      <trkpt lat="43.30798" lon="3.51075">
        <ele>3.6</ele>
        <time>2019-06-01T14:48:22.000Z</time>
      </trkpt>
      <trkpt lat="43.30789" lon="3.51044">
        <ele>2.86</ele>
        <time>2019-06-01T14:49:05.000Z</time>
      </trkpt>
      <trkpt lat="43.30779" lon="3.51011">
        <ele>3.6</ele>
        <time>2019-06-01T14:49:10.000Z</time>
      </trkpt>
      <trkpt lat="43.30769" lon="3.5098">
        <ele>3.85</ele>
        <time>2019-06-01T14:49:18.000Z</time>
      </trkpt>
      <trkpt lat="43.30756" lon="3.50949">
        <ele>2.91</ele>
        <time>2019-06-01T14:49:23.000Z</time>
      </trkpt>
      <trkpt lat="43.30741" lon="3.50922">
        <ele>3.1</ele>
        <time>2019-06-01T14:49:28.000Z</time>
      </trkpt>
      <trkpt lat="43.30726" lon="3.50895">
        <ele>4.6</ele>
        <time>2019-06-01T14:49:33.000Z</time>
      </trkpt>
      <trkpt lat="43.3071" lon="3.50875">
        <ele>5.6</ele>
        <time>2019-06-01T14:49:38.000Z</time>
      </trkpt>
      <trkpt lat="43.30694" lon="3.50857">
        <ele>6.79</ele>
        <time>2019-06-01T14:49:43.000Z</time>
      </trkpt>
      <trkpt lat="43.30677" lon="3.50844">
        <ele>6.85</ele>
        <time>2019-06-01T14:49:48.000Z</time>
      </trkpt>
      <trkpt lat="43.3066" lon="3.50833">
        <ele>6.85</ele>
        <time>2019-06-01T14:49:53.000Z</time>
      </trkpt>
      <trkpt lat="43.30644" lon="3.50827">
        <ele>6.85</ele>
        <time>2019-06-01T14:49:58.000Z</time>
      </trkpt>
      <trkpt lat="43.30626" lon="3.50822">
        <ele>5.9</ele>
        <time>2019-06-01T14:50:03.000Z</time>
      </trkpt>
      <trkpt lat="43.30609" lon="3.50819">
        <ele>5.85</ele>
        <time>2019-06-01T14:50:08.000Z</time>
      </trkpt>
      <trkpt lat="43.3059" lon="3.50818">
        <ele>6.84</ele>
        <time>2019-06-01T14:50:13.000Z</time>
      </trkpt>
      <trkpt lat="43.30569" lon="3.50817">
        <ele>7.66</ele>
        <time>2019-06-01T14:50:18.000Z</time>
      </trkpt>
      <trkpt lat="43.30548" lon="3.50816">
        <ele>7.85</ele>
        <time>2019-06-01T14:50:23.000Z</time>
      </trkpt>
      <trkpt lat="43.30525" lon="3.50815">
        <ele>8.84</ele>
        <time>2019-06-01T14:50:28.000Z</time>
      </trkpt>
      <trkpt lat="43.30504" lon="3.50814">
        <ele>9.84</ele>
        <time>2019-06-01T14:50:33.000Z</time>
      </trkpt>
      <trkpt lat="43.30482" lon="3.50813">
        <ele>9.61</ele>
        <time>2019-06-01T14:50:38.000Z</time>
      </trkpt>
      <trkpt lat="43.30462" lon="3.50812">
        <ele>8.81</ele>
        <time>2019-06-01T14:50:43.000Z</time>
      </trkpt>
      <trkpt lat="43.30455" lon="3.50793">
        <ele>8.86</ele>
        <time>2019-06-01T14:50:48.000Z</time>
      </trkpt>
      <trkpt lat="43.30457" lon="3.50766">
        <ele>7.87</ele>
        <time>2019-06-01T14:50:53.000Z</time>
      </trkpt>
      <trkpt lat="43.30459" lon="3.50753">
        <ele>8.06</ele>
        <time>2019-06-01T14:50:58.000Z</time>
      </trkpt>
      <trkpt lat="43.30468" lon="3.50748">
        <ele>7.84</ele>
        <time>2019-06-01T14:51:03.000Z</time>
      </trkpt>
      <trkpt lat="43.30482" lon="3.5075">
        <ele>9.61</ele>
        <time>2019-06-01T14:51:08.000Z</time>
      </trkpt>
      <trkpt lat="43.30473" lon="3.50744">
        <ele>10.78</ele>
        <time>2019-06-01T14:51:13.000Z</time>
      </trkpt>
      <trkpt lat="43.30459" lon="3.50738">
        <ele>10.86</ele>
        <time>2019-06-01T14:51:18.000Z</time>
      </trkpt>
      <trkpt lat="43.30455" lon="3.50712">
        <ele>9.86</ele>
        <time>2019-06-01T14:51:23.000Z</time>
      </trkpt>
      <trkpt lat="43.30458" lon="3.50687">
        <ele>10.61</ele>
        <time>2019-06-01T14:51:28.000Z</time>
      </trkpt>
      <trkpt lat="43.30459" lon="3.50669">
        <ele>11.79</ele>
        <time>2019-06-01T14:51:33.000Z</time>
      </trkpt>
      <trkpt lat="43.30461" lon="3.50652">
        <ele>11.86</ele>
        <time>2019-06-01T14:51:38.000Z</time>
      </trkpt>
      <trkpt lat="43.30463" lon="3.50633">
        <ele>10.87</ele>
        <time>2019-06-01T14:51:43.000Z</time>
      </trkpt>
      <trkpt lat="43.30462" lon="3.50611">
        <ele>10.87</ele>
        <time>2019-06-01T14:51:48.000Z</time>
      </trkpt>
      <trkpt lat="43.30459" lon="3.50589">
        <ele>10.86</ele>
        <time>2019-06-01T14:51:53.000Z</time>
      </trkpt>
      <trkpt lat="43.30453" lon="3.5057">
        <ele>11.61</ele>
        <time>2019-06-01T14:51:58.000Z</time>
      </trkpt>
      <trkpt lat="43.3045" lon="3.50549">
        <ele>11.86</ele>
        <time>2019-06-01T14:52:03.000Z</time>
      </trkpt>
      <trkpt lat="43.3045" lon="3.50527">
        <ele>12.79</ele>
        <time>2019-06-01T14:52:08.000Z</time>
      </trkpt>
      <trkpt lat="43.30452" lon="3.50505">
        <ele>12.84</ele>
        <time>2019-06-01T14:52:13.000Z</time>
      </trkpt>
      <trkpt lat="43.30455" lon="3.50485">
        <ele>13.84</ele>
        <time>2019-06-01T14:52:18.000Z</time>
      </trkpt>
      <trkpt lat="43.30456" lon="3.50462">
        <ele>14.84</ele>
        <time>2019-06-01T14:52:23.000Z</time>
      </trkpt>
      <trkpt lat="43.30455" lon="3.50441">
        <ele>15.04</ele>
        <time>2019-06-01T14:52:28.000Z</time>
      </trkpt>
      <trkpt lat="43.3046" lon="3.50423">
        <ele>16.79</ele>
        <time>2019-06-01T14:52:33.000Z</time>
      </trkpt>
      <trkpt lat="43.30465" lon="3.50406">
        <ele>17.85</ele>
        <time>2019-06-01T14:52:38.000Z</time>
      </trkpt>
      <trkpt lat="43.30471" lon="3.50386">
        <ele>17.81</ele>
        <time>2019-06-01T14:52:43.000Z</time>
      </trkpt>
      <trkpt lat="43.30477" lon="3.50368">
        <ele>18.85</ele>
        <time>2019-06-01T14:52:48.000Z</time>
      </trkpt>
      <trkpt lat="43.30484" lon="3.50348">
        <ele>19.87</ele>
        <time>2019-06-01T14:52:53.000Z</time>
      </trkpt>
      <trkpt lat="43.30493" lon="3.5032">
        <ele>17.87</ele>
        <time>2019-06-01T14:52:58.000Z</time>
      </trkpt>
      <trkpt lat="43.30505" lon="3.50288">
        <ele>17.1</ele>
        <time>2019-06-01T14:53:03.000Z</time>
      </trkpt>
      <trkpt lat="43.30517" lon="3.50251">
        <ele>15.87</ele>
        <time>2019-06-01T14:53:08.000Z</time>
      </trkpt>
      <trkpt lat="43.30531" lon="3.50216">
        <ele>14.17</ele>
        <time>2019-06-01T14:53:13.000Z</time>
      </trkpt>
      <trkpt lat="43.30545" lon="3.50183">
        <ele>13.85</ele>
        <time>2019-06-01T14:53:18.000Z</time>
      </trkpt>
      <trkpt lat="43.30557" lon="3.50158">
        <ele>13.85</ele>
        <time>2019-06-01T14:53:23.000Z</time>
      </trkpt>
      <trkpt lat="43.30566" lon="3.50131">
        <ele>13.79</ele>
        <time>2019-06-01T14:53:28.000Z</time>
      </trkpt>
      <trkpt lat="43.3057" lon="3.50102">
        <ele>13.86</ele>
        <time>2019-06-01T14:53:33.000Z</time>
      </trkpt>
      <trkpt lat="43.30558" lon="3.50076">
        <ele>13.85</ele>
        <time>2019-06-01T14:53:38.000Z</time>
      </trkpt>
      <trkpt lat="43.30542" lon="3.50056">
        <ele>14.83</ele>
        <time>2019-06-01T14:53:43.000Z</time>
      </trkpt>
      <trkpt lat="43.30538" lon="3.5003">
        <ele>14.91</ele>
        <time>2019-06-01T14:53:48.000Z</time>
      </trkpt>
      <trkpt lat="43.30549" lon="3.49995">
        <ele>14.91</ele>
        <time>2019-06-01T14:53:53.000Z</time>
      </trkpt>
      <trkpt lat="43.30561" lon="3.49957">
        <ele>14.86</ele>
        <time>2019-06-01T14:53:58.000Z</time>
      </trkpt>
      <trkpt lat="43.30572" lon="3.49918">
        <ele>14.1</ele>
        <time>2019-06-01T14:54:03.000Z</time>
      </trkpt>
      <trkpt lat="43.30583" lon="3.49887">
        <ele>13.85</ele>
        <time>2019-06-01T14:54:08.000Z</time>
      </trkpt>
      <trkpt lat="43.30576" lon="3.4986">
        <ele>14.85</ele>
        <time>2019-06-01T14:54:13.000Z</time>
      </trkpt>
      <trkpt lat="43.30565" lon="3.49831">
        <ele>15.85</ele>
        <time>2019-06-01T14:54:18.000Z</time>
      </trkpt>
      <trkpt lat="43.30552" lon="3.49803">
        <ele>15.85</ele>
        <time>2019-06-01T14:54:23.000Z</time>
      </trkpt>
      <trkpt lat="43.3054" lon="3.49776">
        <ele>17.83</ele>
        <time>2019-06-01T14:54:28.000Z</time>
      </trkpt>
      <trkpt lat="43.30533" lon="3.49759">
        <ele>17.62</ele>
        <time>2019-06-01T14:54:33.000Z</time>
      </trkpt>
      <trkpt lat="43.30523" lon="3.49738">
        <ele>17.85</ele>
        <time>2019-06-01T14:54:38.000Z</time>
      </trkpt>
      <trkpt lat="43.30512" lon="3.49711">
        <ele>17.06</ele>
        <time>2019-06-01T14:54:43.000Z</time>
      </trkpt>
      <trkpt lat="43.30499" lon="3.49681">
        <ele>18.84</ele>
        <time>2019-06-01T14:54:48.000Z</time>
      </trkpt>
      <trkpt lat="43.30486" lon="3.49652">
        <ele>18.1</ele>
        <time>2019-06-01T14:54:53.000Z</time>
      </trkpt>
      <trkpt lat="43.30492" lon="3.49616">
        <ele>17.1</ele>
        <time>2019-06-01T14:54:58.000Z</time>
      </trkpt>
      <trkpt lat="43.30499" lon="3.49582">
        <ele>16.6</ele>
        <time>2019-06-01T14:55:03.000Z</time>
      </trkpt>
      <trkpt lat="43.30497" lon="3.49558">
        <ele>15.9</ele>
        <time>2019-06-01T14:55:08.000Z</time>
      </trkpt>
      <trkpt lat="43.30493" lon="3.49525">
        <ele>15.85</ele>
        <time>2019-06-01T14:55:13.000Z</time>
      </trkpt>
      <trkpt lat="43.30486" lon="3.49493">
        <ele>16.85</ele>
        <time>2019-06-01T14:55:18.000Z</time>
      </trkpt>
      <trkpt lat="43.30468" lon="3.4948">
        <ele>17.09</ele>
        <time>2019-06-01T14:55:23.000Z</time>
      </trkpt>
      <trkpt lat="43.30459" lon="3.49449">
        <ele>16.86</ele>
        <time>2019-06-01T14:55:28.000Z</time>
      </trkpt>
      <trkpt lat="43.30462" lon="3.49429">
        <ele>15.9</ele>
        <time>2019-06-01T14:55:33.000Z</time>
      </trkpt>
      <trkpt lat="43.30475" lon="3.49421">
        <ele>17.1</ele>
        <time>2019-06-01T14:55:38.000Z</time>
      </trkpt>
      <trkpt lat="43.30483" lon="3.49402">
        <ele>15.85</ele>
        <time>2019-06-01T14:55:43.000Z</time>
      </trkpt>
      <trkpt lat="43.30487" lon="3.49366">
        <ele>12.12</ele>
        <time>2019-06-01T14:55:48.000Z</time>
      </trkpt>
      <trkpt lat="43.30493" lon="3.49327">
        <ele>11.1</ele>
        <time>2019-06-01T14:55:53.000Z</time>
      </trkpt>
      <trkpt lat="43.305" lon="3.49287">
        <ele>10.12</ele>
        <time>2019-06-01T14:55:58.000Z</time>
      </trkpt>
      <trkpt lat="43.30506" lon="3.49244">
        <ele>10.6</ele>
        <time>2019-06-01T14:56:03.000Z</time>
      </trkpt>
      <trkpt lat="43.30511" lon="3.49208">
        <ele>8.92</ele>
        <time>2019-06-01T14:56:08.000Z</time>
      </trkpt>
      <trkpt lat="43.30511" lon="3.49195">
        <ele>9.1</ele>
        <time>2019-06-01T14:56:13.000Z</time>
      </trkpt>
      <trkpt lat="43.30518" lon="3.49176">
        <ele>9.85</ele>
        <time>2019-06-01T14:56:18.000Z</time>
      </trkpt>
      <trkpt lat="43.30523" lon="3.49146">
        <ele>9.86</ele>
        <time>2019-06-01T14:56:23.000Z</time>
      </trkpt>
      <trkpt lat="43.30531" lon="3.49113">
        <ele>9.85</ele>
        <time>2019-06-01T14:56:28.000Z</time>
      </trkpt>
      <trkpt lat="43.3054" lon="3.49083">
        <ele>9.84</ele>
        <time>2019-06-01T14:56:33.000Z</time>
      </trkpt>
      <trkpt lat="43.30554" lon="3.49057">
        <ele>9.6</ele>
        <time>2019-06-01T14:56:38.000Z</time>
      </trkpt>
      <trkpt lat="43.30564" lon="3.49029">
        <ele>10.8</ele>
        <time>2019-06-01T14:56:43.000Z</time>
      </trkpt>
      <trkpt lat="43.30563" lon="3.49002">
        <ele>12.84</ele>
        <time>2019-06-01T14:56:48.000Z</time>
      </trkpt>
      <trkpt lat="43.30562" lon="3.48985">
        <ele>13.85</ele>
        <time>2019-06-01T14:56:53.000Z</time>
      </trkpt>
      <trkpt lat="43.30561" lon="3.48967">
        <ele>14.85</ele>
        <time>2019-06-01T14:56:58.000Z</time>
      </trkpt>
      <trkpt lat="43.30559" lon="3.48949">
        <ele>15.85</ele>
        <time>2019-06-01T14:57:03.000Z</time>
      </trkpt>
      <trkpt lat="43.30558" lon="3.48929">
        <ele>17.59</ele>
        <time>2019-06-01T14:57:08.000Z</time>
      </trkpt>
      <trkpt lat="43.30557" lon="3.48911">
        <ele>17.85</ele>
        <time>2019-06-01T14:57:13.000Z</time>
      </trkpt>
      <trkpt lat="43.30556" lon="3.48891">
        <ele>18.84</ele>
        <time>2019-06-01T14:57:18.000Z</time>
      </trkpt>
      <trkpt lat="43.30555" lon="3.48869">
        <ele>18.85</ele>
        <time>2019-06-01T14:57:25.000Z</time>
      </trkpt>
      <trkpt lat="43.30551" lon="3.4885">
        <ele>19.83</ele>
        <time>2019-06-01T14:57:30.000Z</time>
      </trkpt>
      <trkpt lat="43.30546" lon="3.48833">
        <ele>20.6</ele>
        <time>2019-06-01T14:57:35.000Z</time>
      </trkpt>
      <trkpt lat="43.30539" lon="3.48814">
        <ele>19.91</ele>
        <time>2019-06-01T14:57:40.000Z</time>
      </trkpt>
      <trkpt lat="43.3053" lon="3.48796">
        <ele>20.09</ele>
        <time>2019-06-01T14:57:45.000Z</time>
      </trkpt>
      <trkpt lat="43.30519" lon="3.48777">
        <ele>20.89</ele>
        <time>2019-06-01T14:57:50.000Z</time>
      </trkpt>
      <trkpt lat="43.30504" lon="3.4876">
        <ele>20.91</ele>
        <time>2019-06-01T14:57:55.000Z</time>
      </trkpt>
      <trkpt lat="43.30492" lon="3.48747">
        <ele>21.83</ele>
        <time>2019-06-01T14:58:00.000Z</time>
      </trkpt>
      <trkpt lat="43.30482" lon="3.4875">
        <ele>20.85</ele>
        <time>2019-06-01T14:58:05.000Z</time>
      </trkpt>
      <trkpt lat="43.30473" lon="3.48747">
        <ele>20.85</ele>
        <time>2019-06-01T14:58:10.000Z</time>
      </trkpt>
      <trkpt lat="43.3047" lon="3.48726">
        <ele>19.86</ele>
        <time>2019-06-01T14:58:15.000Z</time>
      </trkpt>
      <trkpt lat="43.3046" lon="3.48704">
        <ele>19.85</ele>
        <time>2019-06-01T14:58:20.000Z</time>
      </trkpt>
      <trkpt lat="43.30444" lon="3.48686">
        <ele>20.85</ele>
        <time>2019-06-01T14:58:25.000Z</time>
      </trkpt>
      <trkpt lat="43.30427" lon="3.48671">
        <ele>20.85</ele>
        <time>2019-06-01T14:58:30.000Z</time>
      </trkpt>
      <trkpt lat="43.30411" lon="3.48661">
        <ele>20.79</ele>
        <time>2019-06-01T14:58:35.000Z</time>
      </trkpt>
      <trkpt lat="43.30393" lon="3.48652">
        <ele>20.85</ele>
        <time>2019-06-01T14:58:40.000Z</time>
      </trkpt>
      <trkpt lat="43.30377" lon="3.4864">
        <ele>20.85</ele>
        <time>2019-06-01T14:58:45.000Z</time>
      </trkpt>
      <trkpt lat="43.30361" lon="3.48626">
        <ele>21.6</ele>
        <time>2019-06-01T14:58:50.000Z</time>
      </trkpt>
      <trkpt lat="43.30346" lon="3.48615">
        <ele>20.68</ele>
        <time>2019-06-01T14:58:55.000Z</time>
      </trkpt>
      <trkpt lat="43.30331" lon="3.4861">
        <ele>20.9</ele>
        <time>2019-06-01T14:59:00.000Z</time>
      </trkpt>
      <trkpt lat="43.30315" lon="3.48614">
        <ele>20.85</ele>
        <time>2019-06-01T14:59:05.000Z</time>
      </trkpt>
      <trkpt lat="43.30302" lon="3.48612">
        <ele>20.85</ele>
        <time>2019-06-01T14:59:10.000Z</time>
      </trkpt>
      <trkpt lat="43.30296" lon="3.48624">
        <ele>20.79</ele>
        <time>2019-06-01T14:59:15.000Z</time>
      </trkpt>
      <trkpt lat="43.30286" lon="3.48621">
        <ele>19.85</ele>
        <time>2019-06-01T14:59:20.000Z</time>
      </trkpt>
      <trkpt lat="43.30279" lon="3.48608">
        <ele>19.84</ele>
        <time>2019-06-01T14:59:25.000Z</time>
      </trkpt>
      <trkpt lat="43.30286" lon="3.48584">
        <ele>19.85</ele>
        <time>2019-06-01T14:59:30.000Z</time>
      </trkpt>
      <trkpt lat="43.30285" lon="3.48555">
        <ele>19.85</ele>
        <time>2019-06-01T14:59:35.000Z</time>
      </trkpt>
      <trkpt lat="43.3029" lon="3.48534">
        <ele>18.91</ele>
        <time>2019-06-01T14:59:40.000Z</time>
      </trkpt>
      <trkpt lat="43.30282" lon="3.48514">
        <ele>19.84</ele>
        <time>2019-06-01T14:59:45.000Z</time>
      </trkpt>
      <trkpt lat="43.30268" lon="3.48493">
        <ele>18.86</ele>
        <time>2019-06-01T14:59:50.000Z</time>
      </trkpt>
      <trkpt lat="43.3025" lon="3.48474">
        <ele>18.84</ele>
        <time>2019-06-01T14:59:55.000Z</time>
      </trkpt>
      <trkpt lat="43.30228" lon="3.48454">
        <ele>18.85</ele>
        <time>2019-06-01T15:00:00.000Z</time>
      </trkpt>
      <trkpt lat="43.30206" lon="3.48431">
        <ele>17.86</ele>
        <time>2019-06-01T15:00:05.000Z</time>
      </trkpt>
      <trkpt lat="43.30187" lon="3.48405">
        <ele>17.85</ele>
        <time>2019-06-01T15:00:10.000Z</time>
      </trkpt>
      <trkpt lat="43.3017" lon="3.48385">
        <ele>17.85</ele>
        <time>2019-06-01T15:00:15.000Z</time>
      </trkpt>
      <trkpt lat="43.30154" lon="3.4836">
        <ele>17.85</ele>
        <time>2019-06-01T15:00:20.000Z</time>
      </trkpt>
      <trkpt lat="43.30138" lon="3.48334">
        <ele>16.86</ele>
        <time>2019-06-01T15:00:25.000Z</time>
      </trkpt>
      <trkpt lat="43.30119" lon="3.48306">
        <ele>17.6</ele>
        <time>2019-06-01T15:00:30.000Z</time>
      </trkpt>
      <trkpt lat="43.30098" lon="3.48276">
        <ele>19.59</ele>
        <time>2019-06-01T15:00:35.000Z</time>
      </trkpt>
      <trkpt lat="43.3008" lon="3.48246">
        <ele>21.98</ele>
        <time>2019-06-01T15:00:40.000Z</time>
      </trkpt>
      <trkpt lat="43.30067" lon="3.48216">
        <ele>21.85</ele>
        <time>2019-06-01T15:00:45.000Z</time>
      </trkpt>
      <trkpt lat="43.30052" lon="3.48193">
        <ele>21.04</ele>
        <time>2019-06-01T15:00:50.000Z</time>
      </trkpt>
      <trkpt lat="43.30035" lon="3.48197">
        <ele>19.93</ele>
        <time>2019-06-01T15:00:55.000Z</time>
      </trkpt>
      <trkpt lat="43.3003" lon="3.4818">
        <ele>19.86</ele>
        <time>2019-06-01T15:01:00.000Z</time>
      </trkpt>
      <trkpt lat="43.30038" lon="3.4815">
        <ele>19.85</ele>
        <time>2019-06-01T15:01:05.000Z</time>
      </trkpt>
      <trkpt lat="43.30035" lon="3.48118">
        <ele>16.92</ele>
        <time>2019-06-01T15:01:10.000Z</time>
      </trkpt>
      <trkpt lat="43.30025" lon="3.48087">
        <ele>15.92</ele>
        <time>2019-06-01T15:01:15.000Z</time>
      </trkpt>
      <trkpt lat="43.30016" lon="3.48051">
        <ele>14.12</ele>
        <time>2019-06-01T15:01:20.000Z</time>
      </trkpt>
      <trkpt lat="43.30006" lon="3.48015">
        <ele>13.61</ele>
        <time>2019-06-01T15:01:25.000Z</time>
      </trkpt>
      <trkpt lat="43.29997" lon="3.47977">
        <ele>13.85</ele>
        <time>2019-06-01T15:01:30.000Z</time>
      </trkpt>
      <trkpt lat="43.29986" lon="3.47939">
        <ele>13.67</ele>
        <time>2019-06-01T15:01:35.000Z</time>
      </trkpt>
      <trkpt lat="43.2998" lon="3.47901">
        <ele>13.61</ele>
        <time>2019-06-01T15:01:42.000Z</time>
      </trkpt>
      <trkpt lat="43.29974" lon="3.47864">
        <ele>14.84</ele>
        <time>2019-06-01T15:01:47.000Z</time>
      </trkpt>
      <trkpt lat="43.29956" lon="3.47848">
        <ele>15.85</ele>
        <time>2019-06-01T15:01:52.000Z</time>
      </trkpt>
      <trkpt lat="43.29937" lon="3.47842">
        <ele>14.87</ele>
        <time>2019-06-01T15:01:57.000Z</time>
      </trkpt>
      <trkpt lat="43.29925" lon="3.47827">
        <ele>15.89</ele>
        <time>2019-06-01T15:02:02.000Z</time>
      </trkpt>
      <trkpt lat="43.29923" lon="3.47804">
        <ele>16.61</ele>
        <time>2019-06-01T15:02:07.000Z</time>
      </trkpt>
      <trkpt lat="43.29922" lon="3.47782">
        <ele>18.79</ele>
        <time>2019-06-01T15:02:12.000Z</time>
      </trkpt>
      <trkpt lat="43.29936" lon="3.47765">
        <ele>19.84</ele>
        <time>2019-06-01T15:02:17.000Z</time>
      </trkpt>
      <trkpt lat="43.29943" lon="3.47738">
        <ele>19.61</ele>
        <time>2019-06-01T15:02:22.000Z</time>
      </trkpt>
      <trkpt lat="43.29943" lon="3.47704">
        <ele>21.79</ele>
        <time>2019-06-01T15:02:27.000Z</time>
      </trkpt>
      <trkpt lat="43.2994" lon="3.47673">
        <ele>23.04</ele>
        <time>2019-06-01T15:02:32.000Z</time>
      </trkpt>
      <trkpt lat="43.29938" lon="3.47637">
        <ele>22.86</ele>
        <time>2019-06-01T15:02:37.000Z</time>
      </trkpt>
      <trkpt lat="43.29937" lon="3.47601">
        <ele>23.1</ele>
        <time>2019-06-01T15:02:42.000Z</time>
      </trkpt>
      <trkpt lat="43.29934" lon="3.47556">
        <ele>22.67</ele>
        <time>2019-06-01T15:02:47.000Z</time>
      </trkpt>
      <trkpt lat="43.2993" lon="3.47509">
        <ele>22.85</ele>
        <time>2019-06-01T15:02:52.000Z</time>
      </trkpt>
      <trkpt lat="43.29929" lon="3.47462">
        <ele>21.11</ele>
        <time>2019-06-01T15:02:57.000Z</time>
      </trkpt>
      <trkpt lat="43.29926" lon="3.47417">
        <ele>19.87</ele>
        <time>2019-06-01T15:03:02.000Z</time>
      </trkpt>
      <trkpt lat="43.29925" lon="3.47371">
        <ele>19.1</ele>
        <time>2019-06-01T15:03:07.000Z</time>
      </trkpt>
      <trkpt lat="43.29928" lon="3.47327">
        <ele>19.85</ele>
        <time>2019-06-01T15:03:12.000Z</time>
      </trkpt>
      <trkpt lat="43.29944" lon="3.47287">
        <ele>17.98</ele>
        <time>2019-06-01T15:03:17.000Z</time>
      </trkpt>
      <trkpt lat="43.29968" lon="3.47255">
        <ele>15.17</ele>
        <time>2019-06-01T15:03:22.000Z</time>
      </trkpt>
      <trkpt lat="43.29992" lon="3.47225">
        <ele>13.11</ele>
        <time>2019-06-01T15:03:27.000Z</time>
      </trkpt>
      <trkpt lat="43.30002" lon="3.47197">
        <ele>12.85</ele>
        <time>2019-06-01T15:03:32.000Z</time>
      </trkpt>
      <trkpt lat="43.3" lon="3.47183">
        <ele>11.66</ele>
        <time>2019-06-01T15:03:37.000Z</time>
      </trkpt>
      <trkpt lat="43.30007" lon="3.47165">
        <ele>12.6</ele>
        <time>2019-06-01T15:03:42.000Z</time>
      </trkpt>
      <trkpt lat="43.30015" lon="3.47154">
        <ele>11.85</ele>
        <time>2019-06-01T15:03:47.000Z</time>
      </trkpt>
      <trkpt lat="43.30025" lon="3.47149">
        <ele>12.6</ele>
        <time>2019-06-01T15:03:52.000Z</time>
      </trkpt>
      <trkpt lat="43.30021" lon="3.47123">
        <ele>11.86</ele>
        <time>2019-06-01T15:03:57.000Z</time>
      </trkpt>
      <trkpt lat="43.30008" lon="3.4709">
        <ele>11.9</ele>
        <time>2019-06-01T15:04:02.000Z</time>
      </trkpt>
      <trkpt lat="43.29986" lon="3.47065">
        <ele>13.85</ele>
        <time>2019-06-01T15:04:07.000Z</time>
      </trkpt>
      <trkpt lat="43.29964" lon="3.47048">
        <ele>15.04</ele>
        <time>2019-06-01T15:04:12.000Z</time>
      </trkpt>
      <trkpt lat="43.29942" lon="3.47038">
        <ele>14.79</ele>
        <time>2019-06-01T15:04:17.000Z</time>
      </trkpt>
      <trkpt lat="43.29921" lon="3.47037">
        <ele>13.92</ele>
        <time>2019-06-01T15:04:22.000Z</time>
      </trkpt>
      <trkpt lat="43.29901" lon="3.47039">
        <ele>13.86</ele>
        <time>2019-06-01T15:04:27.000Z</time>
      </trkpt>
      <trkpt lat="43.2988" lon="3.47042">
        <ele>14.6</ele>
        <time>2019-06-01T15:04:32.000Z</time>
      </trkpt>
      <trkpt lat="43.2986" lon="3.47037">
        <ele>15.79</ele>
        <time>2019-06-01T15:04:37.000Z</time>
      </trkpt>
      <trkpt lat="43.2984" lon="3.47028">
        <ele>14.91</ele>
        <time>2019-06-01T15:04:42.000Z</time>
      </trkpt>
      <trkpt lat="43.29825" lon="3.47023">
        <ele>14.85</ele>
        <time>2019-06-01T15:04:47.000Z</time>
      </trkpt>
      <trkpt lat="43.2981" lon="3.47029">
        <ele>15.6</ele>
        <time>2019-06-01T15:04:52.000Z</time>
      </trkpt>
      <trkpt lat="43.29797" lon="3.47044">
        <ele>14.92</ele>
        <time>2019-06-01T15:04:57.000Z</time>
      </trkpt>
      <trkpt lat="43.29785" lon="3.47063">
        <ele>15.79</ele>
        <time>2019-06-01T15:05:02.000Z</time>
      </trkpt>
      <trkpt lat="43.29765" lon="3.4707">
        <ele>15.86</ele>
        <time>2019-06-01T15:05:07.000Z</time>
      </trkpt>
      <trkpt lat="43.29743" lon="3.47075">
        <ele>15.15</ele>
        <time>2019-06-01T15:05:12.000Z</time>
      </trkpt>
      <trkpt lat="43.29718" lon="3.47081">
        <ele>15.67</ele>
        <time>2019-06-01T15:05:17.000Z</time>
      </trkpt>
      <trkpt lat="43.29693" lon="3.47086">
        <ele>14.86</ele>
        <time>2019-06-01T15:05:22.000Z</time>
      </trkpt>
      <trkpt lat="43.29672" lon="3.47075">
        <ele>14.86</ele>
        <time>2019-06-01T15:05:27.000Z</time>
      </trkpt>
      <trkpt lat="43.29661" lon="3.47054">
        <ele>14.86</ele>
        <time>2019-06-01T15:05:32.000Z</time>
      </trkpt>
      <trkpt lat="43.29653" lon="3.47049">
        <ele>14.61</ele>
        <time>2019-06-01T15:05:37.000Z</time>
      </trkpt>
      <trkpt lat="43.29637" lon="3.47052">
        <ele>13.86</ele>
        <time>2019-06-01T15:05:42.000Z</time>
      </trkpt>
      <trkpt lat="43.29626" lon="3.47062">
        <ele>13.8</ele>
        <time>2019-06-01T15:05:47.000Z</time>
      </trkpt>
      <trkpt lat="43.29622" lon="3.4709">
        <ele>12.86</ele>
        <time>2019-06-01T15:05:52.000Z</time>
      </trkpt>
      <trkpt lat="43.29597" lon="3.47097">
        <ele>13.8</ele>
        <time>2019-06-01T15:05:57.000Z</time>
      </trkpt>
      <trkpt lat="43.29568" lon="3.47096">
        <ele>11.36</ele>
        <time>2019-06-01T15:06:02.000Z</time>
      </trkpt>
      <trkpt lat="43.29535" lon="3.47092">
        <ele>10.12</ele>
        <time>2019-06-01T15:06:07.000Z</time>
      </trkpt>
      <trkpt lat="43.29503" lon="3.47087">
        <ele>8.88</ele>
        <time>2019-06-01T15:06:12.000Z</time>
      </trkpt>
      <trkpt lat="43.29479" lon="3.47082">
        <ele>8.63</ele>
        <time>2019-06-01T15:06:17.000Z</time>
      </trkpt>
      <trkpt lat="43.29454" lon="3.47074">
        <ele>7.87</ele>
        <time>2019-06-01T15:06:22.000Z</time>
      </trkpt>
      <trkpt lat="43.29426" lon="3.47064">
        <ele>8.86</ele>
        <time>2019-06-01T15:06:27.000Z</time>
      </trkpt>
      <trkpt lat="43.29396" lon="3.47055">
        <ele>9.61</ele>
        <time>2019-06-01T15:06:32.000Z</time>
      </trkpt>
      <trkpt lat="43.29368" lon="3.47044">
        <ele>9.86</ele>
        <time>2019-06-01T15:06:37.000Z</time>
      </trkpt>
      <trkpt lat="43.29337" lon="3.47036">
        <ele>9.86</ele>
        <time>2019-06-01T15:06:42.000Z</time>
      </trkpt>
      <trkpt lat="43.29305" lon="3.47036">
        <ele>8.93</ele>
        <time>2019-06-01T15:06:47.000Z</time>
      </trkpt>
      <trkpt lat="43.29274" lon="3.47043">
        <ele>8.86</ele>
        <time>2019-06-01T15:06:52.000Z</time>
      </trkpt>
      <trkpt lat="43.29245" lon="3.47055">
        <ele>7.88</ele>
        <time>2019-06-01T15:06:57.000Z</time>
      </trkpt>
      <trkpt lat="43.29212" lon="3.4706">
        <ele>8.86</ele>
        <time>2019-06-01T15:07:21.000Z</time>
      </trkpt>
      <trkpt lat="43.2918" lon="3.47063">
        <ele>7.88</ele>
        <time>2019-06-01T15:07:26.000Z</time>
      </trkpt>
      <trkpt lat="43.29151" lon="3.47063">
        <ele>6.87</ele>
        <time>2019-06-01T15:07:31.000Z</time>
      </trkpt>
      <trkpt lat="43.29121" lon="3.47064">
        <ele>6.12</ele>
        <time>2019-06-01T15:07:36.000Z</time>
      </trkpt>
      <trkpt lat="43.29092" lon="3.47066">
        <ele>5.87</ele>
        <time>2019-06-01T15:07:41.000Z</time>
      </trkpt>
      <trkpt lat="43.29064" lon="3.47067">
        <ele>5.87</ele>
        <time>2019-06-01T15:07:46.000Z</time>
      </trkpt>
      <trkpt lat="43.2904" lon="3.47067">
        <ele>5.62</ele>
        <time>2019-06-01T15:07:51.000Z</time>
      </trkpt>
      <trkpt lat="43.29018" lon="3.47071">
        <ele>5.87</ele>
        <time>2019-06-01T15:07:56.000Z</time>
      </trkpt>
      <trkpt lat="43.28989" lon="3.4707">
        <ele>4.87</ele>
        <time>2019-06-01T15:08:01.000Z</time>
      </trkpt>
      <trkpt lat="43.28958" lon="3.4707">
        <ele>4.68</ele>
        <time>2019-06-01T15:08:06.000Z</time>
      </trkpt>
      <trkpt lat="43.28929" lon="3.47071">
        <ele>4.87</ele>
        <time>2019-06-01T15:08:11.000Z</time>
      </trkpt>
      <trkpt lat="43.28902" lon="3.47072">
        <ele>4.68</ele>
        <time>2019-06-01T15:08:16.000Z</time>
      </trkpt>
      <trkpt lat="43.28887" lon="3.47061">
        <ele>4.82</ele>
        <time>2019-06-01T15:08:22.000Z</time>
      </trkpt>
      <trkpt lat="43.28866" lon="3.47073">
        <ele>3.89</ele>
        <time>2019-06-01T15:08:27.000Z</time>
      </trkpt>
      <trkpt lat="43.28842" lon="3.47067">
        <ele>3.87</ele>
        <time>2019-06-01T15:08:32.000Z</time>
      </trkpt>
      <trkpt lat="43.28819" lon="3.4705">
        <ele>4.87</ele>
        <time>2019-06-01T15:08:37.000Z</time>
      </trkpt>
      <trkpt lat="43.28794" lon="3.47032">
        <ele>5.86</ele>
        <time>2019-06-01T15:08:42.000Z</time>
      </trkpt>
      <trkpt lat="43.28768" lon="3.47013">
        <ele>5.87</ele>
        <time>2019-06-01T15:08:47.000Z</time>
      </trkpt>
      <trkpt lat="43.28743" lon="3.46994">
        <ele>6.81</ele>
        <time>2019-06-01T15:08:52.000Z</time>
      </trkpt>
      <trkpt lat="43.28717" lon="3.46974">
        <ele>8.8</ele>
        <time>2019-06-01T15:08:57.000Z</time>
      </trkpt>
      <trkpt lat="43.28692" lon="3.46953">
        <ele>8.63</ele>
        <time>2019-06-01T15:09:02.000Z</time>
      </trkpt>
      <trkpt lat="43.28666" lon="3.46933">
        <ele>6.94</ele>
        <time>2019-06-01T15:09:07.000Z</time>
      </trkpt>
      <trkpt lat="43.28641" lon="3.46923">
        <ele>6.88</ele>
        <time>2019-06-01T15:09:12.000Z</time>
      </trkpt>
      <trkpt lat="43.2865" lon="3.46927">
        <ele>9.38</ele>
        <time>2019-06-01T15:09:17.000Z</time>
      </trkpt>
      <trkpt lat="43.28658" lon="3.46911">
        <ele>9.89</ele>
        <time>2019-06-01T15:09:22.000Z</time>
      </trkpt>
      <trkpt lat="43.2864" lon="3.46881">
        <ele>9.06</ele>
        <time>2019-06-01T15:09:27.000Z</time>
      </trkpt>
      <trkpt lat="43.28623" lon="3.46854">
        <ele>9.63</ele>
        <time>2019-06-01T15:09:32.000Z</time>
      </trkpt>
      <trkpt lat="43.28601" lon="3.46832">
        <ele>9.88</ele>
        <time>2019-06-01T15:09:37.000Z</time>
      </trkpt>
      <trkpt lat="43.28582" lon="3.46806">
        <ele>7.9</ele>
        <time>2019-06-01T15:09:42.000Z</time>
      </trkpt>
      <trkpt lat="43.28564" lon="3.46778">
        <ele>8.58</ele>
        <time>2019-06-01T15:09:47.000Z</time>
      </trkpt>
      <trkpt lat="43.28543" lon="3.46752">
        <ele>6.9</ele>
        <time>2019-06-01T15:09:52.000Z</time>
      </trkpt>
      <trkpt lat="43.28552" lon="3.46719">
        <ele>4.89</ele>
        <time>2019-06-01T15:09:57.000Z</time>
      </trkpt>
      <trkpt lat="43.28565" lon="3.46685">
        <ele>3.88</ele>
        <time>2019-06-01T15:10:02.000Z</time>
      </trkpt>
      <trkpt lat="43.28578" lon="3.46651">
        <ele>2.88</ele>
        <time>2019-06-01T15:10:07.000Z</time>
      </trkpt>
      <trkpt lat="43.28593" lon="3.46623">
        <ele>4.81</ele>
        <time>2019-06-01T15:10:12.000Z</time>
      </trkpt>
      <trkpt lat="43.28584" lon="3.46629">
        <ele>4.88</ele>
        <time>2019-06-01T15:10:17.000Z</time>
      </trkpt>
      <trkpt lat="43.28574" lon="3.46651">
        <ele>3.13</ele>
        <time>2019-06-01T15:10:22.000Z</time>
      </trkpt>
      <trkpt lat="43.28557" lon="3.46653">
        <ele>2.88</ele>
        <time>2019-06-01T15:10:27.000Z</time>
      </trkpt>
      <trkpt lat="43.28539" lon="3.4662">
        <ele>3.87</ele>
        <time>2019-06-01T15:10:32.000Z</time>
      </trkpt>
      <trkpt lat="43.28529" lon="3.46587">
        <ele>3.88</ele>
        <time>2019-06-01T15:10:37.000Z</time>
      </trkpt>
      <trkpt lat="43.28509" lon="3.46559">
        <ele>4.63</ele>
        <time>2019-06-01T15:10:42.000Z</time>
      </trkpt>
      <trkpt lat="43.28484" lon="3.46544">
        <ele>3.88</ele>
        <time>2019-06-01T15:10:47.000Z</time>
      </trkpt>
      <trkpt lat="43.28457" lon="3.46533">
        <ele>4.69</ele>
        <time>2019-06-01T15:10:53.000Z</time>
      </trkpt>
      <trkpt lat="43.28428" lon="3.46528">
        <ele>5.87</ele>
        <time>2019-06-01T15:12:10.000Z</time>
      </trkpt>
      <trkpt lat="43.28402" lon="3.46515">
        <ele>5.83</ele>
        <time>2019-06-01T15:15:48.000Z</time>
      </trkpt>
      <trkpt lat="43.28379" lon="3.46497">
        <ele>3.88</ele>
        <time>2019-06-01T15:17:39.000Z</time>
      </trkpt>
      <trkpt lat="43.28352" lon="3.46492">
        <ele>3.87</ele>
      </trkpt>
      <trkpt lat="43.28324" lon="3.46483">
        <ele>3.88</ele>
      </trkpt>
      <trkpt lat="43.28297" lon="3.46487">
        <ele>4.19</ele>
      </trkpt>
      <trkpt lat="43.28268" lon="3.46489">
        <ele>4.94</ele>
      </trkpt>
      <trkpt lat="43.2824" lon="3.46487">
        <ele>3.14</ele>
      </trkpt>
      <trkpt lat="43.28214" lon="3.46478">
        <ele>2.87</ele>
      </trkpt>
      <trkpt lat="43.28185" lon="3.4648">
        <ele>2.13</ele>
      </trkpt>
      <trkpt lat="43.28158" lon="3.46491">
        <ele>1.89</ele>
      </trkpt>
      <trkpt lat="43.28132" lon="3.46482">
        <ele>1.84</ele>
      </trkpt>
      <trkpt lat="43.28108" lon="3.46469">
        <ele>2.14</ele>
      </trkpt>
      <trkpt lat="43.28087" lon="3.46457">
        <ele>1.94</ele>
      </trkpt>
      <trkpt lat="43.28062" lon="3.46445">
        <ele>3.87</ele>
      </trkpt>
      <trkpt lat="43.28035" lon="3.46431">
        <ele>4.63</ele>
      </trkpt>
      <trkpt lat="43.28009" lon="3.46417">
        <ele>2.9</ele>
      </trkpt>
      <trkpt lat="43.27983" lon="3.46403">
        <ele>2.89</ele>
      </trkpt>
      <trkpt lat="43.2796" lon="3.46389">
        <ele>3.89</ele>
      </trkpt>
      <trkpt lat="43.27942" lon="3.46375">
        <ele>3.87</ele>
      </trkpt>
      <trkpt lat="43.27931" lon="3.46373">
        <ele>4.87</ele>
      </trkpt>
      <trkpt lat="43.27917" lon="3.46365">
        <ele>3.09</ele>
      </trkpt>
      <trkpt lat="43.27907" lon="3.46368">
        <ele>2.89</ele>
      </trkpt>
      <trkpt lat="43.27905" lon="3.4638">
        <ele>1.89</ele>
      </trkpt>
      <trkpt lat="43.27896" lon="3.4638">
        <ele>2</ele>
      </trkpt>
      <trkpt lat="43.27897" lon="3.46379">
        <ele>7.89</ele>
      </trkpt>
    </trkseg>
  </trk>
</gpx>